<?xml version="1.0" encoding="UTF-8" standalone="no" ?>
<gpx xmlns="http://www.topografix.com/GPX/1/1" xmlns:xsi="http://www.w3.org/2001/XMLSchema-instance" xsi:schemaLocation="http://www.topografix.com/GPX/1/1 http://www.topografix.com/GPX/1/1/gpx.xsd" version="1.1" creator="VisuGPX - https://www.visugpx.com">
  <metadata>
    <name>Vélo Sinus  8/06</name>
    <desc><![CDATA[[img][/img]]]></desc>
  </metadata>
  <trk>
    <name><![CDATA[8 juin 2015]]></name>
    <desc><![CDATA[Avec Sinus]]></desc>
    <trkseg>
      <trkpt lat="47.49375" lon="6.66636">
        <ele>404.045</ele>
        <time>2015-06-08T12:36:24Z</time>
      </trkpt>
      <trkpt lat="47.49386" lon="6.6664">
        <ele>404.871</ele>
        <time>2015-06-08T12:36:31Z</time>
      </trkpt>
      <trkpt lat="47.49367" lon="6.66632">
        <ele>403.348</ele>
        <time>2015-06-08T12:36:35Z</time>
      </trkpt>
      <trkpt lat="47.49352" lon="6.66625">
        <ele>402.605</ele>
        <time>2015-06-08T12:36:43Z</time>
      </trkpt>
      <trkpt lat="47.49388" lon="6.6664">
        <ele>404.362</ele>
        <time>2015-06-08T12:36:49Z</time>
      </trkpt>
      <trkpt lat="47.49372" lon="6.66633">
        <ele>403.719</ele>
        <time>2015-06-08T12:36:51Z</time>
      </trkpt>
      <trkpt lat="47.49364" lon="6.6663">
        <ele>403.311</ele>
        <time>2015-06-08T12:36:51Z</time>
      </trkpt>
      <trkpt lat="47.4938" lon="6.66638">
        <ele>404.752</ele>
        <time>2015-06-08T12:37:07Z</time>
      </trkpt>
      <trkpt lat="47.49373" lon="6.66635">
        <ele>404.104</ele>
        <time>2015-06-08T12:37:08Z</time>
      </trkpt>
      <trkpt lat="47.49341" lon="6.66616">
        <ele>406.882</ele>
        <time>2015-06-08T12:37:16Z</time>
      </trkpt>
      <trkpt lat="47.49334" lon="6.66612">
        <ele>407.16</ele>
        <time>2015-06-08T12:37:16Z</time>
      </trkpt>
      <trkpt lat="47.49341" lon="6.66622">
        <ele>406.624</ele>
        <time>2015-06-08T12:37:22Z</time>
      </trkpt>
      <trkpt lat="47.49337" lon="6.66622">
        <ele>406.65</ele>
        <time>2015-06-08T12:37:33Z</time>
      </trkpt>
      <trkpt lat="47.49344" lon="6.66628">
        <ele>406.093</ele>
        <time>2015-06-08T12:37:49Z</time>
      </trkpt>
      <trkpt lat="47.4938" lon="6.66638">
        <ele>404.643</ele>
        <time>2015-06-08T12:37:55Z</time>
      </trkpt>
      <trkpt lat="47.4937" lon="6.66633">
        <ele>403.788</ele>
        <time>2015-06-08T12:37:57Z</time>
      </trkpt>
      <trkpt lat="47.49387" lon="6.6664">
        <ele>404.83</ele>
        <time>2015-06-08T12:38:03Z</time>
      </trkpt>
      <trkpt lat="47.49376" lon="6.66634">
        <ele>405.489</ele>
        <time>2015-06-08T12:38:05Z</time>
      </trkpt>
      <trkpt lat="47.49382" lon="6.66637">
        <ele>405.134</ele>
        <time>2015-06-08T12:38:11Z</time>
      </trkpt>
      <trkpt lat="47.49385" lon="6.6664">
        <ele>405.02</ele>
        <time>2015-06-08T12:38:22Z</time>
      </trkpt>
      <trkpt lat="47.49386" lon="6.6664">
        <ele>405.003</ele>
        <time>2015-06-08T12:38:28Z</time>
      </trkpt>
      <trkpt lat="47.49374" lon="6.66635">
        <ele>404.055</ele>
        <time>2015-06-08T12:38:36Z</time>
      </trkpt>
      <trkpt lat="47.49365" lon="6.66623">
        <ele>402.552</ele>
        <time>2015-06-08T12:38:38Z</time>
      </trkpt>
      <trkpt lat="47.49376" lon="6.66617">
        <ele>400.847</ele>
        <time>2015-06-08T12:38:53Z</time>
      </trkpt>
      <trkpt lat="47.49362" lon="6.66623">
        <ele>398.705</ele>
        <time>2015-06-08T12:38:56Z</time>
      </trkpt>
      <trkpt lat="47.4861" lon="6.66709">
        <ele>396</ele>
        <time>2015-06-08T12:39:20Z</time>
      </trkpt>
      <trkpt lat="47.48613" lon="6.66704">
        <ele>101</ele>
        <time>2015-06-08T12:39:21Z</time>
      </trkpt>
      <trkpt lat="47.48614" lon="6.66699">
        <ele>102.5</ele>
        <time>2015-06-08T12:39:22Z</time>
      </trkpt>
      <trkpt lat="47.48608" lon="6.66696">
        <ele>103.9</ele>
        <time>2015-06-08T12:39:23Z</time>
      </trkpt>
      <trkpt lat="47.48604" lon="6.66693">
        <ele>104.7</ele>
        <time>2015-06-08T12:39:24Z</time>
      </trkpt>
      <trkpt lat="47.49231" lon="6.66548">
        <ele>423.4</ele>
        <time>2015-06-08T12:39:25Z</time>
      </trkpt>
      <trkpt lat="47.49227" lon="6.6655">
        <ele>422.6</ele>
        <time>2015-06-08T12:39:26Z</time>
      </trkpt>
      <trkpt lat="47.49224" lon="6.66552">
        <ele>422.4</ele>
        <time>2015-06-08T12:39:27Z</time>
      </trkpt>
      <trkpt lat="47.49221" lon="6.66554">
        <ele>422.7</ele>
        <time>2015-06-08T12:39:28Z</time>
      </trkpt>
      <trkpt lat="47.49217" lon="6.66557">
        <ele>422.9</ele>
        <time>2015-06-08T12:39:29Z</time>
      </trkpt>
      <trkpt lat="47.49214" lon="6.6656">
        <ele>423.4</ele>
        <time>2015-06-08T12:39:30Z</time>
      </trkpt>
      <trkpt lat="47.4921" lon="6.66564">
        <ele>423.7</ele>
        <time>2015-06-08T12:39:31Z</time>
      </trkpt>
      <trkpt lat="47.49206" lon="6.66567">
        <ele>423.8</ele>
        <time>2015-06-08T12:39:32Z</time>
      </trkpt>
      <trkpt lat="47.49203" lon="6.66569">
        <ele>424</ele>
        <time>2015-06-08T12:39:33Z</time>
      </trkpt>
      <trkpt lat="47.49199" lon="6.66572">
        <ele>424.2</ele>
        <time>2015-06-08T12:39:34Z</time>
      </trkpt>
      <trkpt lat="47.49194" lon="6.66572">
        <ele>423.9</ele>
        <time>2015-06-08T12:39:35Z</time>
      </trkpt>
      <trkpt lat="47.4919" lon="6.66571">
        <ele>423.2</ele>
        <time>2015-06-08T12:39:36Z</time>
      </trkpt>
      <trkpt lat="47.49185" lon="6.66568">
        <ele>422.4</ele>
        <time>2015-06-08T12:39:37Z</time>
      </trkpt>
      <trkpt lat="47.4918" lon="6.66567">
        <ele>421.7</ele>
        <time>2015-06-08T12:39:38Z</time>
      </trkpt>
      <trkpt lat="47.49175" lon="6.66565">
        <ele>421.3</ele>
        <time>2015-06-08T12:39:39Z</time>
      </trkpt>
      <trkpt lat="47.4917" lon="6.66564">
        <ele>420.7</ele>
        <time>2015-06-08T12:39:40Z</time>
      </trkpt>
      <trkpt lat="47.49165" lon="6.66562">
        <ele>420.2</ele>
        <time>2015-06-08T12:39:41Z</time>
      </trkpt>
      <trkpt lat="47.4916" lon="6.66561">
        <ele>419.6</ele>
        <time>2015-06-08T12:39:42Z</time>
      </trkpt>
      <trkpt lat="47.49155" lon="6.66559">
        <ele>419.2</ele>
        <time>2015-06-08T12:39:43Z</time>
      </trkpt>
      <trkpt lat="47.4915" lon="6.66557">
        <ele>418.8</ele>
        <time>2015-06-08T12:39:44Z</time>
      </trkpt>
      <trkpt lat="47.49145" lon="6.66556">
        <ele>418.5</ele>
        <time>2015-06-08T12:39:45Z</time>
      </trkpt>
      <trkpt lat="47.49139" lon="6.66554">
        <ele>418</ele>
        <time>2015-06-08T12:39:46Z</time>
      </trkpt>
      <trkpt lat="47.49133" lon="6.66552">
        <ele>417.6</ele>
        <time>2015-06-08T12:39:47Z</time>
      </trkpt>
      <trkpt lat="47.49127" lon="6.66551">
        <ele>417.1</ele>
        <time>2015-06-08T12:39:48Z</time>
      </trkpt>
      <trkpt lat="47.49121" lon="6.6655">
        <ele>416.4</ele>
        <time>2015-06-08T12:39:49Z</time>
      </trkpt>
      <trkpt lat="47.49115" lon="6.6655">
        <ele>415.8</ele>
        <time>2015-06-08T12:39:50Z</time>
      </trkpt>
      <trkpt lat="47.49109" lon="6.6655">
        <ele>415.5</ele>
        <time>2015-06-08T12:39:52Z</time>
      </trkpt>
      <trkpt lat="47.49103" lon="6.66549">
        <ele>415.1</ele>
        <time>2015-06-08T12:39:52Z</time>
      </trkpt>
      <trkpt lat="47.49098" lon="6.66547">
        <ele>414.8</ele>
        <time>2015-06-08T12:39:53Z</time>
      </trkpt>
      <trkpt lat="47.49093" lon="6.66545">
        <ele>414.3</ele>
        <time>2015-06-08T12:39:54Z</time>
      </trkpt>
      <trkpt lat="47.49089" lon="6.66543">
        <ele>413.9</ele>
        <time>2015-06-08T12:39:55Z</time>
      </trkpt>
      <trkpt lat="47.49084" lon="6.6654">
        <ele>413.7</ele>
        <time>2015-06-08T12:39:56Z</time>
      </trkpt>
      <trkpt lat="47.4908" lon="6.66538">
        <ele>413.2</ele>
        <time>2015-06-08T12:39:57Z</time>
      </trkpt>
      <trkpt lat="47.49075" lon="6.66536">
        <ele>412.7</ele>
        <time>2015-06-08T12:39:58Z</time>
      </trkpt>
      <trkpt lat="47.49069" lon="6.66534">
        <ele>411.9</ele>
        <time>2015-06-08T12:39:59Z</time>
      </trkpt>
      <trkpt lat="47.49064" lon="6.66531">
        <ele>411.1</ele>
        <time>2015-06-08T12:40:00Z</time>
      </trkpt>
      <trkpt lat="47.49059" lon="6.66527">
        <ele>410.7</ele>
        <time>2015-06-08T12:40:01Z</time>
      </trkpt>
      <trkpt lat="47.49055" lon="6.66522">
        <ele>410.2</ele>
        <time>2015-06-08T12:40:02Z</time>
      </trkpt>
      <trkpt lat="47.4905" lon="6.66517">
        <ele>409.6</ele>
        <time>2015-06-08T12:40:03Z</time>
      </trkpt>
      <trkpt lat="47.49046" lon="6.66512">
        <ele>408.9</ele>
        <time>2015-06-08T12:40:04Z</time>
      </trkpt>
      <trkpt lat="47.49043" lon="6.66506">
        <ele>408.3</ele>
        <time>2015-06-08T12:40:05Z</time>
      </trkpt>
      <trkpt lat="47.4904" lon="6.665">
        <ele>407.7</ele>
        <time>2015-06-08T12:40:06Z</time>
      </trkpt>
      <trkpt lat="47.49036" lon="6.66494">
        <ele>407.1</ele>
        <time>2015-06-08T12:40:07Z</time>
      </trkpt>
      <trkpt lat="47.49033" lon="6.66487">
        <ele>406.5</ele>
        <time>2015-06-08T12:40:08Z</time>
      </trkpt>
      <trkpt lat="47.4903" lon="6.66481">
        <ele>406</ele>
        <time>2015-06-08T12:40:09Z</time>
      </trkpt>
      <trkpt lat="47.49026" lon="6.66476">
        <ele>405.4</ele>
        <time>2015-06-08T12:40:10Z</time>
      </trkpt>
      <trkpt lat="47.49022" lon="6.6647">
        <ele>405</ele>
        <time>2015-06-08T12:40:11Z</time>
      </trkpt>
      <trkpt lat="47.49018" lon="6.66465">
        <ele>404.6</ele>
        <time>2015-06-08T12:40:12Z</time>
      </trkpt>
      <trkpt lat="47.49014" lon="6.6646">
        <ele>404.4</ele>
        <time>2015-06-08T12:40:13Z</time>
      </trkpt>
      <trkpt lat="47.49008" lon="6.66456">
        <ele>404.2</ele>
        <time>2015-06-08T12:40:14Z</time>
      </trkpt>
      <trkpt lat="47.49003" lon="6.66453">
        <ele>403.9</ele>
        <time>2015-06-08T12:40:15Z</time>
      </trkpt>
      <trkpt lat="47.48998" lon="6.6645">
        <ele>403.6</ele>
        <time>2015-06-08T12:40:16Z</time>
      </trkpt>
      <trkpt lat="47.48993" lon="6.66447">
        <ele>403.4</ele>
        <time>2015-06-08T12:40:17Z</time>
      </trkpt>
      <trkpt lat="47.48988" lon="6.66445">
        <ele>403</ele>
        <time>2015-06-08T12:40:18Z</time>
      </trkpt>
      <trkpt lat="47.48983" lon="6.66443">
        <ele>402.7</ele>
        <time>2015-06-08T12:40:19Z</time>
      </trkpt>
      <trkpt lat="47.48977" lon="6.66441">
        <ele>402.9</ele>
        <time>2015-06-08T12:40:20Z</time>
      </trkpt>
      <trkpt lat="47.48971" lon="6.66441">
        <ele>402.7</ele>
        <time>2015-06-08T12:40:21Z</time>
      </trkpt>
      <trkpt lat="47.48966" lon="6.66441">
        <ele>402.5</ele>
        <time>2015-06-08T12:40:22Z</time>
      </trkpt>
      <trkpt lat="47.48962" lon="6.66442">
        <ele>402.3</ele>
        <time>2015-06-08T12:40:23Z</time>
      </trkpt>
      <trkpt lat="47.48957" lon="6.66444">
        <ele>402.2</ele>
        <time>2015-06-08T12:40:24Z</time>
      </trkpt>
      <trkpt lat="47.48952" lon="6.66447">
        <ele>402.1</ele>
        <time>2015-06-08T12:40:25Z</time>
      </trkpt>
      <trkpt lat="47.48947" lon="6.66449">
        <ele>402.5</ele>
        <time>2015-06-08T12:40:26Z</time>
      </trkpt>
      <trkpt lat="47.48942" lon="6.66452">
        <ele>402.8</ele>
        <time>2015-06-08T12:40:27Z</time>
      </trkpt>
      <trkpt lat="47.48937" lon="6.66454">
        <ele>403.2</ele>
        <time>2015-06-08T12:40:28Z</time>
      </trkpt>
      <trkpt lat="47.48932" lon="6.66457">
        <ele>403.5</ele>
        <time>2015-06-08T12:40:29Z</time>
      </trkpt>
      <trkpt lat="47.48928" lon="6.6646">
        <ele>404.1</ele>
        <time>2015-06-08T12:40:30Z</time>
      </trkpt>
      <trkpt lat="47.48924" lon="6.66463">
        <ele>404.6</ele>
        <time>2015-06-08T12:40:31Z</time>
      </trkpt>
      <trkpt lat="47.4892" lon="6.66465">
        <ele>405.4</ele>
        <time>2015-06-08T12:40:32Z</time>
      </trkpt>
      <trkpt lat="47.48916" lon="6.66468">
        <ele>405.5</ele>
        <time>2015-06-08T12:40:33Z</time>
      </trkpt>
      <trkpt lat="47.48913" lon="6.66472">
        <ele>405.6</ele>
        <time>2015-06-08T12:40:34Z</time>
      </trkpt>
      <trkpt lat="47.48909" lon="6.66476">
        <ele>406.3</ele>
        <time>2015-06-08T12:40:35Z</time>
      </trkpt>
      <trkpt lat="47.48905" lon="6.66479">
        <ele>407</ele>
        <time>2015-06-08T12:40:36Z</time>
      </trkpt>
      <trkpt lat="47.489" lon="6.66481">
        <ele>407.6</ele>
        <time>2015-06-08T12:40:37Z</time>
      </trkpt>
      <trkpt lat="47.48896" lon="6.66483">
        <ele>407.9</ele>
        <time>2015-06-08T12:40:38Z</time>
      </trkpt>
      <trkpt lat="47.48891" lon="6.66484">
        <ele>408.2</ele>
        <time>2015-06-08T12:40:39Z</time>
      </trkpt>
      <trkpt lat="47.48886" lon="6.66485">
        <ele>408.1</ele>
        <time>2015-06-08T12:40:40Z</time>
      </trkpt>
      <trkpt lat="47.48882" lon="6.66486">
        <ele>408.1</ele>
        <time>2015-06-08T12:40:41Z</time>
      </trkpt>
      <trkpt lat="47.48878" lon="6.66487">
        <ele>408.3</ele>
        <time>2015-06-08T12:40:42Z</time>
      </trkpt>
      <trkpt lat="47.48875" lon="6.66488">
        <ele>408.2</ele>
        <time>2015-06-08T12:40:43Z</time>
      </trkpt>
      <trkpt lat="47.48871" lon="6.66489">
        <ele>408.3</ele>
        <time>2015-06-08T12:40:44Z</time>
      </trkpt>
      <trkpt lat="47.48868" lon="6.66489">
        <ele>408.5</ele>
        <time>2015-06-08T12:40:45Z</time>
      </trkpt>
      <trkpt lat="47.48864" lon="6.6649">
        <ele>408.7</ele>
        <time>2015-06-08T12:40:46Z</time>
      </trkpt>
      <trkpt lat="47.4886" lon="6.6649">
        <ele>408.8</ele>
        <time>2015-06-08T12:40:47Z</time>
      </trkpt>
      <trkpt lat="47.48856" lon="6.6649">
        <ele>408.6</ele>
        <time>2015-06-08T12:40:48Z</time>
      </trkpt>
      <trkpt lat="47.48852" lon="6.6649">
        <ele>408.5</ele>
        <time>2015-06-08T12:40:49Z</time>
      </trkpt>
      <trkpt lat="47.48848" lon="6.66491">
        <ele>408.6</ele>
        <time>2015-06-08T12:40:50Z</time>
      </trkpt>
      <trkpt lat="47.48844" lon="6.66491">
        <ele>408.5</ele>
        <time>2015-06-08T12:40:51Z</time>
      </trkpt>
      <trkpt lat="47.48839" lon="6.66491">
        <ele>408.5</ele>
        <time>2015-06-08T12:40:52Z</time>
      </trkpt>
      <trkpt lat="47.48835" lon="6.6649">
        <ele>408.4</ele>
        <time>2015-06-08T12:40:53Z</time>
      </trkpt>
      <trkpt lat="47.48832" lon="6.6649">
        <ele>408.3</ele>
        <time>2015-06-08T12:40:54Z</time>
      </trkpt>
      <trkpt lat="47.48828" lon="6.6649">
        <ele>408.3</ele>
        <time>2015-06-08T12:40:55Z</time>
      </trkpt>
      <trkpt lat="47.48824" lon="6.66491">
        <ele>408.3</ele>
        <time>2015-06-08T12:40:56Z</time>
      </trkpt>
      <trkpt lat="47.48821" lon="6.66492">
        <ele>408.4</ele>
        <time>2015-06-08T12:40:57Z</time>
      </trkpt>
      <trkpt lat="47.48816" lon="6.66493">
        <ele>408.7</ele>
        <time>2015-06-08T12:40:58Z</time>
      </trkpt>
      <trkpt lat="47.48813" lon="6.66494">
        <ele>409</ele>
        <time>2015-06-08T12:40:59Z</time>
      </trkpt>
      <trkpt lat="47.48809" lon="6.66496">
        <ele>409.1</ele>
        <time>2015-06-08T12:41:00Z</time>
      </trkpt>
      <trkpt lat="47.48805" lon="6.66499">
        <ele>409.2</ele>
        <time>2015-06-08T12:41:01Z</time>
      </trkpt>
      <trkpt lat="47.48802" lon="6.66502">
        <ele>409.5</ele>
        <time>2015-06-08T12:41:02Z</time>
      </trkpt>
      <trkpt lat="47.48798" lon="6.66506">
        <ele>409.8</ele>
        <time>2015-06-08T12:41:03Z</time>
      </trkpt>
      <trkpt lat="47.48794" lon="6.6651">
        <ele>410.3</ele>
        <time>2015-06-08T12:41:04Z</time>
      </trkpt>
      <trkpt lat="47.48791" lon="6.66514">
        <ele>410.9</ele>
        <time>2015-06-08T12:41:05Z</time>
      </trkpt>
      <trkpt lat="47.48786" lon="6.66518">
        <ele>411.4</ele>
        <time>2015-06-08T12:41:06Z</time>
      </trkpt>
      <trkpt lat="47.48783" lon="6.66521">
        <ele>411.8</ele>
        <time>2015-06-08T12:41:07Z</time>
      </trkpt>
      <trkpt lat="47.48779" lon="6.66525">
        <ele>412.1</ele>
        <time>2015-06-08T12:41:08Z</time>
      </trkpt>
      <trkpt lat="47.48775" lon="6.66528">
        <ele>412.5</ele>
        <time>2015-06-08T12:41:09Z</time>
      </trkpt>
      <trkpt lat="47.48771" lon="6.66532">
        <ele>413.1</ele>
        <time>2015-06-08T12:41:10Z</time>
      </trkpt>
      <trkpt lat="47.48768" lon="6.66536">
        <ele>413.3</ele>
        <time>2015-06-08T12:41:11Z</time>
      </trkpt>
      <trkpt lat="47.48764" lon="6.6654">
        <ele>413.6</ele>
        <time>2015-06-08T12:41:12Z</time>
      </trkpt>
      <trkpt lat="47.48761" lon="6.66543">
        <ele>413.8</ele>
        <time>2015-06-08T12:41:13Z</time>
      </trkpt>
      <trkpt lat="47.48757" lon="6.66547">
        <ele>413.9</ele>
        <time>2015-06-08T12:41:14Z</time>
      </trkpt>
      <trkpt lat="47.48753" lon="6.66551">
        <ele>414.2</ele>
        <time>2015-06-08T12:41:15Z</time>
      </trkpt>
      <trkpt lat="47.48749" lon="6.66555">
        <ele>414.4</ele>
        <time>2015-06-08T12:41:16Z</time>
      </trkpt>
      <trkpt lat="47.48745" lon="6.66559">
        <ele>414.7</ele>
        <time>2015-06-08T12:41:17Z</time>
      </trkpt>
      <trkpt lat="47.4874" lon="6.66563">
        <ele>415</ele>
        <time>2015-06-08T12:41:18Z</time>
      </trkpt>
      <trkpt lat="47.48736" lon="6.66568">
        <ele>415.2</ele>
        <time>2015-06-08T12:41:19Z</time>
      </trkpt>
      <trkpt lat="47.48731" lon="6.66572">
        <ele>415.5</ele>
        <time>2015-06-08T12:41:20Z</time>
      </trkpt>
      <trkpt lat="47.48726" lon="6.66577">
        <ele>415.7</ele>
        <time>2015-06-08T12:41:21Z</time>
      </trkpt>
      <trkpt lat="47.4872" lon="6.66582">
        <ele>415.9</ele>
        <time>2015-06-08T12:41:22Z</time>
      </trkpt>
      <trkpt lat="47.48715" lon="6.66586">
        <ele>416.1</ele>
        <time>2015-06-08T12:41:23Z</time>
      </trkpt>
      <trkpt lat="47.48709" lon="6.66591">
        <ele>416.3</ele>
        <time>2015-06-08T12:41:24Z</time>
      </trkpt>
      <trkpt lat="47.48702" lon="6.66596">
        <ele>416.3</ele>
        <time>2015-06-08T12:41:25Z</time>
      </trkpt>
      <trkpt lat="47.48696" lon="6.66601">
        <ele>416.5</ele>
        <time>2015-06-08T12:41:26Z</time>
      </trkpt>
      <trkpt lat="47.48689" lon="6.66605">
        <ele>416.7</ele>
        <time>2015-06-08T12:41:27Z</time>
      </trkpt>
      <trkpt lat="47.48681" lon="6.66609">
        <ele>416.7</ele>
        <time>2015-06-08T12:41:28Z</time>
      </trkpt>
      <trkpt lat="47.48674" lon="6.66614">
        <ele>416.6</ele>
        <time>2015-06-08T12:41:29Z</time>
      </trkpt>
      <trkpt lat="47.48666" lon="6.66619">
        <ele>416.5</ele>
        <time>2015-06-08T12:41:30Z</time>
      </trkpt>
      <trkpt lat="47.48659" lon="6.66625">
        <ele>416.4</ele>
        <time>2015-06-08T12:41:31Z</time>
      </trkpt>
      <trkpt lat="47.48652" lon="6.66632">
        <ele>416.4</ele>
        <time>2015-06-08T12:41:32Z</time>
      </trkpt>
      <trkpt lat="47.48645" lon="6.6664">
        <ele>416.4</ele>
        <time>2015-06-08T12:41:33Z</time>
      </trkpt>
      <trkpt lat="47.48638" lon="6.66648">
        <ele>416.5</ele>
        <time>2015-06-08T12:41:34Z</time>
      </trkpt>
      <trkpt lat="47.4863" lon="6.66656">
        <ele>416.5</ele>
        <time>2015-06-08T12:41:35Z</time>
      </trkpt>
      <trkpt lat="47.48623" lon="6.66664">
        <ele>416.7</ele>
        <time>2015-06-08T12:41:36Z</time>
      </trkpt>
      <trkpt lat="47.48616" lon="6.66672">
        <ele>416.7</ele>
        <time>2015-06-08T12:41:37Z</time>
      </trkpt>
      <trkpt lat="47.48609" lon="6.6668">
        <ele>416.7</ele>
        <time>2015-06-08T12:41:38Z</time>
      </trkpt>
      <trkpt lat="47.48602" lon="6.66689">
        <ele>416.8</ele>
        <time>2015-06-08T12:41:39Z</time>
      </trkpt>
      <trkpt lat="47.48595" lon="6.66697">
        <ele>416.8</ele>
        <time>2015-06-08T12:41:40Z</time>
      </trkpt>
      <trkpt lat="47.48587" lon="6.66705">
        <ele>416.8</ele>
        <time>2015-06-08T12:41:41Z</time>
      </trkpt>
      <trkpt lat="47.4858" lon="6.66713">
        <ele>416.8</ele>
        <time>2015-06-08T12:41:42Z</time>
      </trkpt>
      <trkpt lat="47.48573" lon="6.66721">
        <ele>416.8</ele>
        <time>2015-06-08T12:41:43Z</time>
      </trkpt>
      <trkpt lat="47.48566" lon="6.66728">
        <ele>416.9</ele>
        <time>2015-06-08T12:41:44Z</time>
      </trkpt>
      <trkpt lat="47.4856" lon="6.66735">
        <ele>416.8</ele>
        <time>2015-06-08T12:41:45Z</time>
      </trkpt>
      <trkpt lat="47.48553" lon="6.66741">
        <ele>416.8</ele>
        <time>2015-06-08T12:41:46Z</time>
      </trkpt>
      <trkpt lat="47.48546" lon="6.66745">
        <ele>416.7</ele>
        <time>2015-06-08T12:41:47Z</time>
      </trkpt>
      <trkpt lat="47.48539" lon="6.66747">
        <ele>416.6</ele>
        <time>2015-06-08T12:41:48Z</time>
      </trkpt>
      <trkpt lat="47.48532" lon="6.66747">
        <ele>416.5</ele>
        <time>2015-06-08T12:41:49Z</time>
      </trkpt>
      <trkpt lat="47.48525" lon="6.66746">
        <ele>416.5</ele>
        <time>2015-06-08T12:41:50Z</time>
      </trkpt>
      <trkpt lat="47.48518" lon="6.66744">
        <ele>416.3</ele>
        <time>2015-06-08T12:41:51Z</time>
      </trkpt>
      <trkpt lat="47.48512" lon="6.66741">
        <ele>416.1</ele>
        <time>2015-06-08T12:41:52Z</time>
      </trkpt>
      <trkpt lat="47.48506" lon="6.66737">
        <ele>415.9</ele>
        <time>2015-06-08T12:41:53Z</time>
      </trkpt>
      <trkpt lat="47.48501" lon="6.66733">
        <ele>415.7</ele>
        <time>2015-06-08T12:41:54Z</time>
      </trkpt>
      <trkpt lat="47.48496" lon="6.66729">
        <ele>415.3</ele>
        <time>2015-06-08T12:41:55Z</time>
      </trkpt>
      <trkpt lat="47.4849" lon="6.66726">
        <ele>415</ele>
        <time>2015-06-08T12:41:56Z</time>
      </trkpt>
      <trkpt lat="47.48485" lon="6.66722">
        <ele>414.8</ele>
        <time>2015-06-08T12:41:57Z</time>
      </trkpt>
      <trkpt lat="47.4848" lon="6.66719">
        <ele>414.6</ele>
        <time>2015-06-08T12:41:58Z</time>
      </trkpt>
      <trkpt lat="47.48475" lon="6.66716">
        <ele>414.3</ele>
        <time>2015-06-08T12:41:59Z</time>
      </trkpt>
      <trkpt lat="47.4847" lon="6.66713">
        <ele>414.1</ele>
        <time>2015-06-08T12:42:00Z</time>
      </trkpt>
      <trkpt lat="47.48465" lon="6.6671">
        <ele>413.8</ele>
        <time>2015-06-08T12:42:01Z</time>
      </trkpt>
      <trkpt lat="47.4846" lon="6.66707">
        <ele>413.5</ele>
        <time>2015-06-08T12:42:02Z</time>
      </trkpt>
      <trkpt lat="47.48454" lon="6.66705">
        <ele>413.3</ele>
        <time>2015-06-08T12:42:03Z</time>
      </trkpt>
      <trkpt lat="47.48449" lon="6.66704">
        <ele>413</ele>
        <time>2015-06-08T12:42:04Z</time>
      </trkpt>
      <trkpt lat="47.48444" lon="6.66703">
        <ele>412.8</ele>
        <time>2015-06-08T12:42:05Z</time>
      </trkpt>
      <trkpt lat="47.48439" lon="6.66702">
        <ele>412.6</ele>
        <time>2015-06-08T12:42:06Z</time>
      </trkpt>
      <trkpt lat="47.48434" lon="6.66702">
        <ele>412.6</ele>
        <time>2015-06-08T12:42:07Z</time>
      </trkpt>
      <trkpt lat="47.48429" lon="6.66703">
        <ele>412.6</ele>
        <time>2015-06-08T12:42:08Z</time>
      </trkpt>
      <trkpt lat="47.48424" lon="6.66704">
        <ele>412.5</ele>
        <time>2015-06-08T12:42:09Z</time>
      </trkpt>
      <trkpt lat="47.48419" lon="6.66705">
        <ele>412.4</ele>
        <time>2015-06-08T12:42:10Z</time>
      </trkpt>
      <trkpt lat="47.48414" lon="6.66707">
        <ele>412.5</ele>
        <time>2015-06-08T12:42:11Z</time>
      </trkpt>
      <trkpt lat="47.48409" lon="6.66709">
        <ele>412.6</ele>
        <time>2015-06-08T12:42:12Z</time>
      </trkpt>
      <trkpt lat="47.48404" lon="6.66711">
        <ele>412.6</ele>
        <time>2015-06-08T12:42:13Z</time>
      </trkpt>
      <trkpt lat="47.48399" lon="6.66714">
        <ele>412.6</ele>
        <time>2015-06-08T12:42:14Z</time>
      </trkpt>
      <trkpt lat="47.48394" lon="6.66717">
        <ele>412.7</ele>
        <time>2015-06-08T12:42:15Z</time>
      </trkpt>
      <trkpt lat="47.48389" lon="6.6672">
        <ele>412.7</ele>
        <time>2015-06-08T12:42:16Z</time>
      </trkpt>
      <trkpt lat="47.48385" lon="6.66724">
        <ele>412.7</ele>
        <time>2015-06-08T12:42:17Z</time>
      </trkpt>
      <trkpt lat="47.4838" lon="6.66728">
        <ele>412.9</ele>
        <time>2015-06-08T12:42:18Z</time>
      </trkpt>
      <trkpt lat="47.48376" lon="6.66732">
        <ele>413.1</ele>
        <time>2015-06-08T12:42:19Z</time>
      </trkpt>
      <trkpt lat="47.48372" lon="6.66737">
        <ele>413.2</ele>
        <time>2015-06-08T12:42:20Z</time>
      </trkpt>
      <trkpt lat="47.48368" lon="6.66742">
        <ele>413.4</ele>
        <time>2015-06-08T12:42:21Z</time>
      </trkpt>
      <trkpt lat="47.48365" lon="6.66746">
        <ele>413.6</ele>
        <time>2015-06-08T12:42:22Z</time>
      </trkpt>
      <trkpt lat="47.48361" lon="6.66751">
        <ele>413.6</ele>
        <time>2015-06-08T12:42:23Z</time>
      </trkpt>
      <trkpt lat="47.48358" lon="6.66757">
        <ele>413.8</ele>
        <time>2015-06-08T12:42:24Z</time>
      </trkpt>
      <trkpt lat="47.48356" lon="6.66762">
        <ele>413.9</ele>
        <time>2015-06-08T12:42:25Z</time>
      </trkpt>
      <trkpt lat="47.48353" lon="6.66767">
        <ele>414</ele>
        <time>2015-06-08T12:42:26Z</time>
      </trkpt>
      <trkpt lat="47.48351" lon="6.66773">
        <ele>414.1</ele>
        <time>2015-06-08T12:42:27Z</time>
      </trkpt>
      <trkpt lat="47.48348" lon="6.66779">
        <ele>414.1</ele>
        <time>2015-06-08T12:42:28Z</time>
      </trkpt>
      <trkpt lat="47.48346" lon="6.66785">
        <ele>414.1</ele>
        <time>2015-06-08T12:42:29Z</time>
      </trkpt>
      <trkpt lat="47.48344" lon="6.66791">
        <ele>414.1</ele>
        <time>2015-06-08T12:42:30Z</time>
      </trkpt>
      <trkpt lat="47.48341" lon="6.66797">
        <ele>414</ele>
        <time>2015-06-08T12:42:31Z</time>
      </trkpt>
      <trkpt lat="47.48339" lon="6.66803">
        <ele>413.9</ele>
        <time>2015-06-08T12:42:32Z</time>
      </trkpt>
      <trkpt lat="47.48337" lon="6.66809">
        <ele>413.9</ele>
        <time>2015-06-08T12:42:33Z</time>
      </trkpt>
      <trkpt lat="47.48335" lon="6.66815">
        <ele>413.8</ele>
        <time>2015-06-08T12:42:34Z</time>
      </trkpt>
      <trkpt lat="47.48334" lon="6.66821">
        <ele>413.7</ele>
        <time>2015-06-08T12:42:35Z</time>
      </trkpt>
      <trkpt lat="47.48332" lon="6.66827">
        <ele>413.6</ele>
        <time>2015-06-08T12:42:36Z</time>
      </trkpt>
      <trkpt lat="47.4833" lon="6.66833">
        <ele>413.6</ele>
        <time>2015-06-08T12:42:37Z</time>
      </trkpt>
      <trkpt lat="47.48328" lon="6.66839">
        <ele>413.6</ele>
        <time>2015-06-08T12:42:38Z</time>
      </trkpt>
      <trkpt lat="47.48326" lon="6.66845">
        <ele>413.6</ele>
        <time>2015-06-08T12:42:39Z</time>
      </trkpt>
      <trkpt lat="47.48324" lon="6.66851">
        <ele>413.5</ele>
        <time>2015-06-08T12:42:40Z</time>
      </trkpt>
      <trkpt lat="47.48323" lon="6.66857">
        <ele>413.5</ele>
        <time>2015-06-08T12:42:41Z</time>
      </trkpt>
      <trkpt lat="47.48321" lon="6.66863">
        <ele>413.4</ele>
        <time>2015-06-08T12:42:42Z</time>
      </trkpt>
      <trkpt lat="47.48319" lon="6.66869">
        <ele>413.4</ele>
        <time>2015-06-08T12:42:43Z</time>
      </trkpt>
      <trkpt lat="47.48318" lon="6.66875">
        <ele>413.3</ele>
        <time>2015-06-08T12:42:44Z</time>
      </trkpt>
      <trkpt lat="47.48316" lon="6.6688">
        <ele>413.4</ele>
        <time>2015-06-08T12:42:45Z</time>
      </trkpt>
      <trkpt lat="47.48314" lon="6.66886">
        <ele>413.4</ele>
        <time>2015-06-08T12:42:46Z</time>
      </trkpt>
      <trkpt lat="47.48312" lon="6.66892">
        <ele>413.4</ele>
        <time>2015-06-08T12:42:47Z</time>
      </trkpt>
      <trkpt lat="47.4831" lon="6.66898">
        <ele>413.4</ele>
        <time>2015-06-08T12:42:48Z</time>
      </trkpt>
      <trkpt lat="47.48308" lon="6.66905">
        <ele>413.4</ele>
        <time>2015-06-08T12:42:49Z</time>
      </trkpt>
      <trkpt lat="47.48306" lon="6.66911">
        <ele>413.4</ele>
        <time>2015-06-08T12:42:50Z</time>
      </trkpt>
      <trkpt lat="47.48305" lon="6.66918">
        <ele>413.3</ele>
        <time>2015-06-08T12:42:51Z</time>
      </trkpt>
      <trkpt lat="47.48303" lon="6.66924">
        <ele>413.2</ele>
        <time>2015-06-08T12:42:52Z</time>
      </trkpt>
      <trkpt lat="47.48301" lon="6.66931">
        <ele>413.1</ele>
        <time>2015-06-08T12:42:53Z</time>
      </trkpt>
      <trkpt lat="47.48299" lon="6.66938">
        <ele>413.1</ele>
        <time>2015-06-08T12:42:54Z</time>
      </trkpt>
      <trkpt lat="47.48297" lon="6.66944">
        <ele>412.9</ele>
        <time>2015-06-08T12:42:55Z</time>
      </trkpt>
      <trkpt lat="47.48294" lon="6.66951">
        <ele>412.8</ele>
        <time>2015-06-08T12:42:56Z</time>
      </trkpt>
      <trkpt lat="47.48292" lon="6.66957">
        <ele>412.7</ele>
        <time>2015-06-08T12:42:57Z</time>
      </trkpt>
      <trkpt lat="47.4829" lon="6.66964">
        <ele>412.7</ele>
        <time>2015-06-08T12:42:58Z</time>
      </trkpt>
      <trkpt lat="47.48288" lon="6.66969">
        <ele>412.7</ele>
        <time>2015-06-08T12:42:59Z</time>
      </trkpt>
      <trkpt lat="47.48286" lon="6.66975">
        <ele>412.7</ele>
        <time>2015-06-08T12:43:00Z</time>
      </trkpt>
      <trkpt lat="47.48284" lon="6.6698">
        <ele>412.6</ele>
        <time>2015-06-08T12:43:01Z</time>
      </trkpt>
      <trkpt lat="47.48282" lon="6.66986">
        <ele>412.5</ele>
        <time>2015-06-08T12:43:02Z</time>
      </trkpt>
      <trkpt lat="47.48281" lon="6.66992">
        <ele>412.6</ele>
        <time>2015-06-08T12:43:03Z</time>
      </trkpt>
      <trkpt lat="47.48279" lon="6.66998">
        <ele>412.5</ele>
        <time>2015-06-08T12:43:04Z</time>
      </trkpt>
      <trkpt lat="47.48278" lon="6.67004">
        <ele>412.5</ele>
        <time>2015-06-08T12:43:05Z</time>
      </trkpt>
      <trkpt lat="47.48277" lon="6.67011">
        <ele>412.5</ele>
        <time>2015-06-08T12:43:06Z</time>
      </trkpt>
      <trkpt lat="47.48276" lon="6.67018">
        <ele>412.6</ele>
        <time>2015-06-08T12:43:07Z</time>
      </trkpt>
      <trkpt lat="47.48275" lon="6.67025">
        <ele>412.5</ele>
        <time>2015-06-08T12:43:08Z</time>
      </trkpt>
      <trkpt lat="47.48274" lon="6.67032">
        <ele>412.8</ele>
        <time>2015-06-08T12:43:09Z</time>
      </trkpt>
      <trkpt lat="47.48274" lon="6.67039">
        <ele>413.1</ele>
        <time>2015-06-08T12:43:10Z</time>
      </trkpt>
      <trkpt lat="47.48273" lon="6.67045">
        <ele>413.5</ele>
        <time>2015-06-08T12:43:11Z</time>
      </trkpt>
      <trkpt lat="47.48272" lon="6.67053">
        <ele>414</ele>
        <time>2015-06-08T12:43:12Z</time>
      </trkpt>
      <trkpt lat="47.48271" lon="6.6706">
        <ele>414.2</ele>
        <time>2015-06-08T12:43:13Z</time>
      </trkpt>
      <trkpt lat="47.4827" lon="6.67067">
        <ele>414.5</ele>
        <time>2015-06-08T12:43:14Z</time>
      </trkpt>
      <trkpt lat="47.48269" lon="6.67074">
        <ele>414.7</ele>
        <time>2015-06-08T12:43:15Z</time>
      </trkpt>
      <trkpt lat="47.48269" lon="6.67081">
        <ele>414.9</ele>
        <time>2015-06-08T12:43:16Z</time>
      </trkpt>
      <trkpt lat="47.48267" lon="6.67087">
        <ele>415.3</ele>
        <time>2015-06-08T12:43:17Z</time>
      </trkpt>
      <trkpt lat="47.48266" lon="6.67093">
        <ele>415.4</ele>
        <time>2015-06-08T12:43:18Z</time>
      </trkpt>
      <trkpt lat="47.48265" lon="6.671">
        <ele>415.6</ele>
        <time>2015-06-08T12:43:19Z</time>
      </trkpt>
      <trkpt lat="47.48264" lon="6.67107">
        <ele>415.8</ele>
        <time>2015-06-08T12:43:20Z</time>
      </trkpt>
      <trkpt lat="47.48263" lon="6.67113">
        <ele>415.9</ele>
        <time>2015-06-08T12:43:21Z</time>
      </trkpt>
      <trkpt lat="47.48263" lon="6.67119">
        <ele>416</ele>
        <time>2015-06-08T12:43:22Z</time>
      </trkpt>
      <trkpt lat="47.48262" lon="6.67125">
        <ele>415.8</ele>
        <time>2015-06-08T12:43:23Z</time>
      </trkpt>
      <trkpt lat="47.48261" lon="6.67131">
        <ele>415.5</ele>
        <time>2015-06-08T12:43:24Z</time>
      </trkpt>
      <trkpt lat="47.4826" lon="6.67137">
        <ele>415.2</ele>
        <time>2015-06-08T12:43:25Z</time>
      </trkpt>
      <trkpt lat="47.48259" lon="6.67143">
        <ele>415.2</ele>
        <time>2015-06-08T12:43:26Z</time>
      </trkpt>
      <trkpt lat="47.48258" lon="6.67149">
        <ele>415.2</ele>
        <time>2015-06-08T12:43:27Z</time>
      </trkpt>
      <trkpt lat="47.48257" lon="6.67155">
        <ele>415.3</ele>
        <time>2015-06-08T12:43:28Z</time>
      </trkpt>
      <trkpt lat="47.48257" lon="6.67161">
        <ele>415.1</ele>
        <time>2015-06-08T12:43:29Z</time>
      </trkpt>
      <trkpt lat="47.48256" lon="6.67167">
        <ele>415.1</ele>
        <time>2015-06-08T12:43:30Z</time>
      </trkpt>
      <trkpt lat="47.48255" lon="6.67173">
        <ele>415.4</ele>
        <time>2015-06-08T12:43:31Z</time>
      </trkpt>
      <trkpt lat="47.48254" lon="6.67179">
        <ele>415.2</ele>
        <time>2015-06-08T12:43:32Z</time>
      </trkpt>
      <trkpt lat="47.48253" lon="6.67185">
        <ele>415.2</ele>
        <time>2015-06-08T12:43:33Z</time>
      </trkpt>
      <trkpt lat="47.48253" lon="6.67191">
        <ele>415.5</ele>
        <time>2015-06-08T12:43:34Z</time>
      </trkpt>
      <trkpt lat="47.48252" lon="6.67197">
        <ele>415.5</ele>
        <time>2015-06-08T12:43:35Z</time>
      </trkpt>
      <trkpt lat="47.4825" lon="6.67203">
        <ele>415.4</ele>
        <time>2015-06-08T12:43:36Z</time>
      </trkpt>
      <trkpt lat="47.48249" lon="6.67209">
        <ele>415.3</ele>
        <time>2015-06-08T12:43:37Z</time>
      </trkpt>
      <trkpt lat="47.48248" lon="6.67216">
        <ele>415</ele>
        <time>2015-06-08T12:43:38Z</time>
      </trkpt>
      <trkpt lat="47.48247" lon="6.67222">
        <ele>414.8</ele>
        <time>2015-06-08T12:43:39Z</time>
      </trkpt>
      <trkpt lat="47.48246" lon="6.67228">
        <ele>414.8</ele>
        <time>2015-06-08T12:43:40Z</time>
      </trkpt>
      <trkpt lat="47.48245" lon="6.67234">
        <ele>414.6</ele>
        <time>2015-06-08T12:43:41Z</time>
      </trkpt>
      <trkpt lat="47.48243" lon="6.6724">
        <ele>414.5</ele>
        <time>2015-06-08T12:43:42Z</time>
      </trkpt>
      <trkpt lat="47.48242" lon="6.67247">
        <ele>414.5</ele>
        <time>2015-06-08T12:43:43Z</time>
      </trkpt>
      <trkpt lat="47.48241" lon="6.67253">
        <ele>414.4</ele>
        <time>2015-06-08T12:43:44Z</time>
      </trkpt>
      <trkpt lat="47.48239" lon="6.67259">
        <ele>414.2</ele>
        <time>2015-06-08T12:43:45Z</time>
      </trkpt>
      <trkpt lat="47.48238" lon="6.67265">
        <ele>414.1</ele>
        <time>2015-06-08T12:43:46Z</time>
      </trkpt>
      <trkpt lat="47.48236" lon="6.67271">
        <ele>413.9</ele>
        <time>2015-06-08T12:43:47Z</time>
      </trkpt>
      <trkpt lat="47.48234" lon="6.67276">
        <ele>413.8</ele>
        <time>2015-06-08T12:43:48Z</time>
      </trkpt>
      <trkpt lat="47.48232" lon="6.67282">
        <ele>413.8</ele>
        <time>2015-06-08T12:43:49Z</time>
      </trkpt>
      <trkpt lat="47.48229" lon="6.67287">
        <ele>413.8</ele>
        <time>2015-06-08T12:43:50Z</time>
      </trkpt>
      <trkpt lat="47.48227" lon="6.67293">
        <ele>413.8</ele>
        <time>2015-06-08T12:43:51Z</time>
      </trkpt>
      <trkpt lat="47.48225" lon="6.67298">
        <ele>413.7</ele>
        <time>2015-06-08T12:43:52Z</time>
      </trkpt>
      <trkpt lat="47.48223" lon="6.67304">
        <ele>413.7</ele>
        <time>2015-06-08T12:43:53Z</time>
      </trkpt>
      <trkpt lat="47.48221" lon="6.6731">
        <ele>413.5</ele>
        <time>2015-06-08T12:43:54Z</time>
      </trkpt>
      <trkpt lat="47.48219" lon="6.67316">
        <ele>413</ele>
        <time>2015-06-08T12:43:55Z</time>
      </trkpt>
      <trkpt lat="47.48217" lon="6.67322">
        <ele>412.7</ele>
        <time>2015-06-08T12:43:56Z</time>
      </trkpt>
      <trkpt lat="47.48214" lon="6.67328">
        <ele>412.7</ele>
        <time>2015-06-08T12:43:57Z</time>
      </trkpt>
      <trkpt lat="47.48212" lon="6.67335">
        <ele>412.5</ele>
        <time>2015-06-08T12:43:58Z</time>
      </trkpt>
      <trkpt lat="47.4821" lon="6.67341">
        <ele>412.5</ele>
        <time>2015-06-08T12:43:59Z</time>
      </trkpt>
      <trkpt lat="47.48207" lon="6.67349">
        <ele>412.4</ele>
        <time>2015-06-08T12:44:00Z</time>
      </trkpt>
      <trkpt lat="47.48205" lon="6.67356">
        <ele>412.4</ele>
        <time>2015-06-08T12:44:01Z</time>
      </trkpt>
      <trkpt lat="47.48202" lon="6.67362">
        <ele>412.2</ele>
        <time>2015-06-08T12:44:02Z</time>
      </trkpt>
      <trkpt lat="47.482" lon="6.67369">
        <ele>411.9</ele>
        <time>2015-06-08T12:44:03Z</time>
      </trkpt>
      <trkpt lat="47.48197" lon="6.67376">
        <ele>411.8</ele>
        <time>2015-06-08T12:44:04Z</time>
      </trkpt>
      <trkpt lat="47.48194" lon="6.67382">
        <ele>411.4</ele>
        <time>2015-06-08T12:44:05Z</time>
      </trkpt>
      <trkpt lat="47.48191" lon="6.67388">
        <ele>411</ele>
        <time>2015-06-08T12:44:06Z</time>
      </trkpt>
      <trkpt lat="47.48188" lon="6.67395">
        <ele>410.7</ele>
        <time>2015-06-08T12:44:07Z</time>
      </trkpt>
      <trkpt lat="47.48184" lon="6.67401">
        <ele>410.2</ele>
        <time>2015-06-08T12:44:08Z</time>
      </trkpt>
      <trkpt lat="47.48181" lon="6.67407">
        <ele>410</ele>
        <time>2015-06-08T12:44:09Z</time>
      </trkpt>
      <trkpt lat="47.48177" lon="6.67413">
        <ele>409.8</ele>
        <time>2015-06-08T12:44:10Z</time>
      </trkpt>
      <trkpt lat="47.48174" lon="6.6742">
        <ele>409.5</ele>
        <time>2015-06-08T12:44:11Z</time>
      </trkpt>
      <trkpt lat="47.4817" lon="6.67426">
        <ele>409.3</ele>
        <time>2015-06-08T12:44:12Z</time>
      </trkpt>
      <trkpt lat="47.48166" lon="6.67432">
        <ele>409.1</ele>
        <time>2015-06-08T12:44:13Z</time>
      </trkpt>
      <trkpt lat="47.48162" lon="6.67438">
        <ele>409.1</ele>
        <time>2015-06-08T12:44:14Z</time>
      </trkpt>
      <trkpt lat="47.48158" lon="6.67445">
        <ele>409</ele>
        <time>2015-06-08T12:44:15Z</time>
      </trkpt>
      <trkpt lat="47.48154" lon="6.67452">
        <ele>408.7</ele>
        <time>2015-06-08T12:44:16Z</time>
      </trkpt>
      <trkpt lat="47.4815" lon="6.67459">
        <ele>408.4</ele>
        <time>2015-06-08T12:44:17Z</time>
      </trkpt>
      <trkpt lat="47.48146" lon="6.67466">
        <ele>408.1</ele>
        <time>2015-06-08T12:44:18Z</time>
      </trkpt>
      <trkpt lat="47.48142" lon="6.67474">
        <ele>407.6</ele>
        <time>2015-06-08T12:44:19Z</time>
      </trkpt>
      <trkpt lat="47.48139" lon="6.67483">
        <ele>407.2</ele>
        <time>2015-06-08T12:44:20Z</time>
      </trkpt>
      <trkpt lat="47.48135" lon="6.67491">
        <ele>406.6</ele>
        <time>2015-06-08T12:44:21Z</time>
      </trkpt>
      <trkpt lat="47.48132" lon="6.675">
        <ele>406.2</ele>
        <time>2015-06-08T12:44:22Z</time>
      </trkpt>
      <trkpt lat="47.4813" lon="6.6751">
        <ele>406.2</ele>
        <time>2015-06-08T12:44:23Z</time>
      </trkpt>
      <trkpt lat="47.48127" lon="6.67522">
        <ele>406.2</ele>
        <time>2015-06-08T12:44:24Z</time>
      </trkpt>
      <trkpt lat="47.48125" lon="6.67533">
        <ele>405.9</ele>
        <time>2015-06-08T12:44:25Z</time>
      </trkpt>
      <trkpt lat="47.48122" lon="6.67544">
        <ele>405.3</ele>
        <time>2015-06-08T12:44:26Z</time>
      </trkpt>
      <trkpt lat="47.48119" lon="6.67555">
        <ele>404.9</ele>
        <time>2015-06-08T12:44:27Z</time>
      </trkpt>
      <trkpt lat="47.48116" lon="6.67566">
        <ele>404.6</ele>
        <time>2015-06-08T12:44:28Z</time>
      </trkpt>
      <trkpt lat="47.48113" lon="6.67577">
        <ele>404.4</ele>
        <time>2015-06-08T12:44:29Z</time>
      </trkpt>
      <trkpt lat="47.4811" lon="6.67589">
        <ele>404</ele>
        <time>2015-06-08T12:44:30Z</time>
      </trkpt>
      <trkpt lat="47.48107" lon="6.67599">
        <ele>403.4</ele>
        <time>2015-06-08T12:44:31Z</time>
      </trkpt>
      <trkpt lat="47.48104" lon="6.6761">
        <ele>402.6</ele>
        <time>2015-06-08T12:44:32Z</time>
      </trkpt>
      <trkpt lat="47.48102" lon="6.6762">
        <ele>401.9</ele>
        <time>2015-06-08T12:44:33Z</time>
      </trkpt>
      <trkpt lat="47.481" lon="6.6763">
        <ele>401.4</ele>
        <time>2015-06-08T12:44:34Z</time>
      </trkpt>
      <trkpt lat="47.48098" lon="6.67639">
        <ele>400.9</ele>
        <time>2015-06-08T12:44:35Z</time>
      </trkpt>
      <trkpt lat="47.48096" lon="6.67647">
        <ele>400.1</ele>
        <time>2015-06-08T12:44:36Z</time>
      </trkpt>
      <trkpt lat="47.48094" lon="6.67655">
        <ele>399.5</ele>
        <time>2015-06-08T12:44:37Z</time>
      </trkpt>
      <trkpt lat="47.48092" lon="6.67663">
        <ele>399</ele>
        <time>2015-06-08T12:44:38Z</time>
      </trkpt>
      <trkpt lat="47.48091" lon="6.67671">
        <ele>398.4</ele>
        <time>2015-06-08T12:44:39Z</time>
      </trkpt>
      <trkpt lat="47.4809" lon="6.67679">
        <ele>397.9</ele>
        <time>2015-06-08T12:44:40Z</time>
      </trkpt>
      <trkpt lat="47.48089" lon="6.67686">
        <ele>397.6</ele>
        <time>2015-06-08T12:44:41Z</time>
      </trkpt>
      <trkpt lat="47.48088" lon="6.67694">
        <ele>397.2</ele>
        <time>2015-06-08T12:44:42Z</time>
      </trkpt>
      <trkpt lat="47.48086" lon="6.67701">
        <ele>396.8</ele>
        <time>2015-06-08T12:44:43Z</time>
      </trkpt>
      <trkpt lat="47.48085" lon="6.67706">
        <ele>396.4</ele>
        <time>2015-06-08T12:44:44Z</time>
      </trkpt>
      <trkpt lat="47.48084" lon="6.67711">
        <ele>396</ele>
        <time>2015-06-08T12:44:45Z</time>
      </trkpt>
      <trkpt lat="47.48083" lon="6.67714">
        <ele>395.7</ele>
        <time>2015-06-08T12:44:46Z</time>
      </trkpt>
      <trkpt lat="47.48083" lon="6.67717">
        <ele>395.5</ele>
        <time>2015-06-08T12:44:47Z</time>
      </trkpt>
      <trkpt lat="47.48083" lon="6.67718">
        <ele>395.2</ele>
        <time>2015-06-08T12:44:48Z</time>
      </trkpt>
      <trkpt lat="47.48083" lon="6.6772">
        <ele>395</ele>
        <time>2015-06-08T12:44:52Z</time>
      </trkpt>
      <trkpt lat="47.48083" lon="6.67721">
        <ele>394.7</ele>
        <time>2015-06-08T12:45:13Z</time>
      </trkpt>
      <trkpt lat="47.4808" lon="6.67718">
        <ele>394.8</ele>
        <time>2015-06-08T12:45:22Z</time>
      </trkpt>
      <trkpt lat="47.48079" lon="6.67718">
        <ele>394.5</ele>
        <time>2015-06-08T12:45:23Z</time>
      </trkpt>
      <trkpt lat="47.48077" lon="6.67716">
        <ele>394.6</ele>
        <time>2015-06-08T12:45:24Z</time>
      </trkpt>
      <trkpt lat="47.48076" lon="6.67714">
        <ele>394.6</ele>
        <time>2015-06-08T12:45:25Z</time>
      </trkpt>
      <trkpt lat="47.48076" lon="6.67712">
        <ele>394.7</ele>
        <time>2015-06-08T12:45:27Z</time>
      </trkpt>
      <trkpt lat="47.48075" lon="6.67713">
        <ele>394.7</ele>
        <time>2015-06-08T12:45:28Z</time>
      </trkpt>
      <trkpt lat="47.48074" lon="6.67712">
        <ele>394.9</ele>
        <time>2015-06-08T12:45:31Z</time>
      </trkpt>
      <trkpt lat="47.48074" lon="6.67708">
        <ele>394.9</ele>
        <time>2015-06-08T12:45:31Z</time>
      </trkpt>
      <trkpt lat="47.48074" lon="6.67712">
        <ele>394.6</ele>
        <time>2015-06-08T12:45:32Z</time>
      </trkpt>
      <trkpt lat="47.48075" lon="6.67711">
        <ele>394.4</ele>
        <time>2015-06-08T12:45:34Z</time>
      </trkpt>
      <trkpt lat="47.48078" lon="6.67722">
        <ele>394.3</ele>
        <time>2015-06-08T12:45:35Z</time>
      </trkpt>
      <trkpt lat="47.4808" lon="6.67726">
        <ele>394.3</ele>
        <time>2015-06-08T12:45:36Z</time>
      </trkpt>
      <trkpt lat="47.48081" lon="6.67729">
        <ele>394.1</ele>
        <time>2015-06-08T12:45:37Z</time>
      </trkpt>
      <trkpt lat="47.48083" lon="6.67731">
        <ele>394.1</ele>
        <time>2015-06-08T12:45:38Z</time>
      </trkpt>
      <trkpt lat="47.48085" lon="6.67734">
        <ele>394.1</ele>
        <time>2015-06-08T12:45:40Z</time>
      </trkpt>
      <trkpt lat="47.48084" lon="6.67736">
        <ele>394</ele>
        <time>2015-06-08T12:45:41Z</time>
      </trkpt>
      <trkpt lat="47.48085" lon="6.67739">
        <ele>393.9</ele>
        <time>2015-06-08T12:45:42Z</time>
      </trkpt>
      <trkpt lat="47.48084" lon="6.67743">
        <ele>393.9</ele>
        <time>2015-06-08T12:45:43Z</time>
      </trkpt>
      <trkpt lat="47.48084" lon="6.67746">
        <ele>393.9</ele>
        <time>2015-06-08T12:45:44Z</time>
      </trkpt>
      <trkpt lat="47.48084" lon="6.67751">
        <ele>393.8</ele>
        <time>2015-06-08T12:45:45Z</time>
      </trkpt>
      <trkpt lat="47.48084" lon="6.67755">
        <ele>393.8</ele>
        <time>2015-06-08T12:45:46Z</time>
      </trkpt>
      <trkpt lat="47.48084" lon="6.6776">
        <ele>393.7</ele>
        <time>2015-06-08T12:45:47Z</time>
      </trkpt>
      <trkpt lat="47.48083" lon="6.67765">
        <ele>393.6</ele>
        <time>2015-06-08T12:45:48Z</time>
      </trkpt>
      <trkpt lat="47.48082" lon="6.67772">
        <ele>393.5</ele>
        <time>2015-06-08T12:45:49Z</time>
      </trkpt>
      <trkpt lat="47.4808" lon="6.67779">
        <ele>393.2</ele>
        <time>2015-06-08T12:45:50Z</time>
      </trkpt>
      <trkpt lat="47.48078" lon="6.67786">
        <ele>393</ele>
        <time>2015-06-08T12:45:51Z</time>
      </trkpt>
      <trkpt lat="47.48075" lon="6.67794">
        <ele>392.7</ele>
        <time>2015-06-08T12:45:52Z</time>
      </trkpt>
      <trkpt lat="47.48072" lon="6.67802">
        <ele>392.4</ele>
        <time>2015-06-08T12:45:53Z</time>
      </trkpt>
      <trkpt lat="47.48068" lon="6.6781">
        <ele>392.2</ele>
        <time>2015-06-08T12:45:54Z</time>
      </trkpt>
      <trkpt lat="47.48064" lon="6.67818">
        <ele>391.9</ele>
        <time>2015-06-08T12:45:55Z</time>
      </trkpt>
      <trkpt lat="47.48061" lon="6.67826">
        <ele>391.7</ele>
        <time>2015-06-08T12:45:56Z</time>
      </trkpt>
      <trkpt lat="47.48057" lon="6.67834">
        <ele>391.4</ele>
        <time>2015-06-08T12:45:57Z</time>
      </trkpt>
      <trkpt lat="47.48053" lon="6.67842">
        <ele>391.1</ele>
        <time>2015-06-08T12:45:58Z</time>
      </trkpt>
      <trkpt lat="47.48048" lon="6.67849">
        <ele>390.7</ele>
        <time>2015-06-08T12:45:59Z</time>
      </trkpt>
      <trkpt lat="47.48044" lon="6.67855">
        <ele>390.5</ele>
        <time>2015-06-08T12:46:00Z</time>
      </trkpt>
      <trkpt lat="47.4804" lon="6.67862">
        <ele>390.1</ele>
        <time>2015-06-08T12:46:01Z</time>
      </trkpt>
      <trkpt lat="47.48036" lon="6.67869">
        <ele>389.7</ele>
        <time>2015-06-08T12:46:02Z</time>
      </trkpt>
      <trkpt lat="47.48033" lon="6.67876">
        <ele>389.3</ele>
        <time>2015-06-08T12:46:03Z</time>
      </trkpt>
      <trkpt lat="47.48029" lon="6.67884">
        <ele>388.9</ele>
        <time>2015-06-08T12:46:04Z</time>
      </trkpt>
      <trkpt lat="47.48024" lon="6.6789">
        <ele>388.5</ele>
        <time>2015-06-08T12:46:05Z</time>
      </trkpt>
      <trkpt lat="47.48019" lon="6.67897">
        <ele>388.1</ele>
        <time>2015-06-08T12:46:06Z</time>
      </trkpt>
      <trkpt lat="47.48014" lon="6.67904">
        <ele>387.8</ele>
        <time>2015-06-08T12:46:07Z</time>
      </trkpt>
      <trkpt lat="47.4801" lon="6.6791">
        <ele>387.4</ele>
        <time>2015-06-08T12:46:08Z</time>
      </trkpt>
      <trkpt lat="47.48005" lon="6.67916">
        <ele>387</ele>
        <time>2015-06-08T12:46:09Z</time>
      </trkpt>
      <trkpt lat="47.48" lon="6.67923">
        <ele>386.5</ele>
        <time>2015-06-08T12:46:10Z</time>
      </trkpt>
      <trkpt lat="47.47995" lon="6.6793">
        <ele>386</ele>
        <time>2015-06-08T12:46:11Z</time>
      </trkpt>
      <trkpt lat="47.4799" lon="6.67937">
        <ele>385.5</ele>
        <time>2015-06-08T12:46:12Z</time>
      </trkpt>
      <trkpt lat="47.47984" lon="6.67943">
        <ele>385.6</ele>
        <time>2015-06-08T12:46:13Z</time>
      </trkpt>
      <trkpt lat="47.4798" lon="6.67951">
        <ele>385</ele>
        <time>2015-06-08T12:46:14Z</time>
      </trkpt>
      <trkpt lat="47.47976" lon="6.6796">
        <ele>384.5</ele>
        <time>2015-06-08T12:46:15Z</time>
      </trkpt>
      <trkpt lat="47.47973" lon="6.67971">
        <ele>384.1</ele>
        <time>2015-06-08T12:46:16Z</time>
      </trkpt>
      <trkpt lat="47.4797" lon="6.67981">
        <ele>383.6</ele>
        <time>2015-06-08T12:46:17Z</time>
      </trkpt>
      <trkpt lat="47.47967" lon="6.67992">
        <ele>383.1</ele>
        <time>2015-06-08T12:46:18Z</time>
      </trkpt>
      <trkpt lat="47.47965" lon="6.68004">
        <ele>382.9</ele>
        <time>2015-06-08T12:46:19Z</time>
      </trkpt>
      <trkpt lat="47.47962" lon="6.68014">
        <ele>382.4</ele>
        <time>2015-06-08T12:46:20Z</time>
      </trkpt>
      <trkpt lat="47.4796" lon="6.68025">
        <ele>381.9</ele>
        <time>2015-06-08T12:46:21Z</time>
      </trkpt>
      <trkpt lat="47.47958" lon="6.68038">
        <ele>381.5</ele>
        <time>2015-06-08T12:46:22Z</time>
      </trkpt>
      <trkpt lat="47.47957" lon="6.6805">
        <ele>381.1</ele>
        <time>2015-06-08T12:46:23Z</time>
      </trkpt>
      <trkpt lat="47.47957" lon="6.68063">
        <ele>380.7</ele>
        <time>2015-06-08T12:46:24Z</time>
      </trkpt>
      <trkpt lat="47.47957" lon="6.68077">
        <ele>380.5</ele>
        <time>2015-06-08T12:46:25Z</time>
      </trkpt>
      <trkpt lat="47.47957" lon="6.68091">
        <ele>380.3</ele>
        <time>2015-06-08T12:46:26Z</time>
      </trkpt>
      <trkpt lat="47.47957" lon="6.68106">
        <ele>380</ele>
        <time>2015-06-08T12:46:27Z</time>
      </trkpt>
      <trkpt lat="47.47956" lon="6.6812">
        <ele>379.7</ele>
        <time>2015-06-08T12:46:28Z</time>
      </trkpt>
      <trkpt lat="47.47954" lon="6.68135">
        <ele>379.4</ele>
        <time>2015-06-08T12:46:29Z</time>
      </trkpt>
      <trkpt lat="47.47952" lon="6.68149">
        <ele>379</ele>
        <time>2015-06-08T12:46:30Z</time>
      </trkpt>
      <trkpt lat="47.47949" lon="6.68164">
        <ele>378.7</ele>
        <time>2015-06-08T12:46:31Z</time>
      </trkpt>
      <trkpt lat="47.47946" lon="6.68179">
        <ele>378.3</ele>
        <time>2015-06-08T12:46:32Z</time>
      </trkpt>
      <trkpt lat="47.47943" lon="6.68194">
        <ele>378</ele>
        <time>2015-06-08T12:46:33Z</time>
      </trkpt>
      <trkpt lat="47.47939" lon="6.68208">
        <ele>377.5</ele>
        <time>2015-06-08T12:46:34Z</time>
      </trkpt>
      <trkpt lat="47.47936" lon="6.68223">
        <ele>377.1</ele>
        <time>2015-06-08T12:46:35Z</time>
      </trkpt>
      <trkpt lat="47.47933" lon="6.68238">
        <ele>376.9</ele>
        <time>2015-06-08T12:46:36Z</time>
      </trkpt>
      <trkpt lat="47.47928" lon="6.68253">
        <ele>376.6</ele>
        <time>2015-06-08T12:46:37Z</time>
      </trkpt>
      <trkpt lat="47.47923" lon="6.68268">
        <ele>376.4</ele>
        <time>2015-06-08T12:46:38Z</time>
      </trkpt>
      <trkpt lat="47.47918" lon="6.68283">
        <ele>376.2</ele>
        <time>2015-06-08T12:46:39Z</time>
      </trkpt>
      <trkpt lat="47.47913" lon="6.68297">
        <ele>376.2</ele>
        <time>2015-06-08T12:46:40Z</time>
      </trkpt>
      <trkpt lat="47.47907" lon="6.68312">
        <ele>376.3</ele>
        <time>2015-06-08T12:46:41Z</time>
      </trkpt>
      <trkpt lat="47.47902" lon="6.68326">
        <ele>376.2</ele>
        <time>2015-06-08T12:46:42Z</time>
      </trkpt>
      <trkpt lat="47.47897" lon="6.68341">
        <ele>375.9</ele>
        <time>2015-06-08T12:46:43Z</time>
      </trkpt>
      <trkpt lat="47.47892" lon="6.68356">
        <ele>375.5</ele>
        <time>2015-06-08T12:46:44Z</time>
      </trkpt>
      <trkpt lat="47.47886" lon="6.68371">
        <ele>375.9</ele>
        <time>2015-06-08T12:46:45Z</time>
      </trkpt>
      <trkpt lat="47.47881" lon="6.68387">
        <ele>375.7</ele>
        <time>2015-06-08T12:46:46Z</time>
      </trkpt>
      <trkpt lat="47.47877" lon="6.68402">
        <ele>375.5</ele>
        <time>2015-06-08T12:46:47Z</time>
      </trkpt>
      <trkpt lat="47.47873" lon="6.68416">
        <ele>375.3</ele>
        <time>2015-06-08T12:46:48Z</time>
      </trkpt>
      <trkpt lat="47.47869" lon="6.6843">
        <ele>375.1</ele>
        <time>2015-06-08T12:46:49Z</time>
      </trkpt>
      <trkpt lat="47.47865" lon="6.68443">
        <ele>374.9</ele>
        <time>2015-06-08T12:46:50Z</time>
      </trkpt>
      <trkpt lat="47.47861" lon="6.68455">
        <ele>374.6</ele>
        <time>2015-06-08T12:46:51Z</time>
      </trkpt>
      <trkpt lat="47.47857" lon="6.68466">
        <ele>374.6</ele>
        <time>2015-06-08T12:46:52Z</time>
      </trkpt>
      <trkpt lat="47.47853" lon="6.68477">
        <ele>374.3</ele>
        <time>2015-06-08T12:46:53Z</time>
      </trkpt>
      <trkpt lat="47.4785" lon="6.68488">
        <ele>374.1</ele>
        <time>2015-06-08T12:46:54Z</time>
      </trkpt>
      <trkpt lat="47.47846" lon="6.68497">
        <ele>373.9</ele>
        <time>2015-06-08T12:46:55Z</time>
      </trkpt>
      <trkpt lat="47.47842" lon="6.68507">
        <ele>373.7</ele>
        <time>2015-06-08T12:46:56Z</time>
      </trkpt>
      <trkpt lat="47.47837" lon="6.68517">
        <ele>373.7</ele>
        <time>2015-06-08T12:46:57Z</time>
      </trkpt>
      <trkpt lat="47.47832" lon="6.68526">
        <ele>373.8</ele>
        <time>2015-06-08T12:46:58Z</time>
      </trkpt>
      <trkpt lat="47.47827" lon="6.68535">
        <ele>373.2</ele>
        <time>2015-06-08T12:46:59Z</time>
      </trkpt>
      <trkpt lat="47.47821" lon="6.68543">
        <ele>372.5</ele>
        <time>2015-06-08T12:47:00Z</time>
      </trkpt>
      <trkpt lat="47.47815" lon="6.6855">
        <ele>371.5</ele>
        <time>2015-06-08T12:47:01Z</time>
      </trkpt>
      <trkpt lat="47.47807" lon="6.68557">
        <ele>370.6</ele>
        <time>2015-06-08T12:47:02Z</time>
      </trkpt>
      <trkpt lat="47.47798" lon="6.68563">
        <ele>369.9</ele>
        <time>2015-06-08T12:47:03Z</time>
      </trkpt>
      <trkpt lat="47.4779" lon="6.68567">
        <ele>368.8</ele>
        <time>2015-06-08T12:47:04Z</time>
      </trkpt>
      <trkpt lat="47.4778" lon="6.6857">
        <ele>367.8</ele>
        <time>2015-06-08T12:47:05Z</time>
      </trkpt>
      <trkpt lat="47.47771" lon="6.68574">
        <ele>366.8</ele>
        <time>2015-06-08T12:47:06Z</time>
      </trkpt>
      <trkpt lat="47.47761" lon="6.68577">
        <ele>365.9</ele>
        <time>2015-06-08T12:47:07Z</time>
      </trkpt>
      <trkpt lat="47.47751" lon="6.68582">
        <ele>365.2</ele>
        <time>2015-06-08T12:47:08Z</time>
      </trkpt>
      <trkpt lat="47.47741" lon="6.68588">
        <ele>364.5</ele>
        <time>2015-06-08T12:47:09Z</time>
      </trkpt>
      <trkpt lat="47.47731" lon="6.68596">
        <ele>364.2</ele>
        <time>2015-06-08T12:47:10Z</time>
      </trkpt>
      <trkpt lat="47.47722" lon="6.68605">
        <ele>363.9</ele>
        <time>2015-06-08T12:47:11Z</time>
      </trkpt>
      <trkpt lat="47.47713" lon="6.68615">
        <ele>363.2</ele>
        <time>2015-06-08T12:47:12Z</time>
      </trkpt>
      <trkpt lat="47.47704" lon="6.68626">
        <ele>362.7</ele>
        <time>2015-06-08T12:47:13Z</time>
      </trkpt>
      <trkpt lat="47.47696" lon="6.68637">
        <ele>362.4</ele>
        <time>2015-06-08T12:47:14Z</time>
      </trkpt>
      <trkpt lat="47.47688" lon="6.68648">
        <ele>362.1</ele>
        <time>2015-06-08T12:47:15Z</time>
      </trkpt>
      <trkpt lat="47.4768" lon="6.68658">
        <ele>362.1</ele>
        <time>2015-06-08T12:47:16Z</time>
      </trkpt>
      <trkpt lat="47.47673" lon="6.68668">
        <ele>361.6</ele>
        <time>2015-06-08T12:47:17Z</time>
      </trkpt>
      <trkpt lat="47.47666" lon="6.68678">
        <ele>361.2</ele>
        <time>2015-06-08T12:47:18Z</time>
      </trkpt>
      <trkpt lat="47.47659" lon="6.68688">
        <ele>360.9</ele>
        <time>2015-06-08T12:47:19Z</time>
      </trkpt>
      <trkpt lat="47.47652" lon="6.68697">
        <ele>360.9</ele>
        <time>2015-06-08T12:47:20Z</time>
      </trkpt>
      <trkpt lat="47.47647" lon="6.68706">
        <ele>360.5</ele>
        <time>2015-06-08T12:47:21Z</time>
      </trkpt>
      <trkpt lat="47.47644" lon="6.68716">
        <ele>359.9</ele>
        <time>2015-06-08T12:47:22Z</time>
      </trkpt>
      <trkpt lat="47.47642" lon="6.68726">
        <ele>359.1</ele>
        <time>2015-06-08T12:47:23Z</time>
      </trkpt>
      <trkpt lat="47.47641" lon="6.68737">
        <ele>358.7</ele>
        <time>2015-06-08T12:47:24Z</time>
      </trkpt>
      <trkpt lat="47.47641" lon="6.68749">
        <ele>358.3</ele>
        <time>2015-06-08T12:47:25Z</time>
      </trkpt>
      <trkpt lat="47.47639" lon="6.68761">
        <ele>357.4</ele>
        <time>2015-06-08T12:47:26Z</time>
      </trkpt>
      <trkpt lat="47.47637" lon="6.68772">
        <ele>356.6</ele>
        <time>2015-06-08T12:47:27Z</time>
      </trkpt>
      <trkpt lat="47.47635" lon="6.68783">
        <ele>355.4</ele>
        <time>2015-06-08T12:47:28Z</time>
      </trkpt>
      <trkpt lat="47.47633" lon="6.68792">
        <ele>354.8</ele>
        <time>2015-06-08T12:47:29Z</time>
      </trkpt>
      <trkpt lat="47.47632" lon="6.688">
        <ele>354.5</ele>
        <time>2015-06-08T12:47:30Z</time>
      </trkpt>
      <trkpt lat="47.4763" lon="6.68805">
        <ele>354.3</ele>
        <time>2015-06-08T12:47:32Z</time>
      </trkpt>
      <trkpt lat="47.47629" lon="6.6881">
        <ele>354.2</ele>
        <time>2015-06-08T12:47:32Z</time>
      </trkpt>
      <trkpt lat="47.47626" lon="6.68814">
        <ele>354.4</ele>
        <time>2015-06-08T12:47:33Z</time>
      </trkpt>
      <trkpt lat="47.47623" lon="6.68818">
        <ele>354.7</ele>
        <time>2015-06-08T12:47:34Z</time>
      </trkpt>
      <trkpt lat="47.47619" lon="6.68821">
        <ele>355</ele>
        <time>2015-06-08T12:47:35Z</time>
      </trkpt>
      <trkpt lat="47.47615" lon="6.68824">
        <ele>355</ele>
        <time>2015-06-08T12:47:36Z</time>
      </trkpt>
      <trkpt lat="47.4761" lon="6.68827">
        <ele>354.6</ele>
        <time>2015-06-08T12:47:37Z</time>
      </trkpt>
      <trkpt lat="47.47605" lon="6.6883">
        <ele>354.4</ele>
        <time>2015-06-08T12:47:38Z</time>
      </trkpt>
      <trkpt lat="47.476" lon="6.68834">
        <ele>354.2</ele>
        <time>2015-06-08T12:47:39Z</time>
      </trkpt>
      <trkpt lat="47.47595" lon="6.68837">
        <ele>354.3</ele>
        <time>2015-06-08T12:47:40Z</time>
      </trkpt>
      <trkpt lat="47.47589" lon="6.68841">
        <ele>354.4</ele>
        <time>2015-06-08T12:47:41Z</time>
      </trkpt>
      <trkpt lat="47.47583" lon="6.68845">
        <ele>354.2</ele>
        <time>2015-06-08T12:47:42Z</time>
      </trkpt>
      <trkpt lat="47.47577" lon="6.68848">
        <ele>354.2</ele>
        <time>2015-06-08T12:47:43Z</time>
      </trkpt>
      <trkpt lat="47.4757" lon="6.6885">
        <ele>353.8</ele>
        <time>2015-06-08T12:47:44Z</time>
      </trkpt>
      <trkpt lat="47.47563" lon="6.68852">
        <ele>353.5</ele>
        <time>2015-06-08T12:47:45Z</time>
      </trkpt>
      <trkpt lat="47.47556" lon="6.68853">
        <ele>353</ele>
        <time>2015-06-08T12:47:46Z</time>
      </trkpt>
      <trkpt lat="47.47549" lon="6.68855">
        <ele>351.8</ele>
        <time>2015-06-08T12:47:47Z</time>
      </trkpt>
      <trkpt lat="47.47541" lon="6.68858">
        <ele>350.9</ele>
        <time>2015-06-08T12:47:48Z</time>
      </trkpt>
      <trkpt lat="47.47533" lon="6.68861">
        <ele>350</ele>
        <time>2015-06-08T12:47:49Z</time>
      </trkpt>
      <trkpt lat="47.47525" lon="6.68863">
        <ele>348.9</ele>
        <time>2015-06-08T12:47:50Z</time>
      </trkpt>
      <trkpt lat="47.47516" lon="6.68865">
        <ele>348.3</ele>
        <time>2015-06-08T12:47:51Z</time>
      </trkpt>
      <trkpt lat="47.47507" lon="6.68866">
        <ele>347.4</ele>
        <time>2015-06-08T12:47:52Z</time>
      </trkpt>
      <trkpt lat="47.47498" lon="6.68866">
        <ele>346.2</ele>
        <time>2015-06-08T12:47:53Z</time>
      </trkpt>
      <trkpt lat="47.47489" lon="6.68865">
        <ele>345.6</ele>
        <time>2015-06-08T12:47:54Z</time>
      </trkpt>
      <trkpt lat="47.4748" lon="6.68862">
        <ele>345.1</ele>
        <time>2015-06-08T12:47:55Z</time>
      </trkpt>
      <trkpt lat="47.47471" lon="6.68859">
        <ele>344.4</ele>
        <time>2015-06-08T12:47:57Z</time>
      </trkpt>
      <trkpt lat="47.47463" lon="6.68855">
        <ele>343.8</ele>
        <time>2015-06-08T12:47:57Z</time>
      </trkpt>
      <trkpt lat="47.47456" lon="6.68851">
        <ele>342.8</ele>
        <time>2015-06-08T12:47:58Z</time>
      </trkpt>
      <trkpt lat="47.47448" lon="6.6885">
        <ele>341.3</ele>
        <time>2015-06-08T12:47:59Z</time>
      </trkpt>
      <trkpt lat="47.47441" lon="6.68854">
        <ele>340.9</ele>
        <time>2015-06-08T12:48:00Z</time>
      </trkpt>
      <trkpt lat="47.47435" lon="6.68861">
        <ele>340.3</ele>
        <time>2015-06-08T12:48:01Z</time>
      </trkpt>
      <trkpt lat="47.4743" lon="6.68869">
        <ele>339.8</ele>
        <time>2015-06-08T12:48:02Z</time>
      </trkpt>
      <trkpt lat="47.47425" lon="6.68876">
        <ele>339.3</ele>
        <time>2015-06-08T12:48:03Z</time>
      </trkpt>
      <trkpt lat="47.47421" lon="6.68883">
        <ele>338.6</ele>
        <time>2015-06-08T12:48:04Z</time>
      </trkpt>
      <trkpt lat="47.47416" lon="6.6889">
        <ele>338</ele>
        <time>2015-06-08T12:48:05Z</time>
      </trkpt>
      <trkpt lat="47.47411" lon="6.68896">
        <ele>337.8</ele>
        <time>2015-06-08T12:48:06Z</time>
      </trkpt>
      <trkpt lat="47.47405" lon="6.68903">
        <ele>337.3</ele>
        <time>2015-06-08T12:48:07Z</time>
      </trkpt>
      <trkpt lat="47.47399" lon="6.68909">
        <ele>336.9</ele>
        <time>2015-06-08T12:48:08Z</time>
      </trkpt>
      <trkpt lat="47.47394" lon="6.68916">
        <ele>336.2</ele>
        <time>2015-06-08T12:48:09Z</time>
      </trkpt>
      <trkpt lat="47.47388" lon="6.68923">
        <ele>335.8</ele>
        <time>2015-06-08T12:48:10Z</time>
      </trkpt>
      <trkpt lat="47.47382" lon="6.6893">
        <ele>335.7</ele>
        <time>2015-06-08T12:48:11Z</time>
      </trkpt>
      <trkpt lat="47.47376" lon="6.68937">
        <ele>335.1</ele>
        <time>2015-06-08T12:48:12Z</time>
      </trkpt>
      <trkpt lat="47.47371" lon="6.68944">
        <ele>335.3</ele>
        <time>2015-06-08T12:48:13Z</time>
      </trkpt>
      <trkpt lat="47.47365" lon="6.68951">
        <ele>335.6</ele>
        <time>2015-06-08T12:48:14Z</time>
      </trkpt>
      <trkpt lat="47.47359" lon="6.68958">
        <ele>335.9</ele>
        <time>2015-06-08T12:48:15Z</time>
      </trkpt>
      <trkpt lat="47.47354" lon="6.68965">
        <ele>335.8</ele>
        <time>2015-06-08T12:48:16Z</time>
      </trkpt>
      <trkpt lat="47.47349" lon="6.68971">
        <ele>335.4</ele>
        <time>2015-06-08T12:48:17Z</time>
      </trkpt>
      <trkpt lat="47.47344" lon="6.68978">
        <ele>334.7</ele>
        <time>2015-06-08T12:48:18Z</time>
      </trkpt>
      <trkpt lat="47.4734" lon="6.68986">
        <ele>334</ele>
        <time>2015-06-08T12:48:19Z</time>
      </trkpt>
      <trkpt lat="47.47337" lon="6.68994">
        <ele>332.7</ele>
        <time>2015-06-08T12:48:20Z</time>
      </trkpt>
      <trkpt lat="47.47333" lon="6.69002">
        <ele>331.9</ele>
        <time>2015-06-08T12:48:21Z</time>
      </trkpt>
      <trkpt lat="47.47331" lon="6.6901">
        <ele>331</ele>
        <time>2015-06-08T12:48:22Z</time>
      </trkpt>
      <trkpt lat="47.47329" lon="6.69019">
        <ele>330.4</ele>
        <time>2015-06-08T12:48:23Z</time>
      </trkpt>
      <trkpt lat="47.47327" lon="6.69028">
        <ele>330.5</ele>
        <time>2015-06-08T12:48:24Z</time>
      </trkpt>
      <trkpt lat="47.47325" lon="6.69037">
        <ele>330.5</ele>
        <time>2015-06-08T12:48:25Z</time>
      </trkpt>
      <trkpt lat="47.47324" lon="6.69046">
        <ele>330.5</ele>
        <time>2015-06-08T12:48:26Z</time>
      </trkpt>
      <trkpt lat="47.47322" lon="6.69055">
        <ele>330.9</ele>
        <time>2015-06-08T12:48:27Z</time>
      </trkpt>
      <trkpt lat="47.4732" lon="6.69063">
        <ele>331</ele>
        <time>2015-06-08T12:48:28Z</time>
      </trkpt>
      <trkpt lat="47.47318" lon="6.69071">
        <ele>331.1</ele>
        <time>2015-06-08T12:48:29Z</time>
      </trkpt>
      <trkpt lat="47.47315" lon="6.69079">
        <ele>331.4</ele>
        <time>2015-06-08T12:48:30Z</time>
      </trkpt>
      <trkpt lat="47.47312" lon="6.69087">
        <ele>331.3</ele>
        <time>2015-06-08T12:48:31Z</time>
      </trkpt>
      <trkpt lat="47.47309" lon="6.69093">
        <ele>331.3</ele>
        <time>2015-06-08T12:48:32Z</time>
      </trkpt>
      <trkpt lat="47.47305" lon="6.69099">
        <ele>331.5</ele>
        <time>2015-06-08T12:48:33Z</time>
      </trkpt>
      <trkpt lat="47.47302" lon="6.69102">
        <ele>331</ele>
        <time>2015-06-08T12:48:34Z</time>
      </trkpt>
      <trkpt lat="47.47298" lon="6.69104">
        <ele>330.6</ele>
        <time>2015-06-08T12:48:35Z</time>
      </trkpt>
      <trkpt lat="47.47294" lon="6.69104">
        <ele>330.4</ele>
        <time>2015-06-08T12:48:36Z</time>
      </trkpt>
      <trkpt lat="47.47291" lon="6.69103">
        <ele>329.4</ele>
        <time>2015-06-08T12:48:37Z</time>
      </trkpt>
      <trkpt lat="47.47288" lon="6.691">
        <ele>329.2</ele>
        <time>2015-06-08T12:48:38Z</time>
      </trkpt>
      <trkpt lat="47.47284" lon="6.69095">
        <ele>329.3</ele>
        <time>2015-06-08T12:48:39Z</time>
      </trkpt>
      <trkpt lat="47.47281" lon="6.6909">
        <ele>329.4</ele>
        <time>2015-06-08T12:48:40Z</time>
      </trkpt>
      <trkpt lat="47.47278" lon="6.69083">
        <ele>329.1</ele>
        <time>2015-06-08T12:48:41Z</time>
      </trkpt>
      <trkpt lat="47.47275" lon="6.69076">
        <ele>329.1</ele>
        <time>2015-06-08T12:48:42Z</time>
      </trkpt>
      <trkpt lat="47.47272" lon="6.69069">
        <ele>329.1</ele>
        <time>2015-06-08T12:48:43Z</time>
      </trkpt>
      <trkpt lat="47.47268" lon="6.69063">
        <ele>328.9</ele>
        <time>2015-06-08T12:48:44Z</time>
      </trkpt>
      <trkpt lat="47.47264" lon="6.69056">
        <ele>328.8</ele>
        <time>2015-06-08T12:48:45Z</time>
      </trkpt>
      <trkpt lat="47.47261" lon="6.6905">
        <ele>328.7</ele>
        <time>2015-06-08T12:48:46Z</time>
      </trkpt>
      <trkpt lat="47.47258" lon="6.69044">
        <ele>328.7</ele>
        <time>2015-06-08T12:48:47Z</time>
      </trkpt>
      <trkpt lat="47.47254" lon="6.69037">
        <ele>328.3</ele>
        <time>2015-06-08T12:48:49Z</time>
      </trkpt>
      <trkpt lat="47.47251" lon="6.69031">
        <ele>328.3</ele>
        <time>2015-06-08T12:48:49Z</time>
      </trkpt>
      <trkpt lat="47.47247" lon="6.69024">
        <ele>327.7</ele>
        <time>2015-06-08T12:48:50Z</time>
      </trkpt>
      <trkpt lat="47.47244" lon="6.69018">
        <ele>327.6</ele>
        <time>2015-06-08T12:48:51Z</time>
      </trkpt>
      <trkpt lat="47.4724" lon="6.69012">
        <ele>327.4</ele>
        <time>2015-06-08T12:48:52Z</time>
      </trkpt>
      <trkpt lat="47.47237" lon="6.69005">
        <ele>327.3</ele>
        <time>2015-06-08T12:48:53Z</time>
      </trkpt>
      <trkpt lat="47.47233" lon="6.68999">
        <ele>327.3</ele>
        <time>2015-06-08T12:48:54Z</time>
      </trkpt>
      <trkpt lat="47.4723" lon="6.68993">
        <ele>327.3</ele>
        <time>2015-06-08T12:48:55Z</time>
      </trkpt>
      <trkpt lat="47.47227" lon="6.68986">
        <ele>326.2</ele>
        <time>2015-06-08T12:48:56Z</time>
      </trkpt>
      <trkpt lat="47.47223" lon="6.6898">
        <ele>325.9</ele>
        <time>2015-06-08T12:48:57Z</time>
      </trkpt>
      <trkpt lat="47.4722" lon="6.68974">
        <ele>325.5</ele>
        <time>2015-06-08T12:48:58Z</time>
      </trkpt>
      <trkpt lat="47.47217" lon="6.68967">
        <ele>324.5</ele>
        <time>2015-06-08T12:48:59Z</time>
      </trkpt>
      <trkpt lat="47.47213" lon="6.68961">
        <ele>324.1</ele>
        <time>2015-06-08T12:49:00Z</time>
      </trkpt>
      <trkpt lat="47.4721" lon="6.68955">
        <ele>324.1</ele>
        <time>2015-06-08T12:49:01Z</time>
      </trkpt>
      <trkpt lat="47.47206" lon="6.68949">
        <ele>323.4</ele>
        <time>2015-06-08T12:49:02Z</time>
      </trkpt>
      <trkpt lat="47.47203" lon="6.68943">
        <ele>322.7</ele>
        <time>2015-06-08T12:49:03Z</time>
      </trkpt>
      <trkpt lat="47.47199" lon="6.68936">
        <ele>322.1</ele>
        <time>2015-06-08T12:49:04Z</time>
      </trkpt>
      <trkpt lat="47.47195" lon="6.68931">
        <ele>321.8</ele>
        <time>2015-06-08T12:49:05Z</time>
      </trkpt>
      <trkpt lat="47.4719" lon="6.68925">
        <ele>321.4</ele>
        <time>2015-06-08T12:49:06Z</time>
      </trkpt>
      <trkpt lat="47.47187" lon="6.68919">
        <ele>320.7</ele>
        <time>2015-06-08T12:49:07Z</time>
      </trkpt>
      <trkpt lat="47.47183" lon="6.68912">
        <ele>320.2</ele>
        <time>2015-06-08T12:49:08Z</time>
      </trkpt>
      <trkpt lat="47.47179" lon="6.68906">
        <ele>319.9</ele>
        <time>2015-06-08T12:49:09Z</time>
      </trkpt>
      <trkpt lat="47.47175" lon="6.68899">
        <ele>319.6</ele>
        <time>2015-06-08T12:49:10Z</time>
      </trkpt>
      <trkpt lat="47.47172" lon="6.68893">
        <ele>319.4</ele>
        <time>2015-06-08T12:49:11Z</time>
      </trkpt>
      <trkpt lat="47.47168" lon="6.68887">
        <ele>319.2</ele>
        <time>2015-06-08T12:49:12Z</time>
      </trkpt>
      <trkpt lat="47.47164" lon="6.68882">
        <ele>318.8</ele>
        <time>2015-06-08T12:49:13Z</time>
      </trkpt>
      <trkpt lat="47.47159" lon="6.68877">
        <ele>318.7</ele>
        <time>2015-06-08T12:49:14Z</time>
      </trkpt>
      <trkpt lat="47.47154" lon="6.68873">
        <ele>318.6</ele>
        <time>2015-06-08T12:49:15Z</time>
      </trkpt>
      <trkpt lat="47.47149" lon="6.68868">
        <ele>318.4</ele>
        <time>2015-06-08T12:49:16Z</time>
      </trkpt>
      <trkpt lat="47.47145" lon="6.68864">
        <ele>318.5</ele>
        <time>2015-06-08T12:49:17Z</time>
      </trkpt>
      <trkpt lat="47.4714" lon="6.68859">
        <ele>318</ele>
        <time>2015-06-08T12:49:18Z</time>
      </trkpt>
      <trkpt lat="47.47136" lon="6.68854">
        <ele>318.1</ele>
        <time>2015-06-08T12:49:19Z</time>
      </trkpt>
      <trkpt lat="47.47132" lon="6.68849">
        <ele>317.7</ele>
        <time>2015-06-08T12:49:20Z</time>
      </trkpt>
      <trkpt lat="47.47128" lon="6.68843">
        <ele>317</ele>
        <time>2015-06-08T12:49:22Z</time>
      </trkpt>
      <trkpt lat="47.47124" lon="6.68838">
        <ele>316.3</ele>
        <time>2015-06-08T12:49:22Z</time>
      </trkpt>
      <trkpt lat="47.47119" lon="6.68834">
        <ele>315.7</ele>
        <time>2015-06-08T12:49:23Z</time>
      </trkpt>
      <trkpt lat="47.47115" lon="6.68829">
        <ele>315.4</ele>
        <time>2015-06-08T12:49:24Z</time>
      </trkpt>
      <trkpt lat="47.4711" lon="6.68824">
        <ele>316.1</ele>
        <time>2015-06-08T12:49:25Z</time>
      </trkpt>
      <trkpt lat="47.47106" lon="6.68819">
        <ele>316.2</ele>
        <time>2015-06-08T12:49:26Z</time>
      </trkpt>
      <trkpt lat="47.47102" lon="6.68813">
        <ele>317.1</ele>
        <time>2015-06-08T12:49:27Z</time>
      </trkpt>
      <trkpt lat="47.47098" lon="6.68807">
        <ele>316.9</ele>
        <time>2015-06-08T12:49:28Z</time>
      </trkpt>
      <trkpt lat="47.47095" lon="6.68802">
        <ele>316.6</ele>
        <time>2015-06-08T12:49:29Z</time>
      </trkpt>
      <trkpt lat="47.47091" lon="6.68796">
        <ele>316.2</ele>
        <time>2015-06-08T12:49:30Z</time>
      </trkpt>
      <trkpt lat="47.47087" lon="6.68791">
        <ele>315.7</ele>
        <time>2015-06-08T12:49:31Z</time>
      </trkpt>
      <trkpt lat="47.47084" lon="6.68785">
        <ele>315.2</ele>
        <time>2015-06-08T12:49:32Z</time>
      </trkpt>
      <trkpt lat="47.47081" lon="6.6878">
        <ele>314.9</ele>
        <time>2015-06-08T12:49:33Z</time>
      </trkpt>
      <trkpt lat="47.47077" lon="6.68774">
        <ele>314.5</ele>
        <time>2015-06-08T12:49:35Z</time>
      </trkpt>
      <trkpt lat="47.47074" lon="6.68769">
        <ele>314.4</ele>
        <time>2015-06-08T12:49:35Z</time>
      </trkpt>
      <trkpt lat="47.47069" lon="6.68765">
        <ele>315.9</ele>
        <time>2015-06-08T12:49:36Z</time>
      </trkpt>
      <trkpt lat="47.47065" lon="6.68759">
        <ele>315.9</ele>
        <time>2015-06-08T12:49:37Z</time>
      </trkpt>
      <trkpt lat="47.47063" lon="6.68753">
        <ele>315.6</ele>
        <time>2015-06-08T12:49:38Z</time>
      </trkpt>
      <trkpt lat="47.4706" lon="6.68747">
        <ele>315.4</ele>
        <time>2015-06-08T12:49:39Z</time>
      </trkpt>
      <trkpt lat="47.47056" lon="6.68741">
        <ele>315.3</ele>
        <time>2015-06-08T12:49:40Z</time>
      </trkpt>
      <trkpt lat="47.47052" lon="6.68735">
        <ele>314.9</ele>
        <time>2015-06-08T12:49:41Z</time>
      </trkpt>
      <trkpt lat="47.47049" lon="6.68729">
        <ele>314.6</ele>
        <time>2015-06-08T12:49:42Z</time>
      </trkpt>
      <trkpt lat="47.47044" lon="6.68723">
        <ele>314.3</ele>
        <time>2015-06-08T12:49:43Z</time>
      </trkpt>
      <trkpt lat="47.4704" lon="6.68717">
        <ele>314.4</ele>
        <time>2015-06-08T12:49:44Z</time>
      </trkpt>
      <trkpt lat="47.47035" lon="6.68712">
        <ele>314.2</ele>
        <time>2015-06-08T12:49:45Z</time>
      </trkpt>
      <trkpt lat="47.4703" lon="6.68706">
        <ele>314.2</ele>
        <time>2015-06-08T12:49:46Z</time>
      </trkpt>
      <trkpt lat="47.47025" lon="6.68701">
        <ele>314.2</ele>
        <time>2015-06-08T12:49:47Z</time>
      </trkpt>
      <trkpt lat="47.4702" lon="6.68696">
        <ele>313.9</ele>
        <time>2015-06-08T12:49:48Z</time>
      </trkpt>
      <trkpt lat="47.47015" lon="6.6869">
        <ele>313.8</ele>
        <time>2015-06-08T12:49:49Z</time>
      </trkpt>
      <trkpt lat="47.47011" lon="6.68684">
        <ele>313.4</ele>
        <time>2015-06-08T12:49:50Z</time>
      </trkpt>
      <trkpt lat="47.47007" lon="6.68677">
        <ele>313</ele>
        <time>2015-06-08T12:49:51Z</time>
      </trkpt>
      <trkpt lat="47.47003" lon="6.6867">
        <ele>312.7</ele>
        <time>2015-06-08T12:49:52Z</time>
      </trkpt>
      <trkpt lat="47.46999" lon="6.68663">
        <ele>312.5</ele>
        <time>2015-06-08T12:49:53Z</time>
      </trkpt>
      <trkpt lat="47.46996" lon="6.68656">
        <ele>312.2</ele>
        <time>2015-06-08T12:49:54Z</time>
      </trkpt>
      <trkpt lat="47.46992" lon="6.68649">
        <ele>311.8</ele>
        <time>2015-06-08T12:49:55Z</time>
      </trkpt>
      <trkpt lat="47.46988" lon="6.68642">
        <ele>311.5</ele>
        <time>2015-06-08T12:49:56Z</time>
      </trkpt>
      <trkpt lat="47.46985" lon="6.68636">
        <ele>311.2</ele>
        <time>2015-06-08T12:49:57Z</time>
      </trkpt>
      <trkpt lat="47.46981" lon="6.6863">
        <ele>311.1</ele>
        <time>2015-06-08T12:49:58Z</time>
      </trkpt>
      <trkpt lat="47.46977" lon="6.68624">
        <ele>311</ele>
        <time>2015-06-08T12:49:59Z</time>
      </trkpt>
      <trkpt lat="47.46973" lon="6.68618">
        <ele>310.8</ele>
        <time>2015-06-08T12:50:00Z</time>
      </trkpt>
      <trkpt lat="47.4697" lon="6.68612">
        <ele>310.5</ele>
        <time>2015-06-08T12:50:01Z</time>
      </trkpt>
      <trkpt lat="47.46966" lon="6.68607">
        <ele>310.2</ele>
        <time>2015-06-08T12:50:02Z</time>
      </trkpt>
      <trkpt lat="47.46963" lon="6.68601">
        <ele>310.2</ele>
        <time>2015-06-08T12:50:03Z</time>
      </trkpt>
      <trkpt lat="47.46959" lon="6.68596">
        <ele>310.5</ele>
        <time>2015-06-08T12:50:04Z</time>
      </trkpt>
      <trkpt lat="47.46955" lon="6.6859">
        <ele>310.3</ele>
        <time>2015-06-08T12:50:05Z</time>
      </trkpt>
      <trkpt lat="47.46951" lon="6.68585">
        <ele>310.3</ele>
        <time>2015-06-08T12:50:06Z</time>
      </trkpt>
      <trkpt lat="47.46946" lon="6.6858">
        <ele>310.6</ele>
        <time>2015-06-08T12:50:07Z</time>
      </trkpt>
      <trkpt lat="47.46942" lon="6.68575">
        <ele>310.7</ele>
        <time>2015-06-08T12:50:08Z</time>
      </trkpt>
      <trkpt lat="47.46938" lon="6.68571">
        <ele>310.4</ele>
        <time>2015-06-08T12:50:09Z</time>
      </trkpt>
      <trkpt lat="47.46934" lon="6.68566">
        <ele>310.4</ele>
        <time>2015-06-08T12:50:10Z</time>
      </trkpt>
      <trkpt lat="47.4693" lon="6.68562">
        <ele>310.2</ele>
        <time>2015-06-08T12:50:11Z</time>
      </trkpt>
      <trkpt lat="47.46926" lon="6.68558">
        <ele>310.4</ele>
        <time>2015-06-08T12:50:12Z</time>
      </trkpt>
      <trkpt lat="47.46921" lon="6.68554">
        <ele>310.5</ele>
        <time>2015-06-08T12:50:13Z</time>
      </trkpt>
      <trkpt lat="47.46917" lon="6.68549">
        <ele>310.5</ele>
        <time>2015-06-08T12:50:14Z</time>
      </trkpt>
      <trkpt lat="47.46913" lon="6.68544">
        <ele>310.6</ele>
        <time>2015-06-08T12:50:15Z</time>
      </trkpt>
      <trkpt lat="47.46909" lon="6.68539">
        <ele>310.6</ele>
        <time>2015-06-08T12:50:16Z</time>
      </trkpt>
      <trkpt lat="47.46905" lon="6.68533">
        <ele>310.7</ele>
        <time>2015-06-08T12:50:17Z</time>
      </trkpt>
      <trkpt lat="47.46901" lon="6.68529">
        <ele>310.6</ele>
        <time>2015-06-08T12:50:18Z</time>
      </trkpt>
      <trkpt lat="47.46896" lon="6.68524">
        <ele>310.7</ele>
        <time>2015-06-08T12:50:19Z</time>
      </trkpt>
      <trkpt lat="47.46891" lon="6.68519">
        <ele>310.7</ele>
        <time>2015-06-08T12:50:20Z</time>
      </trkpt>
      <trkpt lat="47.46886" lon="6.68515">
        <ele>310.6</ele>
        <time>2015-06-08T12:50:21Z</time>
      </trkpt>
      <trkpt lat="47.46882" lon="6.6851">
        <ele>310.7</ele>
        <time>2015-06-08T12:50:22Z</time>
      </trkpt>
      <trkpt lat="47.46877" lon="6.68505">
        <ele>310.9</ele>
        <time>2015-06-08T12:50:23Z</time>
      </trkpt>
      <trkpt lat="47.46872" lon="6.68501">
        <ele>311.2</ele>
        <time>2015-06-08T12:50:24Z</time>
      </trkpt>
      <trkpt lat="47.46868" lon="6.68496">
        <ele>311.3</ele>
        <time>2015-06-08T12:50:25Z</time>
      </trkpt>
      <trkpt lat="47.46863" lon="6.68491">
        <ele>310.2</ele>
        <time>2015-06-08T12:50:26Z</time>
      </trkpt>
      <trkpt lat="47.46859" lon="6.68486">
        <ele>309.6</ele>
        <time>2015-06-08T12:50:27Z</time>
      </trkpt>
      <trkpt lat="47.46854" lon="6.68482">
        <ele>308.8</ele>
        <time>2015-06-08T12:50:28Z</time>
      </trkpt>
      <trkpt lat="47.46849" lon="6.68477">
        <ele>308.4</ele>
        <time>2015-06-08T12:50:29Z</time>
      </trkpt>
      <trkpt lat="47.46845" lon="6.68473">
        <ele>308</ele>
        <time>2015-06-08T12:50:30Z</time>
      </trkpt>
      <trkpt lat="47.4684" lon="6.68468">
        <ele>307.7</ele>
        <time>2015-06-08T12:50:31Z</time>
      </trkpt>
      <trkpt lat="47.46835" lon="6.68463">
        <ele>306.9</ele>
        <time>2015-06-08T12:50:32Z</time>
      </trkpt>
      <trkpt lat="47.46831" lon="6.68458">
        <ele>306.8</ele>
        <time>2015-06-08T12:50:33Z</time>
      </trkpt>
      <trkpt lat="47.46827" lon="6.68453">
        <ele>306.7</ele>
        <time>2015-06-08T12:50:34Z</time>
      </trkpt>
      <trkpt lat="47.46823" lon="6.68449">
        <ele>306.7</ele>
        <time>2015-06-08T12:50:35Z</time>
      </trkpt>
      <trkpt lat="47.46818" lon="6.68444">
        <ele>306.7</ele>
        <time>2015-06-08T12:50:36Z</time>
      </trkpt>
      <trkpt lat="47.46814" lon="6.68439">
        <ele>307.1</ele>
        <time>2015-06-08T12:50:37Z</time>
      </trkpt>
      <trkpt lat="47.4681" lon="6.68434">
        <ele>307.2</ele>
        <time>2015-06-08T12:50:38Z</time>
      </trkpt>
      <trkpt lat="47.46805" lon="6.68429">
        <ele>307.2</ele>
        <time>2015-06-08T12:50:40Z</time>
      </trkpt>
      <trkpt lat="47.46801" lon="6.68424">
        <ele>307.3</ele>
        <time>2015-06-08T12:50:40Z</time>
      </trkpt>
      <trkpt lat="47.46797" lon="6.68419">
        <ele>309.1</ele>
        <time>2015-06-08T12:50:41Z</time>
      </trkpt>
      <trkpt lat="47.46793" lon="6.68414">
        <ele>309.7</ele>
        <time>2015-06-08T12:50:42Z</time>
      </trkpt>
      <trkpt lat="47.46789" lon="6.68409">
        <ele>309.8</ele>
        <time>2015-06-08T12:50:43Z</time>
      </trkpt>
      <trkpt lat="47.46785" lon="6.68405">
        <ele>310</ele>
        <time>2015-06-08T12:50:44Z</time>
      </trkpt>
      <trkpt lat="47.46781" lon="6.684">
        <ele>310.2</ele>
        <time>2015-06-08T12:50:45Z</time>
      </trkpt>
      <trkpt lat="47.46777" lon="6.68395">
        <ele>310.4</ele>
        <time>2015-06-08T12:50:46Z</time>
      </trkpt>
      <trkpt lat="47.46773" lon="6.6839">
        <ele>310.6</ele>
        <time>2015-06-08T12:50:47Z</time>
      </trkpt>
      <trkpt lat="47.46769" lon="6.68386">
        <ele>310.9</ele>
        <time>2015-06-08T12:50:48Z</time>
      </trkpt>
      <trkpt lat="47.46765" lon="6.68381">
        <ele>311</ele>
        <time>2015-06-08T12:50:49Z</time>
      </trkpt>
      <trkpt lat="47.46761" lon="6.68376">
        <ele>311.1</ele>
        <time>2015-06-08T12:50:50Z</time>
      </trkpt>
      <trkpt lat="47.46757" lon="6.68371">
        <ele>311</ele>
        <time>2015-06-08T12:50:51Z</time>
      </trkpt>
      <trkpt lat="47.46753" lon="6.68367">
        <ele>311</ele>
        <time>2015-06-08T12:50:52Z</time>
      </trkpt>
      <trkpt lat="47.4675" lon="6.68363">
        <ele>310.9</ele>
        <time>2015-06-08T12:50:53Z</time>
      </trkpt>
      <trkpt lat="47.46746" lon="6.6836">
        <ele>310.9</ele>
        <time>2015-06-08T12:50:54Z</time>
      </trkpt>
      <trkpt lat="47.46743" lon="6.68356">
        <ele>310.8</ele>
        <time>2015-06-08T12:50:55Z</time>
      </trkpt>
      <trkpt lat="47.4674" lon="6.68352">
        <ele>310.8</ele>
        <time>2015-06-08T12:50:56Z</time>
      </trkpt>
      <trkpt lat="47.46737" lon="6.68348">
        <ele>310.7</ele>
        <time>2015-06-08T12:50:57Z</time>
      </trkpt>
      <trkpt lat="47.46734" lon="6.68344">
        <ele>310.7</ele>
        <time>2015-06-08T12:50:58Z</time>
      </trkpt>
      <trkpt lat="47.46731" lon="6.6834">
        <ele>310.6</ele>
        <time>2015-06-08T12:50:59Z</time>
      </trkpt>
      <trkpt lat="47.46727" lon="6.68337">
        <ele>310.6</ele>
        <time>2015-06-08T12:51:00Z</time>
      </trkpt>
      <trkpt lat="47.46724" lon="6.68334">
        <ele>310.4</ele>
        <time>2015-06-08T12:51:01Z</time>
      </trkpt>
      <trkpt lat="47.46721" lon="6.6833">
        <ele>310.3</ele>
        <time>2015-06-08T12:51:02Z</time>
      </trkpt>
      <trkpt lat="47.46718" lon="6.68327">
        <ele>310</ele>
        <time>2015-06-08T12:51:03Z</time>
      </trkpt>
      <trkpt lat="47.46715" lon="6.68323">
        <ele>309.9</ele>
        <time>2015-06-08T12:51:04Z</time>
      </trkpt>
      <trkpt lat="47.46712" lon="6.68319">
        <ele>309.7</ele>
        <time>2015-06-08T12:51:05Z</time>
      </trkpt>
      <trkpt lat="47.46709" lon="6.68316">
        <ele>309.5</ele>
        <time>2015-06-08T12:51:06Z</time>
      </trkpt>
      <trkpt lat="47.46706" lon="6.68312">
        <ele>309.4</ele>
        <time>2015-06-08T12:51:07Z</time>
      </trkpt>
      <trkpt lat="47.46702" lon="6.68308">
        <ele>309.2</ele>
        <time>2015-06-08T12:51:08Z</time>
      </trkpt>
      <trkpt lat="47.46696" lon="6.68303">
        <ele>309.1</ele>
        <time>2015-06-08T12:51:09Z</time>
      </trkpt>
      <trkpt lat="47.46692" lon="6.68299">
        <ele>309.1</ele>
        <time>2015-06-08T12:51:10Z</time>
      </trkpt>
      <trkpt lat="47.46688" lon="6.68296">
        <ele>309.2</ele>
        <time>2015-06-08T12:51:11Z</time>
      </trkpt>
      <trkpt lat="47.46683" lon="6.68292">
        <ele>309.3</ele>
        <time>2015-06-08T12:51:12Z</time>
      </trkpt>
      <trkpt lat="47.4668" lon="6.68288">
        <ele>309.2</ele>
        <time>2015-06-08T12:51:13Z</time>
      </trkpt>
      <trkpt lat="47.46676" lon="6.68284">
        <ele>308.9</ele>
        <time>2015-06-08T12:51:14Z</time>
      </trkpt>
      <trkpt lat="47.46672" lon="6.68281">
        <ele>308.5</ele>
        <time>2015-06-08T12:51:15Z</time>
      </trkpt>
      <trkpt lat="47.46668" lon="6.68278">
        <ele>308.2</ele>
        <time>2015-06-08T12:51:16Z</time>
      </trkpt>
      <trkpt lat="47.46665" lon="6.68275">
        <ele>307.9</ele>
        <time>2015-06-08T12:51:17Z</time>
      </trkpt>
      <trkpt lat="47.46661" lon="6.68272">
        <ele>307.6</ele>
        <time>2015-06-08T12:51:18Z</time>
      </trkpt>
      <trkpt lat="47.46657" lon="6.68269">
        <ele>307.4</ele>
        <time>2015-06-08T12:51:19Z</time>
      </trkpt>
      <trkpt lat="47.46654" lon="6.68265">
        <ele>307.2</ele>
        <time>2015-06-08T12:51:20Z</time>
      </trkpt>
      <trkpt lat="47.4665" lon="6.68262">
        <ele>307</ele>
        <time>2015-06-08T12:51:21Z</time>
      </trkpt>
      <trkpt lat="47.46646" lon="6.68259">
        <ele>306.7</ele>
        <time>2015-06-08T12:51:22Z</time>
      </trkpt>
      <trkpt lat="47.46642" lon="6.68256">
        <ele>306.5</ele>
        <time>2015-06-08T12:51:23Z</time>
      </trkpt>
      <trkpt lat="47.46637" lon="6.68252">
        <ele>306.3</ele>
        <time>2015-06-08T12:51:24Z</time>
      </trkpt>
      <trkpt lat="47.46633" lon="6.68249">
        <ele>306</ele>
        <time>2015-06-08T12:51:25Z</time>
      </trkpt>
      <trkpt lat="47.46629" lon="6.68246">
        <ele>305.5</ele>
        <time>2015-06-08T12:51:26Z</time>
      </trkpt>
      <trkpt lat="47.46625" lon="6.68243">
        <ele>305.1</ele>
        <time>2015-06-08T12:51:27Z</time>
      </trkpt>
      <trkpt lat="47.46621" lon="6.6824">
        <ele>304.7</ele>
        <time>2015-06-08T12:51:28Z</time>
      </trkpt>
      <trkpt lat="47.46617" lon="6.68237">
        <ele>304.2</ele>
        <time>2015-06-08T12:51:29Z</time>
      </trkpt>
      <trkpt lat="47.46613" lon="6.68234">
        <ele>303.8</ele>
        <time>2015-06-08T12:51:30Z</time>
      </trkpt>
      <trkpt lat="47.46608" lon="6.68231">
        <ele>303.4</ele>
        <time>2015-06-08T12:51:31Z</time>
      </trkpt>
      <trkpt lat="47.46604" lon="6.68228">
        <ele>302.9</ele>
        <time>2015-06-08T12:51:32Z</time>
      </trkpt>
      <trkpt lat="47.466" lon="6.68225">
        <ele>302.6</ele>
        <time>2015-06-08T12:51:33Z</time>
      </trkpt>
      <trkpt lat="47.46596" lon="6.68222">
        <ele>302.3</ele>
        <time>2015-06-08T12:51:34Z</time>
      </trkpt>
      <trkpt lat="47.46592" lon="6.68219">
        <ele>302.1</ele>
        <time>2015-06-08T12:51:35Z</time>
      </trkpt>
      <trkpt lat="47.46588" lon="6.68217">
        <ele>301.6</ele>
        <time>2015-06-08T12:51:36Z</time>
      </trkpt>
      <trkpt lat="47.46584" lon="6.68215">
        <ele>301.1</ele>
        <time>2015-06-08T12:51:37Z</time>
      </trkpt>
      <trkpt lat="47.4658" lon="6.68212">
        <ele>300.7</ele>
        <time>2015-06-08T12:51:38Z</time>
      </trkpt>
      <trkpt lat="47.46576" lon="6.68209">
        <ele>300.1</ele>
        <time>2015-06-08T12:51:39Z</time>
      </trkpt>
      <trkpt lat="47.46572" lon="6.68206">
        <ele>299.6</ele>
        <time>2015-06-08T12:51:40Z</time>
      </trkpt>
      <trkpt lat="47.46569" lon="6.68203">
        <ele>299</ele>
        <time>2015-06-08T12:51:41Z</time>
      </trkpt>
      <trkpt lat="47.46565" lon="6.68201">
        <ele>298.4</ele>
        <time>2015-06-08T12:51:42Z</time>
      </trkpt>
      <trkpt lat="47.46562" lon="6.68198">
        <ele>297.9</ele>
        <time>2015-06-08T12:51:43Z</time>
      </trkpt>
      <trkpt lat="47.46558" lon="6.68195">
        <ele>297.4</ele>
        <time>2015-06-08T12:51:44Z</time>
      </trkpt>
      <trkpt lat="47.46554" lon="6.68193">
        <ele>296.9</ele>
        <time>2015-06-08T12:51:45Z</time>
      </trkpt>
      <trkpt lat="47.4655" lon="6.6819">
        <ele>296.4</ele>
        <time>2015-06-08T12:51:46Z</time>
      </trkpt>
      <trkpt lat="47.46547" lon="6.68187">
        <ele>295.7</ele>
        <time>2015-06-08T12:51:47Z</time>
      </trkpt>
      <trkpt lat="47.46543" lon="6.68185">
        <ele>295.2</ele>
        <time>2015-06-08T12:51:48Z</time>
      </trkpt>
      <trkpt lat="47.4654" lon="6.68183">
        <ele>294.6</ele>
        <time>2015-06-08T12:51:49Z</time>
      </trkpt>
      <trkpt lat="47.46537" lon="6.68181">
        <ele>294.1</ele>
        <time>2015-06-08T12:51:50Z</time>
      </trkpt>
      <trkpt lat="47.46534" lon="6.68181">
        <ele>294.2</ele>
        <time>2015-06-08T12:51:51Z</time>
      </trkpt>
      <trkpt lat="47.46531" lon="6.68179">
        <ele>293.8</ele>
        <time>2015-06-08T12:51:52Z</time>
      </trkpt>
      <trkpt lat="47.46529" lon="6.68177">
        <ele>293.5</ele>
        <time>2015-06-08T12:51:53Z</time>
      </trkpt>
      <trkpt lat="47.46526" lon="6.68176">
        <ele>293</ele>
        <time>2015-06-08T12:51:54Z</time>
      </trkpt>
      <trkpt lat="47.46524" lon="6.68176">
        <ele>292.8</ele>
        <time>2015-06-08T12:51:55Z</time>
      </trkpt>
      <trkpt lat="47.46522" lon="6.68175">
        <ele>292.4</ele>
        <time>2015-06-08T12:51:56Z</time>
      </trkpt>
      <trkpt lat="47.46521" lon="6.68176">
        <ele>292.2</ele>
        <time>2015-06-08T12:51:58Z</time>
      </trkpt>
      <trkpt lat="47.4652" lon="6.68177">
        <ele>291.6</ele>
        <time>2015-06-08T12:52:00Z</time>
      </trkpt>
      <trkpt lat="47.4652" lon="6.68175">
        <ele>291.1</ele>
        <time>2015-06-08T12:52:09Z</time>
      </trkpt>
      <trkpt lat="47.46521" lon="6.68177">
        <ele>291.2</ele>
        <time>2015-06-08T12:52:24Z</time>
      </trkpt>
      <trkpt lat="47.46518" lon="6.68175">
        <ele>291.2</ele>
        <time>2015-06-08T12:53:14Z</time>
      </trkpt>
      <trkpt lat="47.4651" lon="6.68175">
        <ele>291.1</ele>
        <time>2015-06-08T12:53:15Z</time>
      </trkpt>
      <trkpt lat="47.46502" lon="6.68175">
        <ele>291</ele>
        <time>2015-06-08T12:53:16Z</time>
      </trkpt>
      <trkpt lat="47.46495" lon="6.68175">
        <ele>291.1</ele>
        <time>2015-06-08T12:53:17Z</time>
      </trkpt>
      <trkpt lat="47.46488" lon="6.68174">
        <ele>291.1</ele>
        <time>2015-06-08T12:53:18Z</time>
      </trkpt>
      <trkpt lat="47.4648" lon="6.68172">
        <ele>291.3</ele>
        <time>2015-06-08T12:53:19Z</time>
      </trkpt>
      <trkpt lat="47.46473" lon="6.68169">
        <ele>291.5</ele>
        <time>2015-06-08T12:53:20Z</time>
      </trkpt>
      <trkpt lat="47.46465" lon="6.68167">
        <ele>291.6</ele>
        <time>2015-06-08T12:53:21Z</time>
      </trkpt>
      <trkpt lat="47.46458" lon="6.68166">
        <ele>291.6</ele>
        <time>2015-06-08T12:53:22Z</time>
      </trkpt>
      <trkpt lat="47.46451" lon="6.68164">
        <ele>291.5</ele>
        <time>2015-06-08T12:53:23Z</time>
      </trkpt>
      <trkpt lat="47.46443" lon="6.68162">
        <ele>291.5</ele>
        <time>2015-06-08T12:53:24Z</time>
      </trkpt>
      <trkpt lat="47.46436" lon="6.68159">
        <ele>291.3</ele>
        <time>2015-06-08T12:53:25Z</time>
      </trkpt>
      <trkpt lat="47.46428" lon="6.68157">
        <ele>291.1</ele>
        <time>2015-06-08T12:53:26Z</time>
      </trkpt>
      <trkpt lat="47.4642" lon="6.68154">
        <ele>290.8</ele>
        <time>2015-06-08T12:53:27Z</time>
      </trkpt>
      <trkpt lat="47.46412" lon="6.68151">
        <ele>290.5</ele>
        <time>2015-06-08T12:53:28Z</time>
      </trkpt>
      <trkpt lat="47.46404" lon="6.68149">
        <ele>290.3</ele>
        <time>2015-06-08T12:53:29Z</time>
      </trkpt>
      <trkpt lat="47.46396" lon="6.68147">
        <ele>290.1</ele>
        <time>2015-06-08T12:53:30Z</time>
      </trkpt>
      <trkpt lat="47.46388" lon="6.68146">
        <ele>290</ele>
        <time>2015-06-08T12:53:31Z</time>
      </trkpt>
      <trkpt lat="47.46379" lon="6.68146">
        <ele>289.8</ele>
        <time>2015-06-08T12:53:32Z</time>
      </trkpt>
      <trkpt lat="47.46369" lon="6.68148">
        <ele>289.8</ele>
        <time>2015-06-08T12:53:33Z</time>
      </trkpt>
      <trkpt lat="47.46359" lon="6.68152">
        <ele>289.7</ele>
        <time>2015-06-08T12:53:34Z</time>
      </trkpt>
      <trkpt lat="47.46349" lon="6.68157">
        <ele>289.6</ele>
        <time>2015-06-08T12:53:35Z</time>
      </trkpt>
      <trkpt lat="47.4634" lon="6.68162">
        <ele>289.5</ele>
        <time>2015-06-08T12:53:36Z</time>
      </trkpt>
      <trkpt lat="47.4633" lon="6.68168">
        <ele>289.3</ele>
        <time>2015-06-08T12:53:37Z</time>
      </trkpt>
      <trkpt lat="47.4632" lon="6.68174">
        <ele>289.2</ele>
        <time>2015-06-08T12:53:38Z</time>
      </trkpt>
      <trkpt lat="47.4631" lon="6.68179">
        <ele>289</ele>
        <time>2015-06-08T12:53:39Z</time>
      </trkpt>
      <trkpt lat="47.46301" lon="6.68183">
        <ele>288.9</ele>
        <time>2015-06-08T12:53:40Z</time>
      </trkpt>
      <trkpt lat="47.46291" lon="6.68186">
        <ele>288.7</ele>
        <time>2015-06-08T12:53:41Z</time>
      </trkpt>
      <trkpt lat="47.46281" lon="6.68188">
        <ele>288.7</ele>
        <time>2015-06-08T12:53:42Z</time>
      </trkpt>
      <trkpt lat="47.46272" lon="6.68188">
        <ele>288.7</ele>
        <time>2015-06-08T12:53:43Z</time>
      </trkpt>
      <trkpt lat="47.46262" lon="6.68188">
        <ele>288.7</ele>
        <time>2015-06-08T12:53:44Z</time>
      </trkpt>
      <trkpt lat="47.46253" lon="6.68187">
        <ele>288.6</ele>
        <time>2015-06-08T12:53:45Z</time>
      </trkpt>
      <trkpt lat="47.46245" lon="6.68186">
        <ele>288.3</ele>
        <time>2015-06-08T12:53:46Z</time>
      </trkpt>
      <trkpt lat="47.46236" lon="6.68184">
        <ele>288.1</ele>
        <time>2015-06-08T12:53:47Z</time>
      </trkpt>
      <trkpt lat="47.46228" lon="6.68182">
        <ele>288</ele>
        <time>2015-06-08T12:53:48Z</time>
      </trkpt>
      <trkpt lat="47.4622" lon="6.68181">
        <ele>287.8</ele>
        <time>2015-06-08T12:53:49Z</time>
      </trkpt>
      <trkpt lat="47.46212" lon="6.6818">
        <ele>287.7</ele>
        <time>2015-06-08T12:53:50Z</time>
      </trkpt>
      <trkpt lat="47.46206" lon="6.68179">
        <ele>287.5</ele>
        <time>2015-06-08T12:53:51Z</time>
      </trkpt>
      <trkpt lat="47.46199" lon="6.68179">
        <ele>287.4</ele>
        <time>2015-06-08T12:53:52Z</time>
      </trkpt>
      <trkpt lat="47.46191" lon="6.68178">
        <ele>287.4</ele>
        <time>2015-06-08T12:53:53Z</time>
      </trkpt>
      <trkpt lat="47.46184" lon="6.68178">
        <ele>287.7</ele>
        <time>2015-06-08T12:53:54Z</time>
      </trkpt>
      <trkpt lat="47.46176" lon="6.68178">
        <ele>288.5</ele>
        <time>2015-06-08T12:53:55Z</time>
      </trkpt>
      <trkpt lat="47.46169" lon="6.68177">
        <ele>289.4</ele>
        <time>2015-06-08T12:53:56Z</time>
      </trkpt>
      <trkpt lat="47.46162" lon="6.68176">
        <ele>289.7</ele>
        <time>2015-06-08T12:53:57Z</time>
      </trkpt>
      <trkpt lat="47.46155" lon="6.68175">
        <ele>290.9</ele>
        <time>2015-06-08T12:53:58Z</time>
      </trkpt>
      <trkpt lat="47.46148" lon="6.68175">
        <ele>291.9</ele>
        <time>2015-06-08T12:53:59Z</time>
      </trkpt>
      <trkpt lat="47.46141" lon="6.68175">
        <ele>292.9</ele>
        <time>2015-06-08T12:54:00Z</time>
      </trkpt>
      <trkpt lat="47.46135" lon="6.68175">
        <ele>294</ele>
        <time>2015-06-08T12:54:01Z</time>
      </trkpt>
      <trkpt lat="47.46128" lon="6.68176">
        <ele>294.6</ele>
        <time>2015-06-08T12:54:02Z</time>
      </trkpt>
      <trkpt lat="47.46121" lon="6.68177">
        <ele>295.1</ele>
        <time>2015-06-08T12:54:03Z</time>
      </trkpt>
      <trkpt lat="47.46115" lon="6.68178">
        <ele>295.9</ele>
        <time>2015-06-08T12:54:04Z</time>
      </trkpt>
      <trkpt lat="47.46108" lon="6.68179">
        <ele>296.6</ele>
        <time>2015-06-08T12:54:05Z</time>
      </trkpt>
      <trkpt lat="47.46102" lon="6.6818">
        <ele>296.9</ele>
        <time>2015-06-08T12:54:06Z</time>
      </trkpt>
      <trkpt lat="47.46095" lon="6.68181">
        <ele>297.2</ele>
        <time>2015-06-08T12:54:07Z</time>
      </trkpt>
      <trkpt lat="47.4609" lon="6.68183">
        <ele>297.6</ele>
        <time>2015-06-08T12:54:08Z</time>
      </trkpt>
      <trkpt lat="47.46084" lon="6.68184">
        <ele>297.8</ele>
        <time>2015-06-08T12:54:09Z</time>
      </trkpt>
      <trkpt lat="47.46077" lon="6.68186">
        <ele>297.9</ele>
        <time>2015-06-08T12:54:10Z</time>
      </trkpt>
      <trkpt lat="47.46072" lon="6.68188">
        <ele>297.9</ele>
        <time>2015-06-08T12:54:11Z</time>
      </trkpt>
      <trkpt lat="47.46066" lon="6.68189">
        <ele>298</ele>
        <time>2015-06-08T12:54:12Z</time>
      </trkpt>
      <trkpt lat="47.46061" lon="6.68191">
        <ele>298.3</ele>
        <time>2015-06-08T12:54:13Z</time>
      </trkpt>
      <trkpt lat="47.46055" lon="6.68192">
        <ele>298.4</ele>
        <time>2015-06-08T12:54:14Z</time>
      </trkpt>
      <trkpt lat="47.46049" lon="6.68193">
        <ele>298.6</ele>
        <time>2015-06-08T12:54:15Z</time>
      </trkpt>
      <trkpt lat="47.46044" lon="6.68194">
        <ele>298.7</ele>
        <time>2015-06-08T12:54:16Z</time>
      </trkpt>
      <trkpt lat="47.46038" lon="6.68195">
        <ele>298.7</ele>
        <time>2015-06-08T12:54:17Z</time>
      </trkpt>
      <trkpt lat="47.46032" lon="6.68194">
        <ele>298.6</ele>
        <time>2015-06-08T12:54:18Z</time>
      </trkpt>
      <trkpt lat="47.46026" lon="6.68194">
        <ele>298.3</ele>
        <time>2015-06-08T12:54:19Z</time>
      </trkpt>
      <trkpt lat="47.4602" lon="6.68195">
        <ele>298.1</ele>
        <time>2015-06-08T12:54:20Z</time>
      </trkpt>
      <trkpt lat="47.46014" lon="6.68196">
        <ele>297.9</ele>
        <time>2015-06-08T12:54:21Z</time>
      </trkpt>
      <trkpt lat="47.46007" lon="6.68197">
        <ele>297.6</ele>
        <time>2015-06-08T12:54:22Z</time>
      </trkpt>
      <trkpt lat="47.46" lon="6.68198">
        <ele>297.3</ele>
        <time>2015-06-08T12:54:23Z</time>
      </trkpt>
      <trkpt lat="47.45994" lon="6.68198">
        <ele>297.1</ele>
        <time>2015-06-08T12:54:24Z</time>
      </trkpt>
      <trkpt lat="47.45987" lon="6.68199">
        <ele>297</ele>
        <time>2015-06-08T12:54:25Z</time>
      </trkpt>
      <trkpt lat="47.45982" lon="6.682">
        <ele>296.8</ele>
        <time>2015-06-08T12:54:26Z</time>
      </trkpt>
      <trkpt lat="47.45976" lon="6.68201">
        <ele>296.7</ele>
        <time>2015-06-08T12:54:27Z</time>
      </trkpt>
      <trkpt lat="47.45969" lon="6.68202">
        <ele>296.6</ele>
        <time>2015-06-08T12:54:28Z</time>
      </trkpt>
      <trkpt lat="47.45963" lon="6.68203">
        <ele>296.7</ele>
        <time>2015-06-08T12:54:29Z</time>
      </trkpt>
      <trkpt lat="47.45956" lon="6.68205">
        <ele>296.5</ele>
        <time>2015-06-08T12:54:30Z</time>
      </trkpt>
      <trkpt lat="47.45949" lon="6.68206">
        <ele>296.3</ele>
        <time>2015-06-08T12:54:31Z</time>
      </trkpt>
      <trkpt lat="47.45942" lon="6.68207">
        <ele>296.4</ele>
        <time>2015-06-08T12:54:32Z</time>
      </trkpt>
      <trkpt lat="47.45936" lon="6.68209">
        <ele>296.3</ele>
        <time>2015-06-08T12:54:33Z</time>
      </trkpt>
      <trkpt lat="47.45929" lon="6.68211">
        <ele>296.3</ele>
        <time>2015-06-08T12:54:34Z</time>
      </trkpt>
      <trkpt lat="47.45923" lon="6.68213">
        <ele>296.3</ele>
        <time>2015-06-08T12:54:35Z</time>
      </trkpt>
      <trkpt lat="47.45917" lon="6.68214">
        <ele>296.2</ele>
        <time>2015-06-08T12:54:36Z</time>
      </trkpt>
      <trkpt lat="47.45912" lon="6.68216">
        <ele>296.1</ele>
        <time>2015-06-08T12:54:37Z</time>
      </trkpt>
      <trkpt lat="47.45906" lon="6.68218">
        <ele>296.1</ele>
        <time>2015-06-08T12:54:38Z</time>
      </trkpt>
      <trkpt lat="47.45899" lon="6.6822">
        <ele>296.2</ele>
        <time>2015-06-08T12:54:39Z</time>
      </trkpt>
      <trkpt lat="47.45893" lon="6.68223">
        <ele>296.1</ele>
        <time>2015-06-08T12:54:40Z</time>
      </trkpt>
      <trkpt lat="47.45887" lon="6.68225">
        <ele>296.1</ele>
        <time>2015-06-08T12:54:41Z</time>
      </trkpt>
      <trkpt lat="47.45881" lon="6.68227">
        <ele>296.3</ele>
        <time>2015-06-08T12:54:42Z</time>
      </trkpt>
      <trkpt lat="47.45875" lon="6.68228">
        <ele>296.4</ele>
        <time>2015-06-08T12:54:43Z</time>
      </trkpt>
      <trkpt lat="47.45869" lon="6.6823">
        <ele>296.5</ele>
        <time>2015-06-08T12:54:44Z</time>
      </trkpt>
      <trkpt lat="47.45863" lon="6.68232">
        <ele>296.4</ele>
        <time>2015-06-08T12:54:45Z</time>
      </trkpt>
      <trkpt lat="47.45857" lon="6.68233">
        <ele>296.3</ele>
        <time>2015-06-08T12:54:46Z</time>
      </trkpt>
      <trkpt lat="47.45851" lon="6.68235">
        <ele>296.1</ele>
        <time>2015-06-08T12:54:47Z</time>
      </trkpt>
      <trkpt lat="47.45845" lon="6.68236">
        <ele>295.9</ele>
        <time>2015-06-08T12:54:48Z</time>
      </trkpt>
      <trkpt lat="47.4584" lon="6.68239">
        <ele>295.7</ele>
        <time>2015-06-08T12:54:49Z</time>
      </trkpt>
      <trkpt lat="47.45834" lon="6.68241">
        <ele>295.5</ele>
        <time>2015-06-08T12:54:50Z</time>
      </trkpt>
      <trkpt lat="47.45828" lon="6.68242">
        <ele>295.2</ele>
        <time>2015-06-08T12:54:51Z</time>
      </trkpt>
      <trkpt lat="47.45823" lon="6.68243">
        <ele>295</ele>
        <time>2015-06-08T12:54:52Z</time>
      </trkpt>
      <trkpt lat="47.45818" lon="6.68245">
        <ele>294.6</ele>
        <time>2015-06-08T12:54:53Z</time>
      </trkpt>
      <trkpt lat="47.45813" lon="6.68246">
        <ele>294.3</ele>
        <time>2015-06-08T12:54:54Z</time>
      </trkpt>
      <trkpt lat="47.45809" lon="6.68246">
        <ele>294.1</ele>
        <time>2015-06-08T12:54:55Z</time>
      </trkpt>
      <trkpt lat="47.45805" lon="6.68246">
        <ele>293.8</ele>
        <time>2015-06-08T12:54:56Z</time>
      </trkpt>
      <trkpt lat="47.458" lon="6.68247">
        <ele>293.5</ele>
        <time>2015-06-08T12:54:57Z</time>
      </trkpt>
      <trkpt lat="47.45795" lon="6.68247">
        <ele>293.2</ele>
        <time>2015-06-08T12:54:58Z</time>
      </trkpt>
      <trkpt lat="47.4579" lon="6.68247">
        <ele>293</ele>
        <time>2015-06-08T12:54:59Z</time>
      </trkpt>
      <trkpt lat="47.45786" lon="6.68247">
        <ele>292.6</ele>
        <time>2015-06-08T12:55:00Z</time>
      </trkpt>
      <trkpt lat="47.45781" lon="6.68247">
        <ele>292.1</ele>
        <time>2015-06-08T12:55:01Z</time>
      </trkpt>
      <trkpt lat="47.45776" lon="6.68247">
        <ele>291.7</ele>
        <time>2015-06-08T12:55:02Z</time>
      </trkpt>
      <trkpt lat="47.45771" lon="6.68246">
        <ele>291.3</ele>
        <time>2015-06-08T12:55:03Z</time>
      </trkpt>
      <trkpt lat="47.45766" lon="6.68245">
        <ele>290.9</ele>
        <time>2015-06-08T12:55:04Z</time>
      </trkpt>
      <trkpt lat="47.45761" lon="6.68244">
        <ele>290.5</ele>
        <time>2015-06-08T12:55:05Z</time>
      </trkpt>
      <trkpt lat="47.45756" lon="6.68244">
        <ele>290.2</ele>
        <time>2015-06-08T12:55:06Z</time>
      </trkpt>
      <trkpt lat="47.45752" lon="6.68242">
        <ele>289.8</ele>
        <time>2015-06-08T12:55:07Z</time>
      </trkpt>
      <trkpt lat="47.45747" lon="6.6824">
        <ele>289.3</ele>
        <time>2015-06-08T12:55:08Z</time>
      </trkpt>
      <trkpt lat="47.45743" lon="6.68238">
        <ele>288.8</ele>
        <time>2015-06-08T12:55:09Z</time>
      </trkpt>
      <trkpt lat="47.45738" lon="6.68235">
        <ele>288.1</ele>
        <time>2015-06-08T12:55:10Z</time>
      </trkpt>
      <trkpt lat="47.45734" lon="6.68232">
        <ele>287.4</ele>
        <time>2015-06-08T12:55:11Z</time>
      </trkpt>
      <trkpt lat="47.45729" lon="6.68229">
        <ele>287</ele>
        <time>2015-06-08T12:55:12Z</time>
      </trkpt>
      <trkpt lat="47.45725" lon="6.68227">
        <ele>286.5</ele>
        <time>2015-06-08T12:55:13Z</time>
      </trkpt>
      <trkpt lat="47.4572" lon="6.68224">
        <ele>286.1</ele>
        <time>2015-06-08T12:55:14Z</time>
      </trkpt>
      <trkpt lat="47.45715" lon="6.68221">
        <ele>285.6</ele>
        <time>2015-06-08T12:55:15Z</time>
      </trkpt>
      <trkpt lat="47.45711" lon="6.68218">
        <ele>285.1</ele>
        <time>2015-06-08T12:55:16Z</time>
      </trkpt>
      <trkpt lat="47.45706" lon="6.68214">
        <ele>284.6</ele>
        <time>2015-06-08T12:55:17Z</time>
      </trkpt>
      <trkpt lat="47.45701" lon="6.6821">
        <ele>284</ele>
        <time>2015-06-08T12:55:18Z</time>
      </trkpt>
      <trkpt lat="47.45696" lon="6.68207">
        <ele>285.9</ele>
        <time>2015-06-08T12:55:19Z</time>
      </trkpt>
      <trkpt lat="47.4569" lon="6.68204">
        <ele>287.6</ele>
        <time>2015-06-08T12:55:20Z</time>
      </trkpt>
      <trkpt lat="47.45685" lon="6.68201">
        <ele>288.9</ele>
        <time>2015-06-08T12:55:21Z</time>
      </trkpt>
      <trkpt lat="47.45679" lon="6.68197">
        <ele>289.6</ele>
        <time>2015-06-08T12:55:22Z</time>
      </trkpt>
      <trkpt lat="47.45675" lon="6.68194">
        <ele>289.7</ele>
        <time>2015-06-08T12:55:23Z</time>
      </trkpt>
      <trkpt lat="47.4567" lon="6.68188">
        <ele>289.8</ele>
        <time>2015-06-08T12:55:24Z</time>
      </trkpt>
      <trkpt lat="47.45665" lon="6.68184">
        <ele>289.6</ele>
        <time>2015-06-08T12:55:25Z</time>
      </trkpt>
      <trkpt lat="47.4566" lon="6.6818">
        <ele>289.8</ele>
        <time>2015-06-08T12:55:26Z</time>
      </trkpt>
      <trkpt lat="47.45656" lon="6.68176">
        <ele>289.8</ele>
        <time>2015-06-08T12:55:27Z</time>
      </trkpt>
      <trkpt lat="47.45652" lon="6.68173">
        <ele>289.8</ele>
        <time>2015-06-08T12:55:28Z</time>
      </trkpt>
      <trkpt lat="47.45648" lon="6.68169">
        <ele>289.9</ele>
        <time>2015-06-08T12:55:29Z</time>
      </trkpt>
      <trkpt lat="47.45644" lon="6.68165">
        <ele>290</ele>
        <time>2015-06-08T12:55:30Z</time>
      </trkpt>
      <trkpt lat="47.45639" lon="6.68161">
        <ele>290</ele>
        <time>2015-06-08T12:55:31Z</time>
      </trkpt>
      <trkpt lat="47.45635" lon="6.68157">
        <ele>290.1</ele>
        <time>2015-06-08T12:55:32Z</time>
      </trkpt>
      <trkpt lat="47.45631" lon="6.68154">
        <ele>290</ele>
        <time>2015-06-08T12:55:33Z</time>
      </trkpt>
      <trkpt lat="47.45627" lon="6.6815">
        <ele>290</ele>
        <time>2015-06-08T12:55:34Z</time>
      </trkpt>
      <trkpt lat="47.45623" lon="6.68147">
        <ele>290</ele>
        <time>2015-06-08T12:55:35Z</time>
      </trkpt>
      <trkpt lat="47.45618" lon="6.68143">
        <ele>290.3</ele>
        <time>2015-06-08T12:55:36Z</time>
      </trkpt>
      <trkpt lat="47.45614" lon="6.68139">
        <ele>290.1</ele>
        <time>2015-06-08T12:55:37Z</time>
      </trkpt>
      <trkpt lat="47.4561" lon="6.68135">
        <ele>289.9</ele>
        <time>2015-06-08T12:55:38Z</time>
      </trkpt>
      <trkpt lat="47.45606" lon="6.68132">
        <ele>289.8</ele>
        <time>2015-06-08T12:55:39Z</time>
      </trkpt>
      <trkpt lat="47.45602" lon="6.68129">
        <ele>289.6</ele>
        <time>2015-06-08T12:55:40Z</time>
      </trkpt>
      <trkpt lat="47.45597" lon="6.68127">
        <ele>289.7</ele>
        <time>2015-06-08T12:55:41Z</time>
      </trkpt>
      <trkpt lat="47.45593" lon="6.68124">
        <ele>289.4</ele>
        <time>2015-06-08T12:55:42Z</time>
      </trkpt>
      <trkpt lat="47.45589" lon="6.68121">
        <ele>288.8</ele>
        <time>2015-06-08T12:55:43Z</time>
      </trkpt>
      <trkpt lat="47.45584" lon="6.68117">
        <ele>288.7</ele>
        <time>2015-06-08T12:55:44Z</time>
      </trkpt>
      <trkpt lat="47.4558" lon="6.68113">
        <ele>288.4</ele>
        <time>2015-06-08T12:55:45Z</time>
      </trkpt>
      <trkpt lat="47.45577" lon="6.68108">
        <ele>288.8</ele>
        <time>2015-06-08T12:55:46Z</time>
      </trkpt>
      <trkpt lat="47.45573" lon="6.68103">
        <ele>289.4</ele>
        <time>2015-06-08T12:55:47Z</time>
      </trkpt>
      <trkpt lat="47.4557" lon="6.68098">
        <ele>289.7</ele>
        <time>2015-06-08T12:55:48Z</time>
      </trkpt>
      <trkpt lat="47.45567" lon="6.68093">
        <ele>289.9</ele>
        <time>2015-06-08T12:55:49Z</time>
      </trkpt>
      <trkpt lat="47.45565" lon="6.68088">
        <ele>290.1</ele>
        <time>2015-06-08T12:55:50Z</time>
      </trkpt>
      <trkpt lat="47.45562" lon="6.68082">
        <ele>290</ele>
        <time>2015-06-08T12:55:51Z</time>
      </trkpt>
      <trkpt lat="47.4556" lon="6.68076">
        <ele>290.3</ele>
        <time>2015-06-08T12:55:52Z</time>
      </trkpt>
      <trkpt lat="47.45558" lon="6.6807">
        <ele>290.2</ele>
        <time>2015-06-08T12:55:53Z</time>
      </trkpt>
      <trkpt lat="47.45555" lon="6.68064">
        <ele>290.1</ele>
        <time>2015-06-08T12:55:54Z</time>
      </trkpt>
      <trkpt lat="47.45552" lon="6.68058">
        <ele>290.2</ele>
        <time>2015-06-08T12:55:55Z</time>
      </trkpt>
      <trkpt lat="47.45549" lon="6.68053">
        <ele>290.3</ele>
        <time>2015-06-08T12:55:56Z</time>
      </trkpt>
      <trkpt lat="47.45542" lon="6.68051">
        <ele>291.8</ele>
        <time>2015-06-08T12:55:57Z</time>
      </trkpt>
      <trkpt lat="47.45536" lon="6.68054">
        <ele>293.4</ele>
        <time>2015-06-08T12:55:58Z</time>
      </trkpt>
      <trkpt lat="47.45531" lon="6.68059">
        <ele>294.8</ele>
        <time>2015-06-08T12:55:59Z</time>
      </trkpt>
      <trkpt lat="47.45527" lon="6.68067">
        <ele>295.2</ele>
        <time>2015-06-08T12:56:00Z</time>
      </trkpt>
      <trkpt lat="47.45525" lon="6.68075">
        <ele>295.7</ele>
        <time>2015-06-08T12:56:01Z</time>
      </trkpt>
      <trkpt lat="47.45524" lon="6.68083">
        <ele>296.6</ele>
        <time>2015-06-08T12:56:02Z</time>
      </trkpt>
      <trkpt lat="47.45524" lon="6.68091">
        <ele>298</ele>
        <time>2015-06-08T12:56:03Z</time>
      </trkpt>
      <trkpt lat="47.45524" lon="6.68098">
        <ele>298.9</ele>
        <time>2015-06-08T12:56:04Z</time>
      </trkpt>
      <trkpt lat="47.45522" lon="6.68105">
        <ele>299.5</ele>
        <time>2015-06-08T12:56:05Z</time>
      </trkpt>
      <trkpt lat="47.45521" lon="6.68111">
        <ele>299.9</ele>
        <time>2015-06-08T12:56:06Z</time>
      </trkpt>
      <trkpt lat="47.45519" lon="6.68117">
        <ele>300.1</ele>
        <time>2015-06-08T12:56:07Z</time>
      </trkpt>
      <trkpt lat="47.45518" lon="6.68124">
        <ele>300.3</ele>
        <time>2015-06-08T12:56:08Z</time>
      </trkpt>
      <trkpt lat="47.45516" lon="6.6813">
        <ele>300.7</ele>
        <time>2015-06-08T12:56:09Z</time>
      </trkpt>
      <trkpt lat="47.45513" lon="6.68135">
        <ele>301.5</ele>
        <time>2015-06-08T12:56:10Z</time>
      </trkpt>
      <trkpt lat="47.4551" lon="6.68141">
        <ele>302.2</ele>
        <time>2015-06-08T12:56:11Z</time>
      </trkpt>
      <trkpt lat="47.45507" lon="6.68146">
        <ele>302.7</ele>
        <time>2015-06-08T12:56:12Z</time>
      </trkpt>
      <trkpt lat="47.45503" lon="6.68152">
        <ele>303.4</ele>
        <time>2015-06-08T12:56:13Z</time>
      </trkpt>
      <trkpt lat="47.455" lon="6.68157">
        <ele>304.1</ele>
        <time>2015-06-08T12:56:14Z</time>
      </trkpt>
      <trkpt lat="47.45496" lon="6.68163">
        <ele>304.8</ele>
        <time>2015-06-08T12:56:15Z</time>
      </trkpt>
      <trkpt lat="47.45493" lon="6.68167">
        <ele>305.1</ele>
        <time>2015-06-08T12:56:16Z</time>
      </trkpt>
      <trkpt lat="47.45489" lon="6.68172">
        <ele>305.8</ele>
        <time>2015-06-08T12:56:17Z</time>
      </trkpt>
      <trkpt lat="47.45485" lon="6.68176">
        <ele>306.5</ele>
        <time>2015-06-08T12:56:18Z</time>
      </trkpt>
      <trkpt lat="47.45481" lon="6.6818">
        <ele>306.8</ele>
        <time>2015-06-08T12:56:19Z</time>
      </trkpt>
      <trkpt lat="47.45477" lon="6.68183">
        <ele>307</ele>
        <time>2015-06-08T12:56:20Z</time>
      </trkpt>
      <trkpt lat="47.45473" lon="6.68187">
        <ele>307.2</ele>
        <time>2015-06-08T12:56:21Z</time>
      </trkpt>
      <trkpt lat="47.45469" lon="6.68191">
        <ele>307.6</ele>
        <time>2015-06-08T12:56:22Z</time>
      </trkpt>
      <trkpt lat="47.45465" lon="6.68195">
        <ele>307.8</ele>
        <time>2015-06-08T12:56:23Z</time>
      </trkpt>
      <trkpt lat="47.45461" lon="6.68199">
        <ele>308.4</ele>
        <time>2015-06-08T12:56:24Z</time>
      </trkpt>
      <trkpt lat="47.45457" lon="6.68203">
        <ele>308.6</ele>
        <time>2015-06-08T12:56:25Z</time>
      </trkpt>
      <trkpt lat="47.45452" lon="6.68207">
        <ele>308.8</ele>
        <time>2015-06-08T12:56:26Z</time>
      </trkpt>
      <trkpt lat="47.45448" lon="6.68211">
        <ele>309</ele>
        <time>2015-06-08T12:56:27Z</time>
      </trkpt>
      <trkpt lat="47.45444" lon="6.68215">
        <ele>309.2</ele>
        <time>2015-06-08T12:56:28Z</time>
      </trkpt>
      <trkpt lat="47.4544" lon="6.68219">
        <ele>309.3</ele>
        <time>2015-06-08T12:56:29Z</time>
      </trkpt>
      <trkpt lat="47.45437" lon="6.68222">
        <ele>309.5</ele>
        <time>2015-06-08T12:56:30Z</time>
      </trkpt>
      <trkpt lat="47.45433" lon="6.68226">
        <ele>309.9</ele>
        <time>2015-06-08T12:56:31Z</time>
      </trkpt>
      <trkpt lat="47.4543" lon="6.68229">
        <ele>310.5</ele>
        <time>2015-06-08T12:56:32Z</time>
      </trkpt>
      <trkpt lat="47.45426" lon="6.68232">
        <ele>310.8</ele>
        <time>2015-06-08T12:56:33Z</time>
      </trkpt>
      <trkpt lat="47.45422" lon="6.68236">
        <ele>310.9</ele>
        <time>2015-06-08T12:56:34Z</time>
      </trkpt>
      <trkpt lat="47.45418" lon="6.68239">
        <ele>310.9</ele>
        <time>2015-06-08T12:56:35Z</time>
      </trkpt>
      <trkpt lat="47.45414" lon="6.68242">
        <ele>311.1</ele>
        <time>2015-06-08T12:56:36Z</time>
      </trkpt>
      <trkpt lat="47.4541" lon="6.68246">
        <ele>311</ele>
        <time>2015-06-08T12:56:37Z</time>
      </trkpt>
      <trkpt lat="47.45406" lon="6.6825">
        <ele>311.3</ele>
        <time>2015-06-08T12:56:38Z</time>
      </trkpt>
      <trkpt lat="47.45402" lon="6.68254">
        <ele>311.4</ele>
        <time>2015-06-08T12:56:39Z</time>
      </trkpt>
      <trkpt lat="47.45398" lon="6.68258">
        <ele>311.7</ele>
        <time>2015-06-08T12:56:40Z</time>
      </trkpt>
      <trkpt lat="47.45393" lon="6.68262">
        <ele>311.9</ele>
        <time>2015-06-08T12:56:41Z</time>
      </trkpt>
      <trkpt lat="47.45389" lon="6.68266">
        <ele>311.9</ele>
        <time>2015-06-08T12:56:42Z</time>
      </trkpt>
      <trkpt lat="47.45385" lon="6.68269">
        <ele>311.9</ele>
        <time>2015-06-08T12:56:43Z</time>
      </trkpt>
      <trkpt lat="47.45381" lon="6.68273">
        <ele>311.9</ele>
        <time>2015-06-08T12:56:44Z</time>
      </trkpt>
      <trkpt lat="47.45377" lon="6.68277">
        <ele>311.8</ele>
        <time>2015-06-08T12:56:45Z</time>
      </trkpt>
      <trkpt lat="47.45373" lon="6.6828">
        <ele>311.7</ele>
        <time>2015-06-08T12:56:46Z</time>
      </trkpt>
      <trkpt lat="47.4537" lon="6.68284">
        <ele>311.5</ele>
        <time>2015-06-08T12:56:47Z</time>
      </trkpt>
      <trkpt lat="47.45366" lon="6.68288">
        <ele>311.5</ele>
        <time>2015-06-08T12:56:48Z</time>
      </trkpt>
      <trkpt lat="47.45363" lon="6.68292">
        <ele>311.3</ele>
        <time>2015-06-08T12:56:49Z</time>
      </trkpt>
      <trkpt lat="47.4536" lon="6.68296">
        <ele>311.2</ele>
        <time>2015-06-08T12:56:50Z</time>
      </trkpt>
      <trkpt lat="47.45358" lon="6.68302">
        <ele>311.1</ele>
        <time>2015-06-08T12:56:51Z</time>
      </trkpt>
      <trkpt lat="47.45356" lon="6.68308">
        <ele>311.2</ele>
        <time>2015-06-08T12:56:52Z</time>
      </trkpt>
      <trkpt lat="47.45354" lon="6.68314">
        <ele>311.2</ele>
        <time>2015-06-08T12:56:53Z</time>
      </trkpt>
      <trkpt lat="47.45354" lon="6.68321">
        <ele>311.1</ele>
        <time>2015-06-08T12:56:54Z</time>
      </trkpt>
      <trkpt lat="47.45355" lon="6.68326">
        <ele>309.8</ele>
        <time>2015-06-08T12:56:55Z</time>
      </trkpt>
      <trkpt lat="47.45356" lon="6.68332">
        <ele>308.7</ele>
        <time>2015-06-08T12:56:56Z</time>
      </trkpt>
      <trkpt lat="47.45358" lon="6.68339">
        <ele>308.4</ele>
        <time>2015-06-08T12:56:57Z</time>
      </trkpt>
      <trkpt lat="47.4536" lon="6.68346">
        <ele>308</ele>
        <time>2015-06-08T12:56:58Z</time>
      </trkpt>
      <trkpt lat="47.45363" lon="6.68352">
        <ele>307.5</ele>
        <time>2015-06-08T12:56:59Z</time>
      </trkpt>
      <trkpt lat="47.45365" lon="6.68358">
        <ele>307.1</ele>
        <time>2015-06-08T12:57:00Z</time>
      </trkpt>
      <trkpt lat="47.45368" lon="6.68363">
        <ele>306.6</ele>
        <time>2015-06-08T12:57:01Z</time>
      </trkpt>
      <trkpt lat="47.45372" lon="6.68367">
        <ele>306</ele>
        <time>2015-06-08T12:57:02Z</time>
      </trkpt>
      <trkpt lat="47.45375" lon="6.68372">
        <ele>305.6</ele>
        <time>2015-06-08T12:57:03Z</time>
      </trkpt>
      <trkpt lat="47.45379" lon="6.68377">
        <ele>305.2</ele>
        <time>2015-06-08T12:57:04Z</time>
      </trkpt>
      <trkpt lat="47.45382" lon="6.68382">
        <ele>304.9</ele>
        <time>2015-06-08T12:57:05Z</time>
      </trkpt>
      <trkpt lat="47.45386" lon="6.68386">
        <ele>304.8</ele>
        <time>2015-06-08T12:57:06Z</time>
      </trkpt>
      <trkpt lat="47.4539" lon="6.68391">
        <ele>305</ele>
        <time>2015-06-08T12:57:07Z</time>
      </trkpt>
      <trkpt lat="47.45394" lon="6.68396">
        <ele>304.9</ele>
        <time>2015-06-08T12:57:08Z</time>
      </trkpt>
      <trkpt lat="47.45398" lon="6.684">
        <ele>304.7</ele>
        <time>2015-06-08T12:57:09Z</time>
      </trkpt>
      <trkpt lat="47.45402" lon="6.68405">
        <ele>304.5</ele>
        <time>2015-06-08T12:57:10Z</time>
      </trkpt>
      <trkpt lat="47.45406" lon="6.6841">
        <ele>304.5</ele>
        <time>2015-06-08T12:57:11Z</time>
      </trkpt>
      <trkpt lat="47.4541" lon="6.68415">
        <ele>304.4</ele>
        <time>2015-06-08T12:57:12Z</time>
      </trkpt>
      <trkpt lat="47.45414" lon="6.68419">
        <ele>304.4</ele>
        <time>2015-06-08T12:57:13Z</time>
      </trkpt>
      <trkpt lat="47.45417" lon="6.68424">
        <ele>304.4</ele>
        <time>2015-06-08T12:57:14Z</time>
      </trkpt>
      <trkpt lat="47.45421" lon="6.68429">
        <ele>304.5</ele>
        <time>2015-06-08T12:57:15Z</time>
      </trkpt>
      <trkpt lat="47.45424" lon="6.68433">
        <ele>304.3</ele>
        <time>2015-06-08T12:57:16Z</time>
      </trkpt>
      <trkpt lat="47.45428" lon="6.68438">
        <ele>304.2</ele>
        <time>2015-06-08T12:57:17Z</time>
      </trkpt>
      <trkpt lat="47.45432" lon="6.68444">
        <ele>304.3</ele>
        <time>2015-06-08T12:57:18Z</time>
      </trkpt>
      <trkpt lat="47.45435" lon="6.68449">
        <ele>304.4</ele>
        <time>2015-06-08T12:57:19Z</time>
      </trkpt>
      <trkpt lat="47.45439" lon="6.68455">
        <ele>304.6</ele>
        <time>2015-06-08T12:57:20Z</time>
      </trkpt>
      <trkpt lat="47.45442" lon="6.6846">
        <ele>304.5</ele>
        <time>2015-06-08T12:57:21Z</time>
      </trkpt>
      <trkpt lat="47.45445" lon="6.68466">
        <ele>304.6</ele>
        <time>2015-06-08T12:57:22Z</time>
      </trkpt>
      <trkpt lat="47.45448" lon="6.68472">
        <ele>304.5</ele>
        <time>2015-06-08T12:57:23Z</time>
      </trkpt>
      <trkpt lat="47.45452" lon="6.68476">
        <ele>304.3</ele>
        <time>2015-06-08T12:57:24Z</time>
      </trkpt>
      <trkpt lat="47.45455" lon="6.68482">
        <ele>304.1</ele>
        <time>2015-06-08T12:57:25Z</time>
      </trkpt>
      <trkpt lat="47.45458" lon="6.68487">
        <ele>304</ele>
        <time>2015-06-08T12:57:26Z</time>
      </trkpt>
      <trkpt lat="47.45461" lon="6.68493">
        <ele>304</ele>
        <time>2015-06-08T12:57:27Z</time>
      </trkpt>
      <trkpt lat="47.45465" lon="6.68498">
        <ele>303.9</ele>
        <time>2015-06-08T12:57:28Z</time>
      </trkpt>
      <trkpt lat="47.45468" lon="6.68503">
        <ele>303.8</ele>
        <time>2015-06-08T12:57:29Z</time>
      </trkpt>
      <trkpt lat="47.45472" lon="6.68509">
        <ele>303.9</ele>
        <time>2015-06-08T12:57:30Z</time>
      </trkpt>
      <trkpt lat="47.45475" lon="6.68514">
        <ele>304.1</ele>
        <time>2015-06-08T12:57:31Z</time>
      </trkpt>
      <trkpt lat="47.45479" lon="6.68519">
        <ele>304.2</ele>
        <time>2015-06-08T12:57:32Z</time>
      </trkpt>
      <trkpt lat="47.45482" lon="6.68524">
        <ele>304.1</ele>
        <time>2015-06-08T12:57:33Z</time>
      </trkpt>
      <trkpt lat="47.45485" lon="6.68529">
        <ele>304</ele>
        <time>2015-06-08T12:57:34Z</time>
      </trkpt>
      <trkpt lat="47.45488" lon="6.68534">
        <ele>303.7</ele>
        <time>2015-06-08T12:57:35Z</time>
      </trkpt>
      <trkpt lat="47.45491" lon="6.6854">
        <ele>303.7</ele>
        <time>2015-06-08T12:57:36Z</time>
      </trkpt>
      <trkpt lat="47.45495" lon="6.68545">
        <ele>303.7</ele>
        <time>2015-06-08T12:57:37Z</time>
      </trkpt>
      <trkpt lat="47.45498" lon="6.6855">
        <ele>303.7</ele>
        <time>2015-06-08T12:57:38Z</time>
      </trkpt>
      <trkpt lat="47.45501" lon="6.68555">
        <ele>304</ele>
        <time>2015-06-08T12:57:39Z</time>
      </trkpt>
      <trkpt lat="47.45504" lon="6.68561">
        <ele>304.3</ele>
        <time>2015-06-08T12:57:40Z</time>
      </trkpt>
      <trkpt lat="47.45507" lon="6.68566">
        <ele>304.4</ele>
        <time>2015-06-08T12:57:41Z</time>
      </trkpt>
      <trkpt lat="47.45511" lon="6.68571">
        <ele>304.6</ele>
        <time>2015-06-08T12:57:42Z</time>
      </trkpt>
      <trkpt lat="47.45513" lon="6.68576">
        <ele>304.8</ele>
        <time>2015-06-08T12:57:43Z</time>
      </trkpt>
      <trkpt lat="47.45516" lon="6.6858">
        <ele>304.9</ele>
        <time>2015-06-08T12:57:44Z</time>
      </trkpt>
      <trkpt lat="47.45519" lon="6.68584">
        <ele>304.8</ele>
        <time>2015-06-08T12:57:45Z</time>
      </trkpt>
      <trkpt lat="47.45522" lon="6.68588">
        <ele>304.7</ele>
        <time>2015-06-08T12:57:46Z</time>
      </trkpt>
      <trkpt lat="47.45525" lon="6.68593">
        <ele>304.5</ele>
        <time>2015-06-08T12:57:47Z</time>
      </trkpt>
      <trkpt lat="47.45528" lon="6.68598">
        <ele>304.4</ele>
        <time>2015-06-08T12:57:48Z</time>
      </trkpt>
      <trkpt lat="47.45531" lon="6.68603">
        <ele>304.5</ele>
        <time>2015-06-08T12:57:49Z</time>
      </trkpt>
      <trkpt lat="47.45534" lon="6.68608">
        <ele>304.5</ele>
        <time>2015-06-08T12:57:50Z</time>
      </trkpt>
      <trkpt lat="47.45537" lon="6.68613">
        <ele>304.3</ele>
        <time>2015-06-08T12:57:51Z</time>
      </trkpt>
      <trkpt lat="47.4554" lon="6.68618">
        <ele>304.1</ele>
        <time>2015-06-08T12:57:52Z</time>
      </trkpt>
      <trkpt lat="47.45543" lon="6.68623">
        <ele>304</ele>
        <time>2015-06-08T12:57:53Z</time>
      </trkpt>
      <trkpt lat="47.45545" lon="6.68629">
        <ele>303.7</ele>
        <time>2015-06-08T12:57:54Z</time>
      </trkpt>
      <trkpt lat="47.45548" lon="6.68634">
        <ele>303.1</ele>
        <time>2015-06-08T12:57:55Z</time>
      </trkpt>
      <trkpt lat="47.45551" lon="6.68639">
        <ele>302.7</ele>
        <time>2015-06-08T12:57:56Z</time>
      </trkpt>
      <trkpt lat="47.45553" lon="6.68645">
        <ele>302.7</ele>
        <time>2015-06-08T12:57:57Z</time>
      </trkpt>
      <trkpt lat="47.45557" lon="6.6865">
        <ele>302.9</ele>
        <time>2015-06-08T12:57:58Z</time>
      </trkpt>
      <trkpt lat="47.4556" lon="6.68656">
        <ele>303</ele>
        <time>2015-06-08T12:57:59Z</time>
      </trkpt>
      <trkpt lat="47.45563" lon="6.68662">
        <ele>302.9</ele>
        <time>2015-06-08T12:58:00Z</time>
      </trkpt>
      <trkpt lat="47.45566" lon="6.68667">
        <ele>302.8</ele>
        <time>2015-06-08T12:58:01Z</time>
      </trkpt>
      <trkpt lat="47.45569" lon="6.68673">
        <ele>302.8</ele>
        <time>2015-06-08T12:58:02Z</time>
      </trkpt>
      <trkpt lat="47.45572" lon="6.68678">
        <ele>302.7</ele>
        <time>2015-06-08T12:58:03Z</time>
      </trkpt>
      <trkpt lat="47.45575" lon="6.68683">
        <ele>302.6</ele>
        <time>2015-06-08T12:58:04Z</time>
      </trkpt>
      <trkpt lat="47.45579" lon="6.68688">
        <ele>302.6</ele>
        <time>2015-06-08T12:58:05Z</time>
      </trkpt>
      <trkpt lat="47.45582" lon="6.68693">
        <ele>302.6</ele>
        <time>2015-06-08T12:58:06Z</time>
      </trkpt>
      <trkpt lat="47.45586" lon="6.68697">
        <ele>302.5</ele>
        <time>2015-06-08T12:58:07Z</time>
      </trkpt>
      <trkpt lat="47.45589" lon="6.68701">
        <ele>302.4</ele>
        <time>2015-06-08T12:58:08Z</time>
      </trkpt>
      <trkpt lat="47.45592" lon="6.68706">
        <ele>302.2</ele>
        <time>2015-06-08T12:58:09Z</time>
      </trkpt>
      <trkpt lat="47.45595" lon="6.68711">
        <ele>301.9</ele>
        <time>2015-06-08T12:58:10Z</time>
      </trkpt>
      <trkpt lat="47.45598" lon="6.68715">
        <ele>302</ele>
        <time>2015-06-08T12:58:11Z</time>
      </trkpt>
      <trkpt lat="47.45602" lon="6.6872">
        <ele>301.9</ele>
        <time>2015-06-08T12:58:12Z</time>
      </trkpt>
      <trkpt lat="47.45605" lon="6.68725">
        <ele>301.8</ele>
        <time>2015-06-08T12:58:13Z</time>
      </trkpt>
      <trkpt lat="47.45609" lon="6.68729">
        <ele>302.2</ele>
        <time>2015-06-08T12:58:14Z</time>
      </trkpt>
      <trkpt lat="47.45613" lon="6.68733">
        <ele>302.5</ele>
        <time>2015-06-08T12:58:15Z</time>
      </trkpt>
      <trkpt lat="47.45617" lon="6.68739">
        <ele>303.9</ele>
        <time>2015-06-08T12:58:16Z</time>
      </trkpt>
      <trkpt lat="47.4562" lon="6.68744">
        <ele>304.7</ele>
        <time>2015-06-08T12:58:17Z</time>
      </trkpt>
      <trkpt lat="47.45623" lon="6.68749">
        <ele>305.3</ele>
        <time>2015-06-08T12:58:18Z</time>
      </trkpt>
      <trkpt lat="47.45627" lon="6.68754">
        <ele>305.9</ele>
        <time>2015-06-08T12:58:19Z</time>
      </trkpt>
      <trkpt lat="47.4563" lon="6.68759">
        <ele>306.4</ele>
        <time>2015-06-08T12:58:20Z</time>
      </trkpt>
      <trkpt lat="47.45633" lon="6.68763">
        <ele>306.5</ele>
        <time>2015-06-08T12:58:21Z</time>
      </trkpt>
      <trkpt lat="47.45636" lon="6.68768">
        <ele>306.6</ele>
        <time>2015-06-08T12:58:22Z</time>
      </trkpt>
      <trkpt lat="47.45639" lon="6.68772">
        <ele>306.9</ele>
        <time>2015-06-08T12:58:23Z</time>
      </trkpt>
      <trkpt lat="47.45642" lon="6.68776">
        <ele>307.1</ele>
        <time>2015-06-08T12:58:24Z</time>
      </trkpt>
      <trkpt lat="47.45645" lon="6.68779">
        <ele>307.3</ele>
        <time>2015-06-08T12:58:25Z</time>
      </trkpt>
      <trkpt lat="47.45648" lon="6.68783">
        <ele>307.4</ele>
        <time>2015-06-08T12:58:26Z</time>
      </trkpt>
      <trkpt lat="47.45651" lon="6.68786">
        <ele>307.6</ele>
        <time>2015-06-08T12:58:27Z</time>
      </trkpt>
      <trkpt lat="47.45654" lon="6.68789">
        <ele>307.8</ele>
        <time>2015-06-08T12:58:28Z</time>
      </trkpt>
      <trkpt lat="47.45656" lon="6.68793">
        <ele>307.8</ele>
        <time>2015-06-08T12:58:29Z</time>
      </trkpt>
      <trkpt lat="47.45659" lon="6.68797">
        <ele>307.9</ele>
        <time>2015-06-08T12:58:30Z</time>
      </trkpt>
      <trkpt lat="47.45662" lon="6.68801">
        <ele>308</ele>
        <time>2015-06-08T12:58:31Z</time>
      </trkpt>
      <trkpt lat="47.45665" lon="6.68805">
        <ele>308.2</ele>
        <time>2015-06-08T12:58:32Z</time>
      </trkpt>
      <trkpt lat="47.45668" lon="6.68808">
        <ele>308.5</ele>
        <time>2015-06-08T12:58:33Z</time>
      </trkpt>
      <trkpt lat="47.45671" lon="6.68812">
        <ele>308.7</ele>
        <time>2015-06-08T12:58:34Z</time>
      </trkpt>
      <trkpt lat="47.45675" lon="6.68817">
        <ele>308.9</ele>
        <time>2015-06-08T12:58:35Z</time>
      </trkpt>
      <trkpt lat="47.45678" lon="6.68821">
        <ele>308.9</ele>
        <time>2015-06-08T12:58:36Z</time>
      </trkpt>
      <trkpt lat="47.45682" lon="6.68825">
        <ele>309.1</ele>
        <time>2015-06-08T12:58:37Z</time>
      </trkpt>
      <trkpt lat="47.45685" lon="6.6883">
        <ele>309.3</ele>
        <time>2015-06-08T12:58:38Z</time>
      </trkpt>
      <trkpt lat="47.45689" lon="6.68834">
        <ele>309.7</ele>
        <time>2015-06-08T12:58:39Z</time>
      </trkpt>
      <trkpt lat="47.45692" lon="6.68839">
        <ele>309.7</ele>
        <time>2015-06-08T12:58:40Z</time>
      </trkpt>
      <trkpt lat="47.45695" lon="6.68844">
        <ele>310</ele>
        <time>2015-06-08T12:58:41Z</time>
      </trkpt>
      <trkpt lat="47.45699" lon="6.68848">
        <ele>310</ele>
        <time>2015-06-08T12:58:42Z</time>
      </trkpt>
      <trkpt lat="47.45702" lon="6.68853">
        <ele>310</ele>
        <time>2015-06-08T12:58:43Z</time>
      </trkpt>
      <trkpt lat="47.45706" lon="6.68858">
        <ele>310.1</ele>
        <time>2015-06-08T12:58:44Z</time>
      </trkpt>
      <trkpt lat="47.45709" lon="6.68862">
        <ele>310.3</ele>
        <time>2015-06-08T12:58:45Z</time>
      </trkpt>
      <trkpt lat="47.45713" lon="6.68867">
        <ele>310.3</ele>
        <time>2015-06-08T12:58:46Z</time>
      </trkpt>
      <trkpt lat="47.45716" lon="6.68871">
        <ele>310.5</ele>
        <time>2015-06-08T12:58:47Z</time>
      </trkpt>
      <trkpt lat="47.45719" lon="6.68876">
        <ele>310.3</ele>
        <time>2015-06-08T12:58:48Z</time>
      </trkpt>
      <trkpt lat="47.45722" lon="6.68881">
        <ele>310.2</ele>
        <time>2015-06-08T12:58:49Z</time>
      </trkpt>
      <trkpt lat="47.45725" lon="6.68886">
        <ele>309.9</ele>
        <time>2015-06-08T12:58:50Z</time>
      </trkpt>
      <trkpt lat="47.45728" lon="6.68891">
        <ele>309.6</ele>
        <time>2015-06-08T12:58:51Z</time>
      </trkpt>
      <trkpt lat="47.45731" lon="6.68896">
        <ele>309.5</ele>
        <time>2015-06-08T12:58:52Z</time>
      </trkpt>
      <trkpt lat="47.45733" lon="6.68902">
        <ele>309.4</ele>
        <time>2015-06-08T12:58:53Z</time>
      </trkpt>
      <trkpt lat="47.45736" lon="6.68907">
        <ele>309.6</ele>
        <time>2015-06-08T12:58:54Z</time>
      </trkpt>
      <trkpt lat="47.45739" lon="6.68912">
        <ele>309.6</ele>
        <time>2015-06-08T12:58:55Z</time>
      </trkpt>
      <trkpt lat="47.45742" lon="6.68918">
        <ele>309.4</ele>
        <time>2015-06-08T12:58:56Z</time>
      </trkpt>
      <trkpt lat="47.45744" lon="6.68923">
        <ele>309</ele>
        <time>2015-06-08T12:58:57Z</time>
      </trkpt>
      <trkpt lat="47.45747" lon="6.68929">
        <ele>308.3</ele>
        <time>2015-06-08T12:58:58Z</time>
      </trkpt>
      <trkpt lat="47.4575" lon="6.68934">
        <ele>308</ele>
        <time>2015-06-08T12:58:59Z</time>
      </trkpt>
      <trkpt lat="47.45753" lon="6.6894">
        <ele>307.8</ele>
        <time>2015-06-08T12:59:00Z</time>
      </trkpt>
      <trkpt lat="47.45755" lon="6.68946">
        <ele>307.7</ele>
        <time>2015-06-08T12:59:01Z</time>
      </trkpt>
      <trkpt lat="47.45758" lon="6.68952">
        <ele>307.7</ele>
        <time>2015-06-08T12:59:02Z</time>
      </trkpt>
      <trkpt lat="47.4576" lon="6.68958">
        <ele>307.6</ele>
        <time>2015-06-08T12:59:03Z</time>
      </trkpt>
      <trkpt lat="47.45763" lon="6.68964">
        <ele>307.4</ele>
        <time>2015-06-08T12:59:04Z</time>
      </trkpt>
      <trkpt lat="47.45766" lon="6.6897">
        <ele>307</ele>
        <time>2015-06-08T12:59:05Z</time>
      </trkpt>
      <trkpt lat="47.45768" lon="6.68976">
        <ele>306.7</ele>
        <time>2015-06-08T12:59:06Z</time>
      </trkpt>
      <trkpt lat="47.45771" lon="6.68982">
        <ele>306.4</ele>
        <time>2015-06-08T12:59:07Z</time>
      </trkpt>
      <trkpt lat="47.45773" lon="6.68987">
        <ele>306.2</ele>
        <time>2015-06-08T12:59:08Z</time>
      </trkpt>
      <trkpt lat="47.45776" lon="6.68993">
        <ele>306</ele>
        <time>2015-06-08T12:59:09Z</time>
      </trkpt>
      <trkpt lat="47.45779" lon="6.68999">
        <ele>305.9</ele>
        <time>2015-06-08T12:59:10Z</time>
      </trkpt>
      <trkpt lat="47.45781" lon="6.69005">
        <ele>305.6</ele>
        <time>2015-06-08T12:59:11Z</time>
      </trkpt>
      <trkpt lat="47.45784" lon="6.6901">
        <ele>305.5</ele>
        <time>2015-06-08T12:59:12Z</time>
      </trkpt>
      <trkpt lat="47.45786" lon="6.69015">
        <ele>305.6</ele>
        <time>2015-06-08T12:59:13Z</time>
      </trkpt>
      <trkpt lat="47.45789" lon="6.69021">
        <ele>305.4</ele>
        <time>2015-06-08T12:59:14Z</time>
      </trkpt>
      <trkpt lat="47.45791" lon="6.69026">
        <ele>305.1</ele>
        <time>2015-06-08T12:59:15Z</time>
      </trkpt>
      <trkpt lat="47.45793" lon="6.69032">
        <ele>304.8</ele>
        <time>2015-06-08T12:59:16Z</time>
      </trkpt>
      <trkpt lat="47.45796" lon="6.69037">
        <ele>304.6</ele>
        <time>2015-06-08T12:59:17Z</time>
      </trkpt>
      <trkpt lat="47.45798" lon="6.69043">
        <ele>304.4</ele>
        <time>2015-06-08T12:59:18Z</time>
      </trkpt>
      <trkpt lat="47.458" lon="6.69048">
        <ele>303.9</ele>
        <time>2015-06-08T12:59:19Z</time>
      </trkpt>
      <trkpt lat="47.45802" lon="6.69054">
        <ele>303.5</ele>
        <time>2015-06-08T12:59:20Z</time>
      </trkpt>
      <trkpt lat="47.45804" lon="6.69059">
        <ele>302.9</ele>
        <time>2015-06-08T12:59:21Z</time>
      </trkpt>
      <trkpt lat="47.45806" lon="6.69065">
        <ele>302.2</ele>
        <time>2015-06-08T12:59:22Z</time>
      </trkpt>
      <trkpt lat="47.45808" lon="6.6907">
        <ele>301.9</ele>
        <time>2015-06-08T12:59:23Z</time>
      </trkpt>
      <trkpt lat="47.45811" lon="6.69075">
        <ele>301.8</ele>
        <time>2015-06-08T12:59:24Z</time>
      </trkpt>
      <trkpt lat="47.45813" lon="6.6908">
        <ele>301.6</ele>
        <time>2015-06-08T12:59:25Z</time>
      </trkpt>
      <trkpt lat="47.45816" lon="6.69086">
        <ele>301.2</ele>
        <time>2015-06-08T12:59:26Z</time>
      </trkpt>
      <trkpt lat="47.45818" lon="6.69091">
        <ele>301</ele>
        <time>2015-06-08T12:59:27Z</time>
      </trkpt>
      <trkpt lat="47.45821" lon="6.69096">
        <ele>300.7</ele>
        <time>2015-06-08T12:59:28Z</time>
      </trkpt>
      <trkpt lat="47.45823" lon="6.69102">
        <ele>300.5</ele>
        <time>2015-06-08T12:59:29Z</time>
      </trkpt>
      <trkpt lat="47.45826" lon="6.69108">
        <ele>300.6</ele>
        <time>2015-06-08T12:59:30Z</time>
      </trkpt>
      <trkpt lat="47.45829" lon="6.69113">
        <ele>300.7</ele>
        <time>2015-06-08T12:59:31Z</time>
      </trkpt>
      <trkpt lat="47.45831" lon="6.69118">
        <ele>300.8</ele>
        <time>2015-06-08T12:59:32Z</time>
      </trkpt>
      <trkpt lat="47.45833" lon="6.69123">
        <ele>300.8</ele>
        <time>2015-06-08T12:59:33Z</time>
      </trkpt>
      <trkpt lat="47.45836" lon="6.69128">
        <ele>300.9</ele>
        <time>2015-06-08T12:59:34Z</time>
      </trkpt>
      <trkpt lat="47.45838" lon="6.69133">
        <ele>300.9</ele>
        <time>2015-06-08T12:59:35Z</time>
      </trkpt>
      <trkpt lat="47.45842" lon="6.69138">
        <ele>300.9</ele>
        <time>2015-06-08T12:59:36Z</time>
      </trkpt>
      <trkpt lat="47.45845" lon="6.69142">
        <ele>301</ele>
        <time>2015-06-08T12:59:37Z</time>
      </trkpt>
      <trkpt lat="47.45849" lon="6.69147">
        <ele>301.3</ele>
        <time>2015-06-08T12:59:38Z</time>
      </trkpt>
      <trkpt lat="47.45852" lon="6.69152">
        <ele>301.4</ele>
        <time>2015-06-08T12:59:39Z</time>
      </trkpt>
      <trkpt lat="47.45856" lon="6.69156">
        <ele>301.7</ele>
        <time>2015-06-08T12:59:40Z</time>
      </trkpt>
      <trkpt lat="47.45859" lon="6.69161">
        <ele>301.8</ele>
        <time>2015-06-08T12:59:41Z</time>
      </trkpt>
      <trkpt lat="47.45862" lon="6.69166">
        <ele>301.4</ele>
        <time>2015-06-08T12:59:42Z</time>
      </trkpt>
      <trkpt lat="47.45865" lon="6.69171">
        <ele>301.4</ele>
        <time>2015-06-08T12:59:43Z</time>
      </trkpt>
      <trkpt lat="47.45868" lon="6.69175">
        <ele>301.3</ele>
        <time>2015-06-08T12:59:44Z</time>
      </trkpt>
      <trkpt lat="47.45872" lon="6.6918">
        <ele>301.1</ele>
        <time>2015-06-08T12:59:45Z</time>
      </trkpt>
      <trkpt lat="47.45875" lon="6.69185">
        <ele>300.8</ele>
        <time>2015-06-08T12:59:46Z</time>
      </trkpt>
      <trkpt lat="47.45878" lon="6.69189">
        <ele>300.5</ele>
        <time>2015-06-08T12:59:47Z</time>
      </trkpt>
      <trkpt lat="47.45881" lon="6.69193">
        <ele>300.5</ele>
        <time>2015-06-08T12:59:48Z</time>
      </trkpt>
      <trkpt lat="47.45884" lon="6.69197">
        <ele>300.8</ele>
        <time>2015-06-08T12:59:49Z</time>
      </trkpt>
      <trkpt lat="47.45888" lon="6.69201">
        <ele>300.5</ele>
        <time>2015-06-08T12:59:50Z</time>
      </trkpt>
      <trkpt lat="47.45891" lon="6.69204">
        <ele>300.5</ele>
        <time>2015-06-08T12:59:51Z</time>
      </trkpt>
      <trkpt lat="47.45894" lon="6.69208">
        <ele>300.3</ele>
        <time>2015-06-08T12:59:52Z</time>
      </trkpt>
      <trkpt lat="47.45898" lon="6.69211">
        <ele>300.3</ele>
        <time>2015-06-08T12:59:53Z</time>
      </trkpt>
      <trkpt lat="47.45901" lon="6.69214">
        <ele>300.4</ele>
        <time>2015-06-08T12:59:54Z</time>
      </trkpt>
      <trkpt lat="47.45905" lon="6.69218">
        <ele>300.5</ele>
        <time>2015-06-08T12:59:55Z</time>
      </trkpt>
      <trkpt lat="47.45908" lon="6.69221">
        <ele>300.6</ele>
        <time>2015-06-08T12:59:56Z</time>
      </trkpt>
      <trkpt lat="47.45911" lon="6.69225">
        <ele>300.9</ele>
        <time>2015-06-08T12:59:57Z</time>
      </trkpt>
      <trkpt lat="47.45914" lon="6.69229">
        <ele>301</ele>
        <time>2015-06-08T12:59:58Z</time>
      </trkpt>
      <trkpt lat="47.45918" lon="6.69233">
        <ele>301.3</ele>
        <time>2015-06-08T12:59:59Z</time>
      </trkpt>
      <trkpt lat="47.45921" lon="6.69236">
        <ele>301.5</ele>
        <time>2015-06-08T13:00:00Z</time>
      </trkpt>
      <trkpt lat="47.45924" lon="6.69239">
        <ele>301.9</ele>
        <time>2015-06-08T13:00:01Z</time>
      </trkpt>
      <trkpt lat="47.45927" lon="6.69243">
        <ele>302.3</ele>
        <time>2015-06-08T13:00:02Z</time>
      </trkpt>
      <trkpt lat="47.4593" lon="6.69247">
        <ele>302.4</ele>
        <time>2015-06-08T13:00:03Z</time>
      </trkpt>
      <trkpt lat="47.45933" lon="6.69251">
        <ele>302.6</ele>
        <time>2015-06-08T13:00:04Z</time>
      </trkpt>
      <trkpt lat="47.45936" lon="6.69255">
        <ele>302.6</ele>
        <time>2015-06-08T13:00:05Z</time>
      </trkpt>
      <trkpt lat="47.45939" lon="6.69258">
        <ele>302.6</ele>
        <time>2015-06-08T13:00:06Z</time>
      </trkpt>
      <trkpt lat="47.45942" lon="6.69261">
        <ele>302.5</ele>
        <time>2015-06-08T13:00:07Z</time>
      </trkpt>
      <trkpt lat="47.45945" lon="6.69265">
        <ele>302.8</ele>
        <time>2015-06-08T13:00:08Z</time>
      </trkpt>
      <trkpt lat="47.45948" lon="6.69268">
        <ele>302.9</ele>
        <time>2015-06-08T13:00:09Z</time>
      </trkpt>
      <trkpt lat="47.45951" lon="6.69272">
        <ele>302.9</ele>
        <time>2015-06-08T13:00:10Z</time>
      </trkpt>
      <trkpt lat="47.45955" lon="6.69276">
        <ele>302.9</ele>
        <time>2015-06-08T13:00:11Z</time>
      </trkpt>
      <trkpt lat="47.45958" lon="6.6928">
        <ele>302.9</ele>
        <time>2015-06-08T13:00:12Z</time>
      </trkpt>
      <trkpt lat="47.45961" lon="6.69283">
        <ele>303</ele>
        <time>2015-06-08T13:00:13Z</time>
      </trkpt>
      <trkpt lat="47.45964" lon="6.69287">
        <ele>303</ele>
        <time>2015-06-08T13:00:14Z</time>
      </trkpt>
      <trkpt lat="47.45968" lon="6.69291">
        <ele>302.9</ele>
        <time>2015-06-08T13:00:15Z</time>
      </trkpt>
      <trkpt lat="47.45971" lon="6.69294">
        <ele>302.9</ele>
        <time>2015-06-08T13:00:16Z</time>
      </trkpt>
      <trkpt lat="47.45974" lon="6.69298">
        <ele>303.2</ele>
        <time>2015-06-08T13:00:17Z</time>
      </trkpt>
      <trkpt lat="47.45977" lon="6.69302">
        <ele>303.4</ele>
        <time>2015-06-08T13:00:18Z</time>
      </trkpt>
      <trkpt lat="47.45981" lon="6.69305">
        <ele>303.7</ele>
        <time>2015-06-08T13:00:19Z</time>
      </trkpt>
      <trkpt lat="47.45984" lon="6.69309">
        <ele>303.8</ele>
        <time>2015-06-08T13:00:20Z</time>
      </trkpt>
      <trkpt lat="47.45988" lon="6.69312">
        <ele>303.7</ele>
        <time>2015-06-08T13:00:21Z</time>
      </trkpt>
      <trkpt lat="47.45991" lon="6.69316">
        <ele>303.9</ele>
        <time>2015-06-08T13:00:22Z</time>
      </trkpt>
      <trkpt lat="47.45994" lon="6.6932">
        <ele>304.1</ele>
        <time>2015-06-08T13:00:23Z</time>
      </trkpt>
      <trkpt lat="47.45998" lon="6.69324">
        <ele>304.1</ele>
        <time>2015-06-08T13:00:24Z</time>
      </trkpt>
      <trkpt lat="47.46001" lon="6.69328">
        <ele>304.2</ele>
        <time>2015-06-08T13:00:25Z</time>
      </trkpt>
      <trkpt lat="47.46004" lon="6.69332">
        <ele>304.1</ele>
        <time>2015-06-08T13:00:26Z</time>
      </trkpt>
      <trkpt lat="47.46007" lon="6.69335">
        <ele>304</ele>
        <time>2015-06-08T13:00:27Z</time>
      </trkpt>
      <trkpt lat="47.4601" lon="6.69339">
        <ele>304.1</ele>
        <time>2015-06-08T13:00:28Z</time>
      </trkpt>
      <trkpt lat="47.46013" lon="6.69342">
        <ele>304.2</ele>
        <time>2015-06-08T13:00:29Z</time>
      </trkpt>
      <trkpt lat="47.46017" lon="6.69345">
        <ele>304.2</ele>
        <time>2015-06-08T13:00:30Z</time>
      </trkpt>
      <trkpt lat="47.4602" lon="6.69349">
        <ele>304.3</ele>
        <time>2015-06-08T13:00:31Z</time>
      </trkpt>
      <trkpt lat="47.46023" lon="6.69352">
        <ele>304.4</ele>
        <time>2015-06-08T13:00:32Z</time>
      </trkpt>
      <trkpt lat="47.46026" lon="6.69356">
        <ele>304.6</ele>
        <time>2015-06-08T13:00:33Z</time>
      </trkpt>
      <trkpt lat="47.46029" lon="6.69359">
        <ele>304.6</ele>
        <time>2015-06-08T13:00:34Z</time>
      </trkpt>
      <trkpt lat="47.46032" lon="6.69363">
        <ele>304.9</ele>
        <time>2015-06-08T13:00:35Z</time>
      </trkpt>
      <trkpt lat="47.46035" lon="6.69368">
        <ele>305.3</ele>
        <time>2015-06-08T13:00:36Z</time>
      </trkpt>
      <trkpt lat="47.46038" lon="6.69372">
        <ele>305.5</ele>
        <time>2015-06-08T13:00:37Z</time>
      </trkpt>
      <trkpt lat="47.46041" lon="6.69376">
        <ele>305.6</ele>
        <time>2015-06-08T13:00:38Z</time>
      </trkpt>
      <trkpt lat="47.46045" lon="6.6938">
        <ele>305.7</ele>
        <time>2015-06-08T13:00:39Z</time>
      </trkpt>
      <trkpt lat="47.46048" lon="6.69383">
        <ele>305.5</ele>
        <time>2015-06-08T13:00:40Z</time>
      </trkpt>
      <trkpt lat="47.46052" lon="6.69387">
        <ele>305.8</ele>
        <time>2015-06-08T13:00:41Z</time>
      </trkpt>
      <trkpt lat="47.46055" lon="6.6939">
        <ele>306.1</ele>
        <time>2015-06-08T13:00:42Z</time>
      </trkpt>
      <trkpt lat="47.46058" lon="6.69394">
        <ele>306.3</ele>
        <time>2015-06-08T13:00:43Z</time>
      </trkpt>
      <trkpt lat="47.46061" lon="6.69397">
        <ele>306.3</ele>
        <time>2015-06-08T13:00:44Z</time>
      </trkpt>
      <trkpt lat="47.46064" lon="6.69401">
        <ele>306.2</ele>
        <time>2015-06-08T13:00:45Z</time>
      </trkpt>
      <trkpt lat="47.46067" lon="6.69405">
        <ele>306.1</ele>
        <time>2015-06-08T13:00:46Z</time>
      </trkpt>
      <trkpt lat="47.4607" lon="6.69409">
        <ele>305.7</ele>
        <time>2015-06-08T13:00:47Z</time>
      </trkpt>
      <trkpt lat="47.46074" lon="6.69412">
        <ele>305.7</ele>
        <time>2015-06-08T13:00:48Z</time>
      </trkpt>
      <trkpt lat="47.46077" lon="6.69416">
        <ele>306.1</ele>
        <time>2015-06-08T13:00:49Z</time>
      </trkpt>
      <trkpt lat="47.4608" lon="6.69419">
        <ele>306</ele>
        <time>2015-06-08T13:00:50Z</time>
      </trkpt>
      <trkpt lat="47.46083" lon="6.69423">
        <ele>306</ele>
        <time>2015-06-08T13:00:51Z</time>
      </trkpt>
      <trkpt lat="47.46086" lon="6.69427">
        <ele>305.9</ele>
        <time>2015-06-08T13:00:52Z</time>
      </trkpt>
      <trkpt lat="47.46089" lon="6.69431">
        <ele>305.8</ele>
        <time>2015-06-08T13:00:53Z</time>
      </trkpt>
      <trkpt lat="47.46093" lon="6.69435">
        <ele>306.3</ele>
        <time>2015-06-08T13:00:54Z</time>
      </trkpt>
      <trkpt lat="47.46096" lon="6.69439">
        <ele>306.5</ele>
        <time>2015-06-08T13:00:55Z</time>
      </trkpt>
      <trkpt lat="47.461" lon="6.69443">
        <ele>306.5</ele>
        <time>2015-06-08T13:00:56Z</time>
      </trkpt>
      <trkpt lat="47.46103" lon="6.69447">
        <ele>306.6</ele>
        <time>2015-06-08T13:00:57Z</time>
      </trkpt>
      <trkpt lat="47.46107" lon="6.69451">
        <ele>306.7</ele>
        <time>2015-06-08T13:00:58Z</time>
      </trkpt>
      <trkpt lat="47.4611" lon="6.69455">
        <ele>306.8</ele>
        <time>2015-06-08T13:00:59Z</time>
      </trkpt>
      <trkpt lat="47.46114" lon="6.69458">
        <ele>307</ele>
        <time>2015-06-08T13:01:00Z</time>
      </trkpt>
      <trkpt lat="47.46117" lon="6.69462">
        <ele>307.1</ele>
        <time>2015-06-08T13:01:01Z</time>
      </trkpt>
      <trkpt lat="47.46121" lon="6.69466">
        <ele>307.4</ele>
        <time>2015-06-08T13:01:02Z</time>
      </trkpt>
      <trkpt lat="47.46125" lon="6.6947">
        <ele>307.9</ele>
        <time>2015-06-08T13:01:03Z</time>
      </trkpt>
      <trkpt lat="47.46128" lon="6.69474">
        <ele>308.1</ele>
        <time>2015-06-08T13:01:04Z</time>
      </trkpt>
      <trkpt lat="47.46132" lon="6.69478">
        <ele>308.2</ele>
        <time>2015-06-08T13:01:05Z</time>
      </trkpt>
      <trkpt lat="47.46136" lon="6.69483">
        <ele>308.4</ele>
        <time>2015-06-08T13:01:06Z</time>
      </trkpt>
      <trkpt lat="47.4614" lon="6.69487">
        <ele>308.7</ele>
        <time>2015-06-08T13:01:07Z</time>
      </trkpt>
      <trkpt lat="47.46144" lon="6.69491">
        <ele>309.2</ele>
        <time>2015-06-08T13:01:08Z</time>
      </trkpt>
      <trkpt lat="47.46147" lon="6.69495">
        <ele>309.6</ele>
        <time>2015-06-08T13:01:09Z</time>
      </trkpt>
      <trkpt lat="47.4615" lon="6.69498">
        <ele>310.1</ele>
        <time>2015-06-08T13:01:10Z</time>
      </trkpt>
      <trkpt lat="47.46153" lon="6.69502">
        <ele>310.5</ele>
        <time>2015-06-08T13:01:11Z</time>
      </trkpt>
      <trkpt lat="47.46156" lon="6.69506">
        <ele>311.2</ele>
        <time>2015-06-08T13:01:12Z</time>
      </trkpt>
      <trkpt lat="47.46159" lon="6.6951">
        <ele>311.8</ele>
        <time>2015-06-08T13:01:13Z</time>
      </trkpt>
      <trkpt lat="47.46162" lon="6.69514">
        <ele>312.2</ele>
        <time>2015-06-08T13:01:14Z</time>
      </trkpt>
      <trkpt lat="47.46165" lon="6.69518">
        <ele>312.8</ele>
        <time>2015-06-08T13:01:15Z</time>
      </trkpt>
      <trkpt lat="47.46168" lon="6.69523">
        <ele>312.6</ele>
        <time>2015-06-08T13:01:16Z</time>
      </trkpt>
      <trkpt lat="47.46171" lon="6.69527">
        <ele>312.3</ele>
        <time>2015-06-08T13:01:17Z</time>
      </trkpt>
      <trkpt lat="47.46174" lon="6.69533">
        <ele>312</ele>
        <time>2015-06-08T13:01:18Z</time>
      </trkpt>
      <trkpt lat="47.46176" lon="6.69538">
        <ele>311.8</ele>
        <time>2015-06-08T13:01:19Z</time>
      </trkpt>
      <trkpt lat="47.46178" lon="6.69543">
        <ele>311.2</ele>
        <time>2015-06-08T13:01:20Z</time>
      </trkpt>
      <trkpt lat="47.4618" lon="6.69549">
        <ele>311.1</ele>
        <time>2015-06-08T13:01:21Z</time>
      </trkpt>
      <trkpt lat="47.46182" lon="6.69555">
        <ele>310.5</ele>
        <time>2015-06-08T13:01:22Z</time>
      </trkpt>
      <trkpt lat="47.46183" lon="6.69561">
        <ele>309.9</ele>
        <time>2015-06-08T13:01:23Z</time>
      </trkpt>
      <trkpt lat="47.46184" lon="6.69567">
        <ele>309.5</ele>
        <time>2015-06-08T13:01:24Z</time>
      </trkpt>
      <trkpt lat="47.46186" lon="6.69573">
        <ele>309.3</ele>
        <time>2015-06-08T13:01:25Z</time>
      </trkpt>
      <trkpt lat="47.46187" lon="6.69579">
        <ele>309</ele>
        <time>2015-06-08T13:01:26Z</time>
      </trkpt>
      <trkpt lat="47.46187" lon="6.69585">
        <ele>308.9</ele>
        <time>2015-06-08T13:01:27Z</time>
      </trkpt>
      <trkpt lat="47.46188" lon="6.69591">
        <ele>308.9</ele>
        <time>2015-06-08T13:01:28Z</time>
      </trkpt>
      <trkpt lat="47.46189" lon="6.69597">
        <ele>308.8</ele>
        <time>2015-06-08T13:01:29Z</time>
      </trkpt>
      <trkpt lat="47.46191" lon="6.69603">
        <ele>308.8</ele>
        <time>2015-06-08T13:01:30Z</time>
      </trkpt>
      <trkpt lat="47.46193" lon="6.6961">
        <ele>308.4</ele>
        <time>2015-06-08T13:01:31Z</time>
      </trkpt>
      <trkpt lat="47.46195" lon="6.69616">
        <ele>308.1</ele>
        <time>2015-06-08T13:01:32Z</time>
      </trkpt>
      <trkpt lat="47.46197" lon="6.69622">
        <ele>307.9</ele>
        <time>2015-06-08T13:01:33Z</time>
      </trkpt>
      <trkpt lat="47.462" lon="6.69628">
        <ele>307.8</ele>
        <time>2015-06-08T13:01:34Z</time>
      </trkpt>
      <trkpt lat="47.46203" lon="6.69635">
        <ele>307.7</ele>
        <time>2015-06-08T13:01:35Z</time>
      </trkpt>
      <trkpt lat="47.46206" lon="6.69641">
        <ele>307.6</ele>
        <time>2015-06-08T13:01:36Z</time>
      </trkpt>
      <trkpt lat="47.4621" lon="6.69648">
        <ele>307.3</ele>
        <time>2015-06-08T13:01:37Z</time>
      </trkpt>
      <trkpt lat="47.46214" lon="6.69654">
        <ele>306.9</ele>
        <time>2015-06-08T13:01:38Z</time>
      </trkpt>
      <trkpt lat="47.46218" lon="6.69661">
        <ele>306.7</ele>
        <time>2015-06-08T13:01:39Z</time>
      </trkpt>
      <trkpt lat="47.46222" lon="6.69668">
        <ele>306.5</ele>
        <time>2015-06-08T13:01:40Z</time>
      </trkpt>
      <trkpt lat="47.46227" lon="6.69675">
        <ele>306.4</ele>
        <time>2015-06-08T13:01:41Z</time>
      </trkpt>
      <trkpt lat="47.46232" lon="6.69682">
        <ele>306.3</ele>
        <time>2015-06-08T13:01:42Z</time>
      </trkpt>
      <trkpt lat="47.46236" lon="6.6969">
        <ele>306</ele>
        <time>2015-06-08T13:01:43Z</time>
      </trkpt>
      <trkpt lat="47.4624" lon="6.69697">
        <ele>306</ele>
        <time>2015-06-08T13:01:44Z</time>
      </trkpt>
      <trkpt lat="47.46244" lon="6.69704">
        <ele>305.9</ele>
        <time>2015-06-08T13:01:45Z</time>
      </trkpt>
      <trkpt lat="47.46248" lon="6.69711">
        <ele>305.9</ele>
        <time>2015-06-08T13:01:46Z</time>
      </trkpt>
      <trkpt lat="47.46252" lon="6.69718">
        <ele>306.2</ele>
        <time>2015-06-08T13:01:47Z</time>
      </trkpt>
      <trkpt lat="47.46255" lon="6.69724">
        <ele>306.3</ele>
        <time>2015-06-08T13:01:48Z</time>
      </trkpt>
      <trkpt lat="47.46258" lon="6.6973">
        <ele>306.3</ele>
        <time>2015-06-08T13:01:49Z</time>
      </trkpt>
      <trkpt lat="47.46261" lon="6.69735">
        <ele>305.8</ele>
        <time>2015-06-08T13:01:50Z</time>
      </trkpt>
      <trkpt lat="47.46264" lon="6.69741">
        <ele>305.5</ele>
        <time>2015-06-08T13:01:51Z</time>
      </trkpt>
      <trkpt lat="47.46267" lon="6.69746">
        <ele>305.4</ele>
        <time>2015-06-08T13:01:52Z</time>
      </trkpt>
      <trkpt lat="47.4627" lon="6.69751">
        <ele>305.6</ele>
        <time>2015-06-08T13:01:53Z</time>
      </trkpt>
      <trkpt lat="47.46273" lon="6.69756">
        <ele>305.4</ele>
        <time>2015-06-08T13:01:54Z</time>
      </trkpt>
      <trkpt lat="47.46276" lon="6.69761">
        <ele>305.2</ele>
        <time>2015-06-08T13:01:55Z</time>
      </trkpt>
      <trkpt lat="47.46278" lon="6.69766">
        <ele>304.9</ele>
        <time>2015-06-08T13:01:56Z</time>
      </trkpt>
      <trkpt lat="47.46281" lon="6.69771">
        <ele>304.7</ele>
        <time>2015-06-08T13:01:57Z</time>
      </trkpt>
      <trkpt lat="47.46283" lon="6.69776">
        <ele>304.7</ele>
        <time>2015-06-08T13:01:58Z</time>
      </trkpt>
      <trkpt lat="47.46286" lon="6.69781">
        <ele>304.1</ele>
        <time>2015-06-08T13:01:59Z</time>
      </trkpt>
      <trkpt lat="47.46288" lon="6.69786">
        <ele>303.4</ele>
        <time>2015-06-08T13:02:00Z</time>
      </trkpt>
      <trkpt lat="47.4629" lon="6.69791">
        <ele>303.4</ele>
        <time>2015-06-08T13:02:01Z</time>
      </trkpt>
      <trkpt lat="47.46293" lon="6.69796">
        <ele>303.5</ele>
        <time>2015-06-08T13:02:02Z</time>
      </trkpt>
      <trkpt lat="47.46295" lon="6.69801">
        <ele>303.6</ele>
        <time>2015-06-08T13:02:03Z</time>
      </trkpt>
      <trkpt lat="47.46297" lon="6.69806">
        <ele>303.6</ele>
        <time>2015-06-08T13:02:04Z</time>
      </trkpt>
      <trkpt lat="47.463" lon="6.69812">
        <ele>303.8</ele>
        <time>2015-06-08T13:02:05Z</time>
      </trkpt>
      <trkpt lat="47.46302" lon="6.69817">
        <ele>304.1</ele>
        <time>2015-06-08T13:02:06Z</time>
      </trkpt>
      <trkpt lat="47.46304" lon="6.69821">
        <ele>304.4</ele>
        <time>2015-06-08T13:02:07Z</time>
      </trkpt>
      <trkpt lat="47.46306" lon="6.69826">
        <ele>304.6</ele>
        <time>2015-06-08T13:02:08Z</time>
      </trkpt>
      <trkpt lat="47.46308" lon="6.69831">
        <ele>305.2</ele>
        <time>2015-06-08T13:02:09Z</time>
      </trkpt>
      <trkpt lat="47.46311" lon="6.69836">
        <ele>305.9</ele>
        <time>2015-06-08T13:02:10Z</time>
      </trkpt>
      <trkpt lat="47.46314" lon="6.69841">
        <ele>306.4</ele>
        <time>2015-06-08T13:02:11Z</time>
      </trkpt>
      <trkpt lat="47.46316" lon="6.69846">
        <ele>306.7</ele>
        <time>2015-06-08T13:02:12Z</time>
      </trkpt>
      <trkpt lat="47.46318" lon="6.69852">
        <ele>306.8</ele>
        <time>2015-06-08T13:02:13Z</time>
      </trkpt>
      <trkpt lat="47.46321" lon="6.69857">
        <ele>306.8</ele>
        <time>2015-06-08T13:02:14Z</time>
      </trkpt>
      <trkpt lat="47.46323" lon="6.69862">
        <ele>306.8</ele>
        <time>2015-06-08T13:02:15Z</time>
      </trkpt>
      <trkpt lat="47.46326" lon="6.69867">
        <ele>306.7</ele>
        <time>2015-06-08T13:02:16Z</time>
      </trkpt>
      <trkpt lat="47.46328" lon="6.69872">
        <ele>306.4</ele>
        <time>2015-06-08T13:02:17Z</time>
      </trkpt>
      <trkpt lat="47.4633" lon="6.69877">
        <ele>306.2</ele>
        <time>2015-06-08T13:02:18Z</time>
      </trkpt>
      <trkpt lat="47.46332" lon="6.69882">
        <ele>306.2</ele>
        <time>2015-06-08T13:02:19Z</time>
      </trkpt>
      <trkpt lat="47.46335" lon="6.69888">
        <ele>306.4</ele>
        <time>2015-06-08T13:02:20Z</time>
      </trkpt>
      <trkpt lat="47.46337" lon="6.69893">
        <ele>306.5</ele>
        <time>2015-06-08T13:02:21Z</time>
      </trkpt>
      <trkpt lat="47.46339" lon="6.69898">
        <ele>306.6</ele>
        <time>2015-06-08T13:02:22Z</time>
      </trkpt>
      <trkpt lat="47.46342" lon="6.69903">
        <ele>306.7</ele>
        <time>2015-06-08T13:02:23Z</time>
      </trkpt>
      <trkpt lat="47.46344" lon="6.69909">
        <ele>307.1</ele>
        <time>2015-06-08T13:02:24Z</time>
      </trkpt>
      <trkpt lat="47.46346" lon="6.69914">
        <ele>307.1</ele>
        <time>2015-06-08T13:02:25Z</time>
      </trkpt>
      <trkpt lat="47.46349" lon="6.6992">
        <ele>306.9</ele>
        <time>2015-06-08T13:02:26Z</time>
      </trkpt>
      <trkpt lat="47.46351" lon="6.69925">
        <ele>306.7</ele>
        <time>2015-06-08T13:02:27Z</time>
      </trkpt>
      <trkpt lat="47.46354" lon="6.6993">
        <ele>306.6</ele>
        <time>2015-06-08T13:02:28Z</time>
      </trkpt>
      <trkpt lat="47.46356" lon="6.69935">
        <ele>306.7</ele>
        <time>2015-06-08T13:02:29Z</time>
      </trkpt>
      <trkpt lat="47.46359" lon="6.69941">
        <ele>306.6</ele>
        <time>2015-06-08T13:02:30Z</time>
      </trkpt>
      <trkpt lat="47.46362" lon="6.69946">
        <ele>306.6</ele>
        <time>2015-06-08T13:02:31Z</time>
      </trkpt>
      <trkpt lat="47.46365" lon="6.69951">
        <ele>306.5</ele>
        <time>2015-06-08T13:02:32Z</time>
      </trkpt>
      <trkpt lat="47.46367" lon="6.69957">
        <ele>306.1</ele>
        <time>2015-06-08T13:02:33Z</time>
      </trkpt>
      <trkpt lat="47.4637" lon="6.69962">
        <ele>305.9</ele>
        <time>2015-06-08T13:02:34Z</time>
      </trkpt>
      <trkpt lat="47.46372" lon="6.69967">
        <ele>305.5</ele>
        <time>2015-06-08T13:02:35Z</time>
      </trkpt>
      <trkpt lat="47.46375" lon="6.69973">
        <ele>305.2</ele>
        <time>2015-06-08T13:02:36Z</time>
      </trkpt>
      <trkpt lat="47.46377" lon="6.69978">
        <ele>304.7</ele>
        <time>2015-06-08T13:02:37Z</time>
      </trkpt>
      <trkpt lat="47.4638" lon="6.69983">
        <ele>304.3</ele>
        <time>2015-06-08T13:02:38Z</time>
      </trkpt>
      <trkpt lat="47.46382" lon="6.69988">
        <ele>304.1</ele>
        <time>2015-06-08T13:02:39Z</time>
      </trkpt>
      <trkpt lat="47.46384" lon="6.69992">
        <ele>303.9</ele>
        <time>2015-06-08T13:02:40Z</time>
      </trkpt>
      <trkpt lat="47.46386" lon="6.69997">
        <ele>303.8</ele>
        <time>2015-06-08T13:02:41Z</time>
      </trkpt>
      <trkpt lat="47.46388" lon="6.70002">
        <ele>303.7</ele>
        <time>2015-06-08T13:02:42Z</time>
      </trkpt>
      <trkpt lat="47.46391" lon="6.70007">
        <ele>303.3</ele>
        <time>2015-06-08T13:02:43Z</time>
      </trkpt>
      <trkpt lat="47.46393" lon="6.70011">
        <ele>302.9</ele>
        <time>2015-06-08T13:02:44Z</time>
      </trkpt>
      <trkpt lat="47.46395" lon="6.70016">
        <ele>302.6</ele>
        <time>2015-06-08T13:02:45Z</time>
      </trkpt>
      <trkpt lat="47.46398" lon="6.70021">
        <ele>302.5</ele>
        <time>2015-06-08T13:02:46Z</time>
      </trkpt>
      <trkpt lat="47.464" lon="6.70025">
        <ele>302.6</ele>
        <time>2015-06-08T13:02:47Z</time>
      </trkpt>
      <trkpt lat="47.46402" lon="6.7003">
        <ele>302.4</ele>
        <time>2015-06-08T13:02:48Z</time>
      </trkpt>
      <trkpt lat="47.46404" lon="6.70035">
        <ele>302.5</ele>
        <time>2015-06-08T13:02:49Z</time>
      </trkpt>
      <trkpt lat="47.46406" lon="6.70039">
        <ele>302.4</ele>
        <time>2015-06-08T13:02:50Z</time>
      </trkpt>
      <trkpt lat="47.46408" lon="6.70044">
        <ele>302.4</ele>
        <time>2015-06-08T13:02:51Z</time>
      </trkpt>
      <trkpt lat="47.46411" lon="6.70048">
        <ele>302.3</ele>
        <time>2015-06-08T13:02:52Z</time>
      </trkpt>
      <trkpt lat="47.46413" lon="6.70053">
        <ele>302.4</ele>
        <time>2015-06-08T13:02:53Z</time>
      </trkpt>
      <trkpt lat="47.46415" lon="6.70058">
        <ele>302.5</ele>
        <time>2015-06-08T13:02:54Z</time>
      </trkpt>
      <trkpt lat="47.46417" lon="6.70063">
        <ele>302.2</ele>
        <time>2015-06-08T13:02:55Z</time>
      </trkpt>
      <trkpt lat="47.46419" lon="6.70067">
        <ele>302.2</ele>
        <time>2015-06-08T13:02:56Z</time>
      </trkpt>
      <trkpt lat="47.46422" lon="6.70072">
        <ele>302.3</ele>
        <time>2015-06-08T13:02:57Z</time>
      </trkpt>
      <trkpt lat="47.46424" lon="6.70076">
        <ele>302.2</ele>
        <time>2015-06-08T13:02:58Z</time>
      </trkpt>
      <trkpt lat="47.46427" lon="6.70081">
        <ele>301.9</ele>
        <time>2015-06-08T13:02:59Z</time>
      </trkpt>
      <trkpt lat="47.46429" lon="6.70086">
        <ele>302.1</ele>
        <time>2015-06-08T13:03:00Z</time>
      </trkpt>
      <trkpt lat="47.46432" lon="6.7009">
        <ele>302.2</ele>
        <time>2015-06-08T13:03:01Z</time>
      </trkpt>
      <trkpt lat="47.46434" lon="6.70096">
        <ele>302.2</ele>
        <time>2015-06-08T13:03:02Z</time>
      </trkpt>
      <trkpt lat="47.46436" lon="6.70101">
        <ele>302</ele>
        <time>2015-06-08T13:03:03Z</time>
      </trkpt>
      <trkpt lat="47.46439" lon="6.70106">
        <ele>301.9</ele>
        <time>2015-06-08T13:03:04Z</time>
      </trkpt>
      <trkpt lat="47.46441" lon="6.70111">
        <ele>301.7</ele>
        <time>2015-06-08T13:03:05Z</time>
      </trkpt>
      <trkpt lat="47.46444" lon="6.70116">
        <ele>301.4</ele>
        <time>2015-06-08T13:03:06Z</time>
      </trkpt>
      <trkpt lat="47.46446" lon="6.70121">
        <ele>301.4</ele>
        <time>2015-06-08T13:03:07Z</time>
      </trkpt>
      <trkpt lat="47.46448" lon="6.70126">
        <ele>301.2</ele>
        <time>2015-06-08T13:03:08Z</time>
      </trkpt>
      <trkpt lat="47.46451" lon="6.70131">
        <ele>301</ele>
        <time>2015-06-08T13:03:09Z</time>
      </trkpt>
      <trkpt lat="47.46453" lon="6.70135">
        <ele>301.2</ele>
        <time>2015-06-08T13:03:10Z</time>
      </trkpt>
      <trkpt lat="47.46455" lon="6.7014">
        <ele>301.2</ele>
        <time>2015-06-08T13:03:11Z</time>
      </trkpt>
      <trkpt lat="47.46457" lon="6.70145">
        <ele>301.4</ele>
        <time>2015-06-08T13:03:12Z</time>
      </trkpt>
      <trkpt lat="47.46459" lon="6.7015">
        <ele>301.4</ele>
        <time>2015-06-08T13:03:13Z</time>
      </trkpt>
      <trkpt lat="47.46461" lon="6.70155">
        <ele>301.3</ele>
        <time>2015-06-08T13:03:14Z</time>
      </trkpt>
      <trkpt lat="47.46463" lon="6.7016">
        <ele>301.5</ele>
        <time>2015-06-08T13:03:15Z</time>
      </trkpt>
      <trkpt lat="47.46465" lon="6.70165">
        <ele>301.7</ele>
        <time>2015-06-08T13:03:16Z</time>
      </trkpt>
      <trkpt lat="47.46468" lon="6.7017">
        <ele>301.9</ele>
        <time>2015-06-08T13:03:17Z</time>
      </trkpt>
      <trkpt lat="47.46471" lon="6.70176">
        <ele>301.9</ele>
        <time>2015-06-08T13:03:18Z</time>
      </trkpt>
      <trkpt lat="47.46473" lon="6.70181">
        <ele>301.8</ele>
        <time>2015-06-08T13:03:19Z</time>
      </trkpt>
      <trkpt lat="47.46476" lon="6.70187">
        <ele>301.7</ele>
        <time>2015-06-08T13:03:20Z</time>
      </trkpt>
      <trkpt lat="47.46479" lon="6.70193">
        <ele>301.5</ele>
        <time>2015-06-08T13:03:21Z</time>
      </trkpt>
      <trkpt lat="47.46482" lon="6.70199">
        <ele>301.3</ele>
        <time>2015-06-08T13:03:22Z</time>
      </trkpt>
      <trkpt lat="47.46485" lon="6.70204">
        <ele>301.1</ele>
        <time>2015-06-08T13:03:23Z</time>
      </trkpt>
      <trkpt lat="47.46487" lon="6.7021">
        <ele>301.2</ele>
        <time>2015-06-08T13:03:24Z</time>
      </trkpt>
      <trkpt lat="47.4649" lon="6.70215">
        <ele>301</ele>
        <time>2015-06-08T13:03:25Z</time>
      </trkpt>
      <trkpt lat="47.46492" lon="6.7022">
        <ele>301</ele>
        <time>2015-06-08T13:03:26Z</time>
      </trkpt>
      <trkpt lat="47.46495" lon="6.70225">
        <ele>301.3</ele>
        <time>2015-06-08T13:03:27Z</time>
      </trkpt>
      <trkpt lat="47.46497" lon="6.70231">
        <ele>301.7</ele>
        <time>2015-06-08T13:03:28Z</time>
      </trkpt>
      <trkpt lat="47.465" lon="6.70236">
        <ele>302.3</ele>
        <time>2015-06-08T13:03:29Z</time>
      </trkpt>
      <trkpt lat="47.46503" lon="6.70242">
        <ele>302.6</ele>
        <time>2015-06-08T13:03:30Z</time>
      </trkpt>
      <trkpt lat="47.46505" lon="6.70248">
        <ele>302.8</ele>
        <time>2015-06-08T13:03:31Z</time>
      </trkpt>
      <trkpt lat="47.46508" lon="6.70253">
        <ele>303.1</ele>
        <time>2015-06-08T13:03:32Z</time>
      </trkpt>
      <trkpt lat="47.4651" lon="6.70259">
        <ele>303.1</ele>
        <time>2015-06-08T13:03:33Z</time>
      </trkpt>
      <trkpt lat="47.46513" lon="6.70264">
        <ele>303.1</ele>
        <time>2015-06-08T13:03:34Z</time>
      </trkpt>
      <trkpt lat="47.46516" lon="6.7027">
        <ele>303.1</ele>
        <time>2015-06-08T13:03:35Z</time>
      </trkpt>
      <trkpt lat="47.46518" lon="6.70275">
        <ele>303.1</ele>
        <time>2015-06-08T13:03:36Z</time>
      </trkpt>
      <trkpt lat="47.4652" lon="6.70281">
        <ele>303</ele>
        <time>2015-06-08T13:03:37Z</time>
      </trkpt>
      <trkpt lat="47.46522" lon="6.70286">
        <ele>302.8</ele>
        <time>2015-06-08T13:03:38Z</time>
      </trkpt>
      <trkpt lat="47.46525" lon="6.70291">
        <ele>302.5</ele>
        <time>2015-06-08T13:03:39Z</time>
      </trkpt>
      <trkpt lat="47.46527" lon="6.70297">
        <ele>302.4</ele>
        <time>2015-06-08T13:03:40Z</time>
      </trkpt>
      <trkpt lat="47.46529" lon="6.70302">
        <ele>302.3</ele>
        <time>2015-06-08T13:03:41Z</time>
      </trkpt>
      <trkpt lat="47.46532" lon="6.70308">
        <ele>302</ele>
        <time>2015-06-08T13:03:42Z</time>
      </trkpt>
      <trkpt lat="47.46535" lon="6.70313">
        <ele>301.9</ele>
        <time>2015-06-08T13:03:43Z</time>
      </trkpt>
      <trkpt lat="47.46537" lon="6.70319">
        <ele>301.7</ele>
        <time>2015-06-08T13:03:44Z</time>
      </trkpt>
      <trkpt lat="47.4654" lon="6.70324">
        <ele>301.4</ele>
        <time>2015-06-08T13:03:45Z</time>
      </trkpt>
      <trkpt lat="47.46543" lon="6.7033">
        <ele>301.3</ele>
        <time>2015-06-08T13:03:46Z</time>
      </trkpt>
      <trkpt lat="47.46545" lon="6.70335">
        <ele>300.8</ele>
        <time>2015-06-08T13:03:47Z</time>
      </trkpt>
      <trkpt lat="47.46548" lon="6.70341">
        <ele>300.5</ele>
        <time>2015-06-08T13:03:48Z</time>
      </trkpt>
      <trkpt lat="47.4655" lon="6.70347">
        <ele>300.3</ele>
        <time>2015-06-08T13:03:49Z</time>
      </trkpt>
      <trkpt lat="47.46553" lon="6.70353">
        <ele>300</ele>
        <time>2015-06-08T13:03:50Z</time>
      </trkpt>
      <trkpt lat="47.46556" lon="6.70358">
        <ele>299.6</ele>
        <time>2015-06-08T13:03:51Z</time>
      </trkpt>
      <trkpt lat="47.46559" lon="6.70364">
        <ele>299.6</ele>
        <time>2015-06-08T13:03:52Z</time>
      </trkpt>
      <trkpt lat="47.46561" lon="6.70369">
        <ele>299.8</ele>
        <time>2015-06-08T13:03:53Z</time>
      </trkpt>
      <trkpt lat="47.46564" lon="6.70375">
        <ele>300.1</ele>
        <time>2015-06-08T13:03:54Z</time>
      </trkpt>
      <trkpt lat="47.46567" lon="6.70381">
        <ele>300.3</ele>
        <time>2015-06-08T13:03:55Z</time>
      </trkpt>
      <trkpt lat="47.46569" lon="6.70386">
        <ele>300.4</ele>
        <time>2015-06-08T13:03:56Z</time>
      </trkpt>
      <trkpt lat="47.46572" lon="6.70392">
        <ele>300.2</ele>
        <time>2015-06-08T13:03:57Z</time>
      </trkpt>
      <trkpt lat="47.46575" lon="6.70398">
        <ele>300</ele>
        <time>2015-06-08T13:03:58Z</time>
      </trkpt>
      <trkpt lat="47.46577" lon="6.70404">
        <ele>300</ele>
        <time>2015-06-08T13:03:59Z</time>
      </trkpt>
      <trkpt lat="47.4658" lon="6.70409">
        <ele>300.1</ele>
        <time>2015-06-08T13:04:00Z</time>
      </trkpt>
      <trkpt lat="47.46582" lon="6.70415">
        <ele>300.7</ele>
        <time>2015-06-08T13:04:01Z</time>
      </trkpt>
      <trkpt lat="47.46585" lon="6.70421">
        <ele>301</ele>
        <time>2015-06-08T13:04:02Z</time>
      </trkpt>
      <trkpt lat="47.46588" lon="6.70426">
        <ele>301</ele>
        <time>2015-06-08T13:04:03Z</time>
      </trkpt>
      <trkpt lat="47.46591" lon="6.70432">
        <ele>301.2</ele>
        <time>2015-06-08T13:04:04Z</time>
      </trkpt>
      <trkpt lat="47.46594" lon="6.70438">
        <ele>301.3</ele>
        <time>2015-06-08T13:04:05Z</time>
      </trkpt>
      <trkpt lat="47.46596" lon="6.70443">
        <ele>301.3</ele>
        <time>2015-06-08T13:04:06Z</time>
      </trkpt>
      <trkpt lat="47.46599" lon="6.70449">
        <ele>301.4</ele>
        <time>2015-06-08T13:04:07Z</time>
      </trkpt>
      <trkpt lat="47.46602" lon="6.70455">
        <ele>301.5</ele>
        <time>2015-06-08T13:04:08Z</time>
      </trkpt>
      <trkpt lat="47.46604" lon="6.70461">
        <ele>301.6</ele>
        <time>2015-06-08T13:04:09Z</time>
      </trkpt>
      <trkpt lat="47.46607" lon="6.70466">
        <ele>301.7</ele>
        <time>2015-06-08T13:04:10Z</time>
      </trkpt>
      <trkpt lat="47.46609" lon="6.70471">
        <ele>301.8</ele>
        <time>2015-06-08T13:04:11Z</time>
      </trkpt>
      <trkpt lat="47.46612" lon="6.70477">
        <ele>301.4</ele>
        <time>2015-06-08T13:04:12Z</time>
      </trkpt>
      <trkpt lat="47.46614" lon="6.70483">
        <ele>301.2</ele>
        <time>2015-06-08T13:04:13Z</time>
      </trkpt>
      <trkpt lat="47.46617" lon="6.70489">
        <ele>301.1</ele>
        <time>2015-06-08T13:04:14Z</time>
      </trkpt>
      <trkpt lat="47.46619" lon="6.70494">
        <ele>301.3</ele>
        <time>2015-06-08T13:04:15Z</time>
      </trkpt>
      <trkpt lat="47.46622" lon="6.705">
        <ele>301.5</ele>
        <time>2015-06-08T13:04:16Z</time>
      </trkpt>
      <trkpt lat="47.46625" lon="6.70506">
        <ele>301.6</ele>
        <time>2015-06-08T13:04:17Z</time>
      </trkpt>
      <trkpt lat="47.46628" lon="6.70511">
        <ele>301.9</ele>
        <time>2015-06-08T13:04:18Z</time>
      </trkpt>
      <trkpt lat="47.46631" lon="6.70516">
        <ele>301.7</ele>
        <time>2015-06-08T13:04:19Z</time>
      </trkpt>
      <trkpt lat="47.46633" lon="6.70522">
        <ele>301.5</ele>
        <time>2015-06-08T13:04:20Z</time>
      </trkpt>
      <trkpt lat="47.46636" lon="6.70528">
        <ele>301.4</ele>
        <time>2015-06-08T13:04:21Z</time>
      </trkpt>
      <trkpt lat="47.46638" lon="6.70533">
        <ele>301.6</ele>
        <time>2015-06-08T13:04:22Z</time>
      </trkpt>
      <trkpt lat="47.46641" lon="6.70539">
        <ele>301.7</ele>
        <time>2015-06-08T13:04:23Z</time>
      </trkpt>
      <trkpt lat="47.46644" lon="6.70545">
        <ele>302.2</ele>
        <time>2015-06-08T13:04:24Z</time>
      </trkpt>
      <trkpt lat="47.46647" lon="6.7055">
        <ele>302.4</ele>
        <time>2015-06-08T13:04:25Z</time>
      </trkpt>
      <trkpt lat="47.46649" lon="6.70556">
        <ele>302.7</ele>
        <time>2015-06-08T13:04:26Z</time>
      </trkpt>
      <trkpt lat="47.46652" lon="6.70561">
        <ele>303.1</ele>
        <time>2015-06-08T13:04:27Z</time>
      </trkpt>
      <trkpt lat="47.46655" lon="6.70567">
        <ele>303.4</ele>
        <time>2015-06-08T13:04:28Z</time>
      </trkpt>
      <trkpt lat="47.46657" lon="6.70572">
        <ele>303.7</ele>
        <time>2015-06-08T13:04:29Z</time>
      </trkpt>
      <trkpt lat="47.4666" lon="6.70577">
        <ele>304.2</ele>
        <time>2015-06-08T13:04:30Z</time>
      </trkpt>
      <trkpt lat="47.46663" lon="6.70583">
        <ele>304.6</ele>
        <time>2015-06-08T13:04:31Z</time>
      </trkpt>
      <trkpt lat="47.46666" lon="6.70588">
        <ele>305</ele>
        <time>2015-06-08T13:04:32Z</time>
      </trkpt>
      <trkpt lat="47.46669" lon="6.70593">
        <ele>305.3</ele>
        <time>2015-06-08T13:04:33Z</time>
      </trkpt>
      <trkpt lat="47.46671" lon="6.70599">
        <ele>305.1</ele>
        <time>2015-06-08T13:04:34Z</time>
      </trkpt>
      <trkpt lat="47.46674" lon="6.70605">
        <ele>305.2</ele>
        <time>2015-06-08T13:04:35Z</time>
      </trkpt>
      <trkpt lat="47.46677" lon="6.7061">
        <ele>305.5</ele>
        <time>2015-06-08T13:04:36Z</time>
      </trkpt>
      <trkpt lat="47.46679" lon="6.70616">
        <ele>305.6</ele>
        <time>2015-06-08T13:04:37Z</time>
      </trkpt>
      <trkpt lat="47.46682" lon="6.70622">
        <ele>305.6</ele>
        <time>2015-06-08T13:04:38Z</time>
      </trkpt>
      <trkpt lat="47.46684" lon="6.70627">
        <ele>305.8</ele>
        <time>2015-06-08T13:04:39Z</time>
      </trkpt>
      <trkpt lat="47.46687" lon="6.70633">
        <ele>306</ele>
        <time>2015-06-08T13:04:40Z</time>
      </trkpt>
      <trkpt lat="47.46689" lon="6.70639">
        <ele>305.8</ele>
        <time>2015-06-08T13:04:41Z</time>
      </trkpt>
      <trkpt lat="47.46691" lon="6.70644">
        <ele>305.8</ele>
        <time>2015-06-08T13:04:42Z</time>
      </trkpt>
      <trkpt lat="47.46694" lon="6.70649">
        <ele>305.7</ele>
        <time>2015-06-08T13:04:43Z</time>
      </trkpt>
      <trkpt lat="47.46697" lon="6.70655">
        <ele>305.7</ele>
        <time>2015-06-08T13:04:44Z</time>
      </trkpt>
      <trkpt lat="47.467" lon="6.7066">
        <ele>305.8</ele>
        <time>2015-06-08T13:04:45Z</time>
      </trkpt>
      <trkpt lat="47.46702" lon="6.70665">
        <ele>305.7</ele>
        <time>2015-06-08T13:04:46Z</time>
      </trkpt>
      <trkpt lat="47.46705" lon="6.70671">
        <ele>305.9</ele>
        <time>2015-06-08T13:04:47Z</time>
      </trkpt>
      <trkpt lat="47.46708" lon="6.70676">
        <ele>305.8</ele>
        <time>2015-06-08T13:04:48Z</time>
      </trkpt>
      <trkpt lat="47.46711" lon="6.70681">
        <ele>305.7</ele>
        <time>2015-06-08T13:04:49Z</time>
      </trkpt>
      <trkpt lat="47.46714" lon="6.70687">
        <ele>305.9</ele>
        <time>2015-06-08T13:04:50Z</time>
      </trkpt>
      <trkpt lat="47.46717" lon="6.70692">
        <ele>306</ele>
        <time>2015-06-08T13:04:51Z</time>
      </trkpt>
      <trkpt lat="47.46719" lon="6.70698">
        <ele>306.1</ele>
        <time>2015-06-08T13:04:52Z</time>
      </trkpt>
      <trkpt lat="47.46722" lon="6.70703">
        <ele>306</ele>
        <time>2015-06-08T13:04:53Z</time>
      </trkpt>
      <trkpt lat="47.46724" lon="6.70709">
        <ele>306.2</ele>
        <time>2015-06-08T13:04:54Z</time>
      </trkpt>
      <trkpt lat="47.46727" lon="6.70715">
        <ele>305.8</ele>
        <time>2015-06-08T13:04:55Z</time>
      </trkpt>
      <trkpt lat="47.46729" lon="6.7072">
        <ele>305.9</ele>
        <time>2015-06-08T13:04:56Z</time>
      </trkpt>
      <trkpt lat="47.46732" lon="6.70726">
        <ele>305.9</ele>
        <time>2015-06-08T13:04:57Z</time>
      </trkpt>
      <trkpt lat="47.46734" lon="6.70731">
        <ele>305.7</ele>
        <time>2015-06-08T13:04:58Z</time>
      </trkpt>
      <trkpt lat="47.46737" lon="6.70736">
        <ele>305.5</ele>
        <time>2015-06-08T13:04:59Z</time>
      </trkpt>
      <trkpt lat="47.46739" lon="6.70742">
        <ele>305.4</ele>
        <time>2015-06-08T13:05:00Z</time>
      </trkpt>
      <trkpt lat="47.46742" lon="6.70747">
        <ele>305.2</ele>
        <time>2015-06-08T13:05:01Z</time>
      </trkpt>
      <trkpt lat="47.46744" lon="6.70753">
        <ele>305.1</ele>
        <time>2015-06-08T13:05:02Z</time>
      </trkpt>
      <trkpt lat="47.46747" lon="6.70758">
        <ele>304.7</ele>
        <time>2015-06-08T13:05:03Z</time>
      </trkpt>
      <trkpt lat="47.46749" lon="6.70763">
        <ele>304.4</ele>
        <time>2015-06-08T13:05:04Z</time>
      </trkpt>
      <trkpt lat="47.46751" lon="6.70769">
        <ele>303.9</ele>
        <time>2015-06-08T13:05:05Z</time>
      </trkpt>
      <trkpt lat="47.46754" lon="6.70774">
        <ele>303.7</ele>
        <time>2015-06-08T13:05:06Z</time>
      </trkpt>
      <trkpt lat="47.46756" lon="6.7078">
        <ele>303.6</ele>
        <time>2015-06-08T13:05:07Z</time>
      </trkpt>
      <trkpt lat="47.46759" lon="6.70785">
        <ele>304.1</ele>
        <time>2015-06-08T13:05:08Z</time>
      </trkpt>
      <trkpt lat="47.46762" lon="6.7079">
        <ele>304.2</ele>
        <time>2015-06-08T13:05:09Z</time>
      </trkpt>
      <trkpt lat="47.46764" lon="6.70796">
        <ele>304.2</ele>
        <time>2015-06-08T13:05:10Z</time>
      </trkpt>
      <trkpt lat="47.46767" lon="6.70801">
        <ele>303.9</ele>
        <time>2015-06-08T13:05:11Z</time>
      </trkpt>
      <trkpt lat="47.4677" lon="6.70806">
        <ele>303.6</ele>
        <time>2015-06-08T13:05:12Z</time>
      </trkpt>
      <trkpt lat="47.46772" lon="6.70812">
        <ele>303.4</ele>
        <time>2015-06-08T13:05:13Z</time>
      </trkpt>
      <trkpt lat="47.46775" lon="6.70818">
        <ele>303.3</ele>
        <time>2015-06-08T13:05:14Z</time>
      </trkpt>
      <trkpt lat="47.46777" lon="6.70823">
        <ele>303.4</ele>
        <time>2015-06-08T13:05:15Z</time>
      </trkpt>
      <trkpt lat="47.46779" lon="6.70828">
        <ele>303.1</ele>
        <time>2015-06-08T13:05:16Z</time>
      </trkpt>
      <trkpt lat="47.46781" lon="6.70833">
        <ele>302.9</ele>
        <time>2015-06-08T13:05:17Z</time>
      </trkpt>
      <trkpt lat="47.46783" lon="6.70838">
        <ele>302.9</ele>
        <time>2015-06-08T13:05:18Z</time>
      </trkpt>
      <trkpt lat="47.46785" lon="6.70843">
        <ele>302.9</ele>
        <time>2015-06-08T13:05:19Z</time>
      </trkpt>
      <trkpt lat="47.46787" lon="6.70848">
        <ele>303.1</ele>
        <time>2015-06-08T13:05:20Z</time>
      </trkpt>
      <trkpt lat="47.46789" lon="6.70853">
        <ele>303</ele>
        <time>2015-06-08T13:05:21Z</time>
      </trkpt>
      <trkpt lat="47.46791" lon="6.70858">
        <ele>302.7</ele>
        <time>2015-06-08T13:05:22Z</time>
      </trkpt>
      <trkpt lat="47.46794" lon="6.70864">
        <ele>302.6</ele>
        <time>2015-06-08T13:05:23Z</time>
      </trkpt>
      <trkpt lat="47.46796" lon="6.7087">
        <ele>302.7</ele>
        <time>2015-06-08T13:05:24Z</time>
      </trkpt>
      <trkpt lat="47.46799" lon="6.70875">
        <ele>302.8</ele>
        <time>2015-06-08T13:05:25Z</time>
      </trkpt>
      <trkpt lat="47.46802" lon="6.70881">
        <ele>302.8</ele>
        <time>2015-06-08T13:05:26Z</time>
      </trkpt>
      <trkpt lat="47.46805" lon="6.70888">
        <ele>303</ele>
        <time>2015-06-08T13:05:27Z</time>
      </trkpt>
      <trkpt lat="47.46808" lon="6.70894">
        <ele>303.4</ele>
        <time>2015-06-08T13:05:28Z</time>
      </trkpt>
      <trkpt lat="47.46811" lon="6.70899">
        <ele>303.6</ele>
        <time>2015-06-08T13:05:29Z</time>
      </trkpt>
      <trkpt lat="47.46814" lon="6.70905">
        <ele>303.7</ele>
        <time>2015-06-08T13:05:30Z</time>
      </trkpt>
      <trkpt lat="47.46817" lon="6.70911">
        <ele>303.8</ele>
        <time>2015-06-08T13:05:31Z</time>
      </trkpt>
      <trkpt lat="47.46819" lon="6.70917">
        <ele>303.6</ele>
        <time>2015-06-08T13:05:32Z</time>
      </trkpt>
      <trkpt lat="47.46822" lon="6.70922">
        <ele>303.5</ele>
        <time>2015-06-08T13:05:33Z</time>
      </trkpt>
      <trkpt lat="47.46825" lon="6.70928">
        <ele>303.4</ele>
        <time>2015-06-08T13:05:34Z</time>
      </trkpt>
      <trkpt lat="47.46827" lon="6.70934">
        <ele>303.3</ele>
        <time>2015-06-08T13:05:35Z</time>
      </trkpt>
      <trkpt lat="47.4683" lon="6.7094">
        <ele>303.3</ele>
        <time>2015-06-08T13:05:36Z</time>
      </trkpt>
      <trkpt lat="47.46833" lon="6.70945">
        <ele>304.3</ele>
        <time>2015-06-08T13:05:37Z</time>
      </trkpt>
      <trkpt lat="47.46836" lon="6.7095">
        <ele>304.2</ele>
        <time>2015-06-08T13:05:38Z</time>
      </trkpt>
      <trkpt lat="47.46839" lon="6.70955">
        <ele>304.7</ele>
        <time>2015-06-08T13:05:39Z</time>
      </trkpt>
      <trkpt lat="47.46842" lon="6.7096">
        <ele>304.6</ele>
        <time>2015-06-08T13:05:40Z</time>
      </trkpt>
      <trkpt lat="47.46845" lon="6.70966">
        <ele>304.8</ele>
        <time>2015-06-08T13:05:41Z</time>
      </trkpt>
      <trkpt lat="47.46848" lon="6.70972">
        <ele>305</ele>
        <time>2015-06-08T13:05:42Z</time>
      </trkpt>
      <trkpt lat="47.46851" lon="6.70978">
        <ele>305</ele>
        <time>2015-06-08T13:05:43Z</time>
      </trkpt>
      <trkpt lat="47.46854" lon="6.70984">
        <ele>304.9</ele>
        <time>2015-06-08T13:05:44Z</time>
      </trkpt>
      <trkpt lat="47.46857" lon="6.70989">
        <ele>305.3</ele>
        <time>2015-06-08T13:05:45Z</time>
      </trkpt>
      <trkpt lat="47.4686" lon="6.70995">
        <ele>305.1</ele>
        <time>2015-06-08T13:05:46Z</time>
      </trkpt>
      <trkpt lat="47.46863" lon="6.71001">
        <ele>305.6</ele>
        <time>2015-06-08T13:05:47Z</time>
      </trkpt>
      <trkpt lat="47.46865" lon="6.71007">
        <ele>305.9</ele>
        <time>2015-06-08T13:05:48Z</time>
      </trkpt>
      <trkpt lat="47.46868" lon="6.71013">
        <ele>305.8</ele>
        <time>2015-06-08T13:05:49Z</time>
      </trkpt>
      <trkpt lat="47.4687" lon="6.71018">
        <ele>305.7</ele>
        <time>2015-06-08T13:05:50Z</time>
      </trkpt>
      <trkpt lat="47.46873" lon="6.71024">
        <ele>305.9</ele>
        <time>2015-06-08T13:05:51Z</time>
      </trkpt>
      <trkpt lat="47.46875" lon="6.71029">
        <ele>306.1</ele>
        <time>2015-06-08T13:05:52Z</time>
      </trkpt>
      <trkpt lat="47.46878" lon="6.71035">
        <ele>306.4</ele>
        <time>2015-06-08T13:05:53Z</time>
      </trkpt>
      <trkpt lat="47.4688" lon="6.71041">
        <ele>306.5</ele>
        <time>2015-06-08T13:05:54Z</time>
      </trkpt>
      <trkpt lat="47.46882" lon="6.71046">
        <ele>306.3</ele>
        <time>2015-06-08T13:05:55Z</time>
      </trkpt>
      <trkpt lat="47.46885" lon="6.71052">
        <ele>306.3</ele>
        <time>2015-06-08T13:05:56Z</time>
      </trkpt>
      <trkpt lat="47.46887" lon="6.71057">
        <ele>306.4</ele>
        <time>2015-06-08T13:05:57Z</time>
      </trkpt>
      <trkpt lat="47.46889" lon="6.71063">
        <ele>306.5</ele>
        <time>2015-06-08T13:05:58Z</time>
      </trkpt>
      <trkpt lat="47.46892" lon="6.71068">
        <ele>306.6</ele>
        <time>2015-06-08T13:05:59Z</time>
      </trkpt>
      <trkpt lat="47.46894" lon="6.71073">
        <ele>306.9</ele>
        <time>2015-06-08T13:06:00Z</time>
      </trkpt>
      <trkpt lat="47.46897" lon="6.71078">
        <ele>307.1</ele>
        <time>2015-06-08T13:06:01Z</time>
      </trkpt>
      <trkpt lat="47.46899" lon="6.71083">
        <ele>307.3</ele>
        <time>2015-06-08T13:06:02Z</time>
      </trkpt>
      <trkpt lat="47.46901" lon="6.71088">
        <ele>307.4</ele>
        <time>2015-06-08T13:06:03Z</time>
      </trkpt>
      <trkpt lat="47.46904" lon="6.71094">
        <ele>307.6</ele>
        <time>2015-06-08T13:06:04Z</time>
      </trkpt>
      <trkpt lat="47.46906" lon="6.71099">
        <ele>307.7</ele>
        <time>2015-06-08T13:06:05Z</time>
      </trkpt>
      <trkpt lat="47.46909" lon="6.71105">
        <ele>307.9</ele>
        <time>2015-06-08T13:06:06Z</time>
      </trkpt>
      <trkpt lat="47.46911" lon="6.71111">
        <ele>308.2</ele>
        <time>2015-06-08T13:06:07Z</time>
      </trkpt>
      <trkpt lat="47.46914" lon="6.71117">
        <ele>308.2</ele>
        <time>2015-06-08T13:06:08Z</time>
      </trkpt>
      <trkpt lat="47.46916" lon="6.71122">
        <ele>308.1</ele>
        <time>2015-06-08T13:06:09Z</time>
      </trkpt>
      <trkpt lat="47.46919" lon="6.71128">
        <ele>308.2</ele>
        <time>2015-06-08T13:06:10Z</time>
      </trkpt>
      <trkpt lat="47.46921" lon="6.71133">
        <ele>308.5</ele>
        <time>2015-06-08T13:06:11Z</time>
      </trkpt>
      <trkpt lat="47.46924" lon="6.71138">
        <ele>308.7</ele>
        <time>2015-06-08T13:06:12Z</time>
      </trkpt>
      <trkpt lat="47.46926" lon="6.71144">
        <ele>308.6</ele>
        <time>2015-06-08T13:06:13Z</time>
      </trkpt>
      <trkpt lat="47.46928" lon="6.7115">
        <ele>308.6</ele>
        <time>2015-06-08T13:06:14Z</time>
      </trkpt>
      <trkpt lat="47.4693" lon="6.71156">
        <ele>308.5</ele>
        <time>2015-06-08T13:06:15Z</time>
      </trkpt>
      <trkpt lat="47.46933" lon="6.71162">
        <ele>308.7</ele>
        <time>2015-06-08T13:06:16Z</time>
      </trkpt>
      <trkpt lat="47.46935" lon="6.71168">
        <ele>308.6</ele>
        <time>2015-06-08T13:06:17Z</time>
      </trkpt>
      <trkpt lat="47.46937" lon="6.71173">
        <ele>308.2</ele>
        <time>2015-06-08T13:06:18Z</time>
      </trkpt>
      <trkpt lat="47.46939" lon="6.71178">
        <ele>307.9</ele>
        <time>2015-06-08T13:06:19Z</time>
      </trkpt>
      <trkpt lat="47.46942" lon="6.71184">
        <ele>307.9</ele>
        <time>2015-06-08T13:06:20Z</time>
      </trkpt>
      <trkpt lat="47.46944" lon="6.71189">
        <ele>307.9</ele>
        <time>2015-06-08T13:06:21Z</time>
      </trkpt>
      <trkpt lat="47.46946" lon="6.71195">
        <ele>307.6</ele>
        <time>2015-06-08T13:06:22Z</time>
      </trkpt>
      <trkpt lat="47.46948" lon="6.712">
        <ele>307.2</ele>
        <time>2015-06-08T13:06:23Z</time>
      </trkpt>
      <trkpt lat="47.4695" lon="6.71205">
        <ele>306.9</ele>
        <time>2015-06-08T13:06:24Z</time>
      </trkpt>
      <trkpt lat="47.46953" lon="6.71211">
        <ele>306.8</ele>
        <time>2015-06-08T13:06:25Z</time>
      </trkpt>
      <trkpt lat="47.46955" lon="6.71216">
        <ele>306.9</ele>
        <time>2015-06-08T13:06:26Z</time>
      </trkpt>
      <trkpt lat="47.46957" lon="6.71222">
        <ele>306.7</ele>
        <time>2015-06-08T13:06:27Z</time>
      </trkpt>
      <trkpt lat="47.4696" lon="6.71227">
        <ele>306.5</ele>
        <time>2015-06-08T13:06:28Z</time>
      </trkpt>
      <trkpt lat="47.46962" lon="6.71232">
        <ele>306.4</ele>
        <time>2015-06-08T13:06:29Z</time>
      </trkpt>
      <trkpt lat="47.46964" lon="6.71238">
        <ele>306.6</ele>
        <time>2015-06-08T13:06:30Z</time>
      </trkpt>
      <trkpt lat="47.46967" lon="6.71243">
        <ele>306.6</ele>
        <time>2015-06-08T13:06:31Z</time>
      </trkpt>
      <trkpt lat="47.46969" lon="6.71249">
        <ele>306.6</ele>
        <time>2015-06-08T13:06:32Z</time>
      </trkpt>
      <trkpt lat="47.46972" lon="6.71255">
        <ele>306.7</ele>
        <time>2015-06-08T13:06:33Z</time>
      </trkpt>
      <trkpt lat="47.46975" lon="6.7126">
        <ele>306.7</ele>
        <time>2015-06-08T13:06:34Z</time>
      </trkpt>
      <trkpt lat="47.46977" lon="6.71266">
        <ele>306.9</ele>
        <time>2015-06-08T13:06:35Z</time>
      </trkpt>
      <trkpt lat="47.46979" lon="6.71271">
        <ele>307.2</ele>
        <time>2015-06-08T13:06:36Z</time>
      </trkpt>
      <trkpt lat="47.46982" lon="6.71277">
        <ele>307.1</ele>
        <time>2015-06-08T13:06:37Z</time>
      </trkpt>
      <trkpt lat="47.46984" lon="6.71283">
        <ele>307.2</ele>
        <time>2015-06-08T13:06:38Z</time>
      </trkpt>
      <trkpt lat="47.46986" lon="6.71288">
        <ele>307.3</ele>
        <time>2015-06-08T13:06:39Z</time>
      </trkpt>
      <trkpt lat="47.46989" lon="6.71294">
        <ele>307.4</ele>
        <time>2015-06-08T13:06:40Z</time>
      </trkpt>
      <trkpt lat="47.46991" lon="6.71299">
        <ele>307.5</ele>
        <time>2015-06-08T13:06:41Z</time>
      </trkpt>
      <trkpt lat="47.46993" lon="6.71305">
        <ele>307.3</ele>
        <time>2015-06-08T13:06:42Z</time>
      </trkpt>
      <trkpt lat="47.46996" lon="6.71311">
        <ele>307.2</ele>
        <time>2015-06-08T13:06:43Z</time>
      </trkpt>
      <trkpt lat="47.46998" lon="6.71316">
        <ele>307.2</ele>
        <time>2015-06-08T13:06:44Z</time>
      </trkpt>
      <trkpt lat="47.47" lon="6.71322">
        <ele>307.5</ele>
        <time>2015-06-08T13:06:45Z</time>
      </trkpt>
      <trkpt lat="47.47002" lon="6.71327">
        <ele>307.4</ele>
        <time>2015-06-08T13:06:46Z</time>
      </trkpt>
      <trkpt lat="47.47005" lon="6.71333">
        <ele>307.5</ele>
        <time>2015-06-08T13:06:47Z</time>
      </trkpt>
      <trkpt lat="47.47008" lon="6.71339">
        <ele>307.4</ele>
        <time>2015-06-08T13:06:48Z</time>
      </trkpt>
      <trkpt lat="47.4701" lon="6.71344">
        <ele>307.2</ele>
        <time>2015-06-08T13:06:49Z</time>
      </trkpt>
      <trkpt lat="47.47012" lon="6.7135">
        <ele>307.2</ele>
        <time>2015-06-08T13:06:50Z</time>
      </trkpt>
      <trkpt lat="47.47015" lon="6.71355">
        <ele>307.2</ele>
        <time>2015-06-08T13:06:51Z</time>
      </trkpt>
      <trkpt lat="47.47017" lon="6.71361">
        <ele>307.1</ele>
        <time>2015-06-08T13:06:52Z</time>
      </trkpt>
      <trkpt lat="47.47019" lon="6.71367">
        <ele>307</ele>
        <time>2015-06-08T13:06:53Z</time>
      </trkpt>
      <trkpt lat="47.47021" lon="6.71373">
        <ele>307.1</ele>
        <time>2015-06-08T13:06:54Z</time>
      </trkpt>
      <trkpt lat="47.47023" lon="6.71378">
        <ele>307</ele>
        <time>2015-06-08T13:06:55Z</time>
      </trkpt>
      <trkpt lat="47.47025" lon="6.71384">
        <ele>307.1</ele>
        <time>2015-06-08T13:06:56Z</time>
      </trkpt>
      <trkpt lat="47.47028" lon="6.7139">
        <ele>307.3</ele>
        <time>2015-06-08T13:06:57Z</time>
      </trkpt>
      <trkpt lat="47.4703" lon="6.71396">
        <ele>307.4</ele>
        <time>2015-06-08T13:06:58Z</time>
      </trkpt>
      <trkpt lat="47.47032" lon="6.71402">
        <ele>307.5</ele>
        <time>2015-06-08T13:06:59Z</time>
      </trkpt>
      <trkpt lat="47.47035" lon="6.71408">
        <ele>307.6</ele>
        <time>2015-06-08T13:07:00Z</time>
      </trkpt>
      <trkpt lat="47.47037" lon="6.71413">
        <ele>307.4</ele>
        <time>2015-06-08T13:07:01Z</time>
      </trkpt>
      <trkpt lat="47.4704" lon="6.71419">
        <ele>307.4</ele>
        <time>2015-06-08T13:07:02Z</time>
      </trkpt>
      <trkpt lat="47.47042" lon="6.71425">
        <ele>307.5</ele>
        <time>2015-06-08T13:07:03Z</time>
      </trkpt>
      <trkpt lat="47.47044" lon="6.71432">
        <ele>307.8</ele>
        <time>2015-06-08T13:07:04Z</time>
      </trkpt>
      <trkpt lat="47.47046" lon="6.71438">
        <ele>308</ele>
        <time>2015-06-08T13:07:05Z</time>
      </trkpt>
      <trkpt lat="47.47049" lon="6.71444">
        <ele>308.2</ele>
        <time>2015-06-08T13:07:06Z</time>
      </trkpt>
      <trkpt lat="47.47051" lon="6.7145">
        <ele>308.2</ele>
        <time>2015-06-08T13:07:07Z</time>
      </trkpt>
      <trkpt lat="47.47053" lon="6.71456">
        <ele>308.4</ele>
        <time>2015-06-08T13:07:08Z</time>
      </trkpt>
      <trkpt lat="47.47055" lon="6.71462">
        <ele>308.6</ele>
        <time>2015-06-08T13:07:09Z</time>
      </trkpt>
      <trkpt lat="47.47057" lon="6.71467">
        <ele>308.7</ele>
        <time>2015-06-08T13:07:10Z</time>
      </trkpt>
      <trkpt lat="47.47059" lon="6.71473">
        <ele>308.4</ele>
        <time>2015-06-08T13:07:11Z</time>
      </trkpt>
      <trkpt lat="47.47061" lon="6.71479">
        <ele>308.7</ele>
        <time>2015-06-08T13:07:12Z</time>
      </trkpt>
      <trkpt lat="47.47064" lon="6.71485">
        <ele>308.8</ele>
        <time>2015-06-08T13:07:13Z</time>
      </trkpt>
      <trkpt lat="47.47066" lon="6.71491">
        <ele>308.9</ele>
        <time>2015-06-08T13:07:14Z</time>
      </trkpt>
      <trkpt lat="47.47067" lon="6.71497">
        <ele>308.8</ele>
        <time>2015-06-08T13:07:15Z</time>
      </trkpt>
      <trkpt lat="47.4707" lon="6.71503">
        <ele>308.9</ele>
        <time>2015-06-08T13:07:16Z</time>
      </trkpt>
      <trkpt lat="47.47071" lon="6.71508">
        <ele>308.7</ele>
        <time>2015-06-08T13:07:17Z</time>
      </trkpt>
      <trkpt lat="47.47073" lon="6.71514">
        <ele>308.6</ele>
        <time>2015-06-08T13:07:18Z</time>
      </trkpt>
      <trkpt lat="47.47074" lon="6.71521">
        <ele>308.6</ele>
        <time>2015-06-08T13:07:19Z</time>
      </trkpt>
      <trkpt lat="47.47076" lon="6.71527">
        <ele>308.3</ele>
        <time>2015-06-08T13:07:20Z</time>
      </trkpt>
      <trkpt lat="47.47078" lon="6.71533">
        <ele>308.9</ele>
        <time>2015-06-08T13:07:21Z</time>
      </trkpt>
      <trkpt lat="47.4708" lon="6.71539">
        <ele>309.2</ele>
        <time>2015-06-08T13:07:22Z</time>
      </trkpt>
      <trkpt lat="47.47082" lon="6.71545">
        <ele>309.1</ele>
        <time>2015-06-08T13:07:23Z</time>
      </trkpt>
      <trkpt lat="47.47084" lon="6.71551">
        <ele>308.7</ele>
        <time>2015-06-08T13:07:24Z</time>
      </trkpt>
      <trkpt lat="47.47086" lon="6.71558">
        <ele>308.5</ele>
        <time>2015-06-08T13:07:25Z</time>
      </trkpt>
      <trkpt lat="47.47088" lon="6.71564">
        <ele>308.7</ele>
        <time>2015-06-08T13:07:26Z</time>
      </trkpt>
      <trkpt lat="47.4709" lon="6.7157">
        <ele>308.9</ele>
        <time>2015-06-08T13:07:27Z</time>
      </trkpt>
      <trkpt lat="47.47092" lon="6.71577">
        <ele>309.2</ele>
        <time>2015-06-08T13:07:28Z</time>
      </trkpt>
      <trkpt lat="47.47094" lon="6.71583">
        <ele>309.1</ele>
        <time>2015-06-08T13:07:29Z</time>
      </trkpt>
      <trkpt lat="47.47096" lon="6.71589">
        <ele>308.5</ele>
        <time>2015-06-08T13:07:30Z</time>
      </trkpt>
      <trkpt lat="47.47098" lon="6.71596">
        <ele>308.3</ele>
        <time>2015-06-08T13:07:31Z</time>
      </trkpt>
      <trkpt lat="47.471" lon="6.71602">
        <ele>308.3</ele>
        <time>2015-06-08T13:07:32Z</time>
      </trkpt>
      <trkpt lat="47.47102" lon="6.71607">
        <ele>308.9</ele>
        <time>2015-06-08T13:07:33Z</time>
      </trkpt>
      <trkpt lat="47.47104" lon="6.71613">
        <ele>309.2</ele>
        <time>2015-06-08T13:07:34Z</time>
      </trkpt>
      <trkpt lat="47.47106" lon="6.71619">
        <ele>308.9</ele>
        <time>2015-06-08T13:07:35Z</time>
      </trkpt>
      <trkpt lat="47.47108" lon="6.71625">
        <ele>308.4</ele>
        <time>2015-06-08T13:07:36Z</time>
      </trkpt>
      <trkpt lat="47.47109" lon="6.71631">
        <ele>308.1</ele>
        <time>2015-06-08T13:07:37Z</time>
      </trkpt>
      <trkpt lat="47.47111" lon="6.71637">
        <ele>307.6</ele>
        <time>2015-06-08T13:07:38Z</time>
      </trkpt>
      <trkpt lat="47.47112" lon="6.71644">
        <ele>307.4</ele>
        <time>2015-06-08T13:07:39Z</time>
      </trkpt>
      <trkpt lat="47.47114" lon="6.71651">
        <ele>307</ele>
        <time>2015-06-08T13:07:40Z</time>
      </trkpt>
      <trkpt lat="47.47116" lon="6.71658">
        <ele>306.7</ele>
        <time>2015-06-08T13:07:41Z</time>
      </trkpt>
      <trkpt lat="47.47117" lon="6.71665">
        <ele>306.5</ele>
        <time>2015-06-08T13:07:42Z</time>
      </trkpt>
      <trkpt lat="47.4712" lon="6.71672">
        <ele>306.3</ele>
        <time>2015-06-08T13:07:43Z</time>
      </trkpt>
      <trkpt lat="47.47122" lon="6.71679">
        <ele>306.2</ele>
        <time>2015-06-08T13:07:44Z</time>
      </trkpt>
      <trkpt lat="47.47123" lon="6.71685">
        <ele>306.1</ele>
        <time>2015-06-08T13:07:45Z</time>
      </trkpt>
      <trkpt lat="47.47125" lon="6.71691">
        <ele>305.9</ele>
        <time>2015-06-08T13:07:46Z</time>
      </trkpt>
      <trkpt lat="47.47127" lon="6.71697">
        <ele>305.7</ele>
        <time>2015-06-08T13:07:47Z</time>
      </trkpt>
      <trkpt lat="47.47129" lon="6.71704">
        <ele>305.3</ele>
        <time>2015-06-08T13:07:48Z</time>
      </trkpt>
      <trkpt lat="47.47131" lon="6.71711">
        <ele>305.2</ele>
        <time>2015-06-08T13:07:49Z</time>
      </trkpt>
      <trkpt lat="47.47132" lon="6.71717">
        <ele>305.1</ele>
        <time>2015-06-08T13:07:50Z</time>
      </trkpt>
      <trkpt lat="47.47134" lon="6.71723">
        <ele>305</ele>
        <time>2015-06-08T13:07:51Z</time>
      </trkpt>
      <trkpt lat="47.47136" lon="6.71729">
        <ele>304.8</ele>
        <time>2015-06-08T13:07:52Z</time>
      </trkpt>
      <trkpt lat="47.47137" lon="6.71735">
        <ele>304.4</ele>
        <time>2015-06-08T13:07:53Z</time>
      </trkpt>
      <trkpt lat="47.47139" lon="6.71741">
        <ele>304.2</ele>
        <time>2015-06-08T13:07:54Z</time>
      </trkpt>
      <trkpt lat="47.47141" lon="6.71747">
        <ele>303.9</ele>
        <time>2015-06-08T13:07:55Z</time>
      </trkpt>
      <trkpt lat="47.47143" lon="6.71752">
        <ele>303.4</ele>
        <time>2015-06-08T13:07:56Z</time>
      </trkpt>
      <trkpt lat="47.47145" lon="6.71758">
        <ele>303.2</ele>
        <time>2015-06-08T13:07:57Z</time>
      </trkpt>
      <trkpt lat="47.47146" lon="6.71761">
        <ele>305.1</ele>
        <time>2015-06-08T13:07:58Z</time>
      </trkpt>
      <trkpt lat="47.47148" lon="6.71765">
        <ele>306.1</ele>
        <time>2015-06-08T13:07:59Z</time>
      </trkpt>
      <trkpt lat="47.4715" lon="6.7177">
        <ele>306.8</ele>
        <time>2015-06-08T13:08:00Z</time>
      </trkpt>
      <trkpt lat="47.47152" lon="6.71775">
        <ele>307.1</ele>
        <time>2015-06-08T13:08:01Z</time>
      </trkpt>
      <trkpt lat="47.47154" lon="6.71781">
        <ele>307.3</ele>
        <time>2015-06-08T13:08:02Z</time>
      </trkpt>
      <trkpt lat="47.47156" lon="6.71786">
        <ele>307.1</ele>
        <time>2015-06-08T13:08:03Z</time>
      </trkpt>
      <trkpt lat="47.47158" lon="6.71792">
        <ele>307.2</ele>
        <time>2015-06-08T13:08:04Z</time>
      </trkpt>
      <trkpt lat="47.4716" lon="6.71797">
        <ele>307.3</ele>
        <time>2015-06-08T13:08:05Z</time>
      </trkpt>
      <trkpt lat="47.47162" lon="6.71803">
        <ele>307.5</ele>
        <time>2015-06-08T13:08:06Z</time>
      </trkpt>
      <trkpt lat="47.47164" lon="6.71809">
        <ele>307.6</ele>
        <time>2015-06-08T13:08:07Z</time>
      </trkpt>
      <trkpt lat="47.47166" lon="6.71815">
        <ele>307.7</ele>
        <time>2015-06-08T13:08:08Z</time>
      </trkpt>
      <trkpt lat="47.47167" lon="6.71821">
        <ele>307.6</ele>
        <time>2015-06-08T13:08:09Z</time>
      </trkpt>
      <trkpt lat="47.47169" lon="6.71827">
        <ele>307.8</ele>
        <time>2015-06-08T13:08:10Z</time>
      </trkpt>
      <trkpt lat="47.47171" lon="6.71832">
        <ele>308.6</ele>
        <time>2015-06-08T13:08:11Z</time>
      </trkpt>
      <trkpt lat="47.47173" lon="6.71838">
        <ele>309.5</ele>
        <time>2015-06-08T13:08:12Z</time>
      </trkpt>
      <trkpt lat="47.47175" lon="6.71843">
        <ele>309.9</ele>
        <time>2015-06-08T13:08:13Z</time>
      </trkpt>
      <trkpt lat="47.47177" lon="6.71849">
        <ele>310</ele>
        <time>2015-06-08T13:08:14Z</time>
      </trkpt>
      <trkpt lat="47.47179" lon="6.71855">
        <ele>310.2</ele>
        <time>2015-06-08T13:08:15Z</time>
      </trkpt>
      <trkpt lat="47.47182" lon="6.71861">
        <ele>310</ele>
        <time>2015-06-08T13:08:16Z</time>
      </trkpt>
      <trkpt lat="47.47184" lon="6.71867">
        <ele>309.7</ele>
        <time>2015-06-08T13:08:17Z</time>
      </trkpt>
      <trkpt lat="47.47186" lon="6.71873">
        <ele>309.5</ele>
        <time>2015-06-08T13:08:18Z</time>
      </trkpt>
      <trkpt lat="47.47188" lon="6.71881">
        <ele>309.5</ele>
        <time>2015-06-08T13:08:19Z</time>
      </trkpt>
      <trkpt lat="47.4719" lon="6.71888">
        <ele>309.5</ele>
        <time>2015-06-08T13:08:20Z</time>
      </trkpt>
      <trkpt lat="47.47192" lon="6.71894">
        <ele>309.6</ele>
        <time>2015-06-08T13:08:21Z</time>
      </trkpt>
      <trkpt lat="47.47195" lon="6.71901">
        <ele>309.6</ele>
        <time>2015-06-08T13:08:22Z</time>
      </trkpt>
      <trkpt lat="47.47197" lon="6.71907">
        <ele>309.9</ele>
        <time>2015-06-08T13:08:23Z</time>
      </trkpt>
      <trkpt lat="47.47199" lon="6.71913">
        <ele>310</ele>
        <time>2015-06-08T13:08:24Z</time>
      </trkpt>
      <trkpt lat="47.47201" lon="6.71919">
        <ele>309.8</ele>
        <time>2015-06-08T13:08:25Z</time>
      </trkpt>
      <trkpt lat="47.47204" lon="6.71925">
        <ele>309.8</ele>
        <time>2015-06-08T13:08:26Z</time>
      </trkpt>
      <trkpt lat="47.47206" lon="6.71931">
        <ele>309.6</ele>
        <time>2015-06-08T13:08:27Z</time>
      </trkpt>
      <trkpt lat="47.47208" lon="6.71937">
        <ele>309.4</ele>
        <time>2015-06-08T13:08:28Z</time>
      </trkpt>
      <trkpt lat="47.4721" lon="6.71943">
        <ele>309.3</ele>
        <time>2015-06-08T13:08:29Z</time>
      </trkpt>
      <trkpt lat="47.47212" lon="6.71949">
        <ele>309.3</ele>
        <time>2015-06-08T13:08:30Z</time>
      </trkpt>
      <trkpt lat="47.47214" lon="6.71954">
        <ele>309.3</ele>
        <time>2015-06-08T13:08:31Z</time>
      </trkpt>
      <trkpt lat="47.47216" lon="6.7196">
        <ele>309.4</ele>
        <time>2015-06-08T13:08:32Z</time>
      </trkpt>
      <trkpt lat="47.47218" lon="6.71965">
        <ele>309.3</ele>
        <time>2015-06-08T13:08:33Z</time>
      </trkpt>
      <trkpt lat="47.4722" lon="6.7197">
        <ele>309.8</ele>
        <time>2015-06-08T13:08:34Z</time>
      </trkpt>
      <trkpt lat="47.47222" lon="6.71975">
        <ele>310</ele>
        <time>2015-06-08T13:08:35Z</time>
      </trkpt>
      <trkpt lat="47.47225" lon="6.7198">
        <ele>310.1</ele>
        <time>2015-06-08T13:08:36Z</time>
      </trkpt>
      <trkpt lat="47.47227" lon="6.71985">
        <ele>309.9</ele>
        <time>2015-06-08T13:08:37Z</time>
      </trkpt>
      <trkpt lat="47.47229" lon="6.71991">
        <ele>309.8</ele>
        <time>2015-06-08T13:08:38Z</time>
      </trkpt>
      <trkpt lat="47.47231" lon="6.71996">
        <ele>310</ele>
        <time>2015-06-08T13:08:39Z</time>
      </trkpt>
      <trkpt lat="47.47234" lon="6.72002">
        <ele>309.9</ele>
        <time>2015-06-08T13:08:40Z</time>
      </trkpt>
      <trkpt lat="47.47236" lon="6.72007">
        <ele>309.7</ele>
        <time>2015-06-08T13:08:41Z</time>
      </trkpt>
      <trkpt lat="47.47239" lon="6.72012">
        <ele>309.5</ele>
        <time>2015-06-08T13:08:42Z</time>
      </trkpt>
      <trkpt lat="47.47241" lon="6.72017">
        <ele>309</ele>
        <time>2015-06-08T13:08:43Z</time>
      </trkpt>
      <trkpt lat="47.47244" lon="6.72023">
        <ele>308.9</ele>
        <time>2015-06-08T13:08:44Z</time>
      </trkpt>
      <trkpt lat="47.47246" lon="6.72028">
        <ele>308.6</ele>
        <time>2015-06-08T13:08:45Z</time>
      </trkpt>
      <trkpt lat="47.47249" lon="6.72034">
        <ele>308.8</ele>
        <time>2015-06-08T13:08:46Z</time>
      </trkpt>
      <trkpt lat="47.47252" lon="6.72039">
        <ele>309.4</ele>
        <time>2015-06-08T13:08:47Z</time>
      </trkpt>
      <trkpt lat="47.47254" lon="6.72044">
        <ele>309.6</ele>
        <time>2015-06-08T13:08:48Z</time>
      </trkpt>
      <trkpt lat="47.47256" lon="6.7205">
        <ele>309.4</ele>
        <time>2015-06-08T13:08:49Z</time>
      </trkpt>
      <trkpt lat="47.47259" lon="6.72055">
        <ele>309.1</ele>
        <time>2015-06-08T13:08:50Z</time>
      </trkpt>
      <trkpt lat="47.47261" lon="6.7206">
        <ele>309.1</ele>
        <time>2015-06-08T13:08:51Z</time>
      </trkpt>
      <trkpt lat="47.47263" lon="6.72065">
        <ele>309.1</ele>
        <time>2015-06-08T13:08:52Z</time>
      </trkpt>
      <trkpt lat="47.47265" lon="6.7207">
        <ele>309.6</ele>
        <time>2015-06-08T13:08:53Z</time>
      </trkpt>
      <trkpt lat="47.47267" lon="6.72075">
        <ele>309.5</ele>
        <time>2015-06-08T13:08:54Z</time>
      </trkpt>
      <trkpt lat="47.47269" lon="6.72081">
        <ele>309.5</ele>
        <time>2015-06-08T13:08:55Z</time>
      </trkpt>
      <trkpt lat="47.47271" lon="6.72087">
        <ele>309.7</ele>
        <time>2015-06-08T13:08:56Z</time>
      </trkpt>
      <trkpt lat="47.47274" lon="6.72092">
        <ele>309.7</ele>
        <time>2015-06-08T13:08:57Z</time>
      </trkpt>
      <trkpt lat="47.47276" lon="6.72097">
        <ele>309.6</ele>
        <time>2015-06-08T13:08:58Z</time>
      </trkpt>
      <trkpt lat="47.47279" lon="6.72103">
        <ele>309.7</ele>
        <time>2015-06-08T13:08:59Z</time>
      </trkpt>
      <trkpt lat="47.47281" lon="6.72108">
        <ele>309.9</ele>
        <time>2015-06-08T13:09:00Z</time>
      </trkpt>
      <trkpt lat="47.47283" lon="6.72114">
        <ele>309.7</ele>
        <time>2015-06-08T13:09:01Z</time>
      </trkpt>
      <trkpt lat="47.47286" lon="6.72119">
        <ele>309.8</ele>
        <time>2015-06-08T13:09:02Z</time>
      </trkpt>
      <trkpt lat="47.47288" lon="6.72125">
        <ele>309.9</ele>
        <time>2015-06-08T13:09:03Z</time>
      </trkpt>
      <trkpt lat="47.4729" lon="6.7213">
        <ele>309.9</ele>
        <time>2015-06-08T13:09:04Z</time>
      </trkpt>
      <trkpt lat="47.47292" lon="6.72136">
        <ele>310.1</ele>
        <time>2015-06-08T13:09:05Z</time>
      </trkpt>
      <trkpt lat="47.47295" lon="6.72141">
        <ele>310.1</ele>
        <time>2015-06-08T13:09:06Z</time>
      </trkpt>
      <trkpt lat="47.47297" lon="6.72147">
        <ele>309.9</ele>
        <time>2015-06-08T13:09:07Z</time>
      </trkpt>
      <trkpt lat="47.47298" lon="6.72152">
        <ele>310.1</ele>
        <time>2015-06-08T13:09:08Z</time>
      </trkpt>
      <trkpt lat="47.473" lon="6.72158">
        <ele>310.4</ele>
        <time>2015-06-08T13:09:09Z</time>
      </trkpt>
      <trkpt lat="47.47303" lon="6.72163">
        <ele>310.5</ele>
        <time>2015-06-08T13:09:10Z</time>
      </trkpt>
      <trkpt lat="47.47305" lon="6.72169">
        <ele>310.7</ele>
        <time>2015-06-08T13:09:11Z</time>
      </trkpt>
      <trkpt lat="47.47307" lon="6.72174">
        <ele>311.2</ele>
        <time>2015-06-08T13:09:12Z</time>
      </trkpt>
      <trkpt lat="47.47309" lon="6.7218">
        <ele>311.1</ele>
        <time>2015-06-08T13:09:13Z</time>
      </trkpt>
      <trkpt lat="47.47311" lon="6.72185">
        <ele>310.9</ele>
        <time>2015-06-08T13:09:14Z</time>
      </trkpt>
      <trkpt lat="47.47313" lon="6.7219">
        <ele>311</ele>
        <time>2015-06-08T13:09:15Z</time>
      </trkpt>
      <trkpt lat="47.47315" lon="6.72196">
        <ele>311.1</ele>
        <time>2015-06-08T13:09:16Z</time>
      </trkpt>
      <trkpt lat="47.47317" lon="6.72202">
        <ele>311.2</ele>
        <time>2015-06-08T13:09:17Z</time>
      </trkpt>
      <trkpt lat="47.47319" lon="6.72207">
        <ele>311</ele>
        <time>2015-06-08T13:09:18Z</time>
      </trkpt>
      <trkpt lat="47.47321" lon="6.72213">
        <ele>310.9</ele>
        <time>2015-06-08T13:09:19Z</time>
      </trkpt>
      <trkpt lat="47.47323" lon="6.72219">
        <ele>310.5</ele>
        <time>2015-06-08T13:09:20Z</time>
      </trkpt>
      <trkpt lat="47.47325" lon="6.72225">
        <ele>309.9</ele>
        <time>2015-06-08T13:09:21Z</time>
      </trkpt>
      <trkpt lat="47.47326" lon="6.72231">
        <ele>309.6</ele>
        <time>2015-06-08T13:09:22Z</time>
      </trkpt>
      <trkpt lat="47.47328" lon="6.72237">
        <ele>309.5</ele>
        <time>2015-06-08T13:09:23Z</time>
      </trkpt>
      <trkpt lat="47.4733" lon="6.72243">
        <ele>309.4</ele>
        <time>2015-06-08T13:09:24Z</time>
      </trkpt>
      <trkpt lat="47.47332" lon="6.72248">
        <ele>309.3</ele>
        <time>2015-06-08T13:09:25Z</time>
      </trkpt>
      <trkpt lat="47.47334" lon="6.72254">
        <ele>309.2</ele>
        <time>2015-06-08T13:09:26Z</time>
      </trkpt>
      <trkpt lat="47.47335" lon="6.7226">
        <ele>309.1</ele>
        <time>2015-06-08T13:09:27Z</time>
      </trkpt>
      <trkpt lat="47.47337" lon="6.72265">
        <ele>309.4</ele>
        <time>2015-06-08T13:09:28Z</time>
      </trkpt>
      <trkpt lat="47.47339" lon="6.72272">
        <ele>309.4</ele>
        <time>2015-06-08T13:09:29Z</time>
      </trkpt>
      <trkpt lat="47.4734" lon="6.72278">
        <ele>309.4</ele>
        <time>2015-06-08T13:09:30Z</time>
      </trkpt>
      <trkpt lat="47.47342" lon="6.72284">
        <ele>309.3</ele>
        <time>2015-06-08T13:09:31Z</time>
      </trkpt>
      <trkpt lat="47.47344" lon="6.72291">
        <ele>309.2</ele>
        <time>2015-06-08T13:09:32Z</time>
      </trkpt>
      <trkpt lat="47.47345" lon="6.72297">
        <ele>309.2</ele>
        <time>2015-06-08T13:09:33Z</time>
      </trkpt>
      <trkpt lat="47.47347" lon="6.72304">
        <ele>309.3</ele>
        <time>2015-06-08T13:09:34Z</time>
      </trkpt>
      <trkpt lat="47.47348" lon="6.7231">
        <ele>309.4</ele>
        <time>2015-06-08T13:09:35Z</time>
      </trkpt>
      <trkpt lat="47.4735" lon="6.72316">
        <ele>309.9</ele>
        <time>2015-06-08T13:09:36Z</time>
      </trkpt>
      <trkpt lat="47.47352" lon="6.72323">
        <ele>310</ele>
        <time>2015-06-08T13:09:37Z</time>
      </trkpt>
      <trkpt lat="47.47353" lon="6.72329">
        <ele>310.9</ele>
        <time>2015-06-08T13:09:38Z</time>
      </trkpt>
      <trkpt lat="47.47356" lon="6.72335">
        <ele>312.3</ele>
        <time>2015-06-08T13:09:39Z</time>
      </trkpt>
      <trkpt lat="47.47357" lon="6.72341">
        <ele>312.4</ele>
        <time>2015-06-08T13:09:40Z</time>
      </trkpt>
      <trkpt lat="47.47359" lon="6.72348">
        <ele>312.2</ele>
        <time>2015-06-08T13:09:41Z</time>
      </trkpt>
      <trkpt lat="47.47361" lon="6.72355">
        <ele>311.9</ele>
        <time>2015-06-08T13:09:42Z</time>
      </trkpt>
      <trkpt lat="47.47362" lon="6.72361">
        <ele>312.1</ele>
        <time>2015-06-08T13:09:43Z</time>
      </trkpt>
      <trkpt lat="47.47364" lon="6.72368">
        <ele>312.3</ele>
        <time>2015-06-08T13:09:44Z</time>
      </trkpt>
      <trkpt lat="47.47365" lon="6.72374">
        <ele>312</ele>
        <time>2015-06-08T13:09:45Z</time>
      </trkpt>
      <trkpt lat="47.47367" lon="6.7238">
        <ele>312</ele>
        <time>2015-06-08T13:09:46Z</time>
      </trkpt>
      <trkpt lat="47.47368" lon="6.72386">
        <ele>312.2</ele>
        <time>2015-06-08T13:09:47Z</time>
      </trkpt>
      <trkpt lat="47.47369" lon="6.72392">
        <ele>312</ele>
        <time>2015-06-08T13:09:48Z</time>
      </trkpt>
      <trkpt lat="47.47371" lon="6.72398">
        <ele>311.7</ele>
        <time>2015-06-08T13:09:49Z</time>
      </trkpt>
      <trkpt lat="47.47372" lon="6.72405">
        <ele>311</ele>
        <time>2015-06-08T13:09:50Z</time>
      </trkpt>
      <trkpt lat="47.47373" lon="6.72411">
        <ele>310.4</ele>
        <time>2015-06-08T13:09:51Z</time>
      </trkpt>
      <trkpt lat="47.47374" lon="6.72417">
        <ele>309.8</ele>
        <time>2015-06-08T13:09:52Z</time>
      </trkpt>
      <trkpt lat="47.47376" lon="6.72423">
        <ele>309.7</ele>
        <time>2015-06-08T13:09:53Z</time>
      </trkpt>
      <trkpt lat="47.47377" lon="6.7243">
        <ele>309.6</ele>
        <time>2015-06-08T13:09:54Z</time>
      </trkpt>
      <trkpt lat="47.47377" lon="6.72435">
        <ele>310.3</ele>
        <time>2015-06-08T13:09:55Z</time>
      </trkpt>
      <trkpt lat="47.47378" lon="6.72442">
        <ele>309.9</ele>
        <time>2015-06-08T13:09:56Z</time>
      </trkpt>
      <trkpt lat="47.47379" lon="6.72449">
        <ele>309.8</ele>
        <time>2015-06-08T13:09:57Z</time>
      </trkpt>
      <trkpt lat="47.47379" lon="6.72455">
        <ele>309.9</ele>
        <time>2015-06-08T13:09:58Z</time>
      </trkpt>
      <trkpt lat="47.4738" lon="6.72462">
        <ele>309.4</ele>
        <time>2015-06-08T13:09:59Z</time>
      </trkpt>
      <trkpt lat="47.47381" lon="6.72469">
        <ele>308.7</ele>
        <time>2015-06-08T13:10:00Z</time>
      </trkpt>
      <trkpt lat="47.47382" lon="6.72476">
        <ele>308.4</ele>
        <time>2015-06-08T13:10:01Z</time>
      </trkpt>
      <trkpt lat="47.47383" lon="6.72482">
        <ele>308.1</ele>
        <time>2015-06-08T13:10:02Z</time>
      </trkpt>
      <trkpt lat="47.47384" lon="6.72489">
        <ele>308</ele>
        <time>2015-06-08T13:10:03Z</time>
      </trkpt>
      <trkpt lat="47.47386" lon="6.72497">
        <ele>307.9</ele>
        <time>2015-06-08T13:10:04Z</time>
      </trkpt>
      <trkpt lat="47.47387" lon="6.72503">
        <ele>307.8</ele>
        <time>2015-06-08T13:10:05Z</time>
      </trkpt>
      <trkpt lat="47.47388" lon="6.72511">
        <ele>307.4</ele>
        <time>2015-06-08T13:10:06Z</time>
      </trkpt>
      <trkpt lat="47.47389" lon="6.72518">
        <ele>306.9</ele>
        <time>2015-06-08T13:10:07Z</time>
      </trkpt>
      <trkpt lat="47.4739" lon="6.72525">
        <ele>306.5</ele>
        <time>2015-06-08T13:10:08Z</time>
      </trkpt>
      <trkpt lat="47.47391" lon="6.7253">
        <ele>307.6</ele>
        <time>2015-06-08T13:10:09Z</time>
      </trkpt>
      <trkpt lat="47.47392" lon="6.72537">
        <ele>307.2</ele>
        <time>2015-06-08T13:10:10Z</time>
      </trkpt>
      <trkpt lat="47.47392" lon="6.72544">
        <ele>306.8</ele>
        <time>2015-06-08T13:10:11Z</time>
      </trkpt>
      <trkpt lat="47.47393" lon="6.72551">
        <ele>306.8</ele>
        <time>2015-06-08T13:10:12Z</time>
      </trkpt>
      <trkpt lat="47.47394" lon="6.72557">
        <ele>307</ele>
        <time>2015-06-08T13:10:13Z</time>
      </trkpt>
      <trkpt lat="47.47395" lon="6.72563">
        <ele>307.1</ele>
        <time>2015-06-08T13:10:14Z</time>
      </trkpt>
      <trkpt lat="47.47396" lon="6.7257">
        <ele>307.2</ele>
        <time>2015-06-08T13:10:15Z</time>
      </trkpt>
      <trkpt lat="47.47397" lon="6.72576">
        <ele>307.3</ele>
        <time>2015-06-08T13:10:16Z</time>
      </trkpt>
      <trkpt lat="47.47397" lon="6.72582">
        <ele>307.1</ele>
        <time>2015-06-08T13:10:17Z</time>
      </trkpt>
      <trkpt lat="47.47398" lon="6.72588">
        <ele>306.9</ele>
        <time>2015-06-08T13:10:18Z</time>
      </trkpt>
      <trkpt lat="47.47399" lon="6.72595">
        <ele>306.6</ele>
        <time>2015-06-08T13:10:19Z</time>
      </trkpt>
      <trkpt lat="47.474" lon="6.72602">
        <ele>306.7</ele>
        <time>2015-06-08T13:10:20Z</time>
      </trkpt>
      <trkpt lat="47.47401" lon="6.72609">
        <ele>306.6</ele>
        <time>2015-06-08T13:10:21Z</time>
      </trkpt>
      <trkpt lat="47.47402" lon="6.72615">
        <ele>306.8</ele>
        <time>2015-06-08T13:10:22Z</time>
      </trkpt>
      <trkpt lat="47.47403" lon="6.72622">
        <ele>306.7</ele>
        <time>2015-06-08T13:10:23Z</time>
      </trkpt>
      <trkpt lat="47.47404" lon="6.72629">
        <ele>306.7</ele>
        <time>2015-06-08T13:10:24Z</time>
      </trkpt>
      <trkpt lat="47.47405" lon="6.72634">
        <ele>306.5</ele>
        <time>2015-06-08T13:10:25Z</time>
      </trkpt>
      <trkpt lat="47.47406" lon="6.72641">
        <ele>306.4</ele>
        <time>2015-06-08T13:10:26Z</time>
      </trkpt>
      <trkpt lat="47.47406" lon="6.72646">
        <ele>306.6</ele>
        <time>2015-06-08T13:10:27Z</time>
      </trkpt>
      <trkpt lat="47.47407" lon="6.72652">
        <ele>306.5</ele>
        <time>2015-06-08T13:10:28Z</time>
      </trkpt>
      <trkpt lat="47.47408" lon="6.72658">
        <ele>306.4</ele>
        <time>2015-06-08T13:10:29Z</time>
      </trkpt>
      <trkpt lat="47.47408" lon="6.72664">
        <ele>306.8</ele>
        <time>2015-06-08T13:10:30Z</time>
      </trkpt>
      <trkpt lat="47.47409" lon="6.72671">
        <ele>307</ele>
        <time>2015-06-08T13:10:31Z</time>
      </trkpt>
      <trkpt lat="47.4741" lon="6.72677">
        <ele>307</ele>
        <time>2015-06-08T13:10:32Z</time>
      </trkpt>
      <trkpt lat="47.47412" lon="6.72684">
        <ele>307.1</ele>
        <time>2015-06-08T13:10:33Z</time>
      </trkpt>
      <trkpt lat="47.47413" lon="6.7269">
        <ele>307</ele>
        <time>2015-06-08T13:10:34Z</time>
      </trkpt>
      <trkpt lat="47.47414" lon="6.72697">
        <ele>307.1</ele>
        <time>2015-06-08T13:10:35Z</time>
      </trkpt>
      <trkpt lat="47.47415" lon="6.72703">
        <ele>307.1</ele>
        <time>2015-06-08T13:10:36Z</time>
      </trkpt>
      <trkpt lat="47.47416" lon="6.7271">
        <ele>307.3</ele>
        <time>2015-06-08T13:10:37Z</time>
      </trkpt>
      <trkpt lat="47.47417" lon="6.72716">
        <ele>307.5</ele>
        <time>2015-06-08T13:10:38Z</time>
      </trkpt>
      <trkpt lat="47.47418" lon="6.72723">
        <ele>307.6</ele>
        <time>2015-06-08T13:10:39Z</time>
      </trkpt>
      <trkpt lat="47.47419" lon="6.72729">
        <ele>307.7</ele>
        <time>2015-06-08T13:10:40Z</time>
      </trkpt>
      <trkpt lat="47.4742" lon="6.72736">
        <ele>307.7</ele>
        <time>2015-06-08T13:10:41Z</time>
      </trkpt>
      <trkpt lat="47.47421" lon="6.72742">
        <ele>307.5</ele>
        <time>2015-06-08T13:10:42Z</time>
      </trkpt>
      <trkpt lat="47.47422" lon="6.72749">
        <ele>307.6</ele>
        <time>2015-06-08T13:10:43Z</time>
      </trkpt>
      <trkpt lat="47.47423" lon="6.72755">
        <ele>308</ele>
        <time>2015-06-08T13:10:44Z</time>
      </trkpt>
      <trkpt lat="47.47423" lon="6.72761">
        <ele>308.4</ele>
        <time>2015-06-08T13:10:45Z</time>
      </trkpt>
      <trkpt lat="47.47424" lon="6.72767">
        <ele>308</ele>
        <time>2015-06-08T13:10:46Z</time>
      </trkpt>
      <trkpt lat="47.47425" lon="6.72773">
        <ele>308</ele>
        <time>2015-06-08T13:10:47Z</time>
      </trkpt>
      <trkpt lat="47.47425" lon="6.7278">
        <ele>307.7</ele>
        <time>2015-06-08T13:10:48Z</time>
      </trkpt>
      <trkpt lat="47.47426" lon="6.72786">
        <ele>307.7</ele>
        <time>2015-06-08T13:10:49Z</time>
      </trkpt>
      <trkpt lat="47.47427" lon="6.72793">
        <ele>307.8</ele>
        <time>2015-06-08T13:10:50Z</time>
      </trkpt>
      <trkpt lat="47.47427" lon="6.72799">
        <ele>307.8</ele>
        <time>2015-06-08T13:10:51Z</time>
      </trkpt>
      <trkpt lat="47.47428" lon="6.72805">
        <ele>308</ele>
        <time>2015-06-08T13:10:52Z</time>
      </trkpt>
      <trkpt lat="47.47429" lon="6.72811">
        <ele>307.9</ele>
        <time>2015-06-08T13:10:53Z</time>
      </trkpt>
      <trkpt lat="47.4743" lon="6.72818">
        <ele>307.8</ele>
        <time>2015-06-08T13:10:54Z</time>
      </trkpt>
      <trkpt lat="47.47431" lon="6.72824">
        <ele>307.9</ele>
        <time>2015-06-08T13:10:55Z</time>
      </trkpt>
      <trkpt lat="47.47432" lon="6.7283">
        <ele>307.8</ele>
        <time>2015-06-08T13:10:56Z</time>
      </trkpt>
      <trkpt lat="47.47433" lon="6.72837">
        <ele>307.7</ele>
        <time>2015-06-08T13:10:57Z</time>
      </trkpt>
      <trkpt lat="47.47433" lon="6.72843">
        <ele>307.7</ele>
        <time>2015-06-08T13:10:58Z</time>
      </trkpt>
      <trkpt lat="47.47434" lon="6.72849">
        <ele>307.4</ele>
        <time>2015-06-08T13:10:59Z</time>
      </trkpt>
      <trkpt lat="47.47435" lon="6.72856">
        <ele>307.1</ele>
        <time>2015-06-08T13:11:00Z</time>
      </trkpt>
      <trkpt lat="47.47435" lon="6.72863">
        <ele>306.9</ele>
        <time>2015-06-08T13:11:01Z</time>
      </trkpt>
      <trkpt lat="47.47436" lon="6.72869">
        <ele>306.7</ele>
        <time>2015-06-08T13:11:02Z</time>
      </trkpt>
      <trkpt lat="47.47437" lon="6.72875">
        <ele>306.8</ele>
        <time>2015-06-08T13:11:03Z</time>
      </trkpt>
      <trkpt lat="47.47437" lon="6.72881">
        <ele>307.2</ele>
        <time>2015-06-08T13:11:04Z</time>
      </trkpt>
      <trkpt lat="47.47438" lon="6.72887">
        <ele>307.6</ele>
        <time>2015-06-08T13:11:05Z</time>
      </trkpt>
      <trkpt lat="47.47439" lon="6.72894">
        <ele>308</ele>
        <time>2015-06-08T13:11:06Z</time>
      </trkpt>
      <trkpt lat="47.4744" lon="6.729">
        <ele>308.1</ele>
        <time>2015-06-08T13:11:07Z</time>
      </trkpt>
      <trkpt lat="47.4744" lon="6.72906">
        <ele>308.2</ele>
        <time>2015-06-08T13:11:08Z</time>
      </trkpt>
      <trkpt lat="47.4744" lon="6.72911">
        <ele>308.4</ele>
        <time>2015-06-08T13:11:09Z</time>
      </trkpt>
      <trkpt lat="47.47441" lon="6.72918">
        <ele>308.5</ele>
        <time>2015-06-08T13:11:10Z</time>
      </trkpt>
      <trkpt lat="47.47441" lon="6.72924">
        <ele>308.5</ele>
        <time>2015-06-08T13:11:11Z</time>
      </trkpt>
      <trkpt lat="47.47442" lon="6.7293">
        <ele>308.8</ele>
        <time>2015-06-08T13:11:12Z</time>
      </trkpt>
      <trkpt lat="47.47442" lon="6.72936">
        <ele>309</ele>
        <time>2015-06-08T13:11:13Z</time>
      </trkpt>
      <trkpt lat="47.47442" lon="6.72943">
        <ele>309.2</ele>
        <time>2015-06-08T13:11:14Z</time>
      </trkpt>
      <trkpt lat="47.47443" lon="6.7295">
        <ele>309.4</ele>
        <time>2015-06-08T13:11:15Z</time>
      </trkpt>
      <trkpt lat="47.47443" lon="6.72956">
        <ele>309.6</ele>
        <time>2015-06-08T13:11:16Z</time>
      </trkpt>
      <trkpt lat="47.47443" lon="6.72962">
        <ele>309.9</ele>
        <time>2015-06-08T13:11:17Z</time>
      </trkpt>
      <trkpt lat="47.47443" lon="6.72968">
        <ele>310.1</ele>
        <time>2015-06-08T13:11:18Z</time>
      </trkpt>
      <trkpt lat="47.47442" lon="6.72974">
        <ele>310.4</ele>
        <time>2015-06-08T13:11:19Z</time>
      </trkpt>
      <trkpt lat="47.47442" lon="6.7298">
        <ele>310.7</ele>
        <time>2015-06-08T13:11:20Z</time>
      </trkpt>
      <trkpt lat="47.47441" lon="6.72986">
        <ele>310.8</ele>
        <time>2015-06-08T13:11:21Z</time>
      </trkpt>
      <trkpt lat="47.4744" lon="6.72992">
        <ele>311.1</ele>
        <time>2015-06-08T13:11:22Z</time>
      </trkpt>
      <trkpt lat="47.4744" lon="6.72999">
        <ele>311.6</ele>
        <time>2015-06-08T13:11:23Z</time>
      </trkpt>
      <trkpt lat="47.47439" lon="6.73005">
        <ele>312</ele>
        <time>2015-06-08T13:11:24Z</time>
      </trkpt>
      <trkpt lat="47.47438" lon="6.7301">
        <ele>312.1</ele>
        <time>2015-06-08T13:11:25Z</time>
      </trkpt>
      <trkpt lat="47.47437" lon="6.73014">
        <ele>312.3</ele>
        <time>2015-06-08T13:11:26Z</time>
      </trkpt>
      <trkpt lat="47.47437" lon="6.73017">
        <ele>312.4</ele>
        <time>2015-06-08T13:11:27Z</time>
      </trkpt>
      <trkpt lat="47.47436" lon="6.73019">
        <ele>312.7</ele>
        <time>2015-06-08T13:11:28Z</time>
      </trkpt>
      <trkpt lat="47.47435" lon="6.73022">
        <ele>312.9</ele>
        <time>2015-06-08T13:11:29Z</time>
      </trkpt>
      <trkpt lat="47.47435" lon="6.73024">
        <ele>313</ele>
        <time>2015-06-08T13:11:30Z</time>
      </trkpt>
      <trkpt lat="47.47435" lon="6.73026">
        <ele>313</ele>
        <time>2015-06-08T13:11:31Z</time>
      </trkpt>
      <trkpt lat="47.47434" lon="6.73026">
        <ele>313.5</ele>
        <time>2015-06-08T13:11:33Z</time>
      </trkpt>
      <trkpt lat="47.47433" lon="6.73025">
        <ele>313.9</ele>
        <time>2015-06-08T13:11:35Z</time>
      </trkpt>
      <trkpt lat="47.47433" lon="6.73028">
        <ele>314</ele>
        <time>2015-06-08T13:12:00Z</time>
      </trkpt>
      <trkpt lat="47.47432" lon="6.73031">
        <ele>314</ele>
        <time>2015-06-08T13:12:01Z</time>
      </trkpt>
      <trkpt lat="47.47431" lon="6.73035">
        <ele>314</ele>
        <time>2015-06-08T13:12:02Z</time>
      </trkpt>
      <trkpt lat="47.4743" lon="6.73041">
        <ele>314</ele>
        <time>2015-06-08T13:12:03Z</time>
      </trkpt>
      <trkpt lat="47.47429" lon="6.73047">
        <ele>314</ele>
        <time>2015-06-08T13:12:04Z</time>
      </trkpt>
      <trkpt lat="47.47428" lon="6.73055">
        <ele>314</ele>
        <time>2015-06-08T13:12:05Z</time>
      </trkpt>
      <trkpt lat="47.47428" lon="6.73062">
        <ele>314</ele>
        <time>2015-06-08T13:12:06Z</time>
      </trkpt>
      <trkpt lat="47.47427" lon="6.7307">
        <ele>314</ele>
        <time>2015-06-08T13:12:07Z</time>
      </trkpt>
      <trkpt lat="47.47426" lon="6.73078">
        <ele>313.8</ele>
        <time>2015-06-08T13:12:08Z</time>
      </trkpt>
      <trkpt lat="47.47426" lon="6.73085">
        <ele>313.7</ele>
        <time>2015-06-08T13:12:09Z</time>
      </trkpt>
      <trkpt lat="47.47425" lon="6.73092">
        <ele>313.5</ele>
        <time>2015-06-08T13:12:10Z</time>
      </trkpt>
      <trkpt lat="47.47424" lon="6.731">
        <ele>313.6</ele>
        <time>2015-06-08T13:12:11Z</time>
      </trkpt>
      <trkpt lat="47.47424" lon="6.73108">
        <ele>313.7</ele>
        <time>2015-06-08T13:12:12Z</time>
      </trkpt>
      <trkpt lat="47.47423" lon="6.73116">
        <ele>313.7</ele>
        <time>2015-06-08T13:12:13Z</time>
      </trkpt>
      <trkpt lat="47.47423" lon="6.73124">
        <ele>313.8</ele>
        <time>2015-06-08T13:12:14Z</time>
      </trkpt>
      <trkpt lat="47.47423" lon="6.73131">
        <ele>313.7</ele>
        <time>2015-06-08T13:12:15Z</time>
      </trkpt>
      <trkpt lat="47.47423" lon="6.73138">
        <ele>313.4</ele>
        <time>2015-06-08T13:12:16Z</time>
      </trkpt>
      <trkpt lat="47.47423" lon="6.73146">
        <ele>313.1</ele>
        <time>2015-06-08T13:12:17Z</time>
      </trkpt>
      <trkpt lat="47.47422" lon="6.73153">
        <ele>312.8</ele>
        <time>2015-06-08T13:12:18Z</time>
      </trkpt>
      <trkpt lat="47.47422" lon="6.7316">
        <ele>312.6</ele>
        <time>2015-06-08T13:12:19Z</time>
      </trkpt>
      <trkpt lat="47.47423" lon="6.73167">
        <ele>312.5</ele>
        <time>2015-06-08T13:12:20Z</time>
      </trkpt>
      <trkpt lat="47.47425" lon="6.73173">
        <ele>312.2</ele>
        <time>2015-06-08T13:12:21Z</time>
      </trkpt>
      <trkpt lat="47.47426" lon="6.73179">
        <ele>311.8</ele>
        <time>2015-06-08T13:12:22Z</time>
      </trkpt>
      <trkpt lat="47.47429" lon="6.73185">
        <ele>311.3</ele>
        <time>2015-06-08T13:12:23Z</time>
      </trkpt>
      <trkpt lat="47.47432" lon="6.7319">
        <ele>311.2</ele>
        <time>2015-06-08T13:12:24Z</time>
      </trkpt>
      <trkpt lat="47.47435" lon="6.73196">
        <ele>310.6</ele>
        <time>2015-06-08T13:12:25Z</time>
      </trkpt>
      <trkpt lat="47.47436" lon="6.73203">
        <ele>310.2</ele>
        <time>2015-06-08T13:12:26Z</time>
      </trkpt>
      <trkpt lat="47.47437" lon="6.7321">
        <ele>309.8</ele>
        <time>2015-06-08T13:12:27Z</time>
      </trkpt>
      <trkpt lat="47.47438" lon="6.73218">
        <ele>309.3</ele>
        <time>2015-06-08T13:12:28Z</time>
      </trkpt>
      <trkpt lat="47.47439" lon="6.73225">
        <ele>308.5</ele>
        <time>2015-06-08T13:12:29Z</time>
      </trkpt>
      <trkpt lat="47.4744" lon="6.73232">
        <ele>308.4</ele>
        <time>2015-06-08T13:12:30Z</time>
      </trkpt>
      <trkpt lat="47.47442" lon="6.73239">
        <ele>308</ele>
        <time>2015-06-08T13:12:31Z</time>
      </trkpt>
      <trkpt lat="47.47444" lon="6.73246">
        <ele>307.9</ele>
        <time>2015-06-08T13:12:32Z</time>
      </trkpt>
      <trkpt lat="47.47446" lon="6.73253">
        <ele>307.7</ele>
        <time>2015-06-08T13:12:33Z</time>
      </trkpt>
      <trkpt lat="47.47448" lon="6.73261">
        <ele>307.6</ele>
        <time>2015-06-08T13:12:34Z</time>
      </trkpt>
      <trkpt lat="47.47449" lon="6.73267">
        <ele>307.6</ele>
        <time>2015-06-08T13:12:35Z</time>
      </trkpt>
      <trkpt lat="47.47452" lon="6.73274">
        <ele>307.5</ele>
        <time>2015-06-08T13:12:36Z</time>
      </trkpt>
      <trkpt lat="47.47454" lon="6.73281">
        <ele>307.4</ele>
        <time>2015-06-08T13:12:37Z</time>
      </trkpt>
      <trkpt lat="47.47457" lon="6.73289">
        <ele>307.6</ele>
        <time>2015-06-08T13:12:38Z</time>
      </trkpt>
      <trkpt lat="47.4746" lon="6.73296">
        <ele>307.4</ele>
        <time>2015-06-08T13:12:39Z</time>
      </trkpt>
      <trkpt lat="47.47461" lon="6.73303">
        <ele>307.3</ele>
        <time>2015-06-08T13:12:40Z</time>
      </trkpt>
      <trkpt lat="47.47463" lon="6.73311">
        <ele>307.2</ele>
        <time>2015-06-08T13:12:41Z</time>
      </trkpt>
      <trkpt lat="47.47465" lon="6.73318">
        <ele>307</ele>
        <time>2015-06-08T13:12:42Z</time>
      </trkpt>
      <trkpt lat="47.47467" lon="6.73326">
        <ele>306.9</ele>
        <time>2015-06-08T13:12:43Z</time>
      </trkpt>
      <trkpt lat="47.4747" lon="6.73333">
        <ele>306.7</ele>
        <time>2015-06-08T13:12:44Z</time>
      </trkpt>
      <trkpt lat="47.47471" lon="6.7334">
        <ele>306.6</ele>
        <time>2015-06-08T13:12:45Z</time>
      </trkpt>
      <trkpt lat="47.47472" lon="6.73347">
        <ele>306.9</ele>
        <time>2015-06-08T13:12:46Z</time>
      </trkpt>
      <trkpt lat="47.47473" lon="6.73354">
        <ele>307.1</ele>
        <time>2015-06-08T13:12:47Z</time>
      </trkpt>
      <trkpt lat="47.47475" lon="6.73361">
        <ele>307.3</ele>
        <time>2015-06-08T13:12:48Z</time>
      </trkpt>
      <trkpt lat="47.47477" lon="6.73368">
        <ele>307.4</ele>
        <time>2015-06-08T13:12:49Z</time>
      </trkpt>
      <trkpt lat="47.47481" lon="6.73372">
        <ele>306.6</ele>
        <time>2015-06-08T13:12:50Z</time>
      </trkpt>
      <trkpt lat="47.47485" lon="6.73375">
        <ele>306.4</ele>
        <time>2015-06-08T13:12:51Z</time>
      </trkpt>
      <trkpt lat="47.47489" lon="6.73377">
        <ele>306.2</ele>
        <time>2015-06-08T13:12:52Z</time>
      </trkpt>
      <trkpt lat="47.47494" lon="6.73377">
        <ele>306</ele>
        <time>2015-06-08T13:12:53Z</time>
      </trkpt>
      <trkpt lat="47.47498" lon="6.73376">
        <ele>306</ele>
        <time>2015-06-08T13:12:54Z</time>
      </trkpt>
      <trkpt lat="47.47503" lon="6.73377">
        <ele>306</ele>
        <time>2015-06-08T13:12:55Z</time>
      </trkpt>
      <trkpt lat="47.47507" lon="6.73378">
        <ele>305.8</ele>
        <time>2015-06-08T13:12:56Z</time>
      </trkpt>
      <trkpt lat="47.4751" lon="6.73383">
        <ele>305.6</ele>
        <time>2015-06-08T13:12:57Z</time>
      </trkpt>
      <trkpt lat="47.47513" lon="6.73389">
        <ele>305.4</ele>
        <time>2015-06-08T13:12:58Z</time>
      </trkpt>
      <trkpt lat="47.47515" lon="6.73395">
        <ele>305.2</ele>
        <time>2015-06-08T13:12:59Z</time>
      </trkpt>
      <trkpt lat="47.47517" lon="6.73402">
        <ele>305.1</ele>
        <time>2015-06-08T13:13:00Z</time>
      </trkpt>
      <trkpt lat="47.47518" lon="6.73408">
        <ele>305.1</ele>
        <time>2015-06-08T13:13:01Z</time>
      </trkpt>
      <trkpt lat="47.47519" lon="6.73415">
        <ele>304.9</ele>
        <time>2015-06-08T13:13:02Z</time>
      </trkpt>
      <trkpt lat="47.47521" lon="6.73422">
        <ele>304.4</ele>
        <time>2015-06-08T13:13:03Z</time>
      </trkpt>
      <trkpt lat="47.47523" lon="6.73429">
        <ele>304.2</ele>
        <time>2015-06-08T13:13:04Z</time>
      </trkpt>
      <trkpt lat="47.47525" lon="6.73435">
        <ele>304.1</ele>
        <time>2015-06-08T13:13:05Z</time>
      </trkpt>
      <trkpt lat="47.47526" lon="6.73442">
        <ele>304.2</ele>
        <time>2015-06-08T13:13:06Z</time>
      </trkpt>
      <trkpt lat="47.47527" lon="6.73448">
        <ele>304.4</ele>
        <time>2015-06-08T13:13:07Z</time>
      </trkpt>
      <trkpt lat="47.47528" lon="6.73454">
        <ele>304.5</ele>
        <time>2015-06-08T13:13:08Z</time>
      </trkpt>
      <trkpt lat="47.4753" lon="6.73461">
        <ele>304.6</ele>
        <time>2015-06-08T13:13:09Z</time>
      </trkpt>
      <trkpt lat="47.47532" lon="6.73467">
        <ele>304.4</ele>
        <time>2015-06-08T13:13:10Z</time>
      </trkpt>
      <trkpt lat="47.47534" lon="6.73473">
        <ele>303.9</ele>
        <time>2015-06-08T13:13:11Z</time>
      </trkpt>
      <trkpt lat="47.47536" lon="6.73478">
        <ele>302.9</ele>
        <time>2015-06-08T13:13:12Z</time>
      </trkpt>
      <trkpt lat="47.47539" lon="6.73483">
        <ele>301.7</ele>
        <time>2015-06-08T13:13:13Z</time>
      </trkpt>
      <trkpt lat="47.4754" lon="6.73489">
        <ele>301</ele>
        <time>2015-06-08T13:13:14Z</time>
      </trkpt>
      <trkpt lat="47.47541" lon="6.73495">
        <ele>301.2</ele>
        <time>2015-06-08T13:13:15Z</time>
      </trkpt>
      <trkpt lat="47.47542" lon="6.73502">
        <ele>300.6</ele>
        <time>2015-06-08T13:13:16Z</time>
      </trkpt>
      <trkpt lat="47.47544" lon="6.73509">
        <ele>300.1</ele>
        <time>2015-06-08T13:13:17Z</time>
      </trkpt>
      <trkpt lat="47.47545" lon="6.73516">
        <ele>299.9</ele>
        <time>2015-06-08T13:13:18Z</time>
      </trkpt>
      <trkpt lat="47.47546" lon="6.73521">
        <ele>300.6</ele>
        <time>2015-06-08T13:13:19Z</time>
      </trkpt>
      <trkpt lat="47.47547" lon="6.73528">
        <ele>300.6</ele>
        <time>2015-06-08T13:13:20Z</time>
      </trkpt>
      <trkpt lat="47.47548" lon="6.73534">
        <ele>300.1</ele>
        <time>2015-06-08T13:13:21Z</time>
      </trkpt>
      <trkpt lat="47.4755" lon="6.7354">
        <ele>299.4</ele>
        <time>2015-06-08T13:13:22Z</time>
      </trkpt>
      <trkpt lat="47.47551" lon="6.73546">
        <ele>298.7</ele>
        <time>2015-06-08T13:13:23Z</time>
      </trkpt>
      <trkpt lat="47.47552" lon="6.73552">
        <ele>298.2</ele>
        <time>2015-06-08T13:13:24Z</time>
      </trkpt>
      <trkpt lat="47.47554" lon="6.73558">
        <ele>297.9</ele>
        <time>2015-06-08T13:13:25Z</time>
      </trkpt>
      <trkpt lat="47.47556" lon="6.73563">
        <ele>297.5</ele>
        <time>2015-06-08T13:13:26Z</time>
      </trkpt>
      <trkpt lat="47.47558" lon="6.73569">
        <ele>297</ele>
        <time>2015-06-08T13:13:27Z</time>
      </trkpt>
      <trkpt lat="47.47559" lon="6.73575">
        <ele>296.4</ele>
        <time>2015-06-08T13:13:28Z</time>
      </trkpt>
      <trkpt lat="47.47559" lon="6.73581">
        <ele>295.8</ele>
        <time>2015-06-08T13:13:29Z</time>
      </trkpt>
      <trkpt lat="47.47559" lon="6.73586">
        <ele>295.7</ele>
        <time>2015-06-08T13:13:30Z</time>
      </trkpt>
      <trkpt lat="47.47561" lon="6.73588">
        <ele>296.8</ele>
        <time>2015-06-08T13:13:31Z</time>
      </trkpt>
      <trkpt lat="47.47563" lon="6.7359">
        <ele>297.7</ele>
        <time>2015-06-08T13:13:32Z</time>
      </trkpt>
      <trkpt lat="47.47566" lon="6.7359">
        <ele>298.4</ele>
        <time>2015-06-08T13:13:33Z</time>
      </trkpt>
      <trkpt lat="47.47568" lon="6.73589">
        <ele>298.3</ele>
        <time>2015-06-08T13:13:34Z</time>
      </trkpt>
      <trkpt lat="47.47569" lon="6.73587">
        <ele>298.6</ele>
        <time>2015-06-08T13:13:35Z</time>
      </trkpt>
      <trkpt lat="47.47569" lon="6.73586">
        <ele>299.1</ele>
        <time>2015-06-08T13:13:36Z</time>
      </trkpt>
      <trkpt lat="47.4757" lon="6.73586">
        <ele>299.2</ele>
        <time>2015-06-08T13:13:37Z</time>
      </trkpt>
      <trkpt lat="47.47571" lon="6.73585">
        <ele>299.6</ele>
        <time>2015-06-08T13:13:43Z</time>
      </trkpt>
      <trkpt lat="47.4757" lon="6.73583">
        <ele>299.4</ele>
        <time>2015-06-08T13:13:47Z</time>
      </trkpt>
      <trkpt lat="47.4757" lon="6.73582">
        <ele>299.3</ele>
        <time>2015-06-08T13:13:50Z</time>
      </trkpt>
      <trkpt lat="47.4757" lon="6.73581">
        <ele>299.3</ele>
        <time>2015-06-08T13:14:50Z</time>
      </trkpt>
      <trkpt lat="47.47571" lon="6.73579">
        <ele>299.3</ele>
        <time>2015-06-08T13:14:56Z</time>
      </trkpt>
      <trkpt lat="47.47572" lon="6.73581">
        <ele>299.3</ele>
        <time>2015-06-08T13:15:19Z</time>
      </trkpt>
      <trkpt lat="47.47573" lon="6.73583">
        <ele>299.3</ele>
        <time>2015-06-08T13:15:21Z</time>
      </trkpt>
      <trkpt lat="47.47573" lon="6.73585">
        <ele>299.2</ele>
        <time>2015-06-08T13:15:23Z</time>
      </trkpt>
      <trkpt lat="47.47574" lon="6.73587">
        <ele>299.2</ele>
        <time>2015-06-08T13:15:25Z</time>
      </trkpt>
      <trkpt lat="47.47574" lon="6.73589">
        <ele>299.2</ele>
        <time>2015-06-08T13:15:28Z</time>
      </trkpt>
      <trkpt lat="47.47575" lon="6.7359">
        <ele>299.1</ele>
        <time>2015-06-08T13:15:33Z</time>
      </trkpt>
      <trkpt lat="47.47576" lon="6.73592">
        <ele>299.1</ele>
        <time>2015-06-08T13:15:35Z</time>
      </trkpt>
      <trkpt lat="47.47576" lon="6.73596">
        <ele>299.1</ele>
        <time>2015-06-08T13:15:36Z</time>
      </trkpt>
      <trkpt lat="47.47578" lon="6.73603">
        <ele>299.1</ele>
        <time>2015-06-08T13:15:37Z</time>
      </trkpt>
      <trkpt lat="47.47579" lon="6.73611">
        <ele>299.1</ele>
        <time>2015-06-08T13:15:38Z</time>
      </trkpt>
      <trkpt lat="47.47579" lon="6.73618">
        <ele>299.1</ele>
        <time>2015-06-08T13:15:39Z</time>
      </trkpt>
      <trkpt lat="47.47579" lon="6.73625">
        <ele>299.1</ele>
        <time>2015-06-08T13:15:40Z</time>
      </trkpt>
      <trkpt lat="47.4758" lon="6.73631">
        <ele>299.1</ele>
        <time>2015-06-08T13:15:42Z</time>
      </trkpt>
      <trkpt lat="47.4758" lon="6.73637">
        <ele>299.1</ele>
        <time>2015-06-08T13:15:42Z</time>
      </trkpt>
      <trkpt lat="47.47581" lon="6.73644">
        <ele>299.2</ele>
        <time>2015-06-08T13:15:43Z</time>
      </trkpt>
      <trkpt lat="47.47582" lon="6.73651">
        <ele>299.2</ele>
        <time>2015-06-08T13:15:44Z</time>
      </trkpt>
      <trkpt lat="47.47582" lon="6.73656">
        <ele>299.2</ele>
        <time>2015-06-08T13:15:45Z</time>
      </trkpt>
      <trkpt lat="47.47584" lon="6.73662">
        <ele>299.3</ele>
        <time>2015-06-08T13:15:46Z</time>
      </trkpt>
      <trkpt lat="47.47585" lon="6.73668">
        <ele>299.4</ele>
        <time>2015-06-08T13:15:47Z</time>
      </trkpt>
      <trkpt lat="47.47586" lon="6.73673">
        <ele>299.4</ele>
        <time>2015-06-08T13:15:48Z</time>
      </trkpt>
      <trkpt lat="47.47587" lon="6.73678">
        <ele>298.8</ele>
        <time>2015-06-08T13:15:49Z</time>
      </trkpt>
      <trkpt lat="47.47588" lon="6.73683">
        <ele>298.4</ele>
        <time>2015-06-08T13:15:50Z</time>
      </trkpt>
      <trkpt lat="47.47589" lon="6.73689">
        <ele>298</ele>
        <time>2015-06-08T13:15:51Z</time>
      </trkpt>
      <trkpt lat="47.4759" lon="6.73696">
        <ele>297.8</ele>
        <time>2015-06-08T13:15:52Z</time>
      </trkpt>
      <trkpt lat="47.47592" lon="6.73702">
        <ele>297.7</ele>
        <time>2015-06-08T13:15:53Z</time>
      </trkpt>
      <trkpt lat="47.47593" lon="6.73708">
        <ele>297.4</ele>
        <time>2015-06-08T13:15:54Z</time>
      </trkpt>
      <trkpt lat="47.47594" lon="6.73714">
        <ele>297.1</ele>
        <time>2015-06-08T13:15:55Z</time>
      </trkpt>
      <trkpt lat="47.47595" lon="6.7372">
        <ele>297.1</ele>
        <time>2015-06-08T13:15:56Z</time>
      </trkpt>
      <trkpt lat="47.47597" lon="6.73727">
        <ele>297.1</ele>
        <time>2015-06-08T13:15:57Z</time>
      </trkpt>
      <trkpt lat="47.47598" lon="6.73732">
        <ele>297.3</ele>
        <time>2015-06-08T13:15:58Z</time>
      </trkpt>
      <trkpt lat="47.47599" lon="6.73737">
        <ele>296.9</ele>
        <time>2015-06-08T13:15:59Z</time>
      </trkpt>
      <trkpt lat="47.476" lon="6.73743">
        <ele>296.6</ele>
        <time>2015-06-08T13:16:00Z</time>
      </trkpt>
      <trkpt lat="47.47601" lon="6.73748">
        <ele>296.2</ele>
        <time>2015-06-08T13:16:01Z</time>
      </trkpt>
      <trkpt lat="47.47602" lon="6.73755">
        <ele>296</ele>
        <time>2015-06-08T13:16:02Z</time>
      </trkpt>
      <trkpt lat="47.47603" lon="6.7376">
        <ele>295.8</ele>
        <time>2015-06-08T13:16:03Z</time>
      </trkpt>
      <trkpt lat="47.47604" lon="6.73766">
        <ele>295.5</ele>
        <time>2015-06-08T13:16:04Z</time>
      </trkpt>
      <trkpt lat="47.47606" lon="6.73772">
        <ele>295.4</ele>
        <time>2015-06-08T13:16:05Z</time>
      </trkpt>
      <trkpt lat="47.47607" lon="6.73777">
        <ele>295</ele>
        <time>2015-06-08T13:16:06Z</time>
      </trkpt>
      <trkpt lat="47.47608" lon="6.73782">
        <ele>295.1</ele>
        <time>2015-06-08T13:16:07Z</time>
      </trkpt>
      <trkpt lat="47.47608" lon="6.7379">
        <ele>294.8</ele>
        <time>2015-06-08T13:16:08Z</time>
      </trkpt>
      <trkpt lat="47.47609" lon="6.73798">
        <ele>295</ele>
        <time>2015-06-08T13:16:09Z</time>
      </trkpt>
      <trkpt lat="47.4761" lon="6.73804">
        <ele>294.8</ele>
        <time>2015-06-08T13:16:10Z</time>
      </trkpt>
      <trkpt lat="47.47612" lon="6.73811">
        <ele>294.3</ele>
        <time>2015-06-08T13:16:11Z</time>
      </trkpt>
      <trkpt lat="47.47614" lon="6.73818">
        <ele>293.7</ele>
        <time>2015-06-08T13:16:12Z</time>
      </trkpt>
      <trkpt lat="47.47616" lon="6.73825">
        <ele>293.4</ele>
        <time>2015-06-08T13:16:13Z</time>
      </trkpt>
      <trkpt lat="47.47617" lon="6.73832">
        <ele>292.9</ele>
        <time>2015-06-08T13:16:14Z</time>
      </trkpt>
      <trkpt lat="47.47618" lon="6.73838">
        <ele>292.1</ele>
        <time>2015-06-08T13:16:15Z</time>
      </trkpt>
      <trkpt lat="47.47619" lon="6.73844">
        <ele>292</ele>
        <time>2015-06-08T13:16:16Z</time>
      </trkpt>
      <trkpt lat="47.47621" lon="6.73851">
        <ele>291.6</ele>
        <time>2015-06-08T13:16:17Z</time>
      </trkpt>
      <trkpt lat="47.47622" lon="6.73857">
        <ele>291</ele>
        <time>2015-06-08T13:16:18Z</time>
      </trkpt>
      <trkpt lat="47.47624" lon="6.73863">
        <ele>290.7</ele>
        <time>2015-06-08T13:16:19Z</time>
      </trkpt>
      <trkpt lat="47.47625" lon="6.73868">
        <ele>290.8</ele>
        <time>2015-06-08T13:16:20Z</time>
      </trkpt>
      <trkpt lat="47.47626" lon="6.73874">
        <ele>290.4</ele>
        <time>2015-06-08T13:16:21Z</time>
      </trkpt>
      <trkpt lat="47.47627" lon="6.73879">
        <ele>289.8</ele>
        <time>2015-06-08T13:16:22Z</time>
      </trkpt>
      <trkpt lat="47.47629" lon="6.73886">
        <ele>289.4</ele>
        <time>2015-06-08T13:16:23Z</time>
      </trkpt>
      <trkpt lat="47.47629" lon="6.7389">
        <ele>289.6</ele>
        <time>2015-06-08T13:16:24Z</time>
      </trkpt>
      <trkpt lat="47.47631" lon="6.73895">
        <ele>289.1</ele>
        <time>2015-06-08T13:16:25Z</time>
      </trkpt>
      <trkpt lat="47.47632" lon="6.73901">
        <ele>289.1</ele>
        <time>2015-06-08T13:16:26Z</time>
      </trkpt>
      <trkpt lat="47.47632" lon="6.73907">
        <ele>289.4</ele>
        <time>2015-06-08T13:16:27Z</time>
      </trkpt>
      <trkpt lat="47.47634" lon="6.73914">
        <ele>289.6</ele>
        <time>2015-06-08T13:16:28Z</time>
      </trkpt>
      <trkpt lat="47.47635" lon="6.7392">
        <ele>290</ele>
        <time>2015-06-08T13:16:29Z</time>
      </trkpt>
      <trkpt lat="47.47636" lon="6.73927">
        <ele>289.7</ele>
        <time>2015-06-08T13:16:30Z</time>
      </trkpt>
      <trkpt lat="47.47638" lon="6.73933">
        <ele>289.5</ele>
        <time>2015-06-08T13:16:31Z</time>
      </trkpt>
      <trkpt lat="47.47639" lon="6.73939">
        <ele>289.3</ele>
        <time>2015-06-08T13:16:32Z</time>
      </trkpt>
      <trkpt lat="47.47641" lon="6.73945">
        <ele>288.9</ele>
        <time>2015-06-08T13:16:33Z</time>
      </trkpt>
      <trkpt lat="47.47642" lon="6.73952">
        <ele>288.6</ele>
        <time>2015-06-08T13:16:34Z</time>
      </trkpt>
      <trkpt lat="47.47644" lon="6.73959">
        <ele>288.6</ele>
        <time>2015-06-08T13:16:35Z</time>
      </trkpt>
      <trkpt lat="47.47645" lon="6.73966">
        <ele>288.6</ele>
        <time>2015-06-08T13:16:36Z</time>
      </trkpt>
      <trkpt lat="47.47647" lon="6.73973">
        <ele>289.3</ele>
        <time>2015-06-08T13:16:37Z</time>
      </trkpt>
      <trkpt lat="47.47648" lon="6.73979">
        <ele>289.1</ele>
        <time>2015-06-08T13:16:38Z</time>
      </trkpt>
      <trkpt lat="47.47648" lon="6.73985">
        <ele>288.8</ele>
        <time>2015-06-08T13:16:39Z</time>
      </trkpt>
      <trkpt lat="47.47649" lon="6.73991">
        <ele>288.4</ele>
        <time>2015-06-08T13:16:40Z</time>
      </trkpt>
      <trkpt lat="47.47651" lon="6.73998">
        <ele>288.3</ele>
        <time>2015-06-08T13:16:41Z</time>
      </trkpt>
      <trkpt lat="47.47652" lon="6.74003">
        <ele>288.3</ele>
        <time>2015-06-08T13:16:42Z</time>
      </trkpt>
      <trkpt lat="47.47653" lon="6.74009">
        <ele>288</ele>
        <time>2015-06-08T13:16:43Z</time>
      </trkpt>
      <trkpt lat="47.47654" lon="6.74015">
        <ele>288</ele>
        <time>2015-06-08T13:16:44Z</time>
      </trkpt>
      <trkpt lat="47.47655" lon="6.74021">
        <ele>288.2</ele>
        <time>2015-06-08T13:16:45Z</time>
      </trkpt>
      <trkpt lat="47.47656" lon="6.74028">
        <ele>288.2</ele>
        <time>2015-06-08T13:16:46Z</time>
      </trkpt>
      <trkpt lat="47.47657" lon="6.74035">
        <ele>288.5</ele>
        <time>2015-06-08T13:16:47Z</time>
      </trkpt>
      <trkpt lat="47.47658" lon="6.74042">
        <ele>288.7</ele>
        <time>2015-06-08T13:16:48Z</time>
      </trkpt>
      <trkpt lat="47.4766" lon="6.74049">
        <ele>288.9</ele>
        <time>2015-06-08T13:16:50Z</time>
      </trkpt>
      <trkpt lat="47.47661" lon="6.74055">
        <ele>288.8</ele>
        <time>2015-06-08T13:16:50Z</time>
      </trkpt>
      <trkpt lat="47.47662" lon="6.74061">
        <ele>288.5</ele>
        <time>2015-06-08T13:16:51Z</time>
      </trkpt>
      <trkpt lat="47.47663" lon="6.74068">
        <ele>288.8</ele>
        <time>2015-06-08T13:16:52Z</time>
      </trkpt>
      <trkpt lat="47.47664" lon="6.74074">
        <ele>289.4</ele>
        <time>2015-06-08T13:16:53Z</time>
      </trkpt>
      <trkpt lat="47.47666" lon="6.74081">
        <ele>289.3</ele>
        <time>2015-06-08T13:16:54Z</time>
      </trkpt>
      <trkpt lat="47.47667" lon="6.74088">
        <ele>289.8</ele>
        <time>2015-06-08T13:16:55Z</time>
      </trkpt>
      <trkpt lat="47.47669" lon="6.74094">
        <ele>289.8</ele>
        <time>2015-06-08T13:16:56Z</time>
      </trkpt>
      <trkpt lat="47.4767" lon="6.74101">
        <ele>290.2</ele>
        <time>2015-06-08T13:16:57Z</time>
      </trkpt>
      <trkpt lat="47.47671" lon="6.74108">
        <ele>290.3</ele>
        <time>2015-06-08T13:16:58Z</time>
      </trkpt>
      <trkpt lat="47.47673" lon="6.74114">
        <ele>290.2</ele>
        <time>2015-06-08T13:16:59Z</time>
      </trkpt>
      <trkpt lat="47.47674" lon="6.74121">
        <ele>290.6</ele>
        <time>2015-06-08T13:17:00Z</time>
      </trkpt>
      <trkpt lat="47.47676" lon="6.74127">
        <ele>290.5</ele>
        <time>2015-06-08T13:17:01Z</time>
      </trkpt>
      <trkpt lat="47.47677" lon="6.74133">
        <ele>290.4</ele>
        <time>2015-06-08T13:17:02Z</time>
      </trkpt>
      <trkpt lat="47.47678" lon="6.7414">
        <ele>290</ele>
        <time>2015-06-08T13:17:03Z</time>
      </trkpt>
      <trkpt lat="47.47679" lon="6.74146">
        <ele>289.7</ele>
        <time>2015-06-08T13:17:04Z</time>
      </trkpt>
      <trkpt lat="47.47681" lon="6.74153">
        <ele>289.8</ele>
        <time>2015-06-08T13:17:05Z</time>
      </trkpt>
      <trkpt lat="47.47682" lon="6.74159">
        <ele>290</ele>
        <time>2015-06-08T13:17:06Z</time>
      </trkpt>
      <trkpt lat="47.47683" lon="6.74165">
        <ele>290.1</ele>
        <time>2015-06-08T13:17:07Z</time>
      </trkpt>
      <trkpt lat="47.47685" lon="6.74171">
        <ele>290.1</ele>
        <time>2015-06-08T13:17:08Z</time>
      </trkpt>
      <trkpt lat="47.47686" lon="6.74177">
        <ele>290.5</ele>
        <time>2015-06-08T13:17:09Z</time>
      </trkpt>
      <trkpt lat="47.47687" lon="6.74184">
        <ele>290.5</ele>
        <time>2015-06-08T13:17:10Z</time>
      </trkpt>
      <trkpt lat="47.47689" lon="6.7419">
        <ele>290.6</ele>
        <time>2015-06-08T13:17:11Z</time>
      </trkpt>
      <trkpt lat="47.47689" lon="6.74196">
        <ele>290.8</ele>
        <time>2015-06-08T13:17:12Z</time>
      </trkpt>
      <trkpt lat="47.4769" lon="6.74203">
        <ele>290.9</ele>
        <time>2015-06-08T13:17:13Z</time>
      </trkpt>
      <trkpt lat="47.47691" lon="6.7421">
        <ele>291</ele>
        <time>2015-06-08T13:17:14Z</time>
      </trkpt>
      <trkpt lat="47.47692" lon="6.74215">
        <ele>290.9</ele>
        <time>2015-06-08T13:17:15Z</time>
      </trkpt>
      <trkpt lat="47.47693" lon="6.74222">
        <ele>290.7</ele>
        <time>2015-06-08T13:17:16Z</time>
      </trkpt>
      <trkpt lat="47.47694" lon="6.74228">
        <ele>290.9</ele>
        <time>2015-06-08T13:17:17Z</time>
      </trkpt>
      <trkpt lat="47.47696" lon="6.74235">
        <ele>291.3</ele>
        <time>2015-06-08T13:17:18Z</time>
      </trkpt>
      <trkpt lat="47.47697" lon="6.74241">
        <ele>291.6</ele>
        <time>2015-06-08T13:17:19Z</time>
      </trkpt>
      <trkpt lat="47.47698" lon="6.74246">
        <ele>291.2</ele>
        <time>2015-06-08T13:17:20Z</time>
      </trkpt>
      <trkpt lat="47.477" lon="6.74252">
        <ele>291.1</ele>
        <time>2015-06-08T13:17:21Z</time>
      </trkpt>
      <trkpt lat="47.477" lon="6.74256">
        <ele>290</ele>
        <time>2015-06-08T13:17:22Z</time>
      </trkpt>
      <trkpt lat="47.47701" lon="6.74262">
        <ele>289.5</ele>
        <time>2015-06-08T13:17:23Z</time>
      </trkpt>
      <trkpt lat="47.47702" lon="6.74268">
        <ele>289.1</ele>
        <time>2015-06-08T13:17:24Z</time>
      </trkpt>
      <trkpt lat="47.47703" lon="6.74274">
        <ele>288.8</ele>
        <time>2015-06-08T13:17:25Z</time>
      </trkpt>
      <trkpt lat="47.47703" lon="6.7428">
        <ele>288.3</ele>
        <time>2015-06-08T13:17:26Z</time>
      </trkpt>
      <trkpt lat="47.47704" lon="6.74286">
        <ele>287.9</ele>
        <time>2015-06-08T13:17:27Z</time>
      </trkpt>
      <trkpt lat="47.47705" lon="6.74291">
        <ele>287.9</ele>
        <time>2015-06-08T13:17:28Z</time>
      </trkpt>
      <trkpt lat="47.47706" lon="6.74297">
        <ele>287.8</ele>
        <time>2015-06-08T13:17:29Z</time>
      </trkpt>
      <trkpt lat="47.47707" lon="6.74303">
        <ele>287.7</ele>
        <time>2015-06-08T13:17:30Z</time>
      </trkpt>
      <trkpt lat="47.47707" lon="6.74309">
        <ele>287.5</ele>
        <time>2015-06-08T13:17:31Z</time>
      </trkpt>
      <trkpt lat="47.47708" lon="6.74315">
        <ele>287.6</ele>
        <time>2015-06-08T13:17:32Z</time>
      </trkpt>
      <trkpt lat="47.47709" lon="6.74322">
        <ele>287.4</ele>
        <time>2015-06-08T13:17:33Z</time>
      </trkpt>
      <trkpt lat="47.4771" lon="6.74328">
        <ele>287.1</ele>
        <time>2015-06-08T13:17:34Z</time>
      </trkpt>
      <trkpt lat="47.47711" lon="6.74334">
        <ele>286.9</ele>
        <time>2015-06-08T13:17:35Z</time>
      </trkpt>
      <trkpt lat="47.47712" lon="6.7434">
        <ele>286.8</ele>
        <time>2015-06-08T13:17:36Z</time>
      </trkpt>
      <trkpt lat="47.47713" lon="6.74346">
        <ele>287.3</ele>
        <time>2015-06-08T13:17:37Z</time>
      </trkpt>
      <trkpt lat="47.47713" lon="6.74351">
        <ele>287.5</ele>
        <time>2015-06-08T13:17:38Z</time>
      </trkpt>
      <trkpt lat="47.47714" lon="6.74357">
        <ele>287.4</ele>
        <time>2015-06-08T13:17:39Z</time>
      </trkpt>
      <trkpt lat="47.47715" lon="6.74363">
        <ele>287.5</ele>
        <time>2015-06-08T13:17:40Z</time>
      </trkpt>
      <trkpt lat="47.47715" lon="6.74368">
        <ele>287.4</ele>
        <time>2015-06-08T13:17:41Z</time>
      </trkpt>
      <trkpt lat="47.47716" lon="6.74375">
        <ele>287.9</ele>
        <time>2015-06-08T13:17:42Z</time>
      </trkpt>
      <trkpt lat="47.47716" lon="6.74381">
        <ele>288</ele>
        <time>2015-06-08T13:17:43Z</time>
      </trkpt>
      <trkpt lat="47.47717" lon="6.74387">
        <ele>287.9</ele>
        <time>2015-06-08T13:17:44Z</time>
      </trkpt>
      <trkpt lat="47.47718" lon="6.74393">
        <ele>287.7</ele>
        <time>2015-06-08T13:17:45Z</time>
      </trkpt>
      <trkpt lat="47.47719" lon="6.74398">
        <ele>287.2</ele>
        <time>2015-06-08T13:17:46Z</time>
      </trkpt>
      <trkpt lat="47.4772" lon="6.74404">
        <ele>287.5</ele>
        <time>2015-06-08T13:17:47Z</time>
      </trkpt>
      <trkpt lat="47.47721" lon="6.74409">
        <ele>287.2</ele>
        <time>2015-06-08T13:17:48Z</time>
      </trkpt>
      <trkpt lat="47.47722" lon="6.74415">
        <ele>287</ele>
        <time>2015-06-08T13:17:49Z</time>
      </trkpt>
      <trkpt lat="47.47722" lon="6.74421">
        <ele>286.8</ele>
        <time>2015-06-08T13:17:50Z</time>
      </trkpt>
      <trkpt lat="47.47723" lon="6.74427">
        <ele>286.5</ele>
        <time>2015-06-08T13:17:51Z</time>
      </trkpt>
      <trkpt lat="47.47724" lon="6.74432">
        <ele>286.8</ele>
        <time>2015-06-08T13:17:52Z</time>
      </trkpt>
      <trkpt lat="47.47723" lon="6.74436">
        <ele>287</ele>
        <time>2015-06-08T13:17:53Z</time>
      </trkpt>
      <trkpt lat="47.47722" lon="6.74441">
        <ele>287</ele>
        <time>2015-06-08T13:17:54Z</time>
      </trkpt>
      <trkpt lat="47.47721" lon="6.74443">
        <ele>285.7</ele>
        <time>2015-06-08T13:17:55Z</time>
      </trkpt>
      <trkpt lat="47.47718" lon="6.74445">
        <ele>285.5</ele>
        <time>2015-06-08T13:17:56Z</time>
      </trkpt>
      <trkpt lat="47.47716" lon="6.74447">
        <ele>285.6</ele>
        <time>2015-06-08T13:17:57Z</time>
      </trkpt>
      <trkpt lat="47.47714" lon="6.74451">
        <ele>285.8</ele>
        <time>2015-06-08T13:17:58Z</time>
      </trkpt>
      <trkpt lat="47.47714" lon="6.74456">
        <ele>285.9</ele>
        <time>2015-06-08T13:17:59Z</time>
      </trkpt>
      <trkpt lat="47.47714" lon="6.7446">
        <ele>285.7</ele>
        <time>2015-06-08T13:18:00Z</time>
      </trkpt>
      <trkpt lat="47.47715" lon="6.74466">
        <ele>285.8</ele>
        <time>2015-06-08T13:18:01Z</time>
      </trkpt>
      <trkpt lat="47.47716" lon="6.74472">
        <ele>285.8</ele>
        <time>2015-06-08T13:18:02Z</time>
      </trkpt>
      <trkpt lat="47.47717" lon="6.74478">
        <ele>285.8</ele>
        <time>2015-06-08T13:18:03Z</time>
      </trkpt>
      <trkpt lat="47.47717" lon="6.74484">
        <ele>285.7</ele>
        <time>2015-06-08T13:18:04Z</time>
      </trkpt>
      <trkpt lat="47.47718" lon="6.74489">
        <ele>285.5</ele>
        <time>2015-06-08T13:18:05Z</time>
      </trkpt>
      <trkpt lat="47.47719" lon="6.74495">
        <ele>285.3</ele>
        <time>2015-06-08T13:18:06Z</time>
      </trkpt>
      <trkpt lat="47.47719" lon="6.745">
        <ele>285.2</ele>
        <time>2015-06-08T13:18:07Z</time>
      </trkpt>
      <trkpt lat="47.4772" lon="6.74505">
        <ele>285.2</ele>
        <time>2015-06-08T13:18:08Z</time>
      </trkpt>
      <trkpt lat="47.4772" lon="6.74511">
        <ele>285.2</ele>
        <time>2015-06-08T13:18:09Z</time>
      </trkpt>
      <trkpt lat="47.47721" lon="6.74516">
        <ele>284.9</ele>
        <time>2015-06-08T13:18:10Z</time>
      </trkpt>
      <trkpt lat="47.47721" lon="6.74521">
        <ele>284.7</ele>
        <time>2015-06-08T13:18:11Z</time>
      </trkpt>
      <trkpt lat="47.47723" lon="6.74527">
        <ele>284.4</ele>
        <time>2015-06-08T13:18:12Z</time>
      </trkpt>
      <trkpt lat="47.47725" lon="6.74534">
        <ele>284.1</ele>
        <time>2015-06-08T13:18:13Z</time>
      </trkpt>
      <trkpt lat="47.47727" lon="6.7454">
        <ele>283.8</ele>
        <time>2015-06-08T13:18:14Z</time>
      </trkpt>
      <trkpt lat="47.47729" lon="6.74545">
        <ele>283.6</ele>
        <time>2015-06-08T13:18:15Z</time>
      </trkpt>
      <trkpt lat="47.4773" lon="6.74551">
        <ele>283.4</ele>
        <time>2015-06-08T13:18:16Z</time>
      </trkpt>
      <trkpt lat="47.47732" lon="6.74557">
        <ele>283.2</ele>
        <time>2015-06-08T13:18:17Z</time>
      </trkpt>
      <trkpt lat="47.47734" lon="6.74563">
        <ele>283.2</ele>
        <time>2015-06-08T13:18:18Z</time>
      </trkpt>
      <trkpt lat="47.47735" lon="6.74569">
        <ele>283</ele>
        <time>2015-06-08T13:18:19Z</time>
      </trkpt>
      <trkpt lat="47.47736" lon="6.74576">
        <ele>282.8</ele>
        <time>2015-06-08T13:18:20Z</time>
      </trkpt>
      <trkpt lat="47.47737" lon="6.74583">
        <ele>282.8</ele>
        <time>2015-06-08T13:18:21Z</time>
      </trkpt>
      <trkpt lat="47.47736" lon="6.74588">
        <ele>283.7</ele>
        <time>2015-06-08T13:18:22Z</time>
      </trkpt>
      <trkpt lat="47.47735" lon="6.74595">
        <ele>284.4</ele>
        <time>2015-06-08T13:18:23Z</time>
      </trkpt>
      <trkpt lat="47.47734" lon="6.74601">
        <ele>285.1</ele>
        <time>2015-06-08T13:18:24Z</time>
      </trkpt>
      <trkpt lat="47.47734" lon="6.74606">
        <ele>285.9</ele>
        <time>2015-06-08T13:18:25Z</time>
      </trkpt>
      <trkpt lat="47.47734" lon="6.74613">
        <ele>286.1</ele>
        <time>2015-06-08T13:18:26Z</time>
      </trkpt>
      <trkpt lat="47.47734" lon="6.74619">
        <ele>286.2</ele>
        <time>2015-06-08T13:18:27Z</time>
      </trkpt>
      <trkpt lat="47.47734" lon="6.74624">
        <ele>287</ele>
        <time>2015-06-08T13:18:28Z</time>
      </trkpt>
      <trkpt lat="47.47734" lon="6.7463">
        <ele>287.5</ele>
        <time>2015-06-08T13:18:29Z</time>
      </trkpt>
      <trkpt lat="47.47735" lon="6.74635">
        <ele>287.4</ele>
        <time>2015-06-08T13:18:30Z</time>
      </trkpt>
      <trkpt lat="47.47734" lon="6.74641">
        <ele>288</ele>
        <time>2015-06-08T13:18:31Z</time>
      </trkpt>
      <trkpt lat="47.47734" lon="6.74648">
        <ele>288.5</ele>
        <time>2015-06-08T13:18:32Z</time>
      </trkpt>
      <trkpt lat="47.47734" lon="6.74655">
        <ele>288.6</ele>
        <time>2015-06-08T13:18:33Z</time>
      </trkpt>
      <trkpt lat="47.47734" lon="6.74662">
        <ele>288.6</ele>
        <time>2015-06-08T13:18:34Z</time>
      </trkpt>
      <trkpt lat="47.47734" lon="6.7467">
        <ele>288.7</ele>
        <time>2015-06-08T13:18:35Z</time>
      </trkpt>
      <trkpt lat="47.47734" lon="6.74677">
        <ele>288.8</ele>
        <time>2015-06-08T13:18:36Z</time>
      </trkpt>
      <trkpt lat="47.47734" lon="6.74684">
        <ele>289</ele>
        <time>2015-06-08T13:18:37Z</time>
      </trkpt>
      <trkpt lat="47.47735" lon="6.74691">
        <ele>289.1</ele>
        <time>2015-06-08T13:18:38Z</time>
      </trkpt>
      <trkpt lat="47.47735" lon="6.74698">
        <ele>289.2</ele>
        <time>2015-06-08T13:18:39Z</time>
      </trkpt>
      <trkpt lat="47.47734" lon="6.74705">
        <ele>289.4</ele>
        <time>2015-06-08T13:18:40Z</time>
      </trkpt>
      <trkpt lat="47.47734" lon="6.74712">
        <ele>289.5</ele>
        <time>2015-06-08T13:18:41Z</time>
      </trkpt>
      <trkpt lat="47.47734" lon="6.74718">
        <ele>289.4</ele>
        <time>2015-06-08T13:18:42Z</time>
      </trkpt>
      <trkpt lat="47.47735" lon="6.74726">
        <ele>289.7</ele>
        <time>2015-06-08T13:18:43Z</time>
      </trkpt>
      <trkpt lat="47.47735" lon="6.74733">
        <ele>290</ele>
        <time>2015-06-08T13:18:44Z</time>
      </trkpt>
      <trkpt lat="47.47735" lon="6.7474">
        <ele>290</ele>
        <time>2015-06-08T13:18:45Z</time>
      </trkpt>
      <trkpt lat="47.47735" lon="6.74746">
        <ele>290</ele>
        <time>2015-06-08T13:18:46Z</time>
      </trkpt>
      <trkpt lat="47.47734" lon="6.74753">
        <ele>290.3</ele>
        <time>2015-06-08T13:18:47Z</time>
      </trkpt>
      <trkpt lat="47.47733" lon="6.74759">
        <ele>291</ele>
        <time>2015-06-08T13:18:48Z</time>
      </trkpt>
      <trkpt lat="47.47732" lon="6.74767">
        <ele>292.2</ele>
        <time>2015-06-08T13:18:49Z</time>
      </trkpt>
      <trkpt lat="47.47731" lon="6.74774">
        <ele>292.7</ele>
        <time>2015-06-08T13:18:50Z</time>
      </trkpt>
      <trkpt lat="47.47731" lon="6.74781">
        <ele>293.2</ele>
        <time>2015-06-08T13:18:51Z</time>
      </trkpt>
      <trkpt lat="47.47731" lon="6.74786">
        <ele>292.9</ele>
        <time>2015-06-08T13:18:52Z</time>
      </trkpt>
      <trkpt lat="47.47731" lon="6.74793">
        <ele>293.4</ele>
        <time>2015-06-08T13:18:53Z</time>
      </trkpt>
      <trkpt lat="47.47731" lon="6.74799">
        <ele>294.5</ele>
        <time>2015-06-08T13:18:54Z</time>
      </trkpt>
      <trkpt lat="47.4773" lon="6.74806">
        <ele>295</ele>
        <time>2015-06-08T13:18:55Z</time>
      </trkpt>
      <trkpt lat="47.4773" lon="6.74813">
        <ele>295</ele>
        <time>2015-06-08T13:18:56Z</time>
      </trkpt>
      <trkpt lat="47.47729" lon="6.7482">
        <ele>295.2</ele>
        <time>2015-06-08T13:18:57Z</time>
      </trkpt>
      <trkpt lat="47.47729" lon="6.74826">
        <ele>294.8</ele>
        <time>2015-06-08T13:18:58Z</time>
      </trkpt>
      <trkpt lat="47.47728" lon="6.74833">
        <ele>294.4</ele>
        <time>2015-06-08T13:18:59Z</time>
      </trkpt>
      <trkpt lat="47.47729" lon="6.74839">
        <ele>293.9</ele>
        <time>2015-06-08T13:19:00Z</time>
      </trkpt>
      <trkpt lat="47.47729" lon="6.74845">
        <ele>293.8</ele>
        <time>2015-06-08T13:19:01Z</time>
      </trkpt>
      <trkpt lat="47.47729" lon="6.74852">
        <ele>293.2</ele>
        <time>2015-06-08T13:19:02Z</time>
      </trkpt>
      <trkpt lat="47.47729" lon="6.74859">
        <ele>292.9</ele>
        <time>2015-06-08T13:19:03Z</time>
      </trkpt>
      <trkpt lat="47.47729" lon="6.74866">
        <ele>292.6</ele>
        <time>2015-06-08T13:19:04Z</time>
      </trkpt>
      <trkpt lat="47.47729" lon="6.74873">
        <ele>292.2</ele>
        <time>2015-06-08T13:19:05Z</time>
      </trkpt>
      <trkpt lat="47.47729" lon="6.7488">
        <ele>292.6</ele>
        <time>2015-06-08T13:19:06Z</time>
      </trkpt>
      <trkpt lat="47.47729" lon="6.74886">
        <ele>292.4</ele>
        <time>2015-06-08T13:19:07Z</time>
      </trkpt>
      <trkpt lat="47.47728" lon="6.74892">
        <ele>292.5</ele>
        <time>2015-06-08T13:19:08Z</time>
      </trkpt>
      <trkpt lat="47.47728" lon="6.74899">
        <ele>292.7</ele>
        <time>2015-06-08T13:19:09Z</time>
      </trkpt>
      <trkpt lat="47.47728" lon="6.74905">
        <ele>292.4</ele>
        <time>2015-06-08T13:19:10Z</time>
      </trkpt>
      <trkpt lat="47.47728" lon="6.74912">
        <ele>293</ele>
        <time>2015-06-08T13:19:11Z</time>
      </trkpt>
      <trkpt lat="47.47728" lon="6.74919">
        <ele>293.3</ele>
        <time>2015-06-08T13:19:12Z</time>
      </trkpt>
      <trkpt lat="47.47728" lon="6.74926">
        <ele>293.4</ele>
        <time>2015-06-08T13:19:13Z</time>
      </trkpt>
      <trkpt lat="47.47728" lon="6.74931">
        <ele>293.4</ele>
        <time>2015-06-08T13:19:14Z</time>
      </trkpt>
      <trkpt lat="47.47727" lon="6.74937">
        <ele>293.8</ele>
        <time>2015-06-08T13:19:15Z</time>
      </trkpt>
      <trkpt lat="47.47728" lon="6.74944">
        <ele>293.7</ele>
        <time>2015-06-08T13:19:16Z</time>
      </trkpt>
      <trkpt lat="47.47727" lon="6.74949">
        <ele>294.9</ele>
        <time>2015-06-08T13:19:17Z</time>
      </trkpt>
      <trkpt lat="47.47727" lon="6.74955">
        <ele>294.6</ele>
        <time>2015-06-08T13:19:18Z</time>
      </trkpt>
      <trkpt lat="47.47727" lon="6.74961">
        <ele>294.8</ele>
        <time>2015-06-08T13:19:19Z</time>
      </trkpt>
      <trkpt lat="47.47727" lon="6.74967">
        <ele>295.1</ele>
        <time>2015-06-08T13:19:20Z</time>
      </trkpt>
      <trkpt lat="47.47727" lon="6.74973">
        <ele>295.5</ele>
        <time>2015-06-08T13:19:21Z</time>
      </trkpt>
      <trkpt lat="47.47727" lon="6.7498">
        <ele>295</ele>
        <time>2015-06-08T13:19:22Z</time>
      </trkpt>
      <trkpt lat="47.47727" lon="6.74987">
        <ele>294.9</ele>
        <time>2015-06-08T13:19:23Z</time>
      </trkpt>
      <trkpt lat="47.47726" lon="6.74994">
        <ele>294.6</ele>
        <time>2015-06-08T13:19:24Z</time>
      </trkpt>
      <trkpt lat="47.47726" lon="6.75">
        <ele>294.7</ele>
        <time>2015-06-08T13:19:25Z</time>
      </trkpt>
      <trkpt lat="47.47726" lon="6.75007">
        <ele>294.8</ele>
        <time>2015-06-08T13:19:26Z</time>
      </trkpt>
      <trkpt lat="47.47725" lon="6.75013">
        <ele>294.9</ele>
        <time>2015-06-08T13:19:27Z</time>
      </trkpt>
      <trkpt lat="47.47726" lon="6.7502">
        <ele>294.2</ele>
        <time>2015-06-08T13:19:28Z</time>
      </trkpt>
      <trkpt lat="47.47725" lon="6.75026">
        <ele>293.8</ele>
        <time>2015-06-08T13:19:29Z</time>
      </trkpt>
      <trkpt lat="47.47725" lon="6.75032">
        <ele>293.7</ele>
        <time>2015-06-08T13:19:30Z</time>
      </trkpt>
      <trkpt lat="47.47725" lon="6.75037">
        <ele>293.8</ele>
        <time>2015-06-08T13:19:31Z</time>
      </trkpt>
      <trkpt lat="47.47725" lon="6.75044">
        <ele>294.2</ele>
        <time>2015-06-08T13:19:32Z</time>
      </trkpt>
      <trkpt lat="47.47725" lon="6.7505">
        <ele>293.8</ele>
        <time>2015-06-08T13:19:33Z</time>
      </trkpt>
      <trkpt lat="47.47725" lon="6.75057">
        <ele>293.3</ele>
        <time>2015-06-08T13:19:34Z</time>
      </trkpt>
      <trkpt lat="47.47725" lon="6.75065">
        <ele>293</ele>
        <time>2015-06-08T13:19:35Z</time>
      </trkpt>
      <trkpt lat="47.47724" lon="6.75071">
        <ele>293.6</ele>
        <time>2015-06-08T13:19:36Z</time>
      </trkpt>
      <trkpt lat="47.47724" lon="6.75078">
        <ele>293.8</ele>
        <time>2015-06-08T13:19:37Z</time>
      </trkpt>
      <trkpt lat="47.47723" lon="6.75085">
        <ele>294</ele>
        <time>2015-06-08T13:19:38Z</time>
      </trkpt>
      <trkpt lat="47.47723" lon="6.75092">
        <ele>294.4</ele>
        <time>2015-06-08T13:19:39Z</time>
      </trkpt>
      <trkpt lat="47.47722" lon="6.75099">
        <ele>295</ele>
        <time>2015-06-08T13:19:40Z</time>
      </trkpt>
      <trkpt lat="47.47722" lon="6.75107">
        <ele>295.8</ele>
        <time>2015-06-08T13:19:41Z</time>
      </trkpt>
      <trkpt lat="47.47722" lon="6.75115">
        <ele>295.9</ele>
        <time>2015-06-08T13:19:42Z</time>
      </trkpt>
      <trkpt lat="47.47721" lon="6.75122">
        <ele>296.3</ele>
        <time>2015-06-08T13:19:43Z</time>
      </trkpt>
      <trkpt lat="47.47721" lon="6.75129">
        <ele>296.6</ele>
        <time>2015-06-08T13:19:44Z</time>
      </trkpt>
      <trkpt lat="47.47721" lon="6.75137">
        <ele>296.8</ele>
        <time>2015-06-08T13:19:45Z</time>
      </trkpt>
      <trkpt lat="47.4772" lon="6.75145">
        <ele>297.4</ele>
        <time>2015-06-08T13:19:46Z</time>
      </trkpt>
      <trkpt lat="47.4772" lon="6.75152">
        <ele>298.3</ele>
        <time>2015-06-08T13:19:47Z</time>
      </trkpt>
      <trkpt lat="47.47719" lon="6.75161">
        <ele>299.2</ele>
        <time>2015-06-08T13:19:48Z</time>
      </trkpt>
      <trkpt lat="47.47719" lon="6.75169">
        <ele>300.3</ele>
        <time>2015-06-08T13:19:49Z</time>
      </trkpt>
      <trkpt lat="47.47719" lon="6.75177">
        <ele>301.4</ele>
        <time>2015-06-08T13:19:50Z</time>
      </trkpt>
      <trkpt lat="47.47719" lon="6.75184">
        <ele>302.5</ele>
        <time>2015-06-08T13:19:51Z</time>
      </trkpt>
      <trkpt lat="47.47718" lon="6.75191">
        <ele>303.3</ele>
        <time>2015-06-08T13:19:52Z</time>
      </trkpt>
      <trkpt lat="47.47718" lon="6.75197">
        <ele>303.5</ele>
        <time>2015-06-08T13:19:53Z</time>
      </trkpt>
      <trkpt lat="47.47718" lon="6.75203">
        <ele>304.3</ele>
        <time>2015-06-08T13:19:54Z</time>
      </trkpt>
      <trkpt lat="47.47718" lon="6.7521">
        <ele>304.9</ele>
        <time>2015-06-08T13:19:55Z</time>
      </trkpt>
      <trkpt lat="47.47718" lon="6.75217">
        <ele>305.1</ele>
        <time>2015-06-08T13:19:56Z</time>
      </trkpt>
      <trkpt lat="47.47718" lon="6.75224">
        <ele>305.4</ele>
        <time>2015-06-08T13:19:57Z</time>
      </trkpt>
      <trkpt lat="47.47717" lon="6.75231">
        <ele>306.1</ele>
        <time>2015-06-08T13:19:58Z</time>
      </trkpt>
      <trkpt lat="47.47717" lon="6.75237">
        <ele>306.2</ele>
        <time>2015-06-08T13:19:59Z</time>
      </trkpt>
      <trkpt lat="47.47717" lon="6.75244">
        <ele>305.6</ele>
        <time>2015-06-08T13:20:00Z</time>
      </trkpt>
      <trkpt lat="47.47716" lon="6.75251">
        <ele>305.4</ele>
        <time>2015-06-08T13:20:01Z</time>
      </trkpt>
      <trkpt lat="47.47715" lon="6.75258">
        <ele>304.9</ele>
        <time>2015-06-08T13:20:02Z</time>
      </trkpt>
      <trkpt lat="47.47715" lon="6.75264">
        <ele>305.3</ele>
        <time>2015-06-08T13:20:03Z</time>
      </trkpt>
      <trkpt lat="47.47715" lon="6.75271">
        <ele>305.4</ele>
        <time>2015-06-08T13:20:04Z</time>
      </trkpt>
      <trkpt lat="47.47714" lon="6.75277">
        <ele>304.4</ele>
        <time>2015-06-08T13:20:05Z</time>
      </trkpt>
      <trkpt lat="47.47714" lon="6.75284">
        <ele>304.8</ele>
        <time>2015-06-08T13:20:06Z</time>
      </trkpt>
      <trkpt lat="47.47713" lon="6.75291">
        <ele>304.9</ele>
        <time>2015-06-08T13:20:07Z</time>
      </trkpt>
      <trkpt lat="47.47712" lon="6.75298">
        <ele>305.1</ele>
        <time>2015-06-08T13:20:08Z</time>
      </trkpt>
      <trkpt lat="47.47711" lon="6.75306">
        <ele>305.2</ele>
        <time>2015-06-08T13:20:09Z</time>
      </trkpt>
      <trkpt lat="47.47711" lon="6.75313">
        <ele>305.4</ele>
        <time>2015-06-08T13:20:10Z</time>
      </trkpt>
      <trkpt lat="47.47711" lon="6.75321">
        <ele>305.1</ele>
        <time>2015-06-08T13:20:11Z</time>
      </trkpt>
      <trkpt lat="47.47711" lon="6.75327">
        <ele>304.8</ele>
        <time>2015-06-08T13:20:12Z</time>
      </trkpt>
      <trkpt lat="47.47711" lon="6.75334">
        <ele>305.1</ele>
        <time>2015-06-08T13:20:13Z</time>
      </trkpt>
      <trkpt lat="47.47711" lon="6.75342">
        <ele>305.9</ele>
        <time>2015-06-08T13:20:14Z</time>
      </trkpt>
      <trkpt lat="47.47711" lon="6.75349">
        <ele>306.5</ele>
        <time>2015-06-08T13:20:15Z</time>
      </trkpt>
      <trkpt lat="47.47711" lon="6.75358">
        <ele>306.8</ele>
        <time>2015-06-08T13:20:16Z</time>
      </trkpt>
      <trkpt lat="47.47711" lon="6.75365">
        <ele>306.9</ele>
        <time>2015-06-08T13:20:17Z</time>
      </trkpt>
      <trkpt lat="47.47711" lon="6.75372">
        <ele>307.4</ele>
        <time>2015-06-08T13:20:18Z</time>
      </trkpt>
      <trkpt lat="47.4771" lon="6.75379">
        <ele>308.1</ele>
        <time>2015-06-08T13:20:19Z</time>
      </trkpt>
      <trkpt lat="47.4771" lon="6.75386">
        <ele>309.2</ele>
        <time>2015-06-08T13:20:20Z</time>
      </trkpt>
      <trkpt lat="47.4771" lon="6.75394">
        <ele>309.7</ele>
        <time>2015-06-08T13:20:21Z</time>
      </trkpt>
      <trkpt lat="47.4771" lon="6.75401">
        <ele>309.4</ele>
        <time>2015-06-08T13:20:22Z</time>
      </trkpt>
      <trkpt lat="47.4771" lon="6.75407">
        <ele>309.5</ele>
        <time>2015-06-08T13:20:23Z</time>
      </trkpt>
      <trkpt lat="47.4771" lon="6.75415">
        <ele>309.5</ele>
        <time>2015-06-08T13:20:24Z</time>
      </trkpt>
      <trkpt lat="47.4771" lon="6.75422">
        <ele>309.3</ele>
        <time>2015-06-08T13:20:25Z</time>
      </trkpt>
      <trkpt lat="47.4771" lon="6.7543">
        <ele>309.6</ele>
        <time>2015-06-08T13:20:26Z</time>
      </trkpt>
      <trkpt lat="47.4771" lon="6.75435">
        <ele>308.1</ele>
        <time>2015-06-08T13:20:27Z</time>
      </trkpt>
      <trkpt lat="47.4771" lon="6.7544">
        <ele>307.1</ele>
        <time>2015-06-08T13:20:28Z</time>
      </trkpt>
      <trkpt lat="47.47711" lon="6.75446">
        <ele>306.8</ele>
        <time>2015-06-08T13:20:29Z</time>
      </trkpt>
      <trkpt lat="47.4771" lon="6.75452">
        <ele>305.7</ele>
        <time>2015-06-08T13:20:30Z</time>
      </trkpt>
      <trkpt lat="47.47711" lon="6.75458">
        <ele>305.9</ele>
        <time>2015-06-08T13:20:31Z</time>
      </trkpt>
      <trkpt lat="47.47711" lon="6.75465">
        <ele>305.9</ele>
        <time>2015-06-08T13:20:32Z</time>
      </trkpt>
      <trkpt lat="47.4771" lon="6.75471">
        <ele>305.4</ele>
        <time>2015-06-08T13:20:33Z</time>
      </trkpt>
      <trkpt lat="47.4771" lon="6.75477">
        <ele>305.4</ele>
        <time>2015-06-08T13:20:34Z</time>
      </trkpt>
      <trkpt lat="47.4771" lon="6.75484">
        <ele>304.8</ele>
        <time>2015-06-08T13:20:35Z</time>
      </trkpt>
      <trkpt lat="47.47709" lon="6.75491">
        <ele>305.2</ele>
        <time>2015-06-08T13:20:36Z</time>
      </trkpt>
      <trkpt lat="47.47708" lon="6.75498">
        <ele>306.4</ele>
        <time>2015-06-08T13:20:37Z</time>
      </trkpt>
      <trkpt lat="47.47708" lon="6.75505">
        <ele>306.4</ele>
        <time>2015-06-08T13:20:38Z</time>
      </trkpt>
      <trkpt lat="47.47707" lon="6.75512">
        <ele>306</ele>
        <time>2015-06-08T13:20:39Z</time>
      </trkpt>
      <trkpt lat="47.47707" lon="6.75519">
        <ele>305.8</ele>
        <time>2015-06-08T13:20:40Z</time>
      </trkpt>
      <trkpt lat="47.47706" lon="6.75526">
        <ele>306.9</ele>
        <time>2015-06-08T13:20:41Z</time>
      </trkpt>
      <trkpt lat="47.47705" lon="6.75533">
        <ele>307.7</ele>
        <time>2015-06-08T13:20:42Z</time>
      </trkpt>
      <trkpt lat="47.47705" lon="6.75539">
        <ele>307.7</ele>
        <time>2015-06-08T13:20:43Z</time>
      </trkpt>
      <trkpt lat="47.47705" lon="6.75546">
        <ele>307.9</ele>
        <time>2015-06-08T13:20:44Z</time>
      </trkpt>
      <trkpt lat="47.47705" lon="6.75554">
        <ele>308</ele>
        <time>2015-06-08T13:20:45Z</time>
      </trkpt>
      <trkpt lat="47.47705" lon="6.75561">
        <ele>307.8</ele>
        <time>2015-06-08T13:20:46Z</time>
      </trkpt>
      <trkpt lat="47.47705" lon="6.75568">
        <ele>308</ele>
        <time>2015-06-08T13:20:47Z</time>
      </trkpt>
      <trkpt lat="47.47705" lon="6.75575">
        <ele>308</ele>
        <time>2015-06-08T13:20:48Z</time>
      </trkpt>
      <trkpt lat="47.47705" lon="6.75582">
        <ele>308</ele>
        <time>2015-06-08T13:20:49Z</time>
      </trkpt>
      <trkpt lat="47.47705" lon="6.7559">
        <ele>307.9</ele>
        <time>2015-06-08T13:20:50Z</time>
      </trkpt>
      <trkpt lat="47.47705" lon="6.75597">
        <ele>307.7</ele>
        <time>2015-06-08T13:20:51Z</time>
      </trkpt>
      <trkpt lat="47.47706" lon="6.75603">
        <ele>307.3</ele>
        <time>2015-06-08T13:20:52Z</time>
      </trkpt>
      <trkpt lat="47.47706" lon="6.7561">
        <ele>307.3</ele>
        <time>2015-06-08T13:20:53Z</time>
      </trkpt>
      <trkpt lat="47.47706" lon="6.75617">
        <ele>307.3</ele>
        <time>2015-06-08T13:20:54Z</time>
      </trkpt>
      <trkpt lat="47.47706" lon="6.75623">
        <ele>307</ele>
        <time>2015-06-08T13:20:55Z</time>
      </trkpt>
      <trkpt lat="47.47706" lon="6.7563">
        <ele>306.9</ele>
        <time>2015-06-08T13:20:56Z</time>
      </trkpt>
      <trkpt lat="47.47706" lon="6.75637">
        <ele>306.9</ele>
        <time>2015-06-08T13:20:57Z</time>
      </trkpt>
      <trkpt lat="47.47706" lon="6.75643">
        <ele>306.9</ele>
        <time>2015-06-08T13:20:58Z</time>
      </trkpt>
      <trkpt lat="47.47706" lon="6.75649">
        <ele>307.1</ele>
        <time>2015-06-08T13:20:59Z</time>
      </trkpt>
      <trkpt lat="47.47706" lon="6.75654">
        <ele>307.2</ele>
        <time>2015-06-08T13:21:00Z</time>
      </trkpt>
      <trkpt lat="47.47707" lon="6.75658">
        <ele>306</ele>
        <time>2015-06-08T13:21:01Z</time>
      </trkpt>
      <trkpt lat="47.47707" lon="6.75665">
        <ele>305.9</ele>
        <time>2015-06-08T13:21:02Z</time>
      </trkpt>
      <trkpt lat="47.47707" lon="6.75671">
        <ele>305.6</ele>
        <time>2015-06-08T13:21:03Z</time>
      </trkpt>
      <trkpt lat="47.47707" lon="6.75678">
        <ele>305.7</ele>
        <time>2015-06-08T13:21:04Z</time>
      </trkpt>
      <trkpt lat="47.47706" lon="6.75684">
        <ele>305.4</ele>
        <time>2015-06-08T13:21:05Z</time>
      </trkpt>
      <trkpt lat="47.47706" lon="6.75691">
        <ele>304.8</ele>
        <time>2015-06-08T13:21:06Z</time>
      </trkpt>
      <trkpt lat="47.47706" lon="6.75696">
        <ele>303.8</ele>
        <time>2015-06-08T13:21:07Z</time>
      </trkpt>
      <trkpt lat="47.47706" lon="6.75702">
        <ele>303.1</ele>
        <time>2015-06-08T13:21:08Z</time>
      </trkpt>
      <trkpt lat="47.47706" lon="6.75709">
        <ele>302.9</ele>
        <time>2015-06-08T13:21:09Z</time>
      </trkpt>
      <trkpt lat="47.47706" lon="6.75715">
        <ele>303.2</ele>
        <time>2015-06-08T13:21:10Z</time>
      </trkpt>
      <trkpt lat="47.47705" lon="6.7572">
        <ele>303.3</ele>
        <time>2015-06-08T13:21:11Z</time>
      </trkpt>
      <trkpt lat="47.47705" lon="6.75725">
        <ele>303</ele>
        <time>2015-06-08T13:21:12Z</time>
      </trkpt>
      <trkpt lat="47.47705" lon="6.75729">
        <ele>301.9</ele>
        <time>2015-06-08T13:21:13Z</time>
      </trkpt>
      <trkpt lat="47.47704" lon="6.75733">
        <ele>301.1</ele>
        <time>2015-06-08T13:21:14Z</time>
      </trkpt>
      <trkpt lat="47.47704" lon="6.75739">
        <ele>300.8</ele>
        <time>2015-06-08T13:21:15Z</time>
      </trkpt>
      <trkpt lat="47.47704" lon="6.75748">
        <ele>300.7</ele>
        <time>2015-06-08T13:21:16Z</time>
      </trkpt>
      <trkpt lat="47.47704" lon="6.75756">
        <ele>300.3</ele>
        <time>2015-06-08T13:21:17Z</time>
      </trkpt>
      <trkpt lat="47.47705" lon="6.75764">
        <ele>299.5</ele>
        <time>2015-06-08T13:21:18Z</time>
      </trkpt>
      <trkpt lat="47.47705" lon="6.75772">
        <ele>300</ele>
        <time>2015-06-08T13:21:19Z</time>
      </trkpt>
      <trkpt lat="47.47706" lon="6.75781">
        <ele>300.1</ele>
        <time>2015-06-08T13:21:20Z</time>
      </trkpt>
      <trkpt lat="47.47706" lon="6.75789">
        <ele>300.3</ele>
        <time>2015-06-08T13:21:21Z</time>
      </trkpt>
      <trkpt lat="47.47706" lon="6.75797">
        <ele>300.1</ele>
        <time>2015-06-08T13:21:22Z</time>
      </trkpt>
      <trkpt lat="47.47705" lon="6.75804">
        <ele>299.6</ele>
        <time>2015-06-08T13:21:23Z</time>
      </trkpt>
      <trkpt lat="47.47705" lon="6.7581">
        <ele>299.1</ele>
        <time>2015-06-08T13:21:24Z</time>
      </trkpt>
      <trkpt lat="47.47704" lon="6.75816">
        <ele>298.3</ele>
        <time>2015-06-08T13:21:25Z</time>
      </trkpt>
      <trkpt lat="47.47704" lon="6.75822">
        <ele>297.4</ele>
        <time>2015-06-08T13:21:26Z</time>
      </trkpt>
      <trkpt lat="47.47703" lon="6.75828">
        <ele>296.9</ele>
        <time>2015-06-08T13:21:27Z</time>
      </trkpt>
      <trkpt lat="47.47703" lon="6.75835">
        <ele>296.7</ele>
        <time>2015-06-08T13:21:28Z</time>
      </trkpt>
      <trkpt lat="47.47702" lon="6.75841">
        <ele>296.5</ele>
        <time>2015-06-08T13:21:29Z</time>
      </trkpt>
      <trkpt lat="47.47702" lon="6.75848">
        <ele>296.1</ele>
        <time>2015-06-08T13:21:30Z</time>
      </trkpt>
      <trkpt lat="47.47701" lon="6.75854">
        <ele>295.7</ele>
        <time>2015-06-08T13:21:31Z</time>
      </trkpt>
      <trkpt lat="47.47701" lon="6.75861">
        <ele>295.8</ele>
        <time>2015-06-08T13:21:32Z</time>
      </trkpt>
      <trkpt lat="47.477" lon="6.75866">
        <ele>295.5</ele>
        <time>2015-06-08T13:21:33Z</time>
      </trkpt>
      <trkpt lat="47.477" lon="6.75873">
        <ele>295.6</ele>
        <time>2015-06-08T13:21:34Z</time>
      </trkpt>
      <trkpt lat="47.47699" lon="6.7588">
        <ele>296.3</ele>
        <time>2015-06-08T13:21:35Z</time>
      </trkpt>
      <trkpt lat="47.47699" lon="6.75887">
        <ele>296.8</ele>
        <time>2015-06-08T13:21:36Z</time>
      </trkpt>
      <trkpt lat="47.47699" lon="6.75893">
        <ele>297.3</ele>
        <time>2015-06-08T13:21:37Z</time>
      </trkpt>
      <trkpt lat="47.47698" lon="6.759">
        <ele>297.9</ele>
        <time>2015-06-08T13:21:38Z</time>
      </trkpt>
      <trkpt lat="47.47697" lon="6.75907">
        <ele>298.3</ele>
        <time>2015-06-08T13:21:39Z</time>
      </trkpt>
      <trkpt lat="47.47697" lon="6.75914">
        <ele>298.9</ele>
        <time>2015-06-08T13:21:40Z</time>
      </trkpt>
      <trkpt lat="47.47696" lon="6.75921">
        <ele>299</ele>
        <time>2015-06-08T13:21:41Z</time>
      </trkpt>
      <trkpt lat="47.47696" lon="6.75928">
        <ele>299.4</ele>
        <time>2015-06-08T13:21:42Z</time>
      </trkpt>
      <trkpt lat="47.47696" lon="6.75934">
        <ele>299.4</ele>
        <time>2015-06-08T13:21:43Z</time>
      </trkpt>
      <trkpt lat="47.47695" lon="6.7594">
        <ele>300</ele>
        <time>2015-06-08T13:21:44Z</time>
      </trkpt>
      <trkpt lat="47.47694" lon="6.75945">
        <ele>300.6</ele>
        <time>2015-06-08T13:21:45Z</time>
      </trkpt>
      <trkpt lat="47.47692" lon="6.7595">
        <ele>301.1</ele>
        <time>2015-06-08T13:21:46Z</time>
      </trkpt>
      <trkpt lat="47.4769" lon="6.75953">
        <ele>300.4</ele>
        <time>2015-06-08T13:21:47Z</time>
      </trkpt>
      <trkpt lat="47.47689" lon="6.75958">
        <ele>301</ele>
        <time>2015-06-08T13:21:48Z</time>
      </trkpt>
      <trkpt lat="47.47685" lon="6.75962">
        <ele>301.6</ele>
        <time>2015-06-08T13:21:49Z</time>
      </trkpt>
      <trkpt lat="47.47682" lon="6.75966">
        <ele>302</ele>
        <time>2015-06-08T13:21:50Z</time>
      </trkpt>
      <trkpt lat="47.47679" lon="6.75971">
        <ele>302.2</ele>
        <time>2015-06-08T13:21:51Z</time>
      </trkpt>
      <trkpt lat="47.47677" lon="6.75975">
        <ele>301.8</ele>
        <time>2015-06-08T13:21:52Z</time>
      </trkpt>
      <trkpt lat="47.47675" lon="6.75979">
        <ele>301.5</ele>
        <time>2015-06-08T13:21:53Z</time>
      </trkpt>
      <trkpt lat="47.47672" lon="6.75985">
        <ele>301.5</ele>
        <time>2015-06-08T13:21:54Z</time>
      </trkpt>
      <trkpt lat="47.4767" lon="6.7599">
        <ele>301.6</ele>
        <time>2015-06-08T13:21:55Z</time>
      </trkpt>
      <trkpt lat="47.47668" lon="6.75997">
        <ele>302.5</ele>
        <time>2015-06-08T13:21:56Z</time>
      </trkpt>
      <trkpt lat="47.47666" lon="6.76005">
        <ele>303.4</ele>
        <time>2015-06-08T13:21:57Z</time>
      </trkpt>
      <trkpt lat="47.47664" lon="6.76012">
        <ele>304.1</ele>
        <time>2015-06-08T13:21:58Z</time>
      </trkpt>
      <trkpt lat="47.47664" lon="6.76019">
        <ele>304.7</ele>
        <time>2015-06-08T13:21:59Z</time>
      </trkpt>
      <trkpt lat="47.47663" lon="6.76026">
        <ele>305.1</ele>
        <time>2015-06-08T13:22:00Z</time>
      </trkpt>
      <trkpt lat="47.47663" lon="6.76033">
        <ele>305.8</ele>
        <time>2015-06-08T13:22:01Z</time>
      </trkpt>
      <trkpt lat="47.47664" lon="6.7604">
        <ele>306.3</ele>
        <time>2015-06-08T13:22:02Z</time>
      </trkpt>
      <trkpt lat="47.47664" lon="6.76046">
        <ele>306.5</ele>
        <time>2015-06-08T13:22:03Z</time>
      </trkpt>
      <trkpt lat="47.47666" lon="6.76051">
        <ele>306.7</ele>
        <time>2015-06-08T13:22:04Z</time>
      </trkpt>
      <trkpt lat="47.47668" lon="6.76055">
        <ele>306.7</ele>
        <time>2015-06-08T13:22:05Z</time>
      </trkpt>
      <trkpt lat="47.47669" lon="6.7606">
        <ele>306.9</ele>
        <time>2015-06-08T13:22:06Z</time>
      </trkpt>
      <trkpt lat="47.47672" lon="6.76065">
        <ele>307.2</ele>
        <time>2015-06-08T13:22:07Z</time>
      </trkpt>
      <trkpt lat="47.47674" lon="6.7607">
        <ele>307.7</ele>
        <time>2015-06-08T13:22:08Z</time>
      </trkpt>
      <trkpt lat="47.47677" lon="6.76075">
        <ele>307.9</ele>
        <time>2015-06-08T13:22:09Z</time>
      </trkpt>
      <trkpt lat="47.47681" lon="6.7608">
        <ele>308</ele>
        <time>2015-06-08T13:22:10Z</time>
      </trkpt>
      <trkpt lat="47.47684" lon="6.76085">
        <ele>308.1</ele>
        <time>2015-06-08T13:22:11Z</time>
      </trkpt>
      <trkpt lat="47.47688" lon="6.76089">
        <ele>308.6</ele>
        <time>2015-06-08T13:22:12Z</time>
      </trkpt>
      <trkpt lat="47.47692" lon="6.76094">
        <ele>309.2</ele>
        <time>2015-06-08T13:22:13Z</time>
      </trkpt>
      <trkpt lat="47.47696" lon="6.76099">
        <ele>310.2</ele>
        <time>2015-06-08T13:22:14Z</time>
      </trkpt>
      <trkpt lat="47.477" lon="6.76103">
        <ele>310.8</ele>
        <time>2015-06-08T13:22:15Z</time>
      </trkpt>
      <trkpt lat="47.47703" lon="6.76108">
        <ele>311.3</ele>
        <time>2015-06-08T13:22:16Z</time>
      </trkpt>
      <trkpt lat="47.47706" lon="6.76113">
        <ele>311.7</ele>
        <time>2015-06-08T13:22:17Z</time>
      </trkpt>
      <trkpt lat="47.4771" lon="6.76118">
        <ele>311.8</ele>
        <time>2015-06-08T13:22:18Z</time>
      </trkpt>
      <trkpt lat="47.47713" lon="6.76123">
        <ele>312</ele>
        <time>2015-06-08T13:22:19Z</time>
      </trkpt>
      <trkpt lat="47.47715" lon="6.76129">
        <ele>311.9</ele>
        <time>2015-06-08T13:22:20Z</time>
      </trkpt>
      <trkpt lat="47.47717" lon="6.76133">
        <ele>312</ele>
        <time>2015-06-08T13:22:21Z</time>
      </trkpt>
      <trkpt lat="47.47719" lon="6.76137">
        <ele>312.1</ele>
        <time>2015-06-08T13:22:22Z</time>
      </trkpt>
      <trkpt lat="47.47721" lon="6.76142">
        <ele>312.2</ele>
        <time>2015-06-08T13:22:23Z</time>
      </trkpt>
      <trkpt lat="47.47723" lon="6.76147">
        <ele>312.1</ele>
        <time>2015-06-08T13:22:24Z</time>
      </trkpt>
      <trkpt lat="47.47725" lon="6.76151">
        <ele>312.2</ele>
        <time>2015-06-08T13:22:25Z</time>
      </trkpt>
      <trkpt lat="47.47728" lon="6.76155">
        <ele>312.4</ele>
        <time>2015-06-08T13:22:26Z</time>
      </trkpt>
      <trkpt lat="47.47731" lon="6.76159">
        <ele>312.9</ele>
        <time>2015-06-08T13:22:27Z</time>
      </trkpt>
      <trkpt lat="47.47735" lon="6.76164">
        <ele>312.8</ele>
        <time>2015-06-08T13:22:28Z</time>
      </trkpt>
      <trkpt lat="47.47738" lon="6.76169">
        <ele>312.2</ele>
        <time>2015-06-08T13:22:29Z</time>
      </trkpt>
      <trkpt lat="47.47741" lon="6.76173">
        <ele>312</ele>
        <time>2015-06-08T13:22:30Z</time>
      </trkpt>
      <trkpt lat="47.47743" lon="6.76178">
        <ele>311.9</ele>
        <time>2015-06-08T13:22:31Z</time>
      </trkpt>
      <trkpt lat="47.47746" lon="6.76182">
        <ele>312</ele>
        <time>2015-06-08T13:22:32Z</time>
      </trkpt>
      <trkpt lat="47.47749" lon="6.76186">
        <ele>312</ele>
        <time>2015-06-08T13:22:33Z</time>
      </trkpt>
      <trkpt lat="47.47752" lon="6.76191">
        <ele>312.1</ele>
        <time>2015-06-08T13:22:34Z</time>
      </trkpt>
      <trkpt lat="47.47755" lon="6.76195">
        <ele>311.6</ele>
        <time>2015-06-08T13:22:35Z</time>
      </trkpt>
      <trkpt lat="47.47758" lon="6.76199">
        <ele>311.6</ele>
        <time>2015-06-08T13:22:36Z</time>
      </trkpt>
      <trkpt lat="47.4776" lon="6.76203">
        <ele>311.7</ele>
        <time>2015-06-08T13:22:37Z</time>
      </trkpt>
      <trkpt lat="47.47763" lon="6.76208">
        <ele>311.6</ele>
        <time>2015-06-08T13:22:38Z</time>
      </trkpt>
      <trkpt lat="47.47765" lon="6.76213">
        <ele>311.1</ele>
        <time>2015-06-08T13:22:39Z</time>
      </trkpt>
      <trkpt lat="47.47768" lon="6.76219">
        <ele>310.5</ele>
        <time>2015-06-08T13:22:40Z</time>
      </trkpt>
      <trkpt lat="47.47772" lon="6.76224">
        <ele>310.5</ele>
        <time>2015-06-08T13:22:41Z</time>
      </trkpt>
      <trkpt lat="47.47775" lon="6.76229">
        <ele>310.1</ele>
        <time>2015-06-08T13:22:42Z</time>
      </trkpt>
      <trkpt lat="47.47778" lon="6.76233">
        <ele>309.9</ele>
        <time>2015-06-08T13:22:43Z</time>
      </trkpt>
      <trkpt lat="47.47781" lon="6.76238">
        <ele>309.3</ele>
        <time>2015-06-08T13:22:44Z</time>
      </trkpt>
      <trkpt lat="47.47785" lon="6.76242">
        <ele>309.1</ele>
        <time>2015-06-08T13:22:45Z</time>
      </trkpt>
      <trkpt lat="47.47788" lon="6.76247">
        <ele>308.6</ele>
        <time>2015-06-08T13:22:46Z</time>
      </trkpt>
      <trkpt lat="47.47792" lon="6.76251">
        <ele>308</ele>
        <time>2015-06-08T13:22:47Z</time>
      </trkpt>
      <trkpt lat="47.47796" lon="6.76254">
        <ele>307.4</ele>
        <time>2015-06-08T13:22:49Z</time>
      </trkpt>
      <trkpt lat="47.47801" lon="6.76257">
        <ele>306.9</ele>
        <time>2015-06-08T13:22:49Z</time>
      </trkpt>
      <trkpt lat="47.47805" lon="6.76259">
        <ele>306.3</ele>
        <time>2015-06-08T13:22:50Z</time>
      </trkpt>
      <trkpt lat="47.47811" lon="6.76262">
        <ele>305.7</ele>
        <time>2015-06-08T13:22:51Z</time>
      </trkpt>
      <trkpt lat="47.47816" lon="6.76265">
        <ele>305.3</ele>
        <time>2015-06-08T13:22:52Z</time>
      </trkpt>
      <trkpt lat="47.47822" lon="6.76268">
        <ele>305</ele>
        <time>2015-06-08T13:22:53Z</time>
      </trkpt>
      <trkpt lat="47.47827" lon="6.76271">
        <ele>304.6</ele>
        <time>2015-06-08T13:22:54Z</time>
      </trkpt>
      <trkpt lat="47.47831" lon="6.76274">
        <ele>304.3</ele>
        <time>2015-06-08T13:22:55Z</time>
      </trkpt>
      <trkpt lat="47.47834" lon="6.76277">
        <ele>304.8</ele>
        <time>2015-06-08T13:22:56Z</time>
      </trkpt>
      <trkpt lat="47.47837" lon="6.7628">
        <ele>305.3</ele>
        <time>2015-06-08T13:22:57Z</time>
      </trkpt>
      <trkpt lat="47.4784" lon="6.76285">
        <ele>305.4</ele>
        <time>2015-06-08T13:22:58Z</time>
      </trkpt>
      <trkpt lat="47.47843" lon="6.76289">
        <ele>305.6</ele>
        <time>2015-06-08T13:22:59Z</time>
      </trkpt>
      <trkpt lat="47.47846" lon="6.76294">
        <ele>305.4</ele>
        <time>2015-06-08T13:23:00Z</time>
      </trkpt>
      <trkpt lat="47.47849" lon="6.76299">
        <ele>305.4</ele>
        <time>2015-06-08T13:23:01Z</time>
      </trkpt>
      <trkpt lat="47.47852" lon="6.76304">
        <ele>305.6</ele>
        <time>2015-06-08T13:23:02Z</time>
      </trkpt>
      <trkpt lat="47.47856" lon="6.76309">
        <ele>305.5</ele>
        <time>2015-06-08T13:23:03Z</time>
      </trkpt>
      <trkpt lat="47.47859" lon="6.76315">
        <ele>305.3</ele>
        <time>2015-06-08T13:23:04Z</time>
      </trkpt>
      <trkpt lat="47.47861" lon="6.7632">
        <ele>305.4</ele>
        <time>2015-06-08T13:23:05Z</time>
      </trkpt>
      <trkpt lat="47.47864" lon="6.76325">
        <ele>305.2</ele>
        <time>2015-06-08T13:23:06Z</time>
      </trkpt>
      <trkpt lat="47.47867" lon="6.7633">
        <ele>305</ele>
        <time>2015-06-08T13:23:07Z</time>
      </trkpt>
      <trkpt lat="47.47871" lon="6.76336">
        <ele>305</ele>
        <time>2015-06-08T13:23:08Z</time>
      </trkpt>
      <trkpt lat="47.47874" lon="6.76341">
        <ele>305</ele>
        <time>2015-06-08T13:23:09Z</time>
      </trkpt>
      <trkpt lat="47.47877" lon="6.76347">
        <ele>305.2</ele>
        <time>2015-06-08T13:23:10Z</time>
      </trkpt>
      <trkpt lat="47.4788" lon="6.76353">
        <ele>304.9</ele>
        <time>2015-06-08T13:23:11Z</time>
      </trkpt>
      <trkpt lat="47.47883" lon="6.76358">
        <ele>304.9</ele>
        <time>2015-06-08T13:23:12Z</time>
      </trkpt>
      <trkpt lat="47.47886" lon="6.76363">
        <ele>305</ele>
        <time>2015-06-08T13:23:13Z</time>
      </trkpt>
      <trkpt lat="47.47888" lon="6.76369">
        <ele>305</ele>
        <time>2015-06-08T13:23:14Z</time>
      </trkpt>
      <trkpt lat="47.47892" lon="6.76374">
        <ele>305.2</ele>
        <time>2015-06-08T13:23:15Z</time>
      </trkpt>
      <trkpt lat="47.47894" lon="6.76379">
        <ele>305.3</ele>
        <time>2015-06-08T13:23:16Z</time>
      </trkpt>
      <trkpt lat="47.47897" lon="6.76384">
        <ele>305.1</ele>
        <time>2015-06-08T13:23:17Z</time>
      </trkpt>
      <trkpt lat="47.47899" lon="6.7639">
        <ele>304.9</ele>
        <time>2015-06-08T13:23:18Z</time>
      </trkpt>
      <trkpt lat="47.47902" lon="6.76396">
        <ele>304.6</ele>
        <time>2015-06-08T13:23:19Z</time>
      </trkpt>
      <trkpt lat="47.47904" lon="6.76401">
        <ele>304.3</ele>
        <time>2015-06-08T13:23:20Z</time>
      </trkpt>
      <trkpt lat="47.47907" lon="6.76407">
        <ele>304.1</ele>
        <time>2015-06-08T13:23:21Z</time>
      </trkpt>
      <trkpt lat="47.47911" lon="6.76413">
        <ele>303.9</ele>
        <time>2015-06-08T13:23:22Z</time>
      </trkpt>
      <trkpt lat="47.47914" lon="6.76421">
        <ele>303.4</ele>
        <time>2015-06-08T13:23:23Z</time>
      </trkpt>
      <trkpt lat="47.47917" lon="6.76427">
        <ele>303.1</ele>
        <time>2015-06-08T13:23:24Z</time>
      </trkpt>
      <trkpt lat="47.47919" lon="6.76433">
        <ele>302.8</ele>
        <time>2015-06-08T13:23:25Z</time>
      </trkpt>
      <trkpt lat="47.47922" lon="6.7644">
        <ele>302.5</ele>
        <time>2015-06-08T13:23:26Z</time>
      </trkpt>
      <trkpt lat="47.47924" lon="6.76446">
        <ele>302.1</ele>
        <time>2015-06-08T13:23:27Z</time>
      </trkpt>
      <trkpt lat="47.47926" lon="6.76452">
        <ele>301.5</ele>
        <time>2015-06-08T13:23:28Z</time>
      </trkpt>
      <trkpt lat="47.47928" lon="6.76458">
        <ele>300.9</ele>
        <time>2015-06-08T13:23:29Z</time>
      </trkpt>
      <trkpt lat="47.4793" lon="6.76464">
        <ele>300.7</ele>
        <time>2015-06-08T13:23:30Z</time>
      </trkpt>
      <trkpt lat="47.47932" lon="6.7647">
        <ele>300.2</ele>
        <time>2015-06-08T13:23:31Z</time>
      </trkpt>
      <trkpt lat="47.47934" lon="6.76476">
        <ele>299.9</ele>
        <time>2015-06-08T13:23:32Z</time>
      </trkpt>
      <trkpt lat="47.47935" lon="6.76482">
        <ele>299.6</ele>
        <time>2015-06-08T13:23:33Z</time>
      </trkpt>
      <trkpt lat="47.47936" lon="6.76488">
        <ele>299.3</ele>
        <time>2015-06-08T13:23:34Z</time>
      </trkpt>
      <trkpt lat="47.47937" lon="6.76494">
        <ele>299</ele>
        <time>2015-06-08T13:23:35Z</time>
      </trkpt>
      <trkpt lat="47.47938" lon="6.765">
        <ele>298.8</ele>
        <time>2015-06-08T13:23:36Z</time>
      </trkpt>
      <trkpt lat="47.47939" lon="6.76506">
        <ele>298.3</ele>
        <time>2015-06-08T13:23:37Z</time>
      </trkpt>
      <trkpt lat="47.4794" lon="6.76512">
        <ele>297.8</ele>
        <time>2015-06-08T13:23:38Z</time>
      </trkpt>
      <trkpt lat="47.47941" lon="6.76518">
        <ele>297.3</ele>
        <time>2015-06-08T13:23:39Z</time>
      </trkpt>
      <trkpt lat="47.47942" lon="6.76524">
        <ele>296.6</ele>
        <time>2015-06-08T13:23:40Z</time>
      </trkpt>
      <trkpt lat="47.47943" lon="6.7653">
        <ele>296</ele>
        <time>2015-06-08T13:23:41Z</time>
      </trkpt>
      <trkpt lat="47.47945" lon="6.76536">
        <ele>295.5</ele>
        <time>2015-06-08T13:23:42Z</time>
      </trkpt>
      <trkpt lat="47.47946" lon="6.76541">
        <ele>295.2</ele>
        <time>2015-06-08T13:23:43Z</time>
      </trkpt>
      <trkpt lat="47.47947" lon="6.76547">
        <ele>294.8</ele>
        <time>2015-06-08T13:23:44Z</time>
      </trkpt>
      <trkpt lat="47.47949" lon="6.76553">
        <ele>294.3</ele>
        <time>2015-06-08T13:23:45Z</time>
      </trkpt>
      <trkpt lat="47.47951" lon="6.76559">
        <ele>293.9</ele>
        <time>2015-06-08T13:23:46Z</time>
      </trkpt>
      <trkpt lat="47.47952" lon="6.76565">
        <ele>293.5</ele>
        <time>2015-06-08T13:23:47Z</time>
      </trkpt>
      <trkpt lat="47.47953" lon="6.76571">
        <ele>293</ele>
        <time>2015-06-08T13:23:48Z</time>
      </trkpt>
      <trkpt lat="47.47954" lon="6.76577">
        <ele>292.4</ele>
        <time>2015-06-08T13:23:49Z</time>
      </trkpt>
      <trkpt lat="47.47955" lon="6.76583">
        <ele>292</ele>
        <time>2015-06-08T13:23:50Z</time>
      </trkpt>
      <trkpt lat="47.47956" lon="6.7659">
        <ele>291.5</ele>
        <time>2015-06-08T13:23:51Z</time>
      </trkpt>
      <trkpt lat="47.47957" lon="6.76596">
        <ele>291.7</ele>
        <time>2015-06-08T13:23:52Z</time>
      </trkpt>
      <trkpt lat="47.47954" lon="6.76601">
        <ele>292.1</ele>
        <time>2015-06-08T13:23:53Z</time>
      </trkpt>
      <trkpt lat="47.47954" lon="6.76606">
        <ele>292.3</ele>
        <time>2015-06-08T13:23:54Z</time>
      </trkpt>
      <trkpt lat="47.47953" lon="6.76611">
        <ele>292.6</ele>
        <time>2015-06-08T13:23:55Z</time>
      </trkpt>
      <trkpt lat="47.47953" lon="6.76615">
        <ele>292.8</ele>
        <time>2015-06-08T13:23:56Z</time>
      </trkpt>
      <trkpt lat="47.47953" lon="6.76619">
        <ele>292.6</ele>
        <time>2015-06-08T13:23:57Z</time>
      </trkpt>
      <trkpt lat="47.47952" lon="6.76619">
        <ele>292.3</ele>
        <time>2015-06-08T13:23:58Z</time>
      </trkpt>
      <trkpt lat="47.47951" lon="6.76621">
        <ele>292.2</ele>
        <time>2015-06-08T13:24:01Z</time>
      </trkpt>
      <trkpt lat="47.47951" lon="6.76622">
        <ele>292</ele>
        <time>2015-06-08T13:24:02Z</time>
      </trkpt>
      <trkpt lat="47.47951" lon="6.76624">
        <ele>291.8</ele>
        <time>2015-06-08T13:24:03Z</time>
      </trkpt>
      <trkpt lat="47.47952" lon="6.76626">
        <ele>292</ele>
        <time>2015-06-08T13:24:04Z</time>
      </trkpt>
      <trkpt lat="47.47953" lon="6.76625">
        <ele>291.7</ele>
        <time>2015-06-08T13:24:06Z</time>
      </trkpt>
      <trkpt lat="47.47954" lon="6.76624">
        <ele>292.1</ele>
        <time>2015-06-08T13:24:08Z</time>
      </trkpt>
      <trkpt lat="47.47956" lon="6.76622">
        <ele>292.1</ele>
        <time>2015-06-08T13:24:09Z</time>
      </trkpt>
      <trkpt lat="47.47957" lon="6.76621">
        <ele>292.1</ele>
        <time>2015-06-08T13:24:10Z</time>
      </trkpt>
      <trkpt lat="47.47959" lon="6.7662">
        <ele>292.2</ele>
        <time>2015-06-08T13:24:11Z</time>
      </trkpt>
      <trkpt lat="47.47961" lon="6.7662">
        <ele>291.9</ele>
        <time>2015-06-08T13:24:12Z</time>
      </trkpt>
      <trkpt lat="47.47964" lon="6.76619">
        <ele>291.5</ele>
        <time>2015-06-08T13:24:13Z</time>
      </trkpt>
      <trkpt lat="47.47966" lon="6.76617">
        <ele>291.1</ele>
        <time>2015-06-08T13:24:14Z</time>
      </trkpt>
      <trkpt lat="47.47968" lon="6.76616">
        <ele>290.9</ele>
        <time>2015-06-08T13:24:15Z</time>
      </trkpt>
      <trkpt lat="47.47971" lon="6.76615">
        <ele>290.9</ele>
        <time>2015-06-08T13:24:16Z</time>
      </trkpt>
      <trkpt lat="47.47973" lon="6.76614">
        <ele>290.9</ele>
        <time>2015-06-08T13:24:17Z</time>
      </trkpt>
      <trkpt lat="47.47975" lon="6.76613">
        <ele>291.1</ele>
        <time>2015-06-08T13:24:18Z</time>
      </trkpt>
      <trkpt lat="47.47977" lon="6.76612">
        <ele>291.3</ele>
        <time>2015-06-08T13:24:19Z</time>
      </trkpt>
      <trkpt lat="47.47979" lon="6.76611">
        <ele>291.7</ele>
        <time>2015-06-08T13:24:20Z</time>
      </trkpt>
      <trkpt lat="47.47982" lon="6.7661">
        <ele>292.1</ele>
        <time>2015-06-08T13:24:21Z</time>
      </trkpt>
      <trkpt lat="47.47985" lon="6.76608">
        <ele>292.3</ele>
        <time>2015-06-08T13:24:22Z</time>
      </trkpt>
      <trkpt lat="47.47987" lon="6.76606">
        <ele>292.8</ele>
        <time>2015-06-08T13:24:23Z</time>
      </trkpt>
      <trkpt lat="47.4799" lon="6.76605">
        <ele>293.2</ele>
        <time>2015-06-08T13:24:24Z</time>
      </trkpt>
      <trkpt lat="47.47994" lon="6.76604">
        <ele>293.8</ele>
        <time>2015-06-08T13:24:25Z</time>
      </trkpt>
      <trkpt lat="47.47997" lon="6.76602">
        <ele>294.5</ele>
        <time>2015-06-08T13:24:26Z</time>
      </trkpt>
      <trkpt lat="47.48001" lon="6.766">
        <ele>295.1</ele>
        <time>2015-06-08T13:24:27Z</time>
      </trkpt>
      <trkpt lat="47.48005" lon="6.76598">
        <ele>295.7</ele>
        <time>2015-06-08T13:24:28Z</time>
      </trkpt>
      <trkpt lat="47.48008" lon="6.76595">
        <ele>296.3</ele>
        <time>2015-06-08T13:24:29Z</time>
      </trkpt>
      <trkpt lat="47.48012" lon="6.76593">
        <ele>297.1</ele>
        <time>2015-06-08T13:24:30Z</time>
      </trkpt>
      <trkpt lat="47.48015" lon="6.76591">
        <ele>297.9</ele>
        <time>2015-06-08T13:24:31Z</time>
      </trkpt>
      <trkpt lat="47.48019" lon="6.76588">
        <ele>298.8</ele>
        <time>2015-06-08T13:24:32Z</time>
      </trkpt>
      <trkpt lat="47.48022" lon="6.76585">
        <ele>299.6</ele>
        <time>2015-06-08T13:24:33Z</time>
      </trkpt>
      <trkpt lat="47.48026" lon="6.76582">
        <ele>300.7</ele>
        <time>2015-06-08T13:24:34Z</time>
      </trkpt>
      <trkpt lat="47.4803" lon="6.76579">
        <ele>301.7</ele>
        <time>2015-06-08T13:24:35Z</time>
      </trkpt>
      <trkpt lat="47.48035" lon="6.76575">
        <ele>302.6</ele>
        <time>2015-06-08T13:24:36Z</time>
      </trkpt>
      <trkpt lat="47.48038" lon="6.76572">
        <ele>303.5</ele>
        <time>2015-06-08T13:24:37Z</time>
      </trkpt>
      <trkpt lat="47.48042" lon="6.76568">
        <ele>304.2</ele>
        <time>2015-06-08T13:24:38Z</time>
      </trkpt>
      <trkpt lat="47.48046" lon="6.76565">
        <ele>305.1</ele>
        <time>2015-06-08T13:24:39Z</time>
      </trkpt>
      <trkpt lat="47.48049" lon="6.76562">
        <ele>305.9</ele>
        <time>2015-06-08T13:24:40Z</time>
      </trkpt>
      <trkpt lat="47.48053" lon="6.76559">
        <ele>306.6</ele>
        <time>2015-06-08T13:24:41Z</time>
      </trkpt>
      <trkpt lat="47.48057" lon="6.76556">
        <ele>307.3</ele>
        <time>2015-06-08T13:24:42Z</time>
      </trkpt>
      <trkpt lat="47.48061" lon="6.76553">
        <ele>308.1</ele>
        <time>2015-06-08T13:24:43Z</time>
      </trkpt>
      <trkpt lat="47.48064" lon="6.7655">
        <ele>309</ele>
        <time>2015-06-08T13:24:44Z</time>
      </trkpt>
      <trkpt lat="47.48068" lon="6.76546">
        <ele>309.6</ele>
        <time>2015-06-08T13:24:45Z</time>
      </trkpt>
      <trkpt lat="47.4807" lon="6.76542">
        <ele>310.2</ele>
        <time>2015-06-08T13:24:46Z</time>
      </trkpt>
      <trkpt lat="47.48074" lon="6.76539">
        <ele>311.2</ele>
        <time>2015-06-08T13:24:47Z</time>
      </trkpt>
      <trkpt lat="47.48078" lon="6.76535">
        <ele>312.2</ele>
        <time>2015-06-08T13:24:48Z</time>
      </trkpt>
      <trkpt lat="47.48082" lon="6.76531">
        <ele>313.5</ele>
        <time>2015-06-08T13:24:49Z</time>
      </trkpt>
      <trkpt lat="47.48086" lon="6.76526">
        <ele>314.5</ele>
        <time>2015-06-08T13:24:50Z</time>
      </trkpt>
      <trkpt lat="47.4809" lon="6.76522">
        <ele>315.4</ele>
        <time>2015-06-08T13:24:51Z</time>
      </trkpt>
      <trkpt lat="47.48094" lon="6.76518">
        <ele>315.8</ele>
        <time>2015-06-08T13:24:52Z</time>
      </trkpt>
      <trkpt lat="47.48098" lon="6.76514">
        <ele>316.8</ele>
        <time>2015-06-08T13:24:53Z</time>
      </trkpt>
      <trkpt lat="47.48101" lon="6.7651">
        <ele>315.4</ele>
        <time>2015-06-08T13:24:54Z</time>
      </trkpt>
      <trkpt lat="47.48104" lon="6.7651">
        <ele>315.9</ele>
        <time>2015-06-08T13:24:55Z</time>
      </trkpt>
      <trkpt lat="47.48105" lon="6.76513">
        <ele>316.5</ele>
        <time>2015-06-08T13:24:56Z</time>
      </trkpt>
      <trkpt lat="47.48108" lon="6.76516">
        <ele>317.1</ele>
        <time>2015-06-08T13:24:57Z</time>
      </trkpt>
      <trkpt lat="47.48111" lon="6.76519">
        <ele>317.6</ele>
        <time>2015-06-08T13:24:58Z</time>
      </trkpt>
      <trkpt lat="47.48113" lon="6.76522">
        <ele>318.1</ele>
        <time>2015-06-08T13:24:59Z</time>
      </trkpt>
      <trkpt lat="47.48116" lon="6.76525">
        <ele>318.8</ele>
        <time>2015-06-08T13:25:00Z</time>
      </trkpt>
      <trkpt lat="47.48118" lon="6.76528">
        <ele>319.5</ele>
        <time>2015-06-08T13:25:01Z</time>
      </trkpt>
      <trkpt lat="47.48123" lon="6.76534">
        <ele>320.2</ele>
        <time>2015-06-08T13:25:02Z</time>
      </trkpt>
      <trkpt lat="47.48125" lon="6.76538">
        <ele>320.2</ele>
        <time>2015-06-08T13:25:03Z</time>
      </trkpt>
      <trkpt lat="47.48126" lon="6.76542">
        <ele>320.3</ele>
        <time>2015-06-08T13:25:04Z</time>
      </trkpt>
      <trkpt lat="47.48123" lon="6.76548">
        <ele>320.9</ele>
        <time>2015-06-08T13:25:05Z</time>
      </trkpt>
      <trkpt lat="47.48121" lon="6.76553">
        <ele>321.1</ele>
        <time>2015-06-08T13:25:06Z</time>
      </trkpt>
      <trkpt lat="47.48118" lon="6.76559">
        <ele>321.1</ele>
        <time>2015-06-08T13:25:07Z</time>
      </trkpt>
      <trkpt lat="47.48116" lon="6.76565">
        <ele>321.3</ele>
        <time>2015-06-08T13:25:08Z</time>
      </trkpt>
      <trkpt lat="47.48112" lon="6.76572">
        <ele>321.1</ele>
        <time>2015-06-08T13:25:09Z</time>
      </trkpt>
      <trkpt lat="47.4811" lon="6.76578">
        <ele>320.9</ele>
        <time>2015-06-08T13:25:10Z</time>
      </trkpt>
      <trkpt lat="47.48107" lon="6.76586">
        <ele>320.8</ele>
        <time>2015-06-08T13:25:11Z</time>
      </trkpt>
      <trkpt lat="47.48104" lon="6.76595">
        <ele>320.5</ele>
        <time>2015-06-08T13:25:12Z</time>
      </trkpt>
      <trkpt lat="47.48104" lon="6.76602">
        <ele>320.5</ele>
        <time>2015-06-08T13:25:13Z</time>
      </trkpt>
      <trkpt lat="47.48103" lon="6.7661">
        <ele>320.4</ele>
        <time>2015-06-08T13:25:14Z</time>
      </trkpt>
      <trkpt lat="47.48103" lon="6.76618">
        <ele>320.5</ele>
        <time>2015-06-08T13:25:15Z</time>
      </trkpt>
      <trkpt lat="47.48104" lon="6.76625">
        <ele>320.3</ele>
        <time>2015-06-08T13:25:16Z</time>
      </trkpt>
      <trkpt lat="47.48106" lon="6.76631">
        <ele>320.6</ele>
        <time>2015-06-08T13:25:17Z</time>
      </trkpt>
      <trkpt lat="47.48108" lon="6.76636">
        <ele>320.5</ele>
        <time>2015-06-08T13:25:18Z</time>
      </trkpt>
      <trkpt lat="47.48109" lon="6.76642">
        <ele>320.6</ele>
        <time>2015-06-08T13:25:19Z</time>
      </trkpt>
      <trkpt lat="47.48112" lon="6.76647">
        <ele>320.8</ele>
        <time>2015-06-08T13:25:20Z</time>
      </trkpt>
      <trkpt lat="47.48114" lon="6.76652">
        <ele>320.9</ele>
        <time>2015-06-08T13:25:21Z</time>
      </trkpt>
      <trkpt lat="47.48117" lon="6.76657">
        <ele>320.9</ele>
        <time>2015-06-08T13:25:22Z</time>
      </trkpt>
      <trkpt lat="47.4812" lon="6.76662">
        <ele>320.5</ele>
        <time>2015-06-08T13:25:23Z</time>
      </trkpt>
      <trkpt lat="47.48123" lon="6.76666">
        <ele>319.8</ele>
        <time>2015-06-08T13:25:24Z</time>
      </trkpt>
      <trkpt lat="47.48127" lon="6.76671">
        <ele>319.4</ele>
        <time>2015-06-08T13:25:25Z</time>
      </trkpt>
      <trkpt lat="47.4813" lon="6.76677">
        <ele>319.1</ele>
        <time>2015-06-08T13:25:26Z</time>
      </trkpt>
      <trkpt lat="47.48134" lon="6.76682">
        <ele>318.5</ele>
        <time>2015-06-08T13:25:27Z</time>
      </trkpt>
      <trkpt lat="47.48137" lon="6.76688">
        <ele>317.6</ele>
        <time>2015-06-08T13:25:28Z</time>
      </trkpt>
      <trkpt lat="47.4814" lon="6.76694">
        <ele>316.7</ele>
        <time>2015-06-08T13:25:29Z</time>
      </trkpt>
      <trkpt lat="47.48143" lon="6.767">
        <ele>316.2</ele>
        <time>2015-06-08T13:25:30Z</time>
      </trkpt>
      <trkpt lat="47.48146" lon="6.76706">
        <ele>315.8</ele>
        <time>2015-06-08T13:25:31Z</time>
      </trkpt>
      <trkpt lat="47.48149" lon="6.76713">
        <ele>315.6</ele>
        <time>2015-06-08T13:25:32Z</time>
      </trkpt>
      <trkpt lat="47.48152" lon="6.7672">
        <ele>315.5</ele>
        <time>2015-06-08T13:25:33Z</time>
      </trkpt>
      <trkpt lat="47.48155" lon="6.76726">
        <ele>315.2</ele>
        <time>2015-06-08T13:25:34Z</time>
      </trkpt>
      <trkpt lat="47.48158" lon="6.76731">
        <ele>315.1</ele>
        <time>2015-06-08T13:25:35Z</time>
      </trkpt>
      <trkpt lat="47.48162" lon="6.76736">
        <ele>314.9</ele>
        <time>2015-06-08T13:25:36Z</time>
      </trkpt>
      <trkpt lat="47.48164" lon="6.76742">
        <ele>314.6</ele>
        <time>2015-06-08T13:25:37Z</time>
      </trkpt>
      <trkpt lat="47.48167" lon="6.76746">
        <ele>314.9</ele>
        <time>2015-06-08T13:25:38Z</time>
      </trkpt>
      <trkpt lat="47.48169" lon="6.7675">
        <ele>315.1</ele>
        <time>2015-06-08T13:25:39Z</time>
      </trkpt>
      <trkpt lat="47.48172" lon="6.76754">
        <ele>314.7</ele>
        <time>2015-06-08T13:25:40Z</time>
      </trkpt>
      <trkpt lat="47.48175" lon="6.76758">
        <ele>315.3</ele>
        <time>2015-06-08T13:25:41Z</time>
      </trkpt>
      <trkpt lat="47.48177" lon="6.76761">
        <ele>315.1</ele>
        <time>2015-06-08T13:25:42Z</time>
      </trkpt>
      <trkpt lat="47.48181" lon="6.76765">
        <ele>315.4</ele>
        <time>2015-06-08T13:25:43Z</time>
      </trkpt>
      <trkpt lat="47.48184" lon="6.76769">
        <ele>315.7</ele>
        <time>2015-06-08T13:25:44Z</time>
      </trkpt>
      <trkpt lat="47.48188" lon="6.76772">
        <ele>316.5</ele>
        <time>2015-06-08T13:25:45Z</time>
      </trkpt>
      <trkpt lat="47.48192" lon="6.76776">
        <ele>316.7</ele>
        <time>2015-06-08T13:25:46Z</time>
      </trkpt>
      <trkpt lat="47.48195" lon="6.76778">
        <ele>316.5</ele>
        <time>2015-06-08T13:25:47Z</time>
      </trkpt>
      <trkpt lat="47.48198" lon="6.76781">
        <ele>316.4</ele>
        <time>2015-06-08T13:25:48Z</time>
      </trkpt>
      <trkpt lat="47.48201" lon="6.76784">
        <ele>315.8</ele>
        <time>2015-06-08T13:25:49Z</time>
      </trkpt>
      <trkpt lat="47.48205" lon="6.76786">
        <ele>315.8</ele>
        <time>2015-06-08T13:25:50Z</time>
      </trkpt>
      <trkpt lat="47.48209" lon="6.76788">
        <ele>315.7</ele>
        <time>2015-06-08T13:25:51Z</time>
      </trkpt>
      <trkpt lat="47.48212" lon="6.76789">
        <ele>315.6</ele>
        <time>2015-06-08T13:25:52Z</time>
      </trkpt>
      <trkpt lat="47.48216" lon="6.7679">
        <ele>315.5</ele>
        <time>2015-06-08T13:25:53Z</time>
      </trkpt>
      <trkpt lat="47.4822" lon="6.76791">
        <ele>315.2</ele>
        <time>2015-06-08T13:25:54Z</time>
      </trkpt>
      <trkpt lat="47.48224" lon="6.76792">
        <ele>314.9</ele>
        <time>2015-06-08T13:25:55Z</time>
      </trkpt>
      <trkpt lat="47.48227" lon="6.76793">
        <ele>314.6</ele>
        <time>2015-06-08T13:25:56Z</time>
      </trkpt>
      <trkpt lat="47.48231" lon="6.76795">
        <ele>314.3</ele>
        <time>2015-06-08T13:25:57Z</time>
      </trkpt>
      <trkpt lat="47.48235" lon="6.76797">
        <ele>314.2</ele>
        <time>2015-06-08T13:25:58Z</time>
      </trkpt>
      <trkpt lat="47.48238" lon="6.76798">
        <ele>315</ele>
        <time>2015-06-08T13:25:59Z</time>
      </trkpt>
      <trkpt lat="47.48242" lon="6.76801">
        <ele>314.9</ele>
        <time>2015-06-08T13:26:00Z</time>
      </trkpt>
      <trkpt lat="47.48246" lon="6.76805">
        <ele>315</ele>
        <time>2015-06-08T13:26:01Z</time>
      </trkpt>
      <trkpt lat="47.48249" lon="6.76809">
        <ele>315.3</ele>
        <time>2015-06-08T13:26:02Z</time>
      </trkpt>
      <trkpt lat="47.48252" lon="6.76813">
        <ele>315.3</ele>
        <time>2015-06-08T13:26:03Z</time>
      </trkpt>
      <trkpt lat="47.48255" lon="6.76817">
        <ele>315.3</ele>
        <time>2015-06-08T13:26:04Z</time>
      </trkpt>
      <trkpt lat="47.48258" lon="6.76822">
        <ele>314.7</ele>
        <time>2015-06-08T13:26:05Z</time>
      </trkpt>
      <trkpt lat="47.48261" lon="6.76827">
        <ele>314.2</ele>
        <time>2015-06-08T13:26:06Z</time>
      </trkpt>
      <trkpt lat="47.48264" lon="6.76832">
        <ele>314</ele>
        <time>2015-06-08T13:26:07Z</time>
      </trkpt>
      <trkpt lat="47.48267" lon="6.76836">
        <ele>314.1</ele>
        <time>2015-06-08T13:26:08Z</time>
      </trkpt>
      <trkpt lat="47.4827" lon="6.76841">
        <ele>314.4</ele>
        <time>2015-06-08T13:26:09Z</time>
      </trkpt>
      <trkpt lat="47.48273" lon="6.76845">
        <ele>314.5</ele>
        <time>2015-06-08T13:26:10Z</time>
      </trkpt>
      <trkpt lat="47.48276" lon="6.7685">
        <ele>314.6</ele>
        <time>2015-06-08T13:26:11Z</time>
      </trkpt>
      <trkpt lat="47.48279" lon="6.76854">
        <ele>314.7</ele>
        <time>2015-06-08T13:26:12Z</time>
      </trkpt>
      <trkpt lat="47.48282" lon="6.76858">
        <ele>314.6</ele>
        <time>2015-06-08T13:26:13Z</time>
      </trkpt>
      <trkpt lat="47.48286" lon="6.76863">
        <ele>314.9</ele>
        <time>2015-06-08T13:26:14Z</time>
      </trkpt>
      <trkpt lat="47.48289" lon="6.76867">
        <ele>315.4</ele>
        <time>2015-06-08T13:26:15Z</time>
      </trkpt>
      <trkpt lat="47.48293" lon="6.76871">
        <ele>315.8</ele>
        <time>2015-06-08T13:26:16Z</time>
      </trkpt>
      <trkpt lat="47.48297" lon="6.76875">
        <ele>316.2</ele>
        <time>2015-06-08T13:26:17Z</time>
      </trkpt>
      <trkpt lat="47.48301" lon="6.76879">
        <ele>317</ele>
        <time>2015-06-08T13:26:18Z</time>
      </trkpt>
      <trkpt lat="47.48305" lon="6.76882">
        <ele>317.4</ele>
        <time>2015-06-08T13:26:19Z</time>
      </trkpt>
      <trkpt lat="47.48309" lon="6.76885">
        <ele>317.2</ele>
        <time>2015-06-08T13:26:20Z</time>
      </trkpt>
      <trkpt lat="47.48312" lon="6.76888">
        <ele>317.1</ele>
        <time>2015-06-08T13:26:21Z</time>
      </trkpt>
      <trkpt lat="47.48316" lon="6.76891">
        <ele>316.8</ele>
        <time>2015-06-08T13:26:22Z</time>
      </trkpt>
      <trkpt lat="47.4832" lon="6.76895">
        <ele>316.8</ele>
        <time>2015-06-08T13:26:23Z</time>
      </trkpt>
      <trkpt lat="47.48324" lon="6.76898">
        <ele>317</ele>
        <time>2015-06-08T13:26:24Z</time>
      </trkpt>
      <trkpt lat="47.48327" lon="6.76901">
        <ele>317.1</ele>
        <time>2015-06-08T13:26:25Z</time>
      </trkpt>
      <trkpt lat="47.48331" lon="6.76904">
        <ele>316.9</ele>
        <time>2015-06-08T13:26:26Z</time>
      </trkpt>
      <trkpt lat="47.48334" lon="6.76908">
        <ele>316.9</ele>
        <time>2015-06-08T13:26:27Z</time>
      </trkpt>
      <trkpt lat="47.48338" lon="6.76911">
        <ele>316.3</ele>
        <time>2015-06-08T13:26:28Z</time>
      </trkpt>
      <trkpt lat="47.48342" lon="6.76913">
        <ele>316</ele>
        <time>2015-06-08T13:26:29Z</time>
      </trkpt>
      <trkpt lat="47.48346" lon="6.76915">
        <ele>316.1</ele>
        <time>2015-06-08T13:26:30Z</time>
      </trkpt>
      <trkpt lat="47.4835" lon="6.76918">
        <ele>316.1</ele>
        <time>2015-06-08T13:26:31Z</time>
      </trkpt>
      <trkpt lat="47.48355" lon="6.7692">
        <ele>316.3</ele>
        <time>2015-06-08T13:26:32Z</time>
      </trkpt>
      <trkpt lat="47.48359" lon="6.76922">
        <ele>316</ele>
        <time>2015-06-08T13:26:33Z</time>
      </trkpt>
      <trkpt lat="47.48363" lon="6.76924">
        <ele>316.2</ele>
        <time>2015-06-08T13:26:34Z</time>
      </trkpt>
      <trkpt lat="47.48367" lon="6.76927">
        <ele>316.2</ele>
        <time>2015-06-08T13:26:35Z</time>
      </trkpt>
      <trkpt lat="47.48371" lon="6.7693">
        <ele>316</ele>
        <time>2015-06-08T13:26:36Z</time>
      </trkpt>
      <trkpt lat="47.48375" lon="6.76933">
        <ele>315.8</ele>
        <time>2015-06-08T13:26:37Z</time>
      </trkpt>
      <trkpt lat="47.48379" lon="6.76936">
        <ele>315.5</ele>
        <time>2015-06-08T13:26:38Z</time>
      </trkpt>
      <trkpt lat="47.48383" lon="6.76939">
        <ele>315</ele>
        <time>2015-06-08T13:26:39Z</time>
      </trkpt>
      <trkpt lat="47.48387" lon="6.76942">
        <ele>314.4</ele>
        <time>2015-06-08T13:26:40Z</time>
      </trkpt>
      <trkpt lat="47.48391" lon="6.76944">
        <ele>314</ele>
        <time>2015-06-08T13:26:41Z</time>
      </trkpt>
      <trkpt lat="47.48395" lon="6.76946">
        <ele>313.4</ele>
        <time>2015-06-08T13:26:42Z</time>
      </trkpt>
      <trkpt lat="47.48399" lon="6.76948">
        <ele>313</ele>
        <time>2015-06-08T13:26:43Z</time>
      </trkpt>
      <trkpt lat="47.48403" lon="6.7695">
        <ele>312.6</ele>
        <time>2015-06-08T13:26:44Z</time>
      </trkpt>
      <trkpt lat="47.48407" lon="6.76953">
        <ele>312.4</ele>
        <time>2015-06-08T13:26:45Z</time>
      </trkpt>
      <trkpt lat="47.48412" lon="6.76955">
        <ele>312.1</ele>
        <time>2015-06-08T13:26:46Z</time>
      </trkpt>
      <trkpt lat="47.48416" lon="6.76957">
        <ele>311.6</ele>
        <time>2015-06-08T13:26:47Z</time>
      </trkpt>
      <trkpt lat="47.4842" lon="6.7696">
        <ele>311.4</ele>
        <time>2015-06-08T13:26:48Z</time>
      </trkpt>
      <trkpt lat="47.48425" lon="6.76961">
        <ele>311.3</ele>
        <time>2015-06-08T13:26:49Z</time>
      </trkpt>
      <trkpt lat="47.48429" lon="6.76963">
        <ele>311.1</ele>
        <time>2015-06-08T13:26:50Z</time>
      </trkpt>
      <trkpt lat="47.48433" lon="6.76965">
        <ele>310.9</ele>
        <time>2015-06-08T13:26:51Z</time>
      </trkpt>
      <trkpt lat="47.48436" lon="6.76967">
        <ele>310.8</ele>
        <time>2015-06-08T13:26:52Z</time>
      </trkpt>
      <trkpt lat="47.4844" lon="6.76969">
        <ele>310.7</ele>
        <time>2015-06-08T13:26:53Z</time>
      </trkpt>
      <trkpt lat="47.48444" lon="6.76972">
        <ele>310.8</ele>
        <time>2015-06-08T13:26:54Z</time>
      </trkpt>
      <trkpt lat="47.48448" lon="6.76975">
        <ele>310.7</ele>
        <time>2015-06-08T13:26:55Z</time>
      </trkpt>
      <trkpt lat="47.48452" lon="6.76978">
        <ele>310.7</ele>
        <time>2015-06-08T13:26:56Z</time>
      </trkpt>
      <trkpt lat="47.48456" lon="6.76981">
        <ele>310.5</ele>
        <time>2015-06-08T13:26:57Z</time>
      </trkpt>
      <trkpt lat="47.4846" lon="6.76984">
        <ele>310.2</ele>
        <time>2015-06-08T13:26:58Z</time>
      </trkpt>
      <trkpt lat="47.48464" lon="6.76987">
        <ele>309.6</ele>
        <time>2015-06-08T13:26:59Z</time>
      </trkpt>
      <trkpt lat="47.48468" lon="6.7699">
        <ele>309.2</ele>
        <time>2015-06-08T13:27:00Z</time>
      </trkpt>
      <trkpt lat="47.48473" lon="6.76993">
        <ele>308.9</ele>
        <time>2015-06-08T13:27:01Z</time>
      </trkpt>
      <trkpt lat="47.48477" lon="6.76995">
        <ele>308.7</ele>
        <time>2015-06-08T13:27:02Z</time>
      </trkpt>
      <trkpt lat="47.48482" lon="6.76998">
        <ele>308.8</ele>
        <time>2015-06-08T13:27:03Z</time>
      </trkpt>
      <trkpt lat="47.48487" lon="6.77001">
        <ele>309.2</ele>
        <time>2015-06-08T13:27:04Z</time>
      </trkpt>
      <trkpt lat="47.48491" lon="6.77003">
        <ele>309.4</ele>
        <time>2015-06-08T13:27:05Z</time>
      </trkpt>
      <trkpt lat="47.48496" lon="6.77006">
        <ele>309.7</ele>
        <time>2015-06-08T13:27:06Z</time>
      </trkpt>
      <trkpt lat="47.485" lon="6.77009">
        <ele>309.8</ele>
        <time>2015-06-08T13:27:07Z</time>
      </trkpt>
      <trkpt lat="47.48504" lon="6.77012">
        <ele>310.2</ele>
        <time>2015-06-08T13:27:08Z</time>
      </trkpt>
      <trkpt lat="47.48509" lon="6.77016">
        <ele>310.4</ele>
        <time>2015-06-08T13:27:09Z</time>
      </trkpt>
      <trkpt lat="47.48513" lon="6.77019">
        <ele>310.3</ele>
        <time>2015-06-08T13:27:10Z</time>
      </trkpt>
      <trkpt lat="47.48517" lon="6.77023">
        <ele>310.2</ele>
        <time>2015-06-08T13:27:11Z</time>
      </trkpt>
      <trkpt lat="47.48522" lon="6.77026">
        <ele>310.3</ele>
        <time>2015-06-08T13:27:12Z</time>
      </trkpt>
      <trkpt lat="47.48526" lon="6.7703">
        <ele>310.4</ele>
        <time>2015-06-08T13:27:13Z</time>
      </trkpt>
      <trkpt lat="47.4853" lon="6.77033">
        <ele>310.3</ele>
        <time>2015-06-08T13:27:14Z</time>
      </trkpt>
      <trkpt lat="47.48534" lon="6.77037">
        <ele>310.2</ele>
        <time>2015-06-08T13:27:15Z</time>
      </trkpt>
      <trkpt lat="47.48539" lon="6.7704">
        <ele>310</ele>
        <time>2015-06-08T13:27:16Z</time>
      </trkpt>
      <trkpt lat="47.48543" lon="6.77043">
        <ele>309.9</ele>
        <time>2015-06-08T13:27:17Z</time>
      </trkpt>
      <trkpt lat="47.48547" lon="6.77046">
        <ele>309.4</ele>
        <time>2015-06-08T13:27:18Z</time>
      </trkpt>
      <trkpt lat="47.48552" lon="6.77048">
        <ele>308.6</ele>
        <time>2015-06-08T13:27:19Z</time>
      </trkpt>
      <trkpt lat="47.48556" lon="6.7705">
        <ele>307.7</ele>
        <time>2015-06-08T13:27:20Z</time>
      </trkpt>
      <trkpt lat="47.4856" lon="6.77052">
        <ele>307.1</ele>
        <time>2015-06-08T13:27:21Z</time>
      </trkpt>
      <trkpt lat="47.48565" lon="6.77053">
        <ele>306.6</ele>
        <time>2015-06-08T13:27:22Z</time>
      </trkpt>
      <trkpt lat="47.48569" lon="6.77055">
        <ele>305.9</ele>
        <time>2015-06-08T13:27:23Z</time>
      </trkpt>
      <trkpt lat="47.48573" lon="6.77057">
        <ele>305.2</ele>
        <time>2015-06-08T13:27:24Z</time>
      </trkpt>
      <trkpt lat="47.48576" lon="6.77059">
        <ele>304.2</ele>
        <time>2015-06-08T13:27:25Z</time>
      </trkpt>
      <trkpt lat="47.4858" lon="6.7706">
        <ele>303.4</ele>
        <time>2015-06-08T13:27:26Z</time>
      </trkpt>
      <trkpt lat="47.48584" lon="6.77062">
        <ele>302.7</ele>
        <time>2015-06-08T13:27:27Z</time>
      </trkpt>
      <trkpt lat="47.48589" lon="6.77064">
        <ele>302.2</ele>
        <time>2015-06-08T13:27:28Z</time>
      </trkpt>
      <trkpt lat="47.48594" lon="6.77067">
        <ele>301.7</ele>
        <time>2015-06-08T13:27:29Z</time>
      </trkpt>
      <trkpt lat="47.48599" lon="6.77069">
        <ele>302.7</ele>
        <time>2015-06-08T13:27:30Z</time>
      </trkpt>
      <trkpt lat="47.48603" lon="6.77073">
        <ele>303.2</ele>
        <time>2015-06-08T13:27:31Z</time>
      </trkpt>
      <trkpt lat="47.48608" lon="6.77076">
        <ele>303.2</ele>
        <time>2015-06-08T13:27:32Z</time>
      </trkpt>
      <trkpt lat="47.48613" lon="6.77079">
        <ele>303.2</ele>
        <time>2015-06-08T13:27:33Z</time>
      </trkpt>
      <trkpt lat="47.48618" lon="6.77082">
        <ele>303.4</ele>
        <time>2015-06-08T13:27:34Z</time>
      </trkpt>
      <trkpt lat="47.48622" lon="6.77085">
        <ele>303.7</ele>
        <time>2015-06-08T13:27:35Z</time>
      </trkpt>
      <trkpt lat="47.48626" lon="6.77087">
        <ele>304.2</ele>
        <time>2015-06-08T13:27:36Z</time>
      </trkpt>
      <trkpt lat="47.4863" lon="6.77089">
        <ele>304.5</ele>
        <time>2015-06-08T13:27:37Z</time>
      </trkpt>
      <trkpt lat="47.48634" lon="6.77093">
        <ele>305.1</ele>
        <time>2015-06-08T13:27:38Z</time>
      </trkpt>
      <trkpt lat="47.48638" lon="6.77097">
        <ele>305.5</ele>
        <time>2015-06-08T13:27:39Z</time>
      </trkpt>
      <trkpt lat="47.48643" lon="6.77101">
        <ele>306</ele>
        <time>2015-06-08T13:27:40Z</time>
      </trkpt>
      <trkpt lat="47.48647" lon="6.77106">
        <ele>307.2</ele>
        <time>2015-06-08T13:27:41Z</time>
      </trkpt>
      <trkpt lat="47.48651" lon="6.77111">
        <ele>308</ele>
        <time>2015-06-08T13:27:42Z</time>
      </trkpt>
      <trkpt lat="47.48656" lon="6.77116">
        <ele>309.1</ele>
        <time>2015-06-08T13:27:43Z</time>
      </trkpt>
      <trkpt lat="47.48661" lon="6.77121">
        <ele>310.1</ele>
        <time>2015-06-08T13:27:44Z</time>
      </trkpt>
      <trkpt lat="47.48666" lon="6.77126">
        <ele>310.9</ele>
        <time>2015-06-08T13:27:45Z</time>
      </trkpt>
      <trkpt lat="47.4867" lon="6.7713">
        <ele>311.8</ele>
        <time>2015-06-08T13:27:46Z</time>
      </trkpt>
      <trkpt lat="47.48674" lon="6.77135">
        <ele>312.4</ele>
        <time>2015-06-08T13:27:47Z</time>
      </trkpt>
      <trkpt lat="47.48679" lon="6.77139">
        <ele>313</ele>
        <time>2015-06-08T13:27:48Z</time>
      </trkpt>
      <trkpt lat="47.48683" lon="6.77143">
        <ele>313.2</ele>
        <time>2015-06-08T13:27:49Z</time>
      </trkpt>
      <trkpt lat="47.48687" lon="6.77147">
        <ele>313.3</ele>
        <time>2015-06-08T13:27:50Z</time>
      </trkpt>
      <trkpt lat="47.48691" lon="6.77152">
        <ele>313.1</ele>
        <time>2015-06-08T13:27:51Z</time>
      </trkpt>
      <trkpt lat="47.48695" lon="6.77156">
        <ele>313.3</ele>
        <time>2015-06-08T13:27:52Z</time>
      </trkpt>
      <trkpt lat="47.48698" lon="6.7716">
        <ele>313.1</ele>
        <time>2015-06-08T13:27:53Z</time>
      </trkpt>
      <trkpt lat="47.48702" lon="6.77163">
        <ele>312.8</ele>
        <time>2015-06-08T13:27:54Z</time>
      </trkpt>
      <trkpt lat="47.48706" lon="6.77167">
        <ele>312.7</ele>
        <time>2015-06-08T13:27:55Z</time>
      </trkpt>
      <trkpt lat="47.4871" lon="6.7717">
        <ele>312.7</ele>
        <time>2015-06-08T13:27:56Z</time>
      </trkpt>
      <trkpt lat="47.48714" lon="6.77173">
        <ele>312.5</ele>
        <time>2015-06-08T13:27:57Z</time>
      </trkpt>
      <trkpt lat="47.48718" lon="6.77176">
        <ele>312.5</ele>
        <time>2015-06-08T13:27:58Z</time>
      </trkpt>
      <trkpt lat="47.48722" lon="6.77179">
        <ele>312.3</ele>
        <time>2015-06-08T13:27:59Z</time>
      </trkpt>
      <trkpt lat="47.48726" lon="6.77182">
        <ele>312.4</ele>
        <time>2015-06-08T13:28:00Z</time>
      </trkpt>
      <trkpt lat="47.4873" lon="6.77186">
        <ele>312.1</ele>
        <time>2015-06-08T13:28:01Z</time>
      </trkpt>
      <trkpt lat="47.48734" lon="6.77189">
        <ele>311.9</ele>
        <time>2015-06-08T13:28:02Z</time>
      </trkpt>
      <trkpt lat="47.48738" lon="6.77192">
        <ele>311.8</ele>
        <time>2015-06-08T13:28:03Z</time>
      </trkpt>
      <trkpt lat="47.48742" lon="6.77194">
        <ele>311.8</ele>
        <time>2015-06-08T13:28:04Z</time>
      </trkpt>
      <trkpt lat="47.48746" lon="6.77197">
        <ele>311.5</ele>
        <time>2015-06-08T13:28:05Z</time>
      </trkpt>
      <trkpt lat="47.4875" lon="6.772">
        <ele>311.6</ele>
        <time>2015-06-08T13:28:06Z</time>
      </trkpt>
      <trkpt lat="47.48754" lon="6.77204">
        <ele>311.4</ele>
        <time>2015-06-08T13:28:07Z</time>
      </trkpt>
      <trkpt lat="47.48758" lon="6.77207">
        <ele>311.2</ele>
        <time>2015-06-08T13:28:08Z</time>
      </trkpt>
      <trkpt lat="47.48762" lon="6.7721">
        <ele>311.5</ele>
        <time>2015-06-08T13:28:09Z</time>
      </trkpt>
      <trkpt lat="47.48766" lon="6.77213">
        <ele>311.4</ele>
        <time>2015-06-08T13:28:10Z</time>
      </trkpt>
      <trkpt lat="47.4877" lon="6.77216">
        <ele>311.5</ele>
        <time>2015-06-08T13:28:11Z</time>
      </trkpt>
      <trkpt lat="47.48774" lon="6.77219">
        <ele>311.6</ele>
        <time>2015-06-08T13:28:12Z</time>
      </trkpt>
      <trkpt lat="47.48778" lon="6.77223">
        <ele>311.6</ele>
        <time>2015-06-08T13:28:13Z</time>
      </trkpt>
      <trkpt lat="47.48782" lon="6.77226">
        <ele>311.8</ele>
        <time>2015-06-08T13:28:14Z</time>
      </trkpt>
      <trkpt lat="47.48786" lon="6.77229">
        <ele>312.2</ele>
        <time>2015-06-08T13:28:15Z</time>
      </trkpt>
      <trkpt lat="47.4879" lon="6.77232">
        <ele>312.4</ele>
        <time>2015-06-08T13:28:16Z</time>
      </trkpt>
      <trkpt lat="47.48794" lon="6.77236">
        <ele>313</ele>
        <time>2015-06-08T13:28:17Z</time>
      </trkpt>
      <trkpt lat="47.48799" lon="6.77239">
        <ele>313.5</ele>
        <time>2015-06-08T13:28:18Z</time>
      </trkpt>
      <trkpt lat="47.48803" lon="6.77242">
        <ele>314</ele>
        <time>2015-06-08T13:28:19Z</time>
      </trkpt>
      <trkpt lat="47.48808" lon="6.77245">
        <ele>314.6</ele>
        <time>2015-06-08T13:28:20Z</time>
      </trkpt>
      <trkpt lat="47.48812" lon="6.77249">
        <ele>314.8</ele>
        <time>2015-06-08T13:28:21Z</time>
      </trkpt>
      <trkpt lat="47.48816" lon="6.77252">
        <ele>315</ele>
        <time>2015-06-08T13:28:22Z</time>
      </trkpt>
      <trkpt lat="47.4882" lon="6.77255">
        <ele>314.4</ele>
        <time>2015-06-08T13:28:23Z</time>
      </trkpt>
      <trkpt lat="47.48823" lon="6.77258">
        <ele>314.4</ele>
        <time>2015-06-08T13:28:24Z</time>
      </trkpt>
      <trkpt lat="47.48828" lon="6.77261">
        <ele>314.3</ele>
        <time>2015-06-08T13:28:25Z</time>
      </trkpt>
      <trkpt lat="47.48832" lon="6.77264">
        <ele>314.3</ele>
        <time>2015-06-08T13:28:26Z</time>
      </trkpt>
      <trkpt lat="47.48836" lon="6.77266">
        <ele>314</ele>
        <time>2015-06-08T13:28:27Z</time>
      </trkpt>
      <trkpt lat="47.4884" lon="6.77269">
        <ele>313.9</ele>
        <time>2015-06-08T13:28:28Z</time>
      </trkpt>
      <trkpt lat="47.48844" lon="6.77272">
        <ele>313.5</ele>
        <time>2015-06-08T13:28:29Z</time>
      </trkpt>
      <trkpt lat="47.48848" lon="6.77274">
        <ele>313</ele>
        <time>2015-06-08T13:28:30Z</time>
      </trkpt>
      <trkpt lat="47.48852" lon="6.77277">
        <ele>312.5</ele>
        <time>2015-06-08T13:28:31Z</time>
      </trkpt>
      <trkpt lat="47.48856" lon="6.77279">
        <ele>311.8</ele>
        <time>2015-06-08T13:28:32Z</time>
      </trkpt>
      <trkpt lat="47.48859" lon="6.77281">
        <ele>311.3</ele>
        <time>2015-06-08T13:28:33Z</time>
      </trkpt>
      <trkpt lat="47.48863" lon="6.77283">
        <ele>310.7</ele>
        <time>2015-06-08T13:28:34Z</time>
      </trkpt>
      <trkpt lat="47.48868" lon="6.77285">
        <ele>310.5</ele>
        <time>2015-06-08T13:28:35Z</time>
      </trkpt>
      <trkpt lat="47.48872" lon="6.77287">
        <ele>310.2</ele>
        <time>2015-06-08T13:28:36Z</time>
      </trkpt>
      <trkpt lat="47.48876" lon="6.77289">
        <ele>309.9</ele>
        <time>2015-06-08T13:28:37Z</time>
      </trkpt>
      <trkpt lat="47.48881" lon="6.7729">
        <ele>309.5</ele>
        <time>2015-06-08T13:28:38Z</time>
      </trkpt>
      <trkpt lat="47.48885" lon="6.77292">
        <ele>309.1</ele>
        <time>2015-06-08T13:28:39Z</time>
      </trkpt>
      <trkpt lat="47.4889" lon="6.77293">
        <ele>308.6</ele>
        <time>2015-06-08T13:28:40Z</time>
      </trkpt>
      <trkpt lat="47.48895" lon="6.77294">
        <ele>307.9</ele>
        <time>2015-06-08T13:28:41Z</time>
      </trkpt>
      <trkpt lat="47.489" lon="6.77295">
        <ele>307.2</ele>
        <time>2015-06-08T13:28:42Z</time>
      </trkpt>
      <trkpt lat="47.48904" lon="6.77296">
        <ele>306.6</ele>
        <time>2015-06-08T13:28:43Z</time>
      </trkpt>
      <trkpt lat="47.48909" lon="6.77297">
        <ele>305.9</ele>
        <time>2015-06-08T13:28:44Z</time>
      </trkpt>
      <trkpt lat="47.48913" lon="6.77299">
        <ele>305.2</ele>
        <time>2015-06-08T13:28:45Z</time>
      </trkpt>
      <trkpt lat="47.48918" lon="6.77301">
        <ele>304.7</ele>
        <time>2015-06-08T13:28:46Z</time>
      </trkpt>
      <trkpt lat="47.48923" lon="6.77302">
        <ele>304.2</ele>
        <time>2015-06-08T13:28:47Z</time>
      </trkpt>
      <trkpt lat="47.48927" lon="6.77303">
        <ele>303.7</ele>
        <time>2015-06-08T13:28:48Z</time>
      </trkpt>
      <trkpt lat="47.48932" lon="6.77305">
        <ele>303.1</ele>
        <time>2015-06-08T13:28:49Z</time>
      </trkpt>
      <trkpt lat="47.48937" lon="6.77306">
        <ele>302.2</ele>
        <time>2015-06-08T13:28:50Z</time>
      </trkpt>
      <trkpt lat="47.48941" lon="6.77308">
        <ele>301.5</ele>
        <time>2015-06-08T13:28:51Z</time>
      </trkpt>
      <trkpt lat="47.48946" lon="6.7731">
        <ele>300.7</ele>
        <time>2015-06-08T13:28:52Z</time>
      </trkpt>
      <trkpt lat="47.4895" lon="6.77311">
        <ele>299.9</ele>
        <time>2015-06-08T13:28:53Z</time>
      </trkpt>
      <trkpt lat="47.48955" lon="6.77313">
        <ele>299</ele>
        <time>2015-06-08T13:28:54Z</time>
      </trkpt>
      <trkpt lat="47.48959" lon="6.77315">
        <ele>298.2</ele>
        <time>2015-06-08T13:28:55Z</time>
      </trkpt>
      <trkpt lat="47.48963" lon="6.77316">
        <ele>297.8</ele>
        <time>2015-06-08T13:28:56Z</time>
      </trkpt>
      <trkpt lat="47.48967" lon="6.77317">
        <ele>297.5</ele>
        <time>2015-06-08T13:28:57Z</time>
      </trkpt>
      <trkpt lat="47.48971" lon="6.77318">
        <ele>297.2</ele>
        <time>2015-06-08T13:28:58Z</time>
      </trkpt>
      <trkpt lat="47.48975" lon="6.77319">
        <ele>296.8</ele>
        <time>2015-06-08T13:28:59Z</time>
      </trkpt>
      <trkpt lat="47.4898" lon="6.77319">
        <ele>296.6</ele>
        <time>2015-06-08T13:29:00Z</time>
      </trkpt>
      <trkpt lat="47.48984" lon="6.77319">
        <ele>296.2</ele>
        <time>2015-06-08T13:29:01Z</time>
      </trkpt>
      <trkpt lat="47.48988" lon="6.7732">
        <ele>295.9</ele>
        <time>2015-06-08T13:29:02Z</time>
      </trkpt>
      <trkpt lat="47.48993" lon="6.7732">
        <ele>295.1</ele>
        <time>2015-06-08T13:29:03Z</time>
      </trkpt>
      <trkpt lat="47.48997" lon="6.77321">
        <ele>294.2</ele>
        <time>2015-06-08T13:29:04Z</time>
      </trkpt>
      <trkpt lat="47.49002" lon="6.77321">
        <ele>293.3</ele>
        <time>2015-06-08T13:29:05Z</time>
      </trkpt>
      <trkpt lat="47.49007" lon="6.77321">
        <ele>292.3</ele>
        <time>2015-06-08T13:29:06Z</time>
      </trkpt>
      <trkpt lat="47.49011" lon="6.77322">
        <ele>291.6</ele>
        <time>2015-06-08T13:29:07Z</time>
      </trkpt>
      <trkpt lat="47.49016" lon="6.77323">
        <ele>290.6</ele>
        <time>2015-06-08T13:29:08Z</time>
      </trkpt>
      <trkpt lat="47.49021" lon="6.77323">
        <ele>289.9</ele>
        <time>2015-06-08T13:29:09Z</time>
      </trkpt>
      <trkpt lat="47.49025" lon="6.77324">
        <ele>289.2</ele>
        <time>2015-06-08T13:29:10Z</time>
      </trkpt>
      <trkpt lat="47.4903" lon="6.77324">
        <ele>288.5</ele>
        <time>2015-06-08T13:29:11Z</time>
      </trkpt>
      <trkpt lat="47.49034" lon="6.77325">
        <ele>288.1</ele>
        <time>2015-06-08T13:29:12Z</time>
      </trkpt>
      <trkpt lat="47.49038" lon="6.77326">
        <ele>287.5</ele>
        <time>2015-06-08T13:29:13Z</time>
      </trkpt>
      <trkpt lat="47.49042" lon="6.77327">
        <ele>286.9</ele>
        <time>2015-06-08T13:29:14Z</time>
      </trkpt>
      <trkpt lat="47.49044" lon="6.77327">
        <ele>289.6</ele>
        <time>2015-06-08T13:29:15Z</time>
      </trkpt>
      <trkpt lat="47.49049" lon="6.77327">
        <ele>289.4</ele>
        <time>2015-06-08T13:29:16Z</time>
      </trkpt>
      <trkpt lat="47.49053" lon="6.77328">
        <ele>288.7</ele>
        <time>2015-06-08T13:29:17Z</time>
      </trkpt>
      <trkpt lat="47.49058" lon="6.77328">
        <ele>288.6</ele>
        <time>2015-06-08T13:29:18Z</time>
      </trkpt>
      <trkpt lat="47.49062" lon="6.77328">
        <ele>290.1</ele>
        <time>2015-06-08T13:29:19Z</time>
      </trkpt>
      <trkpt lat="47.49067" lon="6.77328">
        <ele>290</ele>
        <time>2015-06-08T13:29:20Z</time>
      </trkpt>
      <trkpt lat="47.49072" lon="6.77329">
        <ele>289.9</ele>
        <time>2015-06-08T13:29:21Z</time>
      </trkpt>
      <trkpt lat="47.49077" lon="6.77329">
        <ele>290.1</ele>
        <time>2015-06-08T13:29:22Z</time>
      </trkpt>
      <trkpt lat="47.49082" lon="6.7733">
        <ele>290.4</ele>
        <time>2015-06-08T13:29:23Z</time>
      </trkpt>
      <trkpt lat="47.49086" lon="6.7733">
        <ele>290.4</ele>
        <time>2015-06-08T13:29:24Z</time>
      </trkpt>
      <trkpt lat="47.4909" lon="6.7733">
        <ele>291.8</ele>
        <time>2015-06-08T13:29:25Z</time>
      </trkpt>
      <trkpt lat="47.49095" lon="6.7733">
        <ele>292.2</ele>
        <time>2015-06-08T13:29:26Z</time>
      </trkpt>
      <trkpt lat="47.49099" lon="6.7733">
        <ele>293.3</ele>
        <time>2015-06-08T13:29:27Z</time>
      </trkpt>
      <trkpt lat="47.49104" lon="6.7733">
        <ele>294.1</ele>
        <time>2015-06-08T13:29:28Z</time>
      </trkpt>
      <trkpt lat="47.49108" lon="6.77331">
        <ele>294.3</ele>
        <time>2015-06-08T13:29:29Z</time>
      </trkpt>
      <trkpt lat="47.49113" lon="6.77331">
        <ele>294.6</ele>
        <time>2015-06-08T13:29:30Z</time>
      </trkpt>
      <trkpt lat="47.49118" lon="6.77331">
        <ele>294.7</ele>
        <time>2015-06-08T13:29:31Z</time>
      </trkpt>
      <trkpt lat="47.49123" lon="6.77332">
        <ele>295</ele>
        <time>2015-06-08T13:29:32Z</time>
      </trkpt>
      <trkpt lat="47.49127" lon="6.77332">
        <ele>295.6</ele>
        <time>2015-06-08T13:29:33Z</time>
      </trkpt>
      <trkpt lat="47.49132" lon="6.77333">
        <ele>296.1</ele>
        <time>2015-06-08T13:29:34Z</time>
      </trkpt>
      <trkpt lat="47.49136" lon="6.77333">
        <ele>296.4</ele>
        <time>2015-06-08T13:29:35Z</time>
      </trkpt>
      <trkpt lat="47.49142" lon="6.77334">
        <ele>296.2</ele>
        <time>2015-06-08T13:29:36Z</time>
      </trkpt>
      <trkpt lat="47.49147" lon="6.77334">
        <ele>296.1</ele>
        <time>2015-06-08T13:29:37Z</time>
      </trkpt>
      <trkpt lat="47.49151" lon="6.77334">
        <ele>295.9</ele>
        <time>2015-06-08T13:29:38Z</time>
      </trkpt>
      <trkpt lat="47.49156" lon="6.77334">
        <ele>295.9</ele>
        <time>2015-06-08T13:29:39Z</time>
      </trkpt>
      <trkpt lat="47.4916" lon="6.77334">
        <ele>296.1</ele>
        <time>2015-06-08T13:29:40Z</time>
      </trkpt>
      <trkpt lat="47.49165" lon="6.77334">
        <ele>296.6</ele>
        <time>2015-06-08T13:29:41Z</time>
      </trkpt>
      <trkpt lat="47.4917" lon="6.77334">
        <ele>296.7</ele>
        <time>2015-06-08T13:29:42Z</time>
      </trkpt>
      <trkpt lat="47.49174" lon="6.77333">
        <ele>296.7</ele>
        <time>2015-06-08T13:29:43Z</time>
      </trkpt>
      <trkpt lat="47.49179" lon="6.77333">
        <ele>297</ele>
        <time>2015-06-08T13:29:44Z</time>
      </trkpt>
      <trkpt lat="47.49184" lon="6.77333">
        <ele>297.1</ele>
        <time>2015-06-08T13:29:46Z</time>
      </trkpt>
      <trkpt lat="47.49189" lon="6.77333">
        <ele>297.9</ele>
        <time>2015-06-08T13:29:46Z</time>
      </trkpt>
      <trkpt lat="47.49195" lon="6.77333">
        <ele>299.3</ele>
        <time>2015-06-08T13:29:47Z</time>
      </trkpt>
      <trkpt lat="47.492" lon="6.77334">
        <ele>299.6</ele>
        <time>2015-06-08T13:29:48Z</time>
      </trkpt>
      <trkpt lat="47.49205" lon="6.77334">
        <ele>299.7</ele>
        <time>2015-06-08T13:29:49Z</time>
      </trkpt>
      <trkpt lat="47.49209" lon="6.77335">
        <ele>299.7</ele>
        <time>2015-06-08T13:29:50Z</time>
      </trkpt>
      <trkpt lat="47.49213" lon="6.77336">
        <ele>299.5</ele>
        <time>2015-06-08T13:29:51Z</time>
      </trkpt>
      <trkpt lat="47.49218" lon="6.77336">
        <ele>299.4</ele>
        <time>2015-06-08T13:29:52Z</time>
      </trkpt>
      <trkpt lat="47.49223" lon="6.77336">
        <ele>299.4</ele>
        <time>2015-06-08T13:29:53Z</time>
      </trkpt>
      <trkpt lat="47.49227" lon="6.77337">
        <ele>300</ele>
        <time>2015-06-08T13:29:54Z</time>
      </trkpt>
      <trkpt lat="47.49231" lon="6.77337">
        <ele>300.6</ele>
        <time>2015-06-08T13:29:55Z</time>
      </trkpt>
      <trkpt lat="47.49236" lon="6.77338">
        <ele>301</ele>
        <time>2015-06-08T13:29:56Z</time>
      </trkpt>
      <trkpt lat="47.4924" lon="6.77338">
        <ele>302</ele>
        <time>2015-06-08T13:29:57Z</time>
      </trkpt>
      <trkpt lat="47.49245" lon="6.77338">
        <ele>303</ele>
        <time>2015-06-08T13:29:58Z</time>
      </trkpt>
      <trkpt lat="47.49249" lon="6.77338">
        <ele>304.2</ele>
        <time>2015-06-08T13:29:59Z</time>
      </trkpt>
      <trkpt lat="47.49253" lon="6.77336">
        <ele>304.8</ele>
        <time>2015-06-08T13:30:00Z</time>
      </trkpt>
      <trkpt lat="47.49257" lon="6.77333">
        <ele>305.5</ele>
        <time>2015-06-08T13:30:01Z</time>
      </trkpt>
      <trkpt lat="47.49261" lon="6.7733">
        <ele>305.7</ele>
        <time>2015-06-08T13:30:02Z</time>
      </trkpt>
      <trkpt lat="47.49265" lon="6.77327">
        <ele>305.7</ele>
        <time>2015-06-08T13:30:03Z</time>
      </trkpt>
      <trkpt lat="47.4927" lon="6.77324">
        <ele>305.6</ele>
        <time>2015-06-08T13:30:04Z</time>
      </trkpt>
      <trkpt lat="47.49274" lon="6.77321">
        <ele>305.4</ele>
        <time>2015-06-08T13:30:05Z</time>
      </trkpt>
      <trkpt lat="47.49279" lon="6.77319">
        <ele>305.5</ele>
        <time>2015-06-08T13:30:06Z</time>
      </trkpt>
      <trkpt lat="47.49285" lon="6.77319">
        <ele>305.7</ele>
        <time>2015-06-08T13:30:07Z</time>
      </trkpt>
      <trkpt lat="47.4929" lon="6.7732">
        <ele>306.1</ele>
        <time>2015-06-08T13:30:08Z</time>
      </trkpt>
      <trkpt lat="47.49295" lon="6.7732">
        <ele>306.6</ele>
        <time>2015-06-08T13:30:09Z</time>
      </trkpt>
      <trkpt lat="47.49301" lon="6.77321">
        <ele>307.1</ele>
        <time>2015-06-08T13:30:10Z</time>
      </trkpt>
      <trkpt lat="47.49306" lon="6.77322">
        <ele>308</ele>
        <time>2015-06-08T13:30:11Z</time>
      </trkpt>
      <trkpt lat="47.49312" lon="6.77323">
        <ele>308.7</ele>
        <time>2015-06-08T13:30:12Z</time>
      </trkpt>
      <trkpt lat="47.49316" lon="6.77324">
        <ele>308.9</ele>
        <time>2015-06-08T13:30:13Z</time>
      </trkpt>
      <trkpt lat="47.4932" lon="6.77325">
        <ele>309.3</ele>
        <time>2015-06-08T13:30:14Z</time>
      </trkpt>
      <trkpt lat="47.49325" lon="6.77326">
        <ele>310.2</ele>
        <time>2015-06-08T13:30:15Z</time>
      </trkpt>
      <trkpt lat="47.4933" lon="6.77328">
        <ele>311.2</ele>
        <time>2015-06-08T13:30:16Z</time>
      </trkpt>
      <trkpt lat="47.49335" lon="6.7733">
        <ele>311.6</ele>
        <time>2015-06-08T13:30:17Z</time>
      </trkpt>
      <trkpt lat="47.49339" lon="6.77334">
        <ele>311.9</ele>
        <time>2015-06-08T13:30:18Z</time>
      </trkpt>
      <trkpt lat="47.49342" lon="6.77338">
        <ele>312.8</ele>
        <time>2015-06-08T13:30:19Z</time>
      </trkpt>
      <trkpt lat="47.49346" lon="6.77342">
        <ele>313.4</ele>
        <time>2015-06-08T13:30:20Z</time>
      </trkpt>
      <trkpt lat="47.4935" lon="6.77344">
        <ele>313.9</ele>
        <time>2015-06-08T13:30:21Z</time>
      </trkpt>
      <trkpt lat="47.49354" lon="6.77345">
        <ele>314.5</ele>
        <time>2015-06-08T13:30:22Z</time>
      </trkpt>
      <trkpt lat="47.49358" lon="6.77345">
        <ele>314.9</ele>
        <time>2015-06-08T13:30:23Z</time>
      </trkpt>
      <trkpt lat="47.49361" lon="6.77344">
        <ele>315.7</ele>
        <time>2015-06-08T13:30:24Z</time>
      </trkpt>
      <trkpt lat="47.49362" lon="6.77345">
        <ele>316.2</ele>
        <time>2015-06-08T13:30:25Z</time>
      </trkpt>
      <trkpt lat="47.49364" lon="6.77345">
        <ele>317.8</ele>
        <time>2015-06-08T13:30:27Z</time>
      </trkpt>
      <trkpt lat="47.49364" lon="6.77345">
        <ele>318.7</ele>
        <time>2015-06-08T13:30:28Z</time>
      </trkpt>
      <trkpt lat="47.49365" lon="6.77348">
        <ele>320.7</ele>
        <time>2015-06-08T13:30:30Z</time>
      </trkpt>
      <trkpt lat="47.49365" lon="6.77348">
        <ele>321</ele>
        <time>2015-06-08T13:30:31Z</time>
      </trkpt>
      <trkpt lat="47.49365" lon="6.77347">
        <ele>319.1</ele>
        <time>2015-06-08T13:30:32Z</time>
      </trkpt>
      <trkpt lat="47.49365" lon="6.77348">
        <ele>318.7</ele>
        <time>2015-06-08T13:30:33Z</time>
      </trkpt>
      <trkpt lat="47.49365" lon="6.7735">
        <ele>319.9</ele>
        <time>2015-06-08T13:30:34Z</time>
      </trkpt>
      <trkpt lat="47.49364" lon="6.77349">
        <ele>321.7</ele>
        <time>2015-06-08T13:30:37Z</time>
      </trkpt>
      <trkpt lat="47.49365" lon="6.77349">
        <ele>323.1</ele>
        <time>2015-06-08T13:30:42Z</time>
      </trkpt>
      <trkpt lat="47.49364" lon="6.77348">
        <ele>324.2</ele>
        <time>2015-06-08T13:30:51Z</time>
      </trkpt>
      <trkpt lat="47.49363" lon="6.77348">
        <ele>324.2</ele>
        <time>2015-06-08T13:30:52Z</time>
      </trkpt>
      <trkpt lat="47.4936" lon="6.77348">
        <ele>324.5</ele>
        <time>2015-06-08T13:30:53Z</time>
      </trkpt>
      <trkpt lat="47.49355" lon="6.77349">
        <ele>324.7</ele>
        <time>2015-06-08T13:30:54Z</time>
      </trkpt>
      <trkpt lat="47.49348" lon="6.7735">
        <ele>324.9</ele>
        <time>2015-06-08T13:30:55Z</time>
      </trkpt>
      <trkpt lat="47.49342" lon="6.77349">
        <ele>324.8</ele>
        <time>2015-06-08T13:30:56Z</time>
      </trkpt>
      <trkpt lat="47.49335" lon="6.77349">
        <ele>324.7</ele>
        <time>2015-06-08T13:30:57Z</time>
      </trkpt>
      <trkpt lat="47.49329" lon="6.7735">
        <ele>324.7</ele>
        <time>2015-06-08T13:30:58Z</time>
      </trkpt>
      <trkpt lat="47.49324" lon="6.77352">
        <ele>324.5</ele>
        <time>2015-06-08T13:30:59Z</time>
      </trkpt>
      <trkpt lat="47.49319" lon="6.77353">
        <ele>324.4</ele>
        <time>2015-06-08T13:31:00Z</time>
      </trkpt>
      <trkpt lat="47.49314" lon="6.77355">
        <ele>324.1</ele>
        <time>2015-06-08T13:31:01Z</time>
      </trkpt>
      <trkpt lat="47.49312" lon="6.77356">
        <ele>323.7</ele>
        <time>2015-06-08T13:31:02Z</time>
      </trkpt>
      <trkpt lat="47.49316" lon="6.77354">
        <ele>322.2</ele>
        <time>2015-06-08T13:31:05Z</time>
      </trkpt>
      <trkpt lat="47.49323" lon="6.77352">
        <ele>321.5</ele>
        <time>2015-06-08T13:31:06Z</time>
      </trkpt>
      <trkpt lat="47.4932" lon="6.77352">
        <ele>320.6</ele>
        <time>2015-06-08T13:31:07Z</time>
      </trkpt>
      <trkpt lat="47.49316" lon="6.77353">
        <ele>319.5</ele>
        <time>2015-06-08T13:31:08Z</time>
      </trkpt>
      <trkpt lat="47.49314" lon="6.77354">
        <ele>318.5</ele>
        <time>2015-06-08T13:31:09Z</time>
      </trkpt>
      <trkpt lat="47.49312" lon="6.77354">
        <ele>317.4</ele>
        <time>2015-06-08T13:31:10Z</time>
      </trkpt>
      <trkpt lat="47.49315" lon="6.77351">
        <ele>315.6</ele>
        <time>2015-06-08T13:31:11Z</time>
      </trkpt>
      <trkpt lat="47.49319" lon="6.77351">
        <ele>314.8</ele>
        <time>2015-06-08T13:31:12Z</time>
      </trkpt>
      <trkpt lat="47.49318" lon="6.77351">
        <ele>311.9</ele>
        <time>2015-06-08T13:31:15Z</time>
      </trkpt>
      <trkpt lat="47.4932" lon="6.77349">
        <ele>309.1</ele>
        <time>2015-06-08T13:31:17Z</time>
      </trkpt>
      <trkpt lat="47.49319" lon="6.7735">
        <ele>308.2</ele>
        <time>2015-06-08T13:31:18Z</time>
      </trkpt>
      <trkpt lat="47.49321" lon="6.77359">
        <ele>308.1</ele>
        <time>2015-06-08T13:31:19Z</time>
      </trkpt>
      <trkpt lat="47.49323" lon="6.77365">
        <ele>308.1</ele>
        <time>2015-06-08T13:31:20Z</time>
      </trkpt>
      <trkpt lat="47.49325" lon="6.77372">
        <ele>307.8</ele>
        <time>2015-06-08T13:31:21Z</time>
      </trkpt>
      <trkpt lat="47.49326" lon="6.77368">
        <ele>307.1</ele>
        <time>2015-06-08T13:31:22Z</time>
      </trkpt>
      <trkpt lat="47.49328" lon="6.77365">
        <ele>306.5</ele>
        <time>2015-06-08T13:31:23Z</time>
      </trkpt>
      <trkpt lat="47.49329" lon="6.77363">
        <ele>306.3</ele>
        <time>2015-06-08T13:31:24Z</time>
      </trkpt>
      <trkpt lat="47.4933" lon="6.7736">
        <ele>305.8</ele>
        <time>2015-06-08T13:31:25Z</time>
      </trkpt>
      <trkpt lat="47.49331" lon="6.77359">
        <ele>305.7</ele>
        <time>2015-06-08T13:31:26Z</time>
      </trkpt>
      <trkpt lat="47.49331" lon="6.77358">
        <ele>305.6</ele>
        <time>2015-06-08T13:31:27Z</time>
      </trkpt>
      <trkpt lat="47.49332" lon="6.77357">
        <ele>305.6</ele>
        <time>2015-06-08T13:31:28Z</time>
      </trkpt>
      <trkpt lat="47.49333" lon="6.77354">
        <ele>305.3</ele>
        <time>2015-06-08T13:31:30Z</time>
      </trkpt>
      <trkpt lat="47.49333" lon="6.77353">
        <ele>305.1</ele>
        <time>2015-06-08T13:31:31Z</time>
      </trkpt>
      <trkpt lat="47.49334" lon="6.77352">
        <ele>305</ele>
        <time>2015-06-08T13:31:33Z</time>
      </trkpt>
      <trkpt lat="47.49334" lon="6.77352">
        <ele>305</ele>
        <time>2015-06-08T13:31:34Z</time>
      </trkpt>
      <trkpt lat="47.49335" lon="6.77353">
        <ele>305</ele>
        <time>2015-06-08T13:33:07Z</time>
      </trkpt>
      <trkpt lat="47.49337" lon="6.77354">
        <ele>305.1</ele>
        <time>2015-06-08T13:33:08Z</time>
      </trkpt>
      <trkpt lat="47.4934" lon="6.77354">
        <ele>305.2</ele>
        <time>2015-06-08T13:33:09Z</time>
      </trkpt>
      <trkpt lat="47.49344" lon="6.77354">
        <ele>305.5</ele>
        <time>2015-06-08T13:33:10Z</time>
      </trkpt>
      <trkpt lat="47.49352" lon="6.77353">
        <ele>306</ele>
        <time>2015-06-08T13:33:11Z</time>
      </trkpt>
      <trkpt lat="47.49357" lon="6.77351">
        <ele>306.3</ele>
        <time>2015-06-08T13:33:12Z</time>
      </trkpt>
      <trkpt lat="47.49362" lon="6.7735">
        <ele>306.6</ele>
        <time>2015-06-08T13:33:13Z</time>
      </trkpt>
      <trkpt lat="47.49366" lon="6.77349">
        <ele>306.7</ele>
        <time>2015-06-08T13:33:14Z</time>
      </trkpt>
      <trkpt lat="47.4937" lon="6.77348">
        <ele>306.9</ele>
        <time>2015-06-08T13:33:15Z</time>
      </trkpt>
      <trkpt lat="47.49374" lon="6.77348">
        <ele>306.6</ele>
        <time>2015-06-08T13:33:16Z</time>
      </trkpt>
      <trkpt lat="47.49378" lon="6.77347">
        <ele>306.7</ele>
        <time>2015-06-08T13:33:17Z</time>
      </trkpt>
      <trkpt lat="47.49382" lon="6.77347">
        <ele>306.9</ele>
        <time>2015-06-08T13:33:18Z</time>
      </trkpt>
      <trkpt lat="47.49386" lon="6.77347">
        <ele>306.9</ele>
        <time>2015-06-08T13:33:19Z</time>
      </trkpt>
      <trkpt lat="47.49391" lon="6.77348">
        <ele>307.1</ele>
        <time>2015-06-08T13:33:20Z</time>
      </trkpt>
      <trkpt lat="47.49396" lon="6.77348">
        <ele>307.1</ele>
        <time>2015-06-08T13:33:21Z</time>
      </trkpt>
      <trkpt lat="47.49401" lon="6.77348">
        <ele>307.4</ele>
        <time>2015-06-08T13:33:22Z</time>
      </trkpt>
      <trkpt lat="47.49407" lon="6.77348">
        <ele>307.5</ele>
        <time>2015-06-08T13:33:23Z</time>
      </trkpt>
      <trkpt lat="47.49412" lon="6.77348">
        <ele>307.6</ele>
        <time>2015-06-08T13:33:24Z</time>
      </trkpt>
      <trkpt lat="47.49418" lon="6.77348">
        <ele>307.6</ele>
        <time>2015-06-08T13:33:25Z</time>
      </trkpt>
      <trkpt lat="47.49423" lon="6.77349">
        <ele>307.8</ele>
        <time>2015-06-08T13:33:26Z</time>
      </trkpt>
      <trkpt lat="47.49428" lon="6.77349">
        <ele>308</ele>
        <time>2015-06-08T13:33:27Z</time>
      </trkpt>
      <trkpt lat="47.49433" lon="6.77349">
        <ele>307.8</ele>
        <time>2015-06-08T13:33:28Z</time>
      </trkpt>
      <trkpt lat="47.49438" lon="6.7735">
        <ele>308.3</ele>
        <time>2015-06-08T13:33:29Z</time>
      </trkpt>
      <trkpt lat="47.49442" lon="6.7735">
        <ele>308.3</ele>
        <time>2015-06-08T13:33:30Z</time>
      </trkpt>
      <trkpt lat="47.49447" lon="6.7735">
        <ele>308.4</ele>
        <time>2015-06-08T13:33:31Z</time>
      </trkpt>
      <trkpt lat="47.49452" lon="6.7735">
        <ele>308.3</ele>
        <time>2015-06-08T13:33:32Z</time>
      </trkpt>
      <trkpt lat="47.49457" lon="6.77351">
        <ele>308.4</ele>
        <time>2015-06-08T13:33:33Z</time>
      </trkpt>
      <trkpt lat="47.49461" lon="6.77351">
        <ele>308.4</ele>
        <time>2015-06-08T13:33:34Z</time>
      </trkpt>
      <trkpt lat="47.49466" lon="6.77351">
        <ele>308.3</ele>
        <time>2015-06-08T13:33:35Z</time>
      </trkpt>
      <trkpt lat="47.49471" lon="6.77352">
        <ele>308.4</ele>
        <time>2015-06-08T13:33:36Z</time>
      </trkpt>
      <trkpt lat="47.49475" lon="6.77352">
        <ele>308.5</ele>
        <time>2015-06-08T13:33:37Z</time>
      </trkpt>
      <trkpt lat="47.4948" lon="6.77353">
        <ele>308.6</ele>
        <time>2015-06-08T13:33:38Z</time>
      </trkpt>
      <trkpt lat="47.49484" lon="6.77353">
        <ele>308.7</ele>
        <time>2015-06-08T13:33:39Z</time>
      </trkpt>
      <trkpt lat="47.49489" lon="6.77353">
        <ele>308.8</ele>
        <time>2015-06-08T13:33:41Z</time>
      </trkpt>
      <trkpt lat="47.49494" lon="6.77353">
        <ele>309</ele>
        <time>2015-06-08T13:33:41Z</time>
      </trkpt>
      <trkpt lat="47.49498" lon="6.77354">
        <ele>309.1</ele>
        <time>2015-06-08T13:33:42Z</time>
      </trkpt>
      <trkpt lat="47.49503" lon="6.77354">
        <ele>309.3</ele>
        <time>2015-06-08T13:33:43Z</time>
      </trkpt>
      <trkpt lat="47.49508" lon="6.77354">
        <ele>309.4</ele>
        <time>2015-06-08T13:33:44Z</time>
      </trkpt>
      <trkpt lat="47.49512" lon="6.77355">
        <ele>309.5</ele>
        <time>2015-06-08T13:33:45Z</time>
      </trkpt>
      <trkpt lat="47.49517" lon="6.77355">
        <ele>309.5</ele>
        <time>2015-06-08T13:33:46Z</time>
      </trkpt>
      <trkpt lat="47.49521" lon="6.77355">
        <ele>309.5</ele>
        <time>2015-06-08T13:33:47Z</time>
      </trkpt>
      <trkpt lat="47.49525" lon="6.77355">
        <ele>309.7</ele>
        <time>2015-06-08T13:33:48Z</time>
      </trkpt>
      <trkpt lat="47.4953" lon="6.77356">
        <ele>309.6</ele>
        <time>2015-06-08T13:33:49Z</time>
      </trkpt>
      <trkpt lat="47.49534" lon="6.77356">
        <ele>309.7</ele>
        <time>2015-06-08T13:33:50Z</time>
      </trkpt>
      <trkpt lat="47.49539" lon="6.77356">
        <ele>309.7</ele>
        <time>2015-06-08T13:33:51Z</time>
      </trkpt>
      <trkpt lat="47.49543" lon="6.77357">
        <ele>309.6</ele>
        <time>2015-06-08T13:33:52Z</time>
      </trkpt>
      <trkpt lat="47.49548" lon="6.77357">
        <ele>309.7</ele>
        <time>2015-06-08T13:33:53Z</time>
      </trkpt>
      <trkpt lat="47.49552" lon="6.77357">
        <ele>309.8</ele>
        <time>2015-06-08T13:33:54Z</time>
      </trkpt>
      <trkpt lat="47.49557" lon="6.77357">
        <ele>309.8</ele>
        <time>2015-06-08T13:33:55Z</time>
      </trkpt>
      <trkpt lat="47.49561" lon="6.77358">
        <ele>309.7</ele>
        <time>2015-06-08T13:33:56Z</time>
      </trkpt>
      <trkpt lat="47.49566" lon="6.77358">
        <ele>309.7</ele>
        <time>2015-06-08T13:33:57Z</time>
      </trkpt>
      <trkpt lat="47.49571" lon="6.77358">
        <ele>309.7</ele>
        <time>2015-06-08T13:33:58Z</time>
      </trkpt>
      <trkpt lat="47.49575" lon="6.77358">
        <ele>309.7</ele>
        <time>2015-06-08T13:33:59Z</time>
      </trkpt>
      <trkpt lat="47.4958" lon="6.77358">
        <ele>309.7</ele>
        <time>2015-06-08T13:34:00Z</time>
      </trkpt>
      <trkpt lat="47.49585" lon="6.77357">
        <ele>309.9</ele>
        <time>2015-06-08T13:34:01Z</time>
      </trkpt>
      <trkpt lat="47.49589" lon="6.77357">
        <ele>310</ele>
        <time>2015-06-08T13:34:02Z</time>
      </trkpt>
      <trkpt lat="47.49594" lon="6.77356">
        <ele>310.1</ele>
        <time>2015-06-08T13:34:03Z</time>
      </trkpt>
      <trkpt lat="47.49599" lon="6.77355">
        <ele>310.2</ele>
        <time>2015-06-08T13:34:04Z</time>
      </trkpt>
      <trkpt lat="47.49603" lon="6.77355">
        <ele>310.3</ele>
        <time>2015-06-08T13:34:05Z</time>
      </trkpt>
      <trkpt lat="47.49608" lon="6.77354">
        <ele>310.4</ele>
        <time>2015-06-08T13:34:06Z</time>
      </trkpt>
      <trkpt lat="47.49613" lon="6.77354">
        <ele>310.4</ele>
        <time>2015-06-08T13:34:07Z</time>
      </trkpt>
      <trkpt lat="47.49617" lon="6.77353">
        <ele>310.7</ele>
        <time>2015-06-08T13:34:08Z</time>
      </trkpt>
      <trkpt lat="47.49622" lon="6.77352">
        <ele>310.5</ele>
        <time>2015-06-08T13:34:09Z</time>
      </trkpt>
      <trkpt lat="47.49626" lon="6.77351">
        <ele>310.6</ele>
        <time>2015-06-08T13:34:10Z</time>
      </trkpt>
      <trkpt lat="47.49631" lon="6.7735">
        <ele>310.6</ele>
        <time>2015-06-08T13:34:11Z</time>
      </trkpt>
      <trkpt lat="47.49635" lon="6.77349">
        <ele>310.4</ele>
        <time>2015-06-08T13:34:12Z</time>
      </trkpt>
      <trkpt lat="47.4964" lon="6.77347">
        <ele>310.3</ele>
        <time>2015-06-08T13:34:13Z</time>
      </trkpt>
      <trkpt lat="47.49645" lon="6.77346">
        <ele>310.4</ele>
        <time>2015-06-08T13:34:14Z</time>
      </trkpt>
      <trkpt lat="47.49649" lon="6.77345">
        <ele>310.5</ele>
        <time>2015-06-08T13:34:15Z</time>
      </trkpt>
      <trkpt lat="47.49654" lon="6.77344">
        <ele>310.4</ele>
        <time>2015-06-08T13:34:16Z</time>
      </trkpt>
      <trkpt lat="47.49658" lon="6.77343">
        <ele>310.2</ele>
        <time>2015-06-08T13:34:17Z</time>
      </trkpt>
      <trkpt lat="47.49663" lon="6.77342">
        <ele>310.3</ele>
        <time>2015-06-08T13:34:18Z</time>
      </trkpt>
      <trkpt lat="47.49667" lon="6.77341">
        <ele>310.2</ele>
        <time>2015-06-08T13:34:19Z</time>
      </trkpt>
      <trkpt lat="47.49672" lon="6.7734">
        <ele>310.2</ele>
        <time>2015-06-08T13:34:20Z</time>
      </trkpt>
      <trkpt lat="47.49676" lon="6.77338">
        <ele>310.2</ele>
        <time>2015-06-08T13:34:21Z</time>
      </trkpt>
      <trkpt lat="47.4968" lon="6.77337">
        <ele>310.2</ele>
        <time>2015-06-08T13:34:22Z</time>
      </trkpt>
      <trkpt lat="47.49685" lon="6.77336">
        <ele>310.2</ele>
        <time>2015-06-08T13:34:23Z</time>
      </trkpt>
      <trkpt lat="47.4969" lon="6.77336">
        <ele>310.2</ele>
        <time>2015-06-08T13:34:24Z</time>
      </trkpt>
      <trkpt lat="47.49694" lon="6.77335">
        <ele>310.3</ele>
        <time>2015-06-08T13:34:25Z</time>
      </trkpt>
      <trkpt lat="47.49698" lon="6.77334">
        <ele>310.4</ele>
        <time>2015-06-08T13:34:26Z</time>
      </trkpt>
      <trkpt lat="47.49703" lon="6.77333">
        <ele>310.4</ele>
        <time>2015-06-08T13:34:27Z</time>
      </trkpt>
      <trkpt lat="47.49707" lon="6.77332">
        <ele>310.6</ele>
        <time>2015-06-08T13:34:28Z</time>
      </trkpt>
      <trkpt lat="47.49711" lon="6.77332">
        <ele>310.6</ele>
        <time>2015-06-08T13:34:29Z</time>
      </trkpt>
      <trkpt lat="47.49716" lon="6.77331">
        <ele>310.7</ele>
        <time>2015-06-08T13:34:30Z</time>
      </trkpt>
      <trkpt lat="47.4972" lon="6.77331">
        <ele>310.7</ele>
        <time>2015-06-08T13:34:31Z</time>
      </trkpt>
      <trkpt lat="47.49725" lon="6.77329">
        <ele>310.8</ele>
        <time>2015-06-08T13:34:32Z</time>
      </trkpt>
      <trkpt lat="47.49729" lon="6.77328">
        <ele>310.8</ele>
        <time>2015-06-08T13:34:33Z</time>
      </trkpt>
      <trkpt lat="47.49733" lon="6.77325">
        <ele>310.9</ele>
        <time>2015-06-08T13:34:34Z</time>
      </trkpt>
      <trkpt lat="47.49737" lon="6.77323">
        <ele>311</ele>
        <time>2015-06-08T13:34:35Z</time>
      </trkpt>
      <trkpt lat="47.49741" lon="6.7732">
        <ele>311.1</ele>
        <time>2015-06-08T13:34:36Z</time>
      </trkpt>
      <trkpt lat="47.49746" lon="6.77318">
        <ele>311.1</ele>
        <time>2015-06-08T13:34:37Z</time>
      </trkpt>
      <trkpt lat="47.4975" lon="6.77315">
        <ele>311</ele>
        <time>2015-06-08T13:34:38Z</time>
      </trkpt>
      <trkpt lat="47.49754" lon="6.77313">
        <ele>311</ele>
        <time>2015-06-08T13:34:39Z</time>
      </trkpt>
      <trkpt lat="47.49758" lon="6.77312">
        <ele>310.8</ele>
        <time>2015-06-08T13:34:40Z</time>
      </trkpt>
      <trkpt lat="47.49762" lon="6.77311">
        <ele>310.6</ele>
        <time>2015-06-08T13:34:41Z</time>
      </trkpt>
      <trkpt lat="47.49766" lon="6.77311">
        <ele>310.3</ele>
        <time>2015-06-08T13:34:42Z</time>
      </trkpt>
      <trkpt lat="47.4977" lon="6.77311">
        <ele>310.4</ele>
        <time>2015-06-08T13:34:43Z</time>
      </trkpt>
      <trkpt lat="47.49775" lon="6.7731">
        <ele>310.2</ele>
        <time>2015-06-08T13:34:44Z</time>
      </trkpt>
      <trkpt lat="47.49779" lon="6.7731">
        <ele>310.3</ele>
        <time>2015-06-08T13:34:45Z</time>
      </trkpt>
      <trkpt lat="47.49783" lon="6.7731">
        <ele>310.2</ele>
        <time>2015-06-08T13:34:46Z</time>
      </trkpt>
      <trkpt lat="47.49787" lon="6.7731">
        <ele>310.1</ele>
        <time>2015-06-08T13:34:47Z</time>
      </trkpt>
      <trkpt lat="47.49791" lon="6.77309">
        <ele>309.7</ele>
        <time>2015-06-08T13:34:48Z</time>
      </trkpt>
      <trkpt lat="47.49795" lon="6.77309">
        <ele>309.4</ele>
        <time>2015-06-08T13:34:49Z</time>
      </trkpt>
      <trkpt lat="47.49799" lon="6.77308">
        <ele>309.2</ele>
        <time>2015-06-08T13:34:50Z</time>
      </trkpt>
      <trkpt lat="47.49803" lon="6.77307">
        <ele>308.7</ele>
        <time>2015-06-08T13:34:51Z</time>
      </trkpt>
      <trkpt lat="47.49807" lon="6.77307">
        <ele>308.2</ele>
        <time>2015-06-08T13:34:52Z</time>
      </trkpt>
      <trkpt lat="47.49811" lon="6.77306">
        <ele>307.9</ele>
        <time>2015-06-08T13:34:53Z</time>
      </trkpt>
      <trkpt lat="47.49815" lon="6.77306">
        <ele>307.6</ele>
        <time>2015-06-08T13:34:54Z</time>
      </trkpt>
      <trkpt lat="47.49819" lon="6.77305">
        <ele>307.4</ele>
        <time>2015-06-08T13:34:55Z</time>
      </trkpt>
      <trkpt lat="47.49823" lon="6.77305">
        <ele>307.5</ele>
        <time>2015-06-08T13:34:56Z</time>
      </trkpt>
      <trkpt lat="47.49827" lon="6.77305">
        <ele>307.3</ele>
        <time>2015-06-08T13:34:57Z</time>
      </trkpt>
      <trkpt lat="47.49831" lon="6.77305">
        <ele>307.2</ele>
        <time>2015-06-08T13:34:58Z</time>
      </trkpt>
      <trkpt lat="47.49835" lon="6.77304">
        <ele>307.3</ele>
        <time>2015-06-08T13:34:59Z</time>
      </trkpt>
      <trkpt lat="47.49839" lon="6.77304">
        <ele>307.3</ele>
        <time>2015-06-08T13:35:00Z</time>
      </trkpt>
      <trkpt lat="47.49844" lon="6.77303">
        <ele>306.9</ele>
        <time>2015-06-08T13:35:01Z</time>
      </trkpt>
      <trkpt lat="47.49848" lon="6.77302">
        <ele>306.9</ele>
        <time>2015-06-08T13:35:02Z</time>
      </trkpt>
      <trkpt lat="47.49852" lon="6.77302">
        <ele>306.8</ele>
        <time>2015-06-08T13:35:03Z</time>
      </trkpt>
      <trkpt lat="47.49856" lon="6.77302">
        <ele>306.6</ele>
        <time>2015-06-08T13:35:04Z</time>
      </trkpt>
      <trkpt lat="47.49859" lon="6.77301">
        <ele>306.1</ele>
        <time>2015-06-08T13:35:05Z</time>
      </trkpt>
      <trkpt lat="47.49863" lon="6.77301">
        <ele>305.7</ele>
        <time>2015-06-08T13:35:06Z</time>
      </trkpt>
      <trkpt lat="47.49867" lon="6.77301">
        <ele>305.5</ele>
        <time>2015-06-08T13:35:07Z</time>
      </trkpt>
      <trkpt lat="47.4987" lon="6.773">
        <ele>304.6</ele>
        <time>2015-06-08T13:35:08Z</time>
      </trkpt>
      <trkpt lat="47.49874" lon="6.773">
        <ele>304.6</ele>
        <time>2015-06-08T13:35:09Z</time>
      </trkpt>
      <trkpt lat="47.49877" lon="6.77299">
        <ele>304.3</ele>
        <time>2015-06-08T13:35:10Z</time>
      </trkpt>
      <trkpt lat="47.4988" lon="6.77298">
        <ele>303.7</ele>
        <time>2015-06-08T13:35:11Z</time>
      </trkpt>
      <trkpt lat="47.49884" lon="6.77297">
        <ele>303.7</ele>
        <time>2015-06-08T13:35:12Z</time>
      </trkpt>
      <trkpt lat="47.49888" lon="6.77294">
        <ele>303.4</ele>
        <time>2015-06-08T13:35:13Z</time>
      </trkpt>
      <trkpt lat="47.49892" lon="6.77292">
        <ele>303.4</ele>
        <time>2015-06-08T13:35:14Z</time>
      </trkpt>
      <trkpt lat="47.49896" lon="6.77288">
        <ele>303.3</ele>
        <time>2015-06-08T13:35:15Z</time>
      </trkpt>
      <trkpt lat="47.49899" lon="6.77285">
        <ele>303.3</ele>
        <time>2015-06-08T13:35:16Z</time>
      </trkpt>
      <trkpt lat="47.49904" lon="6.77283">
        <ele>303.4</ele>
        <time>2015-06-08T13:35:17Z</time>
      </trkpt>
      <trkpt lat="47.49908" lon="6.77281">
        <ele>303.3</ele>
        <time>2015-06-08T13:35:18Z</time>
      </trkpt>
      <trkpt lat="47.49912" lon="6.77278">
        <ele>303.2</ele>
        <time>2015-06-08T13:35:19Z</time>
      </trkpt>
      <trkpt lat="47.49916" lon="6.77276">
        <ele>303.1</ele>
        <time>2015-06-08T13:35:20Z</time>
      </trkpt>
      <trkpt lat="47.4992" lon="6.77274">
        <ele>302.9</ele>
        <time>2015-06-08T13:35:21Z</time>
      </trkpt>
      <trkpt lat="47.49924" lon="6.77272">
        <ele>302.8</ele>
        <time>2015-06-08T13:35:22Z</time>
      </trkpt>
      <trkpt lat="47.49928" lon="6.77269">
        <ele>302.8</ele>
        <time>2015-06-08T13:35:23Z</time>
      </trkpt>
      <trkpt lat="47.49931" lon="6.77267">
        <ele>302.8</ele>
        <time>2015-06-08T13:35:24Z</time>
      </trkpt>
      <trkpt lat="47.49935" lon="6.77265">
        <ele>302.7</ele>
        <time>2015-06-08T13:35:25Z</time>
      </trkpt>
      <trkpt lat="47.49939" lon="6.77263">
        <ele>302.5</ele>
        <time>2015-06-08T13:35:26Z</time>
      </trkpt>
      <trkpt lat="47.49943" lon="6.77261">
        <ele>302.4</ele>
        <time>2015-06-08T13:35:27Z</time>
      </trkpt>
      <trkpt lat="47.49947" lon="6.77259">
        <ele>302.2</ele>
        <time>2015-06-08T13:35:28Z</time>
      </trkpt>
      <trkpt lat="47.4995" lon="6.77257">
        <ele>302.1</ele>
        <time>2015-06-08T13:35:29Z</time>
      </trkpt>
      <trkpt lat="47.49954" lon="6.77255">
        <ele>302</ele>
        <time>2015-06-08T13:35:30Z</time>
      </trkpt>
      <trkpt lat="47.49957" lon="6.77253">
        <ele>301.9</ele>
        <time>2015-06-08T13:35:31Z</time>
      </trkpt>
      <trkpt lat="47.49961" lon="6.77251">
        <ele>301.8</ele>
        <time>2015-06-08T13:35:32Z</time>
      </trkpt>
      <trkpt lat="47.49964" lon="6.77249">
        <ele>301.6</ele>
        <time>2015-06-08T13:35:33Z</time>
      </trkpt>
      <trkpt lat="47.49968" lon="6.77248">
        <ele>301.5</ele>
        <time>2015-06-08T13:35:34Z</time>
      </trkpt>
      <trkpt lat="47.49972" lon="6.77246">
        <ele>301.3</ele>
        <time>2015-06-08T13:35:35Z</time>
      </trkpt>
      <trkpt lat="47.49975" lon="6.77244">
        <ele>301.2</ele>
        <time>2015-06-08T13:35:36Z</time>
      </trkpt>
      <trkpt lat="47.49979" lon="6.77242">
        <ele>301.1</ele>
        <time>2015-06-08T13:35:37Z</time>
      </trkpt>
      <trkpt lat="47.49983" lon="6.7724">
        <ele>301</ele>
        <time>2015-06-08T13:35:38Z</time>
      </trkpt>
      <trkpt lat="47.49987" lon="6.77239">
        <ele>300.9</ele>
        <time>2015-06-08T13:35:39Z</time>
      </trkpt>
      <trkpt lat="47.49991" lon="6.77237">
        <ele>300.8</ele>
        <time>2015-06-08T13:35:40Z</time>
      </trkpt>
      <trkpt lat="47.49995" lon="6.77235">
        <ele>300.9</ele>
        <time>2015-06-08T13:35:41Z</time>
      </trkpt>
      <trkpt lat="47.49999" lon="6.77234">
        <ele>301.2</ele>
        <time>2015-06-08T13:35:42Z</time>
      </trkpt>
      <trkpt lat="47.50003" lon="6.77234">
        <ele>302.2</ele>
        <time>2015-06-08T13:35:43Z</time>
      </trkpt>
      <trkpt lat="47.50007" lon="6.77237">
        <ele>303.5</ele>
        <time>2015-06-08T13:35:44Z</time>
      </trkpt>
      <trkpt lat="47.5001" lon="6.77241">
        <ele>304.4</ele>
        <time>2015-06-08T13:35:45Z</time>
      </trkpt>
      <trkpt lat="47.50013" lon="6.77247">
        <ele>305.3</ele>
        <time>2015-06-08T13:35:46Z</time>
      </trkpt>
      <trkpt lat="47.50015" lon="6.77253">
        <ele>306</ele>
        <time>2015-06-08T13:35:47Z</time>
      </trkpt>
      <trkpt lat="47.50016" lon="6.7726">
        <ele>306.3</ele>
        <time>2015-06-08T13:35:48Z</time>
      </trkpt>
      <trkpt lat="47.50017" lon="6.77265">
        <ele>306.6</ele>
        <time>2015-06-08T13:35:50Z</time>
      </trkpt>
      <trkpt lat="47.50019" lon="6.77271">
        <ele>307.2</ele>
        <time>2015-06-08T13:35:50Z</time>
      </trkpt>
      <trkpt lat="47.50021" lon="6.77277">
        <ele>307.4</ele>
        <time>2015-06-08T13:35:51Z</time>
      </trkpt>
      <trkpt lat="47.50022" lon="6.77283">
        <ele>307.9</ele>
        <time>2015-06-08T13:35:52Z</time>
      </trkpt>
      <trkpt lat="47.50024" lon="6.77288">
        <ele>308.4</ele>
        <time>2015-06-08T13:35:53Z</time>
      </trkpt>
      <trkpt lat="47.50025" lon="6.77294">
        <ele>308.7</ele>
        <time>2015-06-08T13:35:54Z</time>
      </trkpt>
      <trkpt lat="47.50027" lon="6.77299">
        <ele>309.2</ele>
        <time>2015-06-08T13:35:55Z</time>
      </trkpt>
      <trkpt lat="47.50029" lon="6.77305">
        <ele>309.5</ele>
        <time>2015-06-08T13:35:56Z</time>
      </trkpt>
      <trkpt lat="47.5003" lon="6.77311">
        <ele>310.1</ele>
        <time>2015-06-08T13:35:57Z</time>
      </trkpt>
      <trkpt lat="47.50032" lon="6.77316">
        <ele>310.2</ele>
        <time>2015-06-08T13:35:58Z</time>
      </trkpt>
      <trkpt lat="47.50033" lon="6.77322">
        <ele>310.5</ele>
        <time>2015-06-08T13:35:59Z</time>
      </trkpt>
      <trkpt lat="47.50034" lon="6.77328">
        <ele>310.8</ele>
        <time>2015-06-08T13:36:00Z</time>
      </trkpt>
      <trkpt lat="47.50036" lon="6.77334">
        <ele>310.9</ele>
        <time>2015-06-08T13:36:01Z</time>
      </trkpt>
      <trkpt lat="47.50037" lon="6.77339">
        <ele>311.1</ele>
        <time>2015-06-08T13:36:02Z</time>
      </trkpt>
      <trkpt lat="47.50039" lon="6.77345">
        <ele>311</ele>
        <time>2015-06-08T13:36:03Z</time>
      </trkpt>
      <trkpt lat="47.50042" lon="6.7735">
        <ele>310.9</ele>
        <time>2015-06-08T13:36:04Z</time>
      </trkpt>
      <trkpt lat="47.50045" lon="6.77355">
        <ele>310.8</ele>
        <time>2015-06-08T13:36:05Z</time>
      </trkpt>
      <trkpt lat="47.50048" lon="6.7736">
        <ele>310.9</ele>
        <time>2015-06-08T13:36:06Z</time>
      </trkpt>
      <trkpt lat="47.50052" lon="6.77364">
        <ele>311</ele>
        <time>2015-06-08T13:36:07Z</time>
      </trkpt>
      <trkpt lat="47.50055" lon="6.77369">
        <ele>310.8</ele>
        <time>2015-06-08T13:36:08Z</time>
      </trkpt>
      <trkpt lat="47.50058" lon="6.77374">
        <ele>310.8</ele>
        <time>2015-06-08T13:36:09Z</time>
      </trkpt>
      <trkpt lat="47.50061" lon="6.7738">
        <ele>310.8</ele>
        <time>2015-06-08T13:36:10Z</time>
      </trkpt>
      <trkpt lat="47.50064" lon="6.77385">
        <ele>310.6</ele>
        <time>2015-06-08T13:36:11Z</time>
      </trkpt>
      <trkpt lat="47.50068" lon="6.77387">
        <ele>310.3</ele>
        <time>2015-06-08T13:36:12Z</time>
      </trkpt>
      <trkpt lat="47.50073" lon="6.77387">
        <ele>310</ele>
        <time>2015-06-08T13:36:13Z</time>
      </trkpt>
      <trkpt lat="47.50077" lon="6.77386">
        <ele>309.8</ele>
        <time>2015-06-08T13:36:14Z</time>
      </trkpt>
      <trkpt lat="47.50082" lon="6.77384">
        <ele>309.5</ele>
        <time>2015-06-08T13:36:15Z</time>
      </trkpt>
      <trkpt lat="47.50086" lon="6.77383">
        <ele>309.5</ele>
        <time>2015-06-08T13:36:16Z</time>
      </trkpt>
      <trkpt lat="47.50089" lon="6.77382">
        <ele>309.7</ele>
        <time>2015-06-08T13:36:17Z</time>
      </trkpt>
      <trkpt lat="47.50093" lon="6.7738">
        <ele>309.7</ele>
        <time>2015-06-08T13:36:18Z</time>
      </trkpt>
      <trkpt lat="47.50096" lon="6.77379">
        <ele>309.5</ele>
        <time>2015-06-08T13:36:19Z</time>
      </trkpt>
      <trkpt lat="47.501" lon="6.77379">
        <ele>309.6</ele>
        <time>2015-06-08T13:36:20Z</time>
      </trkpt>
      <trkpt lat="47.50104" lon="6.77377">
        <ele>309.7</ele>
        <time>2015-06-08T13:36:21Z</time>
      </trkpt>
      <trkpt lat="47.50108" lon="6.77376">
        <ele>309.9</ele>
        <time>2015-06-08T13:36:22Z</time>
      </trkpt>
      <trkpt lat="47.50112" lon="6.77376">
        <ele>310.2</ele>
        <time>2015-06-08T13:36:23Z</time>
      </trkpt>
      <trkpt lat="47.50116" lon="6.77375">
        <ele>310.3</ele>
        <time>2015-06-08T13:36:24Z</time>
      </trkpt>
      <trkpt lat="47.5012" lon="6.77374">
        <ele>310.2</ele>
        <time>2015-06-08T13:36:25Z</time>
      </trkpt>
      <trkpt lat="47.50125" lon="6.77373">
        <ele>309.8</ele>
        <time>2015-06-08T13:36:26Z</time>
      </trkpt>
      <trkpt lat="47.5013" lon="6.77372">
        <ele>309.1</ele>
        <time>2015-06-08T13:36:27Z</time>
      </trkpt>
      <trkpt lat="47.50136" lon="6.77371">
        <ele>309</ele>
        <time>2015-06-08T13:36:28Z</time>
      </trkpt>
      <trkpt lat="47.50142" lon="6.77371">
        <ele>308.9</ele>
        <time>2015-06-08T13:36:29Z</time>
      </trkpt>
      <trkpt lat="47.50148" lon="6.77372">
        <ele>308.6</ele>
        <time>2015-06-08T13:36:30Z</time>
      </trkpt>
      <trkpt lat="47.50154" lon="6.77374">
        <ele>308.4</ele>
        <time>2015-06-08T13:36:31Z</time>
      </trkpt>
      <trkpt lat="47.50158" lon="6.77378">
        <ele>307.6</ele>
        <time>2015-06-08T13:36:32Z</time>
      </trkpt>
      <trkpt lat="47.50162" lon="6.77382">
        <ele>307.1</ele>
        <time>2015-06-08T13:36:33Z</time>
      </trkpt>
      <trkpt lat="47.50167" lon="6.77385">
        <ele>307.1</ele>
        <time>2015-06-08T13:36:34Z</time>
      </trkpt>
      <trkpt lat="47.50171" lon="6.77388">
        <ele>306.9</ele>
        <time>2015-06-08T13:36:35Z</time>
      </trkpt>
      <trkpt lat="47.50176" lon="6.7739">
        <ele>307</ele>
        <time>2015-06-08T13:36:36Z</time>
      </trkpt>
      <trkpt lat="47.50181" lon="6.77393">
        <ele>307</ele>
        <time>2015-06-08T13:36:37Z</time>
      </trkpt>
      <trkpt lat="47.50186" lon="6.77395">
        <ele>307</ele>
        <time>2015-06-08T13:36:38Z</time>
      </trkpt>
      <trkpt lat="47.50191" lon="6.77398">
        <ele>307.1</ele>
        <time>2015-06-08T13:36:39Z</time>
      </trkpt>
      <trkpt lat="47.50196" lon="6.77401">
        <ele>307.1</ele>
        <time>2015-06-08T13:36:40Z</time>
      </trkpt>
      <trkpt lat="47.50201" lon="6.77403">
        <ele>307</ele>
        <time>2015-06-08T13:36:41Z</time>
      </trkpt>
      <trkpt lat="47.50206" lon="6.77406">
        <ele>307</ele>
        <time>2015-06-08T13:36:42Z</time>
      </trkpt>
      <trkpt lat="47.5021" lon="6.77409">
        <ele>307</ele>
        <time>2015-06-08T13:36:43Z</time>
      </trkpt>
      <trkpt lat="47.50214" lon="6.77411">
        <ele>306.9</ele>
        <time>2015-06-08T13:36:44Z</time>
      </trkpt>
      <trkpt lat="47.50219" lon="6.77414">
        <ele>307</ele>
        <time>2015-06-08T13:36:45Z</time>
      </trkpt>
      <trkpt lat="47.50223" lon="6.77417">
        <ele>306.8</ele>
        <time>2015-06-08T13:36:46Z</time>
      </trkpt>
      <trkpt lat="47.50227" lon="6.7742">
        <ele>306.7</ele>
        <time>2015-06-08T13:36:47Z</time>
      </trkpt>
      <trkpt lat="47.50231" lon="6.77425">
        <ele>306.6</ele>
        <time>2015-06-08T13:36:48Z</time>
      </trkpt>
      <trkpt lat="47.50236" lon="6.7743">
        <ele>306.8</ele>
        <time>2015-06-08T13:36:49Z</time>
      </trkpt>
      <trkpt lat="47.50239" lon="6.77436">
        <ele>307.1</ele>
        <time>2015-06-08T13:36:50Z</time>
      </trkpt>
      <trkpt lat="47.50241" lon="6.77442">
        <ele>307.1</ele>
        <time>2015-06-08T13:36:51Z</time>
      </trkpt>
      <trkpt lat="47.50244" lon="6.77447">
        <ele>307.1</ele>
        <time>2015-06-08T13:36:52Z</time>
      </trkpt>
      <trkpt lat="47.50248" lon="6.77452">
        <ele>307.1</ele>
        <time>2015-06-08T13:36:53Z</time>
      </trkpt>
      <trkpt lat="47.50252" lon="6.77456">
        <ele>307.2</ele>
        <time>2015-06-08T13:36:54Z</time>
      </trkpt>
      <trkpt lat="47.50256" lon="6.77459">
        <ele>307.4</ele>
        <time>2015-06-08T13:36:55Z</time>
      </trkpt>
      <trkpt lat="47.5026" lon="6.77463">
        <ele>307.5</ele>
        <time>2015-06-08T13:36:56Z</time>
      </trkpt>
      <trkpt lat="47.50264" lon="6.77467">
        <ele>307.5</ele>
        <time>2015-06-08T13:36:57Z</time>
      </trkpt>
      <trkpt lat="47.50267" lon="6.7747">
        <ele>307.5</ele>
        <time>2015-06-08T13:36:58Z</time>
      </trkpt>
      <trkpt lat="47.50271" lon="6.77474">
        <ele>307.5</ele>
        <time>2015-06-08T13:36:59Z</time>
      </trkpt>
      <trkpt lat="47.50275" lon="6.77477">
        <ele>307.6</ele>
        <time>2015-06-08T13:37:00Z</time>
      </trkpt>
      <trkpt lat="47.5028" lon="6.7748">
        <ele>307.6</ele>
        <time>2015-06-08T13:37:01Z</time>
      </trkpt>
      <trkpt lat="47.50284" lon="6.77483">
        <ele>307.9</ele>
        <time>2015-06-08T13:37:02Z</time>
      </trkpt>
      <trkpt lat="47.50288" lon="6.77486">
        <ele>308.1</ele>
        <time>2015-06-08T13:37:03Z</time>
      </trkpt>
      <trkpt lat="47.50292" lon="6.7749">
        <ele>308.3</ele>
        <time>2015-06-08T13:37:04Z</time>
      </trkpt>
      <trkpt lat="47.50296" lon="6.77493">
        <ele>308.4</ele>
        <time>2015-06-08T13:37:05Z</time>
      </trkpt>
      <trkpt lat="47.50299" lon="6.77496">
        <ele>308.3</ele>
        <time>2015-06-08T13:37:06Z</time>
      </trkpt>
      <trkpt lat="47.50303" lon="6.77499">
        <ele>308.4</ele>
        <time>2015-06-08T13:37:07Z</time>
      </trkpt>
      <trkpt lat="47.50306" lon="6.77502">
        <ele>308.5</ele>
        <time>2015-06-08T13:37:08Z</time>
      </trkpt>
      <trkpt lat="47.5031" lon="6.77505">
        <ele>308.6</ele>
        <time>2015-06-08T13:37:09Z</time>
      </trkpt>
      <trkpt lat="47.50313" lon="6.77508">
        <ele>308.2</ele>
        <time>2015-06-08T13:37:10Z</time>
      </trkpt>
      <trkpt lat="47.50316" lon="6.77511">
        <ele>308</ele>
        <time>2015-06-08T13:37:11Z</time>
      </trkpt>
      <trkpt lat="47.5032" lon="6.77514">
        <ele>307.9</ele>
        <time>2015-06-08T13:37:12Z</time>
      </trkpt>
      <trkpt lat="47.50323" lon="6.77518">
        <ele>308</ele>
        <time>2015-06-08T13:37:13Z</time>
      </trkpt>
      <trkpt lat="47.50327" lon="6.77521">
        <ele>308.2</ele>
        <time>2015-06-08T13:37:14Z</time>
      </trkpt>
      <trkpt lat="47.5033" lon="6.77525">
        <ele>308.3</ele>
        <time>2015-06-08T13:37:15Z</time>
      </trkpt>
      <trkpt lat="47.50334" lon="6.77528">
        <ele>308.5</ele>
        <time>2015-06-08T13:37:16Z</time>
      </trkpt>
      <trkpt lat="47.50337" lon="6.77531">
        <ele>308.5</ele>
        <time>2015-06-08T13:37:17Z</time>
      </trkpt>
      <trkpt lat="47.50341" lon="6.77534">
        <ele>308.6</ele>
        <time>2015-06-08T13:37:18Z</time>
      </trkpt>
      <trkpt lat="47.50345" lon="6.77538">
        <ele>308.7</ele>
        <time>2015-06-08T13:37:19Z</time>
      </trkpt>
      <trkpt lat="47.50348" lon="6.77541">
        <ele>308.8</ele>
        <time>2015-06-08T13:37:20Z</time>
      </trkpt>
      <trkpt lat="47.50352" lon="6.77545">
        <ele>308.8</ele>
        <time>2015-06-08T13:37:21Z</time>
      </trkpt>
      <trkpt lat="47.50355" lon="6.77548">
        <ele>308.8</ele>
        <time>2015-06-08T13:37:22Z</time>
      </trkpt>
      <trkpt lat="47.50359" lon="6.77551">
        <ele>308.8</ele>
        <time>2015-06-08T13:37:23Z</time>
      </trkpt>
      <trkpt lat="47.50363" lon="6.77554">
        <ele>308.8</ele>
        <time>2015-06-08T13:37:24Z</time>
      </trkpt>
      <trkpt lat="47.50367" lon="6.77556">
        <ele>308.6</ele>
        <time>2015-06-08T13:37:25Z</time>
      </trkpt>
      <trkpt lat="47.50371" lon="6.77556">
        <ele>308.5</ele>
        <time>2015-06-08T13:37:26Z</time>
      </trkpt>
      <trkpt lat="47.50375" lon="6.77557">
        <ele>308.4</ele>
        <time>2015-06-08T13:37:27Z</time>
      </trkpt>
      <trkpt lat="47.50379" lon="6.77558">
        <ele>308.5</ele>
        <time>2015-06-08T13:37:28Z</time>
      </trkpt>
      <trkpt lat="47.50383" lon="6.77562">
        <ele>308.4</ele>
        <time>2015-06-08T13:37:29Z</time>
      </trkpt>
      <trkpt lat="47.50387" lon="6.77566">
        <ele>308.3</ele>
        <time>2015-06-08T13:37:30Z</time>
      </trkpt>
      <trkpt lat="47.50391" lon="6.7757">
        <ele>307.9</ele>
        <time>2015-06-08T13:37:31Z</time>
      </trkpt>
      <trkpt lat="47.50395" lon="6.77574">
        <ele>307.8</ele>
        <time>2015-06-08T13:37:32Z</time>
      </trkpt>
      <trkpt lat="47.50398" lon="6.77578">
        <ele>307.9</ele>
        <time>2015-06-08T13:37:33Z</time>
      </trkpt>
      <trkpt lat="47.50401" lon="6.77583">
        <ele>308</ele>
        <time>2015-06-08T13:37:34Z</time>
      </trkpt>
      <trkpt lat="47.50405" lon="6.77587">
        <ele>308.1</ele>
        <time>2015-06-08T13:37:35Z</time>
      </trkpt>
      <trkpt lat="47.50408" lon="6.77591">
        <ele>308</ele>
        <time>2015-06-08T13:37:36Z</time>
      </trkpt>
      <trkpt lat="47.50411" lon="6.77595">
        <ele>308.5</ele>
        <time>2015-06-08T13:37:37Z</time>
      </trkpt>
      <trkpt lat="47.50415" lon="6.77599">
        <ele>308.9</ele>
        <time>2015-06-08T13:37:38Z</time>
      </trkpt>
      <trkpt lat="47.50418" lon="6.77604">
        <ele>309.1</ele>
        <time>2015-06-08T13:37:39Z</time>
      </trkpt>
      <trkpt lat="47.50421" lon="6.77608">
        <ele>309.3</ele>
        <time>2015-06-08T13:37:40Z</time>
      </trkpt>
      <trkpt lat="47.50425" lon="6.77612">
        <ele>309.4</ele>
        <time>2015-06-08T13:37:41Z</time>
      </trkpt>
      <trkpt lat="47.50428" lon="6.77617">
        <ele>309.5</ele>
        <time>2015-06-08T13:37:42Z</time>
      </trkpt>
      <trkpt lat="47.50431" lon="6.77621">
        <ele>309.4</ele>
        <time>2015-06-08T13:37:43Z</time>
      </trkpt>
      <trkpt lat="47.50434" lon="6.77626">
        <ele>309.3</ele>
        <time>2015-06-08T13:37:44Z</time>
      </trkpt>
      <trkpt lat="47.50438" lon="6.77631">
        <ele>309.3</ele>
        <time>2015-06-08T13:37:45Z</time>
      </trkpt>
      <trkpt lat="47.50441" lon="6.77636">
        <ele>309.4</ele>
        <time>2015-06-08T13:37:46Z</time>
      </trkpt>
      <trkpt lat="47.50444" lon="6.77641">
        <ele>309.3</ele>
        <time>2015-06-08T13:37:47Z</time>
      </trkpt>
      <trkpt lat="47.50447" lon="6.77646">
        <ele>309.5</ele>
        <time>2015-06-08T13:37:48Z</time>
      </trkpt>
      <trkpt lat="47.50449" lon="6.77651">
        <ele>309.3</ele>
        <time>2015-06-08T13:37:49Z</time>
      </trkpt>
      <trkpt lat="47.50453" lon="6.77657">
        <ele>309.3</ele>
        <time>2015-06-08T13:37:50Z</time>
      </trkpt>
      <trkpt lat="47.50456" lon="6.77663">
        <ele>309.2</ele>
        <time>2015-06-08T13:37:51Z</time>
      </trkpt>
      <trkpt lat="47.5046" lon="6.77668">
        <ele>309.2</ele>
        <time>2015-06-08T13:37:52Z</time>
      </trkpt>
      <trkpt lat="47.50463" lon="6.77673">
        <ele>309.2</ele>
        <time>2015-06-08T13:37:53Z</time>
      </trkpt>
      <trkpt lat="47.50466" lon="6.77679">
        <ele>309.2</ele>
        <time>2015-06-08T13:37:54Z</time>
      </trkpt>
      <trkpt lat="47.50468" lon="6.77685">
        <ele>309.2</ele>
        <time>2015-06-08T13:37:55Z</time>
      </trkpt>
      <trkpt lat="47.5047" lon="6.77691">
        <ele>308.9</ele>
        <time>2015-06-08T13:37:56Z</time>
      </trkpt>
      <trkpt lat="47.50473" lon="6.77697">
        <ele>309</ele>
        <time>2015-06-08T13:37:57Z</time>
      </trkpt>
      <trkpt lat="47.50475" lon="6.77702">
        <ele>308.9</ele>
        <time>2015-06-08T13:37:58Z</time>
      </trkpt>
      <trkpt lat="47.50478" lon="6.77708">
        <ele>308.9</ele>
        <time>2015-06-08T13:37:59Z</time>
      </trkpt>
      <trkpt lat="47.50481" lon="6.77713">
        <ele>308.8</ele>
        <time>2015-06-08T13:38:00Z</time>
      </trkpt>
      <trkpt lat="47.50484" lon="6.77718">
        <ele>308.7</ele>
        <time>2015-06-08T13:38:01Z</time>
      </trkpt>
      <trkpt lat="47.50486" lon="6.77723">
        <ele>308.7</ele>
        <time>2015-06-08T13:38:02Z</time>
      </trkpt>
      <trkpt lat="47.50489" lon="6.77728">
        <ele>308.7</ele>
        <time>2015-06-08T13:38:03Z</time>
      </trkpt>
      <trkpt lat="47.50491" lon="6.77734">
        <ele>308.7</ele>
        <time>2015-06-08T13:38:04Z</time>
      </trkpt>
      <trkpt lat="47.50493" lon="6.7774">
        <ele>308.6</ele>
        <time>2015-06-08T13:38:05Z</time>
      </trkpt>
      <trkpt lat="47.50495" lon="6.77746">
        <ele>308.6</ele>
        <time>2015-06-08T13:38:06Z</time>
      </trkpt>
      <trkpt lat="47.50497" lon="6.77753">
        <ele>308.6</ele>
        <time>2015-06-08T13:38:07Z</time>
      </trkpt>
      <trkpt lat="47.505" lon="6.77759">
        <ele>308.6</ele>
        <time>2015-06-08T13:38:08Z</time>
      </trkpt>
      <trkpt lat="47.50501" lon="6.77765">
        <ele>309.1</ele>
        <time>2015-06-08T13:38:09Z</time>
      </trkpt>
      <trkpt lat="47.50504" lon="6.77771">
        <ele>309</ele>
        <time>2015-06-08T13:38:10Z</time>
      </trkpt>
      <trkpt lat="47.50506" lon="6.77777">
        <ele>309</ele>
        <time>2015-06-08T13:38:11Z</time>
      </trkpt>
      <trkpt lat="47.50508" lon="6.77784">
        <ele>308.9</ele>
        <time>2015-06-08T13:38:12Z</time>
      </trkpt>
      <trkpt lat="47.5051" lon="6.7779">
        <ele>308.9</ele>
        <time>2015-06-08T13:38:13Z</time>
      </trkpt>
      <trkpt lat="47.50512" lon="6.77796">
        <ele>308.8</ele>
        <time>2015-06-08T13:38:14Z</time>
      </trkpt>
      <trkpt lat="47.50514" lon="6.77802">
        <ele>308.9</ele>
        <time>2015-06-08T13:38:15Z</time>
      </trkpt>
      <trkpt lat="47.50515" lon="6.77809">
        <ele>309</ele>
        <time>2015-06-08T13:38:16Z</time>
      </trkpt>
      <trkpt lat="47.50517" lon="6.77815">
        <ele>309.2</ele>
        <time>2015-06-08T13:38:17Z</time>
      </trkpt>
      <trkpt lat="47.50519" lon="6.77822">
        <ele>309.3</ele>
        <time>2015-06-08T13:38:18Z</time>
      </trkpt>
      <trkpt lat="47.5052" lon="6.77827">
        <ele>310.3</ele>
        <time>2015-06-08T13:38:19Z</time>
      </trkpt>
      <trkpt lat="47.50521" lon="6.77834">
        <ele>311.1</ele>
        <time>2015-06-08T13:38:20Z</time>
      </trkpt>
      <trkpt lat="47.50521" lon="6.77841">
        <ele>311.7</ele>
        <time>2015-06-08T13:38:21Z</time>
      </trkpt>
      <trkpt lat="47.50522" lon="6.77846">
        <ele>312</ele>
        <time>2015-06-08T13:38:22Z</time>
      </trkpt>
      <trkpt lat="47.50523" lon="6.77853">
        <ele>312.6</ele>
        <time>2015-06-08T13:38:23Z</time>
      </trkpt>
      <trkpt lat="47.50524" lon="6.77859">
        <ele>312.9</ele>
        <time>2015-06-08T13:38:24Z</time>
      </trkpt>
      <trkpt lat="47.50525" lon="6.77865">
        <ele>313</ele>
        <time>2015-06-08T13:38:25Z</time>
      </trkpt>
      <trkpt lat="47.50527" lon="6.77872">
        <ele>313.1</ele>
        <time>2015-06-08T13:38:26Z</time>
      </trkpt>
      <trkpt lat="47.50529" lon="6.77879">
        <ele>313.2</ele>
        <time>2015-06-08T13:38:27Z</time>
      </trkpt>
      <trkpt lat="47.5053" lon="6.77885">
        <ele>313.2</ele>
        <time>2015-06-08T13:38:28Z</time>
      </trkpt>
      <trkpt lat="47.50532" lon="6.77892">
        <ele>313.1</ele>
        <time>2015-06-08T13:38:29Z</time>
      </trkpt>
      <trkpt lat="47.50533" lon="6.77898">
        <ele>313</ele>
        <time>2015-06-08T13:38:30Z</time>
      </trkpt>
      <trkpt lat="47.50534" lon="6.77904">
        <ele>313</ele>
        <time>2015-06-08T13:38:31Z</time>
      </trkpt>
      <trkpt lat="47.50535" lon="6.77911">
        <ele>312.8</ele>
        <time>2015-06-08T13:38:32Z</time>
      </trkpt>
      <trkpt lat="47.50536" lon="6.77918">
        <ele>312.7</ele>
        <time>2015-06-08T13:38:33Z</time>
      </trkpt>
      <trkpt lat="47.50537" lon="6.77924">
        <ele>312.6</ele>
        <time>2015-06-08T13:38:34Z</time>
      </trkpt>
      <trkpt lat="47.50538" lon="6.77931">
        <ele>312.7</ele>
        <time>2015-06-08T13:38:35Z</time>
      </trkpt>
      <trkpt lat="47.50539" lon="6.77937">
        <ele>312.9</ele>
        <time>2015-06-08T13:38:36Z</time>
      </trkpt>
      <trkpt lat="47.5054" lon="6.77944">
        <ele>313.2</ele>
        <time>2015-06-08T13:38:37Z</time>
      </trkpt>
      <trkpt lat="47.50542" lon="6.7795">
        <ele>313.2</ele>
        <time>2015-06-08T13:38:39Z</time>
      </trkpt>
      <trkpt lat="47.50544" lon="6.77956">
        <ele>313.3</ele>
        <time>2015-06-08T13:38:39Z</time>
      </trkpt>
      <trkpt lat="47.50545" lon="6.77962">
        <ele>313.7</ele>
        <time>2015-06-08T13:38:40Z</time>
      </trkpt>
      <trkpt lat="47.50546" lon="6.77969">
        <ele>313.9</ele>
        <time>2015-06-08T13:38:41Z</time>
      </trkpt>
      <trkpt lat="47.50547" lon="6.77975">
        <ele>314.3</ele>
        <time>2015-06-08T13:38:42Z</time>
      </trkpt>
      <trkpt lat="47.50548" lon="6.77982">
        <ele>314.5</ele>
        <time>2015-06-08T13:38:43Z</time>
      </trkpt>
      <trkpt lat="47.50549" lon="6.77989">
        <ele>314.7</ele>
        <time>2015-06-08T13:38:44Z</time>
      </trkpt>
      <trkpt lat="47.5055" lon="6.77996">
        <ele>315.1</ele>
        <time>2015-06-08T13:38:45Z</time>
      </trkpt>
      <trkpt lat="47.50551" lon="6.78003">
        <ele>315.2</ele>
        <time>2015-06-08T13:38:46Z</time>
      </trkpt>
      <trkpt lat="47.50551" lon="6.7801">
        <ele>315.3</ele>
        <time>2015-06-08T13:38:47Z</time>
      </trkpt>
      <trkpt lat="47.50552" lon="6.78017">
        <ele>315.5</ele>
        <time>2015-06-08T13:38:48Z</time>
      </trkpt>
      <trkpt lat="47.50552" lon="6.78024">
        <ele>315.7</ele>
        <time>2015-06-08T13:38:49Z</time>
      </trkpt>
      <trkpt lat="47.50552" lon="6.78031">
        <ele>315.7</ele>
        <time>2015-06-08T13:38:50Z</time>
      </trkpt>
      <trkpt lat="47.50551" lon="6.78038">
        <ele>315.8</ele>
        <time>2015-06-08T13:38:51Z</time>
      </trkpt>
      <trkpt lat="47.5055" lon="6.78047">
        <ele>315.7</ele>
        <time>2015-06-08T13:38:52Z</time>
      </trkpt>
      <trkpt lat="47.50547" lon="6.78054">
        <ele>315.8</ele>
        <time>2015-06-08T13:38:53Z</time>
      </trkpt>
      <trkpt lat="47.50547" lon="6.78061">
        <ele>315.8</ele>
        <time>2015-06-08T13:38:54Z</time>
      </trkpt>
      <trkpt lat="47.50546" lon="6.78069">
        <ele>315.9</ele>
        <time>2015-06-08T13:38:55Z</time>
      </trkpt>
      <trkpt lat="47.50546" lon="6.78076">
        <ele>315.9</ele>
        <time>2015-06-08T13:38:56Z</time>
      </trkpt>
      <trkpt lat="47.50546" lon="6.78082">
        <ele>315.9</ele>
        <time>2015-06-08T13:38:57Z</time>
      </trkpt>
      <trkpt lat="47.50545" lon="6.78089">
        <ele>316</ele>
        <time>2015-06-08T13:38:58Z</time>
      </trkpt>
      <trkpt lat="47.50545" lon="6.78095">
        <ele>316.1</ele>
        <time>2015-06-08T13:38:59Z</time>
      </trkpt>
      <trkpt lat="47.50545" lon="6.78102">
        <ele>316.1</ele>
        <time>2015-06-08T13:39:00Z</time>
      </trkpt>
      <trkpt lat="47.50544" lon="6.78108">
        <ele>316.2</ele>
        <time>2015-06-08T13:39:01Z</time>
      </trkpt>
      <trkpt lat="47.50543" lon="6.78115">
        <ele>316.2</ele>
        <time>2015-06-08T13:39:02Z</time>
      </trkpt>
      <trkpt lat="47.50541" lon="6.78122">
        <ele>316.1</ele>
        <time>2015-06-08T13:39:03Z</time>
      </trkpt>
      <trkpt lat="47.5054" lon="6.78129">
        <ele>316.2</ele>
        <time>2015-06-08T13:39:04Z</time>
      </trkpt>
      <trkpt lat="47.50538" lon="6.78136">
        <ele>316.4</ele>
        <time>2015-06-08T13:39:05Z</time>
      </trkpt>
      <trkpt lat="47.50536" lon="6.78143">
        <ele>316.7</ele>
        <time>2015-06-08T13:39:06Z</time>
      </trkpt>
      <trkpt lat="47.50535" lon="6.7815">
        <ele>317</ele>
        <time>2015-06-08T13:39:07Z</time>
      </trkpt>
      <trkpt lat="47.50533" lon="6.78157">
        <ele>317.2</ele>
        <time>2015-06-08T13:39:09Z</time>
      </trkpt>
      <trkpt lat="47.50532" lon="6.78164">
        <ele>317.4</ele>
        <time>2015-06-08T13:39:09Z</time>
      </trkpt>
      <trkpt lat="47.5053" lon="6.78171">
        <ele>317.5</ele>
        <time>2015-06-08T13:39:10Z</time>
      </trkpt>
      <trkpt lat="47.50529" lon="6.78178">
        <ele>317.7</ele>
        <time>2015-06-08T13:39:11Z</time>
      </trkpt>
      <trkpt lat="47.50528" lon="6.78185">
        <ele>317.7</ele>
        <time>2015-06-08T13:39:12Z</time>
      </trkpt>
      <trkpt lat="47.50526" lon="6.78192">
        <ele>317.8</ele>
        <time>2015-06-08T13:39:13Z</time>
      </trkpt>
      <trkpt lat="47.50525" lon="6.78199">
        <ele>317.9</ele>
        <time>2015-06-08T13:39:14Z</time>
      </trkpt>
      <trkpt lat="47.50523" lon="6.78206">
        <ele>318</ele>
        <time>2015-06-08T13:39:15Z</time>
      </trkpt>
      <trkpt lat="47.50522" lon="6.78212">
        <ele>317.9</ele>
        <time>2015-06-08T13:39:16Z</time>
      </trkpt>
      <trkpt lat="47.50521" lon="6.78219">
        <ele>317.8</ele>
        <time>2015-06-08T13:39:17Z</time>
      </trkpt>
      <trkpt lat="47.50519" lon="6.78226">
        <ele>317.9</ele>
        <time>2015-06-08T13:39:18Z</time>
      </trkpt>
      <trkpt lat="47.50518" lon="6.78232">
        <ele>318</ele>
        <time>2015-06-08T13:39:19Z</time>
      </trkpt>
      <trkpt lat="47.50516" lon="6.78239">
        <ele>318</ele>
        <time>2015-06-08T13:39:20Z</time>
      </trkpt>
      <trkpt lat="47.50515" lon="6.78246">
        <ele>317.9</ele>
        <time>2015-06-08T13:39:21Z</time>
      </trkpt>
      <trkpt lat="47.50513" lon="6.78253">
        <ele>317.7</ele>
        <time>2015-06-08T13:39:22Z</time>
      </trkpt>
      <trkpt lat="47.50512" lon="6.7826">
        <ele>317.5</ele>
        <time>2015-06-08T13:39:23Z</time>
      </trkpt>
      <trkpt lat="47.50511" lon="6.78267">
        <ele>317.3</ele>
        <time>2015-06-08T13:39:24Z</time>
      </trkpt>
      <trkpt lat="47.5051" lon="6.78274">
        <ele>317.2</ele>
        <time>2015-06-08T13:39:25Z</time>
      </trkpt>
      <trkpt lat="47.50509" lon="6.78281">
        <ele>317</ele>
        <time>2015-06-08T13:39:27Z</time>
      </trkpt>
      <trkpt lat="47.50509" lon="6.78287">
        <ele>316.9</ele>
        <time>2015-06-08T13:39:27Z</time>
      </trkpt>
      <trkpt lat="47.50507" lon="6.78293">
        <ele>317.1</ele>
        <time>2015-06-08T13:39:28Z</time>
      </trkpt>
      <trkpt lat="47.50506" lon="6.783">
        <ele>317.2</ele>
        <time>2015-06-08T13:39:29Z</time>
      </trkpt>
      <trkpt lat="47.50505" lon="6.78307">
        <ele>317.2</ele>
        <time>2015-06-08T13:39:30Z</time>
      </trkpt>
      <trkpt lat="47.50504" lon="6.78313">
        <ele>317.2</ele>
        <time>2015-06-08T13:39:31Z</time>
      </trkpt>
      <trkpt lat="47.50503" lon="6.78319">
        <ele>317.4</ele>
        <time>2015-06-08T13:39:32Z</time>
      </trkpt>
      <trkpt lat="47.50502" lon="6.78325">
        <ele>317.2</ele>
        <time>2015-06-08T13:39:33Z</time>
      </trkpt>
      <trkpt lat="47.50501" lon="6.78331">
        <ele>316.7</ele>
        <time>2015-06-08T13:39:34Z</time>
      </trkpt>
      <trkpt lat="47.505" lon="6.78338">
        <ele>316.3</ele>
        <time>2015-06-08T13:39:35Z</time>
      </trkpt>
      <trkpt lat="47.50499" lon="6.78344">
        <ele>316.1</ele>
        <time>2015-06-08T13:39:36Z</time>
      </trkpt>
      <trkpt lat="47.50498" lon="6.78351">
        <ele>316</ele>
        <time>2015-06-08T13:39:37Z</time>
      </trkpt>
      <trkpt lat="47.50497" lon="6.78357">
        <ele>315.9</ele>
        <time>2015-06-08T13:39:39Z</time>
      </trkpt>
      <trkpt lat="47.50495" lon="6.78364">
        <ele>315.8</ele>
        <time>2015-06-08T13:39:39Z</time>
      </trkpt>
      <trkpt lat="47.50494" lon="6.7837">
        <ele>315.6</ele>
        <time>2015-06-08T13:39:40Z</time>
      </trkpt>
      <trkpt lat="47.50493" lon="6.78376">
        <ele>315.4</ele>
        <time>2015-06-08T13:39:41Z</time>
      </trkpt>
      <trkpt lat="47.50492" lon="6.78383">
        <ele>315.2</ele>
        <time>2015-06-08T13:39:42Z</time>
      </trkpt>
      <trkpt lat="47.5049" lon="6.78389">
        <ele>315</ele>
        <time>2015-06-08T13:39:43Z</time>
      </trkpt>
      <trkpt lat="47.50489" lon="6.78396">
        <ele>314.9</ele>
        <time>2015-06-08T13:39:44Z</time>
      </trkpt>
      <trkpt lat="47.50487" lon="6.78403">
        <ele>315.4</ele>
        <time>2015-06-08T13:39:45Z</time>
      </trkpt>
      <trkpt lat="47.50485" lon="6.7841">
        <ele>315.3</ele>
        <time>2015-06-08T13:39:46Z</time>
      </trkpt>
      <trkpt lat="47.50483" lon="6.78417">
        <ele>315.2</ele>
        <time>2015-06-08T13:39:47Z</time>
      </trkpt>
      <trkpt lat="47.50482" lon="6.78424">
        <ele>314.9</ele>
        <time>2015-06-08T13:39:48Z</time>
      </trkpt>
      <trkpt lat="47.50481" lon="6.7843">
        <ele>314.6</ele>
        <time>2015-06-08T13:39:49Z</time>
      </trkpt>
      <trkpt lat="47.5048" lon="6.78437">
        <ele>314.7</ele>
        <time>2015-06-08T13:39:51Z</time>
      </trkpt>
      <trkpt lat="47.50478" lon="6.78443">
        <ele>314.6</ele>
        <time>2015-06-08T13:39:51Z</time>
      </trkpt>
      <trkpt lat="47.50476" lon="6.7845">
        <ele>314.6</ele>
        <time>2015-06-08T13:39:52Z</time>
      </trkpt>
      <trkpt lat="47.50474" lon="6.78458">
        <ele>314.8</ele>
        <time>2015-06-08T13:39:53Z</time>
      </trkpt>
      <trkpt lat="47.50471" lon="6.78464">
        <ele>314.9</ele>
        <time>2015-06-08T13:39:54Z</time>
      </trkpt>
      <trkpt lat="47.50469" lon="6.78472">
        <ele>314.8</ele>
        <time>2015-06-08T13:39:55Z</time>
      </trkpt>
      <trkpt lat="47.50467" lon="6.78479">
        <ele>314.7</ele>
        <time>2015-06-08T13:39:57Z</time>
      </trkpt>
      <trkpt lat="47.50466" lon="6.78487">
        <ele>314.5</ele>
        <time>2015-06-08T13:39:57Z</time>
      </trkpt>
      <trkpt lat="47.50464" lon="6.78494">
        <ele>314.3</ele>
        <time>2015-06-08T13:39:58Z</time>
      </trkpt>
      <trkpt lat="47.50463" lon="6.78501">
        <ele>314.1</ele>
        <time>2015-06-08T13:39:59Z</time>
      </trkpt>
      <trkpt lat="47.50462" lon="6.78509">
        <ele>314.1</ele>
        <time>2015-06-08T13:40:00Z</time>
      </trkpt>
      <trkpt lat="47.5046" lon="6.78516">
        <ele>314.1</ele>
        <time>2015-06-08T13:40:01Z</time>
      </trkpt>
      <trkpt lat="47.50459" lon="6.78522">
        <ele>314.1</ele>
        <time>2015-06-08T13:40:03Z</time>
      </trkpt>
      <trkpt lat="47.50458" lon="6.78529">
        <ele>314</ele>
        <time>2015-06-08T13:40:03Z</time>
      </trkpt>
      <trkpt lat="47.50457" lon="6.78536">
        <ele>314</ele>
        <time>2015-06-08T13:40:04Z</time>
      </trkpt>
      <trkpt lat="47.50455" lon="6.78543">
        <ele>314</ele>
        <time>2015-06-08T13:40:05Z</time>
      </trkpt>
      <trkpt lat="47.50454" lon="6.7855">
        <ele>313.8</ele>
        <time>2015-06-08T13:40:06Z</time>
      </trkpt>
      <trkpt lat="47.50453" lon="6.78557">
        <ele>313.8</ele>
        <time>2015-06-08T13:40:07Z</time>
      </trkpt>
      <trkpt lat="47.50452" lon="6.78564">
        <ele>313.8</ele>
        <time>2015-06-08T13:40:08Z</time>
      </trkpt>
      <trkpt lat="47.5045" lon="6.78571">
        <ele>313.5</ele>
        <time>2015-06-08T13:40:09Z</time>
      </trkpt>
      <trkpt lat="47.50449" lon="6.78577">
        <ele>313.6</ele>
        <time>2015-06-08T13:40:10Z</time>
      </trkpt>
      <trkpt lat="47.50447" lon="6.78584">
        <ele>313.7</ele>
        <time>2015-06-08T13:40:11Z</time>
      </trkpt>
      <trkpt lat="47.50446" lon="6.78591">
        <ele>313.5</ele>
        <time>2015-06-08T13:40:12Z</time>
      </trkpt>
      <trkpt lat="47.50444" lon="6.78597">
        <ele>313.5</ele>
        <time>2015-06-08T13:40:13Z</time>
      </trkpt>
      <trkpt lat="47.50443" lon="6.78604">
        <ele>313.6</ele>
        <time>2015-06-08T13:40:14Z</time>
      </trkpt>
      <trkpt lat="47.50441" lon="6.78611">
        <ele>313.5</ele>
        <time>2015-06-08T13:40:15Z</time>
      </trkpt>
      <trkpt lat="47.5044" lon="6.78618">
        <ele>313.4</ele>
        <time>2015-06-08T13:40:16Z</time>
      </trkpt>
      <trkpt lat="47.50438" lon="6.78624">
        <ele>313.4</ele>
        <time>2015-06-08T13:40:17Z</time>
      </trkpt>
      <trkpt lat="47.50437" lon="6.7863">
        <ele>313.2</ele>
        <time>2015-06-08T13:40:18Z</time>
      </trkpt>
      <trkpt lat="47.50436" lon="6.78636">
        <ele>313.3</ele>
        <time>2015-06-08T13:40:19Z</time>
      </trkpt>
      <trkpt lat="47.50435" lon="6.78642">
        <ele>313.3</ele>
        <time>2015-06-08T13:40:20Z</time>
      </trkpt>
      <trkpt lat="47.50434" lon="6.78646">
        <ele>313.3</ele>
        <time>2015-06-08T13:40:21Z</time>
      </trkpt>
      <trkpt lat="47.50434" lon="6.78651">
        <ele>313.3</ele>
        <time>2015-06-08T13:40:22Z</time>
      </trkpt>
      <trkpt lat="47.50433" lon="6.78656">
        <ele>313.5</ele>
        <time>2015-06-08T13:40:23Z</time>
      </trkpt>
      <trkpt lat="47.50432" lon="6.78661">
        <ele>313.7</ele>
        <time>2015-06-08T13:40:24Z</time>
      </trkpt>
      <trkpt lat="47.50431" lon="6.78669">
        <ele>313.8</ele>
        <time>2015-06-08T13:40:25Z</time>
      </trkpt>
      <trkpt lat="47.5043" lon="6.78676">
        <ele>313.7</ele>
        <time>2015-06-08T13:40:26Z</time>
      </trkpt>
      <trkpt lat="47.50429" lon="6.78683">
        <ele>313.3</ele>
        <time>2015-06-08T13:40:27Z</time>
      </trkpt>
      <trkpt lat="47.50428" lon="6.7869">
        <ele>313.3</ele>
        <time>2015-06-08T13:40:28Z</time>
      </trkpt>
      <trkpt lat="47.50426" lon="6.78697">
        <ele>313.6</ele>
        <time>2015-06-08T13:40:29Z</time>
      </trkpt>
      <trkpt lat="47.50424" lon="6.78703">
        <ele>313.8</ele>
        <time>2015-06-08T13:40:30Z</time>
      </trkpt>
      <trkpt lat="47.50423" lon="6.7871">
        <ele>313.8</ele>
        <time>2015-06-08T13:40:31Z</time>
      </trkpt>
      <trkpt lat="47.50421" lon="6.78718">
        <ele>313.7</ele>
        <time>2015-06-08T13:40:32Z</time>
      </trkpt>
      <trkpt lat="47.5042" lon="6.78725">
        <ele>313.9</ele>
        <time>2015-06-08T13:40:33Z</time>
      </trkpt>
      <trkpt lat="47.50418" lon="6.78732">
        <ele>313.8</ele>
        <time>2015-06-08T13:40:34Z</time>
      </trkpt>
      <trkpt lat="47.50417" lon="6.78739">
        <ele>313.5</ele>
        <time>2015-06-08T13:40:35Z</time>
      </trkpt>
      <trkpt lat="47.50415" lon="6.78746">
        <ele>313.4</ele>
        <time>2015-06-08T13:40:36Z</time>
      </trkpt>
      <trkpt lat="47.50414" lon="6.78753">
        <ele>313.2</ele>
        <time>2015-06-08T13:40:37Z</time>
      </trkpt>
      <trkpt lat="47.50413" lon="6.78759">
        <ele>313.3</ele>
        <time>2015-06-08T13:40:38Z</time>
      </trkpt>
      <trkpt lat="47.50412" lon="6.78766">
        <ele>313.3</ele>
        <time>2015-06-08T13:40:39Z</time>
      </trkpt>
      <trkpt lat="47.50411" lon="6.78773">
        <ele>312.9</ele>
        <time>2015-06-08T13:40:40Z</time>
      </trkpt>
      <trkpt lat="47.50411" lon="6.78781">
        <ele>312.9</ele>
        <time>2015-06-08T13:40:41Z</time>
      </trkpt>
      <trkpt lat="47.5041" lon="6.78788">
        <ele>312.9</ele>
        <time>2015-06-08T13:40:42Z</time>
      </trkpt>
      <trkpt lat="47.50409" lon="6.78795">
        <ele>313.2</ele>
        <time>2015-06-08T13:40:43Z</time>
      </trkpt>
      <trkpt lat="47.50408" lon="6.78802">
        <ele>313.4</ele>
        <time>2015-06-08T13:40:44Z</time>
      </trkpt>
      <trkpt lat="47.50408" lon="6.78809">
        <ele>313.6</ele>
        <time>2015-06-08T13:40:45Z</time>
      </trkpt>
      <trkpt lat="47.50407" lon="6.78816">
        <ele>313.6</ele>
        <time>2015-06-08T13:40:46Z</time>
      </trkpt>
      <trkpt lat="47.50407" lon="6.78822">
        <ele>313.7</ele>
        <time>2015-06-08T13:40:47Z</time>
      </trkpt>
      <trkpt lat="47.50406" lon="6.78829">
        <ele>313.9</ele>
        <time>2015-06-08T13:40:48Z</time>
      </trkpt>
      <trkpt lat="47.50406" lon="6.78836">
        <ele>314.1</ele>
        <time>2015-06-08T13:40:49Z</time>
      </trkpt>
      <trkpt lat="47.50405" lon="6.78843">
        <ele>314.2</ele>
        <time>2015-06-08T13:40:51Z</time>
      </trkpt>
      <trkpt lat="47.50405" lon="6.78851">
        <ele>314.2</ele>
        <time>2015-06-08T13:40:51Z</time>
      </trkpt>
      <trkpt lat="47.50404" lon="6.78857">
        <ele>314.3</ele>
        <time>2015-06-08T13:40:52Z</time>
      </trkpt>
      <trkpt lat="47.50404" lon="6.78865">
        <ele>314.3</ele>
        <time>2015-06-08T13:40:53Z</time>
      </trkpt>
      <trkpt lat="47.50403" lon="6.78871">
        <ele>314.3</ele>
        <time>2015-06-08T13:40:54Z</time>
      </trkpt>
      <trkpt lat="47.50403" lon="6.78878">
        <ele>314.5</ele>
        <time>2015-06-08T13:40:55Z</time>
      </trkpt>
      <trkpt lat="47.50403" lon="6.78884">
        <ele>314.8</ele>
        <time>2015-06-08T13:40:56Z</time>
      </trkpt>
      <trkpt lat="47.50402" lon="6.78892">
        <ele>314.9</ele>
        <time>2015-06-08T13:40:57Z</time>
      </trkpt>
      <trkpt lat="47.50402" lon="6.78899">
        <ele>315.1</ele>
        <time>2015-06-08T13:40:58Z</time>
      </trkpt>
      <trkpt lat="47.50402" lon="6.78907">
        <ele>315.2</ele>
        <time>2015-06-08T13:40:59Z</time>
      </trkpt>
      <trkpt lat="47.50402" lon="6.78914">
        <ele>315.3</ele>
        <time>2015-06-08T13:41:00Z</time>
      </trkpt>
      <trkpt lat="47.50403" lon="6.78921">
        <ele>315.3</ele>
        <time>2015-06-08T13:41:01Z</time>
      </trkpt>
      <trkpt lat="47.50404" lon="6.78928">
        <ele>315.5</ele>
        <time>2015-06-08T13:41:03Z</time>
      </trkpt>
      <trkpt lat="47.50404" lon="6.78935">
        <ele>315.7</ele>
        <time>2015-06-08T13:41:03Z</time>
      </trkpt>
      <trkpt lat="47.50405" lon="6.78942">
        <ele>315.9</ele>
        <time>2015-06-08T13:41:04Z</time>
      </trkpt>
      <trkpt lat="47.50406" lon="6.78948">
        <ele>316.1</ele>
        <time>2015-06-08T13:41:05Z</time>
      </trkpt>
      <trkpt lat="47.50406" lon="6.78955">
        <ele>316.4</ele>
        <time>2015-06-08T13:41:06Z</time>
      </trkpt>
      <trkpt lat="47.50407" lon="6.78961">
        <ele>316.7</ele>
        <time>2015-06-08T13:41:07Z</time>
      </trkpt>
      <trkpt lat="47.50408" lon="6.78967">
        <ele>316.9</ele>
        <time>2015-06-08T13:41:08Z</time>
      </trkpt>
      <trkpt lat="47.50408" lon="6.78974">
        <ele>317</ele>
        <time>2015-06-08T13:41:09Z</time>
      </trkpt>
      <trkpt lat="47.50408" lon="6.78981">
        <ele>316.5</ele>
        <time>2015-06-08T13:41:10Z</time>
      </trkpt>
      <trkpt lat="47.50409" lon="6.78988">
        <ele>316.3</ele>
        <time>2015-06-08T13:41:11Z</time>
      </trkpt>
      <trkpt lat="47.50409" lon="6.78995">
        <ele>316.3</ele>
        <time>2015-06-08T13:41:12Z</time>
      </trkpt>
      <trkpt lat="47.50409" lon="6.79002">
        <ele>316</ele>
        <time>2015-06-08T13:41:13Z</time>
      </trkpt>
      <trkpt lat="47.5041" lon="6.79009">
        <ele>315.8</ele>
        <time>2015-06-08T13:41:15Z</time>
      </trkpt>
      <trkpt lat="47.50411" lon="6.79016">
        <ele>315.7</ele>
        <time>2015-06-08T13:41:15Z</time>
      </trkpt>
      <trkpt lat="47.50412" lon="6.79023">
        <ele>315.5</ele>
        <time>2015-06-08T13:41:16Z</time>
      </trkpt>
      <trkpt lat="47.50412" lon="6.7903">
        <ele>315.3</ele>
        <time>2015-06-08T13:41:17Z</time>
      </trkpt>
      <trkpt lat="47.50413" lon="6.79037">
        <ele>315.2</ele>
        <time>2015-06-08T13:41:18Z</time>
      </trkpt>
      <trkpt lat="47.50413" lon="6.79044">
        <ele>315.1</ele>
        <time>2015-06-08T13:41:19Z</time>
      </trkpt>
      <trkpt lat="47.50414" lon="6.7905">
        <ele>314.7</ele>
        <time>2015-06-08T13:41:20Z</time>
      </trkpt>
      <trkpt lat="47.50415" lon="6.79057">
        <ele>314.6</ele>
        <time>2015-06-08T13:41:21Z</time>
      </trkpt>
      <trkpt lat="47.50416" lon="6.79064">
        <ele>314.4</ele>
        <time>2015-06-08T13:41:22Z</time>
      </trkpt>
      <trkpt lat="47.50417" lon="6.79071">
        <ele>314.2</ele>
        <time>2015-06-08T13:41:23Z</time>
      </trkpt>
      <trkpt lat="47.50417" lon="6.79078">
        <ele>314.1</ele>
        <time>2015-06-08T13:41:24Z</time>
      </trkpt>
      <trkpt lat="47.50418" lon="6.79085">
        <ele>313.8</ele>
        <time>2015-06-08T13:41:25Z</time>
      </trkpt>
      <trkpt lat="47.50419" lon="6.79092">
        <ele>313.6</ele>
        <time>2015-06-08T13:41:26Z</time>
      </trkpt>
      <trkpt lat="47.50419" lon="6.79098">
        <ele>313.3</ele>
        <time>2015-06-08T13:41:27Z</time>
      </trkpt>
      <trkpt lat="47.5042" lon="6.79105">
        <ele>313.1</ele>
        <time>2015-06-08T13:41:28Z</time>
      </trkpt>
      <trkpt lat="47.50421" lon="6.79111">
        <ele>312.8</ele>
        <time>2015-06-08T13:41:29Z</time>
      </trkpt>
      <trkpt lat="47.50422" lon="6.79117">
        <ele>312.5</ele>
        <time>2015-06-08T13:41:30Z</time>
      </trkpt>
      <trkpt lat="47.50425" lon="6.79122">
        <ele>312.2</ele>
        <time>2015-06-08T13:41:31Z</time>
      </trkpt>
      <trkpt lat="47.50427" lon="6.79127">
        <ele>311.9</ele>
        <time>2015-06-08T13:41:32Z</time>
      </trkpt>
      <trkpt lat="47.50429" lon="6.79132">
        <ele>311.7</ele>
        <time>2015-06-08T13:41:33Z</time>
      </trkpt>
      <trkpt lat="47.50432" lon="6.79137">
        <ele>311.5</ele>
        <time>2015-06-08T13:41:34Z</time>
      </trkpt>
      <trkpt lat="47.50435" lon="6.79141">
        <ele>311.5</ele>
        <time>2015-06-08T13:41:35Z</time>
      </trkpt>
      <trkpt lat="47.50438" lon="6.79147">
        <ele>311.3</ele>
        <time>2015-06-08T13:41:36Z</time>
      </trkpt>
      <trkpt lat="47.5044" lon="6.79152">
        <ele>311.1</ele>
        <time>2015-06-08T13:41:37Z</time>
      </trkpt>
      <trkpt lat="47.50443" lon="6.79158">
        <ele>311.2</ele>
        <time>2015-06-08T13:41:38Z</time>
      </trkpt>
      <trkpt lat="47.50445" lon="6.79164">
        <ele>311.1</ele>
        <time>2015-06-08T13:41:39Z</time>
      </trkpt>
      <trkpt lat="47.50447" lon="6.7917">
        <ele>311</ele>
        <time>2015-06-08T13:41:40Z</time>
      </trkpt>
      <trkpt lat="47.50448" lon="6.79177">
        <ele>311</ele>
        <time>2015-06-08T13:41:41Z</time>
      </trkpt>
      <trkpt lat="47.50449" lon="6.79183">
        <ele>311.1</ele>
        <time>2015-06-08T13:41:42Z</time>
      </trkpt>
      <trkpt lat="47.5045" lon="6.7919">
        <ele>311.3</ele>
        <time>2015-06-08T13:41:43Z</time>
      </trkpt>
      <trkpt lat="47.50451" lon="6.79196">
        <ele>311.3</ele>
        <time>2015-06-08T13:41:45Z</time>
      </trkpt>
      <trkpt lat="47.50452" lon="6.79202">
        <ele>311.4</ele>
        <time>2015-06-08T13:41:46Z</time>
      </trkpt>
      <trkpt lat="47.50454" lon="6.79208">
        <ele>311.7</ele>
        <time>2015-06-08T13:41:46Z</time>
      </trkpt>
      <trkpt lat="47.50455" lon="6.79214">
        <ele>311.8</ele>
        <time>2015-06-08T13:41:47Z</time>
      </trkpt>
      <trkpt lat="47.50456" lon="6.7922">
        <ele>312.3</ele>
        <time>2015-06-08T13:41:48Z</time>
      </trkpt>
      <trkpt lat="47.50457" lon="6.79226">
        <ele>312.8</ele>
        <time>2015-06-08T13:41:49Z</time>
      </trkpt>
      <trkpt lat="47.50457" lon="6.79231">
        <ele>313.1</ele>
        <time>2015-06-08T13:41:51Z</time>
      </trkpt>
      <trkpt lat="47.50458" lon="6.79237">
        <ele>313.6</ele>
        <time>2015-06-08T13:41:51Z</time>
      </trkpt>
      <trkpt lat="47.50458" lon="6.79243">
        <ele>314.5</ele>
        <time>2015-06-08T13:41:52Z</time>
      </trkpt>
      <trkpt lat="47.50459" lon="6.79248">
        <ele>315.1</ele>
        <time>2015-06-08T13:41:53Z</time>
      </trkpt>
      <trkpt lat="47.5046" lon="6.79254">
        <ele>315.6</ele>
        <time>2015-06-08T13:41:54Z</time>
      </trkpt>
      <trkpt lat="47.50461" lon="6.79259">
        <ele>316.3</ele>
        <time>2015-06-08T13:41:55Z</time>
      </trkpt>
      <trkpt lat="47.50462" lon="6.79264">
        <ele>316.9</ele>
        <time>2015-06-08T13:41:56Z</time>
      </trkpt>
      <trkpt lat="47.50463" lon="6.7927">
        <ele>317.2</ele>
        <time>2015-06-08T13:41:57Z</time>
      </trkpt>
      <trkpt lat="47.50465" lon="6.79275">
        <ele>317.3</ele>
        <time>2015-06-08T13:41:58Z</time>
      </trkpt>
      <trkpt lat="47.50466" lon="6.79281">
        <ele>317.2</ele>
        <time>2015-06-08T13:41:59Z</time>
      </trkpt>
      <trkpt lat="47.50468" lon="6.79287">
        <ele>317.3</ele>
        <time>2015-06-08T13:42:00Z</time>
      </trkpt>
      <trkpt lat="47.50469" lon="6.79293">
        <ele>317.4</ele>
        <time>2015-06-08T13:42:01Z</time>
      </trkpt>
      <trkpt lat="47.50471" lon="6.79298">
        <ele>317.5</ele>
        <time>2015-06-08T13:42:02Z</time>
      </trkpt>
      <trkpt lat="47.50472" lon="6.79304">
        <ele>317.5</ele>
        <time>2015-06-08T13:42:03Z</time>
      </trkpt>
      <trkpt lat="47.50473" lon="6.79309">
        <ele>317.5</ele>
        <time>2015-06-08T13:42:04Z</time>
      </trkpt>
      <trkpt lat="47.50473" lon="6.79315">
        <ele>317.5</ele>
        <time>2015-06-08T13:42:05Z</time>
      </trkpt>
      <trkpt lat="47.50474" lon="6.7932">
        <ele>317.6</ele>
        <time>2015-06-08T13:42:06Z</time>
      </trkpt>
      <trkpt lat="47.50474" lon="6.79325">
        <ele>317.7</ele>
        <time>2015-06-08T13:42:07Z</time>
      </trkpt>
      <trkpt lat="47.50475" lon="6.7933">
        <ele>317.6</ele>
        <time>2015-06-08T13:42:08Z</time>
      </trkpt>
      <trkpt lat="47.50476" lon="6.79334">
        <ele>317.6</ele>
        <time>2015-06-08T13:42:09Z</time>
      </trkpt>
      <trkpt lat="47.50476" lon="6.79338">
        <ele>317.5</ele>
        <time>2015-06-08T13:42:10Z</time>
      </trkpt>
      <trkpt lat="47.50477" lon="6.79342">
        <ele>317.5</ele>
        <time>2015-06-08T13:42:11Z</time>
      </trkpt>
      <trkpt lat="47.50478" lon="6.79346">
        <ele>317.5</ele>
        <time>2015-06-08T13:42:12Z</time>
      </trkpt>
      <trkpt lat="47.50479" lon="6.79349">
        <ele>317.5</ele>
        <time>2015-06-08T13:42:13Z</time>
      </trkpt>
      <trkpt lat="47.50479" lon="6.79352">
        <ele>317.7</ele>
        <time>2015-06-08T13:42:14Z</time>
      </trkpt>
      <trkpt lat="47.5048" lon="6.79352">
        <ele>318</ele>
        <time>2015-06-08T13:42:22Z</time>
      </trkpt>
      <trkpt lat="47.50479" lon="6.79354">
        <ele>318</ele>
        <time>2015-06-08T13:51:52Z</time>
      </trkpt>
      <trkpt lat="47.50479" lon="6.79357">
        <ele>317.9</ele>
        <time>2015-06-08T13:51:53Z</time>
      </trkpt>
      <trkpt lat="47.50479" lon="6.79361">
        <ele>317.8</ele>
        <time>2015-06-08T13:51:54Z</time>
      </trkpt>
      <trkpt lat="47.50479" lon="6.79365">
        <ele>317.6</ele>
        <time>2015-06-08T13:51:55Z</time>
      </trkpt>
      <trkpt lat="47.50478" lon="6.79369">
        <ele>317.6</ele>
        <time>2015-06-08T13:51:56Z</time>
      </trkpt>
      <trkpt lat="47.50478" lon="6.79373">
        <ele>317.4</ele>
        <time>2015-06-08T13:51:57Z</time>
      </trkpt>
      <trkpt lat="47.50479" lon="6.79378">
        <ele>317.3</ele>
        <time>2015-06-08T13:51:59Z</time>
      </trkpt>
      <trkpt lat="47.50479" lon="6.79384">
        <ele>317.1</ele>
        <time>2015-06-08T13:51:59Z</time>
      </trkpt>
      <trkpt lat="47.5048" lon="6.79389">
        <ele>316.9</ele>
        <time>2015-06-08T13:52:00Z</time>
      </trkpt>
      <trkpt lat="47.5048" lon="6.79395">
        <ele>316.6</ele>
        <time>2015-06-08T13:52:01Z</time>
      </trkpt>
      <trkpt lat="47.50481" lon="6.79401">
        <ele>316.4</ele>
        <time>2015-06-08T13:52:02Z</time>
      </trkpt>
      <trkpt lat="47.50481" lon="6.79407">
        <ele>316.2</ele>
        <time>2015-06-08T13:52:03Z</time>
      </trkpt>
      <trkpt lat="47.50481" lon="6.79413">
        <ele>315.9</ele>
        <time>2015-06-08T13:52:05Z</time>
      </trkpt>
      <trkpt lat="47.50481" lon="6.7942">
        <ele>315.7</ele>
        <time>2015-06-08T13:52:06Z</time>
      </trkpt>
      <trkpt lat="47.5048" lon="6.79426">
        <ele>315.7</ele>
        <time>2015-06-08T13:52:07Z</time>
      </trkpt>
      <trkpt lat="47.5048" lon="6.79431">
        <ele>315.7</ele>
        <time>2015-06-08T13:52:07Z</time>
      </trkpt>
      <trkpt lat="47.50479" lon="6.79437">
        <ele>315.9</ele>
        <time>2015-06-08T13:52:09Z</time>
      </trkpt>
      <trkpt lat="47.50479" lon="6.79443">
        <ele>316.1</ele>
        <time>2015-06-08T13:52:10Z</time>
      </trkpt>
      <trkpt lat="47.50479" lon="6.79448">
        <ele>316.3</ele>
        <time>2015-06-08T13:52:11Z</time>
      </trkpt>
      <trkpt lat="47.50478" lon="6.79454">
        <ele>315.9</ele>
        <time>2015-06-08T13:52:12Z</time>
      </trkpt>
      <trkpt lat="47.50478" lon="6.7946">
        <ele>315.4</ele>
        <time>2015-06-08T13:52:13Z</time>
      </trkpt>
      <trkpt lat="47.50477" lon="6.79466">
        <ele>315</ele>
        <time>2015-06-08T13:52:13Z</time>
      </trkpt>
      <trkpt lat="47.50477" lon="6.79472">
        <ele>314.8</ele>
        <time>2015-06-08T13:52:15Z</time>
      </trkpt>
      <trkpt lat="47.50477" lon="6.79477">
        <ele>314.5</ele>
        <time>2015-06-08T13:52:16Z</time>
      </trkpt>
      <trkpt lat="47.50477" lon="6.79483">
        <ele>314.2</ele>
        <time>2015-06-08T13:52:16Z</time>
      </trkpt>
      <trkpt lat="47.50477" lon="6.79488">
        <ele>313.8</ele>
        <time>2015-06-08T13:52:17Z</time>
      </trkpt>
      <trkpt lat="47.50477" lon="6.79494">
        <ele>313.6</ele>
        <time>2015-06-08T13:52:18Z</time>
      </trkpt>
      <trkpt lat="47.50477" lon="6.795">
        <ele>313.5</ele>
        <time>2015-06-08T13:52:19Z</time>
      </trkpt>
      <trkpt lat="47.50477" lon="6.79506">
        <ele>313.3</ele>
        <time>2015-06-08T13:52:20Z</time>
      </trkpt>
      <trkpt lat="47.50477" lon="6.79511">
        <ele>313.2</ele>
        <time>2015-06-08T13:52:21Z</time>
      </trkpt>
      <trkpt lat="47.50477" lon="6.79516">
        <ele>312.8</ele>
        <time>2015-06-08T13:52:22Z</time>
      </trkpt>
      <trkpt lat="47.50476" lon="6.79521">
        <ele>312.4</ele>
        <time>2015-06-08T13:52:24Z</time>
      </trkpt>
      <trkpt lat="47.50476" lon="6.79526">
        <ele>311.9</ele>
        <time>2015-06-08T13:52:25Z</time>
      </trkpt>
      <trkpt lat="47.50476" lon="6.79532">
        <ele>311.4</ele>
        <time>2015-06-08T13:52:26Z</time>
      </trkpt>
      <trkpt lat="47.50476" lon="6.79538">
        <ele>311</ele>
        <time>2015-06-08T13:52:27Z</time>
      </trkpt>
      <trkpt lat="47.50477" lon="6.79544">
        <ele>310.6</ele>
        <time>2015-06-08T13:52:28Z</time>
      </trkpt>
      <trkpt lat="47.50477" lon="6.79551">
        <ele>310.3</ele>
        <time>2015-06-08T13:52:29Z</time>
      </trkpt>
      <trkpt lat="47.50478" lon="6.79556">
        <ele>309.9</ele>
        <time>2015-06-08T13:52:30Z</time>
      </trkpt>
      <trkpt lat="47.50478" lon="6.79562">
        <ele>309.5</ele>
        <time>2015-06-08T13:52:31Z</time>
      </trkpt>
      <trkpt lat="47.50478" lon="6.79568">
        <ele>309.1</ele>
        <time>2015-06-08T13:52:31Z</time>
      </trkpt>
      <trkpt lat="47.50479" lon="6.79573">
        <ele>308.8</ele>
        <time>2015-06-08T13:52:32Z</time>
      </trkpt>
      <trkpt lat="47.5048" lon="6.79579">
        <ele>308.4</ele>
        <time>2015-06-08T13:52:33Z</time>
      </trkpt>
      <trkpt lat="47.50481" lon="6.79585">
        <ele>308</ele>
        <time>2015-06-08T13:52:34Z</time>
      </trkpt>
      <trkpt lat="47.50482" lon="6.7959">
        <ele>307.6</ele>
        <time>2015-06-08T13:52:35Z</time>
      </trkpt>
      <trkpt lat="47.50483" lon="6.79596">
        <ele>307.3</ele>
        <time>2015-06-08T13:52:36Z</time>
      </trkpt>
      <trkpt lat="47.50485" lon="6.79603">
        <ele>307</ele>
        <time>2015-06-08T13:52:37Z</time>
      </trkpt>
      <trkpt lat="47.50486" lon="6.79609">
        <ele>306.7</ele>
        <time>2015-06-08T13:52:39Z</time>
      </trkpt>
      <trkpt lat="47.50487" lon="6.79615">
        <ele>306.4</ele>
        <time>2015-06-08T13:52:40Z</time>
      </trkpt>
      <trkpt lat="47.50488" lon="6.79621">
        <ele>306.2</ele>
        <time>2015-06-08T13:52:40Z</time>
      </trkpt>
      <trkpt lat="47.50489" lon="6.79627">
        <ele>306</ele>
        <time>2015-06-08T13:52:41Z</time>
      </trkpt>
      <trkpt lat="47.5049" lon="6.79633">
        <ele>305.8</ele>
        <time>2015-06-08T13:52:42Z</time>
      </trkpt>
      <trkpt lat="47.50491" lon="6.79639">
        <ele>305.6</ele>
        <time>2015-06-08T13:52:43Z</time>
      </trkpt>
      <trkpt lat="47.50492" lon="6.79645">
        <ele>305.4</ele>
        <time>2015-06-08T13:52:44Z</time>
      </trkpt>
      <trkpt lat="47.50492" lon="6.79651">
        <ele>305</ele>
        <time>2015-06-08T13:52:45Z</time>
      </trkpt>
      <trkpt lat="47.50492" lon="6.79657">
        <ele>304.7</ele>
        <time>2015-06-08T13:52:46Z</time>
      </trkpt>
      <trkpt lat="47.50493" lon="6.79664">
        <ele>304.4</ele>
        <time>2015-06-08T13:52:47Z</time>
      </trkpt>
      <trkpt lat="47.50493" lon="6.7967">
        <ele>304.1</ele>
        <time>2015-06-08T13:52:48Z</time>
      </trkpt>
      <trkpt lat="47.50494" lon="6.79677">
        <ele>303.8</ele>
        <time>2015-06-08T13:52:49Z</time>
      </trkpt>
      <trkpt lat="47.50495" lon="6.79684">
        <ele>303.6</ele>
        <time>2015-06-08T13:52:51Z</time>
      </trkpt>
      <trkpt lat="47.50496" lon="6.7969">
        <ele>303.5</ele>
        <time>2015-06-08T13:52:51Z</time>
      </trkpt>
      <trkpt lat="47.50496" lon="6.79696">
        <ele>303.4</ele>
        <time>2015-06-08T13:52:52Z</time>
      </trkpt>
      <trkpt lat="47.50497" lon="6.79703">
        <ele>303.7</ele>
        <time>2015-06-08T13:52:53Z</time>
      </trkpt>
      <trkpt lat="47.50497" lon="6.79709">
        <ele>303.5</ele>
        <time>2015-06-08T13:52:54Z</time>
      </trkpt>
      <trkpt lat="47.50498" lon="6.79715">
        <ele>303.4</ele>
        <time>2015-06-08T13:52:55Z</time>
      </trkpt>
      <trkpt lat="47.50499" lon="6.79722">
        <ele>303.2</ele>
        <time>2015-06-08T13:52:57Z</time>
      </trkpt>
      <trkpt lat="47.505" lon="6.79728">
        <ele>302.9</ele>
        <time>2015-06-08T13:52:57Z</time>
      </trkpt>
      <trkpt lat="47.505" lon="6.79734">
        <ele>302.5</ele>
        <time>2015-06-08T13:52:58Z</time>
      </trkpt>
      <trkpt lat="47.505" lon="6.7974">
        <ele>302.2</ele>
        <time>2015-06-08T13:53:00Z</time>
      </trkpt>
      <trkpt lat="47.50499" lon="6.79746">
        <ele>302</ele>
        <time>2015-06-08T13:53:00Z</time>
      </trkpt>
      <trkpt lat="47.50499" lon="6.79753">
        <ele>301.7</ele>
        <time>2015-06-08T13:53:02Z</time>
      </trkpt>
      <trkpt lat="47.505" lon="6.79759">
        <ele>301.6</ele>
        <time>2015-06-08T13:53:03Z</time>
      </trkpt>
      <trkpt lat="47.50501" lon="6.79766">
        <ele>301.4</ele>
        <time>2015-06-08T13:53:03Z</time>
      </trkpt>
      <trkpt lat="47.50502" lon="6.79772">
        <ele>301.4</ele>
        <time>2015-06-08T13:53:05Z</time>
      </trkpt>
      <trkpt lat="47.50503" lon="6.79779">
        <ele>301.5</ele>
        <time>2015-06-08T13:53:06Z</time>
      </trkpt>
      <trkpt lat="47.50503" lon="6.79785">
        <ele>301.4</ele>
        <time>2015-06-08T13:53:07Z</time>
      </trkpt>
      <trkpt lat="47.50502" lon="6.79791">
        <ele>301.4</ele>
        <time>2015-06-08T13:53:08Z</time>
      </trkpt>
      <trkpt lat="47.50503" lon="6.79797">
        <ele>301.7</ele>
        <time>2015-06-08T13:53:09Z</time>
      </trkpt>
      <trkpt lat="47.50504" lon="6.79802">
        <ele>301.9</ele>
        <time>2015-06-08T13:53:09Z</time>
      </trkpt>
      <trkpt lat="47.50505" lon="6.79808">
        <ele>302.1</ele>
        <time>2015-06-08T13:53:10Z</time>
      </trkpt>
      <trkpt lat="47.50506" lon="6.79814">
        <ele>302.3</ele>
        <time>2015-06-08T13:53:12Z</time>
      </trkpt>
      <trkpt lat="47.50506" lon="6.79819">
        <ele>302.3</ele>
        <time>2015-06-08T13:53:13Z</time>
      </trkpt>
      <trkpt lat="47.50506" lon="6.79825">
        <ele>302.1</ele>
        <time>2015-06-08T13:53:13Z</time>
      </trkpt>
      <trkpt lat="47.50505" lon="6.7983">
        <ele>302</ele>
        <time>2015-06-08T13:53:15Z</time>
      </trkpt>
      <trkpt lat="47.50504" lon="6.79836">
        <ele>301.7</ele>
        <time>2015-06-08T13:53:15Z</time>
      </trkpt>
      <trkpt lat="47.50504" lon="6.79842">
        <ele>301.5</ele>
        <time>2015-06-08T13:53:16Z</time>
      </trkpt>
      <trkpt lat="47.50505" lon="6.79848">
        <ele>301.9</ele>
        <time>2015-06-08T13:53:17Z</time>
      </trkpt>
      <trkpt lat="47.50506" lon="6.79855">
        <ele>302.2</ele>
        <time>2015-06-08T13:53:18Z</time>
      </trkpt>
      <trkpt lat="47.50507" lon="6.79861">
        <ele>302.4</ele>
        <time>2015-06-08T13:53:19Z</time>
      </trkpt>
      <trkpt lat="47.50508" lon="6.79868">
        <ele>302.7</ele>
        <time>2015-06-08T13:53:20Z</time>
      </trkpt>
      <trkpt lat="47.50507" lon="6.79874">
        <ele>302.6</ele>
        <time>2015-06-08T13:53:21Z</time>
      </trkpt>
      <trkpt lat="47.50507" lon="6.7988">
        <ele>302.7</ele>
        <time>2015-06-08T13:53:22Z</time>
      </trkpt>
      <trkpt lat="47.50508" lon="6.79887">
        <ele>302.7</ele>
        <time>2015-06-08T13:53:23Z</time>
      </trkpt>
      <trkpt lat="47.50508" lon="6.79893">
        <ele>302.8</ele>
        <time>2015-06-08T13:53:24Z</time>
      </trkpt>
      <trkpt lat="47.50508" lon="6.79899">
        <ele>303</ele>
        <time>2015-06-08T13:53:26Z</time>
      </trkpt>
      <trkpt lat="47.50508" lon="6.79906">
        <ele>303.2</ele>
        <time>2015-06-08T13:53:27Z</time>
      </trkpt>
      <trkpt lat="47.50508" lon="6.79912">
        <ele>303.5</ele>
        <time>2015-06-08T13:53:27Z</time>
      </trkpt>
      <trkpt lat="47.50507" lon="6.79919">
        <ele>303.8</ele>
        <time>2015-06-08T13:53:28Z</time>
      </trkpt>
      <trkpt lat="47.50507" lon="6.79926">
        <ele>304.1</ele>
        <time>2015-06-08T13:53:29Z</time>
      </trkpt>
      <trkpt lat="47.50507" lon="6.79932">
        <ele>304.4</ele>
        <time>2015-06-08T13:53:31Z</time>
      </trkpt>
      <trkpt lat="47.50506" lon="6.79938">
        <ele>304.6</ele>
        <time>2015-06-08T13:53:31Z</time>
      </trkpt>
      <trkpt lat="47.50506" lon="6.79945">
        <ele>304.8</ele>
        <time>2015-06-08T13:53:32Z</time>
      </trkpt>
      <trkpt lat="47.50506" lon="6.79951">
        <ele>304.9</ele>
        <time>2015-06-08T13:53:33Z</time>
      </trkpt>
      <trkpt lat="47.50506" lon="6.79958">
        <ele>305.2</ele>
        <time>2015-06-08T13:53:35Z</time>
      </trkpt>
      <trkpt lat="47.50506" lon="6.79964">
        <ele>305.3</ele>
        <time>2015-06-08T13:53:35Z</time>
      </trkpt>
      <trkpt lat="47.50507" lon="6.7997">
        <ele>317.3</ele>
        <time>2015-06-08T13:53:41Z</time>
      </trkpt>
      <trkpt lat="47.50507" lon="6.79975">
        <ele>305.6</ele>
        <time>2015-06-08T13:53:41Z</time>
      </trkpt>
      <trkpt lat="47.50507" lon="6.79981">
        <ele>305.9</ele>
        <time>2015-06-08T13:53:41Z</time>
      </trkpt>
      <trkpt lat="47.50507" lon="6.79988">
        <ele>306.3</ele>
        <time>2015-06-08T13:53:41Z</time>
      </trkpt>
      <trkpt lat="47.50507" lon="6.79994">
        <ele>306.5</ele>
        <time>2015-06-08T13:53:41Z</time>
      </trkpt>
      <trkpt lat="47.50505" lon="6.79999">
        <ele>306.7</ele>
        <time>2015-06-08T13:53:42Z</time>
      </trkpt>
      <trkpt lat="47.50504" lon="6.80005">
        <ele>306.8</ele>
        <time>2015-06-08T13:53:43Z</time>
      </trkpt>
      <trkpt lat="47.50504" lon="6.80011">
        <ele>306.9</ele>
        <time>2015-06-08T13:53:44Z</time>
      </trkpt>
      <trkpt lat="47.50503" lon="6.80018">
        <ele>307.2</ele>
        <time>2015-06-08T13:53:44Z</time>
      </trkpt>
      <trkpt lat="47.50503" lon="6.80024">
        <ele>307.4</ele>
        <time>2015-06-08T13:53:45Z</time>
      </trkpt>
      <trkpt lat="47.50503" lon="6.8003">
        <ele>307.5</ele>
        <time>2015-06-08T13:53:46Z</time>
      </trkpt>
      <trkpt lat="47.50503" lon="6.80036">
        <ele>307.7</ele>
        <time>2015-06-08T13:53:47Z</time>
      </trkpt>
      <trkpt lat="47.50503" lon="6.80042">
        <ele>307.8</ele>
        <time>2015-06-08T13:53:48Z</time>
      </trkpt>
      <trkpt lat="47.50503" lon="6.80048">
        <ele>308.1</ele>
        <time>2015-06-08T13:53:50Z</time>
      </trkpt>
      <trkpt lat="47.50503" lon="6.80054">
        <ele>308.4</ele>
        <time>2015-06-08T13:53:50Z</time>
      </trkpt>
      <trkpt lat="47.50503" lon="6.80061">
        <ele>308.8</ele>
        <time>2015-06-08T13:53:52Z</time>
      </trkpt>
      <trkpt lat="47.50503" lon="6.80067">
        <ele>309.1</ele>
        <time>2015-06-08T13:53:52Z</time>
      </trkpt>
      <trkpt lat="47.50502" lon="6.80074">
        <ele>309.3</ele>
        <time>2015-06-08T13:53:53Z</time>
      </trkpt>
      <trkpt lat="47.50502" lon="6.8008">
        <ele>309.6</ele>
        <time>2015-06-08T13:53:54Z</time>
      </trkpt>
      <trkpt lat="47.50502" lon="6.80087">
        <ele>309.8</ele>
        <time>2015-06-08T13:53:55Z</time>
      </trkpt>
      <trkpt lat="47.50502" lon="6.80093">
        <ele>309.9</ele>
        <time>2015-06-08T13:53:56Z</time>
      </trkpt>
      <trkpt lat="47.50502" lon="6.80099">
        <ele>310.1</ele>
        <time>2015-06-08T13:53:57Z</time>
      </trkpt>
      <trkpt lat="47.50502" lon="6.80106">
        <ele>310.3</ele>
        <time>2015-06-08T13:53:58Z</time>
      </trkpt>
      <trkpt lat="47.50502" lon="6.80113">
        <ele>310.5</ele>
        <time>2015-06-08T13:53:59Z</time>
      </trkpt>
      <trkpt lat="47.50502" lon="6.8012">
        <ele>310.6</ele>
        <time>2015-06-08T13:54:00Z</time>
      </trkpt>
      <trkpt lat="47.50502" lon="6.80126">
        <ele>310.8</ele>
        <time>2015-06-08T13:54:01Z</time>
      </trkpt>
      <trkpt lat="47.50502" lon="6.80132">
        <ele>310.9</ele>
        <time>2015-06-08T13:54:02Z</time>
      </trkpt>
      <trkpt lat="47.50502" lon="6.80138">
        <ele>311</ele>
        <time>2015-06-08T13:54:03Z</time>
      </trkpt>
      <trkpt lat="47.50502" lon="6.80145">
        <ele>311</ele>
        <time>2015-06-08T13:54:04Z</time>
      </trkpt>
      <trkpt lat="47.50501" lon="6.80151">
        <ele>311.1</ele>
        <time>2015-06-08T13:54:05Z</time>
      </trkpt>
      <trkpt lat="47.50501" lon="6.80157">
        <ele>311.1</ele>
        <time>2015-06-08T13:54:06Z</time>
      </trkpt>
      <trkpt lat="47.505" lon="6.80163">
        <ele>311.3</ele>
        <time>2015-06-08T13:54:07Z</time>
      </trkpt>
      <trkpt lat="47.50498" lon="6.80169">
        <ele>312.2</ele>
        <time>2015-06-08T13:54:08Z</time>
      </trkpt>
      <trkpt lat="47.50498" lon="6.80175">
        <ele>312.6</ele>
        <time>2015-06-08T13:54:09Z</time>
      </trkpt>
      <trkpt lat="47.50498" lon="6.80181">
        <ele>312.7</ele>
        <time>2015-06-08T13:54:10Z</time>
      </trkpt>
      <trkpt lat="47.50497" lon="6.80187">
        <ele>313.1</ele>
        <time>2015-06-08T13:54:11Z</time>
      </trkpt>
      <trkpt lat="47.50497" lon="6.80193">
        <ele>313.4</ele>
        <time>2015-06-08T13:54:12Z</time>
      </trkpt>
      <trkpt lat="47.50496" lon="6.80199">
        <ele>313.6</ele>
        <time>2015-06-08T13:54:13Z</time>
      </trkpt>
      <trkpt lat="47.50496" lon="6.80206">
        <ele>313.7</ele>
        <time>2015-06-08T13:54:14Z</time>
      </trkpt>
      <trkpt lat="47.50496" lon="6.80212">
        <ele>313.9</ele>
        <time>2015-06-08T13:54:15Z</time>
      </trkpt>
      <trkpt lat="47.50495" lon="6.80217">
        <ele>313.9</ele>
        <time>2015-06-08T13:54:16Z</time>
      </trkpt>
      <trkpt lat="47.50495" lon="6.80223">
        <ele>313.9</ele>
        <time>2015-06-08T13:54:17Z</time>
      </trkpt>
      <trkpt lat="47.50495" lon="6.80229">
        <ele>313.8</ele>
        <time>2015-06-08T13:54:18Z</time>
      </trkpt>
      <trkpt lat="47.50495" lon="6.80235">
        <ele>313.8</ele>
        <time>2015-06-08T13:54:19Z</time>
      </trkpt>
      <trkpt lat="47.50495" lon="6.8024">
        <ele>313.8</ele>
        <time>2015-06-08T13:54:20Z</time>
      </trkpt>
      <trkpt lat="47.50495" lon="6.80246">
        <ele>313.8</ele>
        <time>2015-06-08T13:54:21Z</time>
      </trkpt>
      <trkpt lat="47.50495" lon="6.80251">
        <ele>314.2</ele>
        <time>2015-06-08T13:54:22Z</time>
      </trkpt>
      <trkpt lat="47.50496" lon="6.80257">
        <ele>314.5</ele>
        <time>2015-06-08T13:54:24Z</time>
      </trkpt>
      <trkpt lat="47.50496" lon="6.80263">
        <ele>314.4</ele>
        <time>2015-06-08T13:54:24Z</time>
      </trkpt>
      <trkpt lat="47.50496" lon="6.80269">
        <ele>314.3</ele>
        <time>2015-06-08T13:54:25Z</time>
      </trkpt>
      <trkpt lat="47.50496" lon="6.80275">
        <ele>314.1</ele>
        <time>2015-06-08T13:54:27Z</time>
      </trkpt>
      <trkpt lat="47.50495" lon="6.80281">
        <ele>314.2</ele>
        <time>2015-06-08T13:54:27Z</time>
      </trkpt>
      <trkpt lat="47.50495" lon="6.80287">
        <ele>314.4</ele>
        <time>2015-06-08T13:54:28Z</time>
      </trkpt>
      <trkpt lat="47.50495" lon="6.80294">
        <ele>314.5</ele>
        <time>2015-06-08T13:54:29Z</time>
      </trkpt>
      <trkpt lat="47.50495" lon="6.803">
        <ele>314.6</ele>
        <time>2015-06-08T13:54:30Z</time>
      </trkpt>
      <trkpt lat="47.50495" lon="6.80307">
        <ele>314.6</ele>
        <time>2015-06-08T13:54:31Z</time>
      </trkpt>
      <trkpt lat="47.50495" lon="6.80313">
        <ele>314.4</ele>
        <time>2015-06-08T13:54:33Z</time>
      </trkpt>
      <trkpt lat="47.50497" lon="6.8032">
        <ele>314.5</ele>
        <time>2015-06-08T13:54:33Z</time>
      </trkpt>
      <trkpt lat="47.50498" lon="6.80326">
        <ele>314.6</ele>
        <time>2015-06-08T13:54:34Z</time>
      </trkpt>
      <trkpt lat="47.50498" lon="6.80332">
        <ele>314.6</ele>
        <time>2015-06-08T13:54:35Z</time>
      </trkpt>
      <trkpt lat="47.50498" lon="6.80338">
        <ele>314.5</ele>
        <time>2015-06-08T13:54:36Z</time>
      </trkpt>
      <trkpt lat="47.50499" lon="6.80343">
        <ele>314.3</ele>
        <time>2015-06-08T13:54:37Z</time>
      </trkpt>
      <trkpt lat="47.505" lon="6.80347">
        <ele>314.2</ele>
        <time>2015-06-08T13:54:38Z</time>
      </trkpt>
      <trkpt lat="47.50502" lon="6.8035">
        <ele>314.1</ele>
        <time>2015-06-08T13:54:39Z</time>
      </trkpt>
      <trkpt lat="47.50503" lon="6.80353">
        <ele>313.9</ele>
        <time>2015-06-08T13:54:40Z</time>
      </trkpt>
      <trkpt lat="47.50505" lon="6.80355">
        <ele>313.8</ele>
        <time>2015-06-08T13:54:41Z</time>
      </trkpt>
      <trkpt lat="47.50507" lon="6.80356">
        <ele>313.9</ele>
        <time>2015-06-08T13:54:42Z</time>
      </trkpt>
      <trkpt lat="47.50509" lon="6.80356">
        <ele>314</ele>
        <time>2015-06-08T13:54:43Z</time>
      </trkpt>
      <trkpt lat="47.50511" lon="6.80357">
        <ele>314.3</ele>
        <time>2015-06-08T13:54:44Z</time>
      </trkpt>
      <trkpt lat="47.50512" lon="6.80357">
        <ele>314.3</ele>
        <time>2015-06-08T13:54:45Z</time>
      </trkpt>
      <trkpt lat="47.50512" lon="6.80359">
        <ele>314.4</ele>
        <time>2015-06-08T13:54:47Z</time>
      </trkpt>
      <trkpt lat="47.50511" lon="6.80359">
        <ele>314.4</ele>
        <time>2015-06-08T13:54:51Z</time>
      </trkpt>
      <trkpt lat="47.50512" lon="6.8036">
        <ele>314.5</ele>
        <time>2015-06-08T13:55:37Z</time>
      </trkpt>
      <trkpt lat="47.50512" lon="6.80362">
        <ele>314.5</ele>
        <time>2015-06-08T13:55:51Z</time>
      </trkpt>
      <trkpt lat="47.50512" lon="6.80363">
        <ele>314.6</ele>
        <time>2015-06-08T13:56:09Z</time>
      </trkpt>
      <trkpt lat="47.50511" lon="6.80362">
        <ele>314.6</ele>
        <time>2015-06-08T13:56:23Z</time>
      </trkpt>
      <trkpt lat="47.50512" lon="6.80362">
        <ele>314.6</ele>
        <time>2015-06-08T13:56:51Z</time>
      </trkpt>
      <trkpt lat="47.50511" lon="6.80361">
        <ele>314.6</ele>
        <time>2015-06-08T13:56:59Z</time>
      </trkpt>
      <trkpt lat="47.50511" lon="6.80363">
        <ele>314.6</ele>
        <time>2015-06-08T13:57:15Z</time>
      </trkpt>
      <trkpt lat="47.5051" lon="6.80364">
        <ele>314.6</ele>
        <time>2015-06-08T13:57:17Z</time>
      </trkpt>
      <trkpt lat="47.50509" lon="6.80364">
        <ele>314.6</ele>
        <time>2015-06-08T13:57:18Z</time>
      </trkpt>
      <trkpt lat="47.50507" lon="6.80364">
        <ele>314.9</ele>
        <time>2015-06-08T13:57:22Z</time>
      </trkpt>
      <trkpt lat="47.50505" lon="6.80365">
        <ele>315.1</ele>
        <time>2015-06-08T13:57:23Z</time>
      </trkpt>
      <trkpt lat="47.50504" lon="6.80365">
        <ele>315.2</ele>
        <time>2015-06-08T13:57:24Z</time>
      </trkpt>
      <trkpt lat="47.50503" lon="6.80365">
        <ele>315.2</ele>
        <time>2015-06-08T13:57:26Z</time>
      </trkpt>
      <trkpt lat="47.50502" lon="6.80364">
        <ele>315.1</ele>
        <time>2015-06-08T13:57:27Z</time>
      </trkpt>
      <trkpt lat="47.50502" lon="6.80362">
        <ele>315.1</ele>
        <time>2015-06-08T13:57:28Z</time>
      </trkpt>
      <trkpt lat="47.50502" lon="6.80359">
        <ele>315.1</ele>
        <time>2015-06-08T13:57:29Z</time>
      </trkpt>
      <trkpt lat="47.50502" lon="6.80356">
        <ele>315.1</ele>
        <time>2015-06-08T13:57:29Z</time>
      </trkpt>
      <trkpt lat="47.50502" lon="6.80352">
        <ele>315</ele>
        <time>2015-06-08T13:57:30Z</time>
      </trkpt>
      <trkpt lat="47.50502" lon="6.80348">
        <ele>314.9</ele>
        <time>2015-06-08T13:57:31Z</time>
      </trkpt>
      <trkpt lat="47.50501" lon="6.80343">
        <ele>314.8</ele>
        <time>2015-06-08T13:57:32Z</time>
      </trkpt>
      <trkpt lat="47.50501" lon="6.80339">
        <ele>314.8</ele>
        <time>2015-06-08T13:57:34Z</time>
      </trkpt>
      <trkpt lat="47.505" lon="6.80334">
        <ele>314.8</ele>
        <time>2015-06-08T13:57:35Z</time>
      </trkpt>
      <trkpt lat="47.505" lon="6.8033">
        <ele>314.7</ele>
        <time>2015-06-08T13:57:36Z</time>
      </trkpt>
      <trkpt lat="47.50499" lon="6.80325">
        <ele>314.5</ele>
        <time>2015-06-08T13:57:37Z</time>
      </trkpt>
      <trkpt lat="47.50499" lon="6.8032">
        <ele>314.4</ele>
        <time>2015-06-08T13:57:38Z</time>
      </trkpt>
      <trkpt lat="47.50499" lon="6.80315">
        <ele>314.2</ele>
        <time>2015-06-08T13:57:39Z</time>
      </trkpt>
      <trkpt lat="47.50499" lon="6.8031">
        <ele>314</ele>
        <time>2015-06-08T13:57:40Z</time>
      </trkpt>
      <trkpt lat="47.505" lon="6.80304">
        <ele>313.9</ele>
        <time>2015-06-08T13:57:41Z</time>
      </trkpt>
      <trkpt lat="47.505" lon="6.80299">
        <ele>313.7</ele>
        <time>2015-06-08T13:57:42Z</time>
      </trkpt>
      <trkpt lat="47.505" lon="6.80294">
        <ele>313.7</ele>
        <time>2015-06-08T13:57:43Z</time>
      </trkpt>
      <trkpt lat="47.50501" lon="6.80288">
        <ele>313.6</ele>
        <time>2015-06-08T13:57:44Z</time>
      </trkpt>
      <trkpt lat="47.50501" lon="6.80283">
        <ele>313.5</ele>
        <time>2015-06-08T13:57:45Z</time>
      </trkpt>
      <trkpt lat="47.50501" lon="6.80278">
        <ele>313.3</ele>
        <time>2015-06-08T13:57:46Z</time>
      </trkpt>
      <trkpt lat="47.50501" lon="6.80272">
        <ele>313.1</ele>
        <time>2015-06-08T13:57:47Z</time>
      </trkpt>
      <trkpt lat="47.50501" lon="6.80267">
        <ele>312.9</ele>
        <time>2015-06-08T13:57:48Z</time>
      </trkpt>
      <trkpt lat="47.50502" lon="6.80261">
        <ele>312.7</ele>
        <time>2015-06-08T13:57:49Z</time>
      </trkpt>
      <trkpt lat="47.50502" lon="6.80256">
        <ele>312.5</ele>
        <time>2015-06-08T13:57:50Z</time>
      </trkpt>
      <trkpt lat="47.50501" lon="6.8025">
        <ele>312.4</ele>
        <time>2015-06-08T13:57:51Z</time>
      </trkpt>
      <trkpt lat="47.50501" lon="6.80244">
        <ele>312.4</ele>
        <time>2015-06-08T13:57:52Z</time>
      </trkpt>
      <trkpt lat="47.50502" lon="6.80239">
        <ele>312.3</ele>
        <time>2015-06-08T13:57:52Z</time>
      </trkpt>
      <trkpt lat="47.50502" lon="6.80233">
        <ele>312</ele>
        <time>2015-06-08T13:57:53Z</time>
      </trkpt>
      <trkpt lat="47.50502" lon="6.80227">
        <ele>311.9</ele>
        <time>2015-06-08T13:57:54Z</time>
      </trkpt>
      <trkpt lat="47.50502" lon="6.80221">
        <ele>311.8</ele>
        <time>2015-06-08T13:57:56Z</time>
      </trkpt>
      <trkpt lat="47.50503" lon="6.80215">
        <ele>311.6</ele>
        <time>2015-06-08T13:57:57Z</time>
      </trkpt>
      <trkpt lat="47.50503" lon="6.80209">
        <ele>311.3</ele>
        <time>2015-06-08T13:57:58Z</time>
      </trkpt>
      <trkpt lat="47.50503" lon="6.80202">
        <ele>311.2</ele>
        <time>2015-06-08T13:57:59Z</time>
      </trkpt>
      <trkpt lat="47.50504" lon="6.80196">
        <ele>311</ele>
        <time>2015-06-08T13:58:00Z</time>
      </trkpt>
      <trkpt lat="47.50504" lon="6.80189">
        <ele>310.9</ele>
        <time>2015-06-08T13:58:01Z</time>
      </trkpt>
      <trkpt lat="47.50505" lon="6.80183">
        <ele>310.8</ele>
        <time>2015-06-08T13:58:02Z</time>
      </trkpt>
      <trkpt lat="47.50505" lon="6.80176">
        <ele>310.6</ele>
        <time>2015-06-08T13:58:02Z</time>
      </trkpt>
      <trkpt lat="47.50505" lon="6.80169">
        <ele>310.4</ele>
        <time>2015-06-08T13:58:03Z</time>
      </trkpt>
      <trkpt lat="47.50506" lon="6.80163">
        <ele>310.2</ele>
        <time>2015-06-08T13:58:05Z</time>
      </trkpt>
      <trkpt lat="47.50506" lon="6.80156">
        <ele>310</ele>
        <time>2015-06-08T13:58:06Z</time>
      </trkpt>
      <trkpt lat="47.50506" lon="6.80149">
        <ele>309.9</ele>
        <time>2015-06-08T13:58:06Z</time>
      </trkpt>
      <trkpt lat="47.50506" lon="6.80142">
        <ele>309.7</ele>
        <time>2015-06-08T13:58:08Z</time>
      </trkpt>
      <trkpt lat="47.50506" lon="6.80136">
        <ele>309.6</ele>
        <time>2015-06-08T13:58:09Z</time>
      </trkpt>
      <trkpt lat="47.50507" lon="6.8013">
        <ele>309.3</ele>
        <time>2015-06-08T13:58:09Z</time>
      </trkpt>
      <trkpt lat="47.50507" lon="6.80123">
        <ele>309.1</ele>
        <time>2015-06-08T13:58:10Z</time>
      </trkpt>
      <trkpt lat="47.50507" lon="6.80117">
        <ele>308.9</ele>
        <time>2015-06-08T13:58:12Z</time>
      </trkpt>
      <trkpt lat="47.50508" lon="6.80111">
        <ele>308.6</ele>
        <time>2015-06-08T13:58:13Z</time>
      </trkpt>
      <trkpt lat="47.50508" lon="6.80104">
        <ele>308.6</ele>
        <time>2015-06-08T13:58:14Z</time>
      </trkpt>
      <trkpt lat="47.50508" lon="6.80098">
        <ele>308.5</ele>
        <time>2015-06-08T13:58:15Z</time>
      </trkpt>
      <trkpt lat="47.50509" lon="6.80091">
        <ele>308.4</ele>
        <time>2015-06-08T13:58:16Z</time>
      </trkpt>
      <trkpt lat="47.50509" lon="6.80084">
        <ele>308.4</ele>
        <time>2015-06-08T13:58:16Z</time>
      </trkpt>
      <trkpt lat="47.50509" lon="6.80078">
        <ele>308.3</ele>
        <time>2015-06-08T13:58:18Z</time>
      </trkpt>
      <trkpt lat="47.50509" lon="6.80071">
        <ele>308.1</ele>
        <time>2015-06-08T13:58:18Z</time>
      </trkpt>
      <trkpt lat="47.50509" lon="6.80065">
        <ele>308</ele>
        <time>2015-06-08T13:58:20Z</time>
      </trkpt>
      <trkpt lat="47.5051" lon="6.80058">
        <ele>307.9</ele>
        <time>2015-06-08T13:58:21Z</time>
      </trkpt>
      <trkpt lat="47.5051" lon="6.80051">
        <ele>307.8</ele>
        <time>2015-06-08T13:58:21Z</time>
      </trkpt>
      <trkpt lat="47.5051" lon="6.80045">
        <ele>307.7</ele>
        <time>2015-06-08T13:58:23Z</time>
      </trkpt>
      <trkpt lat="47.5051" lon="6.80038">
        <ele>307.6</ele>
        <time>2015-06-08T13:58:24Z</time>
      </trkpt>
      <trkpt lat="47.5051" lon="6.80032">
        <ele>307.6</ele>
        <time>2015-06-08T13:58:24Z</time>
      </trkpt>
      <trkpt lat="47.5051" lon="6.80026">
        <ele>307.5</ele>
        <time>2015-06-08T13:58:26Z</time>
      </trkpt>
      <trkpt lat="47.5051" lon="6.80019">
        <ele>307.4</ele>
        <time>2015-06-08T13:58:27Z</time>
      </trkpt>
      <trkpt lat="47.5051" lon="6.80013">
        <ele>307.1</ele>
        <time>2015-06-08T13:58:28Z</time>
      </trkpt>
      <trkpt lat="47.50511" lon="6.80006">
        <ele>306.9</ele>
        <time>2015-06-08T13:58:29Z</time>
      </trkpt>
      <trkpt lat="47.50511" lon="6.8">
        <ele>306.5</ele>
        <time>2015-06-08T13:58:30Z</time>
      </trkpt>
      <trkpt lat="47.50512" lon="6.79993">
        <ele>306.2</ele>
        <time>2015-06-08T13:58:31Z</time>
      </trkpt>
      <trkpt lat="47.50513" lon="6.79987">
        <ele>306</ele>
        <time>2015-06-08T13:58:32Z</time>
      </trkpt>
      <trkpt lat="47.50513" lon="6.79981">
        <ele>305.9</ele>
        <time>2015-06-08T13:58:33Z</time>
      </trkpt>
      <trkpt lat="47.50513" lon="6.79974">
        <ele>305.8</ele>
        <time>2015-06-08T13:58:33Z</time>
      </trkpt>
      <trkpt lat="47.50513" lon="6.79968">
        <ele>305.8</ele>
        <time>2015-06-08T13:58:35Z</time>
      </trkpt>
      <trkpt lat="47.50513" lon="6.79961">
        <ele>305.7</ele>
        <time>2015-06-08T13:58:36Z</time>
      </trkpt>
      <trkpt lat="47.50513" lon="6.79955">
        <ele>305.4</ele>
        <time>2015-06-08T13:58:37Z</time>
      </trkpt>
      <trkpt lat="47.50513" lon="6.79948">
        <ele>305.2</ele>
        <time>2015-06-08T13:58:38Z</time>
      </trkpt>
      <trkpt lat="47.50513" lon="6.79942">
        <ele>304.9</ele>
        <time>2015-06-08T13:58:39Z</time>
      </trkpt>
      <trkpt lat="47.50513" lon="6.79936">
        <ele>304.8</ele>
        <time>2015-06-08T13:58:39Z</time>
      </trkpt>
      <trkpt lat="47.50514" lon="6.79929">
        <ele>304.7</ele>
        <time>2015-06-08T13:58:41Z</time>
      </trkpt>
      <trkpt lat="47.50514" lon="6.79922">
        <ele>304.7</ele>
        <time>2015-06-08T13:58:41Z</time>
      </trkpt>
      <trkpt lat="47.50514" lon="6.79915">
        <ele>304.6</ele>
        <time>2015-06-08T13:58:43Z</time>
      </trkpt>
      <trkpt lat="47.50515" lon="6.79908">
        <ele>304.4</ele>
        <time>2015-06-08T13:58:44Z</time>
      </trkpt>
      <trkpt lat="47.50515" lon="6.79901">
        <ele>304.3</ele>
        <time>2015-06-08T13:58:45Z</time>
      </trkpt>
      <trkpt lat="47.50515" lon="6.79894">
        <ele>304.1</ele>
        <time>2015-06-08T13:58:46Z</time>
      </trkpt>
      <trkpt lat="47.50516" lon="6.79888">
        <ele>303.9</ele>
        <time>2015-06-08T13:58:47Z</time>
      </trkpt>
      <trkpt lat="47.50516" lon="6.79881">
        <ele>303.8</ele>
        <time>2015-06-08T13:58:48Z</time>
      </trkpt>
      <trkpt lat="47.50516" lon="6.79874">
        <ele>303.5</ele>
        <time>2015-06-08T13:58:49Z</time>
      </trkpt>
      <trkpt lat="47.50516" lon="6.79868">
        <ele>303.4</ele>
        <time>2015-06-08T13:58:50Z</time>
      </trkpt>
      <trkpt lat="47.50516" lon="6.79861">
        <ele>303.2</ele>
        <time>2015-06-08T13:58:50Z</time>
      </trkpt>
      <trkpt lat="47.50516" lon="6.79854">
        <ele>303.2</ele>
        <time>2015-06-08T13:58:52Z</time>
      </trkpt>
      <trkpt lat="47.50517" lon="6.79847">
        <ele>303.2</ele>
        <time>2015-06-08T13:58:53Z</time>
      </trkpt>
      <trkpt lat="47.50518" lon="6.79841">
        <ele>302.9</ele>
        <time>2015-06-08T13:58:54Z</time>
      </trkpt>
      <trkpt lat="47.50519" lon="6.79834">
        <ele>302.7</ele>
        <time>2015-06-08T13:58:55Z</time>
      </trkpt>
      <trkpt lat="47.50518" lon="6.79827">
        <ele>302.5</ele>
        <time>2015-06-08T13:58:56Z</time>
      </trkpt>
      <trkpt lat="47.50518" lon="6.7982">
        <ele>302.2</ele>
        <time>2015-06-08T13:58:57Z</time>
      </trkpt>
      <trkpt lat="47.50518" lon="6.79813">
        <ele>302</ele>
        <time>2015-06-08T13:58:58Z</time>
      </trkpt>
      <trkpt lat="47.50517" lon="6.79804">
        <ele>301.7</ele>
        <time>2015-06-08T13:58:58Z</time>
      </trkpt>
      <trkpt lat="47.50517" lon="6.79796">
        <ele>301.3</ele>
        <time>2015-06-08T13:58:59Z</time>
      </trkpt>
      <trkpt lat="47.50518" lon="6.79787">
        <ele>300.8</ele>
        <time>2015-06-08T13:59:00Z</time>
      </trkpt>
      <trkpt lat="47.50517" lon="6.79779">
        <ele>300.4</ele>
        <time>2015-06-08T13:59:01Z</time>
      </trkpt>
      <trkpt lat="47.50517" lon="6.7977">
        <ele>300.1</ele>
        <time>2015-06-08T13:59:02Z</time>
      </trkpt>
      <trkpt lat="47.50516" lon="6.79762">
        <ele>299.8</ele>
        <time>2015-06-08T13:59:03Z</time>
      </trkpt>
      <trkpt lat="47.50515" lon="6.79754">
        <ele>299.6</ele>
        <time>2015-06-08T13:59:05Z</time>
      </trkpt>
      <trkpt lat="47.50514" lon="6.79746">
        <ele>299.3</ele>
        <time>2015-06-08T13:59:06Z</time>
      </trkpt>
      <trkpt lat="47.50514" lon="6.79738">
        <ele>299</ele>
        <time>2015-06-08T13:59:07Z</time>
      </trkpt>
      <trkpt lat="47.50513" lon="6.79731">
        <ele>298.7</ele>
        <time>2015-06-08T13:59:07Z</time>
      </trkpt>
      <trkpt lat="47.50512" lon="6.79723">
        <ele>298.4</ele>
        <time>2015-06-08T13:59:08Z</time>
      </trkpt>
      <trkpt lat="47.50511" lon="6.79715">
        <ele>298.2</ele>
        <time>2015-06-08T13:59:10Z</time>
      </trkpt>
      <trkpt lat="47.50511" lon="6.79707">
        <ele>298.1</ele>
        <time>2015-06-08T13:59:11Z</time>
      </trkpt>
      <trkpt lat="47.5051" lon="6.79699">
        <ele>298.2</ele>
        <time>2015-06-08T13:59:12Z</time>
      </trkpt>
      <trkpt lat="47.50509" lon="6.79691">
        <ele>298.3</ele>
        <time>2015-06-08T13:59:13Z</time>
      </trkpt>
      <trkpt lat="47.50508" lon="6.79683">
        <ele>298.3</ele>
        <time>2015-06-08T13:59:14Z</time>
      </trkpt>
      <trkpt lat="47.50507" lon="6.79676">
        <ele>298.2</ele>
        <time>2015-06-08T13:59:15Z</time>
      </trkpt>
      <trkpt lat="47.50506" lon="6.79668">
        <ele>298.2</ele>
        <time>2015-06-08T13:59:16Z</time>
      </trkpt>
      <trkpt lat="47.50505" lon="6.79661">
        <ele>298.2</ele>
        <time>2015-06-08T13:59:16Z</time>
      </trkpt>
      <trkpt lat="47.50504" lon="6.79653">
        <ele>298.4</ele>
        <time>2015-06-08T13:59:18Z</time>
      </trkpt>
      <trkpt lat="47.50503" lon="6.79646">
        <ele>298.7</ele>
        <time>2015-06-08T13:59:18Z</time>
      </trkpt>
      <trkpt lat="47.50502" lon="6.79638">
        <ele>298.9</ele>
        <time>2015-06-08T13:59:19Z</time>
      </trkpt>
      <trkpt lat="47.50501" lon="6.7963">
        <ele>299.2</ele>
        <time>2015-06-08T13:59:20Z</time>
      </trkpt>
      <trkpt lat="47.50499" lon="6.79622">
        <ele>299.6</ele>
        <time>2015-06-08T13:59:21Z</time>
      </trkpt>
      <trkpt lat="47.50498" lon="6.79614">
        <ele>299.7</ele>
        <time>2015-06-08T13:59:23Z</time>
      </trkpt>
      <trkpt lat="47.50497" lon="6.79606">
        <ele>300</ele>
        <time>2015-06-08T13:59:23Z</time>
      </trkpt>
      <trkpt lat="47.50495" lon="6.79598">
        <ele>300.1</ele>
        <time>2015-06-08T13:59:24Z</time>
      </trkpt>
      <trkpt lat="47.50495" lon="6.79591">
        <ele>300.5</ele>
        <time>2015-06-08T13:59:25Z</time>
      </trkpt>
      <trkpt lat="47.50493" lon="6.79583">
        <ele>300.6</ele>
        <time>2015-06-08T13:59:27Z</time>
      </trkpt>
      <trkpt lat="47.50492" lon="6.79575">
        <ele>300.7</ele>
        <time>2015-06-08T13:59:27Z</time>
      </trkpt>
      <trkpt lat="47.50491" lon="6.79567">
        <ele>300.9</ele>
        <time>2015-06-08T13:59:28Z</time>
      </trkpt>
      <trkpt lat="47.5049" lon="6.7956">
        <ele>301</ele>
        <time>2015-06-08T13:59:30Z</time>
      </trkpt>
      <trkpt lat="47.50489" lon="6.79552">
        <ele>301.1</ele>
        <time>2015-06-08T13:59:30Z</time>
      </trkpt>
      <trkpt lat="47.50488" lon="6.79545">
        <ele>301.2</ele>
        <time>2015-06-08T13:59:32Z</time>
      </trkpt>
      <trkpt lat="47.50488" lon="6.79538">
        <ele>301.3</ele>
        <time>2015-06-08T13:59:33Z</time>
      </trkpt>
      <trkpt lat="47.50487" lon="6.79531">
        <ele>301.5</ele>
        <time>2015-06-08T13:59:34Z</time>
      </trkpt>
      <trkpt lat="47.50486" lon="6.79526">
        <ele>302.3</ele>
        <time>2015-06-08T13:59:35Z</time>
      </trkpt>
      <trkpt lat="47.50484" lon="6.7952">
        <ele>302.8</ele>
        <time>2015-06-08T13:59:35Z</time>
      </trkpt>
      <trkpt lat="47.50483" lon="6.79514">
        <ele>303.1</ele>
        <time>2015-06-08T13:59:36Z</time>
      </trkpt>
      <trkpt lat="47.50482" lon="6.79508">
        <ele>303.2</ele>
        <time>2015-06-08T13:59:37Z</time>
      </trkpt>
      <trkpt lat="47.50481" lon="6.79503">
        <ele>303.4</ele>
        <time>2015-06-08T13:59:39Z</time>
      </trkpt>
      <trkpt lat="47.50481" lon="6.79496">
        <ele>303.4</ele>
        <time>2015-06-08T13:59:40Z</time>
      </trkpt>
      <trkpt lat="47.50481" lon="6.7949">
        <ele>303.7</ele>
        <time>2015-06-08T13:59:41Z</time>
      </trkpt>
      <trkpt lat="47.50481" lon="6.79483">
        <ele>304.1</ele>
        <time>2015-06-08T13:59:41Z</time>
      </trkpt>
      <trkpt lat="47.5048" lon="6.79476">
        <ele>304.4</ele>
        <time>2015-06-08T13:59:43Z</time>
      </trkpt>
      <trkpt lat="47.50481" lon="6.79469">
        <ele>304.7</ele>
        <time>2015-06-08T13:59:44Z</time>
      </trkpt>
      <trkpt lat="47.50481" lon="6.79461">
        <ele>304.9</ele>
        <time>2015-06-08T13:59:45Z</time>
      </trkpt>
      <trkpt lat="47.50481" lon="6.79454">
        <ele>305.2</ele>
        <time>2015-06-08T13:59:45Z</time>
      </trkpt>
      <trkpt lat="47.50482" lon="6.79446">
        <ele>305.4</ele>
        <time>2015-06-08T13:59:46Z</time>
      </trkpt>
      <trkpt lat="47.50483" lon="6.79439">
        <ele>305.5</ele>
        <time>2015-06-08T13:59:48Z</time>
      </trkpt>
      <trkpt lat="47.50484" lon="6.79431">
        <ele>305.7</ele>
        <time>2015-06-08T13:59:49Z</time>
      </trkpt>
      <trkpt lat="47.50484" lon="6.79424">
        <ele>305.9</ele>
        <time>2015-06-08T13:59:49Z</time>
      </trkpt>
      <trkpt lat="47.50484" lon="6.79416">
        <ele>306.2</ele>
        <time>2015-06-08T13:59:50Z</time>
      </trkpt>
      <trkpt lat="47.50483" lon="6.79409">
        <ele>306.4</ele>
        <time>2015-06-08T13:59:51Z</time>
      </trkpt>
      <trkpt lat="47.50482" lon="6.79401">
        <ele>307</ele>
        <time>2015-06-08T13:59:53Z</time>
      </trkpt>
      <trkpt lat="47.5048" lon="6.79394">
        <ele>307.3</ele>
        <time>2015-06-08T13:59:54Z</time>
      </trkpt>
      <trkpt lat="47.50479" lon="6.79386">
        <ele>307.7</ele>
        <time>2015-06-08T13:59:54Z</time>
      </trkpt>
      <trkpt lat="47.50477" lon="6.7938">
        <ele>308</ele>
        <time>2015-06-08T13:59:55Z</time>
      </trkpt>
      <trkpt lat="47.50475" lon="6.79373">
        <ele>308.2</ele>
        <time>2015-06-08T13:59:56Z</time>
      </trkpt>
      <trkpt lat="47.50473" lon="6.79366">
        <ele>308.7</ele>
        <time>2015-06-08T13:59:57Z</time>
      </trkpt>
      <trkpt lat="47.50472" lon="6.79359">
        <ele>309.1</ele>
        <time>2015-06-08T13:59:58Z</time>
      </trkpt>
      <trkpt lat="47.50471" lon="6.79351">
        <ele>309.3</ele>
        <time>2015-06-08T13:59:59Z</time>
      </trkpt>
      <trkpt lat="47.5047" lon="6.79344">
        <ele>309.6</ele>
        <time>2015-06-08T14:00:00Z</time>
      </trkpt>
      <trkpt lat="47.50469" lon="6.79337">
        <ele>309.9</ele>
        <time>2015-06-08T14:00:01Z</time>
      </trkpt>
      <trkpt lat="47.50468" lon="6.79329">
        <ele>310</ele>
        <time>2015-06-08T14:00:03Z</time>
      </trkpt>
      <trkpt lat="47.50467" lon="6.79321">
        <ele>310</ele>
        <time>2015-06-08T14:00:03Z</time>
      </trkpt>
      <trkpt lat="47.50467" lon="6.79314">
        <ele>310.2</ele>
        <time>2015-06-08T14:00:05Z</time>
      </trkpt>
      <trkpt lat="47.50466" lon="6.79306">
        <ele>310.4</ele>
        <time>2015-06-08T14:00:05Z</time>
      </trkpt>
      <trkpt lat="47.50465" lon="6.79299">
        <ele>310.5</ele>
        <time>2015-06-08T14:00:06Z</time>
      </trkpt>
      <trkpt lat="47.50464" lon="6.79291">
        <ele>310.6</ele>
        <time>2015-06-08T14:00:07Z</time>
      </trkpt>
      <trkpt lat="47.50462" lon="6.79284">
        <ele>310.7</ele>
        <time>2015-06-08T14:00:09Z</time>
      </trkpt>
      <trkpt lat="47.50461" lon="6.79277">
        <ele>310.7</ele>
        <time>2015-06-08T14:00:10Z</time>
      </trkpt>
      <trkpt lat="47.50459" lon="6.7927">
        <ele>310.9</ele>
        <time>2015-06-08T14:00:11Z</time>
      </trkpt>
      <trkpt lat="47.50458" lon="6.79263">
        <ele>311.2</ele>
        <time>2015-06-08T14:00:11Z</time>
      </trkpt>
      <trkpt lat="47.50456" lon="6.79256">
        <ele>311.5</ele>
        <time>2015-06-08T14:00:12Z</time>
      </trkpt>
      <trkpt lat="47.50455" lon="6.79249">
        <ele>311.8</ele>
        <time>2015-06-08T14:00:14Z</time>
      </trkpt>
      <trkpt lat="47.50453" lon="6.79242">
        <ele>312</ele>
        <time>2015-06-08T14:00:14Z</time>
      </trkpt>
      <trkpt lat="47.50452" lon="6.79235">
        <ele>312.3</ele>
        <time>2015-06-08T14:00:16Z</time>
      </trkpt>
      <trkpt lat="47.50451" lon="6.79229">
        <ele>312.5</ele>
        <time>2015-06-08T14:00:16Z</time>
      </trkpt>
      <trkpt lat="47.5045" lon="6.79222">
        <ele>312.8</ele>
        <time>2015-06-08T14:00:18Z</time>
      </trkpt>
      <trkpt lat="47.50449" lon="6.79215">
        <ele>313</ele>
        <time>2015-06-08T14:00:19Z</time>
      </trkpt>
      <trkpt lat="47.50448" lon="6.79208">
        <ele>313.2</ele>
        <time>2015-06-08T14:00:20Z</time>
      </trkpt>
      <trkpt lat="47.50447" lon="6.792">
        <ele>313.4</ele>
        <time>2015-06-08T14:00:21Z</time>
      </trkpt>
      <trkpt lat="47.50446" lon="6.79193">
        <ele>313.5</ele>
        <time>2015-06-08T14:00:22Z</time>
      </trkpt>
      <trkpt lat="47.50445" lon="6.79186">
        <ele>313.7</ele>
        <time>2015-06-08T14:00:22Z</time>
      </trkpt>
      <trkpt lat="47.50443" lon="6.79179">
        <ele>313.7</ele>
        <time>2015-06-08T14:00:23Z</time>
      </trkpt>
      <trkpt lat="47.50441" lon="6.79171">
        <ele>314.4</ele>
        <time>2015-06-08T14:00:24Z</time>
      </trkpt>
      <trkpt lat="47.50438" lon="6.79165">
        <ele>314.2</ele>
        <time>2015-06-08T14:00:25Z</time>
      </trkpt>
      <trkpt lat="47.50435" lon="6.79158">
        <ele>314</ele>
        <time>2015-06-08T14:00:27Z</time>
      </trkpt>
      <trkpt lat="47.50432" lon="6.79152">
        <ele>313.4</ele>
        <time>2015-06-08T14:00:27Z</time>
      </trkpt>
      <trkpt lat="47.50428" lon="6.79146">
        <ele>313.1</ele>
        <time>2015-06-08T14:00:28Z</time>
      </trkpt>
      <trkpt lat="47.50424" lon="6.7914">
        <ele>312.6</ele>
        <time>2015-06-08T14:00:29Z</time>
      </trkpt>
      <trkpt lat="47.50421" lon="6.79133">
        <ele>312.3</ele>
        <time>2015-06-08T14:00:30Z</time>
      </trkpt>
      <trkpt lat="47.50417" lon="6.79127">
        <ele>311.9</ele>
        <time>2015-06-08T14:00:32Z</time>
      </trkpt>
      <trkpt lat="47.50414" lon="6.7912">
        <ele>311.6</ele>
        <time>2015-06-08T14:00:32Z</time>
      </trkpt>
      <trkpt lat="47.50412" lon="6.79112">
        <ele>311.3</ele>
        <time>2015-06-08T14:00:33Z</time>
      </trkpt>
      <trkpt lat="47.50411" lon="6.79104">
        <ele>311</ele>
        <time>2015-06-08T14:00:35Z</time>
      </trkpt>
      <trkpt lat="47.50411" lon="6.79095">
        <ele>310.9</ele>
        <time>2015-06-08T14:00:35Z</time>
      </trkpt>
      <trkpt lat="47.5041" lon="6.79087">
        <ele>310.7</ele>
        <time>2015-06-08T14:00:36Z</time>
      </trkpt>
      <trkpt lat="47.50409" lon="6.79079">
        <ele>310.5</ele>
        <time>2015-06-08T14:00:38Z</time>
      </trkpt>
      <trkpt lat="47.50408" lon="6.79071">
        <ele>310.4</ele>
        <time>2015-06-08T14:00:39Z</time>
      </trkpt>
      <trkpt lat="47.50407" lon="6.79063">
        <ele>310.2</ele>
        <time>2015-06-08T14:00:40Z</time>
      </trkpt>
      <trkpt lat="47.50406" lon="6.79055">
        <ele>310.1</ele>
        <time>2015-06-08T14:00:41Z</time>
      </trkpt>
      <trkpt lat="47.50405" lon="6.79047">
        <ele>309.9</ele>
        <time>2015-06-08T14:00:42Z</time>
      </trkpt>
      <trkpt lat="47.50404" lon="6.79039">
        <ele>309.8</ele>
        <time>2015-06-08T14:00:43Z</time>
      </trkpt>
      <trkpt lat="47.50404" lon="6.79031">
        <ele>309.7</ele>
        <time>2015-06-08T14:00:44Z</time>
      </trkpt>
      <trkpt lat="47.50403" lon="6.79023">
        <ele>309.6</ele>
        <time>2015-06-08T14:00:45Z</time>
      </trkpt>
      <trkpt lat="47.50402" lon="6.79016">
        <ele>309.5</ele>
        <time>2015-06-08T14:00:46Z</time>
      </trkpt>
      <trkpt lat="47.50402" lon="6.79008">
        <ele>309.4</ele>
        <time>2015-06-08T14:00:46Z</time>
      </trkpt>
      <trkpt lat="47.50402" lon="6.79001">
        <ele>309.3</ele>
        <time>2015-06-08T14:00:47Z</time>
      </trkpt>
      <trkpt lat="47.50401" lon="6.78993">
        <ele>309.2</ele>
        <time>2015-06-08T14:00:48Z</time>
      </trkpt>
      <trkpt lat="47.50401" lon="6.78985">
        <ele>309</ele>
        <time>2015-06-08T14:00:49Z</time>
      </trkpt>
      <trkpt lat="47.504" lon="6.78978">
        <ele>308.7</ele>
        <time>2015-06-08T14:00:50Z</time>
      </trkpt>
      <trkpt lat="47.50399" lon="6.78972">
        <ele>308.5</ele>
        <time>2015-06-08T14:00:51Z</time>
      </trkpt>
      <trkpt lat="47.50398" lon="6.78965">
        <ele>308.3</ele>
        <time>2015-06-08T14:00:52Z</time>
      </trkpt>
      <trkpt lat="47.50397" lon="6.78958">
        <ele>308.1</ele>
        <time>2015-06-08T14:00:53Z</time>
      </trkpt>
      <trkpt lat="47.50397" lon="6.78951">
        <ele>307.9</ele>
        <time>2015-06-08T14:00:54Z</time>
      </trkpt>
      <trkpt lat="47.50397" lon="6.78943">
        <ele>307.6</ele>
        <time>2015-06-08T14:00:55Z</time>
      </trkpt>
      <trkpt lat="47.50398" lon="6.78935">
        <ele>307.4</ele>
        <time>2015-06-08T14:00:56Z</time>
      </trkpt>
      <trkpt lat="47.50399" lon="6.78928">
        <ele>307.2</ele>
        <time>2015-06-08T14:00:57Z</time>
      </trkpt>
      <trkpt lat="47.50399" lon="6.7892">
        <ele>307</ele>
        <time>2015-06-08T14:00:58Z</time>
      </trkpt>
      <trkpt lat="47.50399" lon="6.78913">
        <ele>306.8</ele>
        <time>2015-06-08T14:00:59Z</time>
      </trkpt>
      <trkpt lat="47.50399" lon="6.78905">
        <ele>306.6</ele>
        <time>2015-06-08T14:01:00Z</time>
      </trkpt>
      <trkpt lat="47.504" lon="6.78898">
        <ele>306.4</ele>
        <time>2015-06-08T14:01:01Z</time>
      </trkpt>
      <trkpt lat="47.504" lon="6.78891">
        <ele>306.2</ele>
        <time>2015-06-08T14:01:03Z</time>
      </trkpt>
      <trkpt lat="47.504" lon="6.78884">
        <ele>306</ele>
        <time>2015-06-08T14:01:04Z</time>
      </trkpt>
      <trkpt lat="47.504" lon="6.78876">
        <ele>305.8</ele>
        <time>2015-06-08T14:01:04Z</time>
      </trkpt>
      <trkpt lat="47.504" lon="6.78869">
        <ele>305.7</ele>
        <time>2015-06-08T14:01:06Z</time>
      </trkpt>
      <trkpt lat="47.50401" lon="6.78862">
        <ele>305.4</ele>
        <time>2015-06-08T14:01:06Z</time>
      </trkpt>
      <trkpt lat="47.50401" lon="6.78855">
        <ele>305.1</ele>
        <time>2015-06-08T14:01:07Z</time>
      </trkpt>
      <trkpt lat="47.50401" lon="6.78848">
        <ele>304.9</ele>
        <time>2015-06-08T14:01:08Z</time>
      </trkpt>
      <trkpt lat="47.50401" lon="6.78841">
        <ele>304.7</ele>
        <time>2015-06-08T14:01:09Z</time>
      </trkpt>
      <trkpt lat="47.50402" lon="6.78834">
        <ele>304.8</ele>
        <time>2015-06-08T14:01:10Z</time>
      </trkpt>
      <trkpt lat="47.50403" lon="6.78826">
        <ele>304.6</ele>
        <time>2015-06-08T14:01:11Z</time>
      </trkpt>
      <trkpt lat="47.50404" lon="6.78818">
        <ele>304.6</ele>
        <time>2015-06-08T14:01:12Z</time>
      </trkpt>
      <trkpt lat="47.50406" lon="6.7881">
        <ele>304.4</ele>
        <time>2015-06-08T14:01:13Z</time>
      </trkpt>
      <trkpt lat="47.50407" lon="6.78803">
        <ele>304.1</ele>
        <time>2015-06-08T14:01:14Z</time>
      </trkpt>
      <trkpt lat="47.50409" lon="6.78795">
        <ele>303.8</ele>
        <time>2015-06-08T14:01:15Z</time>
      </trkpt>
      <trkpt lat="47.5041" lon="6.78788">
        <ele>303.8</ele>
        <time>2015-06-08T14:01:16Z</time>
      </trkpt>
      <trkpt lat="47.50412" lon="6.7878">
        <ele>303.7</ele>
        <time>2015-06-08T14:01:17Z</time>
      </trkpt>
      <trkpt lat="47.50413" lon="6.78773">
        <ele>303.4</ele>
        <time>2015-06-08T14:01:18Z</time>
      </trkpt>
      <trkpt lat="47.50414" lon="6.78765">
        <ele>303.1</ele>
        <time>2015-06-08T14:01:20Z</time>
      </trkpt>
      <trkpt lat="47.50415" lon="6.78756">
        <ele>303.2</ele>
        <time>2015-06-08T14:01:21Z</time>
      </trkpt>
      <trkpt lat="47.50416" lon="6.78748">
        <ele>303.1</ele>
        <time>2015-06-08T14:01:21Z</time>
      </trkpt>
      <trkpt lat="47.50418" lon="6.78741">
        <ele>303.1</ele>
        <time>2015-06-08T14:01:22Z</time>
      </trkpt>
      <trkpt lat="47.50419" lon="6.78733">
        <ele>302.9</ele>
        <time>2015-06-08T14:01:23Z</time>
      </trkpt>
      <trkpt lat="47.50421" lon="6.78726">
        <ele>303</ele>
        <time>2015-06-08T14:01:25Z</time>
      </trkpt>
      <trkpt lat="47.50423" lon="6.78718">
        <ele>303</ele>
        <time>2015-06-08T14:01:26Z</time>
      </trkpt>
      <trkpt lat="47.50424" lon="6.7871">
        <ele>303</ele>
        <time>2015-06-08T14:01:27Z</time>
      </trkpt>
      <trkpt lat="47.50427" lon="6.78703">
        <ele>303</ele>
        <time>2015-06-08T14:01:28Z</time>
      </trkpt>
      <trkpt lat="47.5043" lon="6.78695">
        <ele>303.2</ele>
        <time>2015-06-08T14:01:28Z</time>
      </trkpt>
      <trkpt lat="47.50432" lon="6.78687">
        <ele>303.2</ele>
        <time>2015-06-08T14:01:29Z</time>
      </trkpt>
      <trkpt lat="47.50434" lon="6.7868">
        <ele>303.3</ele>
        <time>2015-06-08T14:01:30Z</time>
      </trkpt>
      <trkpt lat="47.50435" lon="6.78673">
        <ele>303.5</ele>
        <time>2015-06-08T14:01:32Z</time>
      </trkpt>
      <trkpt lat="47.50437" lon="6.78666">
        <ele>303.7</ele>
        <time>2015-06-08T14:01:33Z</time>
      </trkpt>
      <trkpt lat="47.50438" lon="6.78659">
        <ele>303.9</ele>
        <time>2015-06-08T14:01:34Z</time>
      </trkpt>
      <trkpt lat="47.5044" lon="6.78652">
        <ele>304.2</ele>
        <time>2015-06-08T14:01:35Z</time>
      </trkpt>
      <trkpt lat="47.50441" lon="6.78646">
        <ele>304.3</ele>
        <time>2015-06-08T14:01:36Z</time>
      </trkpt>
      <trkpt lat="47.50443" lon="6.7864">
        <ele>304.5</ele>
        <time>2015-06-08T14:01:37Z</time>
      </trkpt>
      <trkpt lat="47.50445" lon="6.78633">
        <ele>304.6</ele>
        <time>2015-06-08T14:01:38Z</time>
      </trkpt>
      <trkpt lat="47.50447" lon="6.78626">
        <ele>304.8</ele>
        <time>2015-06-08T14:01:39Z</time>
      </trkpt>
      <trkpt lat="47.50449" lon="6.7862">
        <ele>304.8</ele>
        <time>2015-06-08T14:01:39Z</time>
      </trkpt>
      <trkpt lat="47.50451" lon="6.78613">
        <ele>304.9</ele>
        <time>2015-06-08T14:01:40Z</time>
      </trkpt>
      <trkpt lat="47.50454" lon="6.78607">
        <ele>304.8</ele>
        <time>2015-06-08T14:01:41Z</time>
      </trkpt>
      <trkpt lat="47.50455" lon="6.786">
        <ele>304.7</ele>
        <time>2015-06-08T14:01:42Z</time>
      </trkpt>
      <trkpt lat="47.50457" lon="6.78593">
        <ele>304.7</ele>
        <time>2015-06-08T14:01:44Z</time>
      </trkpt>
      <trkpt lat="47.50458" lon="6.78586">
        <ele>305</ele>
        <time>2015-06-08T14:01:44Z</time>
      </trkpt>
      <trkpt lat="47.5046" lon="6.78579">
        <ele>305.2</ele>
        <time>2015-06-08T14:01:45Z</time>
      </trkpt>
      <trkpt lat="47.50461" lon="6.78571">
        <ele>305.4</ele>
        <time>2015-06-08T14:01:46Z</time>
      </trkpt>
      <trkpt lat="47.50463" lon="6.78564">
        <ele>305.6</ele>
        <time>2015-06-08T14:01:48Z</time>
      </trkpt>
      <trkpt lat="47.50465" lon="6.78558">
        <ele>305.9</ele>
        <time>2015-06-08T14:01:48Z</time>
      </trkpt>
      <trkpt lat="47.50467" lon="6.78551">
        <ele>306.1</ele>
        <time>2015-06-08T14:01:49Z</time>
      </trkpt>
      <trkpt lat="47.50468" lon="6.78544">
        <ele>306.5</ele>
        <time>2015-06-08T14:01:50Z</time>
      </trkpt>
      <trkpt lat="47.5047" lon="6.78537">
        <ele>306.7</ele>
        <time>2015-06-08T14:01:51Z</time>
      </trkpt>
      <trkpt lat="47.50471" lon="6.7853">
        <ele>307.1</ele>
        <time>2015-06-08T14:01:52Z</time>
      </trkpt>
      <trkpt lat="47.50473" lon="6.78523">
        <ele>307.5</ele>
        <time>2015-06-08T14:01:54Z</time>
      </trkpt>
      <trkpt lat="47.50475" lon="6.78516">
        <ele>307.8</ele>
        <time>2015-06-08T14:01:54Z</time>
      </trkpt>
      <trkpt lat="47.50477" lon="6.78509">
        <ele>308.1</ele>
        <time>2015-06-08T14:01:55Z</time>
      </trkpt>
      <trkpt lat="47.50478" lon="6.78503">
        <ele>308.3</ele>
        <time>2015-06-08T14:01:56Z</time>
      </trkpt>
      <trkpt lat="47.5048" lon="6.78495">
        <ele>308.3</ele>
        <time>2015-06-08T14:01:57Z</time>
      </trkpt>
      <trkpt lat="47.50481" lon="6.78488">
        <ele>308.3</ele>
        <time>2015-06-08T14:01:58Z</time>
      </trkpt>
      <trkpt lat="47.50481" lon="6.78481">
        <ele>308.5</ele>
        <time>2015-06-08T14:01:59Z</time>
      </trkpt>
      <trkpt lat="47.50482" lon="6.78474">
        <ele>308.6</ele>
        <time>2015-06-08T14:02:00Z</time>
      </trkpt>
      <trkpt lat="47.50484" lon="6.78467">
        <ele>308.7</ele>
        <time>2015-06-08T14:02:01Z</time>
      </trkpt>
      <trkpt lat="47.50485" lon="6.7846">
        <ele>308.6</ele>
        <time>2015-06-08T14:02:02Z</time>
      </trkpt>
      <trkpt lat="47.50487" lon="6.78452">
        <ele>308.8</ele>
        <time>2015-06-08T14:02:03Z</time>
      </trkpt>
      <trkpt lat="47.50489" lon="6.78444">
        <ele>309</ele>
        <time>2015-06-08T14:02:04Z</time>
      </trkpt>
      <trkpt lat="47.50491" lon="6.78436">
        <ele>309</ele>
        <time>2015-06-08T14:02:05Z</time>
      </trkpt>
      <trkpt lat="47.50493" lon="6.78429">
        <ele>309</ele>
        <time>2015-06-08T14:02:06Z</time>
      </trkpt>
      <trkpt lat="47.50495" lon="6.78421">
        <ele>308.9</ele>
        <time>2015-06-08T14:02:08Z</time>
      </trkpt>
      <trkpt lat="47.50496" lon="6.78413">
        <ele>308.9</ele>
        <time>2015-06-08T14:02:08Z</time>
      </trkpt>
      <trkpt lat="47.50498" lon="6.78404">
        <ele>309.2</ele>
        <time>2015-06-08T14:02:10Z</time>
      </trkpt>
      <trkpt lat="47.50498" lon="6.78396">
        <ele>309.4</ele>
        <time>2015-06-08T14:02:11Z</time>
      </trkpt>
      <trkpt lat="47.505" lon="6.78388">
        <ele>309.9</ele>
        <time>2015-06-08T14:02:11Z</time>
      </trkpt>
      <trkpt lat="47.50502" lon="6.78381">
        <ele>310.1</ele>
        <time>2015-06-08T14:02:12Z</time>
      </trkpt>
      <trkpt lat="47.50505" lon="6.78374">
        <ele>310.4</ele>
        <time>2015-06-08T14:02:13Z</time>
      </trkpt>
      <trkpt lat="47.50507" lon="6.78366">
        <ele>310.6</ele>
        <time>2015-06-08T14:02:15Z</time>
      </trkpt>
      <trkpt lat="47.50508" lon="6.78358">
        <ele>310.6</ele>
        <time>2015-06-08T14:02:15Z</time>
      </trkpt>
      <trkpt lat="47.5051" lon="6.7835">
        <ele>310.9</ele>
        <time>2015-06-08T14:02:16Z</time>
      </trkpt>
      <trkpt lat="47.50511" lon="6.78341">
        <ele>311.2</ele>
        <time>2015-06-08T14:02:17Z</time>
      </trkpt>
      <trkpt lat="47.50513" lon="6.78333">
        <ele>311.3</ele>
        <time>2015-06-08T14:02:18Z</time>
      </trkpt>
      <trkpt lat="47.50514" lon="6.78325">
        <ele>311.5</ele>
        <time>2015-06-08T14:02:19Z</time>
      </trkpt>
      <trkpt lat="47.50516" lon="6.78317">
        <ele>311.5</ele>
        <time>2015-06-08T14:02:20Z</time>
      </trkpt>
      <trkpt lat="47.50518" lon="6.78309">
        <ele>311.3</ele>
        <time>2015-06-08T14:02:21Z</time>
      </trkpt>
      <trkpt lat="47.50519" lon="6.78301">
        <ele>311.1</ele>
        <time>2015-06-08T14:02:22Z</time>
      </trkpt>
      <trkpt lat="47.5052" lon="6.78293">
        <ele>310.7</ele>
        <time>2015-06-08T14:02:24Z</time>
      </trkpt>
      <trkpt lat="47.50522" lon="6.78285">
        <ele>310.7</ele>
        <time>2015-06-08T14:02:24Z</time>
      </trkpt>
      <trkpt lat="47.50523" lon="6.78276">
        <ele>310.5</ele>
        <time>2015-06-08T14:02:25Z</time>
      </trkpt>
      <trkpt lat="47.50524" lon="6.78268">
        <ele>310.6</ele>
        <time>2015-06-08T14:02:26Z</time>
      </trkpt>
      <trkpt lat="47.50526" lon="6.7826">
        <ele>310.5</ele>
        <time>2015-06-08T14:02:27Z</time>
      </trkpt>
      <trkpt lat="47.50528" lon="6.78253">
        <ele>311.1</ele>
        <time>2015-06-08T14:02:28Z</time>
      </trkpt>
      <trkpt lat="47.50529" lon="6.78245">
        <ele>311.4</ele>
        <time>2015-06-08T14:02:29Z</time>
      </trkpt>
      <trkpt lat="47.5053" lon="6.78236">
        <ele>311.6</ele>
        <time>2015-06-08T14:02:30Z</time>
      </trkpt>
      <trkpt lat="47.50532" lon="6.78229">
        <ele>311.7</ele>
        <time>2015-06-08T14:02:31Z</time>
      </trkpt>
      <trkpt lat="47.50534" lon="6.78221">
        <ele>311.6</ele>
        <time>2015-06-08T14:02:32Z</time>
      </trkpt>
      <trkpt lat="47.50535" lon="6.78213">
        <ele>311.7</ele>
        <time>2015-06-08T14:02:33Z</time>
      </trkpt>
      <trkpt lat="47.50536" lon="6.78206">
        <ele>311.8</ele>
        <time>2015-06-08T14:02:34Z</time>
      </trkpt>
      <trkpt lat="47.50538" lon="6.78198">
        <ele>311.5</ele>
        <time>2015-06-08T14:02:35Z</time>
      </trkpt>
      <trkpt lat="47.50539" lon="6.78191">
        <ele>311.4</ele>
        <time>2015-06-08T14:02:36Z</time>
      </trkpt>
      <trkpt lat="47.5054" lon="6.78184">
        <ele>311.3</ele>
        <time>2015-06-08T14:02:38Z</time>
      </trkpt>
      <trkpt lat="47.50542" lon="6.78177">
        <ele>311.3</ele>
        <time>2015-06-08T14:02:38Z</time>
      </trkpt>
      <trkpt lat="47.50543" lon="6.7817">
        <ele>311.3</ele>
        <time>2015-06-08T14:02:39Z</time>
      </trkpt>
      <trkpt lat="47.50545" lon="6.78164">
        <ele>311.5</ele>
        <time>2015-06-08T14:02:40Z</time>
      </trkpt>
      <trkpt lat="47.50547" lon="6.78157">
        <ele>311.6</ele>
        <time>2015-06-08T14:02:41Z</time>
      </trkpt>
      <trkpt lat="47.50549" lon="6.7815">
        <ele>311.6</ele>
        <time>2015-06-08T14:02:42Z</time>
      </trkpt>
      <trkpt lat="47.5055" lon="6.78143">
        <ele>311.8</ele>
        <time>2015-06-08T14:02:43Z</time>
      </trkpt>
      <trkpt lat="47.50551" lon="6.78136">
        <ele>311.8</ele>
        <time>2015-06-08T14:02:44Z</time>
      </trkpt>
      <trkpt lat="47.50552" lon="6.78129">
        <ele>311.8</ele>
        <time>2015-06-08T14:02:45Z</time>
      </trkpt>
      <trkpt lat="47.50554" lon="6.78122">
        <ele>312</ele>
        <time>2015-06-08T14:02:46Z</time>
      </trkpt>
      <trkpt lat="47.50555" lon="6.78115">
        <ele>312.2</ele>
        <time>2015-06-08T14:02:47Z</time>
      </trkpt>
      <trkpt lat="47.50556" lon="6.78107">
        <ele>312.4</ele>
        <time>2015-06-08T14:02:48Z</time>
      </trkpt>
      <trkpt lat="47.50557" lon="6.78099">
        <ele>312.3</ele>
        <time>2015-06-08T14:02:49Z</time>
      </trkpt>
      <trkpt lat="47.50557" lon="6.7809">
        <ele>312.1</ele>
        <time>2015-06-08T14:02:50Z</time>
      </trkpt>
      <trkpt lat="47.50556" lon="6.78081">
        <ele>311.9</ele>
        <time>2015-06-08T14:02:51Z</time>
      </trkpt>
      <trkpt lat="47.50556" lon="6.78072">
        <ele>311.7</ele>
        <time>2015-06-08T14:02:53Z</time>
      </trkpt>
      <trkpt lat="47.50556" lon="6.78064">
        <ele>311.6</ele>
        <time>2015-06-08T14:02:54Z</time>
      </trkpt>
      <trkpt lat="47.50555" lon="6.78056">
        <ele>311.6</ele>
        <time>2015-06-08T14:02:54Z</time>
      </trkpt>
      <trkpt lat="47.50555" lon="6.78047">
        <ele>311.7</ele>
        <time>2015-06-08T14:02:55Z</time>
      </trkpt>
      <trkpt lat="47.50554" lon="6.78039">
        <ele>311.6</ele>
        <time>2015-06-08T14:02:56Z</time>
      </trkpt>
      <trkpt lat="47.50553" lon="6.78031">
        <ele>311.5</ele>
        <time>2015-06-08T14:02:57Z</time>
      </trkpt>
      <trkpt lat="47.50552" lon="6.78023">
        <ele>311.5</ele>
        <time>2015-06-08T14:02:58Z</time>
      </trkpt>
      <trkpt lat="47.50551" lon="6.78015">
        <ele>311.4</ele>
        <time>2015-06-08T14:02:59Z</time>
      </trkpt>
      <trkpt lat="47.50549" lon="6.78007">
        <ele>311.3</ele>
        <time>2015-06-08T14:03:00Z</time>
      </trkpt>
      <trkpt lat="47.50548" lon="6.77999">
        <ele>311.2</ele>
        <time>2015-06-08T14:03:01Z</time>
      </trkpt>
      <trkpt lat="47.50547" lon="6.77991">
        <ele>311.2</ele>
        <time>2015-06-08T14:03:03Z</time>
      </trkpt>
      <trkpt lat="47.50546" lon="6.77985">
        <ele>311.1</ele>
        <time>2015-06-08T14:03:03Z</time>
      </trkpt>
      <trkpt lat="47.50544" lon="6.77978">
        <ele>311</ele>
        <time>2015-06-08T14:03:04Z</time>
      </trkpt>
      <trkpt lat="47.50542" lon="6.77972">
        <ele>310.7</ele>
        <time>2015-06-08T14:03:05Z</time>
      </trkpt>
      <trkpt lat="47.50541" lon="6.77965">
        <ele>310.5</ele>
        <time>2015-06-08T14:03:06Z</time>
      </trkpt>
      <trkpt lat="47.50539" lon="6.77957">
        <ele>310.3</ele>
        <time>2015-06-08T14:03:07Z</time>
      </trkpt>
      <trkpt lat="47.50538" lon="6.7795">
        <ele>310.2</ele>
        <time>2015-06-08T14:03:08Z</time>
      </trkpt>
      <trkpt lat="47.50536" lon="6.77943">
        <ele>310.2</ele>
        <time>2015-06-08T14:03:09Z</time>
      </trkpt>
      <trkpt lat="47.50534" lon="6.77935">
        <ele>310</ele>
        <time>2015-06-08T14:03:10Z</time>
      </trkpt>
      <trkpt lat="47.50532" lon="6.77927">
        <ele>310.1</ele>
        <time>2015-06-08T14:03:12Z</time>
      </trkpt>
      <trkpt lat="47.5053" lon="6.77919">
        <ele>310</ele>
        <time>2015-06-08T14:03:12Z</time>
      </trkpt>
      <trkpt lat="47.50528" lon="6.77912">
        <ele>310.2</ele>
        <time>2015-06-08T14:03:13Z</time>
      </trkpt>
      <trkpt lat="47.50526" lon="6.77905">
        <ele>310.5</ele>
        <time>2015-06-08T14:03:14Z</time>
      </trkpt>
      <trkpt lat="47.50524" lon="6.77898">
        <ele>310.9</ele>
        <time>2015-06-08T14:03:15Z</time>
      </trkpt>
      <trkpt lat="47.50522" lon="6.7789">
        <ele>311.1</ele>
        <time>2015-06-08T14:03:16Z</time>
      </trkpt>
      <trkpt lat="47.5052" lon="6.77882">
        <ele>311.2</ele>
        <time>2015-06-08T14:03:17Z</time>
      </trkpt>
      <trkpt lat="47.50518" lon="6.77873">
        <ele>311.3</ele>
        <time>2015-06-08T14:03:18Z</time>
      </trkpt>
      <trkpt lat="47.50516" lon="6.77866">
        <ele>311.3</ele>
        <time>2015-06-08T14:03:19Z</time>
      </trkpt>
      <trkpt lat="47.50514" lon="6.77858">
        <ele>311.4</ele>
        <time>2015-06-08T14:03:20Z</time>
      </trkpt>
      <trkpt lat="47.50512" lon="6.7785">
        <ele>311.5</ele>
        <time>2015-06-08T14:03:21Z</time>
      </trkpt>
      <trkpt lat="47.5051" lon="6.77842">
        <ele>311.5</ele>
        <time>2015-06-08T14:03:22Z</time>
      </trkpt>
      <trkpt lat="47.50509" lon="6.77834">
        <ele>311.5</ele>
        <time>2015-06-08T14:03:23Z</time>
      </trkpt>
      <trkpt lat="47.50507" lon="6.77827">
        <ele>311.6</ele>
        <time>2015-06-08T14:03:24Z</time>
      </trkpt>
      <trkpt lat="47.50505" lon="6.77819">
        <ele>311.6</ele>
        <time>2015-06-08T14:03:25Z</time>
      </trkpt>
      <trkpt lat="47.50503" lon="6.77811">
        <ele>311.7</ele>
        <time>2015-06-08T14:03:26Z</time>
      </trkpt>
      <trkpt lat="47.50501" lon="6.77804">
        <ele>311.8</ele>
        <time>2015-06-08T14:03:27Z</time>
      </trkpt>
      <trkpt lat="47.50499" lon="6.77797">
        <ele>311.6</ele>
        <time>2015-06-08T14:03:28Z</time>
      </trkpt>
      <trkpt lat="47.50497" lon="6.7779">
        <ele>311.6</ele>
        <time>2015-06-08T14:03:30Z</time>
      </trkpt>
      <trkpt lat="47.50495" lon="6.77783">
        <ele>311.6</ele>
        <time>2015-06-08T14:03:30Z</time>
      </trkpt>
      <trkpt lat="47.50493" lon="6.77776">
        <ele>311.6</ele>
        <time>2015-06-08T14:03:31Z</time>
      </trkpt>
      <trkpt lat="47.50491" lon="6.77769">
        <ele>311</ele>
        <time>2015-06-08T14:03:32Z</time>
      </trkpt>
      <trkpt lat="47.50489" lon="6.77762">
        <ele>311.1</ele>
        <time>2015-06-08T14:03:33Z</time>
      </trkpt>
      <trkpt lat="47.50486" lon="6.77755">
        <ele>311.3</ele>
        <time>2015-06-08T14:03:34Z</time>
      </trkpt>
      <trkpt lat="47.50484" lon="6.77747">
        <ele>311.3</ele>
        <time>2015-06-08T14:03:35Z</time>
      </trkpt>
      <trkpt lat="47.50482" lon="6.7774">
        <ele>311.4</ele>
        <time>2015-06-08T14:03:36Z</time>
      </trkpt>
      <trkpt lat="47.50479" lon="6.77734">
        <ele>311.5</ele>
        <time>2015-06-08T14:03:37Z</time>
      </trkpt>
      <trkpt lat="47.50477" lon="6.77727">
        <ele>311.6</ele>
        <time>2015-06-08T14:03:38Z</time>
      </trkpt>
      <trkpt lat="47.50474" lon="6.77721">
        <ele>311.7</ele>
        <time>2015-06-08T14:03:39Z</time>
      </trkpt>
      <trkpt lat="47.50472" lon="6.77714">
        <ele>311.7</ele>
        <time>2015-06-08T14:03:40Z</time>
      </trkpt>
      <trkpt lat="47.50469" lon="6.77708">
        <ele>311.9</ele>
        <time>2015-06-08T14:03:41Z</time>
      </trkpt>
      <trkpt lat="47.50466" lon="6.77702">
        <ele>312</ele>
        <time>2015-06-08T14:03:42Z</time>
      </trkpt>
      <trkpt lat="47.50464" lon="6.77695">
        <ele>311.9</ele>
        <time>2015-06-08T14:03:43Z</time>
      </trkpt>
      <trkpt lat="47.50461" lon="6.77689">
        <ele>312.1</ele>
        <time>2015-06-08T14:03:44Z</time>
      </trkpt>
      <trkpt lat="47.50458" lon="6.77683">
        <ele>312.3</ele>
        <time>2015-06-08T14:03:45Z</time>
      </trkpt>
      <trkpt lat="47.50455" lon="6.77677">
        <ele>312.5</ele>
        <time>2015-06-08T14:03:46Z</time>
      </trkpt>
      <trkpt lat="47.50452" lon="6.7767">
        <ele>312.6</ele>
        <time>2015-06-08T14:03:47Z</time>
      </trkpt>
      <trkpt lat="47.50449" lon="6.77664">
        <ele>312.6</ele>
        <time>2015-06-08T14:03:48Z</time>
      </trkpt>
      <trkpt lat="47.50446" lon="6.77658">
        <ele>312.7</ele>
        <time>2015-06-08T14:03:49Z</time>
      </trkpt>
      <trkpt lat="47.50443" lon="6.77652">
        <ele>312.8</ele>
        <time>2015-06-08T14:03:50Z</time>
      </trkpt>
      <trkpt lat="47.50441" lon="6.77646">
        <ele>313</ele>
        <time>2015-06-08T14:03:51Z</time>
      </trkpt>
      <trkpt lat="47.50438" lon="6.7764">
        <ele>313.3</ele>
        <time>2015-06-08T14:03:52Z</time>
      </trkpt>
      <trkpt lat="47.50435" lon="6.77634">
        <ele>313.8</ele>
        <time>2015-06-08T14:03:53Z</time>
      </trkpt>
      <trkpt lat="47.50432" lon="6.77629">
        <ele>313.9</ele>
        <time>2015-06-08T14:03:54Z</time>
      </trkpt>
      <trkpt lat="47.50429" lon="6.77623">
        <ele>313.6</ele>
        <time>2015-06-08T14:03:55Z</time>
      </trkpt>
      <trkpt lat="47.50426" lon="6.77617">
        <ele>313.8</ele>
        <time>2015-06-08T14:03:57Z</time>
      </trkpt>
      <trkpt lat="47.50422" lon="6.77612">
        <ele>314.5</ele>
        <time>2015-06-08T14:03:57Z</time>
      </trkpt>
      <trkpt lat="47.50418" lon="6.77607">
        <ele>315</ele>
        <time>2015-06-08T14:03:58Z</time>
      </trkpt>
      <trkpt lat="47.50414" lon="6.77602">
        <ele>315.5</ele>
        <time>2015-06-08T14:04:00Z</time>
      </trkpt>
      <trkpt lat="47.5041" lon="6.77597">
        <ele>315.7</ele>
        <time>2015-06-08T14:04:00Z</time>
      </trkpt>
      <trkpt lat="47.50407" lon="6.77592">
        <ele>316.1</ele>
        <time>2015-06-08T14:04:01Z</time>
      </trkpt>
      <trkpt lat="47.50404" lon="6.77588">
        <ele>315.9</ele>
        <time>2015-06-08T14:04:02Z</time>
      </trkpt>
      <trkpt lat="47.50401" lon="6.77583">
        <ele>316.2</ele>
        <time>2015-06-08T14:04:03Z</time>
      </trkpt>
      <trkpt lat="47.50396" lon="6.77578">
        <ele>316</ele>
        <time>2015-06-08T14:04:04Z</time>
      </trkpt>
      <trkpt lat="47.50392" lon="6.77574">
        <ele>315.7</ele>
        <time>2015-06-08T14:04:05Z</time>
      </trkpt>
      <trkpt lat="47.50388" lon="6.77569">
        <ele>315.7</ele>
        <time>2015-06-08T14:04:06Z</time>
      </trkpt>
      <trkpt lat="47.50383" lon="6.77565">
        <ele>315.4</ele>
        <time>2015-06-08T14:04:07Z</time>
      </trkpt>
      <trkpt lat="47.50379" lon="6.77563">
        <ele>315.2</ele>
        <time>2015-06-08T14:04:09Z</time>
      </trkpt>
      <trkpt lat="47.50375" lon="6.77561">
        <ele>315.3</ele>
        <time>2015-06-08T14:04:09Z</time>
      </trkpt>
      <trkpt lat="47.50371" lon="6.77559">
        <ele>315.2</ele>
        <time>2015-06-08T14:04:11Z</time>
      </trkpt>
      <trkpt lat="47.50366" lon="6.77557">
        <ele>315.1</ele>
        <time>2015-06-08T14:04:11Z</time>
      </trkpt>
      <trkpt lat="47.50362" lon="6.77553">
        <ele>315.1</ele>
        <time>2015-06-08T14:04:13Z</time>
      </trkpt>
      <trkpt lat="47.50357" lon="6.7755">
        <ele>315</ele>
        <time>2015-06-08T14:04:13Z</time>
      </trkpt>
      <trkpt lat="47.50353" lon="6.77546">
        <ele>315.1</ele>
        <time>2015-06-08T14:04:15Z</time>
      </trkpt>
      <trkpt lat="47.50349" lon="6.77543">
        <ele>315.4</ele>
        <time>2015-06-08T14:04:16Z</time>
      </trkpt>
      <trkpt lat="47.50346" lon="6.77539">
        <ele>315.4</ele>
        <time>2015-06-08T14:04:16Z</time>
      </trkpt>
      <trkpt lat="47.50343" lon="6.77535">
        <ele>315.3</ele>
        <time>2015-06-08T14:04:17Z</time>
      </trkpt>
      <trkpt lat="47.50338" lon="6.77529">
        <ele>315.5</ele>
        <time>2015-06-08T14:04:19Z</time>
      </trkpt>
      <trkpt lat="47.50333" lon="6.77524">
        <ele>315.4</ele>
        <time>2015-06-08T14:04:19Z</time>
      </trkpt>
      <trkpt lat="47.50328" lon="6.77519">
        <ele>315.2</ele>
        <time>2015-06-08T14:04:20Z</time>
      </trkpt>
      <trkpt lat="47.50319" lon="6.77512">
        <ele>315.2</ele>
        <time>2015-06-08T14:04:21Z</time>
      </trkpt>
      <trkpt lat="47.50311" lon="6.77507">
        <ele>315</ele>
        <time>2015-06-08T14:04:22Z</time>
      </trkpt>
      <trkpt lat="47.50302" lon="6.77501">
        <ele>314.6</ele>
        <time>2015-06-08T14:04:23Z</time>
      </trkpt>
      <trkpt lat="47.50294" lon="6.77495">
        <ele>314.1</ele>
        <time>2015-06-08T14:04:24Z</time>
      </trkpt>
      <trkpt lat="47.50287" lon="6.77489">
        <ele>313.8</ele>
        <time>2015-06-08T14:04:25Z</time>
      </trkpt>
      <trkpt lat="47.5028" lon="6.77484">
        <ele>313.5</ele>
        <time>2015-06-08T14:04:26Z</time>
      </trkpt>
      <trkpt lat="47.50273" lon="6.77479">
        <ele>313.3</ele>
        <time>2015-06-08T14:04:27Z</time>
      </trkpt>
      <trkpt lat="47.50267" lon="6.77474">
        <ele>313.3</ele>
        <time>2015-06-08T14:04:28Z</time>
      </trkpt>
      <trkpt lat="47.50261" lon="6.77469">
        <ele>313.1</ele>
        <time>2015-06-08T14:04:29Z</time>
      </trkpt>
      <trkpt lat="47.50255" lon="6.77465">
        <ele>312.6</ele>
        <time>2015-06-08T14:04:30Z</time>
      </trkpt>
      <trkpt lat="47.50249" lon="6.7746">
        <ele>312.3</ele>
        <time>2015-06-08T14:04:31Z</time>
      </trkpt>
      <trkpt lat="47.50243" lon="6.77455">
        <ele>312</ele>
        <time>2015-06-08T14:04:32Z</time>
      </trkpt>
      <trkpt lat="47.50237" lon="6.77449">
        <ele>311.8</ele>
        <time>2015-06-08T14:04:33Z</time>
      </trkpt>
      <trkpt lat="47.50232" lon="6.77441">
        <ele>311.9</ele>
        <time>2015-06-08T14:04:34Z</time>
      </trkpt>
      <trkpt lat="47.50228" lon="6.77434">
        <ele>312.3</ele>
        <time>2015-06-08T14:04:35Z</time>
      </trkpt>
      <trkpt lat="47.50224" lon="6.77428">
        <ele>312.1</ele>
        <time>2015-06-08T14:04:37Z</time>
      </trkpt>
      <trkpt lat="47.5022" lon="6.77423">
        <ele>311.8</ele>
        <time>2015-06-08T14:04:37Z</time>
      </trkpt>
      <trkpt lat="47.50216" lon="6.77419">
        <ele>311.3</ele>
        <time>2015-06-08T14:04:38Z</time>
      </trkpt>
      <trkpt lat="47.50212" lon="6.77416">
        <ele>311</ele>
        <time>2015-06-08T14:04:39Z</time>
      </trkpt>
      <trkpt lat="47.50208" lon="6.77413">
        <ele>310.4</ele>
        <time>2015-06-08T14:04:40Z</time>
      </trkpt>
      <trkpt lat="47.50204" lon="6.7741">
        <ele>309.8</ele>
        <time>2015-06-08T14:04:41Z</time>
      </trkpt>
      <trkpt lat="47.50201" lon="6.77407">
        <ele>309</ele>
        <time>2015-06-08T14:04:42Z</time>
      </trkpt>
      <trkpt lat="47.50197" lon="6.77404">
        <ele>308.4</ele>
        <time>2015-06-08T14:04:43Z</time>
      </trkpt>
      <trkpt lat="47.50193" lon="6.77401">
        <ele>307.7</ele>
        <time>2015-06-08T14:04:44Z</time>
      </trkpt>
      <trkpt lat="47.50188" lon="6.77398">
        <ele>307.9</ele>
        <time>2015-06-08T14:04:45Z</time>
      </trkpt>
      <trkpt lat="47.50183" lon="6.77395">
        <ele>307.5</ele>
        <time>2015-06-08T14:04:46Z</time>
      </trkpt>
      <trkpt lat="47.50179" lon="6.77392">
        <ele>307</ele>
        <time>2015-06-08T14:04:47Z</time>
      </trkpt>
      <trkpt lat="47.50175" lon="6.7739">
        <ele>306.5</ele>
        <time>2015-06-08T14:04:48Z</time>
      </trkpt>
      <trkpt lat="47.50171" lon="6.77388">
        <ele>306.3</ele>
        <time>2015-06-08T14:04:49Z</time>
      </trkpt>
      <trkpt lat="47.50167" lon="6.77384">
        <ele>306.1</ele>
        <time>2015-06-08T14:04:50Z</time>
      </trkpt>
      <trkpt lat="47.50163" lon="6.77381">
        <ele>306.1</ele>
        <time>2015-06-08T14:04:51Z</time>
      </trkpt>
      <trkpt lat="47.50158" lon="6.77378">
        <ele>305.9</ele>
        <time>2015-06-08T14:04:53Z</time>
      </trkpt>
      <trkpt lat="47.50154" lon="6.77376">
        <ele>305.8</ele>
        <time>2015-06-08T14:04:53Z</time>
      </trkpt>
      <trkpt lat="47.50149" lon="6.77374">
        <ele>305.4</ele>
        <time>2015-06-08T14:04:54Z</time>
      </trkpt>
      <trkpt lat="47.50144" lon="6.77374">
        <ele>305.3</ele>
        <time>2015-06-08T14:04:55Z</time>
      </trkpt>
      <trkpt lat="47.50139" lon="6.77374">
        <ele>305.1</ele>
        <time>2015-06-08T14:04:56Z</time>
      </trkpt>
      <trkpt lat="47.50135" lon="6.77375">
        <ele>305.1</ele>
        <time>2015-06-08T14:04:57Z</time>
      </trkpt>
      <trkpt lat="47.5013" lon="6.77377">
        <ele>305.1</ele>
        <time>2015-06-08T14:04:58Z</time>
      </trkpt>
      <trkpt lat="47.50126" lon="6.77378">
        <ele>305</ele>
        <time>2015-06-08T14:04:59Z</time>
      </trkpt>
      <trkpt lat="47.50121" lon="6.77377">
        <ele>304.5</ele>
        <time>2015-06-08T14:05:01Z</time>
      </trkpt>
      <trkpt lat="47.50117" lon="6.77377">
        <ele>304.2</ele>
        <time>2015-06-08T14:05:01Z</time>
      </trkpt>
      <trkpt lat="47.50112" lon="6.77377">
        <ele>304</ele>
        <time>2015-06-08T14:05:03Z</time>
      </trkpt>
      <trkpt lat="47.50107" lon="6.77378">
        <ele>303.7</ele>
        <time>2015-06-08T14:05:03Z</time>
      </trkpt>
      <trkpt lat="47.50101" lon="6.77377">
        <ele>303.5</ele>
        <time>2015-06-08T14:05:04Z</time>
      </trkpt>
      <trkpt lat="47.50097" lon="6.77378">
        <ele>303.3</ele>
        <time>2015-06-08T14:05:05Z</time>
      </trkpt>
      <trkpt lat="47.50091" lon="6.77379">
        <ele>303.1</ele>
        <time>2015-06-08T14:05:06Z</time>
      </trkpt>
      <trkpt lat="47.50086" lon="6.7738">
        <ele>303</ele>
        <time>2015-06-08T14:05:07Z</time>
      </trkpt>
      <trkpt lat="47.50081" lon="6.77381">
        <ele>302.9</ele>
        <time>2015-06-08T14:05:08Z</time>
      </trkpt>
      <trkpt lat="47.50076" lon="6.77383">
        <ele>302.6</ele>
        <time>2015-06-08T14:05:09Z</time>
      </trkpt>
      <trkpt lat="47.50071" lon="6.77385">
        <ele>302.2</ele>
        <time>2015-06-08T14:05:10Z</time>
      </trkpt>
      <trkpt lat="47.50067" lon="6.77385">
        <ele>302.1</ele>
        <time>2015-06-08T14:05:11Z</time>
      </trkpt>
      <trkpt lat="47.50062" lon="6.77383">
        <ele>302</ele>
        <time>2015-06-08T14:05:12Z</time>
      </trkpt>
      <trkpt lat="47.50058" lon="6.77379">
        <ele>301.8</ele>
        <time>2015-06-08T14:05:14Z</time>
      </trkpt>
      <trkpt lat="47.50054" lon="6.77374">
        <ele>301.6</ele>
        <time>2015-06-08T14:05:14Z</time>
      </trkpt>
      <trkpt lat="47.50051" lon="6.77368">
        <ele>301.6</ele>
        <time>2015-06-08T14:05:15Z</time>
      </trkpt>
      <trkpt lat="47.50047" lon="6.77363">
        <ele>301.6</ele>
        <time>2015-06-08T14:05:16Z</time>
      </trkpt>
      <trkpt lat="47.50045" lon="6.77358">
        <ele>301.6</ele>
        <time>2015-06-08T14:05:17Z</time>
      </trkpt>
      <trkpt lat="47.50042" lon="6.77353">
        <ele>301.5</ele>
        <time>2015-06-08T14:05:18Z</time>
      </trkpt>
      <trkpt lat="47.50038" lon="6.77348">
        <ele>301.6</ele>
        <time>2015-06-08T14:05:19Z</time>
      </trkpt>
      <trkpt lat="47.50036" lon="6.77342">
        <ele>301.7</ele>
        <time>2015-06-08T14:05:20Z</time>
      </trkpt>
      <trkpt lat="47.50034" lon="6.77336">
        <ele>301.8</ele>
        <time>2015-06-08T14:05:21Z</time>
      </trkpt>
      <trkpt lat="47.50033" lon="6.7733">
        <ele>301.7</ele>
        <time>2015-06-08T14:05:23Z</time>
      </trkpt>
      <trkpt lat="47.50032" lon="6.77324">
        <ele>301.9</ele>
        <time>2015-06-08T14:05:23Z</time>
      </trkpt>
      <trkpt lat="47.5003" lon="6.77318">
        <ele>302.1</ele>
        <time>2015-06-08T14:05:24Z</time>
      </trkpt>
      <trkpt lat="47.50029" lon="6.77311">
        <ele>302</ele>
        <time>2015-06-08T14:05:25Z</time>
      </trkpt>
      <trkpt lat="47.50027" lon="6.77304">
        <ele>301.9</ele>
        <time>2015-06-08T14:05:26Z</time>
      </trkpt>
      <trkpt lat="47.50026" lon="6.77298">
        <ele>301.9</ele>
        <time>2015-06-08T14:05:27Z</time>
      </trkpt>
      <trkpt lat="47.50024" lon="6.77291">
        <ele>301.9</ele>
        <time>2015-06-08T14:05:28Z</time>
      </trkpt>
      <trkpt lat="47.50023" lon="6.77285">
        <ele>301.9</ele>
        <time>2015-06-08T14:05:29Z</time>
      </trkpt>
      <trkpt lat="47.50021" lon="6.77278">
        <ele>302</ele>
        <time>2015-06-08T14:05:30Z</time>
      </trkpt>
      <trkpt lat="47.5002" lon="6.77272">
        <ele>301.9</ele>
        <time>2015-06-08T14:05:31Z</time>
      </trkpt>
      <trkpt lat="47.50018" lon="6.77266">
        <ele>301.9</ele>
        <time>2015-06-08T14:05:33Z</time>
      </trkpt>
      <trkpt lat="47.50016" lon="6.77259">
        <ele>302.1</ele>
        <time>2015-06-08T14:05:33Z</time>
      </trkpt>
      <trkpt lat="47.50014" lon="6.77253">
        <ele>302.2</ele>
        <time>2015-06-08T14:05:34Z</time>
      </trkpt>
      <trkpt lat="47.50012" lon="6.77245">
        <ele>302.2</ele>
        <time>2015-06-08T14:05:35Z</time>
      </trkpt>
      <trkpt lat="47.5001" lon="6.77239">
        <ele>302.2</ele>
        <time>2015-06-08T14:05:36Z</time>
      </trkpt>
      <trkpt lat="47.50006" lon="6.77235">
        <ele>302.1</ele>
        <time>2015-06-08T14:05:37Z</time>
      </trkpt>
      <trkpt lat="47.50001" lon="6.77234">
        <ele>302</ele>
        <time>2015-06-08T14:05:38Z</time>
      </trkpt>
      <trkpt lat="47.49996" lon="6.77236">
        <ele>301.8</ele>
        <time>2015-06-08T14:05:39Z</time>
      </trkpt>
      <trkpt lat="47.49991" lon="6.77238">
        <ele>301.8</ele>
        <time>2015-06-08T14:05:40Z</time>
      </trkpt>
      <trkpt lat="47.49985" lon="6.7724">
        <ele>301.6</ele>
        <time>2015-06-08T14:05:41Z</time>
      </trkpt>
      <trkpt lat="47.4998" lon="6.77242">
        <ele>301.4</ele>
        <time>2015-06-08T14:05:42Z</time>
      </trkpt>
      <trkpt lat="47.49976" lon="6.77245">
        <ele>301.3</ele>
        <time>2015-06-08T14:05:43Z</time>
      </trkpt>
      <trkpt lat="47.49971" lon="6.77246">
        <ele>301</ele>
        <time>2015-06-08T14:05:44Z</time>
      </trkpt>
      <trkpt lat="47.49966" lon="6.77249">
        <ele>301</ele>
        <time>2015-06-08T14:05:45Z</time>
      </trkpt>
      <trkpt lat="47.4996" lon="6.77251">
        <ele>300.8</ele>
        <time>2015-06-08T14:05:46Z</time>
      </trkpt>
      <trkpt lat="47.49957" lon="6.77254">
        <ele>300.7</ele>
        <time>2015-06-08T14:05:47Z</time>
      </trkpt>
      <trkpt lat="47.49952" lon="6.77257">
        <ele>300.5</ele>
        <time>2015-06-08T14:05:48Z</time>
      </trkpt>
      <trkpt lat="47.49947" lon="6.77259">
        <ele>300.3</ele>
        <time>2015-06-08T14:05:49Z</time>
      </trkpt>
      <trkpt lat="47.49943" lon="6.77262">
        <ele>300.1</ele>
        <time>2015-06-08T14:05:50Z</time>
      </trkpt>
      <trkpt lat="47.49939" lon="6.77264">
        <ele>299.9</ele>
        <time>2015-06-08T14:05:51Z</time>
      </trkpt>
      <trkpt lat="47.49935" lon="6.77267">
        <ele>299.7</ele>
        <time>2015-06-08T14:05:52Z</time>
      </trkpt>
      <trkpt lat="47.49931" lon="6.7727">
        <ele>299.6</ele>
        <time>2015-06-08T14:05:53Z</time>
      </trkpt>
      <trkpt lat="47.49927" lon="6.77273">
        <ele>299.5</ele>
        <time>2015-06-08T14:05:54Z</time>
      </trkpt>
      <trkpt lat="47.49921" lon="6.77277">
        <ele>299.3</ele>
        <time>2015-06-08T14:05:55Z</time>
      </trkpt>
      <trkpt lat="47.49918" lon="6.7728">
        <ele>299.2</ele>
        <time>2015-06-08T14:05:56Z</time>
      </trkpt>
      <trkpt lat="47.49913" lon="6.77284">
        <ele>299.1</ele>
        <time>2015-06-08T14:05:57Z</time>
      </trkpt>
      <trkpt lat="47.49909" lon="6.77287">
        <ele>299</ele>
        <time>2015-06-08T14:05:58Z</time>
      </trkpt>
      <trkpt lat="47.49904" lon="6.7729">
        <ele>298.8</ele>
        <time>2015-06-08T14:05:59Z</time>
      </trkpt>
      <trkpt lat="47.49898" lon="6.77293">
        <ele>298.8</ele>
        <time>2015-06-08T14:06:00Z</time>
      </trkpt>
      <trkpt lat="47.49891" lon="6.77295">
        <ele>298.6</ele>
        <time>2015-06-08T14:06:01Z</time>
      </trkpt>
      <trkpt lat="47.49885" lon="6.77297">
        <ele>298.5</ele>
        <time>2015-06-08T14:06:03Z</time>
      </trkpt>
      <trkpt lat="47.4988" lon="6.77298">
        <ele>298.5</ele>
        <time>2015-06-08T14:06:03Z</time>
      </trkpt>
      <trkpt lat="47.49874" lon="6.77298">
        <ele>298.4</ele>
        <time>2015-06-08T14:06:04Z</time>
      </trkpt>
      <trkpt lat="47.49868" lon="6.77298">
        <ele>298.4</ele>
        <time>2015-06-08T14:06:06Z</time>
      </trkpt>
      <trkpt lat="47.49862" lon="6.77298">
        <ele>298.3</ele>
        <time>2015-06-08T14:06:06Z</time>
      </trkpt>
      <trkpt lat="47.49855" lon="6.77299">
        <ele>298.2</ele>
        <time>2015-06-08T14:06:07Z</time>
      </trkpt>
      <trkpt lat="47.4985" lon="6.773">
        <ele>298</ele>
        <time>2015-06-08T14:06:08Z</time>
      </trkpt>
      <trkpt lat="47.49844" lon="6.77301">
        <ele>297.9</ele>
        <time>2015-06-08T14:06:09Z</time>
      </trkpt>
      <trkpt lat="47.49839" lon="6.77301">
        <ele>297.9</ele>
        <time>2015-06-08T14:06:10Z</time>
      </trkpt>
      <trkpt lat="47.49835" lon="6.77303">
        <ele>298</ele>
        <time>2015-06-08T14:06:11Z</time>
      </trkpt>
      <trkpt lat="47.4983" lon="6.77304">
        <ele>298</ele>
        <time>2015-06-08T14:06:12Z</time>
      </trkpt>
      <trkpt lat="47.49824" lon="6.77305">
        <ele>298.1</ele>
        <time>2015-06-08T14:06:13Z</time>
      </trkpt>
      <trkpt lat="47.49819" lon="6.77306">
        <ele>298.3</ele>
        <time>2015-06-08T14:06:14Z</time>
      </trkpt>
      <trkpt lat="47.49814" lon="6.77307">
        <ele>298.4</ele>
        <time>2015-06-08T14:06:16Z</time>
      </trkpt>
      <trkpt lat="47.4981" lon="6.77308">
        <ele>298.4</ele>
        <time>2015-06-08T14:06:16Z</time>
      </trkpt>
      <trkpt lat="47.49806" lon="6.77308">
        <ele>298.3</ele>
        <time>2015-06-08T14:06:17Z</time>
      </trkpt>
      <trkpt lat="47.498" lon="6.77308">
        <ele>298.2</ele>
        <time>2015-06-08T14:06:18Z</time>
      </trkpt>
      <trkpt lat="47.49795" lon="6.77309">
        <ele>298.1</ele>
        <time>2015-06-08T14:06:19Z</time>
      </trkpt>
      <trkpt lat="47.49789" lon="6.7731">
        <ele>298.1</ele>
        <time>2015-06-08T14:06:20Z</time>
      </trkpt>
      <trkpt lat="47.49784" lon="6.7731">
        <ele>298</ele>
        <time>2015-06-08T14:06:21Z</time>
      </trkpt>
      <trkpt lat="47.49778" lon="6.77311">
        <ele>297.9</ele>
        <time>2015-06-08T14:06:22Z</time>
      </trkpt>
      <trkpt lat="47.49773" lon="6.77311">
        <ele>297.8</ele>
        <time>2015-06-08T14:06:23Z</time>
      </trkpt>
      <trkpt lat="47.49767" lon="6.77312">
        <ele>297.6</ele>
        <time>2015-06-08T14:06:24Z</time>
      </trkpt>
      <trkpt lat="47.49762" lon="6.77313">
        <ele>297.6</ele>
        <time>2015-06-08T14:06:25Z</time>
      </trkpt>
      <trkpt lat="47.49756" lon="6.77315">
        <ele>297.6</ele>
        <time>2015-06-08T14:06:26Z</time>
      </trkpt>
      <trkpt lat="47.49751" lon="6.77316">
        <ele>297.7</ele>
        <time>2015-06-08T14:06:27Z</time>
      </trkpt>
      <trkpt lat="47.49747" lon="6.77319">
        <ele>297.8</ele>
        <time>2015-06-08T14:06:28Z</time>
      </trkpt>
      <trkpt lat="47.49742" lon="6.77322">
        <ele>297.9</ele>
        <time>2015-06-08T14:06:29Z</time>
      </trkpt>
      <trkpt lat="47.49737" lon="6.77326">
        <ele>298.1</ele>
        <time>2015-06-08T14:06:30Z</time>
      </trkpt>
      <trkpt lat="47.49731" lon="6.77329">
        <ele>298.4</ele>
        <time>2015-06-08T14:06:31Z</time>
      </trkpt>
      <trkpt lat="47.49726" lon="6.77331">
        <ele>298.6</ele>
        <time>2015-06-08T14:06:32Z</time>
      </trkpt>
      <trkpt lat="47.4972" lon="6.77332">
        <ele>298.8</ele>
        <time>2015-06-08T14:06:33Z</time>
      </trkpt>
      <trkpt lat="47.49715" lon="6.77333">
        <ele>298.8</ele>
        <time>2015-06-08T14:06:34Z</time>
      </trkpt>
      <trkpt lat="47.4971" lon="6.77334">
        <ele>298.9</ele>
        <time>2015-06-08T14:06:36Z</time>
      </trkpt>
      <trkpt lat="47.49705" lon="6.77335">
        <ele>299.2</ele>
        <time>2015-06-08T14:06:36Z</time>
      </trkpt>
      <trkpt lat="47.49699" lon="6.77336">
        <ele>299.4</ele>
        <time>2015-06-08T14:06:38Z</time>
      </trkpt>
      <trkpt lat="47.49694" lon="6.77338">
        <ele>299.4</ele>
        <time>2015-06-08T14:06:39Z</time>
      </trkpt>
      <trkpt lat="47.49688" lon="6.7734">
        <ele>299.5</ele>
        <time>2015-06-08T14:06:40Z</time>
      </trkpt>
      <trkpt lat="47.49683" lon="6.77342">
        <ele>299.7</ele>
        <time>2015-06-08T14:06:40Z</time>
      </trkpt>
      <trkpt lat="47.49677" lon="6.77342">
        <ele>299.9</ele>
        <time>2015-06-08T14:06:41Z</time>
      </trkpt>
      <trkpt lat="47.49672" lon="6.77344">
        <ele>300.2</ele>
        <time>2015-06-08T14:06:43Z</time>
      </trkpt>
      <trkpt lat="47.49667" lon="6.77345">
        <ele>300.2</ele>
        <time>2015-06-08T14:06:44Z</time>
      </trkpt>
      <trkpt lat="47.49661" lon="6.77346">
        <ele>300.3</ele>
        <time>2015-06-08T14:06:45Z</time>
      </trkpt>
      <trkpt lat="47.49656" lon="6.77348">
        <ele>300.2</ele>
        <time>2015-06-08T14:06:46Z</time>
      </trkpt>
      <trkpt lat="47.4965" lon="6.77349">
        <ele>300.1</ele>
        <time>2015-06-08T14:06:47Z</time>
      </trkpt>
      <trkpt lat="47.49645" lon="6.77351">
        <ele>300</ele>
        <time>2015-06-08T14:06:48Z</time>
      </trkpt>
      <trkpt lat="47.49639" lon="6.77352">
        <ele>300.2</ele>
        <time>2015-06-08T14:06:49Z</time>
      </trkpt>
      <trkpt lat="47.49634" lon="6.77353">
        <ele>300.4</ele>
        <time>2015-06-08T14:06:50Z</time>
      </trkpt>
      <trkpt lat="47.4963" lon="6.77355">
        <ele>300.5</ele>
        <time>2015-06-08T14:06:51Z</time>
      </trkpt>
      <trkpt lat="47.49625" lon="6.77356">
        <ele>300.3</ele>
        <time>2015-06-08T14:06:52Z</time>
      </trkpt>
      <trkpt lat="47.4962" lon="6.77357">
        <ele>300.2</ele>
        <time>2015-06-08T14:06:53Z</time>
      </trkpt>
      <trkpt lat="47.49616" lon="6.77358">
        <ele>300.4</ele>
        <time>2015-06-08T14:06:54Z</time>
      </trkpt>
      <trkpt lat="47.4961" lon="6.77359">
        <ele>300.6</ele>
        <time>2015-06-08T14:06:55Z</time>
      </trkpt>
      <trkpt lat="47.49605" lon="6.7736">
        <ele>300.9</ele>
        <time>2015-06-08T14:06:56Z</time>
      </trkpt>
      <trkpt lat="47.496" lon="6.7736">
        <ele>301.1</ele>
        <time>2015-06-08T14:06:57Z</time>
      </trkpt>
      <trkpt lat="47.49594" lon="6.77361">
        <ele>301.2</ele>
        <time>2015-06-08T14:06:58Z</time>
      </trkpt>
      <trkpt lat="47.49589" lon="6.77361">
        <ele>301.3</ele>
        <time>2015-06-08T14:06:59Z</time>
      </trkpt>
      <trkpt lat="47.49584" lon="6.77361">
        <ele>301.4</ele>
        <time>2015-06-08T14:07:00Z</time>
      </trkpt>
      <trkpt lat="47.49579" lon="6.77362">
        <ele>301.4</ele>
        <time>2015-06-08T14:07:01Z</time>
      </trkpt>
      <trkpt lat="47.49574" lon="6.77362">
        <ele>301.5</ele>
        <time>2015-06-08T14:07:02Z</time>
      </trkpt>
      <trkpt lat="47.49568" lon="6.77361">
        <ele>301.8</ele>
        <time>2015-06-08T14:07:03Z</time>
      </trkpt>
      <trkpt lat="47.49563" lon="6.7736">
        <ele>302.1</ele>
        <time>2015-06-08T14:07:04Z</time>
      </trkpt>
      <trkpt lat="47.49558" lon="6.7736">
        <ele>302</ele>
        <time>2015-06-08T14:07:05Z</time>
      </trkpt>
      <trkpt lat="47.49552" lon="6.7736">
        <ele>302.1</ele>
        <time>2015-06-08T14:07:06Z</time>
      </trkpt>
      <trkpt lat="47.49547" lon="6.7736">
        <ele>302</ele>
        <time>2015-06-08T14:07:06Z</time>
      </trkpt>
      <trkpt lat="47.49542" lon="6.77359">
        <ele>302.1</ele>
        <time>2015-06-08T14:07:08Z</time>
      </trkpt>
      <trkpt lat="47.49536" lon="6.77359">
        <ele>302.1</ele>
        <time>2015-06-08T14:07:09Z</time>
      </trkpt>
      <trkpt lat="47.4953" lon="6.77359">
        <ele>302.2</ele>
        <time>2015-06-08T14:07:09Z</time>
      </trkpt>
      <trkpt lat="47.49525" lon="6.77358">
        <ele>302.4</ele>
        <time>2015-06-08T14:07:11Z</time>
      </trkpt>
      <trkpt lat="47.49519" lon="6.77358">
        <ele>302.5</ele>
        <time>2015-06-08T14:07:11Z</time>
      </trkpt>
      <trkpt lat="47.49514" lon="6.77357">
        <ele>302.6</ele>
        <time>2015-06-08T14:07:13Z</time>
      </trkpt>
      <trkpt lat="47.49508" lon="6.77357">
        <ele>302.7</ele>
        <time>2015-06-08T14:07:14Z</time>
      </trkpt>
      <trkpt lat="47.49502" lon="6.77356">
        <ele>302.9</ele>
        <time>2015-06-08T14:07:15Z</time>
      </trkpt>
      <trkpt lat="47.49497" lon="6.77356">
        <ele>303</ele>
        <time>2015-06-08T14:07:16Z</time>
      </trkpt>
      <trkpt lat="47.49491" lon="6.77355">
        <ele>303.1</ele>
        <time>2015-06-08T14:07:17Z</time>
      </trkpt>
      <trkpt lat="47.49485" lon="6.77355">
        <ele>303.2</ele>
        <time>2015-06-08T14:07:18Z</time>
      </trkpt>
      <trkpt lat="47.4948" lon="6.77355">
        <ele>303.2</ele>
        <time>2015-06-08T14:07:19Z</time>
      </trkpt>
      <trkpt lat="47.49474" lon="6.77355">
        <ele>303.3</ele>
        <time>2015-06-08T14:07:19Z</time>
      </trkpt>
      <trkpt lat="47.49468" lon="6.77354">
        <ele>303.2</ele>
        <time>2015-06-08T14:07:20Z</time>
      </trkpt>
      <trkpt lat="47.49463" lon="6.77354">
        <ele>303.3</ele>
        <time>2015-06-08T14:07:21Z</time>
      </trkpt>
      <trkpt lat="47.49457" lon="6.77354">
        <ele>303.4</ele>
        <time>2015-06-08T14:07:22Z</time>
      </trkpt>
      <trkpt lat="47.49452" lon="6.77354">
        <ele>303.4</ele>
        <time>2015-06-08T14:07:24Z</time>
      </trkpt>
      <trkpt lat="47.49446" lon="6.77353">
        <ele>303.4</ele>
        <time>2015-06-08T14:07:25Z</time>
      </trkpt>
      <trkpt lat="47.49441" lon="6.77353">
        <ele>303.4</ele>
        <time>2015-06-08T14:07:26Z</time>
      </trkpt>
      <trkpt lat="47.49436" lon="6.77353">
        <ele>303.4</ele>
        <time>2015-06-08T14:07:27Z</time>
      </trkpt>
      <trkpt lat="47.4943" lon="6.77352">
        <ele>303.4</ele>
        <time>2015-06-08T14:07:27Z</time>
      </trkpt>
      <trkpt lat="47.49425" lon="6.77352">
        <ele>303.5</ele>
        <time>2015-06-08T14:07:29Z</time>
      </trkpt>
      <trkpt lat="47.4942" lon="6.77351">
        <ele>303.5</ele>
        <time>2015-06-08T14:07:30Z</time>
      </trkpt>
      <trkpt lat="47.49414" lon="6.7735">
        <ele>303.6</ele>
        <time>2015-06-08T14:07:31Z</time>
      </trkpt>
      <trkpt lat="47.49409" lon="6.7735">
        <ele>303.7</ele>
        <time>2015-06-08T14:07:32Z</time>
      </trkpt>
      <trkpt lat="47.49403" lon="6.77349">
        <ele>303.8</ele>
        <time>2015-06-08T14:07:33Z</time>
      </trkpt>
      <trkpt lat="47.49398" lon="6.77349">
        <ele>303.9</ele>
        <time>2015-06-08T14:07:34Z</time>
      </trkpt>
      <trkpt lat="47.49392" lon="6.77349">
        <ele>304</ele>
        <time>2015-06-08T14:07:35Z</time>
      </trkpt>
      <trkpt lat="47.49386" lon="6.77349">
        <ele>304</ele>
        <time>2015-06-08T14:07:35Z</time>
      </trkpt>
      <trkpt lat="47.49381" lon="6.77348">
        <ele>303.9</ele>
        <time>2015-06-08T14:07:36Z</time>
      </trkpt>
      <trkpt lat="47.49375" lon="6.77348">
        <ele>303.9</ele>
        <time>2015-06-08T14:07:37Z</time>
      </trkpt>
      <trkpt lat="47.4937" lon="6.77347">
        <ele>304</ele>
        <time>2015-06-08T14:07:39Z</time>
      </trkpt>
      <trkpt lat="47.49365" lon="6.77347">
        <ele>304.1</ele>
        <time>2015-06-08T14:07:39Z</time>
      </trkpt>
      <trkpt lat="47.49359" lon="6.77347">
        <ele>304.2</ele>
        <time>2015-06-08T14:07:41Z</time>
      </trkpt>
      <trkpt lat="47.49354" lon="6.77346">
        <ele>304.2</ele>
        <time>2015-06-08T14:07:42Z</time>
      </trkpt>
      <trkpt lat="47.49349" lon="6.77345">
        <ele>304.3</ele>
        <time>2015-06-08T14:07:43Z</time>
      </trkpt>
      <trkpt lat="47.49343" lon="6.77345">
        <ele>304.3</ele>
        <time>2015-06-08T14:07:44Z</time>
      </trkpt>
      <trkpt lat="47.49338" lon="6.77342">
        <ele>304.4</ele>
        <time>2015-06-08T14:07:45Z</time>
      </trkpt>
      <trkpt lat="47.49334" lon="6.77339">
        <ele>304.3</ele>
        <time>2015-06-08T14:07:46Z</time>
      </trkpt>
      <trkpt lat="47.49328" lon="6.77334">
        <ele>304.1</ele>
        <time>2015-06-08T14:07:47Z</time>
      </trkpt>
      <trkpt lat="47.49322" lon="6.77331">
        <ele>303.7</ele>
        <time>2015-06-08T14:07:48Z</time>
      </trkpt>
      <trkpt lat="47.49315" lon="6.77329">
        <ele>303.6</ele>
        <time>2015-06-08T14:07:49Z</time>
      </trkpt>
      <trkpt lat="47.49308" lon="6.77328">
        <ele>303.4</ele>
        <time>2015-06-08T14:07:50Z</time>
      </trkpt>
      <trkpt lat="47.49302" lon="6.77329">
        <ele>303.2</ele>
        <time>2015-06-08T14:07:51Z</time>
      </trkpt>
      <trkpt lat="47.49295" lon="6.77328">
        <ele>303.3</ele>
        <time>2015-06-08T14:07:52Z</time>
      </trkpt>
      <trkpt lat="47.49288" lon="6.77328">
        <ele>303.4</ele>
        <time>2015-06-08T14:07:53Z</time>
      </trkpt>
      <trkpt lat="47.4928" lon="6.77328">
        <ele>303.5</ele>
        <time>2015-06-08T14:07:54Z</time>
      </trkpt>
      <trkpt lat="47.49274" lon="6.77329">
        <ele>303.3</ele>
        <time>2015-06-08T14:07:55Z</time>
      </trkpt>
      <trkpt lat="47.49268" lon="6.7733">
        <ele>303.4</ele>
        <time>2015-06-08T14:07:56Z</time>
      </trkpt>
      <trkpt lat="47.49262" lon="6.77332">
        <ele>303.4</ele>
        <time>2015-06-08T14:07:57Z</time>
      </trkpt>
      <trkpt lat="47.49257" lon="6.77336">
        <ele>303.3</ele>
        <time>2015-06-08T14:07:58Z</time>
      </trkpt>
      <trkpt lat="47.49252" lon="6.77339">
        <ele>303</ele>
        <time>2015-06-08T14:07:59Z</time>
      </trkpt>
      <trkpt lat="47.49247" lon="6.77342">
        <ele>303</ele>
        <time>2015-06-08T14:08:00Z</time>
      </trkpt>
      <trkpt lat="47.49242" lon="6.77342">
        <ele>303</ele>
        <time>2015-06-08T14:08:01Z</time>
      </trkpt>
      <trkpt lat="47.49237" lon="6.77342">
        <ele>303.2</ele>
        <time>2015-06-08T14:08:02Z</time>
      </trkpt>
      <trkpt lat="47.49233" lon="6.77342">
        <ele>303.3</ele>
        <time>2015-06-08T14:08:02Z</time>
      </trkpt>
      <trkpt lat="47.49228" lon="6.77342">
        <ele>303.1</ele>
        <time>2015-06-08T14:08:04Z</time>
      </trkpt>
      <trkpt lat="47.49223" lon="6.77341">
        <ele>302.9</ele>
        <time>2015-06-08T14:08:05Z</time>
      </trkpt>
      <trkpt lat="47.49218" lon="6.77341">
        <ele>303.8</ele>
        <time>2015-06-08T14:08:06Z</time>
      </trkpt>
      <trkpt lat="47.49213" lon="6.7734">
        <ele>304</ele>
        <time>2015-06-08T14:08:07Z</time>
      </trkpt>
      <trkpt lat="47.49209" lon="6.77339">
        <ele>304.1</ele>
        <time>2015-06-08T14:08:08Z</time>
      </trkpt>
      <trkpt lat="47.49205" lon="6.77336">
        <ele>304</ele>
        <time>2015-06-08T14:08:08Z</time>
      </trkpt>
      <trkpt lat="47.49201" lon="6.77334">
        <ele>303.8</ele>
        <time>2015-06-08T14:08:10Z</time>
      </trkpt>
      <trkpt lat="47.49198" lon="6.77332">
        <ele>303.6</ele>
        <time>2015-06-08T14:08:11Z</time>
      </trkpt>
      <trkpt lat="47.49194" lon="6.77331">
        <ele>303.7</ele>
        <time>2015-06-08T14:08:12Z</time>
      </trkpt>
      <trkpt lat="47.49192" lon="6.77328">
        <ele>303.3</ele>
        <time>2015-06-08T14:08:13Z</time>
      </trkpt>
      <trkpt lat="47.49189" lon="6.77322">
        <ele>303</ele>
        <time>2015-06-08T14:08:14Z</time>
      </trkpt>
      <trkpt lat="47.49189" lon="6.77314">
        <ele>302.7</ele>
        <time>2015-06-08T14:08:15Z</time>
      </trkpt>
      <trkpt lat="47.49189" lon="6.77306">
        <ele>302.7</ele>
        <time>2015-06-08T14:08:16Z</time>
      </trkpt>
      <trkpt lat="47.4919" lon="6.77298">
        <ele>302.7</ele>
        <time>2015-06-08T14:08:17Z</time>
      </trkpt>
      <trkpt lat="47.4919" lon="6.7729">
        <ele>302.8</ele>
        <time>2015-06-08T14:08:18Z</time>
      </trkpt>
      <trkpt lat="47.49191" lon="6.77282">
        <ele>302.6</ele>
        <time>2015-06-08T14:08:19Z</time>
      </trkpt>
      <trkpt lat="47.49191" lon="6.77275">
        <ele>302.4</ele>
        <time>2015-06-08T14:08:20Z</time>
      </trkpt>
      <trkpt lat="47.49191" lon="6.77268">
        <ele>302.1</ele>
        <time>2015-06-08T14:08:21Z</time>
      </trkpt>
      <trkpt lat="47.49192" lon="6.7726">
        <ele>301.8</ele>
        <time>2015-06-08T14:08:21Z</time>
      </trkpt>
      <trkpt lat="47.49193" lon="6.77253">
        <ele>301.5</ele>
        <time>2015-06-08T14:08:23Z</time>
      </trkpt>
      <trkpt lat="47.49192" lon="6.77247">
        <ele>301.1</ele>
        <time>2015-06-08T14:08:24Z</time>
      </trkpt>
      <trkpt lat="47.49191" lon="6.77242">
        <ele>300.8</ele>
        <time>2015-06-08T14:08:25Z</time>
      </trkpt>
      <trkpt lat="47.4919" lon="6.77237">
        <ele>300.5</ele>
        <time>2015-06-08T14:08:26Z</time>
      </trkpt>
      <trkpt lat="47.49189" lon="6.77232">
        <ele>300.3</ele>
        <time>2015-06-08T14:08:27Z</time>
      </trkpt>
      <trkpt lat="47.49189" lon="6.77226">
        <ele>300.1</ele>
        <time>2015-06-08T14:08:28Z</time>
      </trkpt>
      <trkpt lat="47.49189" lon="6.77221">
        <ele>299.9</ele>
        <time>2015-06-08T14:08:29Z</time>
      </trkpt>
      <trkpt lat="47.49189" lon="6.77216">
        <ele>299.9</ele>
        <time>2015-06-08T14:08:30Z</time>
      </trkpt>
      <trkpt lat="47.4919" lon="6.7721">
        <ele>300.4</ele>
        <time>2015-06-08T14:08:31Z</time>
      </trkpt>
      <trkpt lat="47.4919" lon="6.77204">
        <ele>301.2</ele>
        <time>2015-06-08T14:08:32Z</time>
      </trkpt>
      <trkpt lat="47.4919" lon="6.77198">
        <ele>301.4</ele>
        <time>2015-06-08T14:08:33Z</time>
      </trkpt>
      <trkpt lat="47.49191" lon="6.77191">
        <ele>301.6</ele>
        <time>2015-06-08T14:08:34Z</time>
      </trkpt>
      <trkpt lat="47.49191" lon="6.77185">
        <ele>301.8</ele>
        <time>2015-06-08T14:08:35Z</time>
      </trkpt>
      <trkpt lat="47.49191" lon="6.77178">
        <ele>302</ele>
        <time>2015-06-08T14:08:36Z</time>
      </trkpt>
      <trkpt lat="47.49192" lon="6.77172">
        <ele>302.1</ele>
        <time>2015-06-08T14:08:37Z</time>
      </trkpt>
      <trkpt lat="47.49193" lon="6.77166">
        <ele>302.3</ele>
        <time>2015-06-08T14:08:38Z</time>
      </trkpt>
      <trkpt lat="47.49194" lon="6.77161">
        <ele>302.6</ele>
        <time>2015-06-08T14:08:39Z</time>
      </trkpt>
      <trkpt lat="47.49195" lon="6.77157">
        <ele>302.7</ele>
        <time>2015-06-08T14:08:40Z</time>
      </trkpt>
      <trkpt lat="47.49195" lon="6.77153">
        <ele>302.6</ele>
        <time>2015-06-08T14:08:41Z</time>
      </trkpt>
      <trkpt lat="47.49196" lon="6.7715">
        <ele>302.6</ele>
        <time>2015-06-08T14:08:42Z</time>
      </trkpt>
      <trkpt lat="47.49196" lon="6.77149">
        <ele>302.9</ele>
        <time>2015-06-08T14:08:44Z</time>
      </trkpt>
      <trkpt lat="47.49196" lon="6.77145">
        <ele>303.5</ele>
        <time>2015-06-08T14:08:46Z</time>
      </trkpt>
      <trkpt lat="47.49195" lon="6.77143">
        <ele>303.8</ele>
        <time>2015-06-08T14:08:47Z</time>
      </trkpt>
      <trkpt lat="47.49194" lon="6.77139">
        <ele>304.1</ele>
        <time>2015-06-08T14:08:48Z</time>
      </trkpt>
      <trkpt lat="47.49193" lon="6.77136">
        <ele>304</ele>
        <time>2015-06-08T14:08:49Z</time>
      </trkpt>
      <trkpt lat="47.49192" lon="6.77132">
        <ele>304</ele>
        <time>2015-06-08T14:08:50Z</time>
      </trkpt>
      <trkpt lat="47.49191" lon="6.77127">
        <ele>304.1</ele>
        <time>2015-06-08T14:08:51Z</time>
      </trkpt>
      <trkpt lat="47.4919" lon="6.77123">
        <ele>304</ele>
        <time>2015-06-08T14:08:52Z</time>
      </trkpt>
      <trkpt lat="47.49188" lon="6.77118">
        <ele>304</ele>
        <time>2015-06-08T14:08:53Z</time>
      </trkpt>
      <trkpt lat="47.49186" lon="6.77114">
        <ele>304</ele>
        <time>2015-06-08T14:08:54Z</time>
      </trkpt>
      <trkpt lat="47.49184" lon="6.77109">
        <ele>304.1</ele>
        <time>2015-06-08T14:08:55Z</time>
      </trkpt>
      <trkpt lat="47.49182" lon="6.77103">
        <ele>304.2</ele>
        <time>2015-06-08T14:08:56Z</time>
      </trkpt>
      <trkpt lat="47.49181" lon="6.77098">
        <ele>304.3</ele>
        <time>2015-06-08T14:08:57Z</time>
      </trkpt>
      <trkpt lat="47.4918" lon="6.77092">
        <ele>304.6</ele>
        <time>2015-06-08T14:08:58Z</time>
      </trkpt>
      <trkpt lat="47.49179" lon="6.77086">
        <ele>304.7</ele>
        <time>2015-06-08T14:08:59Z</time>
      </trkpt>
      <trkpt lat="47.49177" lon="6.77081">
        <ele>304.9</ele>
        <time>2015-06-08T14:09:00Z</time>
      </trkpt>
      <trkpt lat="47.49175" lon="6.77075">
        <ele>305</ele>
        <time>2015-06-08T14:09:01Z</time>
      </trkpt>
      <trkpt lat="47.49174" lon="6.77068">
        <ele>305.1</ele>
        <time>2015-06-08T14:09:02Z</time>
      </trkpt>
      <trkpt lat="47.49174" lon="6.77062">
        <ele>305.2</ele>
        <time>2015-06-08T14:09:03Z</time>
      </trkpt>
      <trkpt lat="47.49173" lon="6.77055">
        <ele>305.3</ele>
        <time>2015-06-08T14:09:04Z</time>
      </trkpt>
      <trkpt lat="47.49173" lon="6.77049">
        <ele>305.4</ele>
        <time>2015-06-08T14:09:05Z</time>
      </trkpt>
      <trkpt lat="47.49172" lon="6.77042">
        <ele>305.4</ele>
        <time>2015-06-08T14:09:06Z</time>
      </trkpt>
      <trkpt lat="47.49171" lon="6.77036">
        <ele>305.4</ele>
        <time>2015-06-08T14:09:07Z</time>
      </trkpt>
      <trkpt lat="47.4917" lon="6.7703">
        <ele>305.5</ele>
        <time>2015-06-08T14:09:07Z</time>
      </trkpt>
      <trkpt lat="47.49168" lon="6.77025">
        <ele>305.4</ele>
        <time>2015-06-08T14:09:09Z</time>
      </trkpt>
      <trkpt lat="47.49166" lon="6.7702">
        <ele>305.7</ele>
        <time>2015-06-08T14:09:09Z</time>
      </trkpt>
      <trkpt lat="47.49163" lon="6.77014">
        <ele>305.9</ele>
        <time>2015-06-08T14:09:11Z</time>
      </trkpt>
      <trkpt lat="47.49161" lon="6.77009">
        <ele>306.4</ele>
        <time>2015-06-08T14:09:12Z</time>
      </trkpt>
      <trkpt lat="47.49158" lon="6.77004">
        <ele>306.6</ele>
        <time>2015-06-08T14:09:13Z</time>
      </trkpt>
      <trkpt lat="47.49156" lon="6.76999">
        <ele>306.6</ele>
        <time>2015-06-08T14:09:14Z</time>
      </trkpt>
      <trkpt lat="47.49154" lon="6.76995">
        <ele>306.8</ele>
        <time>2015-06-08T14:09:15Z</time>
      </trkpt>
      <trkpt lat="47.49153" lon="6.76991">
        <ele>307.1</ele>
        <time>2015-06-08T14:09:16Z</time>
      </trkpt>
      <trkpt lat="47.49153" lon="6.76986">
        <ele>307.3</ele>
        <time>2015-06-08T14:09:17Z</time>
      </trkpt>
      <trkpt lat="47.49152" lon="6.76981">
        <ele>307.6</ele>
        <time>2015-06-08T14:09:18Z</time>
      </trkpt>
      <trkpt lat="47.49153" lon="6.76977">
        <ele>307.9</ele>
        <time>2015-06-08T14:09:19Z</time>
      </trkpt>
      <trkpt lat="47.49153" lon="6.76973">
        <ele>308.2</ele>
        <time>2015-06-08T14:09:20Z</time>
      </trkpt>
      <trkpt lat="47.49154" lon="6.76969">
        <ele>308.5</ele>
        <time>2015-06-08T14:09:21Z</time>
      </trkpt>
      <trkpt lat="47.49155" lon="6.76966">
        <ele>309.1</ele>
        <time>2015-06-08T14:09:22Z</time>
      </trkpt>
      <trkpt lat="47.49156" lon="6.76963">
        <ele>309.2</ele>
        <time>2015-06-08T14:09:23Z</time>
      </trkpt>
      <trkpt lat="47.49157" lon="6.76956">
        <ele>309.2</ele>
        <time>2015-06-08T14:09:24Z</time>
      </trkpt>
      <trkpt lat="47.49158" lon="6.76949">
        <ele>308.9</ele>
        <time>2015-06-08T14:09:25Z</time>
      </trkpt>
      <trkpt lat="47.49157" lon="6.76941">
        <ele>308.8</ele>
        <time>2015-06-08T14:09:26Z</time>
      </trkpt>
      <trkpt lat="47.49158" lon="6.76935">
        <ele>308.6</ele>
        <time>2015-06-08T14:09:27Z</time>
      </trkpt>
      <trkpt lat="47.49158" lon="6.76928">
        <ele>308.5</ele>
        <time>2015-06-08T14:09:27Z</time>
      </trkpt>
      <trkpt lat="47.49158" lon="6.76921">
        <ele>308.3</ele>
        <time>2015-06-08T14:09:28Z</time>
      </trkpt>
      <trkpt lat="47.49158" lon="6.76914">
        <ele>308.5</ele>
        <time>2015-06-08T14:09:30Z</time>
      </trkpt>
      <trkpt lat="47.49157" lon="6.76907">
        <ele>308.4</ele>
        <time>2015-06-08T14:09:31Z</time>
      </trkpt>
      <trkpt lat="47.49156" lon="6.769">
        <ele>308.2</ele>
        <time>2015-06-08T14:09:32Z</time>
      </trkpt>
      <trkpt lat="47.49155" lon="6.76893">
        <ele>308.3</ele>
        <time>2015-06-08T14:09:32Z</time>
      </trkpt>
      <trkpt lat="47.49155" lon="6.76886">
        <ele>308.2</ele>
        <time>2015-06-08T14:09:33Z</time>
      </trkpt>
      <trkpt lat="47.49155" lon="6.76879">
        <ele>308.2</ele>
        <time>2015-06-08T14:09:34Z</time>
      </trkpt>
      <trkpt lat="47.49155" lon="6.76872">
        <ele>308.1</ele>
        <time>2015-06-08T14:09:36Z</time>
      </trkpt>
      <trkpt lat="47.49155" lon="6.76865">
        <ele>308.2</ele>
        <time>2015-06-08T14:09:37Z</time>
      </trkpt>
      <trkpt lat="47.49155" lon="6.76859">
        <ele>308.6</ele>
        <time>2015-06-08T14:09:37Z</time>
      </trkpt>
      <trkpt lat="47.49155" lon="6.76852">
        <ele>309</ele>
        <time>2015-06-08T14:09:39Z</time>
      </trkpt>
      <trkpt lat="47.49156" lon="6.76845">
        <ele>309.4</ele>
        <time>2015-06-08T14:09:40Z</time>
      </trkpt>
      <trkpt lat="47.49156" lon="6.76839">
        <ele>309.7</ele>
        <time>2015-06-08T14:09:41Z</time>
      </trkpt>
      <trkpt lat="47.49157" lon="6.76833">
        <ele>310</ele>
        <time>2015-06-08T14:09:42Z</time>
      </trkpt>
      <trkpt lat="47.49156" lon="6.76828">
        <ele>310.4</ele>
        <time>2015-06-08T14:09:43Z</time>
      </trkpt>
      <trkpt lat="47.49156" lon="6.76822">
        <ele>310.6</ele>
        <time>2015-06-08T14:09:44Z</time>
      </trkpt>
      <trkpt lat="47.49155" lon="6.76816">
        <ele>310.8</ele>
        <time>2015-06-08T14:09:45Z</time>
      </trkpt>
      <trkpt lat="47.49155" lon="6.7681">
        <ele>311.1</ele>
        <time>2015-06-08T14:09:46Z</time>
      </trkpt>
      <trkpt lat="47.49155" lon="6.76804">
        <ele>311.4</ele>
        <time>2015-06-08T14:09:47Z</time>
      </trkpt>
      <trkpt lat="47.49155" lon="6.76798">
        <ele>311.9</ele>
        <time>2015-06-08T14:09:47Z</time>
      </trkpt>
      <trkpt lat="47.49154" lon="6.76791">
        <ele>312.1</ele>
        <time>2015-06-08T14:09:48Z</time>
      </trkpt>
      <trkpt lat="47.49153" lon="6.76785">
        <ele>312.2</ele>
        <time>2015-06-08T14:09:50Z</time>
      </trkpt>
      <trkpt lat="47.49152" lon="6.76778">
        <ele>312.2</ele>
        <time>2015-06-08T14:09:51Z</time>
      </trkpt>
      <trkpt lat="47.49152" lon="6.76772">
        <ele>312.2</ele>
        <time>2015-06-08T14:09:51Z</time>
      </trkpt>
      <trkpt lat="47.49151" lon="6.76765">
        <ele>312</ele>
        <time>2015-06-08T14:09:53Z</time>
      </trkpt>
      <trkpt lat="47.4915" lon="6.76759">
        <ele>311.9</ele>
        <time>2015-06-08T14:09:54Z</time>
      </trkpt>
      <trkpt lat="47.49149" lon="6.76754">
        <ele>311.8</ele>
        <time>2015-06-08T14:09:55Z</time>
      </trkpt>
      <trkpt lat="47.49148" lon="6.76749">
        <ele>311.5</ele>
        <time>2015-06-08T14:09:56Z</time>
      </trkpt>
      <trkpt lat="47.49148" lon="6.76743">
        <ele>311.3</ele>
        <time>2015-06-08T14:09:57Z</time>
      </trkpt>
      <trkpt lat="47.49147" lon="6.76736">
        <ele>311.2</ele>
        <time>2015-06-08T14:09:58Z</time>
      </trkpt>
      <trkpt lat="47.49147" lon="6.76728">
        <ele>311.1</ele>
        <time>2015-06-08T14:09:58Z</time>
      </trkpt>
      <trkpt lat="47.49146" lon="6.76722">
        <ele>310.9</ele>
        <time>2015-06-08T14:10:00Z</time>
      </trkpt>
      <trkpt lat="47.49146" lon="6.76715">
        <ele>310.8</ele>
        <time>2015-06-08T14:10:00Z</time>
      </trkpt>
      <trkpt lat="47.49145" lon="6.76708">
        <ele>310.7</ele>
        <time>2015-06-08T14:10:02Z</time>
      </trkpt>
      <trkpt lat="47.49145" lon="6.76702">
        <ele>310.8</ele>
        <time>2015-06-08T14:10:03Z</time>
      </trkpt>
      <trkpt lat="47.49144" lon="6.76696">
        <ele>310.7</ele>
        <time>2015-06-08T14:10:04Z</time>
      </trkpt>
      <trkpt lat="47.49143" lon="6.76688">
        <ele>310.6</ele>
        <time>2015-06-08T14:10:05Z</time>
      </trkpt>
      <trkpt lat="47.49143" lon="6.76681">
        <ele>310.5</ele>
        <time>2015-06-08T14:10:05Z</time>
      </trkpt>
      <trkpt lat="47.49143" lon="6.76673">
        <ele>310.5</ele>
        <time>2015-06-08T14:10:07Z</time>
      </trkpt>
      <trkpt lat="47.49143" lon="6.76667">
        <ele>310.4</ele>
        <time>2015-06-08T14:10:08Z</time>
      </trkpt>
      <trkpt lat="47.49143" lon="6.7666">
        <ele>310.4</ele>
        <time>2015-06-08T14:10:08Z</time>
      </trkpt>
      <trkpt lat="47.49142" lon="6.76653">
        <ele>310.3</ele>
        <time>2015-06-08T14:10:10Z</time>
      </trkpt>
      <trkpt lat="47.49142" lon="6.76646">
        <ele>310.2</ele>
        <time>2015-06-08T14:10:10Z</time>
      </trkpt>
      <trkpt lat="47.49141" lon="6.7664">
        <ele>310.2</ele>
        <time>2015-06-08T14:10:12Z</time>
      </trkpt>
      <trkpt lat="47.49141" lon="6.76633">
        <ele>310.3</ele>
        <time>2015-06-08T14:10:12Z</time>
      </trkpt>
      <trkpt lat="47.4914" lon="6.76627">
        <ele>310.3</ele>
        <time>2015-06-08T14:10:14Z</time>
      </trkpt>
      <trkpt lat="47.49139" lon="6.76621">
        <ele>310.2</ele>
        <time>2015-06-08T14:10:15Z</time>
      </trkpt>
      <trkpt lat="47.49138" lon="6.76614">
        <ele>310.2</ele>
        <time>2015-06-08T14:10:16Z</time>
      </trkpt>
      <trkpt lat="47.49137" lon="6.76608">
        <ele>310.3</ele>
        <time>2015-06-08T14:10:17Z</time>
      </trkpt>
      <trkpt lat="47.49136" lon="6.76601">
        <ele>310.2</ele>
        <time>2015-06-08T14:10:18Z</time>
      </trkpt>
      <trkpt lat="47.49135" lon="6.76595">
        <ele>310.1</ele>
        <time>2015-06-08T14:10:19Z</time>
      </trkpt>
      <trkpt lat="47.49134" lon="6.76588">
        <ele>310.1</ele>
        <time>2015-06-08T14:10:20Z</time>
      </trkpt>
      <trkpt lat="47.49133" lon="6.76581">
        <ele>310.1</ele>
        <time>2015-06-08T14:10:21Z</time>
      </trkpt>
      <trkpt lat="47.49132" lon="6.76573">
        <ele>310.2</ele>
        <time>2015-06-08T14:10:22Z</time>
      </trkpt>
      <trkpt lat="47.49131" lon="6.76566">
        <ele>310.2</ele>
        <time>2015-06-08T14:10:23Z</time>
      </trkpt>
      <trkpt lat="47.4913" lon="6.76559">
        <ele>310.3</ele>
        <time>2015-06-08T14:10:24Z</time>
      </trkpt>
      <trkpt lat="47.49129" lon="6.76551">
        <ele>310.3</ele>
        <time>2015-06-08T14:10:25Z</time>
      </trkpt>
      <trkpt lat="47.49128" lon="6.76536">
        <ele>309.5</ele>
        <time>2015-06-08T14:10:26Z</time>
      </trkpt>
      <trkpt lat="47.49127" lon="6.7653">
        <ele>309.4</ele>
        <time>2015-06-08T14:10:28Z</time>
      </trkpt>
      <trkpt lat="47.49127" lon="6.76518">
        <ele>309.1</ele>
        <time>2015-06-08T14:10:29Z</time>
      </trkpt>
      <trkpt lat="47.49126" lon="6.76511">
        <ele>309</ele>
        <time>2015-06-08T14:10:30Z</time>
      </trkpt>
      <trkpt lat="47.49127" lon="6.76501">
        <ele>308.5</ele>
        <time>2015-06-08T14:10:32Z</time>
      </trkpt>
      <trkpt lat="47.49127" lon="6.76495">
        <ele>308.4</ele>
        <time>2015-06-08T14:10:33Z</time>
      </trkpt>
      <trkpt lat="47.49127" lon="6.76488">
        <ele>308.5</ele>
        <time>2015-06-08T14:10:34Z</time>
      </trkpt>
      <trkpt lat="47.49127" lon="6.76482">
        <ele>308.5</ele>
        <time>2015-06-08T14:10:35Z</time>
      </trkpt>
      <trkpt lat="47.49127" lon="6.76475">
        <ele>308.5</ele>
        <time>2015-06-08T14:10:36Z</time>
      </trkpt>
      <trkpt lat="47.49128" lon="6.76469">
        <ele>308.3</ele>
        <time>2015-06-08T14:10:37Z</time>
      </trkpt>
      <trkpt lat="47.49128" lon="6.76456">
        <ele>308.3</ele>
        <time>2015-06-08T14:10:39Z</time>
      </trkpt>
      <trkpt lat="47.49128" lon="6.76449">
        <ele>308.5</ele>
        <time>2015-06-08T14:10:40Z</time>
      </trkpt>
      <trkpt lat="47.49129" lon="6.76435">
        <ele>308.8</ele>
        <time>2015-06-08T14:10:42Z</time>
      </trkpt>
      <trkpt lat="47.49129" lon="6.76428">
        <ele>308.9</ele>
        <time>2015-06-08T14:10:43Z</time>
      </trkpt>
      <trkpt lat="47.49129" lon="6.76422">
        <ele>309</ele>
        <time>2015-06-08T14:10:44Z</time>
      </trkpt>
      <trkpt lat="47.49129" lon="6.76415">
        <ele>309.1</ele>
        <time>2015-06-08T14:10:46Z</time>
      </trkpt>
      <trkpt lat="47.49129" lon="6.76408">
        <ele>309.3</ele>
        <time>2015-06-08T14:10:46Z</time>
      </trkpt>
      <trkpt lat="47.49129" lon="6.76401">
        <ele>309.3</ele>
        <time>2015-06-08T14:10:47Z</time>
      </trkpt>
      <trkpt lat="47.49129" lon="6.76394">
        <ele>309.5</ele>
        <time>2015-06-08T14:10:48Z</time>
      </trkpt>
      <trkpt lat="47.49128" lon="6.7638">
        <ele>309.8</ele>
        <time>2015-06-08T14:10:50Z</time>
      </trkpt>
      <trkpt lat="47.49128" lon="6.76373">
        <ele>309.9</ele>
        <time>2015-06-08T14:10:51Z</time>
      </trkpt>
      <trkpt lat="47.49128" lon="6.76367">
        <ele>310</ele>
        <time>2015-06-08T14:10:53Z</time>
      </trkpt>
      <trkpt lat="47.49128" lon="6.76353">
        <ele>310.3</ele>
        <time>2015-06-08T14:10:54Z</time>
      </trkpt>
      <trkpt lat="47.49129" lon="6.7634">
        <ele>310.9</ele>
        <time>2015-06-08T14:10:56Z</time>
      </trkpt>
      <trkpt lat="47.49129" lon="6.76333">
        <ele>311.2</ele>
        <time>2015-06-08T14:10:57Z</time>
      </trkpt>
      <trkpt lat="47.49129" lon="6.76326">
        <ele>311.2</ele>
        <time>2015-06-08T14:10:58Z</time>
      </trkpt>
      <trkpt lat="47.4913" lon="6.7632">
        <ele>311.5</ele>
        <time>2015-06-08T14:10:59Z</time>
      </trkpt>
      <trkpt lat="47.49131" lon="6.76314">
        <ele>311.6</ele>
        <time>2015-06-08T14:11:00Z</time>
      </trkpt>
      <trkpt lat="47.49132" lon="6.76309">
        <ele>311.7</ele>
        <time>2015-06-08T14:11:01Z</time>
      </trkpt>
      <trkpt lat="47.49132" lon="6.76296">
        <ele>311.9</ele>
        <time>2015-06-08T14:11:03Z</time>
      </trkpt>
      <trkpt lat="47.49131" lon="6.7629">
        <ele>312</ele>
        <time>2015-06-08T14:11:04Z</time>
      </trkpt>
      <trkpt lat="47.49131" lon="6.76284">
        <ele>312.2</ele>
        <time>2015-06-08T14:11:05Z</time>
      </trkpt>
      <trkpt lat="47.49128" lon="6.76272">
        <ele>312.6</ele>
        <time>2015-06-08T14:11:07Z</time>
      </trkpt>
      <trkpt lat="47.49128" lon="6.76265">
        <ele>312.8</ele>
        <time>2015-06-08T14:11:08Z</time>
      </trkpt>
      <trkpt lat="47.49129" lon="6.76258">
        <ele>312.9</ele>
        <time>2015-06-08T14:11:09Z</time>
      </trkpt>
      <trkpt lat="47.49129" lon="6.76251">
        <ele>313</ele>
        <time>2015-06-08T14:11:10Z</time>
      </trkpt>
      <trkpt lat="47.4913" lon="6.76245">
        <ele>313.1</ele>
        <time>2015-06-08T14:11:11Z</time>
      </trkpt>
      <trkpt lat="47.4913" lon="6.76239">
        <ele>313.3</ele>
        <time>2015-06-08T14:11:12Z</time>
      </trkpt>
      <trkpt lat="47.49131" lon="6.76233">
        <ele>313.4</ele>
        <time>2015-06-08T14:11:13Z</time>
      </trkpt>
      <trkpt lat="47.4913" lon="6.76226">
        <ele>313.3</ele>
        <time>2015-06-08T14:11:14Z</time>
      </trkpt>
      <trkpt lat="47.49128" lon="6.76218">
        <ele>313.1</ele>
        <time>2015-06-08T14:11:15Z</time>
      </trkpt>
      <trkpt lat="47.49128" lon="6.76211">
        <ele>313</ele>
        <time>2015-06-08T14:11:16Z</time>
      </trkpt>
      <trkpt lat="47.49127" lon="6.76204">
        <ele>313</ele>
        <time>2015-06-08T14:11:17Z</time>
      </trkpt>
      <trkpt lat="47.49127" lon="6.76198">
        <ele>313</ele>
        <time>2015-06-08T14:11:18Z</time>
      </trkpt>
      <trkpt lat="47.49127" lon="6.76192">
        <ele>312.9</ele>
        <time>2015-06-08T14:11:19Z</time>
      </trkpt>
      <trkpt lat="47.49128" lon="6.76185">
        <ele>312.8</ele>
        <time>2015-06-08T14:11:20Z</time>
      </trkpt>
      <trkpt lat="47.49129" lon="6.76179">
        <ele>312.7</ele>
        <time>2015-06-08T14:11:21Z</time>
      </trkpt>
      <trkpt lat="47.4913" lon="6.76173">
        <ele>312.7</ele>
        <time>2015-06-08T14:11:22Z</time>
      </trkpt>
      <trkpt lat="47.49131" lon="6.76166">
        <ele>312.6</ele>
        <time>2015-06-08T14:11:23Z</time>
      </trkpt>
      <trkpt lat="47.49132" lon="6.7616">
        <ele>312.5</ele>
        <time>2015-06-08T14:11:24Z</time>
      </trkpt>
      <trkpt lat="47.49133" lon="6.76153">
        <ele>312.4</ele>
        <time>2015-06-08T14:11:25Z</time>
      </trkpt>
      <trkpt lat="47.49134" lon="6.76146">
        <ele>312.2</ele>
        <time>2015-06-08T14:11:26Z</time>
      </trkpt>
      <trkpt lat="47.49135" lon="6.7614">
        <ele>312.1</ele>
        <time>2015-06-08T14:11:27Z</time>
      </trkpt>
      <trkpt lat="47.49136" lon="6.76134">
        <ele>312.1</ele>
        <time>2015-06-08T14:11:28Z</time>
      </trkpt>
      <trkpt lat="47.49137" lon="6.76127">
        <ele>312.2</ele>
        <time>2015-06-08T14:11:29Z</time>
      </trkpt>
      <trkpt lat="47.49138" lon="6.7612">
        <ele>312.5</ele>
        <time>2015-06-08T14:11:30Z</time>
      </trkpt>
      <trkpt lat="47.49139" lon="6.76114">
        <ele>312.8</ele>
        <time>2015-06-08T14:11:31Z</time>
      </trkpt>
      <trkpt lat="47.49139" lon="6.76107">
        <ele>313.1</ele>
        <time>2015-06-08T14:11:32Z</time>
      </trkpt>
      <trkpt lat="47.49141" lon="6.76101">
        <ele>313.3</ele>
        <time>2015-06-08T14:11:33Z</time>
      </trkpt>
      <trkpt lat="47.49143" lon="6.76095">
        <ele>313.7</ele>
        <time>2015-06-08T14:11:34Z</time>
      </trkpt>
      <trkpt lat="47.49144" lon="6.76089">
        <ele>313.8</ele>
        <time>2015-06-08T14:11:35Z</time>
      </trkpt>
      <trkpt lat="47.49147" lon="6.76076">
        <ele>314.3</ele>
        <time>2015-06-08T14:11:37Z</time>
      </trkpt>
      <trkpt lat="47.49149" lon="6.7607">
        <ele>314.4</ele>
        <time>2015-06-08T14:11:38Z</time>
      </trkpt>
      <trkpt lat="47.4915" lon="6.76063">
        <ele>314.2</ele>
        <time>2015-06-08T14:11:39Z</time>
      </trkpt>
      <trkpt lat="47.49152" lon="6.76057">
        <ele>314.2</ele>
        <time>2015-06-08T14:11:40Z</time>
      </trkpt>
      <trkpt lat="47.49154" lon="6.76051">
        <ele>314.3</ele>
        <time>2015-06-08T14:11:41Z</time>
      </trkpt>
      <trkpt lat="47.49155" lon="6.76044">
        <ele>314.2</ele>
        <time>2015-06-08T14:11:42Z</time>
      </trkpt>
      <trkpt lat="47.49157" lon="6.76039">
        <ele>314.4</ele>
        <time>2015-06-08T14:11:43Z</time>
      </trkpt>
      <trkpt lat="47.49161" lon="6.76027">
        <ele>314.3</ele>
        <time>2015-06-08T14:11:45Z</time>
      </trkpt>
      <trkpt lat="47.49166" lon="6.76015">
        <ele>313.2</ele>
        <time>2015-06-08T14:11:47Z</time>
      </trkpt>
      <trkpt lat="47.49168" lon="6.76009">
        <ele>312.9</ele>
        <time>2015-06-08T14:11:48Z</time>
      </trkpt>
      <trkpt lat="47.4917" lon="6.76003">
        <ele>312.7</ele>
        <time>2015-06-08T14:11:49Z</time>
      </trkpt>
      <trkpt lat="47.49172" lon="6.75998">
        <ele>312.8</ele>
        <time>2015-06-08T14:11:50Z</time>
      </trkpt>
      <trkpt lat="47.49175" lon="6.75993">
        <ele>312.7</ele>
        <time>2015-06-08T14:11:51Z</time>
      </trkpt>
      <trkpt lat="47.49177" lon="6.75987">
        <ele>312.5</ele>
        <time>2015-06-08T14:11:52Z</time>
      </trkpt>
      <trkpt lat="47.49179" lon="6.75981">
        <ele>312.6</ele>
        <time>2015-06-08T14:11:53Z</time>
      </trkpt>
      <trkpt lat="47.49185" lon="6.7597">
        <ele>312.4</ele>
        <time>2015-06-08T14:11:55Z</time>
      </trkpt>
      <trkpt lat="47.49183" lon="6.75964">
        <ele>312.9</ele>
        <time>2015-06-08T14:11:56Z</time>
      </trkpt>
      <trkpt lat="47.49184" lon="6.75959">
        <ele>313</ele>
        <time>2015-06-08T14:11:57Z</time>
      </trkpt>
      <trkpt lat="47.49192" lon="6.75957">
        <ele>313.4</ele>
        <time>2015-06-08T14:11:58Z</time>
      </trkpt>
      <trkpt lat="47.49196" lon="6.75953">
        <ele>313.6</ele>
        <time>2015-06-08T14:11:59Z</time>
      </trkpt>
      <trkpt lat="47.49202" lon="6.75945">
        <ele>312.8</ele>
        <time>2015-06-08T14:12:01Z</time>
      </trkpt>
      <trkpt lat="47.49207" lon="6.75939">
        <ele>312.4</ele>
        <time>2015-06-08T14:12:02Z</time>
      </trkpt>
      <trkpt lat="47.49212" lon="6.75934">
        <ele>312.2</ele>
        <time>2015-06-08T14:12:03Z</time>
      </trkpt>
      <trkpt lat="47.49216" lon="6.75929">
        <ele>312.1</ele>
        <time>2015-06-08T14:12:04Z</time>
      </trkpt>
      <trkpt lat="47.49218" lon="6.75923">
        <ele>311.8</ele>
        <time>2015-06-08T14:12:05Z</time>
      </trkpt>
      <trkpt lat="47.49222" lon="6.75909">
        <ele>311.7</ele>
        <time>2015-06-08T14:12:07Z</time>
      </trkpt>
      <trkpt lat="47.49225" lon="6.75903">
        <ele>311.6</ele>
        <time>2015-06-08T14:12:08Z</time>
      </trkpt>
      <trkpt lat="47.49227" lon="6.75897">
        <ele>311.5</ele>
        <time>2015-06-08T14:12:09Z</time>
      </trkpt>
      <trkpt lat="47.49229" lon="6.75891">
        <ele>311.4</ele>
        <time>2015-06-08T14:12:10Z</time>
      </trkpt>
      <trkpt lat="47.49232" lon="6.75885">
        <ele>311.2</ele>
        <time>2015-06-08T14:12:11Z</time>
      </trkpt>
      <trkpt lat="47.49236" lon="6.75872">
        <ele>310.5</ele>
        <time>2015-06-08T14:12:13Z</time>
      </trkpt>
      <trkpt lat="47.49238" lon="6.75867">
        <ele>310.3</ele>
        <time>2015-06-08T14:12:14Z</time>
      </trkpt>
      <trkpt lat="47.4924" lon="6.75861">
        <ele>310</ele>
        <time>2015-06-08T14:12:15Z</time>
      </trkpt>
      <trkpt lat="47.49242" lon="6.75855">
        <ele>309.8</ele>
        <time>2015-06-08T14:12:16Z</time>
      </trkpt>
      <trkpt lat="47.49245" lon="6.75849">
        <ele>309.4</ele>
        <time>2015-06-08T14:12:17Z</time>
      </trkpt>
      <trkpt lat="47.49248" lon="6.75844">
        <ele>309.3</ele>
        <time>2015-06-08T14:12:18Z</time>
      </trkpt>
      <trkpt lat="47.49251" lon="6.75839">
        <ele>309.1</ele>
        <time>2015-06-08T14:12:19Z</time>
      </trkpt>
      <trkpt lat="47.49254" lon="6.75833">
        <ele>308.8</ele>
        <time>2015-06-08T14:12:20Z</time>
      </trkpt>
      <trkpt lat="47.49257" lon="6.75828">
        <ele>308.6</ele>
        <time>2015-06-08T14:12:21Z</time>
      </trkpt>
      <trkpt lat="47.4926" lon="6.75823">
        <ele>308.2</ele>
        <time>2015-06-08T14:12:22Z</time>
      </trkpt>
      <trkpt lat="47.49262" lon="6.75818">
        <ele>307.8</ele>
        <time>2015-06-08T14:12:23Z</time>
      </trkpt>
      <trkpt lat="47.49269" lon="6.75813">
        <ele>307.8</ele>
        <time>2015-06-08T14:12:24Z</time>
      </trkpt>
      <trkpt lat="47.49274" lon="6.75807">
        <ele>307.5</ele>
        <time>2015-06-08T14:12:25Z</time>
      </trkpt>
      <trkpt lat="47.49277" lon="6.75802">
        <ele>307.1</ele>
        <time>2015-06-08T14:12:26Z</time>
      </trkpt>
      <trkpt lat="47.49279" lon="6.75797">
        <ele>306.7</ele>
        <time>2015-06-08T14:12:27Z</time>
      </trkpt>
      <trkpt lat="47.49281" lon="6.75794">
        <ele>307.8</ele>
        <time>2015-06-08T14:12:28Z</time>
      </trkpt>
      <trkpt lat="47.49284" lon="6.7579">
        <ele>307.4</ele>
        <time>2015-06-08T14:12:29Z</time>
      </trkpt>
      <trkpt lat="47.49287" lon="6.75785">
        <ele>307</ele>
        <time>2015-06-08T14:12:30Z</time>
      </trkpt>
      <trkpt lat="47.4929" lon="6.75781">
        <ele>307</ele>
        <time>2015-06-08T14:12:31Z</time>
      </trkpt>
      <trkpt lat="47.49293" lon="6.75777">
        <ele>307.5</ele>
        <time>2015-06-08T14:12:32Z</time>
      </trkpt>
      <trkpt lat="47.49296" lon="6.75773">
        <ele>307.1</ele>
        <time>2015-06-08T14:12:33Z</time>
      </trkpt>
      <trkpt lat="47.49299" lon="6.7577">
        <ele>306.1</ele>
        <time>2015-06-08T14:12:34Z</time>
      </trkpt>
      <trkpt lat="47.49302" lon="6.75766">
        <ele>305.7</ele>
        <time>2015-06-08T14:12:35Z</time>
      </trkpt>
      <trkpt lat="47.49307" lon="6.75763">
        <ele>305.5</ele>
        <time>2015-06-08T14:12:36Z</time>
      </trkpt>
      <trkpt lat="47.49311" lon="6.75759">
        <ele>305.8</ele>
        <time>2015-06-08T14:12:37Z</time>
      </trkpt>
      <trkpt lat="47.49314" lon="6.75755">
        <ele>305.4</ele>
        <time>2015-06-08T14:12:38Z</time>
      </trkpt>
      <trkpt lat="47.49319" lon="6.75751">
        <ele>305.2</ele>
        <time>2015-06-08T14:12:39Z</time>
      </trkpt>
      <trkpt lat="47.49323" lon="6.75748">
        <ele>305</ele>
        <time>2015-06-08T14:12:40Z</time>
      </trkpt>
      <trkpt lat="47.49326" lon="6.75745">
        <ele>304.5</ele>
        <time>2015-06-08T14:12:41Z</time>
      </trkpt>
      <trkpt lat="47.4933" lon="6.75742">
        <ele>303.8</ele>
        <time>2015-06-08T14:12:42Z</time>
      </trkpt>
      <trkpt lat="47.49335" lon="6.7574">
        <ele>303.6</ele>
        <time>2015-06-08T14:12:43Z</time>
      </trkpt>
      <trkpt lat="47.49338" lon="6.75737">
        <ele>303.7</ele>
        <time>2015-06-08T14:12:44Z</time>
      </trkpt>
      <trkpt lat="47.49341" lon="6.75736">
        <ele>303.7</ele>
        <time>2015-06-08T14:12:45Z</time>
      </trkpt>
      <trkpt lat="47.49343" lon="6.75735">
        <ele>304.5</ele>
        <time>2015-06-08T14:12:46Z</time>
      </trkpt>
      <trkpt lat="47.49345" lon="6.75735">
        <ele>304.7</ele>
        <time>2015-06-08T14:12:47Z</time>
      </trkpt>
      <trkpt lat="47.49346" lon="6.75735">
        <ele>304.8</ele>
        <time>2015-06-08T14:12:49Z</time>
      </trkpt>
      <trkpt lat="47.49347" lon="6.75736">
        <ele>305.1</ele>
        <time>2015-06-08T14:12:50Z</time>
      </trkpt>
      <trkpt lat="47.49348" lon="6.75736">
        <ele>305.1</ele>
        <time>2015-06-08T14:12:52Z</time>
      </trkpt>
      <trkpt lat="47.49349" lon="6.75736">
        <ele>304.9</ele>
        <time>2015-06-08T14:12:55Z</time>
      </trkpt>
      <trkpt lat="47.49349" lon="6.75735">
        <ele>304.9</ele>
        <time>2015-06-08T14:13:16Z</time>
      </trkpt>
      <trkpt lat="47.49349" lon="6.75733">
        <ele>304.9</ele>
        <time>2015-06-08T14:13:39Z</time>
      </trkpt>
      <trkpt lat="47.49349" lon="6.7573">
        <ele>305.2</ele>
        <time>2015-06-08T14:13:40Z</time>
      </trkpt>
      <trkpt lat="47.49352" lon="6.75725">
        <ele>305.2</ele>
        <time>2015-06-08T14:13:42Z</time>
      </trkpt>
      <trkpt lat="47.49354" lon="6.75721">
        <ele>305.9</ele>
        <time>2015-06-08T14:13:42Z</time>
      </trkpt>
      <trkpt lat="47.49354" lon="6.75714">
        <ele>306.1</ele>
        <time>2015-06-08T14:13:44Z</time>
      </trkpt>
      <trkpt lat="47.49353" lon="6.75706">
        <ele>306.2</ele>
        <time>2015-06-08T14:13:44Z</time>
      </trkpt>
      <trkpt lat="47.49353" lon="6.75699">
        <ele>306.3</ele>
        <time>2015-06-08T14:13:46Z</time>
      </trkpt>
      <trkpt lat="47.49353" lon="6.7569">
        <ele>306.4</ele>
        <time>2015-06-08T14:13:46Z</time>
      </trkpt>
      <trkpt lat="47.49352" lon="6.75683">
        <ele>306.8</ele>
        <time>2015-06-08T14:13:47Z</time>
      </trkpt>
      <trkpt lat="47.49351" lon="6.75676">
        <ele>306.9</ele>
        <time>2015-06-08T14:13:48Z</time>
      </trkpt>
      <trkpt lat="47.49351" lon="6.75668">
        <ele>307.1</ele>
        <time>2015-06-08T14:13:49Z</time>
      </trkpt>
      <trkpt lat="47.4935" lon="6.75661">
        <ele>307.5</ele>
        <time>2015-06-08T14:13:50Z</time>
      </trkpt>
      <trkpt lat="47.49349" lon="6.75654">
        <ele>307.7</ele>
        <time>2015-06-08T14:13:51Z</time>
      </trkpt>
      <trkpt lat="47.49348" lon="6.75647">
        <ele>308.1</ele>
        <time>2015-06-08T14:13:52Z</time>
      </trkpt>
      <trkpt lat="47.49347" lon="6.75639">
        <ele>308.5</ele>
        <time>2015-06-08T14:13:53Z</time>
      </trkpt>
      <trkpt lat="47.49345" lon="6.75631">
        <ele>308.7</ele>
        <time>2015-06-08T14:13:55Z</time>
      </trkpt>
      <trkpt lat="47.49343" lon="6.75624">
        <ele>309.1</ele>
        <time>2015-06-08T14:13:56Z</time>
      </trkpt>
      <trkpt lat="47.49342" lon="6.75616">
        <ele>309.3</ele>
        <time>2015-06-08T14:13:56Z</time>
      </trkpt>
      <trkpt lat="47.4934" lon="6.75608">
        <ele>309.6</ele>
        <time>2015-06-08T14:13:57Z</time>
      </trkpt>
      <trkpt lat="47.49339" lon="6.75601">
        <ele>309.8</ele>
        <time>2015-06-08T14:13:58Z</time>
      </trkpt>
      <trkpt lat="47.49337" lon="6.75593">
        <ele>310</ele>
        <time>2015-06-08T14:14:00Z</time>
      </trkpt>
      <trkpt lat="47.49336" lon="6.75586">
        <ele>310.2</ele>
        <time>2015-06-08T14:14:00Z</time>
      </trkpt>
      <trkpt lat="47.49334" lon="6.75578">
        <ele>310.5</ele>
        <time>2015-06-08T14:14:01Z</time>
      </trkpt>
      <trkpt lat="47.49333" lon="6.75571">
        <ele>310.8</ele>
        <time>2015-06-08T14:14:02Z</time>
      </trkpt>
      <trkpt lat="47.49331" lon="6.75564">
        <ele>311</ele>
        <time>2015-06-08T14:14:03Z</time>
      </trkpt>
      <trkpt lat="47.49329" lon="6.75557">
        <ele>311.2</ele>
        <time>2015-06-08T14:14:04Z</time>
      </trkpt>
      <trkpt lat="47.49328" lon="6.75549">
        <ele>311.4</ele>
        <time>2015-06-08T14:14:05Z</time>
      </trkpt>
      <trkpt lat="47.49327" lon="6.75542">
        <ele>311.6</ele>
        <time>2015-06-08T14:14:06Z</time>
      </trkpt>
      <trkpt lat="47.49326" lon="6.75534">
        <ele>311.9</ele>
        <time>2015-06-08T14:14:07Z</time>
      </trkpt>
      <trkpt lat="47.49325" lon="6.75527">
        <ele>312.2</ele>
        <time>2015-06-08T14:14:08Z</time>
      </trkpt>
      <trkpt lat="47.49325" lon="6.7552">
        <ele>312.5</ele>
        <time>2015-06-08T14:14:09Z</time>
      </trkpt>
      <trkpt lat="47.49324" lon="6.75513">
        <ele>312.8</ele>
        <time>2015-06-08T14:14:10Z</time>
      </trkpt>
      <trkpt lat="47.49324" lon="6.75505">
        <ele>313.1</ele>
        <time>2015-06-08T14:14:11Z</time>
      </trkpt>
      <trkpt lat="47.49325" lon="6.75499">
        <ele>313.7</ele>
        <time>2015-06-08T14:14:12Z</time>
      </trkpt>
      <trkpt lat="47.49326" lon="6.75492">
        <ele>314.3</ele>
        <time>2015-06-08T14:14:13Z</time>
      </trkpt>
      <trkpt lat="47.49327" lon="6.75485">
        <ele>314.7</ele>
        <time>2015-06-08T14:14:15Z</time>
      </trkpt>
      <trkpt lat="47.49327" lon="6.75478">
        <ele>315.2</ele>
        <time>2015-06-08T14:14:15Z</time>
      </trkpt>
      <trkpt lat="47.49329" lon="6.75471">
        <ele>315.6</ele>
        <time>2015-06-08T14:14:16Z</time>
      </trkpt>
      <trkpt lat="47.49331" lon="6.75464">
        <ele>315.9</ele>
        <time>2015-06-08T14:14:17Z</time>
      </trkpt>
      <trkpt lat="47.49332" lon="6.7545">
        <ele>316.4</ele>
        <time>2015-06-08T14:14:19Z</time>
      </trkpt>
      <trkpt lat="47.49333" lon="6.75443">
        <ele>316.6</ele>
        <time>2015-06-08T14:14:20Z</time>
      </trkpt>
      <trkpt lat="47.49334" lon="6.75436">
        <ele>316.7</ele>
        <time>2015-06-08T14:14:21Z</time>
      </trkpt>
      <trkpt lat="47.49334" lon="6.7543">
        <ele>317.2</ele>
        <time>2015-06-08T14:14:22Z</time>
      </trkpt>
      <trkpt lat="47.49336" lon="6.75424">
        <ele>317.3</ele>
        <time>2015-06-08T14:14:23Z</time>
      </trkpt>
      <trkpt lat="47.49338" lon="6.75411">
        <ele>317.9</ele>
        <time>2015-06-08T14:14:25Z</time>
      </trkpt>
      <trkpt lat="47.49339" lon="6.75405">
        <ele>318</ele>
        <time>2015-06-08T14:14:26Z</time>
      </trkpt>
      <trkpt lat="47.49341" lon="6.75399">
        <ele>318.4</ele>
        <time>2015-06-08T14:14:27Z</time>
      </trkpt>
      <trkpt lat="47.49342" lon="6.75392">
        <ele>318.6</ele>
        <time>2015-06-08T14:14:28Z</time>
      </trkpt>
      <trkpt lat="47.49344" lon="6.75386">
        <ele>318.8</ele>
        <time>2015-06-08T14:14:29Z</time>
      </trkpt>
      <trkpt lat="47.49346" lon="6.7538">
        <ele>318.7</ele>
        <time>2015-06-08T14:14:30Z</time>
      </trkpt>
      <trkpt lat="47.49348" lon="6.75373">
        <ele>318.6</ele>
        <time>2015-06-08T14:14:31Z</time>
      </trkpt>
      <trkpt lat="47.49349" lon="6.75367">
        <ele>318.6</ele>
        <time>2015-06-08T14:14:32Z</time>
      </trkpt>
      <trkpt lat="47.49351" lon="6.75361">
        <ele>318.5</ele>
        <time>2015-06-08T14:14:33Z</time>
      </trkpt>
      <trkpt lat="47.49353" lon="6.75354">
        <ele>318.6</ele>
        <time>2015-06-08T14:14:34Z</time>
      </trkpt>
      <trkpt lat="47.49355" lon="6.75348">
        <ele>318.6</ele>
        <time>2015-06-08T14:14:35Z</time>
      </trkpt>
      <trkpt lat="47.49356" lon="6.75341">
        <ele>318.5</ele>
        <time>2015-06-08T14:14:36Z</time>
      </trkpt>
      <trkpt lat="47.49359" lon="6.75335">
        <ele>318.3</ele>
        <time>2015-06-08T14:14:38Z</time>
      </trkpt>
      <trkpt lat="47.49361" lon="6.75329">
        <ele>318.2</ele>
        <time>2015-06-08T14:14:39Z</time>
      </trkpt>
      <trkpt lat="47.49363" lon="6.75323">
        <ele>318</ele>
        <time>2015-06-08T14:14:39Z</time>
      </trkpt>
      <trkpt lat="47.49365" lon="6.75317">
        <ele>318.1</ele>
        <time>2015-06-08T14:14:40Z</time>
      </trkpt>
      <trkpt lat="47.49367" lon="6.75311">
        <ele>318.1</ele>
        <time>2015-06-08T14:14:41Z</time>
      </trkpt>
      <trkpt lat="47.49369" lon="6.75305">
        <ele>318.2</ele>
        <time>2015-06-08T14:14:42Z</time>
      </trkpt>
      <trkpt lat="47.49371" lon="6.75298">
        <ele>318.1</ele>
        <time>2015-06-08T14:14:43Z</time>
      </trkpt>
      <trkpt lat="47.49372" lon="6.75291">
        <ele>318</ele>
        <time>2015-06-08T14:14:44Z</time>
      </trkpt>
      <trkpt lat="47.4938" lon="6.75287">
        <ele>318.2</ele>
        <time>2015-06-08T14:14:45Z</time>
      </trkpt>
      <trkpt lat="47.49382" lon="6.7528">
        <ele>318.3</ele>
        <time>2015-06-08T14:14:46Z</time>
      </trkpt>
      <trkpt lat="47.49384" lon="6.75273">
        <ele>318.3</ele>
        <time>2015-06-08T14:14:47Z</time>
      </trkpt>
      <trkpt lat="47.49385" lon="6.75266">
        <ele>318.3</ele>
        <time>2015-06-08T14:14:48Z</time>
      </trkpt>
      <trkpt lat="47.49386" lon="6.75259">
        <ele>318.4</ele>
        <time>2015-06-08T14:14:49Z</time>
      </trkpt>
      <trkpt lat="47.49387" lon="6.75252">
        <ele>318.7</ele>
        <time>2015-06-08T14:14:50Z</time>
      </trkpt>
      <trkpt lat="47.49388" lon="6.75245">
        <ele>319</ele>
        <time>2015-06-08T14:14:51Z</time>
      </trkpt>
      <trkpt lat="47.49389" lon="6.75238">
        <ele>319.4</ele>
        <time>2015-06-08T14:14:52Z</time>
      </trkpt>
      <trkpt lat="47.4939" lon="6.7523">
        <ele>319.8</ele>
        <time>2015-06-08T14:14:53Z</time>
      </trkpt>
      <trkpt lat="47.49391" lon="6.75224">
        <ele>319.9</ele>
        <time>2015-06-08T14:14:54Z</time>
      </trkpt>
      <trkpt lat="47.49392" lon="6.75217">
        <ele>320</ele>
        <time>2015-06-08T14:14:55Z</time>
      </trkpt>
      <trkpt lat="47.49393" lon="6.75209">
        <ele>320.4</ele>
        <time>2015-06-08T14:14:56Z</time>
      </trkpt>
      <trkpt lat="47.49395" lon="6.75202">
        <ele>320.6</ele>
        <time>2015-06-08T14:14:57Z</time>
      </trkpt>
      <trkpt lat="47.49396" lon="6.75195">
        <ele>320.6</ele>
        <time>2015-06-08T14:14:58Z</time>
      </trkpt>
      <trkpt lat="47.49398" lon="6.75188">
        <ele>320.8</ele>
        <time>2015-06-08T14:14:59Z</time>
      </trkpt>
      <trkpt lat="47.49399" lon="6.75181">
        <ele>321</ele>
        <time>2015-06-08T14:15:00Z</time>
      </trkpt>
      <trkpt lat="47.494" lon="6.75174">
        <ele>321.2</ele>
        <time>2015-06-08T14:15:01Z</time>
      </trkpt>
      <trkpt lat="47.49401" lon="6.75167">
        <ele>321.3</ele>
        <time>2015-06-08T14:15:02Z</time>
      </trkpt>
      <trkpt lat="47.49402" lon="6.7516">
        <ele>321.5</ele>
        <time>2015-06-08T14:15:03Z</time>
      </trkpt>
      <trkpt lat="47.49403" lon="6.75153">
        <ele>321.4</ele>
        <time>2015-06-08T14:15:04Z</time>
      </trkpt>
      <trkpt lat="47.49405" lon="6.75147">
        <ele>321.5</ele>
        <time>2015-06-08T14:15:05Z</time>
      </trkpt>
      <trkpt lat="47.49406" lon="6.7514">
        <ele>321.6</ele>
        <time>2015-06-08T14:15:06Z</time>
      </trkpt>
      <trkpt lat="47.49408" lon="6.75133">
        <ele>321.7</ele>
        <time>2015-06-08T14:15:07Z</time>
      </trkpt>
      <trkpt lat="47.49409" lon="6.75126">
        <ele>321.7</ele>
        <time>2015-06-08T14:15:08Z</time>
      </trkpt>
      <trkpt lat="47.4941" lon="6.75119">
        <ele>321.6</ele>
        <time>2015-06-08T14:15:09Z</time>
      </trkpt>
      <trkpt lat="47.49411" lon="6.75112">
        <ele>321.5</ele>
        <time>2015-06-08T14:15:10Z</time>
      </trkpt>
      <trkpt lat="47.49412" lon="6.75105">
        <ele>321.2</ele>
        <time>2015-06-08T14:15:11Z</time>
      </trkpt>
      <trkpt lat="47.49413" lon="6.75098">
        <ele>321</ele>
        <time>2015-06-08T14:15:12Z</time>
      </trkpt>
      <trkpt lat="47.49414" lon="6.75091">
        <ele>320.8</ele>
        <time>2015-06-08T14:15:13Z</time>
      </trkpt>
      <trkpt lat="47.49415" lon="6.75082">
        <ele>320.7</ele>
        <time>2015-06-08T14:15:14Z</time>
      </trkpt>
      <trkpt lat="47.49415" lon="6.75074">
        <ele>320.9</ele>
        <time>2015-06-08T14:15:15Z</time>
      </trkpt>
      <trkpt lat="47.49416" lon="6.75066">
        <ele>320.9</ele>
        <time>2015-06-08T14:15:16Z</time>
      </trkpt>
      <trkpt lat="47.49418" lon="6.75058">
        <ele>321</ele>
        <time>2015-06-08T14:15:17Z</time>
      </trkpt>
      <trkpt lat="47.49419" lon="6.7505">
        <ele>320.7</ele>
        <time>2015-06-08T14:15:18Z</time>
      </trkpt>
      <trkpt lat="47.49419" lon="6.75042">
        <ele>320.6</ele>
        <time>2015-06-08T14:15:19Z</time>
      </trkpt>
      <trkpt lat="47.4942" lon="6.75034">
        <ele>320.7</ele>
        <time>2015-06-08T14:15:20Z</time>
      </trkpt>
      <trkpt lat="47.4942" lon="6.75027">
        <ele>320.5</ele>
        <time>2015-06-08T14:15:21Z</time>
      </trkpt>
      <trkpt lat="47.49421" lon="6.7502">
        <ele>320.7</ele>
        <time>2015-06-08T14:15:22Z</time>
      </trkpt>
      <trkpt lat="47.4942" lon="6.75012">
        <ele>320.8</ele>
        <time>2015-06-08T14:15:23Z</time>
      </trkpt>
      <trkpt lat="47.4942" lon="6.75004">
        <ele>320.9</ele>
        <time>2015-06-08T14:15:24Z</time>
      </trkpt>
      <trkpt lat="47.4942" lon="6.74997">
        <ele>321.1</ele>
        <time>2015-06-08T14:15:25Z</time>
      </trkpt>
      <trkpt lat="47.4942" lon="6.74989">
        <ele>321.2</ele>
        <time>2015-06-08T14:15:26Z</time>
      </trkpt>
      <trkpt lat="47.49421" lon="6.74982">
        <ele>321.3</ele>
        <time>2015-06-08T14:15:27Z</time>
      </trkpt>
      <trkpt lat="47.49421" lon="6.74974">
        <ele>321.3</ele>
        <time>2015-06-08T14:15:28Z</time>
      </trkpt>
      <trkpt lat="47.4942" lon="6.74966">
        <ele>321.4</ele>
        <time>2015-06-08T14:15:29Z</time>
      </trkpt>
      <trkpt lat="47.49421" lon="6.74958">
        <ele>321.4</ele>
        <time>2015-06-08T14:15:30Z</time>
      </trkpt>
      <trkpt lat="47.49421" lon="6.7495">
        <ele>321.6</ele>
        <time>2015-06-08T14:15:31Z</time>
      </trkpt>
      <trkpt lat="47.49421" lon="6.74943">
        <ele>321.6</ele>
        <time>2015-06-08T14:15:32Z</time>
      </trkpt>
      <trkpt lat="47.49421" lon="6.74936">
        <ele>321.7</ele>
        <time>2015-06-08T14:15:33Z</time>
      </trkpt>
      <trkpt lat="47.49422" lon="6.74928">
        <ele>321.8</ele>
        <time>2015-06-08T14:15:34Z</time>
      </trkpt>
      <trkpt lat="47.49422" lon="6.74921">
        <ele>321.8</ele>
        <time>2015-06-08T14:15:35Z</time>
      </trkpt>
      <trkpt lat="47.49422" lon="6.74913">
        <ele>321.9</ele>
        <time>2015-06-08T14:15:36Z</time>
      </trkpt>
      <trkpt lat="47.49423" lon="6.74905">
        <ele>322</ele>
        <time>2015-06-08T14:15:37Z</time>
      </trkpt>
      <trkpt lat="47.49424" lon="6.74896">
        <ele>322</ele>
        <time>2015-06-08T14:15:38Z</time>
      </trkpt>
      <trkpt lat="47.49425" lon="6.74888">
        <ele>322</ele>
        <time>2015-06-08T14:15:39Z</time>
      </trkpt>
      <trkpt lat="47.49426" lon="6.7488">
        <ele>321.8</ele>
        <time>2015-06-08T14:15:40Z</time>
      </trkpt>
      <trkpt lat="47.49426" lon="6.74871">
        <ele>322</ele>
        <time>2015-06-08T14:15:41Z</time>
      </trkpt>
      <trkpt lat="47.49428" lon="6.74864">
        <ele>322.7</ele>
        <time>2015-06-08T14:15:42Z</time>
      </trkpt>
      <trkpt lat="47.49429" lon="6.74856">
        <ele>323.8</ele>
        <time>2015-06-08T14:15:43Z</time>
      </trkpt>
      <trkpt lat="47.49431" lon="6.74849">
        <ele>324.3</ele>
        <time>2015-06-08T14:15:44Z</time>
      </trkpt>
      <trkpt lat="47.49432" lon="6.7484">
        <ele>324.4</ele>
        <time>2015-06-08T14:15:45Z</time>
      </trkpt>
      <trkpt lat="47.49432" lon="6.74833">
        <ele>324.3</ele>
        <time>2015-06-08T14:15:46Z</time>
      </trkpt>
      <trkpt lat="47.49433" lon="6.74826">
        <ele>324.2</ele>
        <time>2015-06-08T14:15:47Z</time>
      </trkpt>
      <trkpt lat="47.49434" lon="6.74819">
        <ele>324</ele>
        <time>2015-06-08T14:15:48Z</time>
      </trkpt>
      <trkpt lat="47.49434" lon="6.7481">
        <ele>324</ele>
        <time>2015-06-08T14:15:49Z</time>
      </trkpt>
      <trkpt lat="47.49435" lon="6.74801">
        <ele>324.1</ele>
        <time>2015-06-08T14:15:50Z</time>
      </trkpt>
      <trkpt lat="47.49435" lon="6.74793">
        <ele>324.1</ele>
        <time>2015-06-08T14:15:51Z</time>
      </trkpt>
      <trkpt lat="47.49436" lon="6.74785">
        <ele>324.2</ele>
        <time>2015-06-08T14:15:52Z</time>
      </trkpt>
      <trkpt lat="47.49436" lon="6.74776">
        <ele>324.3</ele>
        <time>2015-06-08T14:15:53Z</time>
      </trkpt>
      <trkpt lat="47.49436" lon="6.74767">
        <ele>324.3</ele>
        <time>2015-06-08T14:15:54Z</time>
      </trkpt>
      <trkpt lat="47.49436" lon="6.74759">
        <ele>324.4</ele>
        <time>2015-06-08T14:15:55Z</time>
      </trkpt>
      <trkpt lat="47.49437" lon="6.7475">
        <ele>324.4</ele>
        <time>2015-06-08T14:15:56Z</time>
      </trkpt>
      <trkpt lat="47.49437" lon="6.74742">
        <ele>324.4</ele>
        <time>2015-06-08T14:15:57Z</time>
      </trkpt>
      <trkpt lat="47.49437" lon="6.74733">
        <ele>324.5</ele>
        <time>2015-06-08T14:15:58Z</time>
      </trkpt>
      <trkpt lat="47.49437" lon="6.74725">
        <ele>324.6</ele>
        <time>2015-06-08T14:15:59Z</time>
      </trkpt>
      <trkpt lat="47.49437" lon="6.74717">
        <ele>324.7</ele>
        <time>2015-06-08T14:16:00Z</time>
      </trkpt>
      <trkpt lat="47.49438" lon="6.7471">
        <ele>324.5</ele>
        <time>2015-06-08T14:16:01Z</time>
      </trkpt>
      <trkpt lat="47.49438" lon="6.74702">
        <ele>324.5</ele>
        <time>2015-06-08T14:16:02Z</time>
      </trkpt>
      <trkpt lat="47.49439" lon="6.74695">
        <ele>324.5</ele>
        <time>2015-06-08T14:16:03Z</time>
      </trkpt>
      <trkpt lat="47.4944" lon="6.74687">
        <ele>324.6</ele>
        <time>2015-06-08T14:16:04Z</time>
      </trkpt>
      <trkpt lat="47.49441" lon="6.74679">
        <ele>324.6</ele>
        <time>2015-06-08T14:16:05Z</time>
      </trkpt>
      <trkpt lat="47.49441" lon="6.74671">
        <ele>324.6</ele>
        <time>2015-06-08T14:16:06Z</time>
      </trkpt>
      <trkpt lat="47.49441" lon="6.74663">
        <ele>324.6</ele>
        <time>2015-06-08T14:16:07Z</time>
      </trkpt>
      <trkpt lat="47.49442" lon="6.74655">
        <ele>324.6</ele>
        <time>2015-06-08T14:16:08Z</time>
      </trkpt>
      <trkpt lat="47.49442" lon="6.74647">
        <ele>324.6</ele>
        <time>2015-06-08T14:16:09Z</time>
      </trkpt>
      <trkpt lat="47.49442" lon="6.74638">
        <ele>324.6</ele>
        <time>2015-06-08T14:16:10Z</time>
      </trkpt>
      <trkpt lat="47.49442" lon="6.74629">
        <ele>324.6</ele>
        <time>2015-06-08T14:16:11Z</time>
      </trkpt>
      <trkpt lat="47.49442" lon="6.74621">
        <ele>324.6</ele>
        <time>2015-06-08T14:16:12Z</time>
      </trkpt>
      <trkpt lat="47.49441" lon="6.74613">
        <ele>324.6</ele>
        <time>2015-06-08T14:16:13Z</time>
      </trkpt>
      <trkpt lat="47.49441" lon="6.74605">
        <ele>324.6</ele>
        <time>2015-06-08T14:16:14Z</time>
      </trkpt>
      <trkpt lat="47.49442" lon="6.74597">
        <ele>324.6</ele>
        <time>2015-06-08T14:16:15Z</time>
      </trkpt>
      <trkpt lat="47.49442" lon="6.74589">
        <ele>324.7</ele>
        <time>2015-06-08T14:16:16Z</time>
      </trkpt>
      <trkpt lat="47.49442" lon="6.74581">
        <ele>324.6</ele>
        <time>2015-06-08T14:16:17Z</time>
      </trkpt>
      <trkpt lat="47.49442" lon="6.74572">
        <ele>324.6</ele>
        <time>2015-06-08T14:16:18Z</time>
      </trkpt>
      <trkpt lat="47.49442" lon="6.74563">
        <ele>324.6</ele>
        <time>2015-06-08T14:16:19Z</time>
      </trkpt>
      <trkpt lat="47.49441" lon="6.74554">
        <ele>324.6</ele>
        <time>2015-06-08T14:16:20Z</time>
      </trkpt>
      <trkpt lat="47.49441" lon="6.74546">
        <ele>324.4</ele>
        <time>2015-06-08T14:16:21Z</time>
      </trkpt>
      <trkpt lat="47.49442" lon="6.74538">
        <ele>324.4</ele>
        <time>2015-06-08T14:16:22Z</time>
      </trkpt>
      <trkpt lat="47.49441" lon="6.74529">
        <ele>324.2</ele>
        <time>2015-06-08T14:16:23Z</time>
      </trkpt>
      <trkpt lat="47.4944" lon="6.74521">
        <ele>324.1</ele>
        <time>2015-06-08T14:16:24Z</time>
      </trkpt>
      <trkpt lat="47.49439" lon="6.74512">
        <ele>324.1</ele>
        <time>2015-06-08T14:16:25Z</time>
      </trkpt>
      <trkpt lat="47.49439" lon="6.74504">
        <ele>324.1</ele>
        <time>2015-06-08T14:16:26Z</time>
      </trkpt>
      <trkpt lat="47.49439" lon="6.74496">
        <ele>324.1</ele>
        <time>2015-06-08T14:16:27Z</time>
      </trkpt>
      <trkpt lat="47.49438" lon="6.74488">
        <ele>324</ele>
        <time>2015-06-08T14:16:28Z</time>
      </trkpt>
      <trkpt lat="47.49438" lon="6.74479">
        <ele>324</ele>
        <time>2015-06-08T14:16:29Z</time>
      </trkpt>
      <trkpt lat="47.49438" lon="6.74471">
        <ele>324</ele>
        <time>2015-06-08T14:16:30Z</time>
      </trkpt>
      <trkpt lat="47.49438" lon="6.74463">
        <ele>324.1</ele>
        <time>2015-06-08T14:16:31Z</time>
      </trkpt>
      <trkpt lat="47.49438" lon="6.74456">
        <ele>324.1</ele>
        <time>2015-06-08T14:16:32Z</time>
      </trkpt>
      <trkpt lat="47.49439" lon="6.74449">
        <ele>324.3</ele>
        <time>2015-06-08T14:16:33Z</time>
      </trkpt>
      <trkpt lat="47.49439" lon="6.74441">
        <ele>324.4</ele>
        <time>2015-06-08T14:16:34Z</time>
      </trkpt>
      <trkpt lat="47.49439" lon="6.74433">
        <ele>324.6</ele>
        <time>2015-06-08T14:16:35Z</time>
      </trkpt>
      <trkpt lat="47.4944" lon="6.74425">
        <ele>324.6</ele>
        <time>2015-06-08T14:16:36Z</time>
      </trkpt>
      <trkpt lat="47.49439" lon="6.74416">
        <ele>324.7</ele>
        <time>2015-06-08T14:16:37Z</time>
      </trkpt>
      <trkpt lat="47.4944" lon="6.74408">
        <ele>324.8</ele>
        <time>2015-06-08T14:16:39Z</time>
      </trkpt>
      <trkpt lat="47.4944" lon="6.744">
        <ele>324.9</ele>
        <time>2015-06-08T14:16:39Z</time>
      </trkpt>
      <trkpt lat="47.4944" lon="6.74393">
        <ele>324.8</ele>
        <time>2015-06-08T14:16:40Z</time>
      </trkpt>
      <trkpt lat="47.49439" lon="6.74385">
        <ele>324.8</ele>
        <time>2015-06-08T14:16:41Z</time>
      </trkpt>
      <trkpt lat="47.49439" lon="6.74376">
        <ele>324.7</ele>
        <time>2015-06-08T14:16:42Z</time>
      </trkpt>
      <trkpt lat="47.49439" lon="6.74368">
        <ele>324.5</ele>
        <time>2015-06-08T14:16:43Z</time>
      </trkpt>
      <trkpt lat="47.49439" lon="6.7436">
        <ele>324.3</ele>
        <time>2015-06-08T14:16:44Z</time>
      </trkpt>
      <trkpt lat="47.49439" lon="6.74352">
        <ele>324.3</ele>
        <time>2015-06-08T14:16:45Z</time>
      </trkpt>
      <trkpt lat="47.49438" lon="6.74343">
        <ele>324.3</ele>
        <time>2015-06-08T14:16:46Z</time>
      </trkpt>
      <trkpt lat="47.49439" lon="6.74335">
        <ele>324.5</ele>
        <time>2015-06-08T14:16:47Z</time>
      </trkpt>
      <trkpt lat="47.49439" lon="6.74327">
        <ele>324.9</ele>
        <time>2015-06-08T14:16:48Z</time>
      </trkpt>
      <trkpt lat="47.4944" lon="6.7432">
        <ele>325.3</ele>
        <time>2015-06-08T14:16:49Z</time>
      </trkpt>
      <trkpt lat="47.49441" lon="6.74312">
        <ele>325.5</ele>
        <time>2015-06-08T14:16:50Z</time>
      </trkpt>
      <trkpt lat="47.49443" lon="6.74305">
        <ele>326</ele>
        <time>2015-06-08T14:16:51Z</time>
      </trkpt>
      <trkpt lat="47.49444" lon="6.74297">
        <ele>326.4</ele>
        <time>2015-06-08T14:16:52Z</time>
      </trkpt>
      <trkpt lat="47.49446" lon="6.74289">
        <ele>326.8</ele>
        <time>2015-06-08T14:16:53Z</time>
      </trkpt>
      <trkpt lat="47.49447" lon="6.74281">
        <ele>327.1</ele>
        <time>2015-06-08T14:16:54Z</time>
      </trkpt>
      <trkpt lat="47.49448" lon="6.74274">
        <ele>327.5</ele>
        <time>2015-06-08T14:16:55Z</time>
      </trkpt>
      <trkpt lat="47.4945" lon="6.74267">
        <ele>327.8</ele>
        <time>2015-06-08T14:16:56Z</time>
      </trkpt>
      <trkpt lat="47.49451" lon="6.7426">
        <ele>328.1</ele>
        <time>2015-06-08T14:16:57Z</time>
      </trkpt>
      <trkpt lat="47.49453" lon="6.74252">
        <ele>328.3</ele>
        <time>2015-06-08T14:16:58Z</time>
      </trkpt>
      <trkpt lat="47.49455" lon="6.74245">
        <ele>328.5</ele>
        <time>2015-06-08T14:16:59Z</time>
      </trkpt>
      <trkpt lat="47.49457" lon="6.74237">
        <ele>328.7</ele>
        <time>2015-06-08T14:17:00Z</time>
      </trkpt>
      <trkpt lat="47.49458" lon="6.7423">
        <ele>328.9</ele>
        <time>2015-06-08T14:17:01Z</time>
      </trkpt>
      <trkpt lat="47.4946" lon="6.74222">
        <ele>329.2</ele>
        <time>2015-06-08T14:17:02Z</time>
      </trkpt>
      <trkpt lat="47.49461" lon="6.74214">
        <ele>329.3</ele>
        <time>2015-06-08T14:17:03Z</time>
      </trkpt>
      <trkpt lat="47.49462" lon="6.74206">
        <ele>329.6</ele>
        <time>2015-06-08T14:17:04Z</time>
      </trkpt>
      <trkpt lat="47.49463" lon="6.74198">
        <ele>329.8</ele>
        <time>2015-06-08T14:17:05Z</time>
      </trkpt>
      <trkpt lat="47.49464" lon="6.7419">
        <ele>330</ele>
        <time>2015-06-08T14:17:06Z</time>
      </trkpt>
      <trkpt lat="47.49466" lon="6.74182">
        <ele>330.3</ele>
        <time>2015-06-08T14:17:07Z</time>
      </trkpt>
      <trkpt lat="47.49468" lon="6.74174">
        <ele>330.6</ele>
        <time>2015-06-08T14:17:08Z</time>
      </trkpt>
      <trkpt lat="47.4947" lon="6.74167">
        <ele>330.7</ele>
        <time>2015-06-08T14:17:09Z</time>
      </trkpt>
      <trkpt lat="47.4947" lon="6.74159">
        <ele>330.8</ele>
        <time>2015-06-08T14:17:10Z</time>
      </trkpt>
      <trkpt lat="47.4947" lon="6.74151">
        <ele>331.1</ele>
        <time>2015-06-08T14:17:11Z</time>
      </trkpt>
      <trkpt lat="47.49471" lon="6.74143">
        <ele>331.4</ele>
        <time>2015-06-08T14:17:12Z</time>
      </trkpt>
      <trkpt lat="47.49472" lon="6.74135">
        <ele>331.7</ele>
        <time>2015-06-08T14:17:13Z</time>
      </trkpt>
      <trkpt lat="47.49474" lon="6.74127">
        <ele>331.7</ele>
        <time>2015-06-08T14:17:14Z</time>
      </trkpt>
      <trkpt lat="47.49475" lon="6.74119">
        <ele>332</ele>
        <time>2015-06-08T14:17:15Z</time>
      </trkpt>
      <trkpt lat="47.49476" lon="6.74111">
        <ele>332.2</ele>
        <time>2015-06-08T14:17:16Z</time>
      </trkpt>
      <trkpt lat="47.49477" lon="6.74103">
        <ele>332.4</ele>
        <time>2015-06-08T14:17:17Z</time>
      </trkpt>
      <trkpt lat="47.49479" lon="6.74095">
        <ele>332.6</ele>
        <time>2015-06-08T14:17:18Z</time>
      </trkpt>
      <trkpt lat="47.4948" lon="6.74087">
        <ele>332.6</ele>
        <time>2015-06-08T14:17:19Z</time>
      </trkpt>
      <trkpt lat="47.49481" lon="6.74079">
        <ele>332.8</ele>
        <time>2015-06-08T14:17:20Z</time>
      </trkpt>
      <trkpt lat="47.49482" lon="6.7407">
        <ele>332.9</ele>
        <time>2015-06-08T14:17:21Z</time>
      </trkpt>
      <trkpt lat="47.49483" lon="6.74062">
        <ele>332.9</ele>
        <time>2015-06-08T14:17:22Z</time>
      </trkpt>
      <trkpt lat="47.49484" lon="6.74054">
        <ele>332.9</ele>
        <time>2015-06-08T14:17:23Z</time>
      </trkpt>
      <trkpt lat="47.49486" lon="6.74046">
        <ele>333</ele>
        <time>2015-06-08T14:17:24Z</time>
      </trkpt>
      <trkpt lat="47.49487" lon="6.74038">
        <ele>333</ele>
        <time>2015-06-08T14:17:25Z</time>
      </trkpt>
      <trkpt lat="47.49489" lon="6.74031">
        <ele>333</ele>
        <time>2015-06-08T14:17:26Z</time>
      </trkpt>
      <trkpt lat="47.49491" lon="6.74023">
        <ele>333.1</ele>
        <time>2015-06-08T14:17:27Z</time>
      </trkpt>
      <trkpt lat="47.49493" lon="6.74015">
        <ele>333.1</ele>
        <time>2015-06-08T14:17:28Z</time>
      </trkpt>
      <trkpt lat="47.49495" lon="6.74008">
        <ele>333.2</ele>
        <time>2015-06-08T14:17:29Z</time>
      </trkpt>
      <trkpt lat="47.49497" lon="6.74">
        <ele>333.3</ele>
        <time>2015-06-08T14:17:30Z</time>
      </trkpt>
      <trkpt lat="47.49499" lon="6.73992">
        <ele>333.4</ele>
        <time>2015-06-08T14:17:31Z</time>
      </trkpt>
      <trkpt lat="47.49501" lon="6.73985">
        <ele>333.5</ele>
        <time>2015-06-08T14:17:32Z</time>
      </trkpt>
      <trkpt lat="47.49502" lon="6.73977">
        <ele>333.7</ele>
        <time>2015-06-08T14:17:33Z</time>
      </trkpt>
      <trkpt lat="47.49504" lon="6.7397">
        <ele>333.7</ele>
        <time>2015-06-08T14:17:34Z</time>
      </trkpt>
      <trkpt lat="47.49506" lon="6.73962">
        <ele>333.6</ele>
        <time>2015-06-08T14:17:35Z</time>
      </trkpt>
      <trkpt lat="47.49508" lon="6.73955">
        <ele>333.6</ele>
        <time>2015-06-08T14:17:37Z</time>
      </trkpt>
      <trkpt lat="47.49511" lon="6.73948">
        <ele>333.8</ele>
        <time>2015-06-08T14:17:37Z</time>
      </trkpt>
      <trkpt lat="47.49513" lon="6.73941">
        <ele>334</ele>
        <time>2015-06-08T14:17:39Z</time>
      </trkpt>
      <trkpt lat="47.49516" lon="6.73933">
        <ele>333.9</ele>
        <time>2015-06-08T14:17:39Z</time>
      </trkpt>
      <trkpt lat="47.49518" lon="6.73926">
        <ele>334</ele>
        <time>2015-06-08T14:17:40Z</time>
      </trkpt>
      <trkpt lat="47.49521" lon="6.73919">
        <ele>334</ele>
        <time>2015-06-08T14:17:41Z</time>
      </trkpt>
      <trkpt lat="47.49522" lon="6.73912">
        <ele>334.1</ele>
        <time>2015-06-08T14:17:42Z</time>
      </trkpt>
      <trkpt lat="47.49524" lon="6.73904">
        <ele>334.3</ele>
        <time>2015-06-08T14:17:43Z</time>
      </trkpt>
      <trkpt lat="47.49527" lon="6.73896">
        <ele>334.6</ele>
        <time>2015-06-08T14:17:44Z</time>
      </trkpt>
      <trkpt lat="47.49529" lon="6.73889">
        <ele>334.9</ele>
        <time>2015-06-08T14:17:45Z</time>
      </trkpt>
      <trkpt lat="47.49532" lon="6.73882">
        <ele>335.1</ele>
        <time>2015-06-08T14:17:46Z</time>
      </trkpt>
      <trkpt lat="47.49536" lon="6.73876">
        <ele>335.3</ele>
        <time>2015-06-08T14:17:47Z</time>
      </trkpt>
      <trkpt lat="47.49539" lon="6.73869">
        <ele>335.5</ele>
        <time>2015-06-08T14:17:48Z</time>
      </trkpt>
      <trkpt lat="47.49542" lon="6.73863">
        <ele>335.8</ele>
        <time>2015-06-08T14:17:49Z</time>
      </trkpt>
      <trkpt lat="47.49546" lon="6.73857">
        <ele>336.1</ele>
        <time>2015-06-08T14:17:50Z</time>
      </trkpt>
      <trkpt lat="47.49549" lon="6.73851">
        <ele>336.2</ele>
        <time>2015-06-08T14:17:51Z</time>
      </trkpt>
      <trkpt lat="47.49553" lon="6.73845">
        <ele>336.5</ele>
        <time>2015-06-08T14:17:52Z</time>
      </trkpt>
      <trkpt lat="47.49557" lon="6.73839">
        <ele>336.8</ele>
        <time>2015-06-08T14:17:53Z</time>
      </trkpt>
      <trkpt lat="47.4956" lon="6.73834">
        <ele>337.1</ele>
        <time>2015-06-08T14:17:54Z</time>
      </trkpt>
      <trkpt lat="47.49565" lon="6.73829">
        <ele>337.1</ele>
        <time>2015-06-08T14:17:55Z</time>
      </trkpt>
      <trkpt lat="47.49569" lon="6.73824">
        <ele>337.2</ele>
        <time>2015-06-08T14:17:56Z</time>
      </trkpt>
      <trkpt lat="47.49573" lon="6.7382">
        <ele>337.2</ele>
        <time>2015-06-08T14:17:57Z</time>
      </trkpt>
      <trkpt lat="47.49577" lon="6.73816">
        <ele>337.2</ele>
        <time>2015-06-08T14:17:58Z</time>
      </trkpt>
      <trkpt lat="47.49582" lon="6.73811">
        <ele>337.3</ele>
        <time>2015-06-08T14:17:59Z</time>
      </trkpt>
      <trkpt lat="47.49587" lon="6.73808">
        <ele>337.2</ele>
        <time>2015-06-08T14:18:00Z</time>
      </trkpt>
      <trkpt lat="47.49591" lon="6.73804">
        <ele>337.2</ele>
        <time>2015-06-08T14:18:01Z</time>
      </trkpt>
      <trkpt lat="47.49597" lon="6.73802">
        <ele>337.2</ele>
        <time>2015-06-08T14:18:02Z</time>
      </trkpt>
      <trkpt lat="47.49602" lon="6.73799">
        <ele>336.3</ele>
        <time>2015-06-08T14:18:03Z</time>
      </trkpt>
      <trkpt lat="47.49608" lon="6.73797">
        <ele>335.8</ele>
        <time>2015-06-08T14:18:04Z</time>
      </trkpt>
      <trkpt lat="47.49613" lon="6.73794">
        <ele>335.4</ele>
        <time>2015-06-08T14:18:05Z</time>
      </trkpt>
      <trkpt lat="47.49618" lon="6.73792">
        <ele>334.6</ele>
        <time>2015-06-08T14:18:06Z</time>
      </trkpt>
      <trkpt lat="47.49623" lon="6.73789">
        <ele>334.1</ele>
        <time>2015-06-08T14:18:07Z</time>
      </trkpt>
      <trkpt lat="47.49628" lon="6.73787">
        <ele>333.8</ele>
        <time>2015-06-08T14:18:08Z</time>
      </trkpt>
      <trkpt lat="47.49633" lon="6.73784">
        <ele>333.2</ele>
        <time>2015-06-08T14:18:09Z</time>
      </trkpt>
      <trkpt lat="47.49638" lon="6.73782">
        <ele>332.6</ele>
        <time>2015-06-08T14:18:10Z</time>
      </trkpt>
      <trkpt lat="47.49643" lon="6.73779">
        <ele>332.1</ele>
        <time>2015-06-08T14:18:11Z</time>
      </trkpt>
      <trkpt lat="47.49648" lon="6.73776">
        <ele>331.5</ele>
        <time>2015-06-08T14:18:12Z</time>
      </trkpt>
      <trkpt lat="47.49653" lon="6.73774">
        <ele>331.1</ele>
        <time>2015-06-08T14:18:13Z</time>
      </trkpt>
      <trkpt lat="47.49658" lon="6.7377">
        <ele>330.6</ele>
        <time>2015-06-08T14:18:14Z</time>
      </trkpt>
      <trkpt lat="47.49663" lon="6.73768">
        <ele>330.2</ele>
        <time>2015-06-08T14:18:15Z</time>
      </trkpt>
      <trkpt lat="47.49668" lon="6.73765">
        <ele>330.2</ele>
        <time>2015-06-08T14:18:16Z</time>
      </trkpt>
      <trkpt lat="47.49673" lon="6.73762">
        <ele>329.9</ele>
        <time>2015-06-08T14:18:17Z</time>
      </trkpt>
      <trkpt lat="47.49678" lon="6.73759">
        <ele>329.3</ele>
        <time>2015-06-08T14:18:18Z</time>
      </trkpt>
      <trkpt lat="47.49684" lon="6.73756">
        <ele>328.5</ele>
        <time>2015-06-08T14:18:19Z</time>
      </trkpt>
      <trkpt lat="47.49689" lon="6.73753">
        <ele>327.7</ele>
        <time>2015-06-08T14:18:21Z</time>
      </trkpt>
      <trkpt lat="47.49694" lon="6.7375">
        <ele>327.2</ele>
        <time>2015-06-08T14:18:21Z</time>
      </trkpt>
      <trkpt lat="47.49699" lon="6.73748">
        <ele>326.4</ele>
        <time>2015-06-08T14:18:22Z</time>
      </trkpt>
      <trkpt lat="47.49705" lon="6.73746">
        <ele>326</ele>
        <time>2015-06-08T14:18:23Z</time>
      </trkpt>
      <trkpt lat="47.4971" lon="6.73743">
        <ele>325.5</ele>
        <time>2015-06-08T14:18:24Z</time>
      </trkpt>
      <trkpt lat="47.49715" lon="6.7374">
        <ele>325</ele>
        <time>2015-06-08T14:18:25Z</time>
      </trkpt>
      <trkpt lat="47.49719" lon="6.73738">
        <ele>324.8</ele>
        <time>2015-06-08T14:18:26Z</time>
      </trkpt>
      <trkpt lat="47.49725" lon="6.73735">
        <ele>324.3</ele>
        <time>2015-06-08T14:18:27Z</time>
      </trkpt>
      <trkpt lat="47.49729" lon="6.73731">
        <ele>324.3</ele>
        <time>2015-06-08T14:18:28Z</time>
      </trkpt>
      <trkpt lat="47.49734" lon="6.73728">
        <ele>324.2</ele>
        <time>2015-06-08T14:18:29Z</time>
      </trkpt>
      <trkpt lat="47.49739" lon="6.73726">
        <ele>323.8</ele>
        <time>2015-06-08T14:18:30Z</time>
      </trkpt>
      <trkpt lat="47.49744" lon="6.73723">
        <ele>323.6</ele>
        <time>2015-06-08T14:18:31Z</time>
      </trkpt>
      <trkpt lat="47.49749" lon="6.73719">
        <ele>323.4</ele>
        <time>2015-06-08T14:18:33Z</time>
      </trkpt>
      <trkpt lat="47.49753" lon="6.73716">
        <ele>323</ele>
        <time>2015-06-08T14:18:33Z</time>
      </trkpt>
      <trkpt lat="47.49757" lon="6.73713">
        <ele>322.5</ele>
        <time>2015-06-08T14:18:34Z</time>
      </trkpt>
      <trkpt lat="47.49762" lon="6.7371">
        <ele>322.1</ele>
        <time>2015-06-08T14:18:35Z</time>
      </trkpt>
      <trkpt lat="47.49767" lon="6.73707">
        <ele>322.1</ele>
        <time>2015-06-08T14:18:37Z</time>
      </trkpt>
      <trkpt lat="47.49772" lon="6.73705">
        <ele>322.2</ele>
        <time>2015-06-08T14:18:37Z</time>
      </trkpt>
      <trkpt lat="47.49777" lon="6.73702">
        <ele>323.1</ele>
        <time>2015-06-08T14:18:38Z</time>
      </trkpt>
      <trkpt lat="47.49781" lon="6.73699">
        <ele>324.8</ele>
        <time>2015-06-08T14:18:39Z</time>
      </trkpt>
      <trkpt lat="47.49786" lon="6.73697">
        <ele>325.8</ele>
        <time>2015-06-08T14:18:40Z</time>
      </trkpt>
      <trkpt lat="47.4979" lon="6.73693">
        <ele>326</ele>
        <time>2015-06-08T14:18:41Z</time>
      </trkpt>
      <trkpt lat="47.49795" lon="6.7369">
        <ele>326.9</ele>
        <time>2015-06-08T14:18:42Z</time>
      </trkpt>
      <trkpt lat="47.498" lon="6.73687">
        <ele>327.6</ele>
        <time>2015-06-08T14:18:43Z</time>
      </trkpt>
      <trkpt lat="47.49805" lon="6.73683">
        <ele>328</ele>
        <time>2015-06-08T14:18:45Z</time>
      </trkpt>
      <trkpt lat="47.49811" lon="6.7368">
        <ele>328.4</ele>
        <time>2015-06-08T14:18:45Z</time>
      </trkpt>
      <trkpt lat="47.49816" lon="6.73676">
        <ele>328.8</ele>
        <time>2015-06-08T14:18:46Z</time>
      </trkpt>
      <trkpt lat="47.49821" lon="6.73673">
        <ele>329</ele>
        <time>2015-06-08T14:18:47Z</time>
      </trkpt>
      <trkpt lat="47.49826" lon="6.7367">
        <ele>328.9</ele>
        <time>2015-06-08T14:18:48Z</time>
      </trkpt>
      <trkpt lat="47.4983" lon="6.73667">
        <ele>328.9</ele>
        <time>2015-06-08T14:18:50Z</time>
      </trkpt>
      <trkpt lat="47.49835" lon="6.73664">
        <ele>329.1</ele>
        <time>2015-06-08T14:18:50Z</time>
      </trkpt>
      <trkpt lat="47.4984" lon="6.73661">
        <ele>329.4</ele>
        <time>2015-06-08T14:18:52Z</time>
      </trkpt>
      <trkpt lat="47.49845" lon="6.73658">
        <ele>329.6</ele>
        <time>2015-06-08T14:18:52Z</time>
      </trkpt>
      <trkpt lat="47.4985" lon="6.73655">
        <ele>329.6</ele>
        <time>2015-06-08T14:18:53Z</time>
      </trkpt>
      <trkpt lat="47.49855" lon="6.73652">
        <ele>329.5</ele>
        <time>2015-06-08T14:18:54Z</time>
      </trkpt>
      <trkpt lat="47.4986" lon="6.73648">
        <ele>329.8</ele>
        <time>2015-06-08T14:18:55Z</time>
      </trkpt>
      <trkpt lat="47.49865" lon="6.73645">
        <ele>329.9</ele>
        <time>2015-06-08T14:18:57Z</time>
      </trkpt>
      <trkpt lat="47.4987" lon="6.73642">
        <ele>329.8</ele>
        <time>2015-06-08T14:18:57Z</time>
      </trkpt>
      <trkpt lat="47.49874" lon="6.73639">
        <ele>329.8</ele>
        <time>2015-06-08T14:18:58Z</time>
      </trkpt>
      <trkpt lat="47.49879" lon="6.73636">
        <ele>329.6</ele>
        <time>2015-06-08T14:18:59Z</time>
      </trkpt>
      <trkpt lat="47.49884" lon="6.73633">
        <ele>329.2</ele>
        <time>2015-06-08T14:19:00Z</time>
      </trkpt>
      <trkpt lat="47.49889" lon="6.73629">
        <ele>329.2</ele>
        <time>2015-06-08T14:19:01Z</time>
      </trkpt>
      <trkpt lat="47.49893" lon="6.73626">
        <ele>329</ele>
        <time>2015-06-08T14:19:02Z</time>
      </trkpt>
      <trkpt lat="47.49898" lon="6.73623">
        <ele>329</ele>
        <time>2015-06-08T14:19:04Z</time>
      </trkpt>
      <trkpt lat="47.49903" lon="6.73619">
        <ele>329.2</ele>
        <time>2015-06-08T14:19:04Z</time>
      </trkpt>
      <trkpt lat="47.49908" lon="6.73616">
        <ele>329.4</ele>
        <time>2015-06-08T14:19:06Z</time>
      </trkpt>
      <trkpt lat="47.49913" lon="6.73612">
        <ele>329.5</ele>
        <time>2015-06-08T14:19:06Z</time>
      </trkpt>
      <trkpt lat="47.49917" lon="6.73609">
        <ele>329.6</ele>
        <time>2015-06-08T14:19:08Z</time>
      </trkpt>
      <trkpt lat="47.49921" lon="6.73605">
        <ele>329.5</ele>
        <time>2015-06-08T14:19:08Z</time>
      </trkpt>
      <trkpt lat="47.49925" lon="6.73602">
        <ele>329.6</ele>
        <time>2015-06-08T14:19:09Z</time>
      </trkpt>
      <trkpt lat="47.4993" lon="6.73597">
        <ele>329.6</ele>
        <time>2015-06-08T14:19:10Z</time>
      </trkpt>
      <trkpt lat="47.49934" lon="6.73593">
        <ele>329.7</ele>
        <time>2015-06-08T14:19:11Z</time>
      </trkpt>
      <trkpt lat="47.49939" lon="6.73588">
        <ele>329.7</ele>
        <time>2015-06-08T14:19:13Z</time>
      </trkpt>
      <trkpt lat="47.49943" lon="6.73584">
        <ele>329.8</ele>
        <time>2015-06-08T14:19:13Z</time>
      </trkpt>
      <trkpt lat="47.49948" lon="6.73579">
        <ele>329.7</ele>
        <time>2015-06-08T14:19:15Z</time>
      </trkpt>
      <trkpt lat="47.49953" lon="6.73573">
        <ele>330.1</ele>
        <time>2015-06-08T14:19:15Z</time>
      </trkpt>
      <trkpt lat="47.49957" lon="6.73568">
        <ele>330.4</ele>
        <time>2015-06-08T14:19:16Z</time>
      </trkpt>
      <trkpt lat="47.49961" lon="6.73563">
        <ele>330.7</ele>
        <time>2015-06-08T14:19:18Z</time>
      </trkpt>
      <trkpt lat="47.49965" lon="6.73558">
        <ele>331</ele>
        <time>2015-06-08T14:19:18Z</time>
      </trkpt>
      <trkpt lat="47.49968" lon="6.73552">
        <ele>331.3</ele>
        <time>2015-06-08T14:19:19Z</time>
      </trkpt>
      <trkpt lat="47.49972" lon="6.73547">
        <ele>331.3</ele>
        <time>2015-06-08T14:19:21Z</time>
      </trkpt>
      <trkpt lat="47.49975" lon="6.73541">
        <ele>331.3</ele>
        <time>2015-06-08T14:19:21Z</time>
      </trkpt>
      <trkpt lat="47.49978" lon="6.73535">
        <ele>331.4</ele>
        <time>2015-06-08T14:19:22Z</time>
      </trkpt>
      <trkpt lat="47.49981" lon="6.73528">
        <ele>331.6</ele>
        <time>2015-06-08T14:19:23Z</time>
      </trkpt>
      <trkpt lat="47.49984" lon="6.73521">
        <ele>331.7</ele>
        <time>2015-06-08T14:19:25Z</time>
      </trkpt>
      <trkpt lat="47.49986" lon="6.73514">
        <ele>332.3</ele>
        <time>2015-06-08T14:19:25Z</time>
      </trkpt>
      <trkpt lat="47.49989" lon="6.73507">
        <ele>332.8</ele>
        <time>2015-06-08T14:19:27Z</time>
      </trkpt>
      <trkpt lat="47.49991" lon="6.73499">
        <ele>333.1</ele>
        <time>2015-06-08T14:19:27Z</time>
      </trkpt>
      <trkpt lat="47.49994" lon="6.73493">
        <ele>333.4</ele>
        <time>2015-06-08T14:19:28Z</time>
      </trkpt>
      <trkpt lat="47.49997" lon="6.73486">
        <ele>333.9</ele>
        <time>2015-06-08T14:19:29Z</time>
      </trkpt>
      <trkpt lat="47.5" lon="6.73479">
        <ele>334.4</ele>
        <time>2015-06-08T14:19:31Z</time>
      </trkpt>
      <trkpt lat="47.50003" lon="6.73471">
        <ele>335</ele>
        <time>2015-06-08T14:19:31Z</time>
      </trkpt>
      <trkpt lat="47.50006" lon="6.73464">
        <ele>335.5</ele>
        <time>2015-06-08T14:19:33Z</time>
      </trkpt>
      <trkpt lat="47.50008" lon="6.73457">
        <ele>336</ele>
        <time>2015-06-08T14:19:33Z</time>
      </trkpt>
      <trkpt lat="47.50011" lon="6.7345">
        <ele>336.7</ele>
        <time>2015-06-08T14:19:34Z</time>
      </trkpt>
      <trkpt lat="47.50014" lon="6.73443">
        <ele>337.3</ele>
        <time>2015-06-08T14:19:35Z</time>
      </trkpt>
      <trkpt lat="47.50016" lon="6.73436">
        <ele>337.5</ele>
        <time>2015-06-08T14:19:36Z</time>
      </trkpt>
      <trkpt lat="47.50018" lon="6.73429">
        <ele>338.1</ele>
        <time>2015-06-08T14:19:37Z</time>
      </trkpt>
      <trkpt lat="47.5002" lon="6.73421">
        <ele>338.7</ele>
        <time>2015-06-08T14:19:39Z</time>
      </trkpt>
      <trkpt lat="47.50022" lon="6.73413">
        <ele>339.4</ele>
        <time>2015-06-08T14:19:40Z</time>
      </trkpt>
      <trkpt lat="47.50024" lon="6.73406">
        <ele>340.1</ele>
        <time>2015-06-08T14:19:41Z</time>
      </trkpt>
      <trkpt lat="47.50026" lon="6.73398">
        <ele>340.6</ele>
        <time>2015-06-08T14:19:41Z</time>
      </trkpt>
      <trkpt lat="47.50028" lon="6.7339">
        <ele>341.1</ele>
        <time>2015-06-08T14:19:43Z</time>
      </trkpt>
      <trkpt lat="47.5003" lon="6.73383">
        <ele>341.6</ele>
        <time>2015-06-08T14:19:44Z</time>
      </trkpt>
      <trkpt lat="47.50032" lon="6.73375">
        <ele>341.9</ele>
        <time>2015-06-08T14:19:44Z</time>
      </trkpt>
      <trkpt lat="47.50035" lon="6.73368">
        <ele>342.3</ele>
        <time>2015-06-08T14:19:45Z</time>
      </trkpt>
      <trkpt lat="47.50038" lon="6.7336">
        <ele>342.8</ele>
        <time>2015-06-08T14:19:46Z</time>
      </trkpt>
      <trkpt lat="47.5004" lon="6.73353">
        <ele>343.2</ele>
        <time>2015-06-08T14:19:48Z</time>
      </trkpt>
      <trkpt lat="47.50043" lon="6.73346">
        <ele>343.3</ele>
        <time>2015-06-08T14:19:48Z</time>
      </trkpt>
      <trkpt lat="47.50045" lon="6.73339">
        <ele>343.4</ele>
        <time>2015-06-08T14:19:50Z</time>
      </trkpt>
      <trkpt lat="47.50048" lon="6.73332">
        <ele>343.5</ele>
        <time>2015-06-08T14:19:51Z</time>
      </trkpt>
      <trkpt lat="47.50052" lon="6.73325">
        <ele>343.4</ele>
        <time>2015-06-08T14:19:52Z</time>
      </trkpt>
      <trkpt lat="47.50055" lon="6.73318">
        <ele>343.6</ele>
        <time>2015-06-08T14:19:53Z</time>
      </trkpt>
      <trkpt lat="47.50058" lon="6.73312">
        <ele>343.8</ele>
        <time>2015-06-08T14:19:54Z</time>
      </trkpt>
      <trkpt lat="47.50062" lon="6.73306">
        <ele>344</ele>
        <time>2015-06-08T14:19:54Z</time>
      </trkpt>
      <trkpt lat="47.50065" lon="6.733">
        <ele>344</ele>
        <time>2015-06-08T14:19:55Z</time>
      </trkpt>
      <trkpt lat="47.50068" lon="6.73294">
        <ele>344.1</ele>
        <time>2015-06-08T14:19:56Z</time>
      </trkpt>
      <trkpt lat="47.50072" lon="6.73289">
        <ele>344.1</ele>
        <time>2015-06-08T14:19:57Z</time>
      </trkpt>
      <trkpt lat="47.50075" lon="6.73284">
        <ele>343.7</ele>
        <time>2015-06-08T14:19:58Z</time>
      </trkpt>
      <trkpt lat="47.50079" lon="6.73279">
        <ele>343.4</ele>
        <time>2015-06-08T14:19:59Z</time>
      </trkpt>
      <trkpt lat="47.50081" lon="6.73273">
        <ele>343.2</ele>
        <time>2015-06-08T14:20:01Z</time>
      </trkpt>
      <trkpt lat="47.50082" lon="6.73266">
        <ele>343.2</ele>
        <time>2015-06-08T14:20:01Z</time>
      </trkpt>
      <trkpt lat="47.50082" lon="6.73259">
        <ele>342.8</ele>
        <time>2015-06-08T14:20:02Z</time>
      </trkpt>
      <trkpt lat="47.50082" lon="6.73251">
        <ele>342.5</ele>
        <time>2015-06-08T14:20:03Z</time>
      </trkpt>
      <trkpt lat="47.50082" lon="6.73241">
        <ele>342.4</ele>
        <time>2015-06-08T14:20:04Z</time>
      </trkpt>
      <trkpt lat="47.50082" lon="6.73231">
        <ele>342.3</ele>
        <time>2015-06-08T14:20:05Z</time>
      </trkpt>
      <trkpt lat="47.50082" lon="6.7322">
        <ele>342.1</ele>
        <time>2015-06-08T14:20:06Z</time>
      </trkpt>
      <trkpt lat="47.50082" lon="6.73209">
        <ele>341.7</ele>
        <time>2015-06-08T14:20:07Z</time>
      </trkpt>
      <trkpt lat="47.50082" lon="6.73198">
        <ele>341.4</ele>
        <time>2015-06-08T14:20:09Z</time>
      </trkpt>
      <trkpt lat="47.50083" lon="6.73186">
        <ele>341</ele>
        <time>2015-06-08T14:20:10Z</time>
      </trkpt>
      <trkpt lat="47.50083" lon="6.73176">
        <ele>340.3</ele>
        <time>2015-06-08T14:20:10Z</time>
      </trkpt>
      <trkpt lat="47.50084" lon="6.73167">
        <ele>339.7</ele>
        <time>2015-06-08T14:20:12Z</time>
      </trkpt>
      <trkpt lat="47.50085" lon="6.73157">
        <ele>339.7</ele>
        <time>2015-06-08T14:20:12Z</time>
      </trkpt>
      <trkpt lat="47.50086" lon="6.73148">
        <ele>339.5</ele>
        <time>2015-06-08T14:20:13Z</time>
      </trkpt>
      <trkpt lat="47.50087" lon="6.7314">
        <ele>339.2</ele>
        <time>2015-06-08T14:20:15Z</time>
      </trkpt>
      <trkpt lat="47.50088" lon="6.73133">
        <ele>339.2</ele>
        <time>2015-06-08T14:20:16Z</time>
      </trkpt>
      <trkpt lat="47.50089" lon="6.73127">
        <ele>339.1</ele>
        <time>2015-06-08T14:20:16Z</time>
      </trkpt>
      <trkpt lat="47.50091" lon="6.73121">
        <ele>339.3</ele>
        <time>2015-06-08T14:20:18Z</time>
      </trkpt>
      <trkpt lat="47.50091" lon="6.73117">
        <ele>339.3</ele>
        <time>2015-06-08T14:20:18Z</time>
      </trkpt>
      <trkpt lat="47.5009" lon="6.73113">
        <ele>339.3</ele>
        <time>2015-06-08T14:20:19Z</time>
      </trkpt>
      <trkpt lat="47.50088" lon="6.7311">
        <ele>339.2</ele>
        <time>2015-06-08T14:20:20Z</time>
      </trkpt>
      <trkpt lat="47.50085" lon="6.73107">
        <ele>339.6</ele>
        <time>2015-06-08T14:20:22Z</time>
      </trkpt>
      <trkpt lat="47.50081" lon="6.73104">
        <ele>340.5</ele>
        <time>2015-06-08T14:20:22Z</time>
      </trkpt>
      <trkpt lat="47.50079" lon="6.73101">
        <ele>340.8</ele>
        <time>2015-06-08T14:20:24Z</time>
      </trkpt>
      <trkpt lat="47.50075" lon="6.73099">
        <ele>340.9</ele>
        <time>2015-06-08T14:20:24Z</time>
      </trkpt>
      <trkpt lat="47.50072" lon="6.73095">
        <ele>341</ele>
        <time>2015-06-08T14:20:26Z</time>
      </trkpt>
      <trkpt lat="47.50069" lon="6.73092">
        <ele>341.1</ele>
        <time>2015-06-08T14:20:26Z</time>
      </trkpt>
      <trkpt lat="47.50065" lon="6.73088">
        <ele>341.6</ele>
        <time>2015-06-08T14:20:27Z</time>
      </trkpt>
      <trkpt lat="47.50062" lon="6.73085">
        <ele>341.6</ele>
        <time>2015-06-08T14:20:29Z</time>
      </trkpt>
      <trkpt lat="47.50058" lon="6.73081">
        <ele>341.8</ele>
        <time>2015-06-08T14:20:29Z</time>
      </trkpt>
      <trkpt lat="47.50055" lon="6.73078">
        <ele>341.8</ele>
        <time>2015-06-08T14:20:30Z</time>
      </trkpt>
      <trkpt lat="47.50052" lon="6.73074">
        <ele>341.9</ele>
        <time>2015-06-08T14:20:31Z</time>
      </trkpt>
      <trkpt lat="47.50048" lon="6.7307">
        <ele>341.8</ele>
        <time>2015-06-08T14:20:32Z</time>
      </trkpt>
      <trkpt lat="47.50045" lon="6.73067">
        <ele>341.7</ele>
        <time>2015-06-08T14:20:33Z</time>
      </trkpt>
      <trkpt lat="47.50041" lon="6.73063">
        <ele>341.5</ele>
        <time>2015-06-08T14:20:34Z</time>
      </trkpt>
      <trkpt lat="47.50037" lon="6.73059">
        <ele>341.6</ele>
        <time>2015-06-08T14:20:35Z</time>
      </trkpt>
      <trkpt lat="47.50033" lon="6.73055">
        <ele>341.4</ele>
        <time>2015-06-08T14:20:37Z</time>
      </trkpt>
      <trkpt lat="47.50029" lon="6.73051">
        <ele>341.1</ele>
        <time>2015-06-08T14:20:37Z</time>
      </trkpt>
      <trkpt lat="47.50025" lon="6.73046">
        <ele>341.1</ele>
        <time>2015-06-08T14:20:38Z</time>
      </trkpt>
      <trkpt lat="47.50021" lon="6.73042">
        <ele>340.9</ele>
        <time>2015-06-08T14:20:39Z</time>
      </trkpt>
      <trkpt lat="47.50017" lon="6.73038">
        <ele>340.8</ele>
        <time>2015-06-08T14:20:40Z</time>
      </trkpt>
      <trkpt lat="47.50013" lon="6.73034">
        <ele>340.8</ele>
        <time>2015-06-08T14:20:41Z</time>
      </trkpt>
      <trkpt lat="47.50008" lon="6.73029">
        <ele>341.8</ele>
        <time>2015-06-08T14:20:42Z</time>
      </trkpt>
      <trkpt lat="47.50005" lon="6.73024">
        <ele>341.9</ele>
        <time>2015-06-08T14:20:43Z</time>
      </trkpt>
      <trkpt lat="47.50001" lon="6.73019">
        <ele>342</ele>
        <time>2015-06-08T14:20:44Z</time>
      </trkpt>
      <trkpt lat="47.49998" lon="6.73015">
        <ele>341.9</ele>
        <time>2015-06-08T14:20:46Z</time>
      </trkpt>
      <trkpt lat="47.49995" lon="6.73009">
        <ele>342.2</ele>
        <time>2015-06-08T14:20:47Z</time>
      </trkpt>
      <trkpt lat="47.49992" lon="6.73003">
        <ele>342.2</ele>
        <time>2015-06-08T14:20:47Z</time>
      </trkpt>
      <trkpt lat="47.49991" lon="6.72997">
        <ele>342.1</ele>
        <time>2015-06-08T14:20:49Z</time>
      </trkpt>
      <trkpt lat="47.49989" lon="6.72991">
        <ele>342.4</ele>
        <time>2015-06-08T14:20:49Z</time>
      </trkpt>
      <trkpt lat="47.49988" lon="6.72984">
        <ele>341.6</ele>
        <time>2015-06-08T14:20:51Z</time>
      </trkpt>
      <trkpt lat="47.49988" lon="6.72978">
        <ele>341.1</ele>
        <time>2015-06-08T14:20:51Z</time>
      </trkpt>
      <trkpt lat="47.49987" lon="6.72971">
        <ele>340.9</ele>
        <time>2015-06-08T14:20:53Z</time>
      </trkpt>
      <trkpt lat="47.49986" lon="6.72964">
        <ele>340.6</ele>
        <time>2015-06-08T14:20:53Z</time>
      </trkpt>
      <trkpt lat="47.49985" lon="6.72958">
        <ele>340.7</ele>
        <time>2015-06-08T14:20:55Z</time>
      </trkpt>
      <trkpt lat="47.49983" lon="6.72951">
        <ele>340.6</ele>
        <time>2015-06-08T14:20:55Z</time>
      </trkpt>
      <trkpt lat="47.49981" lon="6.72946">
        <ele>340.6</ele>
        <time>2015-06-08T14:20:57Z</time>
      </trkpt>
      <trkpt lat="47.49978" lon="6.72941">
        <ele>340.4</ele>
        <time>2015-06-08T14:20:58Z</time>
      </trkpt>
      <trkpt lat="47.49974" lon="6.72937">
        <ele>339.9</ele>
        <time>2015-06-08T14:20:58Z</time>
      </trkpt>
      <trkpt lat="47.49971" lon="6.72933">
        <ele>339.9</ele>
        <time>2015-06-08T14:20:59Z</time>
      </trkpt>
      <trkpt lat="47.49968" lon="6.72929">
        <ele>339.9</ele>
        <time>2015-06-08T14:21:00Z</time>
      </trkpt>
      <trkpt lat="47.49965" lon="6.72926">
        <ele>340</ele>
        <time>2015-06-08T14:21:01Z</time>
      </trkpt>
      <trkpt lat="47.49962" lon="6.72922">
        <ele>340.1</ele>
        <time>2015-06-08T14:21:02Z</time>
      </trkpt>
      <trkpt lat="47.49959" lon="6.72918">
        <ele>340.1</ele>
        <time>2015-06-08T14:21:03Z</time>
      </trkpt>
      <trkpt lat="47.49957" lon="6.72913">
        <ele>340.5</ele>
        <time>2015-06-08T14:21:04Z</time>
      </trkpt>
      <trkpt lat="47.49954" lon="6.72908">
        <ele>340.6</ele>
        <time>2015-06-08T14:21:05Z</time>
      </trkpt>
      <trkpt lat="47.49952" lon="6.72903">
        <ele>340.9</ele>
        <time>2015-06-08T14:21:06Z</time>
      </trkpt>
      <trkpt lat="47.49949" lon="6.72898">
        <ele>341.1</ele>
        <time>2015-06-08T14:21:08Z</time>
      </trkpt>
      <trkpt lat="47.49947" lon="6.72894">
        <ele>341.7</ele>
        <time>2015-06-08T14:21:08Z</time>
      </trkpt>
      <trkpt lat="47.49945" lon="6.72888">
        <ele>342.1</ele>
        <time>2015-06-08T14:21:09Z</time>
      </trkpt>
      <trkpt lat="47.49945" lon="6.72883">
        <ele>342.5</ele>
        <time>2015-06-08T14:21:10Z</time>
      </trkpt>
      <trkpt lat="47.49945" lon="6.72877">
        <ele>343.2</ele>
        <time>2015-06-08T14:21:11Z</time>
      </trkpt>
      <trkpt lat="47.49945" lon="6.72872">
        <ele>343.5</ele>
        <time>2015-06-08T14:21:12Z</time>
      </trkpt>
      <trkpt lat="47.49945" lon="6.72866">
        <ele>344.1</ele>
        <time>2015-06-08T14:21:14Z</time>
      </trkpt>
      <trkpt lat="47.49945" lon="6.72861">
        <ele>344.3</ele>
        <time>2015-06-08T14:21:14Z</time>
      </trkpt>
      <trkpt lat="47.49945" lon="6.72856">
        <ele>344.8</ele>
        <time>2015-06-08T14:21:15Z</time>
      </trkpt>
      <trkpt lat="47.49945" lon="6.7285">
        <ele>345.1</ele>
        <time>2015-06-08T14:21:16Z</time>
      </trkpt>
      <trkpt lat="47.49944" lon="6.72844">
        <ele>345.3</ele>
        <time>2015-06-08T14:21:17Z</time>
      </trkpt>
      <trkpt lat="47.49942" lon="6.72839">
        <ele>345.3</ele>
        <time>2015-06-08T14:21:18Z</time>
      </trkpt>
      <trkpt lat="47.4994" lon="6.72832">
        <ele>345.2</ele>
        <time>2015-06-08T14:21:19Z</time>
      </trkpt>
      <trkpt lat="47.49939" lon="6.72826">
        <ele>345.4</ele>
        <time>2015-06-08T14:21:20Z</time>
      </trkpt>
      <trkpt lat="47.49938" lon="6.72819">
        <ele>345.6</ele>
        <time>2015-06-08T14:21:21Z</time>
      </trkpt>
      <trkpt lat="47.49937" lon="6.72812">
        <ele>345.7</ele>
        <time>2015-06-08T14:21:22Z</time>
      </trkpt>
      <trkpt lat="47.49936" lon="6.72805">
        <ele>345.5</ele>
        <time>2015-06-08T14:21:23Z</time>
      </trkpt>
      <trkpt lat="47.49935" lon="6.72798">
        <ele>345.4</ele>
        <time>2015-06-08T14:21:24Z</time>
      </trkpt>
      <trkpt lat="47.49935" lon="6.72793">
        <ele>344.8</ele>
        <time>2015-06-08T14:21:25Z</time>
      </trkpt>
      <trkpt lat="47.49935" lon="6.72787">
        <ele>344.5</ele>
        <time>2015-06-08T14:21:26Z</time>
      </trkpt>
      <trkpt lat="47.49935" lon="6.72781">
        <ele>344.5</ele>
        <time>2015-06-08T14:21:27Z</time>
      </trkpt>
      <trkpt lat="47.49935" lon="6.72775">
        <ele>344.6</ele>
        <time>2015-06-08T14:21:28Z</time>
      </trkpt>
      <trkpt lat="47.49935" lon="6.72769">
        <ele>344.5</ele>
        <time>2015-06-08T14:21:29Z</time>
      </trkpt>
      <trkpt lat="47.49935" lon="6.72763">
        <ele>344.1</ele>
        <time>2015-06-08T14:21:30Z</time>
      </trkpt>
      <trkpt lat="47.49934" lon="6.72758">
        <ele>343.7</ele>
        <time>2015-06-08T14:21:31Z</time>
      </trkpt>
      <trkpt lat="47.49933" lon="6.72753">
        <ele>343.8</ele>
        <time>2015-06-08T14:21:33Z</time>
      </trkpt>
      <trkpt lat="47.49932" lon="6.72748">
        <ele>344.1</ele>
        <time>2015-06-08T14:21:33Z</time>
      </trkpt>
      <trkpt lat="47.49932" lon="6.72742">
        <ele>344.3</ele>
        <time>2015-06-08T14:21:34Z</time>
      </trkpt>
      <trkpt lat="47.49931" lon="6.72736">
        <ele>344.8</ele>
        <time>2015-06-08T14:21:35Z</time>
      </trkpt>
      <trkpt lat="47.4993" lon="6.72731">
        <ele>344.9</ele>
        <time>2015-06-08T14:21:36Z</time>
      </trkpt>
      <trkpt lat="47.4993" lon="6.72724">
        <ele>345.2</ele>
        <time>2015-06-08T14:21:37Z</time>
      </trkpt>
      <trkpt lat="47.49929" lon="6.72718">
        <ele>345.7</ele>
        <time>2015-06-08T14:21:39Z</time>
      </trkpt>
      <trkpt lat="47.49929" lon="6.72712">
        <ele>345.9</ele>
        <time>2015-06-08T14:21:39Z</time>
      </trkpt>
      <trkpt lat="47.49929" lon="6.72706">
        <ele>346.1</ele>
        <time>2015-06-08T14:21:40Z</time>
      </trkpt>
      <trkpt lat="47.49928" lon="6.72701">
        <ele>346.3</ele>
        <time>2015-06-08T14:21:41Z</time>
      </trkpt>
      <trkpt lat="47.49928" lon="6.72695">
        <ele>346.5</ele>
        <time>2015-06-08T14:21:42Z</time>
      </trkpt>
      <trkpt lat="47.49928" lon="6.72688">
        <ele>347.2</ele>
        <time>2015-06-08T14:21:43Z</time>
      </trkpt>
      <trkpt lat="47.49928" lon="6.72682">
        <ele>347.6</ele>
        <time>2015-06-08T14:21:44Z</time>
      </trkpt>
      <trkpt lat="47.49928" lon="6.72676">
        <ele>347.8</ele>
        <time>2015-06-08T14:21:45Z</time>
      </trkpt>
      <trkpt lat="47.49928" lon="6.7267">
        <ele>348.2</ele>
        <time>2015-06-08T14:21:46Z</time>
      </trkpt>
      <trkpt lat="47.49928" lon="6.72664">
        <ele>348.3</ele>
        <time>2015-06-08T14:21:47Z</time>
      </trkpt>
      <trkpt lat="47.49928" lon="6.72658">
        <ele>348.5</ele>
        <time>2015-06-08T14:21:48Z</time>
      </trkpt>
      <trkpt lat="47.49929" lon="6.72651">
        <ele>349</ele>
        <time>2015-06-08T14:21:49Z</time>
      </trkpt>
      <trkpt lat="47.49929" lon="6.72644">
        <ele>349.8</ele>
        <time>2015-06-08T14:21:50Z</time>
      </trkpt>
      <trkpt lat="47.49929" lon="6.72638">
        <ele>350.1</ele>
        <time>2015-06-08T14:21:51Z</time>
      </trkpt>
      <trkpt lat="47.49929" lon="6.72632">
        <ele>350.5</ele>
        <time>2015-06-08T14:21:52Z</time>
      </trkpt>
      <trkpt lat="47.49929" lon="6.72625">
        <ele>351</ele>
        <time>2015-06-08T14:21:53Z</time>
      </trkpt>
      <trkpt lat="47.4993" lon="6.72619">
        <ele>351.6</ele>
        <time>2015-06-08T14:21:54Z</time>
      </trkpt>
      <trkpt lat="47.4993" lon="6.72613">
        <ele>352.1</ele>
        <time>2015-06-08T14:21:55Z</time>
      </trkpt>
      <trkpt lat="47.49929" lon="6.72607">
        <ele>352.9</ele>
        <time>2015-06-08T14:21:56Z</time>
      </trkpt>
      <trkpt lat="47.49929" lon="6.726">
        <ele>353.5</ele>
        <time>2015-06-08T14:21:57Z</time>
      </trkpt>
      <trkpt lat="47.49928" lon="6.72594">
        <ele>354.2</ele>
        <time>2015-06-08T14:21:58Z</time>
      </trkpt>
      <trkpt lat="47.49927" lon="6.72588">
        <ele>354.8</ele>
        <time>2015-06-08T14:21:59Z</time>
      </trkpt>
      <trkpt lat="47.49927" lon="6.72581">
        <ele>355.4</ele>
        <time>2015-06-08T14:22:00Z</time>
      </trkpt>
      <trkpt lat="47.49927" lon="6.72575">
        <ele>356</ele>
        <time>2015-06-08T14:22:01Z</time>
      </trkpt>
      <trkpt lat="47.49927" lon="6.72569">
        <ele>356.3</ele>
        <time>2015-06-08T14:22:02Z</time>
      </trkpt>
      <trkpt lat="47.49926" lon="6.72562">
        <ele>356.8</ele>
        <time>2015-06-08T14:22:03Z</time>
      </trkpt>
      <trkpt lat="47.49925" lon="6.72556">
        <ele>357.5</ele>
        <time>2015-06-08T14:22:04Z</time>
      </trkpt>
      <trkpt lat="47.49925" lon="6.72549">
        <ele>358.4</ele>
        <time>2015-06-08T14:22:05Z</time>
      </trkpt>
      <trkpt lat="47.49924" lon="6.72543">
        <ele>358.9</ele>
        <time>2015-06-08T14:22:06Z</time>
      </trkpt>
      <trkpt lat="47.49924" lon="6.72537">
        <ele>359.1</ele>
        <time>2015-06-08T14:22:07Z</time>
      </trkpt>
      <trkpt lat="47.49923" lon="6.7253">
        <ele>359.5</ele>
        <time>2015-06-08T14:22:08Z</time>
      </trkpt>
      <trkpt lat="47.49923" lon="6.72524">
        <ele>360.1</ele>
        <time>2015-06-08T14:22:09Z</time>
      </trkpt>
      <trkpt lat="47.49922" lon="6.72517">
        <ele>361</ele>
        <time>2015-06-08T14:22:10Z</time>
      </trkpt>
      <trkpt lat="47.49921" lon="6.72511">
        <ele>361.7</ele>
        <time>2015-06-08T14:22:11Z</time>
      </trkpt>
      <trkpt lat="47.49921" lon="6.72504">
        <ele>362.3</ele>
        <time>2015-06-08T14:22:12Z</time>
      </trkpt>
      <trkpt lat="47.4992" lon="6.72498">
        <ele>363</ele>
        <time>2015-06-08T14:22:13Z</time>
      </trkpt>
      <trkpt lat="47.4992" lon="6.72491">
        <ele>363.7</ele>
        <time>2015-06-08T14:22:14Z</time>
      </trkpt>
      <trkpt lat="47.4992" lon="6.72486">
        <ele>363.6</ele>
        <time>2015-06-08T14:22:16Z</time>
      </trkpt>
      <trkpt lat="47.49919" lon="6.72479">
        <ele>364.2</ele>
        <time>2015-06-08T14:22:16Z</time>
      </trkpt>
      <trkpt lat="47.49919" lon="6.72473">
        <ele>364.7</ele>
        <time>2015-06-08T14:22:18Z</time>
      </trkpt>
      <trkpt lat="47.49918" lon="6.72466">
        <ele>365.2</ele>
        <time>2015-06-08T14:22:18Z</time>
      </trkpt>
      <trkpt lat="47.49918" lon="6.7246">
        <ele>365.8</ele>
        <time>2015-06-08T14:22:20Z</time>
      </trkpt>
      <trkpt lat="47.49917" lon="6.72453">
        <ele>366.1</ele>
        <time>2015-06-08T14:22:20Z</time>
      </trkpt>
      <trkpt lat="47.49916" lon="6.72446">
        <ele>366.5</ele>
        <time>2015-06-08T14:22:21Z</time>
      </trkpt>
      <trkpt lat="47.49916" lon="6.7244">
        <ele>366.9</ele>
        <time>2015-06-08T14:22:22Z</time>
      </trkpt>
      <trkpt lat="47.49916" lon="6.72434">
        <ele>367.4</ele>
        <time>2015-06-08T14:22:23Z</time>
      </trkpt>
      <trkpt lat="47.49916" lon="6.72428">
        <ele>367.9</ele>
        <time>2015-06-08T14:22:24Z</time>
      </trkpt>
      <trkpt lat="47.49916" lon="6.72422">
        <ele>368.2</ele>
        <time>2015-06-08T14:22:25Z</time>
      </trkpt>
      <trkpt lat="47.49916" lon="6.72416">
        <ele>368.4</ele>
        <time>2015-06-08T14:22:27Z</time>
      </trkpt>
      <trkpt lat="47.49917" lon="6.72409">
        <ele>368.8</ele>
        <time>2015-06-08T14:22:27Z</time>
      </trkpt>
      <trkpt lat="47.49916" lon="6.72402">
        <ele>369.3</ele>
        <time>2015-06-08T14:22:28Z</time>
      </trkpt>
      <trkpt lat="47.49916" lon="6.72396">
        <ele>369.9</ele>
        <time>2015-06-08T14:22:29Z</time>
      </trkpt>
      <trkpt lat="47.49916" lon="6.7239">
        <ele>370.1</ele>
        <time>2015-06-08T14:22:31Z</time>
      </trkpt>
      <trkpt lat="47.49916" lon="6.72383">
        <ele>370.7</ele>
        <time>2015-06-08T14:22:32Z</time>
      </trkpt>
      <trkpt lat="47.49916" lon="6.72376">
        <ele>371.3</ele>
        <time>2015-06-08T14:22:33Z</time>
      </trkpt>
      <trkpt lat="47.49916" lon="6.7237">
        <ele>372</ele>
        <time>2015-06-08T14:22:33Z</time>
      </trkpt>
      <trkpt lat="47.49916" lon="6.72363">
        <ele>372.5</ele>
        <time>2015-06-08T14:22:34Z</time>
      </trkpt>
      <trkpt lat="47.49916" lon="6.72356">
        <ele>372.9</ele>
        <time>2015-06-08T14:22:36Z</time>
      </trkpt>
      <trkpt lat="47.49917" lon="6.7235">
        <ele>373.2</ele>
        <time>2015-06-08T14:22:36Z</time>
      </trkpt>
      <trkpt lat="47.49917" lon="6.72344">
        <ele>373.5</ele>
        <time>2015-06-08T14:22:38Z</time>
      </trkpt>
      <trkpt lat="47.49917" lon="6.72337">
        <ele>374.1</ele>
        <time>2015-06-08T14:22:39Z</time>
      </trkpt>
      <trkpt lat="47.49917" lon="6.72331">
        <ele>374.9</ele>
        <time>2015-06-08T14:22:39Z</time>
      </trkpt>
      <trkpt lat="47.49918" lon="6.72323">
        <ele>375.7</ele>
        <time>2015-06-08T14:22:40Z</time>
      </trkpt>
      <trkpt lat="47.49918" lon="6.72316">
        <ele>376.5</ele>
        <time>2015-06-08T14:22:41Z</time>
      </trkpt>
      <trkpt lat="47.49917" lon="6.72309">
        <ele>377.1</ele>
        <time>2015-06-08T14:22:42Z</time>
      </trkpt>
      <trkpt lat="47.49917" lon="6.72302">
        <ele>377.8</ele>
        <time>2015-06-08T14:22:44Z</time>
      </trkpt>
      <trkpt lat="47.49918" lon="6.72295">
        <ele>378.6</ele>
        <time>2015-06-08T14:22:44Z</time>
      </trkpt>
      <trkpt lat="47.49918" lon="6.72288">
        <ele>379.4</ele>
        <time>2015-06-08T14:22:46Z</time>
      </trkpt>
      <trkpt lat="47.49918" lon="6.72281">
        <ele>380.1</ele>
        <time>2015-06-08T14:22:46Z</time>
      </trkpt>
      <trkpt lat="47.49917" lon="6.72273">
        <ele>380.8</ele>
        <time>2015-06-08T14:22:47Z</time>
      </trkpt>
      <trkpt lat="47.49917" lon="6.72266">
        <ele>381.2</ele>
        <time>2015-06-08T14:22:49Z</time>
      </trkpt>
      <trkpt lat="47.49916" lon="6.72258">
        <ele>381.6</ele>
        <time>2015-06-08T14:22:49Z</time>
      </trkpt>
      <trkpt lat="47.49916" lon="6.72251">
        <ele>382.1</ele>
        <time>2015-06-08T14:22:51Z</time>
      </trkpt>
      <trkpt lat="47.49915" lon="6.72242">
        <ele>382.4</ele>
        <time>2015-06-08T14:22:52Z</time>
      </trkpt>
      <trkpt lat="47.49914" lon="6.72234">
        <ele>382.9</ele>
        <time>2015-06-08T14:22:53Z</time>
      </trkpt>
      <trkpt lat="47.49911" lon="6.72226">
        <ele>383.4</ele>
        <time>2015-06-08T14:22:54Z</time>
      </trkpt>
      <trkpt lat="47.49911" lon="6.72219">
        <ele>383.9</ele>
        <time>2015-06-08T14:22:55Z</time>
      </trkpt>
      <trkpt lat="47.49911" lon="6.72212">
        <ele>384.4</ele>
        <time>2015-06-08T14:22:56Z</time>
      </trkpt>
      <trkpt lat="47.49911" lon="6.72204">
        <ele>384.8</ele>
        <time>2015-06-08T14:22:57Z</time>
      </trkpt>
      <trkpt lat="47.49912" lon="6.72196">
        <ele>385.3</ele>
        <time>2015-06-08T14:22:58Z</time>
      </trkpt>
      <trkpt lat="47.49912" lon="6.72188">
        <ele>385.7</ele>
        <time>2015-06-08T14:22:58Z</time>
      </trkpt>
      <trkpt lat="47.49912" lon="6.7218">
        <ele>386.3</ele>
        <time>2015-06-08T14:23:00Z</time>
      </trkpt>
      <trkpt lat="47.49913" lon="6.72173">
        <ele>386.7</ele>
        <time>2015-06-08T14:23:00Z</time>
      </trkpt>
      <trkpt lat="47.49914" lon="6.72166">
        <ele>386.2</ele>
        <time>2015-06-08T14:23:02Z</time>
      </trkpt>
      <trkpt lat="47.49915" lon="6.7216">
        <ele>386.1</ele>
        <time>2015-06-08T14:23:03Z</time>
      </trkpt>
      <trkpt lat="47.49916" lon="6.72153">
        <ele>385.7</ele>
        <time>2015-06-08T14:23:04Z</time>
      </trkpt>
      <trkpt lat="47.49918" lon="6.72147">
        <ele>385.3</ele>
        <time>2015-06-08T14:23:05Z</time>
      </trkpt>
      <trkpt lat="47.49919" lon="6.72141">
        <ele>385.2</ele>
        <time>2015-06-08T14:23:06Z</time>
      </trkpt>
      <trkpt lat="47.49921" lon="6.72135">
        <ele>384.6</ele>
        <time>2015-06-08T14:23:07Z</time>
      </trkpt>
      <trkpt lat="47.49922" lon="6.72129">
        <ele>384.5</ele>
        <time>2015-06-08T14:23:07Z</time>
      </trkpt>
      <trkpt lat="47.49924" lon="6.72123">
        <ele>384.2</ele>
        <time>2015-06-08T14:23:09Z</time>
      </trkpt>
      <trkpt lat="47.49926" lon="6.72116">
        <ele>384.1</ele>
        <time>2015-06-08T14:23:09Z</time>
      </trkpt>
      <trkpt lat="47.49927" lon="6.7211">
        <ele>383.9</ele>
        <time>2015-06-08T14:23:11Z</time>
      </trkpt>
      <trkpt lat="47.49929" lon="6.72104">
        <ele>383.4</ele>
        <time>2015-06-08T14:23:12Z</time>
      </trkpt>
      <trkpt lat="47.4993" lon="6.72097">
        <ele>383.1</ele>
        <time>2015-06-08T14:23:13Z</time>
      </trkpt>
      <trkpt lat="47.49932" lon="6.72091">
        <ele>382.9</ele>
        <time>2015-06-08T14:23:14Z</time>
      </trkpt>
      <trkpt lat="47.49933" lon="6.72084">
        <ele>382.9</ele>
        <time>2015-06-08T14:23:15Z</time>
      </trkpt>
      <trkpt lat="47.49935" lon="6.72079">
        <ele>380.8</ele>
        <time>2015-06-08T14:23:16Z</time>
      </trkpt>
      <trkpt lat="47.49936" lon="6.72072">
        <ele>380.9</ele>
        <time>2015-06-08T14:23:17Z</time>
      </trkpt>
      <trkpt lat="47.49937" lon="6.72065">
        <ele>381.2</ele>
        <time>2015-06-08T14:23:18Z</time>
      </trkpt>
      <trkpt lat="47.49937" lon="6.72058">
        <ele>381.4</ele>
        <time>2015-06-08T14:23:19Z</time>
      </trkpt>
      <trkpt lat="47.49937" lon="6.7205">
        <ele>382</ele>
        <time>2015-06-08T14:23:20Z</time>
      </trkpt>
      <trkpt lat="47.49938" lon="6.72043">
        <ele>382.6</ele>
        <time>2015-06-08T14:23:21Z</time>
      </trkpt>
      <trkpt lat="47.49937" lon="6.72037">
        <ele>383.2</ele>
        <time>2015-06-08T14:23:22Z</time>
      </trkpt>
      <trkpt lat="47.49937" lon="6.7203">
        <ele>383.4</ele>
        <time>2015-06-08T14:23:23Z</time>
      </trkpt>
      <trkpt lat="47.49937" lon="6.72025">
        <ele>383.4</ele>
        <time>2015-06-08T14:23:24Z</time>
      </trkpt>
      <trkpt lat="47.49937" lon="6.72019">
        <ele>383.8</ele>
        <time>2015-06-08T14:23:25Z</time>
      </trkpt>
      <trkpt lat="47.49937" lon="6.72013">
        <ele>384.1</ele>
        <time>2015-06-08T14:23:26Z</time>
      </trkpt>
      <trkpt lat="47.49939" lon="6.72011">
        <ele>382.2</ele>
        <time>2015-06-08T14:23:27Z</time>
      </trkpt>
      <trkpt lat="47.49939" lon="6.72007">
        <ele>381.8</ele>
        <time>2015-06-08T14:23:27Z</time>
      </trkpt>
      <trkpt lat="47.49939" lon="6.72002">
        <ele>381.5</ele>
        <time>2015-06-08T14:23:29Z</time>
      </trkpt>
      <trkpt lat="47.4994" lon="6.71996">
        <ele>381.8</ele>
        <time>2015-06-08T14:23:29Z</time>
      </trkpt>
      <trkpt lat="47.4994" lon="6.7199">
        <ele>381.5</ele>
        <time>2015-06-08T14:23:30Z</time>
      </trkpt>
      <trkpt lat="47.4994" lon="6.71985">
        <ele>380.4</ele>
        <time>2015-06-08T14:23:31Z</time>
      </trkpt>
      <trkpt lat="47.4994" lon="6.71981">
        <ele>378.4</ele>
        <time>2015-06-08T14:23:33Z</time>
      </trkpt>
      <trkpt lat="47.49941" lon="6.71977">
        <ele>376.9</ele>
        <time>2015-06-08T14:23:33Z</time>
      </trkpt>
      <trkpt lat="47.4994" lon="6.71971">
        <ele>376.4</ele>
        <time>2015-06-08T14:23:35Z</time>
      </trkpt>
      <trkpt lat="47.4994" lon="6.71965">
        <ele>376.1</ele>
        <time>2015-06-08T14:23:35Z</time>
      </trkpt>
      <trkpt lat="47.4994" lon="6.71959">
        <ele>375.5</ele>
        <time>2015-06-08T14:23:37Z</time>
      </trkpt>
      <trkpt lat="47.49939" lon="6.71953">
        <ele>374.9</ele>
        <time>2015-06-08T14:23:38Z</time>
      </trkpt>
      <trkpt lat="47.49939" lon="6.71948">
        <ele>374.1</ele>
        <time>2015-06-08T14:23:39Z</time>
      </trkpt>
      <trkpt lat="47.49939" lon="6.71942">
        <ele>373.9</ele>
        <time>2015-06-08T14:23:40Z</time>
      </trkpt>
      <trkpt lat="47.49938" lon="6.71937">
        <ele>373.7</ele>
        <time>2015-06-08T14:23:40Z</time>
      </trkpt>
      <trkpt lat="47.49938" lon="6.71931">
        <ele>373.5</ele>
        <time>2015-06-08T14:23:41Z</time>
      </trkpt>
      <trkpt lat="47.49937" lon="6.71925">
        <ele>373.4</ele>
        <time>2015-06-08T14:23:43Z</time>
      </trkpt>
      <trkpt lat="47.49936" lon="6.7192">
        <ele>372.7</ele>
        <time>2015-06-08T14:23:44Z</time>
      </trkpt>
      <trkpt lat="47.49936" lon="6.71914">
        <ele>372.6</ele>
        <time>2015-06-08T14:23:44Z</time>
      </trkpt>
      <trkpt lat="47.49935" lon="6.71908">
        <ele>372.3</ele>
        <time>2015-06-08T14:23:46Z</time>
      </trkpt>
      <trkpt lat="47.49934" lon="6.71902">
        <ele>372</ele>
        <time>2015-06-08T14:23:46Z</time>
      </trkpt>
      <trkpt lat="47.49933" lon="6.71896">
        <ele>371.7</ele>
        <time>2015-06-08T14:23:47Z</time>
      </trkpt>
      <trkpt lat="47.49932" lon="6.71891">
        <ele>371.3</ele>
        <time>2015-06-08T14:23:48Z</time>
      </trkpt>
      <trkpt lat="47.49931" lon="6.71885">
        <ele>371.2</ele>
        <time>2015-06-08T14:23:49Z</time>
      </trkpt>
      <trkpt lat="47.4993" lon="6.7188">
        <ele>370.7</ele>
        <time>2015-06-08T14:23:51Z</time>
      </trkpt>
      <trkpt lat="47.49929" lon="6.71874">
        <ele>370.7</ele>
        <time>2015-06-08T14:23:51Z</time>
      </trkpt>
      <trkpt lat="47.49929" lon="6.71868">
        <ele>370.4</ele>
        <time>2015-06-08T14:23:53Z</time>
      </trkpt>
      <trkpt lat="47.49928" lon="6.71862">
        <ele>370.5</ele>
        <time>2015-06-08T14:23:54Z</time>
      </trkpt>
      <trkpt lat="47.49927" lon="6.71856">
        <ele>370.5</ele>
        <time>2015-06-08T14:23:54Z</time>
      </trkpt>
      <trkpt lat="47.49927" lon="6.71851">
        <ele>370.5</ele>
        <time>2015-06-08T14:23:55Z</time>
      </trkpt>
      <trkpt lat="47.49927" lon="6.71846">
        <ele>369.9</ele>
        <time>2015-06-08T14:23:57Z</time>
      </trkpt>
      <trkpt lat="47.49926" lon="6.7184">
        <ele>369.8</ele>
        <time>2015-06-08T14:23:57Z</time>
      </trkpt>
      <trkpt lat="47.49925" lon="6.71834">
        <ele>370</ele>
        <time>2015-06-08T14:23:59Z</time>
      </trkpt>
      <trkpt lat="47.49924" lon="6.71828">
        <ele>370.1</ele>
        <time>2015-06-08T14:23:59Z</time>
      </trkpt>
      <trkpt lat="47.49924" lon="6.71822">
        <ele>370</ele>
        <time>2015-06-08T14:24:01Z</time>
      </trkpt>
      <trkpt lat="47.49923" lon="6.71816">
        <ele>369.7</ele>
        <time>2015-06-08T14:24:01Z</time>
      </trkpt>
      <trkpt lat="47.49923" lon="6.71811">
        <ele>369.5</ele>
        <time>2015-06-08T14:24:03Z</time>
      </trkpt>
      <trkpt lat="47.49922" lon="6.71805">
        <ele>369.2</ele>
        <time>2015-06-08T14:24:03Z</time>
      </trkpt>
      <trkpt lat="47.49921" lon="6.718">
        <ele>368.7</ele>
        <time>2015-06-08T14:24:04Z</time>
      </trkpt>
      <trkpt lat="47.4992" lon="6.71794">
        <ele>368.4</ele>
        <time>2015-06-08T14:24:06Z</time>
      </trkpt>
      <trkpt lat="47.49919" lon="6.71787">
        <ele>368.3</ele>
        <time>2015-06-08T14:24:06Z</time>
      </trkpt>
      <trkpt lat="47.49919" lon="6.71781">
        <ele>368</ele>
        <time>2015-06-08T14:24:08Z</time>
      </trkpt>
      <trkpt lat="47.49918" lon="6.71774">
        <ele>367.8</ele>
        <time>2015-06-08T14:24:08Z</time>
      </trkpt>
      <trkpt lat="47.49918" lon="6.71768">
        <ele>367.4</ele>
        <time>2015-06-08T14:24:09Z</time>
      </trkpt>
      <trkpt lat="47.49917" lon="6.71762">
        <ele>367.1</ele>
        <time>2015-06-08T14:24:10Z</time>
      </trkpt>
      <trkpt lat="47.49916" lon="6.71756">
        <ele>366.8</ele>
        <time>2015-06-08T14:24:11Z</time>
      </trkpt>
      <trkpt lat="47.49916" lon="6.7175">
        <ele>366.6</ele>
        <time>2015-06-08T14:24:12Z</time>
      </trkpt>
      <trkpt lat="47.49915" lon="6.71744">
        <ele>366.4</ele>
        <time>2015-06-08T14:24:13Z</time>
      </trkpt>
      <trkpt lat="47.49915" lon="6.71737">
        <ele>366.1</ele>
        <time>2015-06-08T14:24:14Z</time>
      </trkpt>
      <trkpt lat="47.49914" lon="6.7173">
        <ele>365.7</ele>
        <time>2015-06-08T14:24:15Z</time>
      </trkpt>
      <trkpt lat="47.49913" lon="6.71723">
        <ele>365.6</ele>
        <time>2015-06-08T14:24:16Z</time>
      </trkpt>
      <trkpt lat="47.49913" lon="6.71716">
        <ele>365.7</ele>
        <time>2015-06-08T14:24:17Z</time>
      </trkpt>
      <trkpt lat="47.49912" lon="6.71709">
        <ele>365.7</ele>
        <time>2015-06-08T14:24:18Z</time>
      </trkpt>
      <trkpt lat="47.49912" lon="6.71702">
        <ele>365.7</ele>
        <time>2015-06-08T14:24:19Z</time>
      </trkpt>
      <trkpt lat="47.49912" lon="6.71696">
        <ele>365.3</ele>
        <time>2015-06-08T14:24:21Z</time>
      </trkpt>
      <trkpt lat="47.49911" lon="6.71689">
        <ele>365.1</ele>
        <time>2015-06-08T14:24:21Z</time>
      </trkpt>
      <trkpt lat="47.49911" lon="6.71682">
        <ele>365</ele>
        <time>2015-06-08T14:24:23Z</time>
      </trkpt>
      <trkpt lat="47.4991" lon="6.71674">
        <ele>364.9</ele>
        <time>2015-06-08T14:24:23Z</time>
      </trkpt>
      <trkpt lat="47.49909" lon="6.71667">
        <ele>365</ele>
        <time>2015-06-08T14:24:25Z</time>
      </trkpt>
      <trkpt lat="47.49909" lon="6.7166">
        <ele>364.8</ele>
        <time>2015-06-08T14:24:25Z</time>
      </trkpt>
      <trkpt lat="47.49908" lon="6.71652">
        <ele>364.3</ele>
        <time>2015-06-08T14:24:27Z</time>
      </trkpt>
      <trkpt lat="47.49907" lon="6.71644">
        <ele>363.8</ele>
        <time>2015-06-08T14:24:28Z</time>
      </trkpt>
      <trkpt lat="47.49906" lon="6.71635">
        <ele>363.9</ele>
        <time>2015-06-08T14:24:28Z</time>
      </trkpt>
      <trkpt lat="47.49905" lon="6.71627">
        <ele>364</ele>
        <time>2015-06-08T14:24:29Z</time>
      </trkpt>
      <trkpt lat="47.49904" lon="6.71618">
        <ele>364</ele>
        <time>2015-06-08T14:24:30Z</time>
      </trkpt>
      <trkpt lat="47.49903" lon="6.7161">
        <ele>364</ele>
        <time>2015-06-08T14:24:31Z</time>
      </trkpt>
      <trkpt lat="47.49903" lon="6.71602">
        <ele>363.9</ele>
        <time>2015-06-08T14:24:32Z</time>
      </trkpt>
      <trkpt lat="47.49902" lon="6.71593">
        <ele>363.8</ele>
        <time>2015-06-08T14:24:33Z</time>
      </trkpt>
      <trkpt lat="47.49902" lon="6.71585">
        <ele>363.4</ele>
        <time>2015-06-08T14:24:34Z</time>
      </trkpt>
      <trkpt lat="47.49901" lon="6.71576">
        <ele>363.1</ele>
        <time>2015-06-08T14:24:35Z</time>
      </trkpt>
      <trkpt lat="47.49901" lon="6.71567">
        <ele>363</ele>
        <time>2015-06-08T14:24:36Z</time>
      </trkpt>
      <trkpt lat="47.499" lon="6.71558">
        <ele>363</ele>
        <time>2015-06-08T14:24:37Z</time>
      </trkpt>
      <trkpt lat="47.499" lon="6.71549">
        <ele>363</ele>
        <time>2015-06-08T14:24:38Z</time>
      </trkpt>
      <trkpt lat="47.49899" lon="6.7154">
        <ele>363.6</ele>
        <time>2015-06-08T14:24:39Z</time>
      </trkpt>
      <trkpt lat="47.49899" lon="6.71532">
        <ele>364</ele>
        <time>2015-06-08T14:24:41Z</time>
      </trkpt>
      <trkpt lat="47.499" lon="6.71523">
        <ele>364.7</ele>
        <time>2015-06-08T14:24:42Z</time>
      </trkpt>
      <trkpt lat="47.499" lon="6.71515">
        <ele>365.3</ele>
        <time>2015-06-08T14:24:42Z</time>
      </trkpt>
      <trkpt lat="47.499" lon="6.71507">
        <ele>366.1</ele>
        <time>2015-06-08T14:24:43Z</time>
      </trkpt>
      <trkpt lat="47.499" lon="6.71499">
        <ele>367</ele>
        <time>2015-06-08T14:24:44Z</time>
      </trkpt>
      <trkpt lat="47.499" lon="6.71492">
        <ele>368</ele>
        <time>2015-06-08T14:24:45Z</time>
      </trkpt>
      <trkpt lat="47.499" lon="6.71485">
        <ele>369</ele>
        <time>2015-06-08T14:24:46Z</time>
      </trkpt>
      <trkpt lat="47.49901" lon="6.71478">
        <ele>369.7</ele>
        <time>2015-06-08T14:24:47Z</time>
      </trkpt>
      <trkpt lat="47.49901" lon="6.71471">
        <ele>370.5</ele>
        <time>2015-06-08T14:24:48Z</time>
      </trkpt>
      <trkpt lat="47.49902" lon="6.71465">
        <ele>371.4</ele>
        <time>2015-06-08T14:24:49Z</time>
      </trkpt>
      <trkpt lat="47.49902" lon="6.71459">
        <ele>372.2</ele>
        <time>2015-06-08T14:24:50Z</time>
      </trkpt>
      <trkpt lat="47.49902" lon="6.71452">
        <ele>372.8</ele>
        <time>2015-06-08T14:24:51Z</time>
      </trkpt>
      <trkpt lat="47.49902" lon="6.71445">
        <ele>373.4</ele>
        <time>2015-06-08T14:24:52Z</time>
      </trkpt>
      <trkpt lat="47.49901" lon="6.71438">
        <ele>374.1</ele>
        <time>2015-06-08T14:24:53Z</time>
      </trkpt>
      <trkpt lat="47.49901" lon="6.71431">
        <ele>374.7</ele>
        <time>2015-06-08T14:24:54Z</time>
      </trkpt>
      <trkpt lat="47.49902" lon="6.71424">
        <ele>375.2</ele>
        <time>2015-06-08T14:24:56Z</time>
      </trkpt>
      <trkpt lat="47.49903" lon="6.71416">
        <ele>375.6</ele>
        <time>2015-06-08T14:24:57Z</time>
      </trkpt>
      <trkpt lat="47.49904" lon="6.71409">
        <ele>375.9</ele>
        <time>2015-06-08T14:24:57Z</time>
      </trkpt>
      <trkpt lat="47.49904" lon="6.71402">
        <ele>376.4</ele>
        <time>2015-06-08T14:24:58Z</time>
      </trkpt>
      <trkpt lat="47.49904" lon="6.71395">
        <ele>377.2</ele>
        <time>2015-06-08T14:24:59Z</time>
      </trkpt>
      <trkpt lat="47.49904" lon="6.71388">
        <ele>377.7</ele>
        <time>2015-06-08T14:25:00Z</time>
      </trkpt>
      <trkpt lat="47.49904" lon="6.7138">
        <ele>378.3</ele>
        <time>2015-06-08T14:25:01Z</time>
      </trkpt>
      <trkpt lat="47.49903" lon="6.71374">
        <ele>379.1</ele>
        <time>2015-06-08T14:25:03Z</time>
      </trkpt>
      <trkpt lat="47.49903" lon="6.71367">
        <ele>379.6</ele>
        <time>2015-06-08T14:25:04Z</time>
      </trkpt>
      <trkpt lat="47.49902" lon="6.7136">
        <ele>380.2</ele>
        <time>2015-06-08T14:25:04Z</time>
      </trkpt>
      <trkpt lat="47.49902" lon="6.71353">
        <ele>381</ele>
        <time>2015-06-08T14:25:05Z</time>
      </trkpt>
      <trkpt lat="47.49902" lon="6.71348">
        <ele>380.9</ele>
        <time>2015-06-08T14:25:06Z</time>
      </trkpt>
      <trkpt lat="47.49903" lon="6.71343">
        <ele>379.6</ele>
        <time>2015-06-08T14:25:08Z</time>
      </trkpt>
      <trkpt lat="47.49902" lon="6.71337">
        <ele>379.7</ele>
        <time>2015-06-08T14:25:09Z</time>
      </trkpt>
      <trkpt lat="47.49902" lon="6.7133">
        <ele>379.9</ele>
        <time>2015-06-08T14:25:10Z</time>
      </trkpt>
      <trkpt lat="47.49902" lon="6.71323">
        <ele>379.7</ele>
        <time>2015-06-08T14:25:11Z</time>
      </trkpt>
      <trkpt lat="47.49901" lon="6.71317">
        <ele>379.5</ele>
        <time>2015-06-08T14:25:11Z</time>
      </trkpt>
      <trkpt lat="47.49901" lon="6.7131">
        <ele>379.1</ele>
        <time>2015-06-08T14:25:13Z</time>
      </trkpt>
      <trkpt lat="47.499" lon="6.71303">
        <ele>379</ele>
        <time>2015-06-08T14:25:14Z</time>
      </trkpt>
      <trkpt lat="47.499" lon="6.71297">
        <ele>379.1</ele>
        <time>2015-06-08T14:25:15Z</time>
      </trkpt>
      <trkpt lat="47.49899" lon="6.7129">
        <ele>379.5</ele>
        <time>2015-06-08T14:25:15Z</time>
      </trkpt>
      <trkpt lat="47.49899" lon="6.71283">
        <ele>379.8</ele>
        <time>2015-06-08T14:25:17Z</time>
      </trkpt>
      <trkpt lat="47.49899" lon="6.71276">
        <ele>380.2</ele>
        <time>2015-06-08T14:25:18Z</time>
      </trkpt>
      <trkpt lat="47.49899" lon="6.71271">
        <ele>379.7</ele>
        <time>2015-06-08T14:25:19Z</time>
      </trkpt>
      <trkpt lat="47.49898" lon="6.71264">
        <ele>379.8</ele>
        <time>2015-06-08T14:25:20Z</time>
      </trkpt>
      <trkpt lat="47.49898" lon="6.71258">
        <ele>380.4</ele>
        <time>2015-06-08T14:25:21Z</time>
      </trkpt>
      <trkpt lat="47.49897" lon="6.71251">
        <ele>381.1</ele>
        <time>2015-06-08T14:25:22Z</time>
      </trkpt>
      <trkpt lat="47.49897" lon="6.71245">
        <ele>381.3</ele>
        <time>2015-06-08T14:25:22Z</time>
      </trkpt>
      <trkpt lat="47.49897" lon="6.71239">
        <ele>381.8</ele>
        <time>2015-06-08T14:25:24Z</time>
      </trkpt>
      <trkpt lat="47.49896" lon="6.71232">
        <ele>382.5</ele>
        <time>2015-06-08T14:25:25Z</time>
      </trkpt>
      <trkpt lat="47.49896" lon="6.71226">
        <ele>383</ele>
        <time>2015-06-08T14:25:26Z</time>
      </trkpt>
      <trkpt lat="47.49896" lon="6.7122">
        <ele>383.5</ele>
        <time>2015-06-08T14:25:26Z</time>
      </trkpt>
      <trkpt lat="47.49896" lon="6.71215">
        <ele>383.9</ele>
        <time>2015-06-08T14:25:27Z</time>
      </trkpt>
      <trkpt lat="47.49896" lon="6.71208">
        <ele>384</ele>
        <time>2015-06-08T14:25:29Z</time>
      </trkpt>
      <trkpt lat="47.49896" lon="6.71201">
        <ele>384.6</ele>
        <time>2015-06-08T14:25:30Z</time>
      </trkpt>
      <trkpt lat="47.49896" lon="6.71195">
        <ele>384.7</ele>
        <time>2015-06-08T14:25:31Z</time>
      </trkpt>
      <trkpt lat="47.49895" lon="6.71189">
        <ele>383.9</ele>
        <time>2015-06-08T14:25:32Z</time>
      </trkpt>
      <trkpt lat="47.49896" lon="6.71184">
        <ele>382.9</ele>
        <time>2015-06-08T14:25:33Z</time>
      </trkpt>
      <trkpt lat="47.49895" lon="6.71178">
        <ele>382.4</ele>
        <time>2015-06-08T14:25:34Z</time>
      </trkpt>
      <trkpt lat="47.49895" lon="6.71171">
        <ele>382</ele>
        <time>2015-06-08T14:25:35Z</time>
      </trkpt>
      <trkpt lat="47.49895" lon="6.71165">
        <ele>381.6</ele>
        <time>2015-06-08T14:25:36Z</time>
      </trkpt>
      <trkpt lat="47.49895" lon="6.71158">
        <ele>381.4</ele>
        <time>2015-06-08T14:25:37Z</time>
      </trkpt>
      <trkpt lat="47.49894" lon="6.71151">
        <ele>381.2</ele>
        <time>2015-06-08T14:25:38Z</time>
      </trkpt>
      <trkpt lat="47.49894" lon="6.71143">
        <ele>381.1</ele>
        <time>2015-06-08T14:25:39Z</time>
      </trkpt>
      <trkpt lat="47.49894" lon="6.71136">
        <ele>381</ele>
        <time>2015-06-08T14:25:40Z</time>
      </trkpt>
      <trkpt lat="47.49893" lon="6.71129">
        <ele>380.8</ele>
        <time>2015-06-08T14:25:41Z</time>
      </trkpt>
      <trkpt lat="47.49893" lon="6.7112">
        <ele>380.7</ele>
        <time>2015-06-08T14:25:42Z</time>
      </trkpt>
      <trkpt lat="47.49893" lon="6.71112">
        <ele>380.3</ele>
        <time>2015-06-08T14:25:43Z</time>
      </trkpt>
      <trkpt lat="47.49893" lon="6.71105">
        <ele>379.8</ele>
        <time>2015-06-08T14:25:44Z</time>
      </trkpt>
      <trkpt lat="47.49893" lon="6.71097">
        <ele>379.2</ele>
        <time>2015-06-08T14:25:45Z</time>
      </trkpt>
      <trkpt lat="47.49893" lon="6.71088">
        <ele>379.1</ele>
        <time>2015-06-08T14:25:46Z</time>
      </trkpt>
      <trkpt lat="47.49893" lon="6.7108">
        <ele>379.1</ele>
        <time>2015-06-08T14:25:47Z</time>
      </trkpt>
      <trkpt lat="47.49893" lon="6.71071">
        <ele>379.1</ele>
        <time>2015-06-08T14:25:47Z</time>
      </trkpt>
      <trkpt lat="47.49893" lon="6.71063">
        <ele>379.4</ele>
        <time>2015-06-08T14:25:49Z</time>
      </trkpt>
      <trkpt lat="47.49893" lon="6.71055">
        <ele>379.7</ele>
        <time>2015-06-08T14:25:50Z</time>
      </trkpt>
      <trkpt lat="47.49892" lon="6.71046">
        <ele>380.3</ele>
        <time>2015-06-08T14:25:51Z</time>
      </trkpt>
      <trkpt lat="47.49892" lon="6.71038">
        <ele>380.3</ele>
        <time>2015-06-08T14:25:52Z</time>
      </trkpt>
      <trkpt lat="47.49892" lon="6.71029">
        <ele>380.4</ele>
        <time>2015-06-08T14:25:53Z</time>
      </trkpt>
      <trkpt lat="47.49892" lon="6.7102">
        <ele>380.2</ele>
        <time>2015-06-08T14:25:54Z</time>
      </trkpt>
      <trkpt lat="47.49892" lon="6.71012">
        <ele>380.3</ele>
        <time>2015-06-08T14:25:55Z</time>
      </trkpt>
      <trkpt lat="47.49892" lon="6.71003">
        <ele>380.2</ele>
        <time>2015-06-08T14:25:56Z</time>
      </trkpt>
      <trkpt lat="47.49893" lon="6.70994">
        <ele>380.4</ele>
        <time>2015-06-08T14:25:57Z</time>
      </trkpt>
      <trkpt lat="47.49893" lon="6.70986">
        <ele>380.2</ele>
        <time>2015-06-08T14:25:58Z</time>
      </trkpt>
      <trkpt lat="47.49894" lon="6.70976">
        <ele>380.4</ele>
        <time>2015-06-08T14:25:59Z</time>
      </trkpt>
      <trkpt lat="47.49895" lon="6.70968">
        <ele>380.8</ele>
        <time>2015-06-08T14:26:00Z</time>
      </trkpt>
      <trkpt lat="47.49896" lon="6.7096">
        <ele>380.8</ele>
        <time>2015-06-08T14:26:01Z</time>
      </trkpt>
      <trkpt lat="47.49896" lon="6.70952">
        <ele>381</ele>
        <time>2015-06-08T14:26:01Z</time>
      </trkpt>
      <trkpt lat="47.49897" lon="6.70945">
        <ele>381.4</ele>
        <time>2015-06-08T14:26:03Z</time>
      </trkpt>
      <trkpt lat="47.49897" lon="6.70937">
        <ele>381.9</ele>
        <time>2015-06-08T14:26:04Z</time>
      </trkpt>
      <trkpt lat="47.49898" lon="6.7093">
        <ele>382.7</ele>
        <time>2015-06-08T14:26:04Z</time>
      </trkpt>
      <trkpt lat="47.49898" lon="6.70923">
        <ele>383.2</ele>
        <time>2015-06-08T14:26:06Z</time>
      </trkpt>
      <trkpt lat="47.49898" lon="6.70915">
        <ele>383.9</ele>
        <time>2015-06-08T14:26:07Z</time>
      </trkpt>
      <trkpt lat="47.49898" lon="6.70908">
        <ele>384.4</ele>
        <time>2015-06-08T14:26:08Z</time>
      </trkpt>
      <trkpt lat="47.49897" lon="6.70901">
        <ele>385</ele>
        <time>2015-06-08T14:26:08Z</time>
      </trkpt>
      <trkpt lat="47.49896" lon="6.70894">
        <ele>385.6</ele>
        <time>2015-06-08T14:26:10Z</time>
      </trkpt>
      <trkpt lat="47.49896" lon="6.70888">
        <ele>386</ele>
        <time>2015-06-08T14:26:11Z</time>
      </trkpt>
      <trkpt lat="47.49896" lon="6.70881">
        <ele>386.5</ele>
        <time>2015-06-08T14:26:12Z</time>
      </trkpt>
      <trkpt lat="47.49896" lon="6.70875">
        <ele>387.1</ele>
        <time>2015-06-08T14:26:13Z</time>
      </trkpt>
      <trkpt lat="47.49896" lon="6.70868">
        <ele>387.2</ele>
        <time>2015-06-08T14:26:13Z</time>
      </trkpt>
      <trkpt lat="47.49896" lon="6.70861">
        <ele>387.4</ele>
        <time>2015-06-08T14:26:14Z</time>
      </trkpt>
      <trkpt lat="47.49896" lon="6.70855">
        <ele>387.7</ele>
        <time>2015-06-08T14:26:16Z</time>
      </trkpt>
      <trkpt lat="47.49897" lon="6.70848">
        <ele>388.2</ele>
        <time>2015-06-08T14:26:16Z</time>
      </trkpt>
      <trkpt lat="47.49897" lon="6.70841">
        <ele>387.9</ele>
        <time>2015-06-08T14:26:18Z</time>
      </trkpt>
      <trkpt lat="47.49898" lon="6.70834">
        <ele>388.3</ele>
        <time>2015-06-08T14:26:18Z</time>
      </trkpt>
      <trkpt lat="47.49898" lon="6.70827">
        <ele>388.4</ele>
        <time>2015-06-08T14:26:20Z</time>
      </trkpt>
      <trkpt lat="47.49899" lon="6.7082">
        <ele>388.7</ele>
        <time>2015-06-08T14:26:21Z</time>
      </trkpt>
      <trkpt lat="47.49899" lon="6.70813">
        <ele>389.4</ele>
        <time>2015-06-08T14:26:21Z</time>
      </trkpt>
      <trkpt lat="47.49899" lon="6.70806">
        <ele>389.7</ele>
        <time>2015-06-08T14:26:23Z</time>
      </trkpt>
      <trkpt lat="47.499" lon="6.70799">
        <ele>389.2</ele>
        <time>2015-06-08T14:26:24Z</time>
      </trkpt>
      <trkpt lat="47.49901" lon="6.70792">
        <ele>389.2</ele>
        <time>2015-06-08T14:26:25Z</time>
      </trkpt>
      <trkpt lat="47.49901" lon="6.70784">
        <ele>389.5</ele>
        <time>2015-06-08T14:26:26Z</time>
      </trkpt>
      <trkpt lat="47.49901" lon="6.70777">
        <ele>389.8</ele>
        <time>2015-06-08T14:26:26Z</time>
      </trkpt>
      <trkpt lat="47.49901" lon="6.7077">
        <ele>389.8</ele>
        <time>2015-06-08T14:26:27Z</time>
      </trkpt>
      <trkpt lat="47.499" lon="6.70765">
        <ele>389.9</ele>
        <time>2015-06-08T14:26:28Z</time>
      </trkpt>
      <trkpt lat="47.49899" lon="6.70758">
        <ele>389.8</ele>
        <time>2015-06-08T14:26:29Z</time>
      </trkpt>
      <trkpt lat="47.499" lon="6.70752">
        <ele>389.3</ele>
        <time>2015-06-08T14:26:30Z</time>
      </trkpt>
      <trkpt lat="47.49899" lon="6.70745">
        <ele>389.2</ele>
        <time>2015-06-08T14:26:32Z</time>
      </trkpt>
      <trkpt lat="47.499" lon="6.70739">
        <ele>388.7</ele>
        <time>2015-06-08T14:26:32Z</time>
      </trkpt>
      <trkpt lat="47.499" lon="6.70732">
        <ele>388.2</ele>
        <time>2015-06-08T14:26:33Z</time>
      </trkpt>
      <trkpt lat="47.499" lon="6.70725">
        <ele>387.8</ele>
        <time>2015-06-08T14:26:35Z</time>
      </trkpt>
      <trkpt lat="47.499" lon="6.70717">
        <ele>387.3</ele>
        <time>2015-06-08T14:26:36Z</time>
      </trkpt>
      <trkpt lat="47.499" lon="6.70709">
        <ele>386.7</ele>
        <time>2015-06-08T14:26:37Z</time>
      </trkpt>
      <trkpt lat="47.499" lon="6.70701">
        <ele>386.5</ele>
        <time>2015-06-08T14:26:38Z</time>
      </trkpt>
      <trkpt lat="47.499" lon="6.70693">
        <ele>386.1</ele>
        <time>2015-06-08T14:26:39Z</time>
      </trkpt>
      <trkpt lat="47.499" lon="6.70685">
        <ele>385.1</ele>
        <time>2015-06-08T14:26:40Z</time>
      </trkpt>
      <trkpt lat="47.499" lon="6.70677">
        <ele>384.5</ele>
        <time>2015-06-08T14:26:41Z</time>
      </trkpt>
      <trkpt lat="47.499" lon="6.70669">
        <ele>383.8</ele>
        <time>2015-06-08T14:26:41Z</time>
      </trkpt>
      <trkpt lat="47.499" lon="6.7066">
        <ele>383.3</ele>
        <time>2015-06-08T14:26:43Z</time>
      </trkpt>
      <trkpt lat="47.49899" lon="6.70651">
        <ele>382.7</ele>
        <time>2015-06-08T14:26:43Z</time>
      </trkpt>
      <trkpt lat="47.49899" lon="6.70642">
        <ele>382.2</ele>
        <time>2015-06-08T14:26:45Z</time>
      </trkpt>
      <trkpt lat="47.49899" lon="6.70634">
        <ele>381.3</ele>
        <time>2015-06-08T14:26:46Z</time>
      </trkpt>
      <trkpt lat="47.49898" lon="6.70625">
        <ele>380.7</ele>
        <time>2015-06-08T14:26:47Z</time>
      </trkpt>
      <trkpt lat="47.49898" lon="6.70616">
        <ele>379.8</ele>
        <time>2015-06-08T14:26:48Z</time>
      </trkpt>
      <trkpt lat="47.49898" lon="6.70606">
        <ele>379.5</ele>
        <time>2015-06-08T14:26:49Z</time>
      </trkpt>
      <trkpt lat="47.49898" lon="6.70597">
        <ele>379.1</ele>
        <time>2015-06-08T14:26:50Z</time>
      </trkpt>
      <trkpt lat="47.49897" lon="6.70587">
        <ele>378.9</ele>
        <time>2015-06-08T14:26:51Z</time>
      </trkpt>
      <trkpt lat="47.49897" lon="6.70578">
        <ele>378.7</ele>
        <time>2015-06-08T14:26:52Z</time>
      </trkpt>
      <trkpt lat="47.49897" lon="6.70568">
        <ele>378.9</ele>
        <time>2015-06-08T14:26:53Z</time>
      </trkpt>
      <trkpt lat="47.49897" lon="6.70558">
        <ele>379.1</ele>
        <time>2015-06-08T14:26:54Z</time>
      </trkpt>
      <trkpt lat="47.49897" lon="6.70547">
        <ele>379.4</ele>
        <time>2015-06-08T14:26:55Z</time>
      </trkpt>
      <trkpt lat="47.49897" lon="6.70537">
        <ele>379.3</ele>
        <time>2015-06-08T14:26:56Z</time>
      </trkpt>
      <trkpt lat="47.49897" lon="6.70526">
        <ele>379.3</ele>
        <time>2015-06-08T14:26:57Z</time>
      </trkpt>
      <trkpt lat="47.49897" lon="6.70517">
        <ele>378.7</ele>
        <time>2015-06-08T14:26:58Z</time>
      </trkpt>
      <trkpt lat="47.49897" lon="6.70506">
        <ele>378.7</ele>
        <time>2015-06-08T14:26:59Z</time>
      </trkpt>
      <trkpt lat="47.49898" lon="6.70496">
        <ele>378.5</ele>
        <time>2015-06-08T14:27:00Z</time>
      </trkpt>
      <trkpt lat="47.49899" lon="6.70489">
        <ele>377.7</ele>
        <time>2015-06-08T14:27:01Z</time>
      </trkpt>
      <trkpt lat="47.49901" lon="6.70481">
        <ele>377</ele>
        <time>2015-06-08T14:27:02Z</time>
      </trkpt>
      <trkpt lat="47.49905" lon="6.70475">
        <ele>376.4</ele>
        <time>2015-06-08T14:27:03Z</time>
      </trkpt>
      <trkpt lat="47.49909" lon="6.70468">
        <ele>375.9</ele>
        <time>2015-06-08T14:27:04Z</time>
      </trkpt>
      <trkpt lat="47.49913" lon="6.70462">
        <ele>375.4</ele>
        <time>2015-06-08T14:27:05Z</time>
      </trkpt>
      <trkpt lat="47.49917" lon="6.70455">
        <ele>375</ele>
        <time>2015-06-08T14:27:06Z</time>
      </trkpt>
      <trkpt lat="47.49921" lon="6.70448">
        <ele>374.5</ele>
        <time>2015-06-08T14:27:07Z</time>
      </trkpt>
      <trkpt lat="47.49925" lon="6.70442">
        <ele>374.1</ele>
        <time>2015-06-08T14:27:08Z</time>
      </trkpt>
      <trkpt lat="47.49929" lon="6.70436">
        <ele>373.9</ele>
        <time>2015-06-08T14:27:09Z</time>
      </trkpt>
      <trkpt lat="47.49933" lon="6.7043">
        <ele>373.5</ele>
        <time>2015-06-08T14:27:10Z</time>
      </trkpt>
      <trkpt lat="47.49939" lon="6.70426">
        <ele>373.3</ele>
        <time>2015-06-08T14:27:11Z</time>
      </trkpt>
      <trkpt lat="47.49944" lon="6.70421">
        <ele>373.3</ele>
        <time>2015-06-08T14:27:12Z</time>
      </trkpt>
      <trkpt lat="47.49949" lon="6.70416">
        <ele>373.4</ele>
        <time>2015-06-08T14:27:13Z</time>
      </trkpt>
      <trkpt lat="47.49954" lon="6.70412">
        <ele>373.5</ele>
        <time>2015-06-08T14:27:14Z</time>
      </trkpt>
      <trkpt lat="47.49959" lon="6.70408">
        <ele>373.2</ele>
        <time>2015-06-08T14:27:15Z</time>
      </trkpt>
      <trkpt lat="47.49964" lon="6.70403">
        <ele>373.1</ele>
        <time>2015-06-08T14:27:16Z</time>
      </trkpt>
      <trkpt lat="47.49968" lon="6.70399">
        <ele>373.3</ele>
        <time>2015-06-08T14:27:17Z</time>
      </trkpt>
      <trkpt lat="47.49972" lon="6.70394">
        <ele>373.4</ele>
        <time>2015-06-08T14:27:18Z</time>
      </trkpt>
      <trkpt lat="47.49977" lon="6.7039">
        <ele>373.2</ele>
        <time>2015-06-08T14:27:19Z</time>
      </trkpt>
      <trkpt lat="47.49981" lon="6.70385">
        <ele>373.1</ele>
        <time>2015-06-08T14:27:20Z</time>
      </trkpt>
      <trkpt lat="47.49986" lon="6.70381">
        <ele>372.8</ele>
        <time>2015-06-08T14:27:21Z</time>
      </trkpt>
      <trkpt lat="47.49991" lon="6.70376">
        <ele>372.7</ele>
        <time>2015-06-08T14:27:22Z</time>
      </trkpt>
      <trkpt lat="47.49995" lon="6.7037">
        <ele>372.5</ele>
        <time>2015-06-08T14:27:23Z</time>
      </trkpt>
      <trkpt lat="47.5" lon="6.70365">
        <ele>372.4</ele>
        <time>2015-06-08T14:27:24Z</time>
      </trkpt>
      <trkpt lat="47.50004" lon="6.70359">
        <ele>372.2</ele>
        <time>2015-06-08T14:27:25Z</time>
      </trkpt>
      <trkpt lat="47.50008" lon="6.70352">
        <ele>372.4</ele>
        <time>2015-06-08T14:27:26Z</time>
      </trkpt>
      <trkpt lat="47.50012" lon="6.70345">
        <ele>372.4</ele>
        <time>2015-06-08T14:27:26Z</time>
      </trkpt>
      <trkpt lat="47.50015" lon="6.70338">
        <ele>372.4</ele>
        <time>2015-06-08T14:27:28Z</time>
      </trkpt>
      <trkpt lat="47.50019" lon="6.7033">
        <ele>372.5</ele>
        <time>2015-06-08T14:27:29Z</time>
      </trkpt>
      <trkpt lat="47.50022" lon="6.70323">
        <ele>373.1</ele>
        <time>2015-06-08T14:27:29Z</time>
      </trkpt>
      <trkpt lat="47.50026" lon="6.70316">
        <ele>372.9</ele>
        <time>2015-06-08T14:27:31Z</time>
      </trkpt>
      <trkpt lat="47.50029" lon="6.70308">
        <ele>373.2</ele>
        <time>2015-06-08T14:27:32Z</time>
      </trkpt>
      <trkpt lat="47.50032" lon="6.70301">
        <ele>373.5</ele>
        <time>2015-06-08T14:27:33Z</time>
      </trkpt>
      <trkpt lat="47.50035" lon="6.70294">
        <ele>373.4</ele>
        <time>2015-06-08T14:27:34Z</time>
      </trkpt>
      <trkpt lat="47.50038" lon="6.70287">
        <ele>373.5</ele>
        <time>2015-06-08T14:27:35Z</time>
      </trkpt>
      <trkpt lat="47.50042" lon="6.7028">
        <ele>373.7</ele>
        <time>2015-06-08T14:27:36Z</time>
      </trkpt>
      <trkpt lat="47.50046" lon="6.70275">
        <ele>373.5</ele>
        <time>2015-06-08T14:27:37Z</time>
      </trkpt>
      <trkpt lat="47.5005" lon="6.70269">
        <ele>373.4</ele>
        <time>2015-06-08T14:27:38Z</time>
      </trkpt>
      <trkpt lat="47.50055" lon="6.70265">
        <ele>373.3</ele>
        <time>2015-06-08T14:27:39Z</time>
      </trkpt>
      <trkpt lat="47.50059" lon="6.70261">
        <ele>373.4</ele>
        <time>2015-06-08T14:27:40Z</time>
      </trkpt>
      <trkpt lat="47.50064" lon="6.70257">
        <ele>373.1</ele>
        <time>2015-06-08T14:27:41Z</time>
      </trkpt>
      <trkpt lat="47.50069" lon="6.70254">
        <ele>372.7</ele>
        <time>2015-06-08T14:27:42Z</time>
      </trkpt>
      <trkpt lat="47.50073" lon="6.70251">
        <ele>372.4</ele>
        <time>2015-06-08T14:27:43Z</time>
      </trkpt>
      <trkpt lat="47.50078" lon="6.70248">
        <ele>372.1</ele>
        <time>2015-06-08T14:27:44Z</time>
      </trkpt>
      <trkpt lat="47.50082" lon="6.70244">
        <ele>371.9</ele>
        <time>2015-06-08T14:27:45Z</time>
      </trkpt>
      <trkpt lat="47.50087" lon="6.70241">
        <ele>371.8</ele>
        <time>2015-06-08T14:27:46Z</time>
      </trkpt>
      <trkpt lat="47.50091" lon="6.70238">
        <ele>372</ele>
        <time>2015-06-08T14:27:47Z</time>
      </trkpt>
      <trkpt lat="47.50095" lon="6.70235">
        <ele>372.2</ele>
        <time>2015-06-08T14:27:48Z</time>
      </trkpt>
      <trkpt lat="47.50099" lon="6.70231">
        <ele>372.2</ele>
        <time>2015-06-08T14:27:49Z</time>
      </trkpt>
      <trkpt lat="47.50103" lon="6.70228">
        <ele>372.3</ele>
        <time>2015-06-08T14:27:50Z</time>
      </trkpt>
      <trkpt lat="47.50106" lon="6.70224">
        <ele>372.4</ele>
        <time>2015-06-08T14:27:51Z</time>
      </trkpt>
      <trkpt lat="47.5011" lon="6.7022">
        <ele>372.6</ele>
        <time>2015-06-08T14:27:52Z</time>
      </trkpt>
      <trkpt lat="47.50113" lon="6.70216">
        <ele>372.7</ele>
        <time>2015-06-08T14:27:53Z</time>
      </trkpt>
      <trkpt lat="47.50116" lon="6.70212">
        <ele>372.5</ele>
        <time>2015-06-08T14:27:54Z</time>
      </trkpt>
      <trkpt lat="47.50119" lon="6.70207">
        <ele>372.8</ele>
        <time>2015-06-08T14:27:55Z</time>
      </trkpt>
      <trkpt lat="47.50122" lon="6.70203">
        <ele>373.1</ele>
        <time>2015-06-08T14:27:56Z</time>
      </trkpt>
      <trkpt lat="47.50124" lon="6.70199">
        <ele>373.3</ele>
        <time>2015-06-08T14:27:57Z</time>
      </trkpt>
      <trkpt lat="47.50127" lon="6.70194">
        <ele>373.7</ele>
        <time>2015-06-08T14:27:58Z</time>
      </trkpt>
      <trkpt lat="47.50129" lon="6.7019">
        <ele>373.9</ele>
        <time>2015-06-08T14:27:59Z</time>
      </trkpt>
      <trkpt lat="47.50131" lon="6.70185">
        <ele>374.3</ele>
        <time>2015-06-08T14:28:00Z</time>
      </trkpt>
      <trkpt lat="47.50134" lon="6.70181">
        <ele>374.6</ele>
        <time>2015-06-08T14:28:01Z</time>
      </trkpt>
      <trkpt lat="47.50137" lon="6.70177">
        <ele>375.2</ele>
        <time>2015-06-08T14:28:02Z</time>
      </trkpt>
      <trkpt lat="47.5014" lon="6.70173">
        <ele>375.2</ele>
        <time>2015-06-08T14:28:03Z</time>
      </trkpt>
      <trkpt lat="47.50142" lon="6.7017">
        <ele>375.3</ele>
        <time>2015-06-08T14:28:04Z</time>
      </trkpt>
      <trkpt lat="47.50145" lon="6.70166">
        <ele>375.4</ele>
        <time>2015-06-08T14:28:05Z</time>
      </trkpt>
      <trkpt lat="47.50147" lon="6.70162">
        <ele>375.7</ele>
        <time>2015-06-08T14:28:05Z</time>
      </trkpt>
      <trkpt lat="47.50149" lon="6.70158">
        <ele>375.9</ele>
        <time>2015-06-08T14:28:07Z</time>
      </trkpt>
      <trkpt lat="47.50151" lon="6.70154">
        <ele>376.2</ele>
        <time>2015-06-08T14:28:08Z</time>
      </trkpt>
      <trkpt lat="47.50153" lon="6.7015">
        <ele>376.5</ele>
        <time>2015-06-08T14:28:08Z</time>
      </trkpt>
      <trkpt lat="47.50155" lon="6.70147">
        <ele>375.9</ele>
        <time>2015-06-08T14:28:10Z</time>
      </trkpt>
      <trkpt lat="47.50157" lon="6.70143">
        <ele>375.9</ele>
        <time>2015-06-08T14:28:11Z</time>
      </trkpt>
      <trkpt lat="47.50159" lon="6.70139">
        <ele>376</ele>
        <time>2015-06-08T14:28:11Z</time>
      </trkpt>
      <trkpt lat="47.50161" lon="6.70136">
        <ele>375.9</ele>
        <time>2015-06-08T14:28:12Z</time>
      </trkpt>
      <trkpt lat="47.50164" lon="6.70132">
        <ele>375.8</ele>
        <time>2015-06-08T14:28:14Z</time>
      </trkpt>
      <trkpt lat="47.50168" lon="6.70128">
        <ele>375.7</ele>
        <time>2015-06-08T14:28:15Z</time>
      </trkpt>
      <trkpt lat="47.50171" lon="6.70124">
        <ele>375.7</ele>
        <time>2015-06-08T14:28:15Z</time>
      </trkpt>
      <trkpt lat="47.50175" lon="6.70121">
        <ele>375.4</ele>
        <time>2015-06-08T14:28:17Z</time>
      </trkpt>
      <trkpt lat="47.50179" lon="6.70117">
        <ele>375.3</ele>
        <time>2015-06-08T14:28:17Z</time>
      </trkpt>
      <trkpt lat="47.50182" lon="6.70113">
        <ele>375.4</ele>
        <time>2015-06-08T14:28:19Z</time>
      </trkpt>
      <trkpt lat="47.50184" lon="6.70109">
        <ele>376.2</ele>
        <time>2015-06-08T14:28:20Z</time>
      </trkpt>
      <trkpt lat="47.50187" lon="6.70105">
        <ele>376.5</ele>
        <time>2015-06-08T14:28:21Z</time>
      </trkpt>
      <trkpt lat="47.50189" lon="6.70101">
        <ele>376.9</ele>
        <time>2015-06-08T14:28:22Z</time>
      </trkpt>
      <trkpt lat="47.50194" lon="6.70098">
        <ele>377.6</ele>
        <time>2015-06-08T14:28:23Z</time>
      </trkpt>
      <trkpt lat="47.50196" lon="6.70093">
        <ele>377.9</ele>
        <time>2015-06-08T14:28:24Z</time>
      </trkpt>
      <trkpt lat="47.50199" lon="6.70089">
        <ele>378.5</ele>
        <time>2015-06-08T14:28:25Z</time>
      </trkpt>
      <trkpt lat="47.50202" lon="6.70084">
        <ele>379.3</ele>
        <time>2015-06-08T14:28:26Z</time>
      </trkpt>
      <trkpt lat="47.50205" lon="6.7008">
        <ele>380.1</ele>
        <time>2015-06-08T14:28:27Z</time>
      </trkpt>
      <trkpt lat="47.50208" lon="6.70076">
        <ele>380.8</ele>
        <time>2015-06-08T14:28:28Z</time>
      </trkpt>
      <trkpt lat="47.50212" lon="6.70072">
        <ele>381.1</ele>
        <time>2015-06-08T14:28:29Z</time>
      </trkpt>
      <trkpt lat="47.50215" lon="6.70068">
        <ele>380.5</ele>
        <time>2015-06-08T14:28:30Z</time>
      </trkpt>
      <trkpt lat="47.50219" lon="6.70065">
        <ele>380.6</ele>
        <time>2015-06-08T14:28:31Z</time>
      </trkpt>
      <trkpt lat="47.50223" lon="6.70061">
        <ele>381</ele>
        <time>2015-06-08T14:28:32Z</time>
      </trkpt>
      <trkpt lat="47.50229" lon="6.70057">
        <ele>381.4</ele>
        <time>2015-06-08T14:28:33Z</time>
      </trkpt>
      <trkpt lat="47.50234" lon="6.70054">
        <ele>381.8</ele>
        <time>2015-06-08T14:28:34Z</time>
      </trkpt>
      <trkpt lat="47.50238" lon="6.70051">
        <ele>382</ele>
        <time>2015-06-08T14:28:35Z</time>
      </trkpt>
      <trkpt lat="47.50243" lon="6.70047">
        <ele>382.1</ele>
        <time>2015-06-08T14:28:36Z</time>
      </trkpt>
      <trkpt lat="47.50247" lon="6.70044">
        <ele>382.1</ele>
        <time>2015-06-08T14:28:36Z</time>
      </trkpt>
      <trkpt lat="47.50252" lon="6.70041">
        <ele>381.9</ele>
        <time>2015-06-08T14:28:38Z</time>
      </trkpt>
      <trkpt lat="47.50256" lon="6.70038">
        <ele>381.9</ele>
        <time>2015-06-08T14:28:39Z</time>
      </trkpt>
      <trkpt lat="47.5026" lon="6.70036">
        <ele>381.3</ele>
        <time>2015-06-08T14:28:40Z</time>
      </trkpt>
      <trkpt lat="47.50264" lon="6.70034">
        <ele>380.9</ele>
        <time>2015-06-08T14:28:41Z</time>
      </trkpt>
      <trkpt lat="47.50267" lon="6.70032">
        <ele>381.4</ele>
        <time>2015-06-08T14:28:42Z</time>
      </trkpt>
      <trkpt lat="47.50271" lon="6.7003">
        <ele>381.6</ele>
        <time>2015-06-08T14:28:43Z</time>
      </trkpt>
      <trkpt lat="47.50274" lon="6.70028">
        <ele>381.9</ele>
        <time>2015-06-08T14:28:43Z</time>
      </trkpt>
      <trkpt lat="47.50277" lon="6.70026">
        <ele>382.1</ele>
        <time>2015-06-08T14:28:45Z</time>
      </trkpt>
      <trkpt lat="47.50281" lon="6.70024">
        <ele>382.1</ele>
        <time>2015-06-08T14:28:46Z</time>
      </trkpt>
      <trkpt lat="47.50284" lon="6.70023">
        <ele>381.8</ele>
        <time>2015-06-08T14:28:47Z</time>
      </trkpt>
      <trkpt lat="47.50287" lon="6.70022">
        <ele>381.8</ele>
        <time>2015-06-08T14:28:48Z</time>
      </trkpt>
      <trkpt lat="47.50291" lon="6.7002">
        <ele>382.1</ele>
        <time>2015-06-08T14:28:49Z</time>
      </trkpt>
      <trkpt lat="47.50295" lon="6.70019">
        <ele>382.4</ele>
        <time>2015-06-08T14:28:50Z</time>
      </trkpt>
      <trkpt lat="47.50299" lon="6.70019">
        <ele>382.7</ele>
        <time>2015-06-08T14:28:51Z</time>
      </trkpt>
      <trkpt lat="47.50303" lon="6.70018">
        <ele>382.3</ele>
        <time>2015-06-08T14:28:52Z</time>
      </trkpt>
      <trkpt lat="47.50307" lon="6.70018">
        <ele>382.3</ele>
        <time>2015-06-08T14:28:53Z</time>
      </trkpt>
      <trkpt lat="47.50311" lon="6.70017">
        <ele>382.7</ele>
        <time>2015-06-08T14:28:54Z</time>
      </trkpt>
      <trkpt lat="47.50316" lon="6.70016">
        <ele>382.3</ele>
        <time>2015-06-08T14:28:55Z</time>
      </trkpt>
      <trkpt lat="47.5032" lon="6.70016">
        <ele>382.2</ele>
        <time>2015-06-08T14:28:56Z</time>
      </trkpt>
      <trkpt lat="47.50323" lon="6.70015">
        <ele>382.3</ele>
        <time>2015-06-08T14:28:57Z</time>
      </trkpt>
      <trkpt lat="47.50328" lon="6.70014">
        <ele>382.7</ele>
        <time>2015-06-08T14:28:58Z</time>
      </trkpt>
      <trkpt lat="47.50331" lon="6.70012">
        <ele>383</ele>
        <time>2015-06-08T14:28:59Z</time>
      </trkpt>
      <trkpt lat="47.50335" lon="6.70011">
        <ele>383.1</ele>
        <time>2015-06-08T14:29:00Z</time>
      </trkpt>
      <trkpt lat="47.50339" lon="6.70009">
        <ele>383.1</ele>
        <time>2015-06-08T14:29:01Z</time>
      </trkpt>
      <trkpt lat="47.50343" lon="6.70008">
        <ele>383.2</ele>
        <time>2015-06-08T14:29:02Z</time>
      </trkpt>
      <trkpt lat="47.50347" lon="6.70006">
        <ele>383.6</ele>
        <time>2015-06-08T14:29:03Z</time>
      </trkpt>
      <trkpt lat="47.50351" lon="6.70003">
        <ele>383.7</ele>
        <time>2015-06-08T14:29:04Z</time>
      </trkpt>
      <trkpt lat="47.50355" lon="6.70001">
        <ele>383.7</ele>
        <time>2015-06-08T14:29:05Z</time>
      </trkpt>
      <trkpt lat="47.5036" lon="6.69998">
        <ele>383.7</ele>
        <time>2015-06-08T14:29:06Z</time>
      </trkpt>
      <trkpt lat="47.50364" lon="6.69997">
        <ele>383.1</ele>
        <time>2015-06-08T14:29:07Z</time>
      </trkpt>
      <trkpt lat="47.5037" lon="6.69995">
        <ele>382.9</ele>
        <time>2015-06-08T14:29:08Z</time>
      </trkpt>
      <trkpt lat="47.50376" lon="6.69993">
        <ele>383.1</ele>
        <time>2015-06-08T14:29:09Z</time>
      </trkpt>
      <trkpt lat="47.50382" lon="6.69991">
        <ele>383.1</ele>
        <time>2015-06-08T14:29:10Z</time>
      </trkpt>
      <trkpt lat="47.50389" lon="6.69989">
        <ele>383</ele>
        <time>2015-06-08T14:29:11Z</time>
      </trkpt>
      <trkpt lat="47.50394" lon="6.69988">
        <ele>382.7</ele>
        <time>2015-06-08T14:29:12Z</time>
      </trkpt>
      <trkpt lat="47.504" lon="6.69986">
        <ele>382.8</ele>
        <time>2015-06-08T14:29:13Z</time>
      </trkpt>
      <trkpt lat="47.50406" lon="6.69984">
        <ele>382.6</ele>
        <time>2015-06-08T14:29:14Z</time>
      </trkpt>
      <trkpt lat="47.5041" lon="6.69981">
        <ele>382.5</ele>
        <time>2015-06-08T14:29:15Z</time>
      </trkpt>
      <trkpt lat="47.50416" lon="6.6998">
        <ele>382.3</ele>
        <time>2015-06-08T14:29:16Z</time>
      </trkpt>
      <trkpt lat="47.50422" lon="6.69978">
        <ele>381.9</ele>
        <time>2015-06-08T14:29:17Z</time>
      </trkpt>
      <trkpt lat="47.50427" lon="6.69975">
        <ele>381.8</ele>
        <time>2015-06-08T14:29:18Z</time>
      </trkpt>
      <trkpt lat="47.50433" lon="6.69973">
        <ele>381.8</ele>
        <time>2015-06-08T14:29:19Z</time>
      </trkpt>
      <trkpt lat="47.50438" lon="6.6997">
        <ele>381.8</ele>
        <time>2015-06-08T14:29:20Z</time>
      </trkpt>
      <trkpt lat="47.50444" lon="6.69968">
        <ele>381.8</ele>
        <time>2015-06-08T14:29:21Z</time>
      </trkpt>
      <trkpt lat="47.5045" lon="6.69966">
        <ele>381.9</ele>
        <time>2015-06-08T14:29:22Z</time>
      </trkpt>
      <trkpt lat="47.50456" lon="6.69965">
        <ele>381.6</ele>
        <time>2015-06-08T14:29:23Z</time>
      </trkpt>
      <trkpt lat="47.50461" lon="6.69962">
        <ele>381.8</ele>
        <time>2015-06-08T14:29:24Z</time>
      </trkpt>
      <trkpt lat="47.50467" lon="6.6996">
        <ele>381.5</ele>
        <time>2015-06-08T14:29:25Z</time>
      </trkpt>
      <trkpt lat="47.50472" lon="6.69957">
        <ele>381.3</ele>
        <time>2015-06-08T14:29:26Z</time>
      </trkpt>
      <trkpt lat="47.50478" lon="6.69955">
        <ele>381.3</ele>
        <time>2015-06-08T14:29:27Z</time>
      </trkpt>
      <trkpt lat="47.50483" lon="6.69953">
        <ele>381.5</ele>
        <time>2015-06-08T14:29:28Z</time>
      </trkpt>
      <trkpt lat="47.50488" lon="6.6995">
        <ele>381.2</ele>
        <time>2015-06-08T14:29:29Z</time>
      </trkpt>
      <trkpt lat="47.50493" lon="6.69946">
        <ele>381.2</ele>
        <time>2015-06-08T14:29:30Z</time>
      </trkpt>
      <trkpt lat="47.50499" lon="6.69942">
        <ele>381</ele>
        <time>2015-06-08T14:29:31Z</time>
      </trkpt>
      <trkpt lat="47.50504" lon="6.69937">
        <ele>380.9</ele>
        <time>2015-06-08T14:29:32Z</time>
      </trkpt>
      <trkpt lat="47.5051" lon="6.69932">
        <ele>380.8</ele>
        <time>2015-06-08T14:29:33Z</time>
      </trkpt>
      <trkpt lat="47.50516" lon="6.69928">
        <ele>381.2</ele>
        <time>2015-06-08T14:29:34Z</time>
      </trkpt>
      <trkpt lat="47.50523" lon="6.69921">
        <ele>381.5</ele>
        <time>2015-06-08T14:29:35Z</time>
      </trkpt>
      <trkpt lat="47.50529" lon="6.69915">
        <ele>381.7</ele>
        <time>2015-06-08T14:29:36Z</time>
      </trkpt>
      <trkpt lat="47.50535" lon="6.69908">
        <ele>381.9</ele>
        <time>2015-06-08T14:29:37Z</time>
      </trkpt>
      <trkpt lat="47.50541" lon="6.69903">
        <ele>382</ele>
        <time>2015-06-08T14:29:38Z</time>
      </trkpt>
      <trkpt lat="47.50546" lon="6.69897">
        <ele>382</ele>
        <time>2015-06-08T14:29:39Z</time>
      </trkpt>
      <trkpt lat="47.50551" lon="6.69891">
        <ele>382.2</ele>
        <time>2015-06-08T14:29:40Z</time>
      </trkpt>
      <trkpt lat="47.50556" lon="6.69886">
        <ele>382.4</ele>
        <time>2015-06-08T14:29:41Z</time>
      </trkpt>
      <trkpt lat="47.50562" lon="6.6988">
        <ele>382.6</ele>
        <time>2015-06-08T14:29:42Z</time>
      </trkpt>
      <trkpt lat="47.50567" lon="6.69875">
        <ele>382.9</ele>
        <time>2015-06-08T14:29:43Z</time>
      </trkpt>
      <trkpt lat="47.50572" lon="6.6987">
        <ele>383.2</ele>
        <time>2015-06-08T14:29:44Z</time>
      </trkpt>
      <trkpt lat="47.50577" lon="6.69866">
        <ele>383.4</ele>
        <time>2015-06-08T14:29:45Z</time>
      </trkpt>
      <trkpt lat="47.50582" lon="6.69862">
        <ele>383.6</ele>
        <time>2015-06-08T14:29:46Z</time>
      </trkpt>
      <trkpt lat="47.50588" lon="6.69857">
        <ele>383.6</ele>
        <time>2015-06-08T14:29:47Z</time>
      </trkpt>
      <trkpt lat="47.50593" lon="6.69852">
        <ele>383.2</ele>
        <time>2015-06-08T14:29:48Z</time>
      </trkpt>
      <trkpt lat="47.50598" lon="6.69847">
        <ele>383.2</ele>
        <time>2015-06-08T14:29:49Z</time>
      </trkpt>
      <trkpt lat="47.50602" lon="6.69842">
        <ele>382.7</ele>
        <time>2015-06-08T14:29:50Z</time>
      </trkpt>
      <trkpt lat="47.50607" lon="6.69838">
        <ele>382.5</ele>
        <time>2015-06-08T14:29:51Z</time>
      </trkpt>
      <trkpt lat="47.50612" lon="6.69833">
        <ele>382.5</ele>
        <time>2015-06-08T14:29:52Z</time>
      </trkpt>
      <trkpt lat="47.50616" lon="6.69828">
        <ele>382.3</ele>
        <time>2015-06-08T14:29:53Z</time>
      </trkpt>
      <trkpt lat="47.50621" lon="6.69823">
        <ele>382.2</ele>
        <time>2015-06-08T14:29:54Z</time>
      </trkpt>
      <trkpt lat="47.50626" lon="6.69819">
        <ele>382.2</ele>
        <time>2015-06-08T14:29:55Z</time>
      </trkpt>
      <trkpt lat="47.5063" lon="6.69815">
        <ele>382.1</ele>
        <time>2015-06-08T14:29:56Z</time>
      </trkpt>
      <trkpt lat="47.50635" lon="6.69811">
        <ele>381.9</ele>
        <time>2015-06-08T14:29:57Z</time>
      </trkpt>
      <trkpt lat="47.5064" lon="6.69808">
        <ele>381.4</ele>
        <time>2015-06-08T14:29:58Z</time>
      </trkpt>
      <trkpt lat="47.50644" lon="6.69805">
        <ele>381.3</ele>
        <time>2015-06-08T14:29:59Z</time>
      </trkpt>
      <trkpt lat="47.50649" lon="6.69801">
        <ele>381.2</ele>
        <time>2015-06-08T14:30:00Z</time>
      </trkpt>
      <trkpt lat="47.50653" lon="6.69797">
        <ele>381.4</ele>
        <time>2015-06-08T14:30:01Z</time>
      </trkpt>
      <trkpt lat="47.50658" lon="6.69793">
        <ele>381.4</ele>
        <time>2015-06-08T14:30:02Z</time>
      </trkpt>
      <trkpt lat="47.50662" lon="6.69788">
        <ele>381.2</ele>
        <time>2015-06-08T14:30:03Z</time>
      </trkpt>
      <trkpt lat="47.50666" lon="6.69784">
        <ele>380.7</ele>
        <time>2015-06-08T14:30:04Z</time>
      </trkpt>
      <trkpt lat="47.50671" lon="6.6978">
        <ele>380.3</ele>
        <time>2015-06-08T14:30:05Z</time>
      </trkpt>
      <trkpt lat="47.50676" lon="6.69775">
        <ele>379.8</ele>
        <time>2015-06-08T14:30:06Z</time>
      </trkpt>
      <trkpt lat="47.50681" lon="6.69771">
        <ele>379.3</ele>
        <time>2015-06-08T14:30:07Z</time>
      </trkpt>
      <trkpt lat="47.50687" lon="6.69767">
        <ele>378.9</ele>
        <time>2015-06-08T14:30:08Z</time>
      </trkpt>
      <trkpt lat="47.50692" lon="6.69761">
        <ele>378.6</ele>
        <time>2015-06-08T14:30:09Z</time>
      </trkpt>
      <trkpt lat="47.50698" lon="6.69756">
        <ele>378.2</ele>
        <time>2015-06-08T14:30:10Z</time>
      </trkpt>
      <trkpt lat="47.50704" lon="6.69749">
        <ele>377.7</ele>
        <time>2015-06-08T14:30:11Z</time>
      </trkpt>
      <trkpt lat="47.5071" lon="6.69743">
        <ele>376.9</ele>
        <time>2015-06-08T14:30:12Z</time>
      </trkpt>
      <trkpt lat="47.50716" lon="6.69737">
        <ele>376.3</ele>
        <time>2015-06-08T14:30:13Z</time>
      </trkpt>
      <trkpt lat="47.50721" lon="6.69732">
        <ele>375.7</ele>
        <time>2015-06-08T14:30:14Z</time>
      </trkpt>
      <trkpt lat="47.50726" lon="6.69728">
        <ele>375.3</ele>
        <time>2015-06-08T14:30:15Z</time>
      </trkpt>
      <trkpt lat="47.5073" lon="6.69723">
        <ele>374.7</ele>
        <time>2015-06-08T14:30:16Z</time>
      </trkpt>
      <trkpt lat="47.50735" lon="6.69718">
        <ele>374.2</ele>
        <time>2015-06-08T14:30:17Z</time>
      </trkpt>
      <trkpt lat="47.50739" lon="6.69714">
        <ele>373.7</ele>
        <time>2015-06-08T14:30:18Z</time>
      </trkpt>
      <trkpt lat="47.50741" lon="6.6971">
        <ele>373.8</ele>
        <time>2015-06-08T14:30:19Z</time>
      </trkpt>
      <trkpt lat="47.50744" lon="6.69705">
        <ele>374</ele>
        <time>2015-06-08T14:30:20Z</time>
      </trkpt>
      <trkpt lat="47.50748" lon="6.69702">
        <ele>373.9</ele>
        <time>2015-06-08T14:30:21Z</time>
      </trkpt>
      <trkpt lat="47.50751" lon="6.69698">
        <ele>373.7</ele>
        <time>2015-06-08T14:30:22Z</time>
      </trkpt>
      <trkpt lat="47.50753" lon="6.69696">
        <ele>373.1</ele>
        <time>2015-06-08T14:30:23Z</time>
      </trkpt>
      <trkpt lat="47.50756" lon="6.69694">
        <ele>372.9</ele>
        <time>2015-06-08T14:30:24Z</time>
      </trkpt>
      <trkpt lat="47.50759" lon="6.69691">
        <ele>373.1</ele>
        <time>2015-06-08T14:30:25Z</time>
      </trkpt>
      <trkpt lat="47.50762" lon="6.69687">
        <ele>372.9</ele>
        <time>2015-06-08T14:30:26Z</time>
      </trkpt>
      <trkpt lat="47.50765" lon="6.69682">
        <ele>372.7</ele>
        <time>2015-06-08T14:30:27Z</time>
      </trkpt>
      <trkpt lat="47.50768" lon="6.69676">
        <ele>372.2</ele>
        <time>2015-06-08T14:30:28Z</time>
      </trkpt>
      <trkpt lat="47.50771" lon="6.69669">
        <ele>371.6</ele>
        <time>2015-06-08T14:30:29Z</time>
      </trkpt>
      <trkpt lat="47.50774" lon="6.69662">
        <ele>371</ele>
        <time>2015-06-08T14:30:30Z</time>
      </trkpt>
      <trkpt lat="47.50777" lon="6.69655">
        <ele>370.9</ele>
        <time>2015-06-08T14:30:31Z</time>
      </trkpt>
      <trkpt lat="47.50781" lon="6.69649">
        <ele>371.1</ele>
        <time>2015-06-08T14:30:32Z</time>
      </trkpt>
      <trkpt lat="47.50784" lon="6.69643">
        <ele>370.8</ele>
        <time>2015-06-08T14:30:33Z</time>
      </trkpt>
      <trkpt lat="47.50789" lon="6.69636">
        <ele>370.7</ele>
        <time>2015-06-08T14:30:34Z</time>
      </trkpt>
      <trkpt lat="47.50794" lon="6.69631">
        <ele>371.2</ele>
        <time>2015-06-08T14:30:35Z</time>
      </trkpt>
      <trkpt lat="47.50799" lon="6.69625">
        <ele>371.3</ele>
        <time>2015-06-08T14:30:36Z</time>
      </trkpt>
      <trkpt lat="47.50807" lon="6.6962">
        <ele>371.6</ele>
        <time>2015-06-08T14:30:37Z</time>
      </trkpt>
      <trkpt lat="47.50813" lon="6.69614">
        <ele>371.5</ele>
        <time>2015-06-08T14:30:38Z</time>
      </trkpt>
      <trkpt lat="47.50818" lon="6.69609">
        <ele>371.3</ele>
        <time>2015-06-08T14:30:39Z</time>
      </trkpt>
      <trkpt lat="47.50823" lon="6.69605">
        <ele>371.2</ele>
        <time>2015-06-08T14:30:40Z</time>
      </trkpt>
      <trkpt lat="47.50828" lon="6.696">
        <ele>371.2</ele>
        <time>2015-06-08T14:30:41Z</time>
      </trkpt>
      <trkpt lat="47.50832" lon="6.69595">
        <ele>371.6</ele>
        <time>2015-06-08T14:30:42Z</time>
      </trkpt>
      <trkpt lat="47.50836" lon="6.69591">
        <ele>371.8</ele>
        <time>2015-06-08T14:30:43Z</time>
      </trkpt>
      <trkpt lat="47.5084" lon="6.69586">
        <ele>372.3</ele>
        <time>2015-06-08T14:30:44Z</time>
      </trkpt>
      <trkpt lat="47.50844" lon="6.6958">
        <ele>372.4</ele>
        <time>2015-06-08T14:30:45Z</time>
      </trkpt>
      <trkpt lat="47.50848" lon="6.69576">
        <ele>372.5</ele>
        <time>2015-06-08T14:30:46Z</time>
      </trkpt>
      <trkpt lat="47.50853" lon="6.69571">
        <ele>372.5</ele>
        <time>2015-06-08T14:30:47Z</time>
      </trkpt>
      <trkpt lat="47.50857" lon="6.69566">
        <ele>372.4</ele>
        <time>2015-06-08T14:30:48Z</time>
      </trkpt>
      <trkpt lat="47.5086" lon="6.69561">
        <ele>372.6</ele>
        <time>2015-06-08T14:30:49Z</time>
      </trkpt>
      <trkpt lat="47.50864" lon="6.69556">
        <ele>372.7</ele>
        <time>2015-06-08T14:30:50Z</time>
      </trkpt>
      <trkpt lat="47.50867" lon="6.69551">
        <ele>372.9</ele>
        <time>2015-06-08T14:30:51Z</time>
      </trkpt>
      <trkpt lat="47.50871" lon="6.69546">
        <ele>373.2</ele>
        <time>2015-06-08T14:30:52Z</time>
      </trkpt>
      <trkpt lat="47.50874" lon="6.69541">
        <ele>373.6</ele>
        <time>2015-06-08T14:30:53Z</time>
      </trkpt>
      <trkpt lat="47.50877" lon="6.69536">
        <ele>374</ele>
        <time>2015-06-08T14:30:54Z</time>
      </trkpt>
      <trkpt lat="47.5088" lon="6.69531">
        <ele>374.3</ele>
        <time>2015-06-08T14:30:55Z</time>
      </trkpt>
      <trkpt lat="47.50883" lon="6.69526">
        <ele>374.7</ele>
        <time>2015-06-08T14:30:56Z</time>
      </trkpt>
      <trkpt lat="47.50885" lon="6.69519">
        <ele>375</ele>
        <time>2015-06-08T14:30:57Z</time>
      </trkpt>
      <trkpt lat="47.50887" lon="6.69513">
        <ele>375.3</ele>
        <time>2015-06-08T14:30:58Z</time>
      </trkpt>
      <trkpt lat="47.50888" lon="6.69506">
        <ele>375.5</ele>
        <time>2015-06-08T14:30:59Z</time>
      </trkpt>
      <trkpt lat="47.50889" lon="6.695">
        <ele>375.4</ele>
        <time>2015-06-08T14:31:00Z</time>
      </trkpt>
      <trkpt lat="47.5089" lon="6.69493">
        <ele>375.5</ele>
        <time>2015-06-08T14:31:01Z</time>
      </trkpt>
      <trkpt lat="47.50891" lon="6.69487">
        <ele>375.3</ele>
        <time>2015-06-08T14:31:02Z</time>
      </trkpt>
      <trkpt lat="47.50893" lon="6.6948">
        <ele>375.2</ele>
        <time>2015-06-08T14:31:03Z</time>
      </trkpt>
      <trkpt lat="47.50893" lon="6.69474">
        <ele>375.6</ele>
        <time>2015-06-08T14:31:04Z</time>
      </trkpt>
      <trkpt lat="47.50894" lon="6.69467">
        <ele>375.6</ele>
        <time>2015-06-08T14:31:05Z</time>
      </trkpt>
      <trkpt lat="47.50895" lon="6.6946">
        <ele>375.5</ele>
        <time>2015-06-08T14:31:06Z</time>
      </trkpt>
      <trkpt lat="47.50895" lon="6.69453">
        <ele>375.6</ele>
        <time>2015-06-08T14:31:07Z</time>
      </trkpt>
      <trkpt lat="47.50893" lon="6.69445">
        <ele>375.6</ele>
        <time>2015-06-08T14:31:08Z</time>
      </trkpt>
      <trkpt lat="47.50891" lon="6.69436">
        <ele>375.5</ele>
        <time>2015-06-08T14:31:09Z</time>
      </trkpt>
      <trkpt lat="47.50891" lon="6.69429">
        <ele>374.6</ele>
        <time>2015-06-08T14:31:10Z</time>
      </trkpt>
      <trkpt lat="47.50891" lon="6.69421">
        <ele>374.4</ele>
        <time>2015-06-08T14:31:11Z</time>
      </trkpt>
      <trkpt lat="47.50891" lon="6.69414">
        <ele>373.9</ele>
        <time>2015-06-08T14:31:12Z</time>
      </trkpt>
      <trkpt lat="47.50894" lon="6.69409">
        <ele>373.7</ele>
        <time>2015-06-08T14:31:13Z</time>
      </trkpt>
      <trkpt lat="47.50894" lon="6.69402">
        <ele>373.5</ele>
        <time>2015-06-08T14:31:14Z</time>
      </trkpt>
      <trkpt lat="47.50895" lon="6.69396">
        <ele>373.4</ele>
        <time>2015-06-08T14:31:15Z</time>
      </trkpt>
      <trkpt lat="47.50895" lon="6.69389">
        <ele>373.4</ele>
        <time>2015-06-08T14:31:16Z</time>
      </trkpt>
      <trkpt lat="47.50896" lon="6.69382">
        <ele>373.5</ele>
        <time>2015-06-08T14:31:17Z</time>
      </trkpt>
      <trkpt lat="47.50897" lon="6.69375">
        <ele>373.6</ele>
        <time>2015-06-08T14:31:18Z</time>
      </trkpt>
      <trkpt lat="47.50899" lon="6.69369">
        <ele>373.6</ele>
        <time>2015-06-08T14:31:19Z</time>
      </trkpt>
      <trkpt lat="47.509" lon="6.69362">
        <ele>373.6</ele>
        <time>2015-06-08T14:31:20Z</time>
      </trkpt>
      <trkpt lat="47.50903" lon="6.69355">
        <ele>373.6</ele>
        <time>2015-06-08T14:31:21Z</time>
      </trkpt>
      <trkpt lat="47.50905" lon="6.69348">
        <ele>373.5</ele>
        <time>2015-06-08T14:31:22Z</time>
      </trkpt>
      <trkpt lat="47.50908" lon="6.69341">
        <ele>373.7</ele>
        <time>2015-06-08T14:31:23Z</time>
      </trkpt>
      <trkpt lat="47.50912" lon="6.69335">
        <ele>373.2</ele>
        <time>2015-06-08T14:31:24Z</time>
      </trkpt>
      <trkpt lat="47.50915" lon="6.69327">
        <ele>373</ele>
        <time>2015-06-08T14:31:25Z</time>
      </trkpt>
      <trkpt lat="47.50919" lon="6.6932">
        <ele>373.2</ele>
        <time>2015-06-08T14:31:26Z</time>
      </trkpt>
      <trkpt lat="47.50923" lon="6.69311">
        <ele>373.5</ele>
        <time>2015-06-08T14:31:27Z</time>
      </trkpt>
      <trkpt lat="47.50927" lon="6.69304">
        <ele>373.9</ele>
        <time>2015-06-08T14:31:28Z</time>
      </trkpt>
      <trkpt lat="47.50932" lon="6.69296">
        <ele>374.2</ele>
        <time>2015-06-08T14:31:29Z</time>
      </trkpt>
      <trkpt lat="47.50936" lon="6.69287">
        <ele>374</ele>
        <time>2015-06-08T14:31:30Z</time>
      </trkpt>
      <trkpt lat="47.50941" lon="6.69279">
        <ele>374</ele>
        <time>2015-06-08T14:31:31Z</time>
      </trkpt>
      <trkpt lat="47.50945" lon="6.6927">
        <ele>373.7</ele>
        <time>2015-06-08T14:31:32Z</time>
      </trkpt>
      <trkpt lat="47.5095" lon="6.69262">
        <ele>373.6</ele>
        <time>2015-06-08T14:31:33Z</time>
      </trkpt>
      <trkpt lat="47.50955" lon="6.69253">
        <ele>373.4</ele>
        <time>2015-06-08T14:31:34Z</time>
      </trkpt>
      <trkpt lat="47.5096" lon="6.69244">
        <ele>373.1</ele>
        <time>2015-06-08T14:31:35Z</time>
      </trkpt>
      <trkpt lat="47.50966" lon="6.69236">
        <ele>373.1</ele>
        <time>2015-06-08T14:31:36Z</time>
      </trkpt>
      <trkpt lat="47.50971" lon="6.69226">
        <ele>372.9</ele>
        <time>2015-06-08T14:31:37Z</time>
      </trkpt>
      <trkpt lat="47.50976" lon="6.69216">
        <ele>372.6</ele>
        <time>2015-06-08T14:31:38Z</time>
      </trkpt>
      <trkpt lat="47.50981" lon="6.69206">
        <ele>372.6</ele>
        <time>2015-06-08T14:31:39Z</time>
      </trkpt>
      <trkpt lat="47.50985" lon="6.69195">
        <ele>372.4</ele>
        <time>2015-06-08T14:31:40Z</time>
      </trkpt>
      <trkpt lat="47.50989" lon="6.69184">
        <ele>372.2</ele>
        <time>2015-06-08T14:31:41Z</time>
      </trkpt>
      <trkpt lat="47.50993" lon="6.69173">
        <ele>372.2</ele>
        <time>2015-06-08T14:31:42Z</time>
      </trkpt>
      <trkpt lat="47.50997" lon="6.69162">
        <ele>372</ele>
        <time>2015-06-08T14:31:43Z</time>
      </trkpt>
      <trkpt lat="47.51001" lon="6.69151">
        <ele>371.7</ele>
        <time>2015-06-08T14:31:44Z</time>
      </trkpt>
      <trkpt lat="47.51004" lon="6.6914">
        <ele>371.4</ele>
        <time>2015-06-08T14:31:45Z</time>
      </trkpt>
      <trkpt lat="47.51007" lon="6.69129">
        <ele>371.1</ele>
        <time>2015-06-08T14:31:46Z</time>
      </trkpt>
      <trkpt lat="47.5101" lon="6.69118">
        <ele>371</ele>
        <time>2015-06-08T14:31:47Z</time>
      </trkpt>
      <trkpt lat="47.51012" lon="6.69106">
        <ele>370.8</ele>
        <time>2015-06-08T14:31:48Z</time>
      </trkpt>
      <trkpt lat="47.51015" lon="6.69096">
        <ele>370.5</ele>
        <time>2015-06-08T14:31:49Z</time>
      </trkpt>
      <trkpt lat="47.51017" lon="6.69085">
        <ele>370.4</ele>
        <time>2015-06-08T14:31:50Z</time>
      </trkpt>
      <trkpt lat="47.51019" lon="6.69073">
        <ele>371.1</ele>
        <time>2015-06-08T14:31:51Z</time>
      </trkpt>
      <trkpt lat="47.51021" lon="6.69063">
        <ele>371.6</ele>
        <time>2015-06-08T14:31:52Z</time>
      </trkpt>
      <trkpt lat="47.51023" lon="6.69053">
        <ele>371.7</ele>
        <time>2015-06-08T14:31:53Z</time>
      </trkpt>
      <trkpt lat="47.51024" lon="6.69042">
        <ele>372</ele>
        <time>2015-06-08T14:31:54Z</time>
      </trkpt>
      <trkpt lat="47.51025" lon="6.69032">
        <ele>372.1</ele>
        <time>2015-06-08T14:31:55Z</time>
      </trkpt>
      <trkpt lat="47.51026" lon="6.69023">
        <ele>372.1</ele>
        <time>2015-06-08T14:31:56Z</time>
      </trkpt>
      <trkpt lat="47.51027" lon="6.69014">
        <ele>372.5</ele>
        <time>2015-06-08T14:31:57Z</time>
      </trkpt>
      <trkpt lat="47.51028" lon="6.69005">
        <ele>372.9</ele>
        <time>2015-06-08T14:31:58Z</time>
      </trkpt>
      <trkpt lat="47.51029" lon="6.68996">
        <ele>373</ele>
        <time>2015-06-08T14:31:59Z</time>
      </trkpt>
      <trkpt lat="47.5103" lon="6.68987">
        <ele>373.2</ele>
        <time>2015-06-08T14:32:00Z</time>
      </trkpt>
      <trkpt lat="47.51031" lon="6.68978">
        <ele>373.2</ele>
        <time>2015-06-08T14:32:01Z</time>
      </trkpt>
      <trkpt lat="47.51031" lon="6.6897">
        <ele>373.3</ele>
        <time>2015-06-08T14:32:02Z</time>
      </trkpt>
      <trkpt lat="47.51033" lon="6.68962">
        <ele>373.1</ele>
        <time>2015-06-08T14:32:03Z</time>
      </trkpt>
      <trkpt lat="47.51033" lon="6.68953">
        <ele>373.5</ele>
        <time>2015-06-08T14:32:04Z</time>
      </trkpt>
      <trkpt lat="47.51034" lon="6.68945">
        <ele>373.7</ele>
        <time>2015-06-08T14:32:05Z</time>
      </trkpt>
      <trkpt lat="47.51035" lon="6.68937">
        <ele>373.9</ele>
        <time>2015-06-08T14:32:06Z</time>
      </trkpt>
      <trkpt lat="47.51036" lon="6.6893">
        <ele>374</ele>
        <time>2015-06-08T14:32:07Z</time>
      </trkpt>
      <trkpt lat="47.51037" lon="6.68923">
        <ele>374.4</ele>
        <time>2015-06-08T14:32:08Z</time>
      </trkpt>
      <trkpt lat="47.51037" lon="6.68916">
        <ele>374.8</ele>
        <time>2015-06-08T14:32:09Z</time>
      </trkpt>
      <trkpt lat="47.51038" lon="6.68909">
        <ele>375.1</ele>
        <time>2015-06-08T14:32:10Z</time>
      </trkpt>
      <trkpt lat="47.51039" lon="6.68902">
        <ele>375.5</ele>
        <time>2015-06-08T14:32:11Z</time>
      </trkpt>
      <trkpt lat="47.5104" lon="6.68895">
        <ele>375.5</ele>
        <time>2015-06-08T14:32:12Z</time>
      </trkpt>
      <trkpt lat="47.51041" lon="6.68889">
        <ele>374.9</ele>
        <time>2015-06-08T14:32:13Z</time>
      </trkpt>
      <trkpt lat="47.51042" lon="6.68882">
        <ele>374.5</ele>
        <time>2015-06-08T14:32:14Z</time>
      </trkpt>
      <trkpt lat="47.51043" lon="6.68875">
        <ele>374.2</ele>
        <time>2015-06-08T14:32:15Z</time>
      </trkpt>
      <trkpt lat="47.51045" lon="6.68868">
        <ele>373.9</ele>
        <time>2015-06-08T14:32:16Z</time>
      </trkpt>
      <trkpt lat="47.51045" lon="6.68861">
        <ele>373.9</ele>
        <time>2015-06-08T14:32:17Z</time>
      </trkpt>
      <trkpt lat="47.51046" lon="6.68854">
        <ele>373.7</ele>
        <time>2015-06-08T14:32:18Z</time>
      </trkpt>
      <trkpt lat="47.51046" lon="6.68848">
        <ele>374.1</ele>
        <time>2015-06-08T14:32:19Z</time>
      </trkpt>
      <trkpt lat="47.51047" lon="6.6884">
        <ele>374.5</ele>
        <time>2015-06-08T14:32:20Z</time>
      </trkpt>
      <trkpt lat="47.51049" lon="6.68833">
        <ele>375.3</ele>
        <time>2015-06-08T14:32:21Z</time>
      </trkpt>
      <trkpt lat="47.5105" lon="6.68827">
        <ele>375.9</ele>
        <time>2015-06-08T14:32:22Z</time>
      </trkpt>
      <trkpt lat="47.51052" lon="6.68819">
        <ele>376.7</ele>
        <time>2015-06-08T14:32:23Z</time>
      </trkpt>
      <trkpt lat="47.51052" lon="6.68812">
        <ele>377.5</ele>
        <time>2015-06-08T14:32:24Z</time>
      </trkpt>
      <trkpt lat="47.51053" lon="6.68804">
        <ele>377.9</ele>
        <time>2015-06-08T14:32:25Z</time>
      </trkpt>
      <trkpt lat="47.51054" lon="6.68797">
        <ele>378.2</ele>
        <time>2015-06-08T14:32:26Z</time>
      </trkpt>
      <trkpt lat="47.51055" lon="6.6879">
        <ele>378.4</ele>
        <time>2015-06-08T14:32:27Z</time>
      </trkpt>
      <trkpt lat="47.51056" lon="6.68782">
        <ele>378.6</ele>
        <time>2015-06-08T14:32:28Z</time>
      </trkpt>
      <trkpt lat="47.51058" lon="6.68775">
        <ele>378.8</ele>
        <time>2015-06-08T14:32:29Z</time>
      </trkpt>
      <trkpt lat="47.51059" lon="6.68767">
        <ele>379</ele>
        <time>2015-06-08T14:32:30Z</time>
      </trkpt>
      <trkpt lat="47.5106" lon="6.6876">
        <ele>379.2</ele>
        <time>2015-06-08T14:32:31Z</time>
      </trkpt>
      <trkpt lat="47.51061" lon="6.68752">
        <ele>379.7</ele>
        <time>2015-06-08T14:32:32Z</time>
      </trkpt>
      <trkpt lat="47.51063" lon="6.68744">
        <ele>380.4</ele>
        <time>2015-06-08T14:32:33Z</time>
      </trkpt>
      <trkpt lat="47.51064" lon="6.68736">
        <ele>380.7</ele>
        <time>2015-06-08T14:32:34Z</time>
      </trkpt>
      <trkpt lat="47.51065" lon="6.68727">
        <ele>381.3</ele>
        <time>2015-06-08T14:32:35Z</time>
      </trkpt>
      <trkpt lat="47.51066" lon="6.68718">
        <ele>382.1</ele>
        <time>2015-06-08T14:32:36Z</time>
      </trkpt>
      <trkpt lat="47.51066" lon="6.68709">
        <ele>382.7</ele>
        <time>2015-06-08T14:32:37Z</time>
      </trkpt>
      <trkpt lat="47.51067" lon="6.687">
        <ele>383.3</ele>
        <time>2015-06-08T14:32:38Z</time>
      </trkpt>
      <trkpt lat="47.51067" lon="6.68691">
        <ele>383.9</ele>
        <time>2015-06-08T14:32:39Z</time>
      </trkpt>
      <trkpt lat="47.51068" lon="6.68681">
        <ele>384.3</ele>
        <time>2015-06-08T14:32:40Z</time>
      </trkpt>
      <trkpt lat="47.51068" lon="6.68672">
        <ele>384.7</ele>
        <time>2015-06-08T14:32:41Z</time>
      </trkpt>
      <trkpt lat="47.51069" lon="6.68663">
        <ele>385</ele>
        <time>2015-06-08T14:32:42Z</time>
      </trkpt>
      <trkpt lat="47.51071" lon="6.68655">
        <ele>385.1</ele>
        <time>2015-06-08T14:32:43Z</time>
      </trkpt>
      <trkpt lat="47.51073" lon="6.68647">
        <ele>385.3</ele>
        <time>2015-06-08T14:32:44Z</time>
      </trkpt>
      <trkpt lat="47.51073" lon="6.68638">
        <ele>385.6</ele>
        <time>2015-06-08T14:32:45Z</time>
      </trkpt>
      <trkpt lat="47.51074" lon="6.68629">
        <ele>385.8</ele>
        <time>2015-06-08T14:32:46Z</time>
      </trkpt>
      <trkpt lat="47.51075" lon="6.6862">
        <ele>386.1</ele>
        <time>2015-06-08T14:32:47Z</time>
      </trkpt>
      <trkpt lat="47.51077" lon="6.68611">
        <ele>386.7</ele>
        <time>2015-06-08T14:32:48Z</time>
      </trkpt>
      <trkpt lat="47.5108" lon="6.68603">
        <ele>387.3</ele>
        <time>2015-06-08T14:32:49Z</time>
      </trkpt>
      <trkpt lat="47.51082" lon="6.68595">
        <ele>386.8</ele>
        <time>2015-06-08T14:32:50Z</time>
      </trkpt>
      <trkpt lat="47.51083" lon="6.68586">
        <ele>387.1</ele>
        <time>2015-06-08T14:32:51Z</time>
      </trkpt>
      <trkpt lat="47.51085" lon="6.68578">
        <ele>386.1</ele>
        <time>2015-06-08T14:32:52Z</time>
      </trkpt>
      <trkpt lat="47.51087" lon="6.68569">
        <ele>385.3</ele>
        <time>2015-06-08T14:32:53Z</time>
      </trkpt>
      <trkpt lat="47.51089" lon="6.6856">
        <ele>385.1</ele>
        <time>2015-06-08T14:32:54Z</time>
      </trkpt>
      <trkpt lat="47.51091" lon="6.68551">
        <ele>385.3</ele>
        <time>2015-06-08T14:32:55Z</time>
      </trkpt>
      <trkpt lat="47.51092" lon="6.68541">
        <ele>385.3</ele>
        <time>2015-06-08T14:32:56Z</time>
      </trkpt>
      <trkpt lat="47.51093" lon="6.68531">
        <ele>385.3</ele>
        <time>2015-06-08T14:32:57Z</time>
      </trkpt>
      <trkpt lat="47.51099" lon="6.68523">
        <ele>386</ele>
        <time>2015-06-08T14:32:58Z</time>
      </trkpt>
      <trkpt lat="47.51101" lon="6.68514">
        <ele>386.4</ele>
        <time>2015-06-08T14:32:59Z</time>
      </trkpt>
      <trkpt lat="47.51103" lon="6.68505">
        <ele>386.7</ele>
        <time>2015-06-08T14:33:00Z</time>
      </trkpt>
      <trkpt lat="47.51105" lon="6.68496">
        <ele>386.9</ele>
        <time>2015-06-08T14:33:01Z</time>
      </trkpt>
      <trkpt lat="47.51105" lon="6.68486">
        <ele>387.2</ele>
        <time>2015-06-08T14:33:02Z</time>
      </trkpt>
      <trkpt lat="47.51106" lon="6.68477">
        <ele>387.2</ele>
        <time>2015-06-08T14:33:03Z</time>
      </trkpt>
      <trkpt lat="47.51108" lon="6.68468">
        <ele>387.5</ele>
        <time>2015-06-08T14:33:04Z</time>
      </trkpt>
      <trkpt lat="47.51111" lon="6.6846">
        <ele>387.9</ele>
        <time>2015-06-08T14:33:05Z</time>
      </trkpt>
      <trkpt lat="47.51114" lon="6.68451">
        <ele>387.7</ele>
        <time>2015-06-08T14:33:06Z</time>
      </trkpt>
      <trkpt lat="47.51116" lon="6.68442">
        <ele>387</ele>
        <time>2015-06-08T14:33:07Z</time>
      </trkpt>
      <trkpt lat="47.51117" lon="6.68433">
        <ele>387</ele>
        <time>2015-06-08T14:33:08Z</time>
      </trkpt>
      <trkpt lat="47.51119" lon="6.68423">
        <ele>387</ele>
        <time>2015-06-08T14:33:09Z</time>
      </trkpt>
      <trkpt lat="47.51121" lon="6.68415">
        <ele>385.2</ele>
        <time>2015-06-08T14:33:10Z</time>
      </trkpt>
      <trkpt lat="47.51123" lon="6.68406">
        <ele>384.7</ele>
        <time>2015-06-08T14:33:11Z</time>
      </trkpt>
      <trkpt lat="47.51124" lon="6.68396">
        <ele>384.4</ele>
        <time>2015-06-08T14:33:12Z</time>
      </trkpt>
      <trkpt lat="47.51127" lon="6.68387">
        <ele>384</ele>
        <time>2015-06-08T14:33:13Z</time>
      </trkpt>
      <trkpt lat="47.51129" lon="6.68378">
        <ele>383.5</ele>
        <time>2015-06-08T14:33:14Z</time>
      </trkpt>
      <trkpt lat="47.51131" lon="6.68368">
        <ele>382.9</ele>
        <time>2015-06-08T14:33:15Z</time>
      </trkpt>
      <trkpt lat="47.51132" lon="6.68357">
        <ele>382.6</ele>
        <time>2015-06-08T14:33:16Z</time>
      </trkpt>
      <trkpt lat="47.51134" lon="6.68347">
        <ele>382.4</ele>
        <time>2015-06-08T14:33:17Z</time>
      </trkpt>
      <trkpt lat="47.51135" lon="6.68337">
        <ele>382.5</ele>
        <time>2015-06-08T14:33:18Z</time>
      </trkpt>
      <trkpt lat="47.51137" lon="6.68328">
        <ele>382.4</ele>
        <time>2015-06-08T14:33:19Z</time>
      </trkpt>
      <trkpt lat="47.51139" lon="6.68319">
        <ele>382</ele>
        <time>2015-06-08T14:33:20Z</time>
      </trkpt>
      <trkpt lat="47.51141" lon="6.6831">
        <ele>382.1</ele>
        <time>2015-06-08T14:33:21Z</time>
      </trkpt>
      <trkpt lat="47.51143" lon="6.68302">
        <ele>382.1</ele>
        <time>2015-06-08T14:33:22Z</time>
      </trkpt>
      <trkpt lat="47.51145" lon="6.68293">
        <ele>382</ele>
        <time>2015-06-08T14:33:23Z</time>
      </trkpt>
      <trkpt lat="47.51146" lon="6.68285">
        <ele>381.7</ele>
        <time>2015-06-08T14:33:24Z</time>
      </trkpt>
      <trkpt lat="47.51147" lon="6.68277">
        <ele>381.3</ele>
        <time>2015-06-08T14:33:25Z</time>
      </trkpt>
      <trkpt lat="47.51148" lon="6.68268">
        <ele>381.1</ele>
        <time>2015-06-08T14:33:26Z</time>
      </trkpt>
      <trkpt lat="47.51149" lon="6.6826">
        <ele>380.5</ele>
        <time>2015-06-08T14:33:27Z</time>
      </trkpt>
      <trkpt lat="47.51149" lon="6.68251">
        <ele>380</ele>
        <time>2015-06-08T14:33:28Z</time>
      </trkpt>
      <trkpt lat="47.51151" lon="6.68243">
        <ele>379.7</ele>
        <time>2015-06-08T14:33:29Z</time>
      </trkpt>
      <trkpt lat="47.51153" lon="6.68235">
        <ele>379.1</ele>
        <time>2015-06-08T14:33:30Z</time>
      </trkpt>
      <trkpt lat="47.51156" lon="6.68227">
        <ele>378.4</ele>
        <time>2015-06-08T14:33:31Z</time>
      </trkpt>
      <trkpt lat="47.51157" lon="6.68218">
        <ele>377.9</ele>
        <time>2015-06-08T14:33:32Z</time>
      </trkpt>
      <trkpt lat="47.51159" lon="6.6821">
        <ele>377.5</ele>
        <time>2015-06-08T14:33:33Z</time>
      </trkpt>
      <trkpt lat="47.51164" lon="6.68203">
        <ele>375.6</ele>
        <time>2015-06-08T14:33:34Z</time>
      </trkpt>
      <trkpt lat="47.51167" lon="6.68195">
        <ele>374</ele>
        <time>2015-06-08T14:33:35Z</time>
      </trkpt>
      <trkpt lat="47.5117" lon="6.68187">
        <ele>373.1</ele>
        <time>2015-06-08T14:33:36Z</time>
      </trkpt>
      <trkpt lat="47.51173" lon="6.68178">
        <ele>372.7</ele>
        <time>2015-06-08T14:33:37Z</time>
      </trkpt>
      <trkpt lat="47.51177" lon="6.68169">
        <ele>372.5</ele>
        <time>2015-06-08T14:33:38Z</time>
      </trkpt>
      <trkpt lat="47.5118" lon="6.68159">
        <ele>372.6</ele>
        <time>2015-06-08T14:33:39Z</time>
      </trkpt>
      <trkpt lat="47.51183" lon="6.6815">
        <ele>372.9</ele>
        <time>2015-06-08T14:33:40Z</time>
      </trkpt>
      <trkpt lat="47.51186" lon="6.68141">
        <ele>373.2</ele>
        <time>2015-06-08T14:33:41Z</time>
      </trkpt>
      <trkpt lat="47.51188" lon="6.68133">
        <ele>373.2</ele>
        <time>2015-06-08T14:33:42Z</time>
      </trkpt>
      <trkpt lat="47.5119" lon="6.68124">
        <ele>373.3</ele>
        <time>2015-06-08T14:33:43Z</time>
      </trkpt>
      <trkpt lat="47.51192" lon="6.68115">
        <ele>373.3</ele>
        <time>2015-06-08T14:33:44Z</time>
      </trkpt>
      <trkpt lat="47.51194" lon="6.68107">
        <ele>373.3</ele>
        <time>2015-06-08T14:33:45Z</time>
      </trkpt>
      <trkpt lat="47.51196" lon="6.6809">
        <ele>373.2</ele>
        <time>2015-06-08T14:33:47Z</time>
      </trkpt>
      <trkpt lat="47.51198" lon="6.68082">
        <ele>373.4</ele>
        <time>2015-06-08T14:33:48Z</time>
      </trkpt>
      <trkpt lat="47.51199" lon="6.68064">
        <ele>373.6</ele>
        <time>2015-06-08T14:33:50Z</time>
      </trkpt>
      <trkpt lat="47.51203" lon="6.68048">
        <ele>373.3</ele>
        <time>2015-06-08T14:33:52Z</time>
      </trkpt>
      <trkpt lat="47.51204" lon="6.68039">
        <ele>373.1</ele>
        <time>2015-06-08T14:33:53Z</time>
      </trkpt>
      <trkpt lat="47.51205" lon="6.6803">
        <ele>372.6</ele>
        <time>2015-06-08T14:33:54Z</time>
      </trkpt>
      <trkpt lat="47.51209" lon="6.68022">
        <ele>371.8</ele>
        <time>2015-06-08T14:33:55Z</time>
      </trkpt>
      <trkpt lat="47.5121" lon="6.68013">
        <ele>371.3</ele>
        <time>2015-06-08T14:33:56Z</time>
      </trkpt>
      <trkpt lat="47.51213" lon="6.68005">
        <ele>371.1</ele>
        <time>2015-06-08T14:33:57Z</time>
      </trkpt>
      <trkpt lat="47.51217" lon="6.67997">
        <ele>371</ele>
        <time>2015-06-08T14:33:58Z</time>
      </trkpt>
      <trkpt lat="47.51219" lon="6.67989">
        <ele>370.9</ele>
        <time>2015-06-08T14:33:59Z</time>
      </trkpt>
      <trkpt lat="47.51221" lon="6.6798">
        <ele>370.9</ele>
        <time>2015-06-08T14:34:00Z</time>
      </trkpt>
      <trkpt lat="47.51228" lon="6.67973">
        <ele>371.8</ele>
        <time>2015-06-08T14:34:01Z</time>
      </trkpt>
      <trkpt lat="47.5123" lon="6.67965">
        <ele>371.9</ele>
        <time>2015-06-08T14:34:02Z</time>
      </trkpt>
      <trkpt lat="47.51232" lon="6.67956">
        <ele>372.1</ele>
        <time>2015-06-08T14:34:03Z</time>
      </trkpt>
      <trkpt lat="47.51234" lon="6.67948">
        <ele>372</ele>
        <time>2015-06-08T14:34:04Z</time>
      </trkpt>
      <trkpt lat="47.51235" lon="6.67939">
        <ele>372.1</ele>
        <time>2015-06-08T14:34:05Z</time>
      </trkpt>
      <trkpt lat="47.51237" lon="6.67931">
        <ele>372.3</ele>
        <time>2015-06-08T14:34:06Z</time>
      </trkpt>
      <trkpt lat="47.51239" lon="6.67922">
        <ele>372.3</ele>
        <time>2015-06-08T14:34:07Z</time>
      </trkpt>
      <trkpt lat="47.5124" lon="6.67914">
        <ele>372.5</ele>
        <time>2015-06-08T14:34:08Z</time>
      </trkpt>
      <trkpt lat="47.51243" lon="6.67906">
        <ele>372.3</ele>
        <time>2015-06-08T14:34:09Z</time>
      </trkpt>
      <trkpt lat="47.51244" lon="6.67898">
        <ele>372.4</ele>
        <time>2015-06-08T14:34:10Z</time>
      </trkpt>
      <trkpt lat="47.51246" lon="6.6789">
        <ele>372.5</ele>
        <time>2015-06-08T14:34:11Z</time>
      </trkpt>
      <trkpt lat="47.51247" lon="6.67881">
        <ele>372.8</ele>
        <time>2015-06-08T14:34:12Z</time>
      </trkpt>
      <trkpt lat="47.51249" lon="6.67873">
        <ele>373.1</ele>
        <time>2015-06-08T14:34:13Z</time>
      </trkpt>
      <trkpt lat="47.5125" lon="6.67865">
        <ele>373.2</ele>
        <time>2015-06-08T14:34:14Z</time>
      </trkpt>
      <trkpt lat="47.51252" lon="6.67857">
        <ele>373.5</ele>
        <time>2015-06-08T14:34:15Z</time>
      </trkpt>
      <trkpt lat="47.51254" lon="6.67849">
        <ele>373.5</ele>
        <time>2015-06-08T14:34:16Z</time>
      </trkpt>
      <trkpt lat="47.51256" lon="6.67841">
        <ele>373.9</ele>
        <time>2015-06-08T14:34:17Z</time>
      </trkpt>
      <trkpt lat="47.51257" lon="6.67833">
        <ele>374.3</ele>
        <time>2015-06-08T14:34:18Z</time>
      </trkpt>
      <trkpt lat="47.51259" lon="6.67825">
        <ele>374.6</ele>
        <time>2015-06-08T14:34:19Z</time>
      </trkpt>
      <trkpt lat="47.51261" lon="6.67819">
        <ele>372.5</ele>
        <time>2015-06-08T14:34:20Z</time>
      </trkpt>
      <trkpt lat="47.51263" lon="6.67811">
        <ele>372</ele>
        <time>2015-06-08T14:34:21Z</time>
      </trkpt>
      <trkpt lat="47.51265" lon="6.67803">
        <ele>372</ele>
        <time>2015-06-08T14:34:22Z</time>
      </trkpt>
      <trkpt lat="47.51266" lon="6.67795">
        <ele>372</ele>
        <time>2015-06-08T14:34:23Z</time>
      </trkpt>
      <trkpt lat="47.51268" lon="6.67787">
        <ele>372.1</ele>
        <time>2015-06-08T14:34:24Z</time>
      </trkpt>
      <trkpt lat="47.5127" lon="6.67778">
        <ele>372.2</ele>
        <time>2015-06-08T14:34:25Z</time>
      </trkpt>
      <trkpt lat="47.51271" lon="6.6777">
        <ele>372.4</ele>
        <time>2015-06-08T14:34:26Z</time>
      </trkpt>
      <trkpt lat="47.51273" lon="6.67762">
        <ele>372.5</ele>
        <time>2015-06-08T14:34:27Z</time>
      </trkpt>
      <trkpt lat="47.51275" lon="6.67753">
        <ele>372.7</ele>
        <time>2015-06-08T14:34:28Z</time>
      </trkpt>
      <trkpt lat="47.51276" lon="6.67745">
        <ele>372.9</ele>
        <time>2015-06-08T14:34:29Z</time>
      </trkpt>
      <trkpt lat="47.51278" lon="6.67737">
        <ele>373.1</ele>
        <time>2015-06-08T14:34:30Z</time>
      </trkpt>
      <trkpt lat="47.51279" lon="6.67728">
        <ele>373.3</ele>
        <time>2015-06-08T14:34:31Z</time>
      </trkpt>
      <trkpt lat="47.51281" lon="6.6772">
        <ele>373.6</ele>
        <time>2015-06-08T14:34:32Z</time>
      </trkpt>
      <trkpt lat="47.51282" lon="6.67712">
        <ele>374</ele>
        <time>2015-06-08T14:34:33Z</time>
      </trkpt>
      <trkpt lat="47.51284" lon="6.67704">
        <ele>374.7</ele>
        <time>2015-06-08T14:34:34Z</time>
      </trkpt>
      <trkpt lat="47.51285" lon="6.67696">
        <ele>375.2</ele>
        <time>2015-06-08T14:34:35Z</time>
      </trkpt>
      <trkpt lat="47.51287" lon="6.67688">
        <ele>375.3</ele>
        <time>2015-06-08T14:34:36Z</time>
      </trkpt>
      <trkpt lat="47.51288" lon="6.6768">
        <ele>375.8</ele>
        <time>2015-06-08T14:34:37Z</time>
      </trkpt>
      <trkpt lat="47.5129" lon="6.67672">
        <ele>376.1</ele>
        <time>2015-06-08T14:34:38Z</time>
      </trkpt>
      <trkpt lat="47.51292" lon="6.67663">
        <ele>376.4</ele>
        <time>2015-06-08T14:34:39Z</time>
      </trkpt>
      <trkpt lat="47.51293" lon="6.67656">
        <ele>376.5</ele>
        <time>2015-06-08T14:34:40Z</time>
      </trkpt>
      <trkpt lat="47.51296" lon="6.67649">
        <ele>375.8</ele>
        <time>2015-06-08T14:34:41Z</time>
      </trkpt>
      <trkpt lat="47.51298" lon="6.67641">
        <ele>375.8</ele>
        <time>2015-06-08T14:34:42Z</time>
      </trkpt>
      <trkpt lat="47.513" lon="6.67633">
        <ele>375.9</ele>
        <time>2015-06-08T14:34:43Z</time>
      </trkpt>
      <trkpt lat="47.51301" lon="6.67624">
        <ele>376.2</ele>
        <time>2015-06-08T14:34:44Z</time>
      </trkpt>
      <trkpt lat="47.51303" lon="6.67616">
        <ele>376.5</ele>
        <time>2015-06-08T14:34:45Z</time>
      </trkpt>
      <trkpt lat="47.51304" lon="6.67608">
        <ele>376.8</ele>
        <time>2015-06-08T14:34:46Z</time>
      </trkpt>
      <trkpt lat="47.51306" lon="6.676">
        <ele>377.1</ele>
        <time>2015-06-08T14:34:47Z</time>
      </trkpt>
      <trkpt lat="47.51307" lon="6.67591">
        <ele>377.4</ele>
        <time>2015-06-08T14:34:48Z</time>
      </trkpt>
      <trkpt lat="47.51308" lon="6.67583">
        <ele>377.9</ele>
        <time>2015-06-08T14:34:49Z</time>
      </trkpt>
      <trkpt lat="47.5131" lon="6.67574">
        <ele>378.2</ele>
        <time>2015-06-08T14:34:50Z</time>
      </trkpt>
      <trkpt lat="47.51312" lon="6.67566">
        <ele>378.8</ele>
        <time>2015-06-08T14:34:51Z</time>
      </trkpt>
      <trkpt lat="47.51313" lon="6.67558">
        <ele>379</ele>
        <time>2015-06-08T14:34:52Z</time>
      </trkpt>
      <trkpt lat="47.51314" lon="6.67549">
        <ele>379.4</ele>
        <time>2015-06-08T14:34:53Z</time>
      </trkpt>
      <trkpt lat="47.51316" lon="6.67541">
        <ele>379.5</ele>
        <time>2015-06-08T14:34:54Z</time>
      </trkpt>
      <trkpt lat="47.51317" lon="6.67533">
        <ele>379.7</ele>
        <time>2015-06-08T14:34:55Z</time>
      </trkpt>
      <trkpt lat="47.51319" lon="6.67524">
        <ele>379.9</ele>
        <time>2015-06-08T14:34:56Z</time>
      </trkpt>
      <trkpt lat="47.5132" lon="6.67516">
        <ele>380</ele>
        <time>2015-06-08T14:34:57Z</time>
      </trkpt>
      <trkpt lat="47.51322" lon="6.67508">
        <ele>380.3</ele>
        <time>2015-06-08T14:34:58Z</time>
      </trkpt>
      <trkpt lat="47.51324" lon="6.675">
        <ele>380.6</ele>
        <time>2015-06-08T14:34:59Z</time>
      </trkpt>
      <trkpt lat="47.51326" lon="6.67492">
        <ele>380.8</ele>
        <time>2015-06-08T14:35:00Z</time>
      </trkpt>
      <trkpt lat="47.51327" lon="6.67484">
        <ele>381</ele>
        <time>2015-06-08T14:35:01Z</time>
      </trkpt>
      <trkpt lat="47.51329" lon="6.67476">
        <ele>381.2</ele>
        <time>2015-06-08T14:35:02Z</time>
      </trkpt>
      <trkpt lat="47.5133" lon="6.67468">
        <ele>381.5</ele>
        <time>2015-06-08T14:35:03Z</time>
      </trkpt>
      <trkpt lat="47.51331" lon="6.6746">
        <ele>381.9</ele>
        <time>2015-06-08T14:35:04Z</time>
      </trkpt>
      <trkpt lat="47.51332" lon="6.67452">
        <ele>382.3</ele>
        <time>2015-06-08T14:35:05Z</time>
      </trkpt>
      <trkpt lat="47.51334" lon="6.67445">
        <ele>382.6</ele>
        <time>2015-06-08T14:35:06Z</time>
      </trkpt>
      <trkpt lat="47.51336" lon="6.67439">
        <ele>379.4</ele>
        <time>2015-06-08T14:35:07Z</time>
      </trkpt>
      <trkpt lat="47.51338" lon="6.67432">
        <ele>379.1</ele>
        <time>2015-06-08T14:35:08Z</time>
      </trkpt>
      <trkpt lat="47.51339" lon="6.67424">
        <ele>379.1</ele>
        <time>2015-06-08T14:35:09Z</time>
      </trkpt>
      <trkpt lat="47.51341" lon="6.67416">
        <ele>379.2</ele>
        <time>2015-06-08T14:35:10Z</time>
      </trkpt>
      <trkpt lat="47.51343" lon="6.67409">
        <ele>379.1</ele>
        <time>2015-06-08T14:35:11Z</time>
      </trkpt>
      <trkpt lat="47.51345" lon="6.67401">
        <ele>379.1</ele>
        <time>2015-06-08T14:35:12Z</time>
      </trkpt>
      <trkpt lat="47.51346" lon="6.67393">
        <ele>379</ele>
        <time>2015-06-08T14:35:13Z</time>
      </trkpt>
      <trkpt lat="47.51348" lon="6.67386">
        <ele>378.9</ele>
        <time>2015-06-08T14:35:14Z</time>
      </trkpt>
      <trkpt lat="47.51349" lon="6.67378">
        <ele>378.8</ele>
        <time>2015-06-08T14:35:15Z</time>
      </trkpt>
      <trkpt lat="47.51351" lon="6.6737">
        <ele>378.7</ele>
        <time>2015-06-08T14:35:16Z</time>
      </trkpt>
      <trkpt lat="47.51353" lon="6.67362">
        <ele>378.7</ele>
        <time>2015-06-08T14:35:17Z</time>
      </trkpt>
      <trkpt lat="47.51354" lon="6.67354">
        <ele>378.6</ele>
        <time>2015-06-08T14:35:18Z</time>
      </trkpt>
      <trkpt lat="47.51355" lon="6.67346">
        <ele>378.6</ele>
        <time>2015-06-08T14:35:19Z</time>
      </trkpt>
      <trkpt lat="47.51356" lon="6.67338">
        <ele>378.7</ele>
        <time>2015-06-08T14:35:20Z</time>
      </trkpt>
      <trkpt lat="47.51358" lon="6.6733">
        <ele>378.8</ele>
        <time>2015-06-08T14:35:21Z</time>
      </trkpt>
      <trkpt lat="47.51359" lon="6.67322">
        <ele>378.9</ele>
        <time>2015-06-08T14:35:22Z</time>
      </trkpt>
      <trkpt lat="47.51361" lon="6.67313">
        <ele>379</ele>
        <time>2015-06-08T14:35:23Z</time>
      </trkpt>
      <trkpt lat="47.51362" lon="6.67305">
        <ele>379</ele>
        <time>2015-06-08T14:35:24Z</time>
      </trkpt>
      <trkpt lat="47.51364" lon="6.67297">
        <ele>379.2</ele>
        <time>2015-06-08T14:35:25Z</time>
      </trkpt>
      <trkpt lat="47.51366" lon="6.67289">
        <ele>379.3</ele>
        <time>2015-06-08T14:35:26Z</time>
      </trkpt>
      <trkpt lat="47.51367" lon="6.67281">
        <ele>379.4</ele>
        <time>2015-06-08T14:35:27Z</time>
      </trkpt>
      <trkpt lat="47.51369" lon="6.67273">
        <ele>379.5</ele>
        <time>2015-06-08T14:35:28Z</time>
      </trkpt>
      <trkpt lat="47.51371" lon="6.67264">
        <ele>379.5</ele>
        <time>2015-06-08T14:35:29Z</time>
      </trkpt>
      <trkpt lat="47.51372" lon="6.67256">
        <ele>379.6</ele>
        <time>2015-06-08T14:35:30Z</time>
      </trkpt>
      <trkpt lat="47.51374" lon="6.67248">
        <ele>379.6</ele>
        <time>2015-06-08T14:35:31Z</time>
      </trkpt>
      <trkpt lat="47.51375" lon="6.6724">
        <ele>379.6</ele>
        <time>2015-06-08T14:35:32Z</time>
      </trkpt>
      <trkpt lat="47.51377" lon="6.67232">
        <ele>379.7</ele>
        <time>2015-06-08T14:35:33Z</time>
      </trkpt>
      <trkpt lat="47.51379" lon="6.67223">
        <ele>379.8</ele>
        <time>2015-06-08T14:35:34Z</time>
      </trkpt>
      <trkpt lat="47.5138" lon="6.67215">
        <ele>379.5</ele>
        <time>2015-06-08T14:35:35Z</time>
      </trkpt>
      <trkpt lat="47.51382" lon="6.67207">
        <ele>379.2</ele>
        <time>2015-06-08T14:35:36Z</time>
      </trkpt>
      <trkpt lat="47.51384" lon="6.67198">
        <ele>379</ele>
        <time>2015-06-08T14:35:37Z</time>
      </trkpt>
      <trkpt lat="47.51386" lon="6.6719">
        <ele>378.7</ele>
        <time>2015-06-08T14:35:38Z</time>
      </trkpt>
      <trkpt lat="47.51387" lon="6.67181">
        <ele>378.5</ele>
        <time>2015-06-08T14:35:39Z</time>
      </trkpt>
      <trkpt lat="47.51389" lon="6.67172">
        <ele>378.4</ele>
        <time>2015-06-08T14:35:40Z</time>
      </trkpt>
      <trkpt lat="47.5139" lon="6.67164">
        <ele>378.3</ele>
        <time>2015-06-08T14:35:41Z</time>
      </trkpt>
      <trkpt lat="47.51392" lon="6.67155">
        <ele>378.4</ele>
        <time>2015-06-08T14:35:42Z</time>
      </trkpt>
      <trkpt lat="47.51393" lon="6.67146">
        <ele>378.5</ele>
        <time>2015-06-08T14:35:43Z</time>
      </trkpt>
      <trkpt lat="47.51395" lon="6.67137">
        <ele>378.6</ele>
        <time>2015-06-08T14:35:44Z</time>
      </trkpt>
      <trkpt lat="47.51397" lon="6.67128">
        <ele>378.7</ele>
        <time>2015-06-08T14:35:45Z</time>
      </trkpt>
      <trkpt lat="47.51399" lon="6.67119">
        <ele>379</ele>
        <time>2015-06-08T14:35:46Z</time>
      </trkpt>
      <trkpt lat="47.514" lon="6.67111">
        <ele>379.2</ele>
        <time>2015-06-08T14:35:47Z</time>
      </trkpt>
      <trkpt lat="47.51402" lon="6.67102">
        <ele>378.8</ele>
        <time>2015-06-08T14:35:48Z</time>
      </trkpt>
      <trkpt lat="47.51404" lon="6.67094">
        <ele>378.7</ele>
        <time>2015-06-08T14:35:49Z</time>
      </trkpt>
      <trkpt lat="47.51405" lon="6.67086">
        <ele>378.5</ele>
        <time>2015-06-08T14:35:50Z</time>
      </trkpt>
      <trkpt lat="47.51407" lon="6.67078">
        <ele>378.2</ele>
        <time>2015-06-08T14:35:51Z</time>
      </trkpt>
      <trkpt lat="47.51409" lon="6.6707">
        <ele>377.9</ele>
        <time>2015-06-08T14:35:52Z</time>
      </trkpt>
      <trkpt lat="47.51411" lon="6.67062">
        <ele>378.1</ele>
        <time>2015-06-08T14:35:53Z</time>
      </trkpt>
      <trkpt lat="47.51412" lon="6.67054">
        <ele>377.9</ele>
        <time>2015-06-08T14:35:54Z</time>
      </trkpt>
      <trkpt lat="47.51414" lon="6.67046">
        <ele>377.6</ele>
        <time>2015-06-08T14:35:55Z</time>
      </trkpt>
      <trkpt lat="47.51416" lon="6.67038">
        <ele>377.6</ele>
        <time>2015-06-08T14:35:56Z</time>
      </trkpt>
      <trkpt lat="47.51418" lon="6.6703">
        <ele>377.5</ele>
        <time>2015-06-08T14:35:57Z</time>
      </trkpt>
      <trkpt lat="47.51419" lon="6.67021">
        <ele>377.6</ele>
        <time>2015-06-08T14:35:58Z</time>
      </trkpt>
      <trkpt lat="47.51421" lon="6.67013">
        <ele>377.4</ele>
        <time>2015-06-08T14:35:59Z</time>
      </trkpt>
      <trkpt lat="47.51423" lon="6.67005">
        <ele>376.9</ele>
        <time>2015-06-08T14:36:00Z</time>
      </trkpt>
      <trkpt lat="47.51425" lon="6.66997">
        <ele>376.8</ele>
        <time>2015-06-08T14:36:01Z</time>
      </trkpt>
      <trkpt lat="47.51426" lon="6.6699">
        <ele>376.8</ele>
        <time>2015-06-08T14:36:02Z</time>
      </trkpt>
      <trkpt lat="47.51428" lon="6.66982">
        <ele>376.8</ele>
        <time>2015-06-08T14:36:03Z</time>
      </trkpt>
      <trkpt lat="47.51429" lon="6.66973">
        <ele>376.7</ele>
        <time>2015-06-08T14:36:04Z</time>
      </trkpt>
      <trkpt lat="47.51431" lon="6.66965">
        <ele>376.4</ele>
        <time>2015-06-08T14:36:05Z</time>
      </trkpt>
      <trkpt lat="47.51433" lon="6.66957">
        <ele>376.2</ele>
        <time>2015-06-08T14:36:06Z</time>
      </trkpt>
      <trkpt lat="47.51434" lon="6.66949">
        <ele>376.1</ele>
        <time>2015-06-08T14:36:07Z</time>
      </trkpt>
      <trkpt lat="47.51436" lon="6.6694">
        <ele>375.9</ele>
        <time>2015-06-08T14:36:08Z</time>
      </trkpt>
      <trkpt lat="47.51438" lon="6.66932">
        <ele>376</ele>
        <time>2015-06-08T14:36:09Z</time>
      </trkpt>
      <trkpt lat="47.5144" lon="6.66923">
        <ele>376.1</ele>
        <time>2015-06-08T14:36:10Z</time>
      </trkpt>
      <trkpt lat="47.51441" lon="6.66915">
        <ele>376.1</ele>
        <time>2015-06-08T14:36:11Z</time>
      </trkpt>
      <trkpt lat="47.51443" lon="6.66907">
        <ele>376.1</ele>
        <time>2015-06-08T14:36:12Z</time>
      </trkpt>
      <trkpt lat="47.51445" lon="6.66898">
        <ele>376</ele>
        <time>2015-06-08T14:36:13Z</time>
      </trkpt>
      <trkpt lat="47.51447" lon="6.66889">
        <ele>376.1</ele>
        <time>2015-06-08T14:36:14Z</time>
      </trkpt>
      <trkpt lat="47.51448" lon="6.66881">
        <ele>376.3</ele>
        <time>2015-06-08T14:36:15Z</time>
      </trkpt>
      <trkpt lat="47.5145" lon="6.66872">
        <ele>376.6</ele>
        <time>2015-06-08T14:36:16Z</time>
      </trkpt>
      <trkpt lat="47.51452" lon="6.66863">
        <ele>377</ele>
        <time>2015-06-08T14:36:17Z</time>
      </trkpt>
      <trkpt lat="47.51454" lon="6.66854">
        <ele>377.2</ele>
        <time>2015-06-08T14:36:18Z</time>
      </trkpt>
      <trkpt lat="47.51455" lon="6.66845">
        <ele>377.3</ele>
        <time>2015-06-08T14:36:19Z</time>
      </trkpt>
      <trkpt lat="47.51458" lon="6.66837">
        <ele>377.5</ele>
        <time>2015-06-08T14:36:20Z</time>
      </trkpt>
      <trkpt lat="47.51459" lon="6.66829">
        <ele>377.6</ele>
        <time>2015-06-08T14:36:21Z</time>
      </trkpt>
      <trkpt lat="47.51461" lon="6.66822">
        <ele>377.1</ele>
        <time>2015-06-08T14:36:22Z</time>
      </trkpt>
      <trkpt lat="47.51463" lon="6.66815">
        <ele>377.1</ele>
        <time>2015-06-08T14:36:23Z</time>
      </trkpt>
      <trkpt lat="47.51463" lon="6.66808">
        <ele>377.3</ele>
        <time>2015-06-08T14:36:24Z</time>
      </trkpt>
      <trkpt lat="47.51463" lon="6.66801">
        <ele>377</ele>
        <time>2015-06-08T14:36:25Z</time>
      </trkpt>
      <trkpt lat="47.51464" lon="6.66794">
        <ele>376.8</ele>
        <time>2015-06-08T14:36:26Z</time>
      </trkpt>
      <trkpt lat="47.51465" lon="6.66787">
        <ele>376.8</ele>
        <time>2015-06-08T14:36:27Z</time>
      </trkpt>
      <trkpt lat="47.51466" lon="6.6678">
        <ele>376.6</ele>
        <time>2015-06-08T14:36:28Z</time>
      </trkpt>
      <trkpt lat="47.51467" lon="6.66774">
        <ele>376.4</ele>
        <time>2015-06-08T14:36:29Z</time>
      </trkpt>
      <trkpt lat="47.51468" lon="6.66769">
        <ele>376.3</ele>
        <time>2015-06-08T14:36:30Z</time>
      </trkpt>
      <trkpt lat="47.51469" lon="6.66764">
        <ele>376.7</ele>
        <time>2015-06-08T14:36:31Z</time>
      </trkpt>
      <trkpt lat="47.5147" lon="6.6676">
        <ele>377.1</ele>
        <time>2015-06-08T14:36:32Z</time>
      </trkpt>
      <trkpt lat="47.51471" lon="6.66757">
        <ele>377.5</ele>
        <time>2015-06-08T14:36:33Z</time>
      </trkpt>
      <trkpt lat="47.51473" lon="6.66756">
        <ele>377.6</ele>
        <time>2015-06-08T14:36:34Z</time>
      </trkpt>
      <trkpt lat="47.51474" lon="6.66755">
        <ele>377.9</ele>
        <time>2015-06-08T14:36:35Z</time>
      </trkpt>
      <trkpt lat="47.51475" lon="6.66756">
        <ele>378.4</ele>
        <time>2015-06-08T14:37:06Z</time>
      </trkpt>
      <trkpt lat="47.51476" lon="6.66756">
        <ele>378.5</ele>
        <time>2015-06-08T14:37:17Z</time>
      </trkpt>
      <trkpt lat="47.51477" lon="6.66757">
        <ele>378.5</ele>
        <time>2015-06-08T14:37:24Z</time>
      </trkpt>
      <trkpt lat="47.51476" lon="6.66755">
        <ele>378.6</ele>
        <time>2015-06-08T14:37:31Z</time>
      </trkpt>
      <trkpt lat="47.51475" lon="6.66754">
        <ele>378.7</ele>
        <time>2015-06-08T14:37:33Z</time>
      </trkpt>
      <trkpt lat="47.51474" lon="6.66752">
        <ele>378.8</ele>
        <time>2015-06-08T14:37:35Z</time>
      </trkpt>
      <trkpt lat="47.51474" lon="6.66751">
        <ele>378.9</ele>
        <time>2015-06-08T14:37:37Z</time>
      </trkpt>
      <trkpt lat="47.51473" lon="6.6675">
        <ele>379</ele>
        <time>2015-06-08T14:37:40Z</time>
      </trkpt>
      <trkpt lat="47.51472" lon="6.66749">
        <ele>379.2</ele>
        <time>2015-06-08T14:37:43Z</time>
      </trkpt>
      <trkpt lat="47.51472" lon="6.66747">
        <ele>379.7</ele>
        <time>2015-06-08T14:37:50Z</time>
      </trkpt>
      <trkpt lat="47.51472" lon="6.66746">
        <ele>380.2</ele>
        <time>2015-06-08T14:38:00Z</time>
      </trkpt>
      <trkpt lat="47.51473" lon="6.66745">
        <ele>380.4</ele>
        <time>2015-06-08T14:38:16Z</time>
      </trkpt>
      <trkpt lat="47.51474" lon="6.66747">
        <ele>380.4</ele>
        <time>2015-06-08T14:38:23Z</time>
      </trkpt>
      <trkpt lat="47.51475" lon="6.66747">
        <ele>380.4</ele>
        <time>2015-06-08T14:38:28Z</time>
      </trkpt>
      <trkpt lat="47.51475" lon="6.66748">
        <ele>380.4</ele>
        <time>2015-06-08T14:38:38Z</time>
      </trkpt>
      <trkpt lat="47.51474" lon="6.66749">
        <ele>380.3</ele>
        <time>2015-06-08T14:40:23Z</time>
      </trkpt>
      <trkpt lat="47.51476" lon="6.66748">
        <ele>380.4</ele>
        <time>2015-06-08T14:40:48Z</time>
      </trkpt>
      <trkpt lat="47.51477" lon="6.66746">
        <ele>380.4</ele>
        <time>2015-06-08T14:40:49Z</time>
      </trkpt>
      <trkpt lat="47.51479" lon="6.66741">
        <ele>380.3</ele>
        <time>2015-06-08T14:40:50Z</time>
      </trkpt>
      <trkpt lat="47.51481" lon="6.66736">
        <ele>380.2</ele>
        <time>2015-06-08T14:40:51Z</time>
      </trkpt>
      <trkpt lat="47.51484" lon="6.66731">
        <ele>380.1</ele>
        <time>2015-06-08T14:40:52Z</time>
      </trkpt>
      <trkpt lat="47.51487" lon="6.66726">
        <ele>379.9</ele>
        <time>2015-06-08T14:40:53Z</time>
      </trkpt>
      <trkpt lat="47.5149" lon="6.6672">
        <ele>379.7</ele>
        <time>2015-06-08T14:40:54Z</time>
      </trkpt>
      <trkpt lat="47.51493" lon="6.66715">
        <ele>379.3</ele>
        <time>2015-06-08T14:40:55Z</time>
      </trkpt>
      <trkpt lat="47.51497" lon="6.6671">
        <ele>378.7</ele>
        <time>2015-06-08T14:40:56Z</time>
      </trkpt>
      <trkpt lat="47.515" lon="6.66705">
        <ele>377.8</ele>
        <time>2015-06-08T14:40:57Z</time>
      </trkpt>
      <trkpt lat="47.51504" lon="6.66701">
        <ele>377.2</ele>
        <time>2015-06-08T14:40:58Z</time>
      </trkpt>
      <trkpt lat="47.51508" lon="6.66697">
        <ele>376.7</ele>
        <time>2015-06-08T14:40:59Z</time>
      </trkpt>
      <trkpt lat="47.51512" lon="6.66693">
        <ele>376.3</ele>
        <time>2015-06-08T14:41:00Z</time>
      </trkpt>
      <trkpt lat="47.51516" lon="6.66689">
        <ele>375.7</ele>
        <time>2015-06-08T14:41:01Z</time>
      </trkpt>
      <trkpt lat="47.51519" lon="6.66684">
        <ele>375.5</ele>
        <time>2015-06-08T14:41:02Z</time>
      </trkpt>
      <trkpt lat="47.51523" lon="6.6668">
        <ele>375.2</ele>
        <time>2015-06-08T14:41:03Z</time>
      </trkpt>
      <trkpt lat="47.51526" lon="6.66676">
        <ele>375.2</ele>
        <time>2015-06-08T14:41:04Z</time>
      </trkpt>
      <trkpt lat="47.51529" lon="6.66672">
        <ele>375.1</ele>
        <time>2015-06-08T14:41:05Z</time>
      </trkpt>
      <trkpt lat="47.51532" lon="6.66668">
        <ele>375</ele>
        <time>2015-06-08T14:41:06Z</time>
      </trkpt>
      <trkpt lat="47.51535" lon="6.66664">
        <ele>374.7</ele>
        <time>2015-06-08T14:41:07Z</time>
      </trkpt>
      <trkpt lat="47.51538" lon="6.6666">
        <ele>374.4</ele>
        <time>2015-06-08T14:41:08Z</time>
      </trkpt>
      <trkpt lat="47.5154" lon="6.66656">
        <ele>374.1</ele>
        <time>2015-06-08T14:41:09Z</time>
      </trkpt>
      <trkpt lat="47.51542" lon="6.66651">
        <ele>373.6</ele>
        <time>2015-06-08T14:41:10Z</time>
      </trkpt>
      <trkpt lat="47.51542" lon="6.66645">
        <ele>373.5</ele>
        <time>2015-06-08T14:41:11Z</time>
      </trkpt>
      <trkpt lat="47.51539" lon="6.66638">
        <ele>373</ele>
        <time>2015-06-08T14:41:12Z</time>
      </trkpt>
      <trkpt lat="47.51534" lon="6.66633">
        <ele>372.2</ele>
        <time>2015-06-08T14:41:13Z</time>
      </trkpt>
      <trkpt lat="47.51528" lon="6.66629">
        <ele>371.8</ele>
        <time>2015-06-08T14:41:14Z</time>
      </trkpt>
      <trkpt lat="47.51522" lon="6.66628">
        <ele>371.3</ele>
        <time>2015-06-08T14:41:15Z</time>
      </trkpt>
      <trkpt lat="47.51516" lon="6.66629">
        <ele>370.9</ele>
        <time>2015-06-08T14:41:16Z</time>
      </trkpt>
      <trkpt lat="47.51511" lon="6.66631">
        <ele>370.5</ele>
        <time>2015-06-08T14:41:17Z</time>
      </trkpt>
      <trkpt lat="47.51507" lon="6.66634">
        <ele>370.2</ele>
        <time>2015-06-08T14:41:18Z</time>
      </trkpt>
      <trkpt lat="47.51502" lon="6.66638">
        <ele>370.1</ele>
        <time>2015-06-08T14:41:19Z</time>
      </trkpt>
      <trkpt lat="47.51497" lon="6.66641">
        <ele>370</ele>
        <time>2015-06-08T14:41:20Z</time>
      </trkpt>
      <trkpt lat="47.51493" lon="6.66645">
        <ele>369.8</ele>
        <time>2015-06-08T14:41:21Z</time>
      </trkpt>
      <trkpt lat="47.51488" lon="6.66649">
        <ele>369.6</ele>
        <time>2015-06-08T14:41:22Z</time>
      </trkpt>
      <trkpt lat="47.51484" lon="6.66653">
        <ele>369.3</ele>
        <time>2015-06-08T14:41:23Z</time>
      </trkpt>
      <trkpt lat="47.5148" lon="6.66657">
        <ele>369.1</ele>
        <time>2015-06-08T14:41:24Z</time>
      </trkpt>
      <trkpt lat="47.51476" lon="6.66662">
        <ele>368.9</ele>
        <time>2015-06-08T14:41:25Z</time>
      </trkpt>
      <trkpt lat="47.51471" lon="6.66667">
        <ele>369.1</ele>
        <time>2015-06-08T14:41:26Z</time>
      </trkpt>
      <trkpt lat="47.51466" lon="6.66671">
        <ele>368.8</ele>
        <time>2015-06-08T14:41:27Z</time>
      </trkpt>
      <trkpt lat="47.51461" lon="6.66674">
        <ele>368.5</ele>
        <time>2015-06-08T14:41:28Z</time>
      </trkpt>
      <trkpt lat="47.51456" lon="6.66678">
        <ele>368.1</ele>
        <time>2015-06-08T14:41:29Z</time>
      </trkpt>
      <trkpt lat="47.5145" lon="6.66682">
        <ele>367.9</ele>
        <time>2015-06-08T14:41:30Z</time>
      </trkpt>
      <trkpt lat="47.51445" lon="6.66686">
        <ele>367.9</ele>
        <time>2015-06-08T14:41:31Z</time>
      </trkpt>
      <trkpt lat="47.5144" lon="6.6669">
        <ele>367.5</ele>
        <time>2015-06-08T14:41:32Z</time>
      </trkpt>
      <trkpt lat="47.51435" lon="6.66694">
        <ele>367.3</ele>
        <time>2015-06-08T14:41:33Z</time>
      </trkpt>
      <trkpt lat="47.51431" lon="6.66698">
        <ele>366.9</ele>
        <time>2015-06-08T14:41:34Z</time>
      </trkpt>
      <trkpt lat="47.51426" lon="6.66702">
        <ele>366.5</ele>
        <time>2015-06-08T14:41:35Z</time>
      </trkpt>
      <trkpt lat="47.51421" lon="6.66706">
        <ele>366.2</ele>
        <time>2015-06-08T14:41:36Z</time>
      </trkpt>
      <trkpt lat="47.51416" lon="6.6671">
        <ele>366.1</ele>
        <time>2015-06-08T14:41:37Z</time>
      </trkpt>
      <trkpt lat="47.51411" lon="6.66714">
        <ele>366</ele>
        <time>2015-06-08T14:41:38Z</time>
      </trkpt>
      <trkpt lat="47.51407" lon="6.66718">
        <ele>365.8</ele>
        <time>2015-06-08T14:41:39Z</time>
      </trkpt>
      <trkpt lat="47.51402" lon="6.66722">
        <ele>365.5</ele>
        <time>2015-06-08T14:41:40Z</time>
      </trkpt>
      <trkpt lat="47.51398" lon="6.66726">
        <ele>365.4</ele>
        <time>2015-06-08T14:41:41Z</time>
      </trkpt>
      <trkpt lat="47.51393" lon="6.6673">
        <ele>365.5</ele>
        <time>2015-06-08T14:41:42Z</time>
      </trkpt>
      <trkpt lat="47.51389" lon="6.66734">
        <ele>365.4</ele>
        <time>2015-06-08T14:41:43Z</time>
      </trkpt>
      <trkpt lat="47.51384" lon="6.66739">
        <ele>366.4</ele>
        <time>2015-06-08T14:41:44Z</time>
      </trkpt>
      <trkpt lat="47.5138" lon="6.66742">
        <ele>366.4</ele>
        <time>2015-06-08T14:41:45Z</time>
      </trkpt>
      <trkpt lat="47.51375" lon="6.66746">
        <ele>366.3</ele>
        <time>2015-06-08T14:41:46Z</time>
      </trkpt>
      <trkpt lat="47.51371" lon="6.66749">
        <ele>366.2</ele>
        <time>2015-06-08T14:41:47Z</time>
      </trkpt>
      <trkpt lat="47.51366" lon="6.66752">
        <ele>366.1</ele>
        <time>2015-06-08T14:41:48Z</time>
      </trkpt>
      <trkpt lat="47.51361" lon="6.66755">
        <ele>366</ele>
        <time>2015-06-08T14:41:49Z</time>
      </trkpt>
      <trkpt lat="47.51357" lon="6.66759">
        <ele>365.9</ele>
        <time>2015-06-08T14:41:50Z</time>
      </trkpt>
      <trkpt lat="47.51352" lon="6.66763">
        <ele>366</ele>
        <time>2015-06-08T14:41:51Z</time>
      </trkpt>
      <trkpt lat="47.51347" lon="6.66766">
        <ele>365.9</ele>
        <time>2015-06-08T14:41:52Z</time>
      </trkpt>
      <trkpt lat="47.51342" lon="6.66769">
        <ele>365.8</ele>
        <time>2015-06-08T14:41:53Z</time>
      </trkpt>
      <trkpt lat="47.51337" lon="6.66772">
        <ele>365.7</ele>
        <time>2015-06-08T14:41:54Z</time>
      </trkpt>
      <trkpt lat="47.51332" lon="6.66775">
        <ele>365.6</ele>
        <time>2015-06-08T14:41:55Z</time>
      </trkpt>
      <trkpt lat="47.51327" lon="6.66778">
        <ele>365.5</ele>
        <time>2015-06-08T14:41:56Z</time>
      </trkpt>
      <trkpt lat="47.51322" lon="6.6678">
        <ele>365.5</ele>
        <time>2015-06-08T14:41:57Z</time>
      </trkpt>
      <trkpt lat="47.51317" lon="6.66783">
        <ele>365.5</ele>
        <time>2015-06-08T14:41:58Z</time>
      </trkpt>
      <trkpt lat="47.51312" lon="6.66785">
        <ele>365.4</ele>
        <time>2015-06-08T14:41:59Z</time>
      </trkpt>
      <trkpt lat="47.51307" lon="6.66788">
        <ele>365.3</ele>
        <time>2015-06-08T14:42:00Z</time>
      </trkpt>
      <trkpt lat="47.51302" lon="6.6679">
        <ele>365.2</ele>
        <time>2015-06-08T14:42:01Z</time>
      </trkpt>
      <trkpt lat="47.51297" lon="6.66793">
        <ele>365</ele>
        <time>2015-06-08T14:42:02Z</time>
      </trkpt>
      <trkpt lat="47.51292" lon="6.66795">
        <ele>365</ele>
        <time>2015-06-08T14:42:03Z</time>
      </trkpt>
      <trkpt lat="47.51287" lon="6.66798">
        <ele>364.9</ele>
        <time>2015-06-08T14:42:04Z</time>
      </trkpt>
      <trkpt lat="47.51282" lon="6.66801">
        <ele>364.9</ele>
        <time>2015-06-08T14:42:05Z</time>
      </trkpt>
      <trkpt lat="47.51276" lon="6.66803">
        <ele>364.9</ele>
        <time>2015-06-08T14:42:06Z</time>
      </trkpt>
      <trkpt lat="47.51271" lon="6.66806">
        <ele>364.9</ele>
        <time>2015-06-08T14:42:07Z</time>
      </trkpt>
      <trkpt lat="47.51266" lon="6.66809">
        <ele>364.8</ele>
        <time>2015-06-08T14:42:08Z</time>
      </trkpt>
      <trkpt lat="47.51261" lon="6.66812">
        <ele>364.8</ele>
        <time>2015-06-08T14:42:09Z</time>
      </trkpt>
      <trkpt lat="47.51256" lon="6.66815">
        <ele>364.8</ele>
        <time>2015-06-08T14:42:10Z</time>
      </trkpt>
      <trkpt lat="47.51251" lon="6.66818">
        <ele>364.7</ele>
        <time>2015-06-08T14:42:11Z</time>
      </trkpt>
      <trkpt lat="47.51246" lon="6.6682">
        <ele>364.7</ele>
        <time>2015-06-08T14:42:12Z</time>
      </trkpt>
      <trkpt lat="47.51241" lon="6.66823">
        <ele>364.7</ele>
        <time>2015-06-08T14:42:13Z</time>
      </trkpt>
      <trkpt lat="47.51236" lon="6.66825">
        <ele>364.8</ele>
        <time>2015-06-08T14:42:14Z</time>
      </trkpt>
      <trkpt lat="47.51231" lon="6.66828">
        <ele>364.8</ele>
        <time>2015-06-08T14:42:15Z</time>
      </trkpt>
      <trkpt lat="47.51226" lon="6.66831">
        <ele>364.8</ele>
        <time>2015-06-08T14:42:16Z</time>
      </trkpt>
      <trkpt lat="47.51221" lon="6.66833">
        <ele>364.8</ele>
        <time>2015-06-08T14:42:17Z</time>
      </trkpt>
      <trkpt lat="47.51217" lon="6.66836">
        <ele>364.8</ele>
        <time>2015-06-08T14:42:18Z</time>
      </trkpt>
      <trkpt lat="47.51212" lon="6.66838">
        <ele>364.9</ele>
        <time>2015-06-08T14:42:19Z</time>
      </trkpt>
      <trkpt lat="47.51207" lon="6.6684">
        <ele>364.9</ele>
        <time>2015-06-08T14:42:20Z</time>
      </trkpt>
      <trkpt lat="47.51202" lon="6.66843">
        <ele>364.9</ele>
        <time>2015-06-08T14:42:21Z</time>
      </trkpt>
      <trkpt lat="47.51197" lon="6.66845">
        <ele>365</ele>
        <time>2015-06-08T14:42:22Z</time>
      </trkpt>
      <trkpt lat="47.51192" lon="6.66848">
        <ele>365.1</ele>
        <time>2015-06-08T14:42:23Z</time>
      </trkpt>
      <trkpt lat="47.51188" lon="6.6685">
        <ele>365.2</ele>
        <time>2015-06-08T14:42:24Z</time>
      </trkpt>
      <trkpt lat="47.51183" lon="6.66853">
        <ele>365.2</ele>
        <time>2015-06-08T14:42:25Z</time>
      </trkpt>
      <trkpt lat="47.51178" lon="6.66855">
        <ele>365.3</ele>
        <time>2015-06-08T14:42:26Z</time>
      </trkpt>
      <trkpt lat="47.51173" lon="6.66858">
        <ele>365.4</ele>
        <time>2015-06-08T14:42:27Z</time>
      </trkpt>
      <trkpt lat="47.51169" lon="6.6686">
        <ele>365.5</ele>
        <time>2015-06-08T14:42:28Z</time>
      </trkpt>
      <trkpt lat="47.51164" lon="6.66863">
        <ele>365.6</ele>
        <time>2015-06-08T14:42:29Z</time>
      </trkpt>
      <trkpt lat="47.51155" lon="6.66868">
        <ele>365.7</ele>
        <time>2015-06-08T14:42:31Z</time>
      </trkpt>
      <trkpt lat="47.51151" lon="6.66871">
        <ele>365.8</ele>
        <time>2015-06-08T14:42:32Z</time>
      </trkpt>
      <trkpt lat="47.51146" lon="6.66874">
        <ele>365.9</ele>
        <time>2015-06-08T14:42:33Z</time>
      </trkpt>
      <trkpt lat="47.51141" lon="6.66877">
        <ele>366.1</ele>
        <time>2015-06-08T14:42:34Z</time>
      </trkpt>
      <trkpt lat="47.51137" lon="6.6688">
        <ele>366.2</ele>
        <time>2015-06-08T14:42:35Z</time>
      </trkpt>
      <trkpt lat="47.51132" lon="6.66884">
        <ele>366.3</ele>
        <time>2015-06-08T14:42:36Z</time>
      </trkpt>
      <trkpt lat="47.51128" lon="6.66888">
        <ele>366.3</ele>
        <time>2015-06-08T14:42:37Z</time>
      </trkpt>
      <trkpt lat="47.51124" lon="6.66892">
        <ele>366.3</ele>
        <time>2015-06-08T14:42:38Z</time>
      </trkpt>
      <trkpt lat="47.5112" lon="6.66896">
        <ele>366.4</ele>
        <time>2015-06-08T14:42:39Z</time>
      </trkpt>
      <trkpt lat="47.51116" lon="6.669">
        <ele>366.5</ele>
        <time>2015-06-08T14:42:40Z</time>
      </trkpt>
      <trkpt lat="47.51111" lon="6.66904">
        <ele>366.6</ele>
        <time>2015-06-08T14:42:41Z</time>
      </trkpt>
      <trkpt lat="47.51107" lon="6.66908">
        <ele>366.7</ele>
        <time>2015-06-08T14:42:42Z</time>
      </trkpt>
      <trkpt lat="47.51103" lon="6.66912">
        <ele>366.8</ele>
        <time>2015-06-08T14:42:43Z</time>
      </trkpt>
      <trkpt lat="47.51099" lon="6.66917">
        <ele>367</ele>
        <time>2015-06-08T14:42:44Z</time>
      </trkpt>
      <trkpt lat="47.51095" lon="6.66921">
        <ele>367.2</ele>
        <time>2015-06-08T14:42:45Z</time>
      </trkpt>
      <trkpt lat="47.51092" lon="6.66925">
        <ele>367.4</ele>
        <time>2015-06-08T14:42:46Z</time>
      </trkpt>
      <trkpt lat="47.51088" lon="6.66929">
        <ele>367.7</ele>
        <time>2015-06-08T14:42:47Z</time>
      </trkpt>
      <trkpt lat="47.51084" lon="6.66933">
        <ele>367.9</ele>
        <time>2015-06-08T14:42:48Z</time>
      </trkpt>
      <trkpt lat="47.5108" lon="6.66937">
        <ele>368</ele>
        <time>2015-06-08T14:42:49Z</time>
      </trkpt>
      <trkpt lat="47.51076" lon="6.66941">
        <ele>368.2</ele>
        <time>2015-06-08T14:42:50Z</time>
      </trkpt>
      <trkpt lat="47.51072" lon="6.66945">
        <ele>368.4</ele>
        <time>2015-06-08T14:42:51Z</time>
      </trkpt>
      <trkpt lat="47.51068" lon="6.66949">
        <ele>368.5</ele>
        <time>2015-06-08T14:42:52Z</time>
      </trkpt>
      <trkpt lat="47.51064" lon="6.66953">
        <ele>368.7</ele>
        <time>2015-06-08T14:42:53Z</time>
      </trkpt>
      <trkpt lat="47.51059" lon="6.66957">
        <ele>368.9</ele>
        <time>2015-06-08T14:42:54Z</time>
      </trkpt>
      <trkpt lat="47.51055" lon="6.66961">
        <ele>369</ele>
        <time>2015-06-08T14:42:55Z</time>
      </trkpt>
      <trkpt lat="47.51051" lon="6.66965">
        <ele>369.1</ele>
        <time>2015-06-08T14:42:56Z</time>
      </trkpt>
      <trkpt lat="47.51047" lon="6.66968">
        <ele>369.2</ele>
        <time>2015-06-08T14:42:57Z</time>
      </trkpt>
      <trkpt lat="47.51043" lon="6.66972">
        <ele>369.1</ele>
        <time>2015-06-08T14:42:58Z</time>
      </trkpt>
      <trkpt lat="47.51039" lon="6.66976">
        <ele>368.9</ele>
        <time>2015-06-08T14:42:59Z</time>
      </trkpt>
      <trkpt lat="47.51034" lon="6.6698">
        <ele>368.7</ele>
        <time>2015-06-08T14:43:00Z</time>
      </trkpt>
      <trkpt lat="47.5103" lon="6.66984">
        <ele>368.5</ele>
        <time>2015-06-08T14:43:01Z</time>
      </trkpt>
      <trkpt lat="47.51025" lon="6.66988">
        <ele>368.4</ele>
        <time>2015-06-08T14:43:02Z</time>
      </trkpt>
      <trkpt lat="47.5102" lon="6.66992">
        <ele>368.2</ele>
        <time>2015-06-08T14:43:03Z</time>
      </trkpt>
      <trkpt lat="47.51016" lon="6.66997">
        <ele>368.1</ele>
        <time>2015-06-08T14:43:04Z</time>
      </trkpt>
      <trkpt lat="47.5101" lon="6.67001">
        <ele>367.9</ele>
        <time>2015-06-08T14:43:05Z</time>
      </trkpt>
      <trkpt lat="47.51005" lon="6.67005">
        <ele>367.7</ele>
        <time>2015-06-08T14:43:06Z</time>
      </trkpt>
      <trkpt lat="47.51" lon="6.67009">
        <ele>367.5</ele>
        <time>2015-06-08T14:43:07Z</time>
      </trkpt>
      <trkpt lat="47.50994" lon="6.67013">
        <ele>367.2</ele>
        <time>2015-06-08T14:43:08Z</time>
      </trkpt>
      <trkpt lat="47.50988" lon="6.67018">
        <ele>367</ele>
        <time>2015-06-08T14:43:09Z</time>
      </trkpt>
      <trkpt lat="47.50983" lon="6.67023">
        <ele>366.8</ele>
        <time>2015-06-08T14:43:10Z</time>
      </trkpt>
      <trkpt lat="47.50977" lon="6.67027">
        <ele>366.6</ele>
        <time>2015-06-08T14:43:11Z</time>
      </trkpt>
      <trkpt lat="47.50971" lon="6.67032">
        <ele>366.4</ele>
        <time>2015-06-08T14:43:12Z</time>
      </trkpt>
      <trkpt lat="47.50965" lon="6.67037">
        <ele>366.2</ele>
        <time>2015-06-08T14:43:13Z</time>
      </trkpt>
      <trkpt lat="47.50959" lon="6.67041">
        <ele>365.9</ele>
        <time>2015-06-08T14:43:14Z</time>
      </trkpt>
      <trkpt lat="47.50953" lon="6.67046">
        <ele>365.7</ele>
        <time>2015-06-08T14:43:15Z</time>
      </trkpt>
      <trkpt lat="47.50948" lon="6.6705">
        <ele>365.5</ele>
        <time>2015-06-08T14:43:16Z</time>
      </trkpt>
      <trkpt lat="47.50942" lon="6.67054">
        <ele>365.3</ele>
        <time>2015-06-08T14:43:17Z</time>
      </trkpt>
      <trkpt lat="47.50936" lon="6.67058">
        <ele>365</ele>
        <time>2015-06-08T14:43:18Z</time>
      </trkpt>
      <trkpt lat="47.5093" lon="6.67062">
        <ele>364.9</ele>
        <time>2015-06-08T14:43:19Z</time>
      </trkpt>
      <trkpt lat="47.50923" lon="6.67066">
        <ele>364.6</ele>
        <time>2015-06-08T14:43:20Z</time>
      </trkpt>
      <trkpt lat="47.50917" lon="6.67071">
        <ele>364.3</ele>
        <time>2015-06-08T14:43:21Z</time>
      </trkpt>
      <trkpt lat="47.5091" lon="6.67075">
        <ele>363.9</ele>
        <time>2015-06-08T14:43:22Z</time>
      </trkpt>
      <trkpt lat="47.50904" lon="6.6708">
        <ele>363.6</ele>
        <time>2015-06-08T14:43:23Z</time>
      </trkpt>
      <trkpt lat="47.50897" lon="6.67085">
        <ele>363.4</ele>
        <time>2015-06-08T14:43:24Z</time>
      </trkpt>
      <trkpt lat="47.5089" lon="6.6709">
        <ele>363.1</ele>
        <time>2015-06-08T14:43:25Z</time>
      </trkpt>
      <trkpt lat="47.50883" lon="6.67096">
        <ele>362.6</ele>
        <time>2015-06-08T14:43:26Z</time>
      </trkpt>
      <trkpt lat="47.50875" lon="6.67101">
        <ele>362.2</ele>
        <time>2015-06-08T14:43:27Z</time>
      </trkpt>
      <trkpt lat="47.50867" lon="6.67106">
        <ele>361.6</ele>
        <time>2015-06-08T14:43:28Z</time>
      </trkpt>
      <trkpt lat="47.50858" lon="6.67111">
        <ele>360.9</ele>
        <time>2015-06-08T14:43:29Z</time>
      </trkpt>
      <trkpt lat="47.50849" lon="6.67115">
        <ele>359.7</ele>
        <time>2015-06-08T14:43:30Z</time>
      </trkpt>
      <trkpt lat="47.50839" lon="6.67118">
        <ele>358.7</ele>
        <time>2015-06-08T14:43:31Z</time>
      </trkpt>
      <trkpt lat="47.50828" lon="6.67118">
        <ele>357.8</ele>
        <time>2015-06-08T14:43:32Z</time>
      </trkpt>
      <trkpt lat="47.50817" lon="6.67116">
        <ele>357.1</ele>
        <time>2015-06-08T14:43:33Z</time>
      </trkpt>
      <trkpt lat="47.50806" lon="6.67112">
        <ele>356.2</ele>
        <time>2015-06-08T14:43:34Z</time>
      </trkpt>
      <trkpt lat="47.50795" lon="6.67107">
        <ele>355.5</ele>
        <time>2015-06-08T14:43:35Z</time>
      </trkpt>
      <trkpt lat="47.50784" lon="6.671">
        <ele>354.8</ele>
        <time>2015-06-08T14:43:36Z</time>
      </trkpt>
      <trkpt lat="47.50774" lon="6.67091">
        <ele>354</ele>
        <time>2015-06-08T14:43:37Z</time>
      </trkpt>
      <trkpt lat="47.50764" lon="6.67082">
        <ele>353.1</ele>
        <time>2015-06-08T14:43:38Z</time>
      </trkpt>
      <trkpt lat="47.50754" lon="6.67071">
        <ele>352.4</ele>
        <time>2015-06-08T14:43:39Z</time>
      </trkpt>
      <trkpt lat="47.50744" lon="6.6706">
        <ele>351.8</ele>
        <time>2015-06-08T14:43:40Z</time>
      </trkpt>
      <trkpt lat="47.50733" lon="6.67051">
        <ele>351.4</ele>
        <time>2015-06-08T14:43:41Z</time>
      </trkpt>
      <trkpt lat="47.50722" lon="6.67045">
        <ele>351.2</ele>
        <time>2015-06-08T14:43:42Z</time>
      </trkpt>
      <trkpt lat="47.5071" lon="6.67043">
        <ele>351</ele>
        <time>2015-06-08T14:43:43Z</time>
      </trkpt>
      <trkpt lat="47.50698" lon="6.67043">
        <ele>350.8</ele>
        <time>2015-06-08T14:43:44Z</time>
      </trkpt>
      <trkpt lat="47.50686" lon="6.67046">
        <ele>350.3</ele>
        <time>2015-06-08T14:43:45Z</time>
      </trkpt>
      <trkpt lat="47.50677" lon="6.67052">
        <ele>350.3</ele>
        <time>2015-06-08T14:43:46Z</time>
      </trkpt>
      <trkpt lat="47.50667" lon="6.67057">
        <ele>350.1</ele>
        <time>2015-06-08T14:43:47Z</time>
      </trkpt>
      <trkpt lat="47.50657" lon="6.67061">
        <ele>349.8</ele>
        <time>2015-06-08T14:43:48Z</time>
      </trkpt>
      <trkpt lat="47.50647" lon="6.67066">
        <ele>349.6</ele>
        <time>2015-06-08T14:43:49Z</time>
      </trkpt>
      <trkpt lat="47.50637" lon="6.67069">
        <ele>349.4</ele>
        <time>2015-06-08T14:43:50Z</time>
      </trkpt>
      <trkpt lat="47.50628" lon="6.6707">
        <ele>349</ele>
        <time>2015-06-08T14:43:51Z</time>
      </trkpt>
      <trkpt lat="47.50619" lon="6.6707">
        <ele>348.7</ele>
        <time>2015-06-08T14:43:52Z</time>
      </trkpt>
      <trkpt lat="47.5061" lon="6.67069">
        <ele>348.3</ele>
        <time>2015-06-08T14:43:53Z</time>
      </trkpt>
      <trkpt lat="47.50601" lon="6.67067">
        <ele>348.4</ele>
        <time>2015-06-08T14:43:54Z</time>
      </trkpt>
      <trkpt lat="47.50592" lon="6.67065">
        <ele>348.7</ele>
        <time>2015-06-08T14:43:55Z</time>
      </trkpt>
      <trkpt lat="47.50584" lon="6.67061">
        <ele>348.6</ele>
        <time>2015-06-08T14:43:56Z</time>
      </trkpt>
      <trkpt lat="47.50576" lon="6.67056">
        <ele>348.2</ele>
        <time>2015-06-08T14:43:57Z</time>
      </trkpt>
      <trkpt lat="47.50569" lon="6.6705">
        <ele>348.2</ele>
        <time>2015-06-08T14:43:58Z</time>
      </trkpt>
      <trkpt lat="47.50561" lon="6.67043">
        <ele>348.3</ele>
        <time>2015-06-08T14:43:59Z</time>
      </trkpt>
      <trkpt lat="47.50554" lon="6.67036">
        <ele>348.3</ele>
        <time>2015-06-08T14:44:00Z</time>
      </trkpt>
      <trkpt lat="47.50548" lon="6.67027">
        <ele>348.1</ele>
        <time>2015-06-08T14:44:01Z</time>
      </trkpt>
      <trkpt lat="47.50541" lon="6.67018">
        <ele>348</ele>
        <time>2015-06-08T14:44:02Z</time>
      </trkpt>
      <trkpt lat="47.50535" lon="6.67009">
        <ele>348.1</ele>
        <time>2015-06-08T14:44:03Z</time>
      </trkpt>
      <trkpt lat="47.50529" lon="6.67">
        <ele>348.1</ele>
        <time>2015-06-08T14:44:04Z</time>
      </trkpt>
      <trkpt lat="47.50523" lon="6.6699">
        <ele>348.1</ele>
        <time>2015-06-08T14:44:05Z</time>
      </trkpt>
      <trkpt lat="47.50517" lon="6.66981">
        <ele>348.2</ele>
        <time>2015-06-08T14:44:06Z</time>
      </trkpt>
      <trkpt lat="47.50511" lon="6.66972">
        <ele>348.2</ele>
        <time>2015-06-08T14:44:07Z</time>
      </trkpt>
      <trkpt lat="47.50505" lon="6.66964">
        <ele>348.1</ele>
        <time>2015-06-08T14:44:08Z</time>
      </trkpt>
      <trkpt lat="47.50499" lon="6.66955">
        <ele>348.1</ele>
        <time>2015-06-08T14:44:09Z</time>
      </trkpt>
      <trkpt lat="47.50493" lon="6.66946">
        <ele>348.1</ele>
        <time>2015-06-08T14:44:10Z</time>
      </trkpt>
      <trkpt lat="47.50487" lon="6.66938">
        <ele>348.2</ele>
        <time>2015-06-08T14:44:11Z</time>
      </trkpt>
      <trkpt lat="47.50481" lon="6.6693">
        <ele>348.3</ele>
        <time>2015-06-08T14:44:12Z</time>
      </trkpt>
      <trkpt lat="47.50475" lon="6.66922">
        <ele>348.3</ele>
        <time>2015-06-08T14:44:13Z</time>
      </trkpt>
      <trkpt lat="47.50468" lon="6.66916">
        <ele>348.2</ele>
        <time>2015-06-08T14:44:14Z</time>
      </trkpt>
      <trkpt lat="47.50462" lon="6.6691">
        <ele>348.2</ele>
        <time>2015-06-08T14:44:15Z</time>
      </trkpt>
      <trkpt lat="47.50456" lon="6.66904">
        <ele>348.2</ele>
        <time>2015-06-08T14:44:16Z</time>
      </trkpt>
      <trkpt lat="47.5045" lon="6.66899">
        <ele>348.3</ele>
        <time>2015-06-08T14:44:17Z</time>
      </trkpt>
      <trkpt lat="47.50444" lon="6.66893">
        <ele>348.4</ele>
        <time>2015-06-08T14:44:18Z</time>
      </trkpt>
      <trkpt lat="47.5044" lon="6.66888">
        <ele>348.2</ele>
        <time>2015-06-08T14:44:19Z</time>
      </trkpt>
      <trkpt lat="47.50434" lon="6.66883">
        <ele>348.1</ele>
        <time>2015-06-08T14:44:20Z</time>
      </trkpt>
      <trkpt lat="47.50428" lon="6.66877">
        <ele>347.9</ele>
        <time>2015-06-08T14:44:21Z</time>
      </trkpt>
      <trkpt lat="47.50423" lon="6.66871">
        <ele>347.7</ele>
        <time>2015-06-08T14:44:22Z</time>
      </trkpt>
      <trkpt lat="47.50417" lon="6.66865">
        <ele>347.4</ele>
        <time>2015-06-08T14:44:23Z</time>
      </trkpt>
      <trkpt lat="47.50411" lon="6.66859">
        <ele>347.1</ele>
        <time>2015-06-08T14:44:24Z</time>
      </trkpt>
      <trkpt lat="47.50406" lon="6.66853">
        <ele>346.9</ele>
        <time>2015-06-08T14:44:25Z</time>
      </trkpt>
      <trkpt lat="47.50401" lon="6.66847">
        <ele>346.7</ele>
        <time>2015-06-08T14:44:26Z</time>
      </trkpt>
      <trkpt lat="47.50397" lon="6.66839">
        <ele>346.5</ele>
        <time>2015-06-08T14:44:27Z</time>
      </trkpt>
      <trkpt lat="47.50392" lon="6.6683">
        <ele>346.3</ele>
        <time>2015-06-08T14:44:28Z</time>
      </trkpt>
      <trkpt lat="47.50389" lon="6.66821">
        <ele>346</ele>
        <time>2015-06-08T14:44:29Z</time>
      </trkpt>
      <trkpt lat="47.50386" lon="6.66812">
        <ele>345.8</ele>
        <time>2015-06-08T14:44:30Z</time>
      </trkpt>
      <trkpt lat="47.50383" lon="6.66802">
        <ele>345.8</ele>
        <time>2015-06-08T14:44:31Z</time>
      </trkpt>
      <trkpt lat="47.50379" lon="6.66793">
        <ele>346</ele>
        <time>2015-06-08T14:44:32Z</time>
      </trkpt>
      <trkpt lat="47.50377" lon="6.66784">
        <ele>346</ele>
        <time>2015-06-08T14:44:33Z</time>
      </trkpt>
      <trkpt lat="47.50373" lon="6.66775">
        <ele>346.1</ele>
        <time>2015-06-08T14:44:34Z</time>
      </trkpt>
      <trkpt lat="47.5037" lon="6.66765">
        <ele>346.3</ele>
        <time>2015-06-08T14:44:35Z</time>
      </trkpt>
      <trkpt lat="47.50367" lon="6.66756">
        <ele>346.1</ele>
        <time>2015-06-08T14:44:36Z</time>
      </trkpt>
      <trkpt lat="47.50364" lon="6.66747">
        <ele>345.8</ele>
        <time>2015-06-08T14:44:37Z</time>
      </trkpt>
      <trkpt lat="47.50362" lon="6.66739">
        <ele>345.4</ele>
        <time>2015-06-08T14:44:38Z</time>
      </trkpt>
      <trkpt lat="47.50359" lon="6.66731">
        <ele>345.1</ele>
        <time>2015-06-08T14:44:39Z</time>
      </trkpt>
      <trkpt lat="47.50356" lon="6.66723">
        <ele>344.9</ele>
        <time>2015-06-08T14:44:40Z</time>
      </trkpt>
      <trkpt lat="47.50354" lon="6.66715">
        <ele>344.6</ele>
        <time>2015-06-08T14:44:41Z</time>
      </trkpt>
      <trkpt lat="47.50352" lon="6.66708">
        <ele>344.3</ele>
        <time>2015-06-08T14:44:42Z</time>
      </trkpt>
      <trkpt lat="47.50349" lon="6.667">
        <ele>344.1</ele>
        <time>2015-06-08T14:44:43Z</time>
      </trkpt>
      <trkpt lat="47.50347" lon="6.66693">
        <ele>343.8</ele>
        <time>2015-06-08T14:44:44Z</time>
      </trkpt>
      <trkpt lat="47.50344" lon="6.66685">
        <ele>343.6</ele>
        <time>2015-06-08T14:44:45Z</time>
      </trkpt>
      <trkpt lat="47.50342" lon="6.66678">
        <ele>343.2</ele>
        <time>2015-06-08T14:44:46Z</time>
      </trkpt>
      <trkpt lat="47.5034" lon="6.6667">
        <ele>343</ele>
        <time>2015-06-08T14:44:47Z</time>
      </trkpt>
      <trkpt lat="47.50338" lon="6.66663">
        <ele>342.9</ele>
        <time>2015-06-08T14:44:48Z</time>
      </trkpt>
      <trkpt lat="47.50336" lon="6.66657">
        <ele>342.7</ele>
        <time>2015-06-08T14:44:49Z</time>
      </trkpt>
      <trkpt lat="47.50334" lon="6.6665">
        <ele>342.5</ele>
        <time>2015-06-08T14:44:50Z</time>
      </trkpt>
      <trkpt lat="47.50331" lon="6.66644">
        <ele>342.3</ele>
        <time>2015-06-08T14:44:51Z</time>
      </trkpt>
      <trkpt lat="47.50327" lon="6.66637">
        <ele>342</ele>
        <time>2015-06-08T14:44:52Z</time>
      </trkpt>
      <trkpt lat="47.50323" lon="6.6663">
        <ele>341.6</ele>
        <time>2015-06-08T14:44:53Z</time>
      </trkpt>
      <trkpt lat="47.50319" lon="6.66623">
        <ele>341.2</ele>
        <time>2015-06-08T14:44:54Z</time>
      </trkpt>
      <trkpt lat="47.50313" lon="6.66615">
        <ele>340.8</ele>
        <time>2015-06-08T14:44:55Z</time>
      </trkpt>
      <trkpt lat="47.50309" lon="6.66608">
        <ele>340.3</ele>
        <time>2015-06-08T14:44:56Z</time>
      </trkpt>
      <trkpt lat="47.50305" lon="6.66601">
        <ele>339.9</ele>
        <time>2015-06-08T14:44:57Z</time>
      </trkpt>
      <trkpt lat="47.50301" lon="6.66594">
        <ele>339.4</ele>
        <time>2015-06-08T14:44:58Z</time>
      </trkpt>
      <trkpt lat="47.50297" lon="6.66587">
        <ele>339</ele>
        <time>2015-06-08T14:44:59Z</time>
      </trkpt>
      <trkpt lat="47.50294" lon="6.6658">
        <ele>338.5</ele>
        <time>2015-06-08T14:45:00Z</time>
      </trkpt>
      <trkpt lat="47.50288" lon="6.66572">
        <ele>338.2</ele>
        <time>2015-06-08T14:45:01Z</time>
      </trkpt>
      <trkpt lat="47.50282" lon="6.66564">
        <ele>337.7</ele>
        <time>2015-06-08T14:45:02Z</time>
      </trkpt>
      <trkpt lat="47.50274" lon="6.66557">
        <ele>337.3</ele>
        <time>2015-06-08T14:45:03Z</time>
      </trkpt>
      <trkpt lat="47.50268" lon="6.66549">
        <ele>336.9</ele>
        <time>2015-06-08T14:45:04Z</time>
      </trkpt>
      <trkpt lat="47.50263" lon="6.66541">
        <ele>336.6</ele>
        <time>2015-06-08T14:45:05Z</time>
      </trkpt>
      <trkpt lat="47.5026" lon="6.66534">
        <ele>336.3</ele>
        <time>2015-06-08T14:45:06Z</time>
      </trkpt>
      <trkpt lat="47.50258" lon="6.66526">
        <ele>336.1</ele>
        <time>2015-06-08T14:45:07Z</time>
      </trkpt>
      <trkpt lat="47.50256" lon="6.66518">
        <ele>335.9</ele>
        <time>2015-06-08T14:45:08Z</time>
      </trkpt>
      <trkpt lat="47.50254" lon="6.66512">
        <ele>336.5</ele>
        <time>2015-06-08T14:45:09Z</time>
      </trkpt>
      <trkpt lat="47.50252" lon="6.66506">
        <ele>336.6</ele>
        <time>2015-06-08T14:45:10Z</time>
      </trkpt>
      <trkpt lat="47.50251" lon="6.665">
        <ele>336.1</ele>
        <time>2015-06-08T14:45:11Z</time>
      </trkpt>
      <trkpt lat="47.50249" lon="6.66494">
        <ele>337</ele>
        <time>2015-06-08T14:45:12Z</time>
      </trkpt>
      <trkpt lat="47.50248" lon="6.66488">
        <ele>338</ele>
        <time>2015-06-08T14:45:13Z</time>
      </trkpt>
      <trkpt lat="47.50247" lon="6.66482">
        <ele>338.7</ele>
        <time>2015-06-08T14:45:14Z</time>
      </trkpt>
      <trkpt lat="47.50247" lon="6.66476">
        <ele>339.3</ele>
        <time>2015-06-08T14:45:15Z</time>
      </trkpt>
      <trkpt lat="47.50247" lon="6.6647">
        <ele>339.7</ele>
        <time>2015-06-08T14:45:16Z</time>
      </trkpt>
      <trkpt lat="47.50248" lon="6.66463">
        <ele>340</ele>
        <time>2015-06-08T14:45:17Z</time>
      </trkpt>
      <trkpt lat="47.50249" lon="6.66457">
        <ele>340.5</ele>
        <time>2015-06-08T14:45:18Z</time>
      </trkpt>
      <trkpt lat="47.5025" lon="6.66451">
        <ele>341</ele>
        <time>2015-06-08T14:45:19Z</time>
      </trkpt>
      <trkpt lat="47.50251" lon="6.66445">
        <ele>341.4</ele>
        <time>2015-06-08T14:45:20Z</time>
      </trkpt>
      <trkpt lat="47.50252" lon="6.66439">
        <ele>341.8</ele>
        <time>2015-06-08T14:45:21Z</time>
      </trkpt>
      <trkpt lat="47.50254" lon="6.66433">
        <ele>342.3</ele>
        <time>2015-06-08T14:45:22Z</time>
      </trkpt>
      <trkpt lat="47.50255" lon="6.66427">
        <ele>343</ele>
        <time>2015-06-08T14:45:23Z</time>
      </trkpt>
      <trkpt lat="47.50256" lon="6.66421">
        <ele>343.8</ele>
        <time>2015-06-08T14:45:24Z</time>
      </trkpt>
      <trkpt lat="47.50258" lon="6.66416">
        <ele>344.3</ele>
        <time>2015-06-08T14:45:25Z</time>
      </trkpt>
      <trkpt lat="47.5026" lon="6.6641">
        <ele>344.7</ele>
        <time>2015-06-08T14:45:26Z</time>
      </trkpt>
      <trkpt lat="47.50261" lon="6.66405">
        <ele>345.5</ele>
        <time>2015-06-08T14:45:27Z</time>
      </trkpt>
      <trkpt lat="47.50263" lon="6.664">
        <ele>346.2</ele>
        <time>2015-06-08T14:45:28Z</time>
      </trkpt>
      <trkpt lat="47.50264" lon="6.66394">
        <ele>347</ele>
        <time>2015-06-08T14:45:29Z</time>
      </trkpt>
      <trkpt lat="47.50265" lon="6.66389">
        <ele>347.7</ele>
        <time>2015-06-08T14:45:30Z</time>
      </trkpt>
      <trkpt lat="47.50267" lon="6.66384">
        <ele>348.6</ele>
        <time>2015-06-08T14:45:31Z</time>
      </trkpt>
      <trkpt lat="47.50267" lon="6.66378">
        <ele>349.4</ele>
        <time>2015-06-08T14:45:32Z</time>
      </trkpt>
      <trkpt lat="47.50268" lon="6.66373">
        <ele>350.2</ele>
        <time>2015-06-08T14:45:33Z</time>
      </trkpt>
      <trkpt lat="47.50268" lon="6.66367">
        <ele>350.9</ele>
        <time>2015-06-08T14:45:34Z</time>
      </trkpt>
      <trkpt lat="47.50268" lon="6.66361">
        <ele>351.7</ele>
        <time>2015-06-08T14:45:35Z</time>
      </trkpt>
      <trkpt lat="47.50268" lon="6.66355">
        <ele>352.4</ele>
        <time>2015-06-08T14:45:36Z</time>
      </trkpt>
      <trkpt lat="47.50268" lon="6.6635">
        <ele>352.9</ele>
        <time>2015-06-08T14:45:37Z</time>
      </trkpt>
      <trkpt lat="47.50268" lon="6.66344">
        <ele>353.5</ele>
        <time>2015-06-08T14:45:38Z</time>
      </trkpt>
      <trkpt lat="47.50268" lon="6.66339">
        <ele>354.2</ele>
        <time>2015-06-08T14:45:39Z</time>
      </trkpt>
      <trkpt lat="47.50268" lon="6.66333">
        <ele>354.8</ele>
        <time>2015-06-08T14:45:40Z</time>
      </trkpt>
      <trkpt lat="47.50267" lon="6.66328">
        <ele>355.8</ele>
        <time>2015-06-08T14:45:41Z</time>
      </trkpt>
      <trkpt lat="47.50267" lon="6.66322">
        <ele>356.5</ele>
        <time>2015-06-08T14:45:42Z</time>
      </trkpt>
      <trkpt lat="47.50266" lon="6.66316">
        <ele>357.2</ele>
        <time>2015-06-08T14:45:43Z</time>
      </trkpt>
      <trkpt lat="47.50265" lon="6.6631">
        <ele>357.8</ele>
        <time>2015-06-08T14:45:44Z</time>
      </trkpt>
      <trkpt lat="47.50264" lon="6.66304">
        <ele>358.5</ele>
        <time>2015-06-08T14:45:45Z</time>
      </trkpt>
      <trkpt lat="47.50263" lon="6.66299">
        <ele>359.4</ele>
        <time>2015-06-08T14:45:46Z</time>
      </trkpt>
      <trkpt lat="47.50261" lon="6.66293">
        <ele>359.9</ele>
        <time>2015-06-08T14:45:47Z</time>
      </trkpt>
      <trkpt lat="47.5026" lon="6.66288">
        <ele>360.4</ele>
        <time>2015-06-08T14:45:48Z</time>
      </trkpt>
      <trkpt lat="47.50259" lon="6.66283">
        <ele>360.8</ele>
        <time>2015-06-08T14:45:49Z</time>
      </trkpt>
      <trkpt lat="47.50258" lon="6.66277">
        <ele>361.4</ele>
        <time>2015-06-08T14:45:50Z</time>
      </trkpt>
      <trkpt lat="47.50256" lon="6.66272">
        <ele>361.8</ele>
        <time>2015-06-08T14:45:51Z</time>
      </trkpt>
      <trkpt lat="47.50255" lon="6.66267">
        <ele>362.3</ele>
        <time>2015-06-08T14:45:52Z</time>
      </trkpt>
      <trkpt lat="47.50253" lon="6.66262">
        <ele>362.5</ele>
        <time>2015-06-08T14:45:53Z</time>
      </trkpt>
      <trkpt lat="47.50251" lon="6.66257">
        <ele>362.7</ele>
        <time>2015-06-08T14:45:54Z</time>
      </trkpt>
      <trkpt lat="47.50249" lon="6.66251">
        <ele>362.8</ele>
        <time>2015-06-08T14:45:55Z</time>
      </trkpt>
      <trkpt lat="47.50248" lon="6.66247">
        <ele>363</ele>
        <time>2015-06-08T14:45:56Z</time>
      </trkpt>
      <trkpt lat="47.50246" lon="6.66242">
        <ele>363.2</ele>
        <time>2015-06-08T14:45:57Z</time>
      </trkpt>
      <trkpt lat="47.50244" lon="6.66237">
        <ele>363.4</ele>
        <time>2015-06-08T14:45:58Z</time>
      </trkpt>
      <trkpt lat="47.50243" lon="6.66232">
        <ele>363.6</ele>
        <time>2015-06-08T14:45:59Z</time>
      </trkpt>
      <trkpt lat="47.50241" lon="6.66227">
        <ele>363.9</ele>
        <time>2015-06-08T14:46:00Z</time>
      </trkpt>
      <trkpt lat="47.5024" lon="6.66222">
        <ele>364.1</ele>
        <time>2015-06-08T14:46:01Z</time>
      </trkpt>
      <trkpt lat="47.50238" lon="6.66218">
        <ele>364.2</ele>
        <time>2015-06-08T14:46:02Z</time>
      </trkpt>
      <trkpt lat="47.50237" lon="6.66213">
        <ele>364.3</ele>
        <time>2015-06-08T14:46:03Z</time>
      </trkpt>
      <trkpt lat="47.50235" lon="6.66209">
        <ele>364.5</ele>
        <time>2015-06-08T14:46:04Z</time>
      </trkpt>
      <trkpt lat="47.50233" lon="6.66204">
        <ele>364.7</ele>
        <time>2015-06-08T14:46:05Z</time>
      </trkpt>
      <trkpt lat="47.50231" lon="6.66199">
        <ele>364.9</ele>
        <time>2015-06-08T14:46:06Z</time>
      </trkpt>
      <trkpt lat="47.50229" lon="6.66194">
        <ele>365.1</ele>
        <time>2015-06-08T14:46:07Z</time>
      </trkpt>
      <trkpt lat="47.50228" lon="6.66189">
        <ele>365.3</ele>
        <time>2015-06-08T14:46:08Z</time>
      </trkpt>
      <trkpt lat="47.50226" lon="6.66184">
        <ele>365.5</ele>
        <time>2015-06-08T14:46:09Z</time>
      </trkpt>
      <trkpt lat="47.50225" lon="6.66179">
        <ele>365.6</ele>
        <time>2015-06-08T14:46:10Z</time>
      </trkpt>
      <trkpt lat="47.50224" lon="6.66175">
        <ele>365.9</ele>
        <time>2015-06-08T14:46:11Z</time>
      </trkpt>
      <trkpt lat="47.50222" lon="6.6617">
        <ele>366.1</ele>
        <time>2015-06-08T14:46:12Z</time>
      </trkpt>
      <trkpt lat="47.5022" lon="6.66165">
        <ele>366.3</ele>
        <time>2015-06-08T14:46:13Z</time>
      </trkpt>
      <trkpt lat="47.50219" lon="6.6616">
        <ele>366.5</ele>
        <time>2015-06-08T14:46:14Z</time>
      </trkpt>
      <trkpt lat="47.50217" lon="6.66155">
        <ele>366.7</ele>
        <time>2015-06-08T14:46:15Z</time>
      </trkpt>
      <trkpt lat="47.50215" lon="6.6615">
        <ele>366.9</ele>
        <time>2015-06-08T14:46:16Z</time>
      </trkpt>
      <trkpt lat="47.50214" lon="6.66145">
        <ele>367</ele>
        <time>2015-06-08T14:46:17Z</time>
      </trkpt>
      <trkpt lat="47.50212" lon="6.6614">
        <ele>367.1</ele>
        <time>2015-06-08T14:46:18Z</time>
      </trkpt>
      <trkpt lat="47.50211" lon="6.66135">
        <ele>367.2</ele>
        <time>2015-06-08T14:46:19Z</time>
      </trkpt>
      <trkpt lat="47.50209" lon="6.6613">
        <ele>367.2</ele>
        <time>2015-06-08T14:46:20Z</time>
      </trkpt>
      <trkpt lat="47.50207" lon="6.66125">
        <ele>367.4</ele>
        <time>2015-06-08T14:46:21Z</time>
      </trkpt>
      <trkpt lat="47.50205" lon="6.6612">
        <ele>367.5</ele>
        <time>2015-06-08T14:46:22Z</time>
      </trkpt>
      <trkpt lat="47.50204" lon="6.66115">
        <ele>367.6</ele>
        <time>2015-06-08T14:46:23Z</time>
      </trkpt>
      <trkpt lat="47.50202" lon="6.66111">
        <ele>367.6</ele>
        <time>2015-06-08T14:46:24Z</time>
      </trkpt>
      <trkpt lat="47.502" lon="6.66106">
        <ele>367.3</ele>
        <time>2015-06-08T14:46:25Z</time>
      </trkpt>
      <trkpt lat="47.50198" lon="6.66101">
        <ele>367.2</ele>
        <time>2015-06-08T14:46:26Z</time>
      </trkpt>
      <trkpt lat="47.50196" lon="6.66097">
        <ele>367</ele>
        <time>2015-06-08T14:46:27Z</time>
      </trkpt>
      <trkpt lat="47.50194" lon="6.66092">
        <ele>367.1</ele>
        <time>2015-06-08T14:46:28Z</time>
      </trkpt>
      <trkpt lat="47.50192" lon="6.66088">
        <ele>367</ele>
        <time>2015-06-08T14:46:29Z</time>
      </trkpt>
      <trkpt lat="47.5019" lon="6.66084">
        <ele>366.7</ele>
        <time>2015-06-08T14:46:30Z</time>
      </trkpt>
      <trkpt lat="47.50188" lon="6.66079">
        <ele>366.6</ele>
        <time>2015-06-08T14:46:31Z</time>
      </trkpt>
      <trkpt lat="47.50185" lon="6.66075">
        <ele>366.4</ele>
        <time>2015-06-08T14:46:32Z</time>
      </trkpt>
      <trkpt lat="47.50183" lon="6.66072">
        <ele>366.2</ele>
        <time>2015-06-08T14:46:33Z</time>
      </trkpt>
      <trkpt lat="47.5018" lon="6.66069">
        <ele>366</ele>
        <time>2015-06-08T14:46:34Z</time>
      </trkpt>
      <trkpt lat="47.50177" lon="6.66066">
        <ele>365.8</ele>
        <time>2015-06-08T14:46:35Z</time>
      </trkpt>
      <trkpt lat="47.50173" lon="6.66063">
        <ele>365.7</ele>
        <time>2015-06-08T14:46:36Z</time>
      </trkpt>
      <trkpt lat="47.50169" lon="6.6606">
        <ele>365.7</ele>
        <time>2015-06-08T14:46:37Z</time>
      </trkpt>
      <trkpt lat="47.50166" lon="6.66058">
        <ele>365.5</ele>
        <time>2015-06-08T14:46:38Z</time>
      </trkpt>
      <trkpt lat="47.50163" lon="6.66056">
        <ele>365.1</ele>
        <time>2015-06-08T14:46:39Z</time>
      </trkpt>
      <trkpt lat="47.5016" lon="6.66055">
        <ele>364.8</ele>
        <time>2015-06-08T14:46:40Z</time>
      </trkpt>
      <trkpt lat="47.50157" lon="6.66053">
        <ele>364.4</ele>
        <time>2015-06-08T14:46:41Z</time>
      </trkpt>
      <trkpt lat="47.50154" lon="6.66052">
        <ele>364</ele>
        <time>2015-06-08T14:46:42Z</time>
      </trkpt>
      <trkpt lat="47.5015" lon="6.66052">
        <ele>364.1</ele>
        <time>2015-06-08T14:46:43Z</time>
      </trkpt>
      <trkpt lat="47.50146" lon="6.66053">
        <ele>364.5</ele>
        <time>2015-06-08T14:46:44Z</time>
      </trkpt>
      <trkpt lat="47.50143" lon="6.66054">
        <ele>364.8</ele>
        <time>2015-06-08T14:46:45Z</time>
      </trkpt>
      <trkpt lat="47.50139" lon="6.66055">
        <ele>365.1</ele>
        <time>2015-06-08T14:46:46Z</time>
      </trkpt>
      <trkpt lat="47.50136" lon="6.66056">
        <ele>364.8</ele>
        <time>2015-06-08T14:46:47Z</time>
      </trkpt>
      <trkpt lat="47.50133" lon="6.66058">
        <ele>365</ele>
        <time>2015-06-08T14:46:48Z</time>
      </trkpt>
      <trkpt lat="47.5013" lon="6.6606">
        <ele>364.7</ele>
        <time>2015-06-08T14:46:49Z</time>
      </trkpt>
      <trkpt lat="47.50127" lon="6.66063">
        <ele>364.2</ele>
        <time>2015-06-08T14:46:50Z</time>
      </trkpt>
      <trkpt lat="47.50124" lon="6.66066">
        <ele>363.9</ele>
        <time>2015-06-08T14:46:51Z</time>
      </trkpt>
      <trkpt lat="47.50121" lon="6.66069">
        <ele>363.5</ele>
        <time>2015-06-08T14:46:52Z</time>
      </trkpt>
      <trkpt lat="47.50119" lon="6.66073">
        <ele>363.4</ele>
        <time>2015-06-08T14:46:53Z</time>
      </trkpt>
      <trkpt lat="47.50116" lon="6.66077">
        <ele>363.2</ele>
        <time>2015-06-08T14:46:54Z</time>
      </trkpt>
      <trkpt lat="47.50114" lon="6.66081">
        <ele>362.9</ele>
        <time>2015-06-08T14:46:55Z</time>
      </trkpt>
      <trkpt lat="47.50111" lon="6.66085">
        <ele>362.8</ele>
        <time>2015-06-08T14:46:56Z</time>
      </trkpt>
      <trkpt lat="47.50109" lon="6.66089">
        <ele>362.6</ele>
        <time>2015-06-08T14:46:57Z</time>
      </trkpt>
      <trkpt lat="47.50106" lon="6.66093">
        <ele>362.4</ele>
        <time>2015-06-08T14:46:58Z</time>
      </trkpt>
      <trkpt lat="47.50104" lon="6.66097">
        <ele>362.2</ele>
        <time>2015-06-08T14:46:59Z</time>
      </trkpt>
      <trkpt lat="47.50102" lon="6.66101">
        <ele>361.8</ele>
        <time>2015-06-08T14:47:00Z</time>
      </trkpt>
      <trkpt lat="47.501" lon="6.66105">
        <ele>361.6</ele>
        <time>2015-06-08T14:47:01Z</time>
      </trkpt>
      <trkpt lat="47.50098" lon="6.66109">
        <ele>361.2</ele>
        <time>2015-06-08T14:47:02Z</time>
      </trkpt>
      <trkpt lat="47.50096" lon="6.66114">
        <ele>360.9</ele>
        <time>2015-06-08T14:47:03Z</time>
      </trkpt>
      <trkpt lat="47.50094" lon="6.66118">
        <ele>360.6</ele>
        <time>2015-06-08T14:47:04Z</time>
      </trkpt>
      <trkpt lat="47.50092" lon="6.66122">
        <ele>360.4</ele>
        <time>2015-06-08T14:47:05Z</time>
      </trkpt>
      <trkpt lat="47.5009" lon="6.66126">
        <ele>360.2</ele>
        <time>2015-06-08T14:47:06Z</time>
      </trkpt>
      <trkpt lat="47.50088" lon="6.6613">
        <ele>360.1</ele>
        <time>2015-06-08T14:47:07Z</time>
      </trkpt>
      <trkpt lat="47.50087" lon="6.66133">
        <ele>360</ele>
        <time>2015-06-08T14:47:08Z</time>
      </trkpt>
      <trkpt lat="47.50083" lon="6.66136">
        <ele>361</ele>
        <time>2015-06-08T14:47:09Z</time>
      </trkpt>
      <trkpt lat="47.50081" lon="6.6614">
        <ele>361.1</ele>
        <time>2015-06-08T14:47:10Z</time>
      </trkpt>
      <trkpt lat="47.50079" lon="6.66144">
        <ele>361.4</ele>
        <time>2015-06-08T14:47:11Z</time>
      </trkpt>
      <trkpt lat="47.50077" lon="6.66148">
        <ele>361.3</ele>
        <time>2015-06-08T14:47:12Z</time>
      </trkpt>
      <trkpt lat="47.50075" lon="6.66152">
        <ele>361.4</ele>
        <time>2015-06-08T14:47:13Z</time>
      </trkpt>
      <trkpt lat="47.50073" lon="6.66157">
        <ele>361.5</ele>
        <time>2015-06-08T14:47:14Z</time>
      </trkpt>
      <trkpt lat="47.5007" lon="6.66161">
        <ele>361.6</ele>
        <time>2015-06-08T14:47:15Z</time>
      </trkpt>
      <trkpt lat="47.50068" lon="6.66165">
        <ele>361.6</ele>
        <time>2015-06-08T14:47:16Z</time>
      </trkpt>
      <trkpt lat="47.50065" lon="6.66169">
        <ele>361.6</ele>
        <time>2015-06-08T14:47:17Z</time>
      </trkpt>
      <trkpt lat="47.50062" lon="6.66173">
        <ele>361.5</ele>
        <time>2015-06-08T14:47:18Z</time>
      </trkpt>
      <trkpt lat="47.5006" lon="6.66177">
        <ele>361.6</ele>
        <time>2015-06-08T14:47:19Z</time>
      </trkpt>
      <trkpt lat="47.50056" lon="6.66181">
        <ele>362.3</ele>
        <time>2015-06-08T14:47:20Z</time>
      </trkpt>
      <trkpt lat="47.50054" lon="6.66186">
        <ele>362.7</ele>
        <time>2015-06-08T14:47:21Z</time>
      </trkpt>
      <trkpt lat="47.50052" lon="6.6619">
        <ele>362.8</ele>
        <time>2015-06-08T14:47:22Z</time>
      </trkpt>
      <trkpt lat="47.5005" lon="6.66195">
        <ele>363.1</ele>
        <time>2015-06-08T14:47:23Z</time>
      </trkpt>
      <trkpt lat="47.50048" lon="6.66199">
        <ele>363</ele>
        <time>2015-06-08T14:47:24Z</time>
      </trkpt>
      <trkpt lat="47.50047" lon="6.66204">
        <ele>363.2</ele>
        <time>2015-06-08T14:47:25Z</time>
      </trkpt>
      <trkpt lat="47.50045" lon="6.66209">
        <ele>363.5</ele>
        <time>2015-06-08T14:47:26Z</time>
      </trkpt>
      <trkpt lat="47.50043" lon="6.66213">
        <ele>363.7</ele>
        <time>2015-06-08T14:47:27Z</time>
      </trkpt>
      <trkpt lat="47.5004" lon="6.66218">
        <ele>363.9</ele>
        <time>2015-06-08T14:47:28Z</time>
      </trkpt>
      <trkpt lat="47.50038" lon="6.66223">
        <ele>364.4</ele>
        <time>2015-06-08T14:47:29Z</time>
      </trkpt>
      <trkpt lat="47.50036" lon="6.66227">
        <ele>364.6</ele>
        <time>2015-06-08T14:47:30Z</time>
      </trkpt>
      <trkpt lat="47.50033" lon="6.66232">
        <ele>364.7</ele>
        <time>2015-06-08T14:47:31Z</time>
      </trkpt>
      <trkpt lat="47.50031" lon="6.66236">
        <ele>364.6</ele>
        <time>2015-06-08T14:47:32Z</time>
      </trkpt>
      <trkpt lat="47.50029" lon="6.6624">
        <ele>364.3</ele>
        <time>2015-06-08T14:47:33Z</time>
      </trkpt>
      <trkpt lat="47.50026" lon="6.66245">
        <ele>364.2</ele>
        <time>2015-06-08T14:47:34Z</time>
      </trkpt>
      <trkpt lat="47.50024" lon="6.66249">
        <ele>364</ele>
        <time>2015-06-08T14:47:35Z</time>
      </trkpt>
      <trkpt lat="47.50022" lon="6.66254">
        <ele>364.2</ele>
        <time>2015-06-08T14:47:36Z</time>
      </trkpt>
      <trkpt lat="47.5002" lon="6.66258">
        <ele>364.6</ele>
        <time>2015-06-08T14:47:37Z</time>
      </trkpt>
      <trkpt lat="47.50018" lon="6.66264">
        <ele>364.8</ele>
        <time>2015-06-08T14:47:38Z</time>
      </trkpt>
      <trkpt lat="47.50016" lon="6.66269">
        <ele>365</ele>
        <time>2015-06-08T14:47:39Z</time>
      </trkpt>
      <trkpt lat="47.50014" lon="6.66275">
        <ele>365.3</ele>
        <time>2015-06-08T14:47:40Z</time>
      </trkpt>
      <trkpt lat="47.50011" lon="6.66279">
        <ele>365.5</ele>
        <time>2015-06-08T14:47:41Z</time>
      </trkpt>
      <trkpt lat="47.50009" lon="6.66284">
        <ele>365.9</ele>
        <time>2015-06-08T14:47:42Z</time>
      </trkpt>
      <trkpt lat="47.50007" lon="6.66289">
        <ele>366.2</ele>
        <time>2015-06-08T14:47:43Z</time>
      </trkpt>
      <trkpt lat="47.50005" lon="6.66293">
        <ele>366.3</ele>
        <time>2015-06-08T14:47:44Z</time>
      </trkpt>
      <trkpt lat="47.50002" lon="6.66297">
        <ele>366.3</ele>
        <time>2015-06-08T14:47:45Z</time>
      </trkpt>
      <trkpt lat="47.5" lon="6.66301">
        <ele>366.1</ele>
        <time>2015-06-08T14:47:46Z</time>
      </trkpt>
      <trkpt lat="47.49997" lon="6.66305">
        <ele>366</ele>
        <time>2015-06-08T14:47:47Z</time>
      </trkpt>
      <trkpt lat="47.49994" lon="6.66309">
        <ele>365.9</ele>
        <time>2015-06-08T14:47:48Z</time>
      </trkpt>
      <trkpt lat="47.49992" lon="6.66314">
        <ele>365.9</ele>
        <time>2015-06-08T14:47:49Z</time>
      </trkpt>
      <trkpt lat="47.49989" lon="6.66318">
        <ele>365.9</ele>
        <time>2015-06-08T14:47:50Z</time>
      </trkpt>
      <trkpt lat="47.49987" lon="6.66322">
        <ele>366</ele>
        <time>2015-06-08T14:47:51Z</time>
      </trkpt>
      <trkpt lat="47.49984" lon="6.66326">
        <ele>365.9</ele>
        <time>2015-06-08T14:47:52Z</time>
      </trkpt>
      <trkpt lat="47.49982" lon="6.6633">
        <ele>365.8</ele>
        <time>2015-06-08T14:47:53Z</time>
      </trkpt>
      <trkpt lat="47.49979" lon="6.66333">
        <ele>365.8</ele>
        <time>2015-06-08T14:47:54Z</time>
      </trkpt>
      <trkpt lat="47.49977" lon="6.66338">
        <ele>366</ele>
        <time>2015-06-08T14:47:55Z</time>
      </trkpt>
      <trkpt lat="47.49974" lon="6.66342">
        <ele>366.8</ele>
        <time>2015-06-08T14:47:56Z</time>
      </trkpt>
      <trkpt lat="47.49971" lon="6.66346">
        <ele>367.2</ele>
        <time>2015-06-08T14:47:57Z</time>
      </trkpt>
      <trkpt lat="47.49969" lon="6.66349">
        <ele>367.1</ele>
        <time>2015-06-08T14:47:58Z</time>
      </trkpt>
      <trkpt lat="47.49967" lon="6.66353">
        <ele>366.8</ele>
        <time>2015-06-08T14:47:59Z</time>
      </trkpt>
      <trkpt lat="47.49964" lon="6.66357">
        <ele>367.3</ele>
        <time>2015-06-08T14:48:00Z</time>
      </trkpt>
      <trkpt lat="47.49962" lon="6.66361">
        <ele>367.6</ele>
        <time>2015-06-08T14:48:01Z</time>
      </trkpt>
      <trkpt lat="47.49959" lon="6.66365">
        <ele>368.2</ele>
        <time>2015-06-08T14:48:02Z</time>
      </trkpt>
      <trkpt lat="47.49957" lon="6.66369">
        <ele>368.3</ele>
        <time>2015-06-08T14:48:03Z</time>
      </trkpt>
      <trkpt lat="47.49955" lon="6.66372">
        <ele>368.9</ele>
        <time>2015-06-08T14:48:04Z</time>
      </trkpt>
      <trkpt lat="47.49952" lon="6.66375">
        <ele>368.9</ele>
        <time>2015-06-08T14:48:05Z</time>
      </trkpt>
      <trkpt lat="47.4995" lon="6.66378">
        <ele>368.9</ele>
        <time>2015-06-08T14:48:06Z</time>
      </trkpt>
      <trkpt lat="47.49947" lon="6.66382">
        <ele>368.8</ele>
        <time>2015-06-08T14:48:07Z</time>
      </trkpt>
      <trkpt lat="47.49944" lon="6.66386">
        <ele>368.9</ele>
        <time>2015-06-08T14:48:08Z</time>
      </trkpt>
      <trkpt lat="47.49942" lon="6.66391">
        <ele>369</ele>
        <time>2015-06-08T14:48:09Z</time>
      </trkpt>
      <trkpt lat="47.49939" lon="6.66394">
        <ele>369.1</ele>
        <time>2015-06-08T14:48:10Z</time>
      </trkpt>
      <trkpt lat="47.49937" lon="6.66398">
        <ele>369.4</ele>
        <time>2015-06-08T14:48:11Z</time>
      </trkpt>
      <trkpt lat="47.49935" lon="6.66403">
        <ele>369.6</ele>
        <time>2015-06-08T14:48:12Z</time>
      </trkpt>
      <trkpt lat="47.49932" lon="6.66407">
        <ele>369.6</ele>
        <time>2015-06-08T14:48:13Z</time>
      </trkpt>
      <trkpt lat="47.49929" lon="6.66412">
        <ele>370.3</ele>
        <time>2015-06-08T14:48:14Z</time>
      </trkpt>
      <trkpt lat="47.49926" lon="6.66415">
        <ele>370.3</ele>
        <time>2015-06-08T14:48:15Z</time>
      </trkpt>
      <trkpt lat="47.49924" lon="6.66419">
        <ele>370.4</ele>
        <time>2015-06-08T14:48:16Z</time>
      </trkpt>
      <trkpt lat="47.49921" lon="6.66423">
        <ele>370.5</ele>
        <time>2015-06-08T14:48:17Z</time>
      </trkpt>
      <trkpt lat="47.49919" lon="6.66427">
        <ele>370.9</ele>
        <time>2015-06-08T14:48:18Z</time>
      </trkpt>
      <trkpt lat="47.49917" lon="6.66431">
        <ele>371</ele>
        <time>2015-06-08T14:48:19Z</time>
      </trkpt>
      <trkpt lat="47.49914" lon="6.66434">
        <ele>370.9</ele>
        <time>2015-06-08T14:48:20Z</time>
      </trkpt>
      <trkpt lat="47.49912" lon="6.66438">
        <ele>371.1</ele>
        <time>2015-06-08T14:48:21Z</time>
      </trkpt>
      <trkpt lat="47.49909" lon="6.66442">
        <ele>371.6</ele>
        <time>2015-06-08T14:48:22Z</time>
      </trkpt>
      <trkpt lat="47.49906" lon="6.66446">
        <ele>372.1</ele>
        <time>2015-06-08T14:48:23Z</time>
      </trkpt>
      <trkpt lat="47.49903" lon="6.6645">
        <ele>372.6</ele>
        <time>2015-06-08T14:48:24Z</time>
      </trkpt>
      <trkpt lat="47.49899" lon="6.66455">
        <ele>374</ele>
        <time>2015-06-08T14:48:25Z</time>
      </trkpt>
      <trkpt lat="47.49896" lon="6.66459">
        <ele>374.9</ele>
        <time>2015-06-08T14:48:26Z</time>
      </trkpt>
      <trkpt lat="47.49892" lon="6.66462">
        <ele>375.2</ele>
        <time>2015-06-08T14:48:27Z</time>
      </trkpt>
      <trkpt lat="47.49889" lon="6.66466">
        <ele>375.6</ele>
        <time>2015-06-08T14:48:28Z</time>
      </trkpt>
      <trkpt lat="47.49886" lon="6.66469">
        <ele>375.6</ele>
        <time>2015-06-08T14:48:29Z</time>
      </trkpt>
      <trkpt lat="47.49883" lon="6.66472">
        <ele>375.6</ele>
        <time>2015-06-08T14:48:30Z</time>
      </trkpt>
      <trkpt lat="47.4988" lon="6.66474">
        <ele>375.5</ele>
        <time>2015-06-08T14:48:31Z</time>
      </trkpt>
      <trkpt lat="47.49877" lon="6.66477">
        <ele>375.5</ele>
        <time>2015-06-08T14:48:32Z</time>
      </trkpt>
      <trkpt lat="47.49874" lon="6.66479">
        <ele>375.6</ele>
        <time>2015-06-08T14:48:33Z</time>
      </trkpt>
      <trkpt lat="47.49871" lon="6.66482">
        <ele>375.5</ele>
        <time>2015-06-08T14:48:34Z</time>
      </trkpt>
      <trkpt lat="47.49868" lon="6.66483">
        <ele>375.5</ele>
        <time>2015-06-08T14:48:35Z</time>
      </trkpt>
      <trkpt lat="47.49864" lon="6.66485">
        <ele>375.3</ele>
        <time>2015-06-08T14:48:36Z</time>
      </trkpt>
      <trkpt lat="47.49861" lon="6.66488">
        <ele>376.3</ele>
        <time>2015-06-08T14:48:37Z</time>
      </trkpt>
      <trkpt lat="47.49857" lon="6.6649">
        <ele>377.1</ele>
        <time>2015-06-08T14:48:38Z</time>
      </trkpt>
      <trkpt lat="47.49853" lon="6.66492">
        <ele>378</ele>
        <time>2015-06-08T14:48:39Z</time>
      </trkpt>
      <trkpt lat="47.49849" lon="6.66495">
        <ele>378.8</ele>
        <time>2015-06-08T14:48:40Z</time>
      </trkpt>
      <trkpt lat="47.49846" lon="6.66497">
        <ele>379.3</ele>
        <time>2015-06-08T14:48:41Z</time>
      </trkpt>
      <trkpt lat="47.49842" lon="6.66498">
        <ele>379.6</ele>
        <time>2015-06-08T14:48:42Z</time>
      </trkpt>
      <trkpt lat="47.49838" lon="6.665">
        <ele>380.3</ele>
        <time>2015-06-08T14:48:43Z</time>
      </trkpt>
      <trkpt lat="47.49835" lon="6.66501">
        <ele>380.7</ele>
        <time>2015-06-08T14:48:44Z</time>
      </trkpt>
      <trkpt lat="47.49831" lon="6.66502">
        <ele>381.2</ele>
        <time>2015-06-08T14:48:45Z</time>
      </trkpt>
      <trkpt lat="47.49827" lon="6.66503">
        <ele>381.9</ele>
        <time>2015-06-08T14:48:46Z</time>
      </trkpt>
      <trkpt lat="47.49824" lon="6.66505">
        <ele>382.6</ele>
        <time>2015-06-08T14:48:47Z</time>
      </trkpt>
      <trkpt lat="47.4982" lon="6.66506">
        <ele>382.9</ele>
        <time>2015-06-08T14:48:48Z</time>
      </trkpt>
      <trkpt lat="47.49817" lon="6.66507">
        <ele>383.1</ele>
        <time>2015-06-08T14:48:49Z</time>
      </trkpt>
      <trkpt lat="47.49813" lon="6.66508">
        <ele>383.2</ele>
        <time>2015-06-08T14:48:50Z</time>
      </trkpt>
      <trkpt lat="47.4981" lon="6.66509">
        <ele>383.4</ele>
        <time>2015-06-08T14:48:51Z</time>
      </trkpt>
      <trkpt lat="47.49807" lon="6.6651">
        <ele>383.4</ele>
        <time>2015-06-08T14:48:52Z</time>
      </trkpt>
      <trkpt lat="47.49803" lon="6.66511">
        <ele>383.7</ele>
        <time>2015-06-08T14:48:53Z</time>
      </trkpt>
      <trkpt lat="47.498" lon="6.66512">
        <ele>384.2</ele>
        <time>2015-06-08T14:48:54Z</time>
      </trkpt>
      <trkpt lat="47.49796" lon="6.66513">
        <ele>384.6</ele>
        <time>2015-06-08T14:48:55Z</time>
      </trkpt>
      <trkpt lat="47.49793" lon="6.66515">
        <ele>385.1</ele>
        <time>2015-06-08T14:48:56Z</time>
      </trkpt>
      <trkpt lat="47.49789" lon="6.66515">
        <ele>385.2</ele>
        <time>2015-06-08T14:48:57Z</time>
      </trkpt>
      <trkpt lat="47.49786" lon="6.66516">
        <ele>385.3</ele>
        <time>2015-06-08T14:48:58Z</time>
      </trkpt>
      <trkpt lat="47.49782" lon="6.66517">
        <ele>385.6</ele>
        <time>2015-06-08T14:48:59Z</time>
      </trkpt>
      <trkpt lat="47.49779" lon="6.66518">
        <ele>385.8</ele>
        <time>2015-06-08T14:49:00Z</time>
      </trkpt>
      <trkpt lat="47.49776" lon="6.66519">
        <ele>386</ele>
        <time>2015-06-08T14:49:01Z</time>
      </trkpt>
      <trkpt lat="47.49772" lon="6.6652">
        <ele>386.6</ele>
        <time>2015-06-08T14:49:02Z</time>
      </trkpt>
      <trkpt lat="47.49769" lon="6.6652">
        <ele>386.8</ele>
        <time>2015-06-08T14:49:03Z</time>
      </trkpt>
      <trkpt lat="47.49765" lon="6.66521">
        <ele>386.9</ele>
        <time>2015-06-08T14:49:04Z</time>
      </trkpt>
      <trkpt lat="47.49762" lon="6.66522">
        <ele>387.1</ele>
        <time>2015-06-08T14:49:05Z</time>
      </trkpt>
      <trkpt lat="47.49758" lon="6.66523">
        <ele>387.1</ele>
        <time>2015-06-08T14:49:06Z</time>
      </trkpt>
      <trkpt lat="47.49755" lon="6.66525">
        <ele>387.2</ele>
        <time>2015-06-08T14:49:07Z</time>
      </trkpt>
      <trkpt lat="47.49751" lon="6.66526">
        <ele>387.3</ele>
        <time>2015-06-08T14:49:08Z</time>
      </trkpt>
      <trkpt lat="47.49748" lon="6.66527">
        <ele>387.7</ele>
        <time>2015-06-08T14:49:09Z</time>
      </trkpt>
      <trkpt lat="47.49744" lon="6.66528">
        <ele>388</ele>
        <time>2015-06-08T14:49:10Z</time>
      </trkpt>
      <trkpt lat="47.4974" lon="6.6653">
        <ele>388.3</ele>
        <time>2015-06-08T14:49:11Z</time>
      </trkpt>
      <trkpt lat="47.49737" lon="6.66531">
        <ele>388.8</ele>
        <time>2015-06-08T14:49:12Z</time>
      </trkpt>
      <trkpt lat="47.49733" lon="6.66533">
        <ele>389.3</ele>
        <time>2015-06-08T14:49:13Z</time>
      </trkpt>
      <trkpt lat="47.49729" lon="6.66534">
        <ele>389.9</ele>
        <time>2015-06-08T14:49:14Z</time>
      </trkpt>
      <trkpt lat="47.49725" lon="6.66535">
        <ele>390.3</ele>
        <time>2015-06-08T14:49:15Z</time>
      </trkpt>
      <trkpt lat="47.49722" lon="6.66536">
        <ele>390.4</ele>
        <time>2015-06-08T14:49:16Z</time>
      </trkpt>
      <trkpt lat="47.49718" lon="6.66537">
        <ele>390.6</ele>
        <time>2015-06-08T14:49:17Z</time>
      </trkpt>
      <trkpt lat="47.49714" lon="6.66539">
        <ele>390.9</ele>
        <time>2015-06-08T14:49:18Z</time>
      </trkpt>
      <trkpt lat="47.4971" lon="6.6654">
        <ele>391.1</ele>
        <time>2015-06-08T14:49:19Z</time>
      </trkpt>
      <trkpt lat="47.49706" lon="6.66541">
        <ele>391.3</ele>
        <time>2015-06-08T14:49:20Z</time>
      </trkpt>
      <trkpt lat="47.49702" lon="6.66542">
        <ele>391.4</ele>
        <time>2015-06-08T14:49:21Z</time>
      </trkpt>
      <trkpt lat="47.49699" lon="6.66543">
        <ele>391.5</ele>
        <time>2015-06-08T14:49:22Z</time>
      </trkpt>
      <trkpt lat="47.49695" lon="6.66544">
        <ele>391.7</ele>
        <time>2015-06-08T14:49:23Z</time>
      </trkpt>
      <trkpt lat="47.49692" lon="6.66546">
        <ele>392</ele>
        <time>2015-06-08T14:49:24Z</time>
      </trkpt>
      <trkpt lat="47.49688" lon="6.66547">
        <ele>392</ele>
        <time>2015-06-08T14:49:25Z</time>
      </trkpt>
      <trkpt lat="47.49685" lon="6.66548">
        <ele>391.9</ele>
        <time>2015-06-08T14:49:26Z</time>
      </trkpt>
      <trkpt lat="47.49682" lon="6.66549">
        <ele>392</ele>
        <time>2015-06-08T14:49:27Z</time>
      </trkpt>
      <trkpt lat="47.49679" lon="6.6655">
        <ele>391.9</ele>
        <time>2015-06-08T14:49:28Z</time>
      </trkpt>
      <trkpt lat="47.49675" lon="6.66551">
        <ele>391.9</ele>
        <time>2015-06-08T14:49:29Z</time>
      </trkpt>
      <trkpt lat="47.49672" lon="6.66552">
        <ele>391.9</ele>
        <time>2015-06-08T14:49:30Z</time>
      </trkpt>
      <trkpt lat="47.49668" lon="6.66553">
        <ele>392</ele>
        <time>2015-06-08T14:49:31Z</time>
      </trkpt>
      <trkpt lat="47.49665" lon="6.66554">
        <ele>392.1</ele>
        <time>2015-06-08T14:49:32Z</time>
      </trkpt>
      <trkpt lat="47.49661" lon="6.66555">
        <ele>392.7</ele>
        <time>2015-06-08T14:49:33Z</time>
      </trkpt>
      <trkpt lat="47.49658" lon="6.66556">
        <ele>392.7</ele>
        <time>2015-06-08T14:49:34Z</time>
      </trkpt>
      <trkpt lat="47.49654" lon="6.66557">
        <ele>392.8</ele>
        <time>2015-06-08T14:49:35Z</time>
      </trkpt>
      <trkpt lat="47.49651" lon="6.66558">
        <ele>392.7</ele>
        <time>2015-06-08T14:49:36Z</time>
      </trkpt>
      <trkpt lat="47.49648" lon="6.66559">
        <ele>392.9</ele>
        <time>2015-06-08T14:49:37Z</time>
      </trkpt>
      <trkpt lat="47.49644" lon="6.6656">
        <ele>392.8</ele>
        <time>2015-06-08T14:49:38Z</time>
      </trkpt>
      <trkpt lat="47.49641" lon="6.66561">
        <ele>392.8</ele>
        <time>2015-06-08T14:49:39Z</time>
      </trkpt>
      <trkpt lat="47.49637" lon="6.66562">
        <ele>392.7</ele>
        <time>2015-06-08T14:49:40Z</time>
      </trkpt>
      <trkpt lat="47.49633" lon="6.66563">
        <ele>392.6</ele>
        <time>2015-06-08T14:49:41Z</time>
      </trkpt>
      <trkpt lat="47.49629" lon="6.66564">
        <ele>392.5</ele>
        <time>2015-06-08T14:49:42Z</time>
      </trkpt>
      <trkpt lat="47.49626" lon="6.66565">
        <ele>392.2</ele>
        <time>2015-06-08T14:49:43Z</time>
      </trkpt>
      <trkpt lat="47.49622" lon="6.66566">
        <ele>392.2</ele>
        <time>2015-06-08T14:49:44Z</time>
      </trkpt>
      <trkpt lat="47.49618" lon="6.66567">
        <ele>392.5</ele>
        <time>2015-06-08T14:49:45Z</time>
      </trkpt>
      <trkpt lat="47.49614" lon="6.66567">
        <ele>392.4</ele>
        <time>2015-06-08T14:49:46Z</time>
      </trkpt>
      <trkpt lat="47.49609" lon="6.66567">
        <ele>393</ele>
        <time>2015-06-08T14:49:47Z</time>
      </trkpt>
      <trkpt lat="47.49605" lon="6.66568">
        <ele>393.2</ele>
        <time>2015-06-08T14:49:48Z</time>
      </trkpt>
      <trkpt lat="47.49602" lon="6.66568">
        <ele>393.3</ele>
        <time>2015-06-08T14:49:49Z</time>
      </trkpt>
      <trkpt lat="47.49598" lon="6.66569">
        <ele>393.4</ele>
        <time>2015-06-08T14:49:50Z</time>
      </trkpt>
      <trkpt lat="47.49594" lon="6.66571">
        <ele>393.9</ele>
        <time>2015-06-08T14:49:51Z</time>
      </trkpt>
      <trkpt lat="47.4959" lon="6.66572">
        <ele>394.5</ele>
        <time>2015-06-08T14:49:52Z</time>
      </trkpt>
      <trkpt lat="47.49585" lon="6.66573">
        <ele>395.2</ele>
        <time>2015-06-08T14:49:53Z</time>
      </trkpt>
      <trkpt lat="47.49581" lon="6.66574">
        <ele>395.5</ele>
        <time>2015-06-08T14:49:54Z</time>
      </trkpt>
      <trkpt lat="47.49577" lon="6.66574">
        <ele>395.9</ele>
        <time>2015-06-08T14:49:55Z</time>
      </trkpt>
      <trkpt lat="47.49573" lon="6.66575">
        <ele>396.2</ele>
        <time>2015-06-08T14:49:56Z</time>
      </trkpt>
      <trkpt lat="47.49569" lon="6.66575">
        <ele>396.6</ele>
        <time>2015-06-08T14:49:57Z</time>
      </trkpt>
      <trkpt lat="47.49565" lon="6.66576">
        <ele>396.9</ele>
        <time>2015-06-08T14:49:58Z</time>
      </trkpt>
      <trkpt lat="47.49561" lon="6.66576">
        <ele>397.1</ele>
        <time>2015-06-08T14:49:59Z</time>
      </trkpt>
      <trkpt lat="47.49558" lon="6.66576">
        <ele>397.1</ele>
        <time>2015-06-08T14:50:00Z</time>
      </trkpt>
      <trkpt lat="47.49554" lon="6.66576">
        <ele>397.3</ele>
        <time>2015-06-08T14:50:01Z</time>
      </trkpt>
      <trkpt lat="47.4955" lon="6.66576">
        <ele>397.2</ele>
        <time>2015-06-08T14:50:02Z</time>
      </trkpt>
      <trkpt lat="47.49546" lon="6.66575">
        <ele>397.3</ele>
        <time>2015-06-08T14:50:03Z</time>
      </trkpt>
      <trkpt lat="47.49542" lon="6.66575">
        <ele>397.6</ele>
        <time>2015-06-08T14:50:04Z</time>
      </trkpt>
      <trkpt lat="47.49538" lon="6.66576">
        <ele>397.7</ele>
        <time>2015-06-08T14:50:05Z</time>
      </trkpt>
      <trkpt lat="47.49534" lon="6.66576">
        <ele>397.8</ele>
        <time>2015-06-08T14:50:06Z</time>
      </trkpt>
      <trkpt lat="47.49531" lon="6.66576">
        <ele>397.7</ele>
        <time>2015-06-08T14:50:07Z</time>
      </trkpt>
      <trkpt lat="47.49527" lon="6.66576">
        <ele>397.6</ele>
        <time>2015-06-08T14:50:08Z</time>
      </trkpt>
      <trkpt lat="47.49523" lon="6.66576">
        <ele>397.9</ele>
        <time>2015-06-08T14:50:09Z</time>
      </trkpt>
      <trkpt lat="47.49519" lon="6.66577">
        <ele>397.9</ele>
        <time>2015-06-08T14:50:10Z</time>
      </trkpt>
      <trkpt lat="47.49515" lon="6.66577">
        <ele>398.1</ele>
        <time>2015-06-08T14:50:11Z</time>
      </trkpt>
      <trkpt lat="47.49511" lon="6.66578">
        <ele>398.4</ele>
        <time>2015-06-08T14:50:12Z</time>
      </trkpt>
      <trkpt lat="47.49507" lon="6.66578">
        <ele>398.3</ele>
        <time>2015-06-08T14:50:13Z</time>
      </trkpt>
      <trkpt lat="47.49502" lon="6.66578">
        <ele>398.8</ele>
        <time>2015-06-08T14:50:14Z</time>
      </trkpt>
      <trkpt lat="47.49499" lon="6.66578">
        <ele>398.9</ele>
        <time>2015-06-08T14:50:15Z</time>
      </trkpt>
      <trkpt lat="47.49494" lon="6.66577">
        <ele>399</ele>
        <time>2015-06-08T14:50:16Z</time>
      </trkpt>
      <trkpt lat="47.4949" lon="6.66577">
        <ele>399</ele>
        <time>2015-06-08T14:50:17Z</time>
      </trkpt>
      <trkpt lat="47.49486" lon="6.66577">
        <ele>398.9</ele>
        <time>2015-06-08T14:50:18Z</time>
      </trkpt>
      <trkpt lat="47.49482" lon="6.66578">
        <ele>398.8</ele>
        <time>2015-06-08T14:50:19Z</time>
      </trkpt>
      <trkpt lat="47.49478" lon="6.66579">
        <ele>398.5</ele>
        <time>2015-06-08T14:50:20Z</time>
      </trkpt>
      <trkpt lat="47.49474" lon="6.66581">
        <ele>398.4</ele>
        <time>2015-06-08T14:50:21Z</time>
      </trkpt>
      <trkpt lat="47.4947" lon="6.66583">
        <ele>398.1</ele>
        <time>2015-06-08T14:50:22Z</time>
      </trkpt>
      <trkpt lat="47.49466" lon="6.66585">
        <ele>397.7</ele>
        <time>2015-06-08T14:50:23Z</time>
      </trkpt>
      <trkpt lat="47.49462" lon="6.66587">
        <ele>397.2</ele>
        <time>2015-06-08T14:50:24Z</time>
      </trkpt>
      <trkpt lat="47.49457" lon="6.66589">
        <ele>396.8</ele>
        <time>2015-06-08T14:50:25Z</time>
      </trkpt>
      <trkpt lat="47.49452" lon="6.66591">
        <ele>396.5</ele>
        <time>2015-06-08T14:50:26Z</time>
      </trkpt>
      <trkpt lat="47.49447" lon="6.66592">
        <ele>396.5</ele>
        <time>2015-06-08T14:50:27Z</time>
      </trkpt>
      <trkpt lat="47.49443" lon="6.66594">
        <ele>396.6</ele>
        <time>2015-06-08T14:50:28Z</time>
      </trkpt>
      <trkpt lat="47.49439" lon="6.66597">
        <ele>396.7</ele>
        <time>2015-06-08T14:50:29Z</time>
      </trkpt>
      <trkpt lat="47.49434" lon="6.66601">
        <ele>396.9</ele>
        <time>2015-06-08T14:50:30Z</time>
      </trkpt>
      <trkpt lat="47.4943" lon="6.66606">
        <ele>397.3</ele>
        <time>2015-06-08T14:50:31Z</time>
      </trkpt>
      <trkpt lat="47.49426" lon="6.66611">
        <ele>398.1</ele>
        <time>2015-06-08T14:50:32Z</time>
      </trkpt>
      <trkpt lat="47.49422" lon="6.66615">
        <ele>398.2</ele>
        <time>2015-06-08T14:50:33Z</time>
      </trkpt>
      <trkpt lat="47.49418" lon="6.66619">
        <ele>398.6</ele>
        <time>2015-06-08T14:50:34Z</time>
      </trkpt>
      <trkpt lat="47.49414" lon="6.66623">
        <ele>398.7</ele>
        <time>2015-06-08T14:50:35Z</time>
      </trkpt>
      <trkpt lat="47.49409" lon="6.66627">
        <ele>398.7</ele>
        <time>2015-06-08T14:50:36Z</time>
      </trkpt>
      <trkpt lat="47.49405" lon="6.66629">
        <ele>398.8</ele>
        <time>2015-06-08T14:50:37Z</time>
      </trkpt>
      <trkpt lat="47.494" lon="6.66631">
        <ele>398.8</ele>
        <time>2015-06-08T14:50:38Z</time>
      </trkpt>
      <trkpt lat="47.49396" lon="6.66631">
        <ele>399</ele>
        <time>2015-06-08T14:50:39Z</time>
      </trkpt>
      <trkpt lat="47.49392" lon="6.66631">
        <ele>399.5</ele>
        <time>2015-06-08T14:50:40Z</time>
      </trkpt>
      <trkpt lat="47.49388" lon="6.6663">
        <ele>399.9</ele>
        <time>2015-06-08T14:50:41Z</time>
      </trkpt>
      <trkpt lat="47.49385" lon="6.66628">
        <ele>400.3</ele>
        <time>2015-06-08T14:50:42Z</time>
      </trkpt>
      <trkpt lat="47.49383" lon="6.66626">
        <ele>400.9</ele>
        <time>2015-06-08T14:50:43Z</time>
      </trkpt>
      <trkpt lat="47.4938" lon="6.66625">
        <ele>400.9</ele>
        <time>2015-06-08T14:50:44Z</time>
      </trkpt>
      <trkpt lat="47.49377" lon="6.66623">
        <ele>401.1</ele>
        <time>2015-06-08T14:50:45Z</time>
      </trkpt>
      <trkpt lat="47.49374" lon="6.66621">
        <ele>401.4</ele>
        <time>2015-06-08T14:50:46Z</time>
      </trkpt>
      <trkpt lat="47.49371" lon="6.6662">
        <ele>401.8</ele>
        <time>2015-06-08T14:50:47Z</time>
      </trkpt>
      <trkpt lat="47.49368" lon="6.66618">
        <ele>402.1</ele>
        <time>2015-06-08T14:50:48Z</time>
      </trkpt>
      <trkpt lat="47.49364" lon="6.66617">
        <ele>402.5</ele>
        <time>2015-06-08T14:50:49Z</time>
      </trkpt>
      <trkpt lat="47.49361" lon="6.66615">
        <ele>402.8</ele>
        <time>2015-06-08T14:50:50Z</time>
      </trkpt>
      <trkpt lat="47.49358" lon="6.66614">
        <ele>403.2</ele>
        <time>2015-06-08T14:50:51Z</time>
      </trkpt>
      <trkpt lat="47.49355" lon="6.66613">
        <ele>403.9</ele>
        <time>2015-06-08T14:50:52Z</time>
      </trkpt>
      <trkpt lat="47.49352" lon="6.66613">
        <ele>404.4</ele>
        <time>2015-06-08T14:50:53Z</time>
      </trkpt>
      <trkpt lat="47.49351" lon="6.66614">
        <ele>404.9</ele>
        <time>2015-06-08T14:50:54Z</time>
      </trkpt>
      <trkpt lat="47.49349" lon="6.66616">
        <ele>405.6</ele>
        <time>2015-06-08T14:50:55Z</time>
      </trkpt>
      <trkpt lat="47.49347" lon="6.66618">
        <ele>405.5</ele>
        <time>2015-06-08T14:50:56Z</time>
      </trkpt>
      <trkpt lat="47.49345" lon="6.66619">
        <ele>405.1</ele>
        <time>2015-06-08T14:50:57Z</time>
      </trkpt>
      <trkpt lat="47.49343" lon="6.6662">
        <ele>405</ele>
        <time>2015-06-08T14:50:58Z</time>
      </trkpt>
      <trkpt lat="47.49341" lon="6.66621">
        <ele>404.8</ele>
        <time>2015-06-08T14:50:59Z</time>
      </trkpt>
      <trkpt lat="47.4934" lon="6.66621">
        <ele>404.7</ele>
        <time>2015-06-08T14:51:00Z</time>
      </trkpt>
      <trkpt lat="47.49338" lon="6.66621">
        <ele>404.6</ele>
        <time>2015-06-08T14:51:01Z</time>
      </trkpt>
      <trkpt lat="47.49337" lon="6.66621">
        <ele>404.6</ele>
        <time>2015-06-08T14:51:03Z</time>
      </trkpt>
      <trkpt lat="47.49336" lon="6.66621">
        <ele>404.7</ele>
        <time>2015-06-08T14:51:04Z</time>
      </trkpt>
      <trkpt lat="47.49335" lon="6.66621">
        <ele>404.7</ele>
        <time>2015-06-08T14:51:05Z</time>
      </trkpt>
      <trkpt lat="47.49334" lon="6.6662">
        <ele>404.7</ele>
        <time>2015-06-08T14:51:07Z</time>
      </trkpt>
      <trkpt lat="47.49333" lon="6.66621">
        <ele>404.7</ele>
        <time>2015-06-08T14:51:09Z</time>
      </trkpt>
      <trkpt lat="47.49332" lon="6.66621">
        <ele>404.7</ele>
        <time>2015-06-08T14:51:11Z</time>
      </trkpt>
      <trkpt lat="47.49333" lon="6.66619">
        <ele>404.7</ele>
        <time>2015-06-08T14:51:26Z</time>
      </trkpt>
      <trkpt lat="47.49333" lon="6.66618">
        <ele>404.6</ele>
        <time>2015-06-08T14:51:29Z</time>
      </trkpt>
      <trkpt lat="47.49335" lon="6.66617">
        <ele>404.6</ele>
        <time>2015-06-08T14:51:31Z</time>
      </trkpt>
      <trkpt lat="47.49338" lon="6.66616">
        <ele>404.6</ele>
        <time>2015-06-08T14:51:33Z</time>
      </trkpt>
      <trkpt lat="47.49339" lon="6.66614">
        <ele>404.5</ele>
        <time>2015-06-08T14:51:34Z</time>
      </trkpt>
      <trkpt lat="47.4934" lon="6.66612">
        <ele>404.6</ele>
        <time>2015-06-08T14:51:35Z</time>
      </trkpt>
      <trkpt lat="47.4934" lon="6.6661">
        <ele>404.6</ele>
        <time>2015-06-08T14:51:37Z</time>
      </trkpt>
      <trkpt lat="47.49342" lon="6.66609">
        <ele>404.5</ele>
        <time>2015-06-08T14:51:38Z</time>
      </trkpt>
      <trkpt lat="47.49342" lon="6.66608">
        <ele>404.6</ele>
        <time>2015-06-08T14:51:39Z</time>
      </trkpt>
      <trkpt lat="47.49342" lon="6.66606">
        <ele>404.6</ele>
        <time>2015-06-08T14:51:40Z</time>
      </trkpt>
      <trkpt lat="47.49343" lon="6.66605">
        <ele>404.6</ele>
        <time>2015-06-08T14:51:42Z</time>
      </trkpt>
      <trkpt lat="47.49342" lon="6.66603">
        <ele>404.6</ele>
        <time>2015-06-08T14:51:44Z</time>
      </trkpt>
      <trkpt lat="47.49342" lon="6.66601">
        <ele>404.8</ele>
        <time>2015-06-08T14:51:45Z</time>
      </trkpt>
      <trkpt lat="47.49342" lon="6.666">
        <ele>404.8</ele>
        <time>2015-06-08T14:51:47Z</time>
      </trkpt>
      <trkpt lat="47.49341" lon="6.66599">
        <ele>404.7</ele>
        <time>2015-06-08T14:51:49Z</time>
      </trkpt>
      <trkpt lat="47.49345" lon="6.66599">
        <ele>404.7</ele>
        <time>2015-06-08T14:51:51Z</time>
      </trkpt>
      <trkpt lat="47.49348" lon="6.66604">
        <ele>405</ele>
        <time>2015-06-08T14:51:52Z</time>
      </trkpt>
      <trkpt lat="47.4935" lon="6.66608">
        <ele>405.4</ele>
        <time>2015-06-08T14:51:54Z</time>
      </trkpt>
      <trkpt lat="47.49353" lon="6.6661">
        <ele>405.5</ele>
        <time>2015-06-08T14:51:55Z</time>
      </trkpt>
      <trkpt lat="47.49354" lon="6.6661">
        <ele>405.6</ele>
        <time>2015-06-08T14:51:56Z</time>
      </trkpt>
      <trkpt lat="47.49356" lon="6.66612">
        <ele>405.9</ele>
        <time>2015-06-08T14:51:57Z</time>
      </trkpt>
      <trkpt lat="47.49358" lon="6.66613">
        <ele>406</ele>
        <time>2015-06-08T14:51:59Z</time>
      </trkpt>
      <trkpt lat="47.49361" lon="6.66614">
        <ele>406.1</ele>
        <time>2015-06-08T14:52:00Z</time>
      </trkpt>
      <trkpt lat="47.49362" lon="6.66615">
        <ele>406.3</ele>
        <time>2015-06-08T14:52:01Z</time>
      </trkpt>
      <trkpt lat="47.49363" lon="6.66615">
        <ele>406.5</ele>
        <time>2015-06-08T14:52:02Z</time>
      </trkpt>
      <trkpt lat="47.49364" lon="6.66616">
        <ele>406.7</ele>
        <time>2015-06-08T14:52:03Z</time>
      </trkpt>
      <trkpt lat="47.49363" lon="6.66617">
        <ele>407.1</ele>
        <time>2015-06-08T14:52:05Z</time>
      </trkpt>
      <trkpt lat="47.49361" lon="6.66618">
        <ele>407.6</ele>
        <time>2015-06-08T14:52:07Z</time>
      </trkpt>
      <trkpt lat="47.4936" lon="6.66618">
        <ele>408.2</ele>
        <time>2015-06-08T14:52:10Z</time>
      </trkpt>
      <trkpt lat="47.4936" lon="6.66616">
        <ele>409</ele>
        <time>2015-06-08T14:52:13Z</time>
      </trkpt>
      <trkpt lat="47.4936" lon="6.66615">
        <ele>409.5</ele>
        <time>2015-06-08T14:52:15Z</time>
      </trkpt>
      <trkpt lat="47.49359" lon="6.66616">
        <ele>411</ele>
        <time>2015-06-08T14:52:19Z</time>
      </trkpt>
      <trkpt lat="47.49361" lon="6.66619">
        <ele>411.7</ele>
        <time>2015-06-08T14:52:21Z</time>
      </trkpt>
      <trkpt lat="47.4936" lon="6.66619">
        <ele>413.1</ele>
        <time>2015-06-08T14:52:23Z</time>
      </trkpt>
      <trkpt lat="47.49358" lon="6.66619">
        <ele>416.9</ele>
        <time>2015-06-08T14:52:28Z</time>
      </trkpt>
      <trkpt lat="47.49357" lon="6.66618">
        <ele>418.6</ele>
        <time>2015-06-08T14:52:32Z</time>
      </trkpt>
    </trkseg>
  </trk>
</gpx>